<?xml version="1.0" encoding="UTF-8" standalone="no" ?>
<gpx xmlns="http://www.topografix.com/GPX/1/1" xmlns:xsi="http://www.w3.org/2001/XMLSchema-instance" xsi:schemaLocation="http://www.topografix.com/GPX/1/1 http://www.topografix.com/GPX/1/1/gpx.xsd" version="1.1" creator="VisuGPX - https://www.visugpx.com">
  <metadata>
    <name>tour denecourt</name>
  </metadata>
  <trk>
    <name><![CDATA[Tracé actuel: 22 MAI 2021 22:48]]></name>
    <trkseg>
      <trkpt lat="48.57333" lon="2.61171">
        <ele>77.9</ele>
        <time>2021-05-22T20:48:50Z</time>
      </trkpt>
      <trkpt lat="48.5734" lon="2.6117">
        <ele>77.8</ele>
        <time>2021-05-22T20:48:58Z</time>
      </trkpt>
      <trkpt lat="48.57348" lon="2.61165">
        <ele>77.6</ele>
        <time>2021-05-22T20:49:02Z</time>
      </trkpt>
      <trkpt lat="48.57359" lon="2.61142">
        <ele>77.3</ele>
        <time>2021-05-22T20:49:16Z</time>
      </trkpt>
      <trkpt lat="48.57361" lon="2.6114">
        <ele>77.2</ele>
        <time>2021-05-22T20:49:18Z</time>
      </trkpt>
      <trkpt lat="48.57383" lon="2.61145">
        <ele>76.7</ele>
        <time>2021-05-22T20:49:37Z</time>
      </trkpt>
      <trkpt lat="48.57395" lon="2.61158">
        <ele>76.4</ele>
        <time>2021-05-22T20:49:52Z</time>
      </trkpt>
      <trkpt lat="48.57394" lon="2.61163">
        <ele>76.5</ele>
        <time>2021-05-22T20:49:55Z</time>
      </trkpt>
      <trkpt lat="48.57394" lon="2.61174">
        <ele>76.4</ele>
        <time>2021-05-22T20:50:03Z</time>
      </trkpt>
      <trkpt lat="48.57393" lon="2.61177">
        <ele>76.5</ele>
        <time>2021-05-22T20:50:04Z</time>
      </trkpt>
    </trkseg>
  </trk>
  <trk>
    <name><![CDATA[Tracé actuel: 23 MAI 2021 08:49]]></name>
    <trkseg>
      <trkpt lat="48.80008" lon="2.98606">
        <ele>125</ele>
        <time>2021-05-23T06:49:21Z</time>
      </trkpt>
      <trkpt lat="48.80011" lon="2.98623">
        <ele>125</ele>
        <time>2021-05-23T06:49:24Z</time>
      </trkpt>
      <trkpt lat="48.80011" lon="2.98629">
        <ele>125</ele>
        <time>2021-05-23T06:49:25Z</time>
      </trkpt>
      <trkpt lat="48.80012" lon="2.98635">
        <ele>125</ele>
        <time>2021-05-23T06:49:26Z</time>
      </trkpt>
      <trkpt lat="48.80013" lon="2.9864">
        <ele>125</ele>
        <time>2021-05-23T06:49:27Z</time>
      </trkpt>
      <trkpt lat="48.80013" lon="2.98645">
        <ele>125</ele>
        <time>2021-05-23T06:49:28Z</time>
      </trkpt>
      <trkpt lat="48.80019" lon="2.98708">
        <ele>125.5</ele>
        <time>2021-05-23T06:49:40Z</time>
      </trkpt>
      <trkpt lat="48.8003" lon="2.98792">
        <ele>126.5</ele>
        <time>2021-05-23T06:49:55Z</time>
      </trkpt>
      <trkpt lat="48.80045" lon="2.98895">
        <ele>126.7</ele>
        <time>2021-05-23T06:50:13Z</time>
      </trkpt>
      <trkpt lat="48.80049" lon="2.98924">
        <ele>126.6</ele>
        <time>2021-05-23T06:50:18Z</time>
      </trkpt>
      <trkpt lat="48.80055" lon="2.98961">
        <ele>126.5</ele>
        <time>2021-05-23T06:50:24Z</time>
      </trkpt>
      <trkpt lat="48.80059" lon="2.99021">
        <ele>126</ele>
        <time>2021-05-23T06:50:34Z</time>
      </trkpt>
      <trkpt lat="48.80059" lon="2.99049">
        <ele>125.5</ele>
        <time>2021-05-23T06:50:38Z</time>
      </trkpt>
      <trkpt lat="48.80057" lon="2.99063">
        <ele>125.3</ele>
        <time>2021-05-23T06:50:40Z</time>
      </trkpt>
      <trkpt lat="48.80056" lon="2.9907">
        <ele>125.2</ele>
        <time>2021-05-23T06:50:41Z</time>
      </trkpt>
      <trkpt lat="48.80035" lon="2.9916">
        <ele>125.4</ele>
        <time>2021-05-23T06:50:54Z</time>
      </trkpt>
      <trkpt lat="48.80003" lon="2.99289">
        <ele>126</ele>
        <time>2021-05-23T06:51:12Z</time>
      </trkpt>
      <trkpt lat="48.79996" lon="2.99319">
        <ele>126</ele>
        <time>2021-05-23T06:51:16Z</time>
      </trkpt>
      <trkpt lat="48.79994" lon="2.99334">
        <ele>126.1</ele>
        <time>2021-05-23T06:51:18Z</time>
      </trkpt>
      <trkpt lat="48.7999" lon="2.99349">
        <ele>126.3</ele>
        <time>2021-05-23T06:51:20Z</time>
      </trkpt>
      <trkpt lat="48.79985" lon="2.99377">
        <ele>126.6</ele>
        <time>2021-05-23T06:51:24Z</time>
      </trkpt>
      <trkpt lat="48.79976" lon="2.99428">
        <ele>127</ele>
        <time>2021-05-23T06:51:32Z</time>
      </trkpt>
      <trkpt lat="48.7996" lon="2.99505">
        <ele>127</ele>
        <time>2021-05-23T06:51:44Z</time>
      </trkpt>
      <trkpt lat="48.79941" lon="2.99613">
        <ele>126.8</ele>
        <time>2021-05-23T06:51:59Z</time>
      </trkpt>
      <trkpt lat="48.79932" lon="2.99657">
        <ele>127</ele>
        <time>2021-05-23T06:52:06Z</time>
      </trkpt>
      <trkpt lat="48.79931" lon="2.9967">
        <ele>127.1</ele>
        <time>2021-05-23T06:52:08Z</time>
      </trkpt>
      <trkpt lat="48.79927" lon="2.99735">
        <ele>128.5</ele>
        <time>2021-05-23T06:52:21Z</time>
      </trkpt>
      <trkpt lat="48.79909" lon="2.99753">
        <ele>129.2</ele>
        <time>2021-05-23T06:52:28Z</time>
      </trkpt>
      <trkpt lat="48.79895" lon="2.99799">
        <ele>130.3</ele>
        <time>2021-05-23T06:52:42Z</time>
      </trkpt>
      <trkpt lat="48.79895" lon="2.99847">
        <ele>131</ele>
        <time>2021-05-23T06:52:55Z</time>
      </trkpt>
      <trkpt lat="48.79893" lon="2.99905">
        <ele>131.2</ele>
        <time>2021-05-23T06:53:09Z</time>
      </trkpt>
      <trkpt lat="48.79901" lon="3.00005">
        <ele>131.2</ele>
        <time>2021-05-23T06:53:25Z</time>
      </trkpt>
      <trkpt lat="48.79903" lon="3.00036">
        <ele>131.5</ele>
        <time>2021-05-23T06:53:30Z</time>
      </trkpt>
      <trkpt lat="48.79903" lon="3.00042">
        <ele>131.6</ele>
        <time>2021-05-23T06:53:31Z</time>
      </trkpt>
      <trkpt lat="48.79906" lon="3.00124">
        <ele>132.1</ele>
        <time>2021-05-23T06:53:45Z</time>
      </trkpt>
      <trkpt lat="48.7991" lon="3.00195">
        <ele>131.4</ele>
        <time>2021-05-23T06:53:56Z</time>
      </trkpt>
      <trkpt lat="48.79912" lon="3.00215">
        <ele>130.9</ele>
        <time>2021-05-23T06:53:59Z</time>
      </trkpt>
      <trkpt lat="48.79916" lon="3.00327">
        <ele>130</ele>
        <time>2021-05-23T06:54:15Z</time>
      </trkpt>
      <trkpt lat="48.79921" lon="3.00453">
        <ele>128.6</ele>
        <time>2021-05-23T06:54:31Z</time>
      </trkpt>
      <trkpt lat="48.79923" lon="3.0046">
        <ele>128.5</ele>
        <time>2021-05-23T06:54:32Z</time>
      </trkpt>
      <trkpt lat="48.79926" lon="3.00465">
        <ele>128.4</ele>
        <time>2021-05-23T06:54:33Z</time>
      </trkpt>
      <trkpt lat="48.7993" lon="3.0047">
        <ele>128.4</ele>
        <time>2021-05-23T06:54:34Z</time>
      </trkpt>
      <trkpt lat="48.79934" lon="3.00473">
        <ele>128.4</ele>
        <time>2021-05-23T06:54:35Z</time>
      </trkpt>
      <trkpt lat="48.79938" lon="3.00476">
        <ele>128.4</ele>
        <time>2021-05-23T06:54:36Z</time>
      </trkpt>
      <trkpt lat="48.79992" lon="3.00501">
        <ele>128.9</ele>
        <time>2021-05-23T06:54:48Z</time>
      </trkpt>
      <trkpt lat="48.80063" lon="3.00504">
        <ele>128.2</ele>
        <time>2021-05-23T06:55:01Z</time>
      </trkpt>
      <trkpt lat="48.8014" lon="3.00516">
        <ele>124.7</ele>
        <time>2021-05-23T06:55:14Z</time>
      </trkpt>
      <trkpt lat="48.80145" lon="3.00518">
        <ele>124.4</ele>
        <time>2021-05-23T06:55:15Z</time>
      </trkpt>
      <trkpt lat="48.80213" lon="3.00544">
        <ele>121.3</ele>
        <time>2021-05-23T06:55:29Z</time>
      </trkpt>
      <trkpt lat="48.80296" lon="3.00576">
        <ele>118.5</ele>
        <time>2021-05-23T06:55:45Z</time>
      </trkpt>
      <trkpt lat="48.80385" lon="3.0059">
        <ele>116.8</ele>
        <time>2021-05-23T06:56:02Z</time>
      </trkpt>
      <trkpt lat="48.80464" lon="3.0059">
        <ele>114.8</ele>
        <time>2021-05-23T06:56:17Z</time>
      </trkpt>
      <trkpt lat="48.80532" lon="3.00601">
        <ele>112.8</ele>
        <time>2021-05-23T06:56:28Z</time>
      </trkpt>
      <trkpt lat="48.80541" lon="3.00607">
        <ele>112.3</ele>
        <time>2021-05-23T06:56:31Z</time>
      </trkpt>
      <trkpt lat="48.80542" lon="3.00614">
        <ele>112.1</ele>
        <time>2021-05-23T06:56:35Z</time>
      </trkpt>
      <trkpt lat="48.80539" lon="3.00613">
        <ele>112.2</ele>
        <time>2021-05-23T06:56:44Z</time>
      </trkpt>
      <trkpt lat="48.80539" lon="3.00611">
        <ele>112.3</ele>
        <time>2021-05-23T06:56:45Z</time>
      </trkpt>
      <trkpt lat="48.80539" lon="3.00609">
        <ele>112.3</ele>
        <time>2021-05-23T06:56:46Z</time>
      </trkpt>
      <trkpt lat="48.8054" lon="3.00608">
        <ele>112.3</ele>
        <time>2021-05-23T06:56:47Z</time>
      </trkpt>
      <trkpt lat="48.80541" lon="3.00606">
        <ele>112.3</ele>
        <time>2021-05-23T06:56:48Z</time>
      </trkpt>
      <trkpt lat="48.80543" lon="3.00605">
        <ele>112.3</ele>
        <time>2021-05-23T06:56:49Z</time>
      </trkpt>
      <trkpt lat="48.80545" lon="3.00606">
        <ele>112.2</ele>
        <time>2021-05-23T06:56:50Z</time>
      </trkpt>
      <trkpt lat="48.80548" lon="3.00607">
        <ele>112.1</ele>
        <time>2021-05-23T06:56:51Z</time>
      </trkpt>
      <trkpt lat="48.80585" lon="3.00616">
        <ele>110.3</ele>
        <time>2021-05-23T06:57:04Z</time>
      </trkpt>
      <trkpt lat="48.8061" lon="3.0062">
        <ele>109.2</ele>
        <time>2021-05-23T06:57:15Z</time>
      </trkpt>
      <trkpt lat="48.80641" lon="3.00624">
        <ele>108</ele>
        <time>2021-05-23T06:57:26Z</time>
      </trkpt>
      <trkpt lat="48.80669" lon="3.00623">
        <ele>106.9</ele>
        <time>2021-05-23T06:57:35Z</time>
      </trkpt>
      <trkpt lat="48.80685" lon="3.00624">
        <ele>106.2</ele>
        <time>2021-05-23T06:57:40Z</time>
      </trkpt>
      <trkpt lat="48.80688" lon="3.00625">
        <ele>106</ele>
        <time>2021-05-23T06:57:41Z</time>
      </trkpt>
      <trkpt lat="48.8072" lon="3.00624">
        <ele>104.5</ele>
        <time>2021-05-23T06:57:51Z</time>
      </trkpt>
      <trkpt lat="48.8074" lon="3.00622">
        <ele>103.7</ele>
        <time>2021-05-23T06:57:58Z</time>
      </trkpt>
      <trkpt lat="48.80753" lon="3.0062">
        <ele>103.2</ele>
        <time>2021-05-23T06:58:03Z</time>
      </trkpt>
      <trkpt lat="48.80755" lon="3.00619">
        <ele>103.1</ele>
        <time>2021-05-23T06:58:04Z</time>
      </trkpt>
      <trkpt lat="48.80795" lon="3.00602">
        <ele>100.6</ele>
        <time>2021-05-23T06:58:15Z</time>
      </trkpt>
      <trkpt lat="48.808" lon="3.006">
        <ele>100.3</ele>
        <time>2021-05-23T06:58:16Z</time>
      </trkpt>
      <trkpt lat="48.80818" lon="3.00585">
        <ele>98.7</ele>
        <time>2021-05-23T06:58:20Z</time>
      </trkpt>
      <trkpt lat="48.80819" lon="3.00579">
        <ele>98.4</ele>
        <time>2021-05-23T06:58:21Z</time>
      </trkpt>
      <trkpt lat="48.80818" lon="3.00573">
        <ele>98.2</ele>
        <time>2021-05-23T06:58:22Z</time>
      </trkpt>
      <trkpt lat="48.80818" lon="3.00569">
        <ele>98.1</ele>
        <time>2021-05-23T06:58:23Z</time>
      </trkpt>
      <trkpt lat="48.80817" lon="3.00566">
        <ele>98</ele>
        <time>2021-05-23T06:58:24Z</time>
      </trkpt>
      <trkpt lat="48.80817" lon="3.0056">
        <ele>97.8</ele>
        <time>2021-05-23T06:58:26Z</time>
      </trkpt>
      <trkpt lat="48.80816" lon="3.00557">
        <ele>97.8</ele>
        <time>2021-05-23T06:58:28Z</time>
      </trkpt>
      <trkpt lat="48.80815" lon="3.00555">
        <ele>97.9</ele>
        <time>2021-05-23T06:58:29Z</time>
      </trkpt>
      <trkpt lat="48.80805" lon="3.0054">
        <ele>98.7</ele>
        <time>2021-05-23T06:58:36Z</time>
      </trkpt>
      <trkpt lat="48.80803" lon="3.00532">
        <ele>98.7</ele>
        <time>2021-05-23T06:58:39Z</time>
      </trkpt>
      <trkpt lat="48.80801" lon="3.0053">
        <ele>98.9</ele>
        <time>2021-05-23T06:58:40Z</time>
      </trkpt>
      <trkpt lat="48.8078" lon="3.00509">
        <ele>101.4</ele>
        <time>2021-05-23T06:58:50Z</time>
      </trkpt>
      <trkpt lat="48.80765" lon="3.00489">
        <ele>103.6</ele>
        <time>2021-05-23T06:58:59Z</time>
      </trkpt>
      <trkpt lat="48.80766" lon="3.00486">
        <ele>103.4</ele>
        <time>2021-05-23T06:59:00Z</time>
      </trkpt>
      <trkpt lat="48.8077" lon="3.00484">
        <ele>102.8</ele>
        <time>2021-05-23T06:59:03Z</time>
      </trkpt>
      <trkpt lat="48.8078" lon="3.00498">
        <ele>101.3</ele>
        <time>2021-05-23T06:59:09Z</time>
      </trkpt>
      <trkpt lat="48.808" lon="3.00517">
        <ele>98.7</ele>
        <time>2021-05-23T06:59:16Z</time>
      </trkpt>
      <trkpt lat="48.8081" lon="3.00493">
        <ele>96.5</ele>
        <time>2021-05-23T06:59:24Z</time>
      </trkpt>
      <trkpt lat="48.80806" lon="3.00457">
        <ele>96.5</ele>
        <time>2021-05-23T06:59:31Z</time>
      </trkpt>
      <trkpt lat="48.80804" lon="3.00453">
        <ele>96.8</ele>
        <time>2021-05-23T06:59:37Z</time>
      </trkpt>
      <trkpt lat="48.80806" lon="3.00456">
        <ele>96.6</ele>
        <time>2021-05-23T06:59:39Z</time>
      </trkpt>
      <trkpt lat="48.80806" lon="3.00457">
        <ele>96.5</ele>
        <time>2021-05-23T06:59:40Z</time>
      </trkpt>
      <trkpt lat="48.80807" lon="3.0046">
        <ele>96.5</ele>
        <time>2021-05-23T06:59:41Z</time>
      </trkpt>
      <trkpt lat="48.80807" lon="3.00463">
        <ele>96.5</ele>
        <time>2021-05-23T06:59:42Z</time>
      </trkpt>
      <trkpt lat="48.80807" lon="3.00467">
        <ele>96.5</ele>
        <time>2021-05-23T06:59:43Z</time>
      </trkpt>
      <trkpt lat="48.80807" lon="3.00471">
        <ele>96.6</ele>
        <time>2021-05-23T06:59:44Z</time>
      </trkpt>
      <trkpt lat="48.8081" lon="3.00508">
        <ele>96.9</ele>
        <time>2021-05-23T06:59:54Z</time>
      </trkpt>
      <trkpt lat="48.80811" lon="3.00512">
        <ele>96.8</ele>
        <time>2021-05-23T06:59:55Z</time>
      </trkpt>
      <trkpt lat="48.80813" lon="3.00515">
        <ele>96.8</ele>
        <time>2021-05-23T06:59:56Z</time>
      </trkpt>
      <trkpt lat="48.80815" lon="3.00519">
        <ele>96.6</ele>
        <time>2021-05-23T06:59:57Z</time>
      </trkpt>
      <trkpt lat="48.80817" lon="3.00521">
        <ele>96.4</ele>
        <time>2021-05-23T06:59:58Z</time>
      </trkpt>
      <trkpt lat="48.80819" lon="3.00524">
        <ele>96.1</ele>
        <time>2021-05-23T06:59:59Z</time>
      </trkpt>
      <trkpt lat="48.80823" lon="3.00526">
        <ele>95.7</ele>
        <time>2021-05-23T07:00:00Z</time>
      </trkpt>
      <trkpt lat="48.80828" lon="3.0053">
        <ele>95.2</ele>
        <time>2021-05-23T07:00:01Z</time>
      </trkpt>
      <trkpt lat="48.80862" lon="3.00543">
        <ele>92.8</ele>
        <time>2021-05-23T07:00:07Z</time>
      </trkpt>
      <trkpt lat="48.80866" lon="3.00542">
        <ele>92.4</ele>
        <time>2021-05-23T07:00:08Z</time>
      </trkpt>
      <trkpt lat="48.8087" lon="3.00539">
        <ele>92</ele>
        <time>2021-05-23T07:00:09Z</time>
      </trkpt>
      <trkpt lat="48.80872" lon="3.00533">
        <ele>91.7</ele>
        <time>2021-05-23T07:00:10Z</time>
      </trkpt>
      <trkpt lat="48.80873" lon="3.00527">
        <ele>91.4</ele>
        <time>2021-05-23T07:00:11Z</time>
      </trkpt>
      <trkpt lat="48.80874" lon="3.00522">
        <ele>91.3</ele>
        <time>2021-05-23T07:00:12Z</time>
      </trkpt>
      <trkpt lat="48.80873" lon="3.00517">
        <ele>91.2</ele>
        <time>2021-05-23T07:00:13Z</time>
      </trkpt>
      <trkpt lat="48.80872" lon="3.00513">
        <ele>91.1</ele>
        <time>2021-05-23T07:00:14Z</time>
      </trkpt>
      <trkpt lat="48.80872" lon="3.0051">
        <ele>91</ele>
        <time>2021-05-23T07:00:15Z</time>
      </trkpt>
      <trkpt lat="48.80873" lon="3.00508">
        <ele>90.9</ele>
        <time>2021-05-23T07:00:16Z</time>
      </trkpt>
      <trkpt lat="48.80874" lon="3.00505">
        <ele>90.7</ele>
        <time>2021-05-23T07:00:17Z</time>
      </trkpt>
      <trkpt lat="48.80876" lon="3.00502">
        <ele>90.5</ele>
        <time>2021-05-23T07:00:18Z</time>
      </trkpt>
      <trkpt lat="48.80878" lon="3.00496">
        <ele>90.2</ele>
        <time>2021-05-23T07:00:19Z</time>
      </trkpt>
      <trkpt lat="48.8088" lon="3.0049">
        <ele>90</ele>
        <time>2021-05-23T07:00:20Z</time>
      </trkpt>
      <trkpt lat="48.80912" lon="3.00381">
        <ele>85</ele>
        <time>2021-05-23T07:00:33Z</time>
      </trkpt>
      <trkpt lat="48.80939" lon="3.00275">
        <ele>79.5</ele>
        <time>2021-05-23T07:00:44Z</time>
      </trkpt>
      <trkpt lat="48.80948" lon="3.00214">
        <ele>77</ele>
        <time>2021-05-23T07:00:50Z</time>
      </trkpt>
      <trkpt lat="48.80943" lon="3.00105">
        <ele>73.1</ele>
        <time>2021-05-23T07:01:01Z</time>
      </trkpt>
      <trkpt lat="48.80944" lon="3.00094">
        <ele>72.5</ele>
        <time>2021-05-23T07:01:02Z</time>
      </trkpt>
      <trkpt lat="48.8095" lon="3.00057">
        <ele>71.2</ele>
        <time>2021-05-23T07:01:05Z</time>
      </trkpt>
      <trkpt lat="48.80967" lon="2.9999">
        <ele>69.6</ele>
        <time>2021-05-23T07:01:11Z</time>
      </trkpt>
      <trkpt lat="48.80972" lon="2.99971">
        <ele>69.3</ele>
        <time>2021-05-23T07:01:13Z</time>
      </trkpt>
      <trkpt lat="48.80975" lon="2.99962">
        <ele>69.2</ele>
        <time>2021-05-23T07:01:14Z</time>
      </trkpt>
      <trkpt lat="48.80992" lon="2.99888">
        <ele>67.7</ele>
        <time>2021-05-23T07:01:23Z</time>
      </trkpt>
      <trkpt lat="48.80995" lon="2.99881">
        <ele>67.4</ele>
        <time>2021-05-23T07:01:24Z</time>
      </trkpt>
      <trkpt lat="48.81033" lon="2.99786">
        <ele>65.2</ele>
        <time>2021-05-23T07:01:37Z</time>
      </trkpt>
      <trkpt lat="48.81037" lon="2.9977">
        <ele>64.9</ele>
        <time>2021-05-23T07:01:39Z</time>
      </trkpt>
      <trkpt lat="48.81038" lon="2.99761">
        <ele>64.8</ele>
        <time>2021-05-23T07:01:40Z</time>
      </trkpt>
      <trkpt lat="48.81039" lon="2.99745">
        <ele>64.6</ele>
        <time>2021-05-23T07:01:42Z</time>
      </trkpt>
      <trkpt lat="48.8104" lon="2.99672">
        <ele>64.6</ele>
        <time>2021-05-23T07:01:51Z</time>
      </trkpt>
      <trkpt lat="48.81041" lon="2.99657">
        <ele>64.6</ele>
        <time>2021-05-23T07:01:53Z</time>
      </trkpt>
      <trkpt lat="48.81042" lon="2.9965">
        <ele>64.6</ele>
        <time>2021-05-23T07:01:54Z</time>
      </trkpt>
      <trkpt lat="48.81064" lon="2.99542">
        <ele>63.9</ele>
        <time>2021-05-23T07:02:09Z</time>
      </trkpt>
      <trkpt lat="48.81073" lon="2.99483">
        <ele>63.9</ele>
        <time>2021-05-23T07:02:17Z</time>
      </trkpt>
      <trkpt lat="48.81106" lon="2.99373">
        <ele>65.4</ele>
        <time>2021-05-23T07:02:32Z</time>
      </trkpt>
      <trkpt lat="48.81131" lon="2.99305">
        <ele>65.3</ele>
        <time>2021-05-23T07:02:42Z</time>
      </trkpt>
      <trkpt lat="48.81133" lon="2.99298">
        <ele>65.2</ele>
        <time>2021-05-23T07:02:43Z</time>
      </trkpt>
      <trkpt lat="48.8114" lon="2.9927">
        <ele>64.8</ele>
        <time>2021-05-23T07:02:47Z</time>
      </trkpt>
      <trkpt lat="48.81163" lon="2.99192">
        <ele>64</ele>
        <time>2021-05-23T07:02:58Z</time>
      </trkpt>
      <trkpt lat="48.81166" lon="2.99186">
        <ele>63.9</ele>
        <time>2021-05-23T07:02:59Z</time>
      </trkpt>
      <trkpt lat="48.81167" lon="2.9918">
        <ele>63.8</ele>
        <time>2021-05-23T07:03:00Z</time>
      </trkpt>
      <trkpt lat="48.81166" lon="2.99138">
        <ele>64.4</ele>
        <time>2021-05-23T07:03:09Z</time>
      </trkpt>
      <trkpt lat="48.81168" lon="2.99126">
        <ele>64.5</ele>
        <time>2021-05-23T07:03:11Z</time>
      </trkpt>
      <trkpt lat="48.81169" lon="2.99121">
        <ele>64.5</ele>
        <time>2021-05-23T07:03:12Z</time>
      </trkpt>
      <trkpt lat="48.81199" lon="2.99025">
        <ele>64.6</ele>
        <time>2021-05-23T07:03:27Z</time>
      </trkpt>
    </trkseg>
  </trk>
  <trk>
    <name><![CDATA[Tracé actuel: 23 MAI 2021 09:03]]></name>
    <trkseg>
      <trkpt lat="48.81204" lon="2.99011">
        <ele>64.6</ele>
        <time>2021-05-23T07:03:29Z</time>
      </trkpt>
      <trkpt lat="48.81235" lon="2.98907">
        <ele>64</ele>
        <time>2021-05-23T07:03:45Z</time>
      </trkpt>
      <trkpt lat="48.81268" lon="2.98797">
        <ele>65.5</ele>
        <time>2021-05-23T07:04:01Z</time>
      </trkpt>
      <trkpt lat="48.81282" lon="2.98751">
        <ele>66</ele>
        <time>2021-05-23T07:04:08Z</time>
      </trkpt>
      <trkpt lat="48.81283" lon="2.98745">
        <ele>66.3</ele>
        <time>2021-05-23T07:04:09Z</time>
      </trkpt>
      <trkpt lat="48.81282" lon="2.98739">
        <ele>66.6</ele>
        <time>2021-05-23T07:04:10Z</time>
      </trkpt>
      <trkpt lat="48.81281" lon="2.98734">
        <ele>67</ele>
        <time>2021-05-23T07:04:11Z</time>
      </trkpt>
      <trkpt lat="48.81278" lon="2.9873">
        <ele>67.4</ele>
        <time>2021-05-23T07:04:12Z</time>
      </trkpt>
      <trkpt lat="48.81275" lon="2.98727">
        <ele>67.8</ele>
        <time>2021-05-23T07:04:13Z</time>
      </trkpt>
      <trkpt lat="48.81244" lon="2.98697">
        <ele>72.4</ele>
        <time>2021-05-23T07:04:24Z</time>
      </trkpt>
      <trkpt lat="48.81221" lon="2.98668">
        <ele>76.8</ele>
        <time>2021-05-23T07:04:35Z</time>
      </trkpt>
      <trkpt lat="48.81221" lon="2.98663">
        <ele>76.8</ele>
        <time>2021-05-23T07:04:36Z</time>
      </trkpt>
      <trkpt lat="48.81222" lon="2.98659">
        <ele>76.8</ele>
        <time>2021-05-23T07:04:37Z</time>
      </trkpt>
      <trkpt lat="48.81241" lon="2.98584">
        <ele>75.7</ele>
        <time>2021-05-23T07:04:52Z</time>
      </trkpt>
      <trkpt lat="48.81261" lon="2.98523">
        <ele>73.5</ele>
        <time>2021-05-23T07:05:04Z</time>
      </trkpt>
      <trkpt lat="48.81282" lon="2.98468">
        <ele>72.5</ele>
        <time>2021-05-23T07:05:14Z</time>
      </trkpt>
      <trkpt lat="48.81284" lon="2.98461">
        <ele>72.5</ele>
        <time>2021-05-23T07:05:15Z</time>
      </trkpt>
      <trkpt lat="48.81286" lon="2.98455">
        <ele>72.5</ele>
        <time>2021-05-23T07:05:16Z</time>
      </trkpt>
      <trkpt lat="48.81292" lon="2.98436">
        <ele>72.5</ele>
        <time>2021-05-23T07:05:19Z</time>
      </trkpt>
      <trkpt lat="48.81303" lon="2.98354">
        <ele>74.1</ele>
        <time>2021-05-23T07:05:31Z</time>
      </trkpt>
      <trkpt lat="48.81307" lon="2.98328">
        <ele>74.5</ele>
        <time>2021-05-23T07:05:35Z</time>
      </trkpt>
      <trkpt lat="48.81307" lon="2.98321">
        <ele>74.4</ele>
        <time>2021-05-23T07:05:36Z</time>
      </trkpt>
      <trkpt lat="48.81307" lon="2.98315">
        <ele>74.2</ele>
        <time>2021-05-23T07:05:37Z</time>
      </trkpt>
      <trkpt lat="48.81307" lon="2.98308">
        <ele>74.1</ele>
        <time>2021-05-23T07:05:38Z</time>
      </trkpt>
      <trkpt lat="48.81307" lon="2.98301">
        <ele>74</ele>
        <time>2021-05-23T07:05:39Z</time>
      </trkpt>
      <trkpt lat="48.81306" lon="2.98295">
        <ele>73.9</ele>
        <time>2021-05-23T07:05:40Z</time>
      </trkpt>
      <trkpt lat="48.81309" lon="2.98234">
        <ele>72.1</ele>
        <time>2021-05-23T07:05:49Z</time>
      </trkpt>
      <trkpt lat="48.81303" lon="2.98202">
        <ele>70.8</ele>
        <time>2021-05-23T07:05:54Z</time>
      </trkpt>
      <trkpt lat="48.81277" lon="2.98102">
        <ele>68</ele>
        <time>2021-05-23T07:06:10Z</time>
      </trkpt>
      <trkpt lat="48.81254" lon="2.97999">
        <ele>65.8</ele>
        <time>2021-05-23T07:06:24Z</time>
      </trkpt>
      <trkpt lat="48.81221" lon="2.97875">
        <ele>66.4</ele>
        <time>2021-05-23T07:06:40Z</time>
      </trkpt>
      <trkpt lat="48.81191" lon="2.97775">
        <ele>64.5</ele>
        <time>2021-05-23T07:06:52Z</time>
      </trkpt>
      <trkpt lat="48.81184" lon="2.97757">
        <ele>63.9</ele>
        <time>2021-05-23T07:06:54Z</time>
      </trkpt>
      <trkpt lat="48.81183" lon="2.97747">
        <ele>63.6</ele>
        <time>2021-05-23T07:06:55Z</time>
      </trkpt>
      <trkpt lat="48.81182" lon="2.97737">
        <ele>63.4</ele>
        <time>2021-05-23T07:06:56Z</time>
      </trkpt>
      <trkpt lat="48.81181" lon="2.97717">
        <ele>63.2</ele>
        <time>2021-05-23T07:06:58Z</time>
      </trkpt>
      <trkpt lat="48.8118" lon="2.97707">
        <ele>63.1</ele>
        <time>2021-05-23T07:06:59Z</time>
      </trkpt>
      <trkpt lat="48.81176" lon="2.97689">
        <ele>63</ele>
        <time>2021-05-23T07:07:01Z</time>
      </trkpt>
      <trkpt lat="48.81173" lon="2.9768">
        <ele>62.9</ele>
        <time>2021-05-23T07:07:02Z</time>
      </trkpt>
      <trkpt lat="48.8117" lon="2.97672">
        <ele>62.9</ele>
        <time>2021-05-23T07:07:03Z</time>
      </trkpt>
      <trkpt lat="48.81166" lon="2.97664">
        <ele>62.9</ele>
        <time>2021-05-23T07:07:04Z</time>
      </trkpt>
      <trkpt lat="48.81163" lon="2.97656">
        <ele>62.6</ele>
        <time>2021-05-23T07:07:05Z</time>
      </trkpt>
      <trkpt lat="48.81159" lon="2.97649">
        <ele>62.4</ele>
        <time>2021-05-23T07:07:06Z</time>
      </trkpt>
      <trkpt lat="48.81154" lon="2.97643">
        <ele>62.1</ele>
        <time>2021-05-23T07:07:07Z</time>
      </trkpt>
      <trkpt lat="48.81136" lon="2.97619">
        <ele>61.3</ele>
        <time>2021-05-23T07:07:11Z</time>
      </trkpt>
      <trkpt lat="48.81063" lon="2.97546">
        <ele>60.1</ele>
        <time>2021-05-23T07:07:26Z</time>
      </trkpt>
      <trkpt lat="48.81049" lon="2.97532">
        <ele>60.1</ele>
        <time>2021-05-23T07:07:29Z</time>
      </trkpt>
      <trkpt lat="48.8104" lon="2.97522">
        <ele>60</ele>
        <time>2021-05-23T07:07:31Z</time>
      </trkpt>
      <trkpt lat="48.80987" lon="2.97429">
        <ele>61</ele>
        <time>2021-05-23T07:07:45Z</time>
      </trkpt>
      <trkpt lat="48.80956" lon="2.97381">
        <ele>62.6</ele>
        <time>2021-05-23T07:07:53Z</time>
      </trkpt>
      <trkpt lat="48.80919" lon="2.97318">
        <ele>64.4</ele>
        <time>2021-05-23T07:08:03Z</time>
      </trkpt>
      <trkpt lat="48.80903" lon="2.97288">
        <ele>64.7</ele>
        <time>2021-05-23T07:08:08Z</time>
      </trkpt>
      <trkpt lat="48.80895" lon="2.97278">
        <ele>64.7</ele>
        <time>2021-05-23T07:08:10Z</time>
      </trkpt>
      <trkpt lat="48.8089" lon="2.97273">
        <ele>64.7</ele>
        <time>2021-05-23T07:08:11Z</time>
      </trkpt>
      <trkpt lat="48.80885" lon="2.9727">
        <ele>64.6</ele>
        <time>2021-05-23T07:08:12Z</time>
      </trkpt>
      <trkpt lat="48.8088" lon="2.97267">
        <ele>64.5</ele>
        <time>2021-05-23T07:08:13Z</time>
      </trkpt>
      <trkpt lat="48.80876" lon="2.97265">
        <ele>64.3</ele>
        <time>2021-05-23T07:08:14Z</time>
      </trkpt>
      <trkpt lat="48.80835" lon="2.97241">
        <ele>63.1</ele>
        <time>2021-05-23T07:08:22Z</time>
      </trkpt>
      <trkpt lat="48.8083" lon="2.97238">
        <ele>63.2</ele>
        <time>2021-05-23T07:08:23Z</time>
      </trkpt>
      <trkpt lat="48.80825" lon="2.97234">
        <ele>63.5</ele>
        <time>2021-05-23T07:08:24Z</time>
      </trkpt>
      <trkpt lat="48.8081" lon="2.97221">
        <ele>64.4</ele>
        <time>2021-05-23T07:08:27Z</time>
      </trkpt>
      <trkpt lat="48.80793" lon="2.97203">
        <ele>65.1</ele>
        <time>2021-05-23T07:08:31Z</time>
      </trkpt>
      <trkpt lat="48.80789" lon="2.97199">
        <ele>65.2</ele>
        <time>2021-05-23T07:08:32Z</time>
      </trkpt>
      <trkpt lat="48.80775" lon="2.97187">
        <ele>65.6</ele>
        <time>2021-05-23T07:08:35Z</time>
      </trkpt>
      <trkpt lat="48.80771" lon="2.97182">
        <ele>65.7</ele>
        <time>2021-05-23T07:08:36Z</time>
      </trkpt>
      <trkpt lat="48.80767" lon="2.97178">
        <ele>65.7</ele>
        <time>2021-05-23T07:08:37Z</time>
      </trkpt>
      <trkpt lat="48.8076" lon="2.97168">
        <ele>65.7</ele>
        <time>2021-05-23T07:08:39Z</time>
      </trkpt>
      <trkpt lat="48.80756" lon="2.97162">
        <ele>65.6</ele>
        <time>2021-05-23T07:08:40Z</time>
      </trkpt>
      <trkpt lat="48.8074" lon="2.97128">
        <ele>66</ele>
        <time>2021-05-23T07:08:45Z</time>
      </trkpt>
      <trkpt lat="48.80737" lon="2.97121">
        <ele>66.1</ele>
        <time>2021-05-23T07:08:46Z</time>
      </trkpt>
      <trkpt lat="48.80734" lon="2.97114">
        <ele>66.2</ele>
        <time>2021-05-23T07:08:47Z</time>
      </trkpt>
      <trkpt lat="48.80732" lon="2.97106">
        <ele>66.1</ele>
        <time>2021-05-23T07:08:48Z</time>
      </trkpt>
      <trkpt lat="48.80729" lon="2.97098">
        <ele>66.2</ele>
        <time>2021-05-23T07:08:49Z</time>
      </trkpt>
      <trkpt lat="48.80725" lon="2.97091">
        <ele>66.3</ele>
        <time>2021-05-23T07:08:50Z</time>
      </trkpt>
      <trkpt lat="48.80714" lon="2.97061">
        <ele>66.3</ele>
        <time>2021-05-23T07:08:54Z</time>
      </trkpt>
      <trkpt lat="48.80711" lon="2.97054">
        <ele>66.3</ele>
        <time>2021-05-23T07:08:55Z</time>
      </trkpt>
      <trkpt lat="48.80693" lon="2.97008">
        <ele>66</ele>
        <time>2021-05-23T07:09:01Z</time>
      </trkpt>
      <trkpt lat="48.80688" lon="2.96992">
        <ele>65.8</ele>
        <time>2021-05-23T07:09:03Z</time>
      </trkpt>
      <trkpt lat="48.80685" lon="2.96984">
        <ele>65.9</ele>
        <time>2021-05-23T07:09:04Z</time>
      </trkpt>
      <trkpt lat="48.80681" lon="2.96968">
        <ele>65.8</ele>
        <time>2021-05-23T07:09:06Z</time>
      </trkpt>
      <trkpt lat="48.8068" lon="2.9696">
        <ele>65.7</ele>
        <time>2021-05-23T07:09:07Z</time>
      </trkpt>
      <trkpt lat="48.80676" lon="2.96935">
        <ele>65.6</ele>
        <time>2021-05-23T07:09:10Z</time>
      </trkpt>
      <trkpt lat="48.80673" lon="2.96928">
        <ele>65.7</ele>
        <time>2021-05-23T07:09:11Z</time>
      </trkpt>
      <trkpt lat="48.8067" lon="2.9692">
        <ele>65.8</ele>
        <time>2021-05-23T07:09:12Z</time>
      </trkpt>
      <trkpt lat="48.80642" lon="2.96838">
        <ele>66.1</ele>
        <time>2021-05-23T07:09:23Z</time>
      </trkpt>
      <trkpt lat="48.80639" lon="2.96831">
        <ele>66.2</ele>
        <time>2021-05-23T07:09:24Z</time>
      </trkpt>
      <trkpt lat="48.80637" lon="2.96824">
        <ele>66.5</ele>
        <time>2021-05-23T07:09:25Z</time>
      </trkpt>
      <trkpt lat="48.80631" lon="2.96811">
        <ele>66.9</ele>
        <time>2021-05-23T07:09:27Z</time>
      </trkpt>
      <trkpt lat="48.80629" lon="2.96804">
        <ele>67.1</ele>
        <time>2021-05-23T07:09:28Z</time>
      </trkpt>
      <trkpt lat="48.80627" lon="2.96798">
        <ele>67.2</ele>
        <time>2021-05-23T07:09:29Z</time>
      </trkpt>
      <trkpt lat="48.80618" lon="2.96757">
        <ele>67.4</ele>
        <time>2021-05-23T07:09:37Z</time>
      </trkpt>
      <trkpt lat="48.80624" lon="2.96693">
        <ele>67.3</ele>
        <time>2021-05-23T07:09:45Z</time>
      </trkpt>
      <trkpt lat="48.80625" lon="2.96685">
        <ele>67.2</ele>
        <time>2021-05-23T07:09:46Z</time>
      </trkpt>
      <trkpt lat="48.80627" lon="2.96676">
        <ele>67.1</ele>
        <time>2021-05-23T07:09:47Z</time>
      </trkpt>
      <trkpt lat="48.80629" lon="2.9667">
        <ele>67</ele>
        <time>2021-05-23T07:09:48Z</time>
      </trkpt>
      <trkpt lat="48.80631" lon="2.96664">
        <ele>66.9</ele>
        <time>2021-05-23T07:09:49Z</time>
      </trkpt>
      <trkpt lat="48.80632" lon="2.96661">
        <ele>66.9</ele>
        <time>2021-05-23T07:09:50Z</time>
      </trkpt>
      <trkpt lat="48.80633" lon="2.96624">
        <ele>68.3</ele>
        <time>2021-05-23T07:10:00Z</time>
      </trkpt>
      <trkpt lat="48.8063" lon="2.96556">
        <ele>71.4</ele>
        <time>2021-05-23T07:10:13Z</time>
      </trkpt>
      <trkpt lat="48.80631" lon="2.96549">
        <ele>71.5</ele>
        <time>2021-05-23T07:10:14Z</time>
      </trkpt>
      <trkpt lat="48.80631" lon="2.96544">
        <ele>71.6</ele>
        <time>2021-05-23T07:10:15Z</time>
      </trkpt>
      <trkpt lat="48.80632" lon="2.96538">
        <ele>71.8</ele>
        <time>2021-05-23T07:10:16Z</time>
      </trkpt>
      <trkpt lat="48.80642" lon="2.96446">
        <ele>76</ele>
        <time>2021-05-23T07:10:31Z</time>
      </trkpt>
      <trkpt lat="48.80646" lon="2.96434">
        <ele>76.3</ele>
        <time>2021-05-23T07:10:33Z</time>
      </trkpt>
      <trkpt lat="48.80651" lon="2.96423">
        <ele>76.3</ele>
        <time>2021-05-23T07:10:35Z</time>
      </trkpt>
      <trkpt lat="48.80654" lon="2.96418">
        <ele>76.4</ele>
        <time>2021-05-23T07:10:36Z</time>
      </trkpt>
      <trkpt lat="48.80657" lon="2.96412">
        <ele>76.5</ele>
        <time>2021-05-23T07:10:37Z</time>
      </trkpt>
      <trkpt lat="48.80664" lon="2.96401">
        <ele>76.5</ele>
        <time>2021-05-23T07:10:40Z</time>
      </trkpt>
      <trkpt lat="48.80686" lon="2.96373">
        <ele>76.7</ele>
        <time>2021-05-23T07:10:45Z</time>
      </trkpt>
      <trkpt lat="48.8069" lon="2.96367">
        <ele>76.6</ele>
        <time>2021-05-23T07:10:46Z</time>
      </trkpt>
      <trkpt lat="48.80698" lon="2.96357">
        <ele>76.4</ele>
        <time>2021-05-23T07:10:48Z</time>
      </trkpt>
      <trkpt lat="48.80727" lon="2.9633">
        <ele>73.9</ele>
        <time>2021-05-23T07:10:55Z</time>
      </trkpt>
      <trkpt lat="48.80731" lon="2.96328">
        <ele>73.6</ele>
        <time>2021-05-23T07:10:56Z</time>
      </trkpt>
      <trkpt lat="48.80736" lon="2.96326">
        <ele>73.1</ele>
        <time>2021-05-23T07:10:57Z</time>
      </trkpt>
      <trkpt lat="48.80751" lon="2.96323">
        <ele>70.9</ele>
        <time>2021-05-23T07:11:00Z</time>
      </trkpt>
      <trkpt lat="48.80755" lon="2.96323">
        <ele>70.6</ele>
        <time>2021-05-23T07:11:01Z</time>
      </trkpt>
      <trkpt lat="48.80808" lon="2.96297">
        <ele>72.6</ele>
        <time>2021-05-23T07:11:13Z</time>
      </trkpt>
      <trkpt lat="48.80823" lon="2.9628">
        <ele>74.7</ele>
        <time>2021-05-23T07:11:16Z</time>
      </trkpt>
      <trkpt lat="48.80864" lon="2.96224">
        <ele>79.6</ele>
        <time>2021-05-23T07:11:28Z</time>
      </trkpt>
      <trkpt lat="48.809" lon="2.96192">
        <ele>80.4</ele>
        <time>2021-05-23T07:11:39Z</time>
      </trkpt>
      <trkpt lat="48.80902" lon="2.9619">
        <ele>80.5</ele>
        <time>2021-05-23T07:11:40Z</time>
      </trkpt>
      <trkpt lat="48.8094" lon="2.96163">
        <ele>82.1</ele>
        <time>2021-05-23T07:11:53Z</time>
      </trkpt>
      <trkpt lat="48.80974" lon="2.9616">
        <ele>82.2</ele>
        <time>2021-05-23T07:12:04Z</time>
      </trkpt>
      <trkpt lat="48.8102" lon="2.96158">
        <ele>82.4</ele>
        <time>2021-05-23T07:12:17Z</time>
      </trkpt>
      <trkpt lat="48.81044" lon="2.96151">
        <ele>83.7</ele>
        <time>2021-05-23T07:12:27Z</time>
      </trkpt>
      <trkpt lat="48.81074" lon="2.96132">
        <ele>86.8</ele>
        <time>2021-05-23T07:12:37Z</time>
      </trkpt>
      <trkpt lat="48.81127" lon="2.96113">
        <ele>88.6</ele>
        <time>2021-05-23T07:12:51Z</time>
      </trkpt>
      <trkpt lat="48.81161" lon="2.961">
        <ele>89.6</ele>
        <time>2021-05-23T07:13:02Z</time>
      </trkpt>
      <trkpt lat="48.81204" lon="2.96089">
        <ele>87.7</ele>
        <time>2021-05-23T07:13:14Z</time>
      </trkpt>
      <trkpt lat="48.8126" lon="2.96077">
        <ele>84.5</ele>
        <time>2021-05-23T07:13:29Z</time>
      </trkpt>
      <trkpt lat="48.81311" lon="2.96075">
        <ele>83.8</ele>
        <time>2021-05-23T07:13:41Z</time>
      </trkpt>
      <trkpt lat="48.8139" lon="2.96067">
        <ele>81.3</ele>
        <time>2021-05-23T07:13:59Z</time>
      </trkpt>
      <trkpt lat="48.81406" lon="2.96064">
        <ele>80.7</ele>
        <time>2021-05-23T07:14:02Z</time>
      </trkpt>
      <trkpt lat="48.81412" lon="2.96063">
        <ele>80.5</ele>
        <time>2021-05-23T07:14:03Z</time>
      </trkpt>
      <trkpt lat="48.81418" lon="2.96062">
        <ele>80.2</ele>
        <time>2021-05-23T07:14:04Z</time>
      </trkpt>
      <trkpt lat="48.81424" lon="2.96061">
        <ele>79.9</ele>
        <time>2021-05-23T07:14:05Z</time>
      </trkpt>
      <trkpt lat="48.8143" lon="2.96061">
        <ele>79.5</ele>
        <time>2021-05-23T07:14:06Z</time>
      </trkpt>
      <trkpt lat="48.81437" lon="2.96062">
        <ele>79.1</ele>
        <time>2021-05-23T07:14:07Z</time>
      </trkpt>
      <trkpt lat="48.81443" lon="2.96064">
        <ele>78.8</ele>
        <time>2021-05-23T07:14:08Z</time>
      </trkpt>
      <trkpt lat="48.8145" lon="2.96068">
        <ele>78.5</ele>
        <time>2021-05-23T07:14:09Z</time>
      </trkpt>
      <trkpt lat="48.81456" lon="2.96071">
        <ele>78.2</ele>
        <time>2021-05-23T07:14:10Z</time>
      </trkpt>
      <trkpt lat="48.81463" lon="2.96074">
        <ele>78</ele>
        <time>2021-05-23T07:14:11Z</time>
      </trkpt>
      <trkpt lat="48.8147" lon="2.96077">
        <ele>77.8</ele>
        <time>2021-05-23T07:14:12Z</time>
      </trkpt>
      <trkpt lat="48.81562" lon="2.96089">
        <ele>75.9</ele>
        <time>2021-05-23T07:14:25Z</time>
      </trkpt>
      <trkpt lat="48.81653" lon="2.96077">
        <ele>75.8</ele>
        <time>2021-05-23T07:14:40Z</time>
      </trkpt>
      <trkpt lat="48.81728" lon="2.96064">
        <ele>74.4</ele>
        <time>2021-05-23T07:14:53Z</time>
      </trkpt>
      <trkpt lat="48.81793" lon="2.96049">
        <ele>73.5</ele>
        <time>2021-05-23T07:15:04Z</time>
      </trkpt>
      <trkpt lat="48.81804" lon="2.96046">
        <ele>73.4</ele>
        <time>2021-05-23T07:15:06Z</time>
      </trkpt>
      <trkpt lat="48.81881" lon="2.96008">
        <ele>72.8</ele>
        <time>2021-05-23T07:15:21Z</time>
      </trkpt>
      <trkpt lat="48.81955" lon="2.95964">
        <ele>70.4</ele>
        <time>2021-05-23T07:15:36Z</time>
      </trkpt>
      <trkpt lat="48.82035" lon="2.95919">
        <ele>68.1</ele>
        <time>2021-05-23T07:15:50Z</time>
      </trkpt>
      <trkpt lat="48.82111" lon="2.95878">
        <ele>66.8</ele>
        <time>2021-05-23T07:16:04Z</time>
      </trkpt>
      <trkpt lat="48.82116" lon="2.95875">
        <ele>66.8</ele>
        <time>2021-05-23T07:16:05Z</time>
      </trkpt>
      <trkpt lat="48.82192" lon="2.9583">
        <ele>67.1</ele>
        <time>2021-05-23T07:16:19Z</time>
      </trkpt>
      <trkpt lat="48.82225" lon="2.95816">
        <ele>66.9</ele>
        <time>2021-05-23T07:16:25Z</time>
      </trkpt>
      <trkpt lat="48.82274" lon="2.95799">
        <ele>66.6</ele>
        <time>2021-05-23T07:16:34Z</time>
      </trkpt>
      <trkpt lat="48.82314" lon="2.95789">
        <ele>66</ele>
        <time>2021-05-23T07:16:41Z</time>
      </trkpt>
      <trkpt lat="48.8232" lon="2.95789">
        <ele>66</ele>
        <time>2021-05-23T07:16:42Z</time>
      </trkpt>
      <trkpt lat="48.82347" lon="2.95792">
        <ele>65.7</ele>
        <time>2021-05-23T07:16:47Z</time>
      </trkpt>
      <trkpt lat="48.82352" lon="2.95792">
        <ele>65.6</ele>
        <time>2021-05-23T07:16:48Z</time>
      </trkpt>
      <trkpt lat="48.82382" lon="2.95792">
        <ele>64.8</ele>
        <time>2021-05-23T07:16:53Z</time>
      </trkpt>
      <trkpt lat="48.82388" lon="2.95792">
        <ele>64.7</ele>
        <time>2021-05-23T07:16:54Z</time>
      </trkpt>
      <trkpt lat="48.82399" lon="2.95791">
        <ele>64.4</ele>
        <time>2021-05-23T07:16:56Z</time>
      </trkpt>
      <trkpt lat="48.82403" lon="2.95789">
        <ele>64.3</ele>
        <time>2021-05-23T07:16:57Z</time>
      </trkpt>
      <trkpt lat="48.82406" lon="2.95785">
        <ele>64.2</ele>
        <time>2021-05-23T07:16:58Z</time>
      </trkpt>
      <trkpt lat="48.82409" lon="2.9578">
        <ele>64.2</ele>
        <time>2021-05-23T07:16:59Z</time>
      </trkpt>
      <trkpt lat="48.82411" lon="2.95774">
        <ele>64.1</ele>
        <time>2021-05-23T07:17:00Z</time>
      </trkpt>
      <trkpt lat="48.82413" lon="2.95767">
        <ele>64.1</ele>
        <time>2021-05-23T07:17:01Z</time>
      </trkpt>
      <trkpt lat="48.82416" lon="2.95761">
        <ele>64</ele>
        <time>2021-05-23T07:17:02Z</time>
      </trkpt>
      <trkpt lat="48.8242" lon="2.95755">
        <ele>63.9</ele>
        <time>2021-05-23T07:17:03Z</time>
      </trkpt>
      <trkpt lat="48.82424" lon="2.9575">
        <ele>63.8</ele>
        <time>2021-05-23T07:17:04Z</time>
      </trkpt>
      <trkpt lat="48.82428" lon="2.95745">
        <ele>63.6</ele>
        <time>2021-05-23T07:17:05Z</time>
      </trkpt>
      <trkpt lat="48.82487" lon="2.95669">
        <ele>60.2</ele>
        <time>2021-05-23T07:17:18Z</time>
      </trkpt>
      <trkpt lat="48.82524" lon="2.95616">
        <ele>59.3</ele>
        <time>2021-05-23T07:17:25Z</time>
      </trkpt>
      <trkpt lat="48.82552" lon="2.95561">
        <ele>58.9</ele>
        <time>2021-05-23T07:17:33Z</time>
      </trkpt>
      <trkpt lat="48.82577" lon="2.95488">
        <ele>59.7</ele>
        <time>2021-05-23T07:17:44Z</time>
      </trkpt>
      <trkpt lat="48.82575" lon="2.95484">
        <ele>60</ele>
        <time>2021-05-23T07:17:45Z</time>
      </trkpt>
      <trkpt lat="48.8257" lon="2.95481">
        <ele>60.1</ele>
        <time>2021-05-23T07:17:46Z</time>
      </trkpt>
      <trkpt lat="48.82565" lon="2.95479">
        <ele>60.1</ele>
        <time>2021-05-23T07:17:47Z</time>
      </trkpt>
      <trkpt lat="48.8256" lon="2.95478">
        <ele>60.1</ele>
        <time>2021-05-23T07:17:48Z</time>
      </trkpt>
      <trkpt lat="48.82472" lon="2.95454">
        <ele>59.5</ele>
        <time>2021-05-23T07:18:04Z</time>
      </trkpt>
      <trkpt lat="48.82453" lon="2.95444">
        <ele>59.6</ele>
        <time>2021-05-23T07:18:08Z</time>
      </trkpt>
      <trkpt lat="48.8244" lon="2.9543">
        <ele>59.9</ele>
        <time>2021-05-23T07:18:11Z</time>
      </trkpt>
      <trkpt lat="48.82436" lon="2.95424">
        <ele>60</ele>
        <time>2021-05-23T07:18:12Z</time>
      </trkpt>
      <trkpt lat="48.824" lon="2.95347">
        <ele>68.2</ele>
        <time>2021-05-23T07:18:24Z</time>
      </trkpt>
      <trkpt lat="48.82397" lon="2.95342">
        <ele>68.8</ele>
        <time>2021-05-23T07:18:25Z</time>
      </trkpt>
      <trkpt lat="48.82393" lon="2.9534">
        <ele>69.2</ele>
        <time>2021-05-23T07:18:26Z</time>
      </trkpt>
      <trkpt lat="48.82389" lon="2.9534">
        <ele>69.3</ele>
        <time>2021-05-23T07:18:27Z</time>
      </trkpt>
      <trkpt lat="48.82384" lon="2.95342">
        <ele>69.3</ele>
        <time>2021-05-23T07:18:28Z</time>
      </trkpt>
      <trkpt lat="48.8238" lon="2.95345">
        <ele>69.1</ele>
        <time>2021-05-23T07:18:29Z</time>
      </trkpt>
      <trkpt lat="48.82376" lon="2.9535">
        <ele>68.8</ele>
        <time>2021-05-23T07:18:30Z</time>
      </trkpt>
      <trkpt lat="48.82372" lon="2.95355">
        <ele>68.4</ele>
        <time>2021-05-23T07:18:31Z</time>
      </trkpt>
      <trkpt lat="48.82368" lon="2.9536">
        <ele>68</ele>
        <time>2021-05-23T07:18:32Z</time>
      </trkpt>
      <trkpt lat="48.82363" lon="2.95364">
        <ele>67.8</ele>
        <time>2021-05-23T07:18:33Z</time>
      </trkpt>
      <trkpt lat="48.82358" lon="2.95367">
        <ele>67.8</ele>
        <time>2021-05-23T07:18:34Z</time>
      </trkpt>
      <trkpt lat="48.82352" lon="2.95369">
        <ele>67.8</ele>
        <time>2021-05-23T07:18:35Z</time>
      </trkpt>
      <trkpt lat="48.82346" lon="2.9537">
        <ele>68</ele>
        <time>2021-05-23T07:18:36Z</time>
      </trkpt>
      <trkpt lat="48.82309" lon="2.95376">
        <ele>66.8</ele>
        <time>2021-05-23T07:18:43Z</time>
      </trkpt>
      <trkpt lat="48.82299" lon="2.95375">
        <ele>66.3</ele>
        <time>2021-05-23T07:18:45Z</time>
      </trkpt>
      <trkpt lat="48.82294" lon="2.95373">
        <ele>66.2</ele>
        <time>2021-05-23T07:18:46Z</time>
      </trkpt>
      <trkpt lat="48.82231" lon="2.95333">
        <ele>66.5</ele>
        <time>2021-05-23T07:18:58Z</time>
      </trkpt>
      <trkpt lat="48.822" lon="2.95318">
        <ele>70.7</ele>
        <time>2021-05-23T07:19:05Z</time>
      </trkpt>
      <trkpt lat="48.82195" lon="2.95318">
        <ele>70.9</ele>
        <time>2021-05-23T07:19:06Z</time>
      </trkpt>
      <trkpt lat="48.8219" lon="2.95318">
        <ele>71</ele>
        <time>2021-05-23T07:19:07Z</time>
      </trkpt>
      <trkpt lat="48.82181" lon="2.9532">
        <ele>70.7</ele>
        <time>2021-05-23T07:19:09Z</time>
      </trkpt>
      <trkpt lat="48.82136" lon="2.95345">
        <ele>70.3</ele>
        <time>2021-05-23T07:19:22Z</time>
      </trkpt>
      <trkpt lat="48.82106" lon="2.95355">
        <ele>72.2</ele>
        <time>2021-05-23T07:19:33Z</time>
      </trkpt>
      <trkpt lat="48.82085" lon="2.95341">
        <ele>76.6</ele>
        <time>2021-05-23T07:19:45Z</time>
      </trkpt>
      <trkpt lat="48.82055" lon="2.95336">
        <ele>78.7</ele>
        <time>2021-05-23T07:19:58Z</time>
      </trkpt>
      <trkpt lat="48.8203" lon="2.95337">
        <ele>79.4</ele>
        <time>2021-05-23T07:20:09Z</time>
      </trkpt>
      <trkpt lat="48.82023" lon="2.95337">
        <ele>79.7</ele>
        <time>2021-05-23T07:20:14Z</time>
      </trkpt>
      <trkpt lat="48.82021" lon="2.95337">
        <ele>79.7</ele>
        <time>2021-05-23T07:20:15Z</time>
      </trkpt>
      <trkpt lat="48.8202" lon="2.95337">
        <ele>79.8</ele>
        <time>2021-05-23T07:20:16Z</time>
      </trkpt>
      <trkpt lat="48.82017" lon="2.95337">
        <ele>79.8</ele>
        <time>2021-05-23T07:20:17Z</time>
      </trkpt>
      <trkpt lat="48.82015" lon="2.95338">
        <ele>79.8</ele>
        <time>2021-05-23T07:20:18Z</time>
      </trkpt>
      <trkpt lat="48.8201" lon="2.95339">
        <ele>79.8</ele>
        <time>2021-05-23T07:20:21Z</time>
      </trkpt>
      <trkpt lat="48.82008" lon="2.95339">
        <ele>79.9</ele>
        <time>2021-05-23T07:20:22Z</time>
      </trkpt>
      <trkpt lat="48.82007" lon="2.9534">
        <ele>79.9</ele>
        <time>2021-05-23T07:20:23Z</time>
      </trkpt>
      <trkpt lat="48.81996" lon="2.95341">
        <ele>79.8</ele>
        <time>2021-05-23T07:20:30Z</time>
      </trkpt>
      <trkpt lat="48.81986" lon="2.95337">
        <ele>79.9</ele>
        <time>2021-05-23T07:20:36Z</time>
      </trkpt>
      <trkpt lat="48.81983" lon="2.95337">
        <ele>79.9</ele>
        <time>2021-05-23T07:20:38Z</time>
      </trkpt>
      <trkpt lat="48.8198" lon="2.95337">
        <ele>79.9</ele>
        <time>2021-05-23T07:20:39Z</time>
      </trkpt>
      <trkpt lat="48.81948" lon="2.95327">
        <ele>79.5</ele>
        <time>2021-05-23T07:20:53Z</time>
      </trkpt>
      <trkpt lat="48.81934" lon="2.95322">
        <ele>79.2</ele>
        <time>2021-05-23T07:21:01Z</time>
      </trkpt>
      <trkpt lat="48.81907" lon="2.95319">
        <ele>78.1</ele>
        <time>2021-05-23T07:21:13Z</time>
      </trkpt>
      <trkpt lat="48.81907" lon="2.95316">
        <ele>78.2</ele>
        <time>2021-05-23T07:21:14Z</time>
      </trkpt>
      <trkpt lat="48.81906" lon="2.95313">
        <ele>78.4</ele>
        <time>2021-05-23T07:21:15Z</time>
      </trkpt>
      <trkpt lat="48.81906" lon="2.9531">
        <ele>78.5</ele>
        <time>2021-05-23T07:21:16Z</time>
      </trkpt>
      <trkpt lat="48.81906" lon="2.95307">
        <ele>78.7</ele>
        <time>2021-05-23T07:21:17Z</time>
      </trkpt>
      <trkpt lat="48.81906" lon="2.95304">
        <ele>78.8</ele>
        <time>2021-05-23T07:21:18Z</time>
      </trkpt>
      <trkpt lat="48.81904" lon="2.9525">
        <ele>81.2</ele>
        <time>2021-05-23T07:21:33Z</time>
      </trkpt>
      <trkpt lat="48.81898" lon="2.95182">
        <ele>82.5</ele>
        <time>2021-05-23T07:21:48Z</time>
      </trkpt>
      <trkpt lat="48.81876" lon="2.95104">
        <ele>83.5</ele>
        <time>2021-05-23T07:22:03Z</time>
      </trkpt>
      <trkpt lat="48.81852" lon="2.95049">
        <ele>82.8</ele>
        <time>2021-05-23T07:22:15Z</time>
      </trkpt>
      <trkpt lat="48.81838" lon="2.95027">
        <ele>82.1</ele>
        <time>2021-05-23T07:22:20Z</time>
      </trkpt>
      <trkpt lat="48.81835" lon="2.95021">
        <ele>81.9</ele>
        <time>2021-05-23T07:22:21Z</time>
      </trkpt>
      <trkpt lat="48.81833" lon="2.95015">
        <ele>81.8</ele>
        <time>2021-05-23T07:22:22Z</time>
      </trkpt>
      <trkpt lat="48.81829" lon="2.95001">
        <ele>81.5</ele>
        <time>2021-05-23T07:22:24Z</time>
      </trkpt>
      <trkpt lat="48.81827" lon="2.94994">
        <ele>81.4</ele>
        <time>2021-05-23T07:22:25Z</time>
      </trkpt>
      <trkpt lat="48.81827" lon="2.94987">
        <ele>81.4</ele>
        <time>2021-05-23T07:22:26Z</time>
      </trkpt>
      <trkpt lat="48.81827" lon="2.94979">
        <ele>81.4</ele>
        <time>2021-05-23T07:22:27Z</time>
      </trkpt>
      <trkpt lat="48.81827" lon="2.94972">
        <ele>81.4</ele>
        <time>2021-05-23T07:22:28Z</time>
      </trkpt>
      <trkpt lat="48.81827" lon="2.94943">
        <ele>81.5</ele>
        <time>2021-05-23T07:22:32Z</time>
      </trkpt>
      <trkpt lat="48.81828" lon="2.94936">
        <ele>81.5</ele>
        <time>2021-05-23T07:22:33Z</time>
      </trkpt>
      <trkpt lat="48.81832" lon="2.94875">
        <ele>82.4</ele>
        <time>2021-05-23T07:22:42Z</time>
      </trkpt>
      <trkpt lat="48.81834" lon="2.94839">
        <ele>83</ele>
        <time>2021-05-23T07:22:47Z</time>
      </trkpt>
      <trkpt lat="48.81833" lon="2.94808">
        <ele>83</ele>
        <time>2021-05-23T07:22:51Z</time>
      </trkpt>
      <trkpt lat="48.81833" lon="2.948">
        <ele>83</ele>
        <time>2021-05-23T07:22:52Z</time>
      </trkpt>
      <trkpt lat="48.81834" lon="2.94759">
        <ele>83</ele>
        <time>2021-05-23T07:22:57Z</time>
      </trkpt>
      <trkpt lat="48.81833" lon="2.94751">
        <ele>83</ele>
        <time>2021-05-23T07:22:58Z</time>
      </trkpt>
      <trkpt lat="48.81833" lon="2.94743">
        <ele>83</ele>
        <time>2021-05-23T07:22:59Z</time>
      </trkpt>
      <trkpt lat="48.81835" lon="2.94706">
        <ele>83.1</ele>
        <time>2021-05-23T07:23:04Z</time>
      </trkpt>
      <trkpt lat="48.81835" lon="2.94699">
        <ele>83.2</ele>
        <time>2021-05-23T07:23:05Z</time>
      </trkpt>
      <trkpt lat="48.81835" lon="2.94685">
        <ele>83.2</ele>
        <time>2021-05-23T07:23:07Z</time>
      </trkpt>
      <trkpt lat="48.81836" lon="2.9467">
        <ele>83.2</ele>
        <time>2021-05-23T07:23:09Z</time>
      </trkpt>
      <trkpt lat="48.81838" lon="2.9464">
        <ele>82.1</ele>
        <time>2021-05-23T07:23:13Z</time>
      </trkpt>
      <trkpt lat="48.81839" lon="2.94632">
        <ele>81.8</ele>
        <time>2021-05-23T07:23:14Z</time>
      </trkpt>
      <trkpt lat="48.81843" lon="2.9461">
        <ele>81.1</ele>
        <time>2021-05-23T07:23:17Z</time>
      </trkpt>
      <trkpt lat="48.81845" lon="2.94603">
        <ele>80.9</ele>
        <time>2021-05-23T07:23:18Z</time>
      </trkpt>
      <trkpt lat="48.81847" lon="2.94596">
        <ele>80.8</ele>
        <time>2021-05-23T07:23:19Z</time>
      </trkpt>
      <trkpt lat="48.81849" lon="2.9459">
        <ele>80.6</ele>
        <time>2021-05-23T07:23:20Z</time>
      </trkpt>
      <trkpt lat="48.81851" lon="2.94585">
        <ele>80.5</ele>
        <time>2021-05-23T07:23:21Z</time>
      </trkpt>
      <trkpt lat="48.81853" lon="2.94579">
        <ele>80.5</ele>
        <time>2021-05-23T07:23:22Z</time>
      </trkpt>
      <trkpt lat="48.81859" lon="2.94567">
        <ele>80.7</ele>
        <time>2021-05-23T07:23:24Z</time>
      </trkpt>
      <trkpt lat="48.81863" lon="2.94562">
        <ele>80.8</ele>
        <time>2021-05-23T07:23:25Z</time>
      </trkpt>
      <trkpt lat="48.81874" lon="2.94538">
        <ele>81.1</ele>
        <time>2021-05-23T07:23:29Z</time>
      </trkpt>
      <trkpt lat="48.81877" lon="2.94532">
        <ele>81.2</ele>
        <time>2021-05-23T07:23:30Z</time>
      </trkpt>
      <trkpt lat="48.81905" lon="2.9447">
        <ele>82.5</ele>
        <time>2021-05-23T07:23:42Z</time>
      </trkpt>
      <trkpt lat="48.81928" lon="2.94395">
        <ele>83.8</ele>
        <time>2021-05-23T07:23:55Z</time>
      </trkpt>
      <trkpt lat="48.81943" lon="2.94326">
        <ele>83.3</ele>
        <time>2021-05-23T07:24:07Z</time>
      </trkpt>
      <trkpt lat="48.81963" lon="2.94259">
        <ele>84.3</ele>
        <time>2021-05-23T07:24:18Z</time>
      </trkpt>
      <trkpt lat="48.81985" lon="2.94176">
        <ele>83.6</ele>
        <time>2021-05-23T07:24:32Z</time>
      </trkpt>
      <trkpt lat="48.81989" lon="2.94159">
        <ele>83.5</ele>
        <time>2021-05-23T07:24:35Z</time>
      </trkpt>
      <trkpt lat="48.81993" lon="2.94148">
        <ele>83.6</ele>
        <time>2021-05-23T07:24:37Z</time>
      </trkpt>
      <trkpt lat="48.81997" lon="2.94129">
        <ele>83.7</ele>
        <time>2021-05-23T07:24:40Z</time>
      </trkpt>
      <trkpt lat="48.8201" lon="2.94077">
        <ele>84.2</ele>
        <time>2021-05-23T07:24:49Z</time>
      </trkpt>
      <trkpt lat="48.82014" lon="2.94066">
        <ele>84.4</ele>
        <time>2021-05-23T07:24:51Z</time>
      </trkpt>
      <trkpt lat="48.82015" lon="2.9406">
        <ele>84.5</ele>
        <time>2021-05-23T07:24:52Z</time>
      </trkpt>
      <trkpt lat="48.82017" lon="2.94054">
        <ele>84.6</ele>
        <time>2021-05-23T07:24:53Z</time>
      </trkpt>
      <trkpt lat="48.82018" lon="2.94048">
        <ele>84.6</ele>
        <time>2021-05-23T07:24:54Z</time>
      </trkpt>
      <trkpt lat="48.82019" lon="2.94042">
        <ele>84.7</ele>
        <time>2021-05-23T07:24:55Z</time>
      </trkpt>
      <trkpt lat="48.82021" lon="2.94024">
        <ele>84.7</ele>
        <time>2021-05-23T07:24:58Z</time>
      </trkpt>
      <trkpt lat="48.82022" lon="2.94018">
        <ele>84.6</ele>
        <time>2021-05-23T07:24:59Z</time>
      </trkpt>
      <trkpt lat="48.82021" lon="2.94012">
        <ele>84.5</ele>
        <time>2021-05-23T07:25:00Z</time>
      </trkpt>
      <trkpt lat="48.8202" lon="2.94006">
        <ele>84.3</ele>
        <time>2021-05-23T07:25:01Z</time>
      </trkpt>
      <trkpt lat="48.8202" lon="2.94">
        <ele>84.1</ele>
        <time>2021-05-23T07:25:02Z</time>
      </trkpt>
      <trkpt lat="48.8202" lon="2.93995">
        <ele>83.8</ele>
        <time>2021-05-23T07:25:03Z</time>
      </trkpt>
      <trkpt lat="48.82019" lon="2.9399">
        <ele>83.5</ele>
        <time>2021-05-23T07:25:04Z</time>
      </trkpt>
      <trkpt lat="48.82017" lon="2.93969">
        <ele>82</ele>
        <time>2021-05-23T07:25:08Z</time>
      </trkpt>
      <trkpt lat="48.82015" lon="2.93963">
        <ele>81.5</ele>
        <time>2021-05-23T07:25:09Z</time>
      </trkpt>
      <trkpt lat="48.82015" lon="2.93956">
        <ele>81.1</ele>
        <time>2021-05-23T07:25:10Z</time>
      </trkpt>
      <trkpt lat="48.82015" lon="2.93924">
        <ele>79.2</ele>
        <time>2021-05-23T07:25:14Z</time>
      </trkpt>
      <trkpt lat="48.82015" lon="2.93916">
        <ele>78.8</ele>
        <time>2021-05-23T07:25:15Z</time>
      </trkpt>
      <trkpt lat="48.82016" lon="2.93908">
        <ele>78.2</ele>
        <time>2021-05-23T07:25:16Z</time>
      </trkpt>
      <trkpt lat="48.82017" lon="2.939">
        <ele>77.7</ele>
        <time>2021-05-23T07:25:17Z</time>
      </trkpt>
      <trkpt lat="48.82019" lon="2.93892">
        <ele>77.2</ele>
        <time>2021-05-23T07:25:18Z</time>
      </trkpt>
      <trkpt lat="48.82021" lon="2.93886">
        <ele>76.9</ele>
        <time>2021-05-23T07:25:19Z</time>
      </trkpt>
      <trkpt lat="48.82023" lon="2.9388">
        <ele>76.6</ele>
        <time>2021-05-23T07:25:20Z</time>
      </trkpt>
      <trkpt lat="48.82026" lon="2.93868">
        <ele>76</ele>
        <time>2021-05-23T07:25:22Z</time>
      </trkpt>
      <trkpt lat="48.82028" lon="2.93862">
        <ele>75.7</ele>
        <time>2021-05-23T07:25:23Z</time>
      </trkpt>
      <trkpt lat="48.8203" lon="2.93855">
        <ele>75.5</ele>
        <time>2021-05-23T07:25:24Z</time>
      </trkpt>
      <trkpt lat="48.82034" lon="2.93849">
        <ele>75.3</ele>
        <time>2021-05-23T07:25:25Z</time>
      </trkpt>
      <trkpt lat="48.82037" lon="2.93844">
        <ele>75.4</ele>
        <time>2021-05-23T07:25:26Z</time>
      </trkpt>
      <trkpt lat="48.82041" lon="2.93839">
        <ele>75.4</ele>
        <time>2021-05-23T07:25:27Z</time>
      </trkpt>
      <trkpt lat="48.82045" lon="2.93832">
        <ele>75.3</ele>
        <time>2021-05-23T07:25:28Z</time>
      </trkpt>
      <trkpt lat="48.82048" lon="2.93826">
        <ele>75.2</ele>
        <time>2021-05-23T07:25:29Z</time>
      </trkpt>
      <trkpt lat="48.8205" lon="2.9382">
        <ele>75.1</ele>
        <time>2021-05-23T07:25:30Z</time>
      </trkpt>
      <trkpt lat="48.82073" lon="2.9377">
        <ele>74.8</ele>
        <time>2021-05-23T07:25:37Z</time>
      </trkpt>
      <trkpt lat="48.82076" lon="2.93764">
        <ele>75</ele>
        <time>2021-05-23T07:25:38Z</time>
      </trkpt>
      <trkpt lat="48.8208" lon="2.93759">
        <ele>75.1</ele>
        <time>2021-05-23T07:25:39Z</time>
      </trkpt>
      <trkpt lat="48.82084" lon="2.93752">
        <ele>75.2</ele>
        <time>2021-05-23T07:25:40Z</time>
      </trkpt>
      <trkpt lat="48.82088" lon="2.93745">
        <ele>75.1</ele>
        <time>2021-05-23T07:25:41Z</time>
      </trkpt>
      <trkpt lat="48.82091" lon="2.93739">
        <ele>75.1</ele>
        <time>2021-05-23T07:25:42Z</time>
      </trkpt>
      <trkpt lat="48.82094" lon="2.93733">
        <ele>75.1</ele>
        <time>2021-05-23T07:25:43Z</time>
      </trkpt>
      <trkpt lat="48.82097" lon="2.93726">
        <ele>75.1</ele>
        <time>2021-05-23T07:25:44Z</time>
      </trkpt>
      <trkpt lat="48.821" lon="2.93719">
        <ele>75</ele>
        <time>2021-05-23T07:25:45Z</time>
      </trkpt>
      <trkpt lat="48.82104" lon="2.93713">
        <ele>75</ele>
        <time>2021-05-23T07:25:46Z</time>
      </trkpt>
      <trkpt lat="48.82108" lon="2.93707">
        <ele>75</ele>
        <time>2021-05-23T07:25:47Z</time>
      </trkpt>
      <trkpt lat="48.82112" lon="2.93701">
        <ele>75.1</ele>
        <time>2021-05-23T07:25:48Z</time>
      </trkpt>
      <trkpt lat="48.82119" lon="2.93684">
        <ele>74.9</ele>
        <time>2021-05-23T07:25:51Z</time>
      </trkpt>
      <trkpt lat="48.82122" lon="2.93676">
        <ele>74.7</ele>
        <time>2021-05-23T07:25:52Z</time>
      </trkpt>
      <trkpt lat="48.82144" lon="2.93595">
        <ele>71.5</ele>
        <time>2021-05-23T07:26:00Z</time>
      </trkpt>
      <trkpt lat="48.8215" lon="2.93553">
        <ele>69</ele>
        <time>2021-05-23T07:26:04Z</time>
      </trkpt>
      <trkpt lat="48.8215" lon="2.93543">
        <ele>68.4</ele>
        <time>2021-05-23T07:26:05Z</time>
      </trkpt>
      <trkpt lat="48.82151" lon="2.93533">
        <ele>67.6</ele>
        <time>2021-05-23T07:26:06Z</time>
      </trkpt>
      <trkpt lat="48.82152" lon="2.93502">
        <ele>65.5</ele>
        <time>2021-05-23T07:26:09Z</time>
      </trkpt>
      <trkpt lat="48.82165" lon="2.93443">
        <ele>63.2</ele>
        <time>2021-05-23T07:26:14Z</time>
      </trkpt>
      <trkpt lat="48.82169" lon="2.93431">
        <ele>63</ele>
        <time>2021-05-23T07:26:15Z</time>
      </trkpt>
      <trkpt lat="48.82178" lon="2.93408">
        <ele>63.1</ele>
        <time>2021-05-23T07:26:19Z</time>
      </trkpt>
      <trkpt lat="48.82181" lon="2.93405">
        <ele>63.3</ele>
        <time>2021-05-23T07:26:20Z</time>
      </trkpt>
      <trkpt lat="48.82185" lon="2.93403">
        <ele>63.6</ele>
        <time>2021-05-23T07:26:21Z</time>
      </trkpt>
      <trkpt lat="48.82214" lon="2.93381">
        <ele>65.5</ele>
        <time>2021-05-23T07:26:29Z</time>
      </trkpt>
      <trkpt lat="48.82218" lon="2.93376">
        <ele>65.6</ele>
        <time>2021-05-23T07:26:30Z</time>
      </trkpt>
      <trkpt lat="48.82222" lon="2.93373">
        <ele>65.7</ele>
        <time>2021-05-23T07:26:31Z</time>
      </trkpt>
      <trkpt lat="48.82234" lon="2.93363">
        <ele>66</ele>
        <time>2021-05-23T07:26:34Z</time>
      </trkpt>
      <trkpt lat="48.82238" lon="2.93359">
        <ele>66</ele>
        <time>2021-05-23T07:26:35Z</time>
      </trkpt>
      <trkpt lat="48.82247" lon="2.93345">
        <ele>65.7</ele>
        <time>2021-05-23T07:26:38Z</time>
      </trkpt>
      <trkpt lat="48.82249" lon="2.93338">
        <ele>65.3</ele>
        <time>2021-05-23T07:26:39Z</time>
      </trkpt>
      <trkpt lat="48.82251" lon="2.93331">
        <ele>64.8</ele>
        <time>2021-05-23T07:26:40Z</time>
      </trkpt>
      <trkpt lat="48.82265" lon="2.9329">
        <ele>61.7</ele>
        <time>2021-05-23T07:26:46Z</time>
      </trkpt>
      <trkpt lat="48.82267" lon="2.93281">
        <ele>61.1</ele>
        <time>2021-05-23T07:26:47Z</time>
      </trkpt>
      <trkpt lat="48.82271" lon="2.93256">
        <ele>59.4</ele>
        <time>2021-05-23T07:26:50Z</time>
      </trkpt>
      <trkpt lat="48.82273" lon="2.93248">
        <ele>58.9</ele>
        <time>2021-05-23T07:26:51Z</time>
      </trkpt>
      <trkpt lat="48.82276" lon="2.93241">
        <ele>58.6</ele>
        <time>2021-05-23T07:26:52Z</time>
      </trkpt>
      <trkpt lat="48.8228" lon="2.93234">
        <ele>58.4</ele>
        <time>2021-05-23T07:26:53Z</time>
      </trkpt>
      <trkpt lat="48.82284" lon="2.93228">
        <ele>58.1</ele>
        <time>2021-05-23T07:26:54Z</time>
      </trkpt>
      <trkpt lat="48.82287" lon="2.93222">
        <ele>57.9</ele>
        <time>2021-05-23T07:26:55Z</time>
      </trkpt>
      <trkpt lat="48.82299" lon="2.93203">
        <ele>57.1</ele>
        <time>2021-05-23T07:26:58Z</time>
      </trkpt>
      <trkpt lat="48.82343" lon="2.93119">
        <ele>54.5</ele>
        <time>2021-05-23T07:27:11Z</time>
      </trkpt>
      <trkpt lat="48.8238" lon="2.93028">
        <ele>53</ele>
        <time>2021-05-23T07:27:25Z</time>
      </trkpt>
      <trkpt lat="48.82419" lon="2.92948">
        <ele>52.5</ele>
        <time>2021-05-23T07:27:37Z</time>
      </trkpt>
      <trkpt lat="48.82463" lon="2.92854">
        <ele>54.1</ele>
        <time>2021-05-23T07:27:51Z</time>
      </trkpt>
      <trkpt lat="48.82465" lon="2.92847">
        <ele>54.2</ele>
        <time>2021-05-23T07:27:52Z</time>
      </trkpt>
      <trkpt lat="48.82483" lon="2.92787">
        <ele>54.5</ele>
        <time>2021-05-23T07:28:01Z</time>
      </trkpt>
      <trkpt lat="48.82486" lon="2.92782">
        <ele>54.6</ele>
        <time>2021-05-23T07:28:02Z</time>
      </trkpt>
      <trkpt lat="48.82488" lon="2.92776">
        <ele>54.6</ele>
        <time>2021-05-23T07:28:03Z</time>
      </trkpt>
      <trkpt lat="48.82489" lon="2.92769">
        <ele>54.6</ele>
        <time>2021-05-23T07:28:04Z</time>
      </trkpt>
      <trkpt lat="48.82491" lon="2.92762">
        <ele>54.7</ele>
        <time>2021-05-23T07:28:05Z</time>
      </trkpt>
      <trkpt lat="48.82496" lon="2.92741">
        <ele>54.9</ele>
        <time>2021-05-23T07:28:08Z</time>
      </trkpt>
      <trkpt lat="48.82498" lon="2.92734">
        <ele>54.9</ele>
        <time>2021-05-23T07:28:09Z</time>
      </trkpt>
      <trkpt lat="48.82505" lon="2.92714">
        <ele>55.2</ele>
        <time>2021-05-23T07:28:12Z</time>
      </trkpt>
      <trkpt lat="48.82507" lon="2.92707">
        <ele>55.4</ele>
        <time>2021-05-23T07:28:13Z</time>
      </trkpt>
      <trkpt lat="48.82508" lon="2.92701">
        <ele>55.5</ele>
        <time>2021-05-23T07:28:14Z</time>
      </trkpt>
      <trkpt lat="48.8251" lon="2.92694">
        <ele>55.6</ele>
        <time>2021-05-23T07:28:15Z</time>
      </trkpt>
      <trkpt lat="48.82511" lon="2.92689">
        <ele>55.6</ele>
        <time>2021-05-23T07:28:16Z</time>
      </trkpt>
      <trkpt lat="48.82519" lon="2.92657">
        <ele>56</ele>
        <time>2021-05-23T07:28:21Z</time>
      </trkpt>
      <trkpt lat="48.8252" lon="2.9265">
        <ele>55.9</ele>
        <time>2021-05-23T07:28:22Z</time>
      </trkpt>
      <trkpt lat="48.82521" lon="2.92644">
        <ele>55.9</ele>
        <time>2021-05-23T07:28:23Z</time>
      </trkpt>
      <trkpt lat="48.82522" lon="2.92639">
        <ele>55.9</ele>
        <time>2021-05-23T07:28:24Z</time>
      </trkpt>
      <trkpt lat="48.82523" lon="2.92633">
        <ele>55.9</ele>
        <time>2021-05-23T07:28:25Z</time>
      </trkpt>
      <trkpt lat="48.82524" lon="2.92626">
        <ele>55.9</ele>
        <time>2021-05-23T07:28:26Z</time>
      </trkpt>
      <trkpt lat="48.82526" lon="2.9262">
        <ele>56</ele>
        <time>2021-05-23T07:28:27Z</time>
      </trkpt>
      <trkpt lat="48.82538" lon="2.92566">
        <ele>56.7</ele>
        <time>2021-05-23T07:28:36Z</time>
      </trkpt>
      <trkpt lat="48.82552" lon="2.92539">
        <ele>57.9</ele>
        <time>2021-05-23T07:28:41Z</time>
      </trkpt>
      <trkpt lat="48.82557" lon="2.92499">
        <ele>58.1</ele>
        <time>2021-05-23T07:28:47Z</time>
      </trkpt>
      <trkpt lat="48.82558" lon="2.92491">
        <ele>58.2</ele>
        <time>2021-05-23T07:28:48Z</time>
      </trkpt>
      <trkpt lat="48.82558" lon="2.92483">
        <ele>58.2</ele>
        <time>2021-05-23T07:28:49Z</time>
      </trkpt>
      <trkpt lat="48.82558" lon="2.92475">
        <ele>58.3</ele>
        <time>2021-05-23T07:28:50Z</time>
      </trkpt>
      <trkpt lat="48.82558" lon="2.92466">
        <ele>58.3</ele>
        <time>2021-05-23T07:28:51Z</time>
      </trkpt>
      <trkpt lat="48.82561" lon="2.924">
        <ele>58.3</ele>
        <time>2021-05-23T07:29:00Z</time>
      </trkpt>
      <trkpt lat="48.82561" lon="2.92393">
        <ele>58.2</ele>
        <time>2021-05-23T07:29:01Z</time>
      </trkpt>
      <trkpt lat="48.82561" lon="2.92385">
        <ele>58.1</ele>
        <time>2021-05-23T07:29:02Z</time>
      </trkpt>
      <trkpt lat="48.82561" lon="2.92377">
        <ele>58</ele>
        <time>2021-05-23T07:29:03Z</time>
      </trkpt>
      <trkpt lat="48.82561" lon="2.92371">
        <ele>57.8</ele>
        <time>2021-05-23T07:29:04Z</time>
      </trkpt>
      <trkpt lat="48.8256" lon="2.92298">
        <ele>57.5</ele>
        <time>2021-05-23T07:29:15Z</time>
      </trkpt>
      <trkpt lat="48.82557" lon="2.92233">
        <ele>57.6</ele>
        <time>2021-05-23T07:29:25Z</time>
      </trkpt>
      <trkpt lat="48.82553" lon="2.92152">
        <ele>56.6</ele>
        <time>2021-05-23T07:29:37Z</time>
      </trkpt>
      <trkpt lat="48.8255" lon="2.92134">
        <ele>56.6</ele>
        <time>2021-05-23T07:29:40Z</time>
      </trkpt>
      <trkpt lat="48.8255" lon="2.92127">
        <ele>56.6</ele>
        <time>2021-05-23T07:29:41Z</time>
      </trkpt>
      <trkpt lat="48.82551" lon="2.92121">
        <ele>56.7</ele>
        <time>2021-05-23T07:29:42Z</time>
      </trkpt>
      <trkpt lat="48.82552" lon="2.92116">
        <ele>56.8</ele>
        <time>2021-05-23T07:29:43Z</time>
      </trkpt>
      <trkpt lat="48.82554" lon="2.92112">
        <ele>57</ele>
        <time>2021-05-23T07:29:44Z</time>
      </trkpt>
      <trkpt lat="48.82578" lon="2.92055">
        <ele>59.8</ele>
        <time>2021-05-23T07:29:55Z</time>
      </trkpt>
      <trkpt lat="48.82579" lon="2.91982">
        <ele>60.6</ele>
        <time>2021-05-23T07:30:07Z</time>
      </trkpt>
      <trkpt lat="48.82575" lon="2.91914">
        <ele>60.2</ele>
        <time>2021-05-23T07:30:21Z</time>
      </trkpt>
      <trkpt lat="48.82574" lon="2.91908">
        <ele>60.2</ele>
        <time>2021-05-23T07:30:23Z</time>
      </trkpt>
      <trkpt lat="48.82572" lon="2.91906">
        <ele>60.1</ele>
        <time>2021-05-23T07:30:24Z</time>
      </trkpt>
      <trkpt lat="48.8257" lon="2.91903">
        <ele>59.9</ele>
        <time>2021-05-23T07:30:25Z</time>
      </trkpt>
      <trkpt lat="48.82559" lon="2.91883">
        <ele>59.2</ele>
        <time>2021-05-23T07:30:30Z</time>
      </trkpt>
      <trkpt lat="48.82558" lon="2.91876">
        <ele>59.2</ele>
        <time>2021-05-23T07:30:31Z</time>
      </trkpt>
      <trkpt lat="48.82556" lon="2.91832">
        <ele>59.7</ele>
        <time>2021-05-23T07:30:37Z</time>
      </trkpt>
      <trkpt lat="48.82555" lon="2.91826">
        <ele>59.8</ele>
        <time>2021-05-23T07:30:38Z</time>
      </trkpt>
      <trkpt lat="48.82555" lon="2.9182">
        <ele>59.8</ele>
        <time>2021-05-23T07:30:39Z</time>
      </trkpt>
      <trkpt lat="48.82551" lon="2.91729">
        <ele>61.3</ele>
        <time>2021-05-23T07:30:54Z</time>
      </trkpt>
      <trkpt lat="48.82538" lon="2.91669">
        <ele>61.3</ele>
        <time>2021-05-23T07:31:06Z</time>
      </trkpt>
      <trkpt lat="48.8253" lon="2.91649">
        <ele>60.6</ele>
        <time>2021-05-23T07:31:10Z</time>
      </trkpt>
      <trkpt lat="48.82527" lon="2.91645">
        <ele>60.1</ele>
        <time>2021-05-23T07:31:11Z</time>
      </trkpt>
      <trkpt lat="48.82524" lon="2.9164">
        <ele>59.8</ele>
        <time>2021-05-23T07:31:12Z</time>
      </trkpt>
      <trkpt lat="48.82522" lon="2.91634">
        <ele>59.7</ele>
        <time>2021-05-23T07:31:13Z</time>
      </trkpt>
      <trkpt lat="48.82521" lon="2.91628">
        <ele>59.6</ele>
        <time>2021-05-23T07:31:14Z</time>
      </trkpt>
      <trkpt lat="48.82519" lon="2.91621">
        <ele>59.6</ele>
        <time>2021-05-23T07:31:15Z</time>
      </trkpt>
      <trkpt lat="48.82513" lon="2.91575">
        <ele>60</ele>
        <time>2021-05-23T07:31:23Z</time>
      </trkpt>
      <trkpt lat="48.82514" lon="2.9157">
        <ele>60.6</ele>
        <time>2021-05-23T07:31:24Z</time>
      </trkpt>
      <trkpt lat="48.82515" lon="2.9156">
        <ele>61.4</ele>
        <time>2021-05-23T07:31:26Z</time>
      </trkpt>
      <trkpt lat="48.82509" lon="2.9152">
        <ele>62</ele>
        <time>2021-05-23T07:31:35Z</time>
      </trkpt>
      <trkpt lat="48.82503" lon="2.91467">
        <ele>62.9</ele>
        <time>2021-05-23T07:31:46Z</time>
      </trkpt>
      <trkpt lat="48.82498" lon="2.9142">
        <ele>63.6</ele>
        <time>2021-05-23T07:31:56Z</time>
      </trkpt>
      <trkpt lat="48.82491" lon="2.91363">
        <ele>63.9</ele>
        <time>2021-05-23T07:32:06Z</time>
      </trkpt>
      <trkpt lat="48.82484" lon="2.91306">
        <ele>63.4</ele>
        <time>2021-05-23T07:32:16Z</time>
      </trkpt>
      <trkpt lat="48.82486" lon="2.91261">
        <ele>64.2</ele>
        <time>2021-05-23T07:32:26Z</time>
      </trkpt>
      <trkpt lat="48.82487" lon="2.91255">
        <ele>64.4</ele>
        <time>2021-05-23T07:32:28Z</time>
      </trkpt>
      <trkpt lat="48.82484" lon="2.91196">
        <ele>61.2</ele>
        <time>2021-05-23T07:32:40Z</time>
      </trkpt>
      <trkpt lat="48.8251" lon="2.91154">
        <ele>60.7</ele>
        <time>2021-05-23T07:32:51Z</time>
      </trkpt>
      <trkpt lat="48.82514" lon="2.91152">
        <ele>60.8</ele>
        <time>2021-05-23T07:32:52Z</time>
      </trkpt>
      <trkpt lat="48.82578" lon="2.91128">
        <ele>62.9</ele>
        <time>2021-05-23T07:33:08Z</time>
      </trkpt>
      <trkpt lat="48.82639" lon="2.91106">
        <ele>64</ele>
        <time>2021-05-23T07:33:23Z</time>
      </trkpt>
      <trkpt lat="48.82726" lon="2.91074">
        <ele>65.3</ele>
        <time>2021-05-23T07:33:43Z</time>
      </trkpt>
      <trkpt lat="48.82754" lon="2.91063">
        <ele>65.8</ele>
        <time>2021-05-23T07:33:49Z</time>
      </trkpt>
      <trkpt lat="48.82794" lon="2.91046">
        <ele>66.2</ele>
        <time>2021-05-23T07:33:57Z</time>
      </trkpt>
      <trkpt lat="48.82799" lon="2.91043">
        <ele>66.2</ele>
        <time>2021-05-23T07:33:58Z</time>
      </trkpt>
      <trkpt lat="48.82809" lon="2.9104">
        <ele>66.3</ele>
        <time>2021-05-23T07:34:00Z</time>
      </trkpt>
      <trkpt lat="48.82868" lon="2.91034">
        <ele>68.4</ele>
        <time>2021-05-23T07:34:12Z</time>
      </trkpt>
      <trkpt lat="48.82941" lon="2.91018">
        <ele>69.7</ele>
        <time>2021-05-23T07:34:28Z</time>
      </trkpt>
      <trkpt lat="48.82993" lon="2.91009">
        <ele>71</ele>
        <time>2021-05-23T07:34:40Z</time>
      </trkpt>
      <trkpt lat="48.83023" lon="2.90992">
        <ele>69.7</ele>
        <time>2021-05-23T07:34:49Z</time>
      </trkpt>
      <trkpt lat="48.83026" lon="2.90986">
        <ele>69.2</ele>
        <time>2021-05-23T07:34:50Z</time>
      </trkpt>
      <trkpt lat="48.83029" lon="2.90979">
        <ele>68.5</ele>
        <time>2021-05-23T07:34:51Z</time>
      </trkpt>
      <trkpt lat="48.83042" lon="2.90946">
        <ele>65.4</ele>
        <time>2021-05-23T07:34:55Z</time>
      </trkpt>
      <trkpt lat="48.83047" lon="2.90941">
        <ele>65.1</ele>
        <time>2021-05-23T07:34:56Z</time>
      </trkpt>
      <trkpt lat="48.83053" lon="2.90939">
        <ele>65.2</ele>
        <time>2021-05-23T07:34:57Z</time>
      </trkpt>
      <trkpt lat="48.83092" lon="2.90928">
        <ele>65.3</ele>
        <time>2021-05-23T07:35:08Z</time>
      </trkpt>
      <trkpt lat="48.83138" lon="2.90925">
        <ele>66.1</ele>
        <time>2021-05-23T07:35:23Z</time>
      </trkpt>
      <trkpt lat="48.83159" lon="2.90964">
        <ele>70.9</ele>
        <time>2021-05-23T07:35:35Z</time>
      </trkpt>
      <trkpt lat="48.83137" lon="2.91002">
        <ele>74.2</ele>
        <time>2021-05-23T07:35:47Z</time>
      </trkpt>
      <trkpt lat="48.83093" lon="2.91021">
        <ele>75.1</ele>
        <time>2021-05-23T07:36:02Z</time>
      </trkpt>
      <trkpt lat="48.83052" lon="2.91042">
        <ele>77</ele>
        <time>2021-05-23T07:36:17Z</time>
      </trkpt>
      <trkpt lat="48.83039" lon="2.91068">
        <ele>80.3</ele>
        <time>2021-05-23T07:36:25Z</time>
      </trkpt>
      <trkpt lat="48.83043" lon="2.91097">
        <ele>83.9</ele>
        <time>2021-05-23T07:36:35Z</time>
      </trkpt>
      <trkpt lat="48.83044" lon="2.911">
        <ele>84.2</ele>
        <time>2021-05-23T07:36:36Z</time>
      </trkpt>
      <trkpt lat="48.83046" lon="2.91104">
        <ele>84.7</ele>
        <time>2021-05-23T07:36:39Z</time>
      </trkpt>
      <trkpt lat="48.83073" lon="2.91115">
        <ele>86</ele>
        <time>2021-05-23T07:36:52Z</time>
      </trkpt>
      <trkpt lat="48.83111" lon="2.91123">
        <ele>87.3</ele>
        <time>2021-05-23T07:37:03Z</time>
      </trkpt>
      <trkpt lat="48.83151" lon="2.91131">
        <ele>88.6</ele>
        <time>2021-05-23T07:37:16Z</time>
      </trkpt>
      <trkpt lat="48.83176" lon="2.91159">
        <ele>90.6</ele>
        <time>2021-05-23T07:37:28Z</time>
      </trkpt>
      <trkpt lat="48.83165" lon="2.91207">
        <ele>92.5</ele>
        <time>2021-05-23T07:37:40Z</time>
      </trkpt>
      <trkpt lat="48.83141" lon="2.91265">
        <ele>95.1</ele>
        <time>2021-05-23T07:37:57Z</time>
      </trkpt>
      <trkpt lat="48.83143" lon="2.91315">
        <ele>96.9</ele>
        <time>2021-05-23T07:38:11Z</time>
      </trkpt>
      <trkpt lat="48.83155" lon="2.91376">
        <ele>98.7</ele>
        <time>2021-05-23T07:38:26Z</time>
      </trkpt>
      <trkpt lat="48.83168" lon="2.91436">
        <ele>100.7</ele>
        <time>2021-05-23T07:38:41Z</time>
      </trkpt>
      <trkpt lat="48.83183" lon="2.91516">
        <ele>103.3</ele>
        <time>2021-05-23T07:39:00Z</time>
      </trkpt>
      <trkpt lat="48.83191" lon="2.91575">
        <ele>105.1</ele>
        <time>2021-05-23T07:39:14Z</time>
      </trkpt>
      <trkpt lat="48.83197" lon="2.91639">
        <ele>106.6</ele>
        <time>2021-05-23T07:39:30Z</time>
      </trkpt>
      <trkpt lat="48.83201" lon="2.91699">
        <ele>108.7</ele>
        <time>2021-05-23T07:39:45Z</time>
      </trkpt>
      <trkpt lat="48.83191" lon="2.91781">
        <ele>112.5</ele>
        <time>2021-05-23T07:40:05Z</time>
      </trkpt>
      <trkpt lat="48.83176" lon="2.9186">
        <ele>114.8</ele>
        <time>2021-05-23T07:40:23Z</time>
      </trkpt>
      <trkpt lat="48.83167" lon="2.9195">
        <ele>115.4</ele>
        <time>2021-05-23T07:40:41Z</time>
      </trkpt>
      <trkpt lat="48.83163" lon="2.91992">
        <ele>116</ele>
        <time>2021-05-23T07:40:50Z</time>
      </trkpt>
      <trkpt lat="48.8316" lon="2.91995">
        <ele>116.1</ele>
        <time>2021-05-23T07:40:51Z</time>
      </trkpt>
      <trkpt lat="48.83158" lon="2.91995">
        <ele>116.2</ele>
        <time>2021-05-23T07:40:52Z</time>
      </trkpt>
      <trkpt lat="48.83146" lon="2.91997">
        <ele>116.5</ele>
        <time>2021-05-23T07:41:02Z</time>
      </trkpt>
      <trkpt lat="48.83146" lon="2.91997">
        <ele>116.5</ele>
        <time>2021-05-23T07:41:27Z</time>
      </trkpt>
      <trkpt lat="48.83146" lon="2.91996">
        <ele>116.5</ele>
        <time>2021-05-23T07:41:53Z</time>
      </trkpt>
      <trkpt lat="48.83146" lon="2.91996">
        <ele>116.5</ele>
        <time>2021-05-23T07:42:16Z</time>
      </trkpt>
      <trkpt lat="48.83145" lon="2.91997">
        <ele>116.5</ele>
        <time>2021-05-23T07:42:45Z</time>
      </trkpt>
      <trkpt lat="48.83099" lon="2.9201">
        <ele>117.5</ele>
        <time>2021-05-23T07:42:59Z</time>
      </trkpt>
      <trkpt lat="48.83067" lon="2.92021">
        <ele>117.5</ele>
        <time>2021-05-23T07:43:07Z</time>
      </trkpt>
      <trkpt lat="48.83062" lon="2.92023">
        <ele>117.5</ele>
        <time>2021-05-23T07:43:08Z</time>
      </trkpt>
      <trkpt lat="48.83058" lon="2.92024">
        <ele>117.4</ele>
        <time>2021-05-23T07:43:09Z</time>
      </trkpt>
      <trkpt lat="48.83019" lon="2.92042">
        <ele>116.7</ele>
        <time>2021-05-23T07:43:19Z</time>
      </trkpt>
      <trkpt lat="48.83017" lon="2.92046">
        <ele>116.6</ele>
        <time>2021-05-23T07:43:20Z</time>
      </trkpt>
      <trkpt lat="48.83017" lon="2.92051">
        <ele>116.6</ele>
        <time>2021-05-23T07:43:21Z</time>
      </trkpt>
      <trkpt lat="48.83022" lon="2.92135">
        <ele>114.7</ele>
        <time>2021-05-23T07:43:36Z</time>
      </trkpt>
      <trkpt lat="48.83025" lon="2.9223">
        <ele>113.4</ele>
        <time>2021-05-23T07:43:51Z</time>
      </trkpt>
      <trkpt lat="48.83025" lon="2.92236">
        <ele>113.3</ele>
        <time>2021-05-23T07:43:52Z</time>
      </trkpt>
      <trkpt lat="48.83027" lon="2.92262">
        <ele>113.2</ele>
        <time>2021-05-23T07:43:56Z</time>
      </trkpt>
      <trkpt lat="48.83027" lon="2.92268">
        <ele>113.2</ele>
        <time>2021-05-23T07:43:57Z</time>
      </trkpt>
      <trkpt lat="48.83029" lon="2.92299">
        <ele>113.2</ele>
        <time>2021-05-23T07:44:02Z</time>
      </trkpt>
      <trkpt lat="48.8303" lon="2.92329">
        <ele>113.1</ele>
        <time>2021-05-23T07:44:07Z</time>
      </trkpt>
      <trkpt lat="48.83031" lon="2.92335">
        <ele>113.1</ele>
        <time>2021-05-23T07:44:08Z</time>
      </trkpt>
      <trkpt lat="48.83033" lon="2.92341">
        <ele>113.2</ele>
        <time>2021-05-23T07:44:09Z</time>
      </trkpt>
      <trkpt lat="48.83034" lon="2.92347">
        <ele>113.2</ele>
        <time>2021-05-23T07:44:10Z</time>
      </trkpt>
      <trkpt lat="48.83035" lon="2.92353">
        <ele>113.2</ele>
        <time>2021-05-23T07:44:11Z</time>
      </trkpt>
      <trkpt lat="48.83038" lon="2.92371">
        <ele>113.3</ele>
        <time>2021-05-23T07:44:14Z</time>
      </trkpt>
      <trkpt lat="48.8304" lon="2.92376">
        <ele>113.4</ele>
        <time>2021-05-23T07:44:15Z</time>
      </trkpt>
      <trkpt lat="48.83041" lon="2.9238">
        <ele>113.5</ele>
        <time>2021-05-23T07:44:16Z</time>
      </trkpt>
      <trkpt lat="48.83058" lon="2.92444">
        <ele>114.5</ele>
        <time>2021-05-23T07:44:28Z</time>
      </trkpt>
      <trkpt lat="48.83069" lon="2.92498">
        <ele>115.1</ele>
        <time>2021-05-23T07:44:38Z</time>
      </trkpt>
      <trkpt lat="48.83072" lon="2.925">
        <ele>115.3</ele>
        <time>2021-05-23T07:44:39Z</time>
      </trkpt>
      <trkpt lat="48.83075" lon="2.92501">
        <ele>115.5</ele>
        <time>2021-05-23T07:44:40Z</time>
      </trkpt>
      <trkpt lat="48.83078" lon="2.925">
        <ele>115.7</ele>
        <time>2021-05-23T07:44:41Z</time>
      </trkpt>
      <trkpt lat="48.83081" lon="2.92499">
        <ele>115.8</ele>
        <time>2021-05-23T07:44:42Z</time>
      </trkpt>
      <trkpt lat="48.83083" lon="2.92499">
        <ele>116</ele>
        <time>2021-05-23T07:44:43Z</time>
      </trkpt>
      <trkpt lat="48.83086" lon="2.92498">
        <ele>116</ele>
        <time>2021-05-23T07:44:44Z</time>
      </trkpt>
      <trkpt lat="48.83089" lon="2.92498">
        <ele>116</ele>
        <time>2021-05-23T07:44:45Z</time>
      </trkpt>
      <trkpt lat="48.83091" lon="2.925">
        <ele>116</ele>
        <time>2021-05-23T07:44:46Z</time>
      </trkpt>
      <trkpt lat="48.83093" lon="2.92504">
        <ele>116</ele>
        <time>2021-05-23T07:44:47Z</time>
      </trkpt>
      <trkpt lat="48.83095" lon="2.92507">
        <ele>116</ele>
        <time>2021-05-23T07:44:48Z</time>
      </trkpt>
      <trkpt lat="48.83104" lon="2.92569">
        <ele>116.2</ele>
        <time>2021-05-23T07:45:02Z</time>
      </trkpt>
      <trkpt lat="48.83111" lon="2.92615">
        <ele>116.2</ele>
        <time>2021-05-23T07:45:12Z</time>
      </trkpt>
      <trkpt lat="48.83114" lon="2.92651">
        <ele>116.1</ele>
        <time>2021-05-23T07:45:22Z</time>
      </trkpt>
      <trkpt lat="48.83122" lon="2.92715">
        <ele>116.7</ele>
        <time>2021-05-23T07:45:34Z</time>
      </trkpt>
      <trkpt lat="48.83125" lon="2.92775">
        <ele>117.6</ele>
        <time>2021-05-23T07:45:45Z</time>
      </trkpt>
      <trkpt lat="48.83118" lon="2.92816">
        <ele>118.1</ele>
        <time>2021-05-23T07:45:56Z</time>
      </trkpt>
      <trkpt lat="48.83117" lon="2.92862">
        <ele>118.9</ele>
        <time>2021-05-23T07:46:07Z</time>
      </trkpt>
      <trkpt lat="48.83118" lon="2.92865">
        <ele>118.9</ele>
        <time>2021-05-23T07:46:08Z</time>
      </trkpt>
      <trkpt lat="48.83118" lon="2.92869">
        <ele>119</ele>
        <time>2021-05-23T07:46:09Z</time>
      </trkpt>
      <trkpt lat="48.83118" lon="2.92873">
        <ele>119.1</ele>
        <time>2021-05-23T07:46:10Z</time>
      </trkpt>
      <trkpt lat="48.83118" lon="2.92876">
        <ele>119.1</ele>
        <time>2021-05-23T07:46:11Z</time>
      </trkpt>
      <trkpt lat="48.83118" lon="2.9288">
        <ele>119.2</ele>
        <time>2021-05-23T07:46:12Z</time>
      </trkpt>
      <trkpt lat="48.83119" lon="2.92907">
        <ele>119.6</ele>
        <time>2021-05-23T07:46:20Z</time>
      </trkpt>
      <trkpt lat="48.83121" lon="2.92909">
        <ele>119.7</ele>
        <time>2021-05-23T07:46:21Z</time>
      </trkpt>
      <trkpt lat="48.83123" lon="2.9291">
        <ele>119.8</ele>
        <time>2021-05-23T07:46:22Z</time>
      </trkpt>
      <trkpt lat="48.83124" lon="2.92911">
        <ele>119.9</ele>
        <time>2021-05-23T07:46:23Z</time>
      </trkpt>
      <trkpt lat="48.83127" lon="2.92912">
        <ele>120</ele>
        <time>2021-05-23T07:46:24Z</time>
      </trkpt>
      <trkpt lat="48.83129" lon="2.92913">
        <ele>120.2</ele>
        <time>2021-05-23T07:46:25Z</time>
      </trkpt>
      <trkpt lat="48.83165" lon="2.92927">
        <ele>121.9</ele>
        <time>2021-05-23T07:46:38Z</time>
      </trkpt>
      <trkpt lat="48.83198" lon="2.92944">
        <ele>121.6</ele>
        <time>2021-05-23T07:46:49Z</time>
      </trkpt>
      <trkpt lat="48.832" lon="2.92949">
        <ele>121.6</ele>
        <time>2021-05-23T07:46:50Z</time>
      </trkpt>
      <trkpt lat="48.83204" lon="2.93034">
        <ele>122</ele>
        <time>2021-05-23T07:47:06Z</time>
      </trkpt>
      <trkpt lat="48.83199" lon="2.93133">
        <ele>122.8</ele>
        <time>2021-05-23T07:47:23Z</time>
      </trkpt>
      <trkpt lat="48.83196" lon="2.93222">
        <ele>123.9</ele>
        <time>2021-05-23T07:47:38Z</time>
      </trkpt>
      <trkpt lat="48.83192" lon="2.93324">
        <ele>125.8</ele>
        <time>2021-05-23T07:47:55Z</time>
      </trkpt>
      <trkpt lat="48.832" lon="2.93412">
        <ele>127.7</ele>
        <time>2021-05-23T07:48:10Z</time>
      </trkpt>
      <trkpt lat="48.83206" lon="2.93508">
        <ele>129</ele>
        <time>2021-05-23T07:48:26Z</time>
      </trkpt>
      <trkpt lat="48.83209" lon="2.9359">
        <ele>130.1</ele>
        <time>2021-05-23T07:48:41Z</time>
      </trkpt>
      <trkpt lat="48.83217" lon="2.93668">
        <ele>131.4</ele>
        <time>2021-05-23T07:48:56Z</time>
      </trkpt>
      <trkpt lat="48.83221" lon="2.93748">
        <ele>132.6</ele>
        <time>2021-05-23T07:49:12Z</time>
      </trkpt>
      <trkpt lat="48.83225" lon="2.93826">
        <ele>132.1</ele>
        <time>2021-05-23T07:49:28Z</time>
      </trkpt>
      <trkpt lat="48.83227" lon="2.93898">
        <ele>133.2</ele>
        <time>2021-05-23T07:49:43Z</time>
      </trkpt>
      <trkpt lat="48.83228" lon="2.93954">
        <ele>134.4</ele>
        <time>2021-05-23T07:49:56Z</time>
      </trkpt>
      <trkpt lat="48.83227" lon="2.9402">
        <ele>135.7</ele>
        <time>2021-05-23T07:50:12Z</time>
      </trkpt>
      <trkpt lat="48.83226" lon="2.94085">
        <ele>136.5</ele>
        <time>2021-05-23T07:50:28Z</time>
      </trkpt>
      <trkpt lat="48.83224" lon="2.94135">
        <ele>137.4</ele>
        <time>2021-05-23T07:50:40Z</time>
      </trkpt>
      <trkpt lat="48.83222" lon="2.94195">
        <ele>138.5</ele>
        <time>2021-05-23T07:50:54Z</time>
      </trkpt>
      <trkpt lat="48.8322" lon="2.9427">
        <ele>139.7</ele>
        <time>2021-05-23T07:51:10Z</time>
      </trkpt>
      <trkpt lat="48.83218" lon="2.94341">
        <ele>140.9</ele>
        <time>2021-05-23T07:51:26Z</time>
      </trkpt>
      <trkpt lat="48.83217" lon="2.94399">
        <ele>141.6</ele>
        <time>2021-05-23T07:51:40Z</time>
      </trkpt>
      <trkpt lat="48.83215" lon="2.94455">
        <ele>142.4</ele>
        <time>2021-05-23T07:51:54Z</time>
      </trkpt>
      <trkpt lat="48.83213" lon="2.9447">
        <ele>142.6</ele>
        <time>2021-05-23T07:51:58Z</time>
      </trkpt>
      <trkpt lat="48.8321" lon="2.94472">
        <ele>142.5</ele>
        <time>2021-05-23T07:51:59Z</time>
      </trkpt>
      <trkpt lat="48.83207" lon="2.94472">
        <ele>142.5</ele>
        <time>2021-05-23T07:52:00Z</time>
      </trkpt>
      <trkpt lat="48.83203" lon="2.94473">
        <ele>142.4</ele>
        <time>2021-05-23T07:52:01Z</time>
      </trkpt>
      <trkpt lat="48.832" lon="2.94473">
        <ele>142.3</ele>
        <time>2021-05-23T07:52:02Z</time>
      </trkpt>
      <trkpt lat="48.83197" lon="2.94473">
        <ele>142.2</ele>
        <time>2021-05-23T07:52:03Z</time>
      </trkpt>
      <trkpt lat="48.83145" lon="2.94484">
        <ele>141.1</ele>
        <time>2021-05-23T07:52:17Z</time>
      </trkpt>
      <trkpt lat="48.83073" lon="2.94505">
        <ele>139.8</ele>
        <time>2021-05-23T07:52:35Z</time>
      </trkpt>
      <trkpt lat="48.8299" lon="2.94525">
        <ele>137.9</ele>
        <time>2021-05-23T07:52:53Z</time>
      </trkpt>
      <trkpt lat="48.82951" lon="2.94533">
        <ele>136.6</ele>
        <time>2021-05-23T07:53:02Z</time>
      </trkpt>
      <trkpt lat="48.82946" lon="2.94535">
        <ele>136.5</ele>
        <time>2021-05-23T07:53:03Z</time>
      </trkpt>
      <trkpt lat="48.82918" lon="2.94548">
        <ele>135.6</ele>
        <time>2021-05-23T07:53:09Z</time>
      </trkpt>
      <trkpt lat="48.82851" lon="2.94577">
        <ele>132.8</ele>
        <time>2021-05-23T07:53:22Z</time>
      </trkpt>
      <trkpt lat="48.82763" lon="2.94572">
        <ele>129.4</ele>
        <time>2021-05-23T07:53:39Z</time>
      </trkpt>
      <trkpt lat="48.82666" lon="2.94561">
        <ele>127.5</ele>
        <time>2021-05-23T07:53:58Z</time>
      </trkpt>
      <trkpt lat="48.82651" lon="2.94558">
        <ele>127.3</ele>
        <time>2021-05-23T07:54:02Z</time>
      </trkpt>
      <trkpt lat="48.82649" lon="2.94561">
        <ele>127.3</ele>
        <time>2021-05-23T07:54:03Z</time>
      </trkpt>
      <trkpt lat="48.82647" lon="2.94564">
        <ele>127.4</ele>
        <time>2021-05-23T07:54:04Z</time>
      </trkpt>
      <trkpt lat="48.82642" lon="2.94615">
        <ele>128</ele>
        <time>2021-05-23T07:54:15Z</time>
      </trkpt>
      <trkpt lat="48.82644" lon="2.94644">
        <ele>128.3</ele>
        <time>2021-05-23T07:54:21Z</time>
      </trkpt>
      <trkpt lat="48.82643" lon="2.94649">
        <ele>128.3</ele>
        <time>2021-05-23T07:54:22Z</time>
      </trkpt>
      <trkpt lat="48.82658" lon="2.94738">
        <ele>128.7</ele>
        <time>2021-05-23T07:54:38Z</time>
      </trkpt>
      <trkpt lat="48.82686" lon="2.94786">
        <ele>129.5</ele>
        <time>2021-05-23T07:54:50Z</time>
      </trkpt>
      <trkpt lat="48.82739" lon="2.94851">
        <ele>130.3</ele>
        <time>2021-05-23T07:55:08Z</time>
      </trkpt>
      <trkpt lat="48.82787" lon="2.94914">
        <ele>129.5</ele>
        <time>2021-05-23T07:55:24Z</time>
      </trkpt>
      <trkpt lat="48.8279" lon="2.94918">
        <ele>129.4</ele>
        <time>2021-05-23T07:55:25Z</time>
      </trkpt>
      <trkpt lat="48.82793" lon="2.94922">
        <ele>129.4</ele>
        <time>2021-05-23T07:55:26Z</time>
      </trkpt>
      <trkpt lat="48.82814" lon="2.94948">
        <ele>128.9</ele>
        <time>2021-05-23T07:55:33Z</time>
      </trkpt>
      <trkpt lat="48.82823" lon="2.94968">
        <ele>128.6</ele>
        <time>2021-05-23T07:55:38Z</time>
      </trkpt>
      <trkpt lat="48.82822" lon="2.9497">
        <ele>128.5</ele>
        <time>2021-05-23T07:55:39Z</time>
      </trkpt>
      <trkpt lat="48.8282" lon="2.9497">
        <ele>128.4</ele>
        <time>2021-05-23T07:55:40Z</time>
      </trkpt>
      <trkpt lat="48.82818" lon="2.94971">
        <ele>128.4</ele>
        <time>2021-05-23T07:55:41Z</time>
      </trkpt>
      <trkpt lat="48.82815" lon="2.94971">
        <ele>128.3</ele>
        <time>2021-05-23T07:55:42Z</time>
      </trkpt>
      <trkpt lat="48.82812" lon="2.94973">
        <ele>128.2</ele>
        <time>2021-05-23T07:55:43Z</time>
      </trkpt>
      <trkpt lat="48.82773" lon="2.94991">
        <ele>126.9</ele>
        <time>2021-05-23T07:55:52Z</time>
      </trkpt>
      <trkpt lat="48.82769" lon="2.94994">
        <ele>126.6</ele>
        <time>2021-05-23T07:55:53Z</time>
      </trkpt>
      <trkpt lat="48.82764" lon="2.94999">
        <ele>126.4</ele>
        <time>2021-05-23T07:55:54Z</time>
      </trkpt>
      <trkpt lat="48.82761" lon="2.95004">
        <ele>126.1</ele>
        <time>2021-05-23T07:55:55Z</time>
      </trkpt>
      <trkpt lat="48.82757" lon="2.9501">
        <ele>125.8</ele>
        <time>2021-05-23T07:55:56Z</time>
      </trkpt>
      <trkpt lat="48.82754" lon="2.95017">
        <ele>125.5</ele>
        <time>2021-05-23T07:55:57Z</time>
      </trkpt>
      <trkpt lat="48.82752" lon="2.95026">
        <ele>125.1</ele>
        <time>2021-05-23T07:55:58Z</time>
      </trkpt>
      <trkpt lat="48.82751" lon="2.95034">
        <ele>124.8</ele>
        <time>2021-05-23T07:55:59Z</time>
      </trkpt>
      <trkpt lat="48.82751" lon="2.95043">
        <ele>124.5</ele>
        <time>2021-05-23T07:56:00Z</time>
      </trkpt>
      <trkpt lat="48.82753" lon="2.95052">
        <ele>124.2</ele>
        <time>2021-05-23T07:56:01Z</time>
      </trkpt>
      <trkpt lat="48.82756" lon="2.9506">
        <ele>124.1</ele>
        <time>2021-05-23T07:56:02Z</time>
      </trkpt>
      <trkpt lat="48.82759" lon="2.95069">
        <ele>123.9</ele>
        <time>2021-05-23T07:56:03Z</time>
      </trkpt>
      <trkpt lat="48.82818" lon="2.95213">
        <ele>119.6</ele>
        <time>2021-05-23T07:56:18Z</time>
      </trkpt>
      <trkpt lat="48.82843" lon="2.95349">
        <ele>112.8</ele>
        <time>2021-05-23T07:56:29Z</time>
      </trkpt>
      <trkpt lat="48.82867" lon="2.95571">
        <ele>98.6</ele>
        <time>2021-05-23T07:56:44Z</time>
      </trkpt>
      <trkpt lat="48.82882" lon="2.9572">
        <ele>93.8</ele>
        <time>2021-05-23T07:56:54Z</time>
      </trkpt>
      <trkpt lat="48.82882" lon="2.95728">
        <ele>93.5</ele>
        <time>2021-05-23T07:56:55Z</time>
      </trkpt>
      <trkpt lat="48.8288" lon="2.95732">
        <ele>93.1</ele>
        <time>2021-05-23T07:56:56Z</time>
      </trkpt>
      <trkpt lat="48.8288" lon="2.95736">
        <ele>92.9</ele>
        <time>2021-05-23T07:56:57Z</time>
      </trkpt>
      <trkpt lat="48.8288" lon="2.9574">
        <ele>92.7</ele>
        <time>2021-05-23T07:56:58Z</time>
      </trkpt>
      <trkpt lat="48.8288" lon="2.95744">
        <ele>92.8</ele>
        <time>2021-05-23T07:56:59Z</time>
      </trkpt>
      <trkpt lat="48.82882" lon="2.95747">
        <ele>93</ele>
        <time>2021-05-23T07:57:00Z</time>
      </trkpt>
      <trkpt lat="48.82883" lon="2.95749">
        <ele>93.2</ele>
        <time>2021-05-23T07:57:01Z</time>
      </trkpt>
      <trkpt lat="48.82885" lon="2.95751">
        <ele>93.4</ele>
        <time>2021-05-23T07:57:02Z</time>
      </trkpt>
      <trkpt lat="48.82885" lon="2.95752">
        <ele>93.5</ele>
        <time>2021-05-23T07:57:03Z</time>
      </trkpt>
      <trkpt lat="48.8289" lon="2.95759">
        <ele>94.2</ele>
        <time>2021-05-23T07:57:08Z</time>
      </trkpt>
      <trkpt lat="48.82891" lon="2.9576">
        <ele>94.4</ele>
        <time>2021-05-23T07:57:09Z</time>
      </trkpt>
      <trkpt lat="48.82906" lon="2.95765">
        <ele>97.2</ele>
        <time>2021-05-23T07:57:20Z</time>
      </trkpt>
      <trkpt lat="48.82909" lon="2.95767">
        <ele>97.8</ele>
        <time>2021-05-23T07:57:22Z</time>
      </trkpt>
      <trkpt lat="48.82911" lon="2.95767">
        <ele>98.2</ele>
        <time>2021-05-23T07:57:23Z</time>
      </trkpt>
      <trkpt lat="48.8292" lon="2.95767">
        <ele>100</ele>
        <time>2021-05-23T07:57:29Z</time>
      </trkpt>
      <trkpt lat="48.82933" lon="2.95777">
        <ele>101.7</ele>
        <time>2021-05-23T07:57:41Z</time>
      </trkpt>
      <trkpt lat="48.82936" lon="2.9578">
        <ele>102.3</ele>
        <time>2021-05-23T07:57:45Z</time>
      </trkpt>
      <trkpt lat="48.82939" lon="2.95783">
        <ele>102.6</ele>
        <time>2021-05-23T07:57:47Z</time>
      </trkpt>
      <trkpt lat="48.82949" lon="2.95795">
        <ele>103.7</ele>
        <time>2021-05-23T07:57:56Z</time>
      </trkpt>
      <trkpt lat="48.82952" lon="2.95799">
        <ele>104.1</ele>
        <time>2021-05-23T07:57:58Z</time>
      </trkpt>
      <trkpt lat="48.82964" lon="2.95816">
        <ele>105.6</ele>
        <time>2021-05-23T07:58:10Z</time>
      </trkpt>
      <trkpt lat="48.82968" lon="2.95819">
        <ele>106.1</ele>
        <time>2021-05-23T07:58:13Z</time>
      </trkpt>
      <trkpt lat="48.82969" lon="2.9582">
        <ele>106.2</ele>
        <time>2021-05-23T07:58:14Z</time>
      </trkpt>
      <trkpt lat="48.82973" lon="2.95823">
        <ele>106.8</ele>
        <time>2021-05-23T07:58:17Z</time>
      </trkpt>
      <trkpt lat="48.82988" lon="2.95834">
        <ele>109</ele>
        <time>2021-05-23T07:58:28Z</time>
      </trkpt>
      <trkpt lat="48.83008" lon="2.9584">
        <ele>112</ele>
        <time>2021-05-23T07:58:41Z</time>
      </trkpt>
      <trkpt lat="48.83024" lon="2.95842">
        <ele>114.3</ele>
        <time>2021-05-23T07:58:52Z</time>
      </trkpt>
      <trkpt lat="48.83048" lon="2.95844">
        <ele>117.5</ele>
        <time>2021-05-23T07:59:07Z</time>
      </trkpt>
      <trkpt lat="48.83054" lon="2.95844">
        <ele>118.3</ele>
        <time>2021-05-23T07:59:12Z</time>
      </trkpt>
      <trkpt lat="48.83075" lon="2.95842">
        <ele>121</ele>
        <time>2021-05-23T07:59:26Z</time>
      </trkpt>
      <trkpt lat="48.83094" lon="2.95837">
        <ele>123.1</ele>
        <time>2021-05-23T07:59:39Z</time>
      </trkpt>
      <trkpt lat="48.83114" lon="2.95838">
        <ele>125.1</ele>
        <time>2021-05-23T07:59:53Z</time>
      </trkpt>
      <trkpt lat="48.83136" lon="2.95837">
        <ele>127.1</ele>
        <time>2021-05-23T08:00:06Z</time>
      </trkpt>
      <trkpt lat="48.83159" lon="2.95837">
        <ele>129.3</ele>
        <time>2021-05-23T08:00:20Z</time>
      </trkpt>
      <trkpt lat="48.83171" lon="2.95837">
        <ele>130.3</ele>
        <time>2021-05-23T08:00:33Z</time>
      </trkpt>
      <trkpt lat="48.83172" lon="2.95836">
        <ele>130.3</ele>
        <time>2021-05-23T08:00:54Z</time>
      </trkpt>
      <trkpt lat="48.83173" lon="2.95834">
        <ele>130.3</ele>
        <time>2021-05-23T08:01:17Z</time>
      </trkpt>
      <trkpt lat="48.83173" lon="2.95833">
        <ele>130.3</ele>
        <time>2021-05-23T08:01:45Z</time>
      </trkpt>
      <trkpt lat="48.83173" lon="2.95834">
        <ele>130.3</ele>
        <time>2021-05-23T08:02:08Z</time>
      </trkpt>
      <trkpt lat="48.83173" lon="2.95835">
        <ele>130.3</ele>
        <time>2021-05-23T08:02:38Z</time>
      </trkpt>
      <trkpt lat="48.83174" lon="2.95835">
        <ele>130.4</ele>
        <time>2021-05-23T08:03:01Z</time>
      </trkpt>
      <trkpt lat="48.83174" lon="2.95836">
        <ele>130.4</ele>
        <time>2021-05-23T08:03:28Z</time>
      </trkpt>
      <trkpt lat="48.83174" lon="2.95835">
        <ele>130.4</ele>
        <time>2021-05-23T08:03:52Z</time>
      </trkpt>
      <trkpt lat="48.83174" lon="2.95835">
        <ele>130.4</ele>
        <time>2021-05-23T08:03:55Z</time>
      </trkpt>
      <trkpt lat="48.83175" lon="2.95836">
        <ele>130.5</ele>
        <time>2021-05-23T08:03:56Z</time>
      </trkpt>
      <trkpt lat="48.83178" lon="2.95838">
        <ele>130.6</ele>
        <time>2021-05-23T08:03:58Z</time>
      </trkpt>
      <trkpt lat="48.83179" lon="2.95837">
        <ele>130.7</ele>
        <time>2021-05-23T08:03:59Z</time>
      </trkpt>
      <trkpt lat="48.83181" lon="2.95837">
        <ele>130.8</ele>
        <time>2021-05-23T08:04:00Z</time>
      </trkpt>
      <trkpt lat="48.83194" lon="2.95841">
        <ele>131.5</ele>
        <time>2021-05-23T08:04:08Z</time>
      </trkpt>
      <trkpt lat="48.83195" lon="2.95843">
        <ele>131.6</ele>
        <time>2021-05-23T08:04:09Z</time>
      </trkpt>
      <trkpt lat="48.83195" lon="2.95846">
        <ele>131.7</ele>
        <time>2021-05-23T08:04:10Z</time>
      </trkpt>
      <trkpt lat="48.83195" lon="2.95849">
        <ele>131.7</ele>
        <time>2021-05-23T08:04:11Z</time>
      </trkpt>
      <trkpt lat="48.83195" lon="2.95852">
        <ele>131.8</ele>
        <time>2021-05-23T08:04:12Z</time>
      </trkpt>
      <trkpt lat="48.83194" lon="2.95855">
        <ele>131.8</ele>
        <time>2021-05-23T08:04:13Z</time>
      </trkpt>
      <trkpt lat="48.83183" lon="2.95923">
        <ele>132.9</ele>
        <time>2021-05-23T08:04:29Z</time>
      </trkpt>
      <trkpt lat="48.83171" lon="2.95992">
        <ele>133.1</ele>
        <time>2021-05-23T08:04:43Z</time>
      </trkpt>
      <trkpt lat="48.83144" lon="2.96054">
        <ele>131.5</ele>
        <time>2021-05-23T08:04:55Z</time>
      </trkpt>
      <trkpt lat="48.83143" lon="2.9606">
        <ele>131.5</ele>
        <time>2021-05-23T08:04:56Z</time>
      </trkpt>
      <trkpt lat="48.83139" lon="2.96149">
        <ele>130.5</ele>
        <time>2021-05-23T08:05:09Z</time>
      </trkpt>
      <trkpt lat="48.83132" lon="2.96242">
        <ele>128.1</ele>
        <time>2021-05-23T08:05:22Z</time>
      </trkpt>
      <trkpt lat="48.8313" lon="2.9625">
        <ele>127.8</ele>
        <time>2021-05-23T08:05:23Z</time>
      </trkpt>
      <trkpt lat="48.8312" lon="2.96306">
        <ele>126</ele>
        <time>2021-05-23T08:05:30Z</time>
      </trkpt>
      <trkpt lat="48.83117" lon="2.96313">
        <ele>125.6</ele>
        <time>2021-05-23T08:05:31Z</time>
      </trkpt>
      <trkpt lat="48.83111" lon="2.96329">
        <ele>124.6</ele>
        <time>2021-05-23T08:05:33Z</time>
      </trkpt>
      <trkpt lat="48.83108" lon="2.96337">
        <ele>124.3</ele>
        <time>2021-05-23T08:05:34Z</time>
      </trkpt>
      <trkpt lat="48.83107" lon="2.96345">
        <ele>124</ele>
        <time>2021-05-23T08:05:35Z</time>
      </trkpt>
      <trkpt lat="48.83106" lon="2.96352">
        <ele>123.9</ele>
        <time>2021-05-23T08:05:36Z</time>
      </trkpt>
      <trkpt lat="48.83107" lon="2.9636">
        <ele>123.9</ele>
        <time>2021-05-23T08:05:37Z</time>
      </trkpt>
      <trkpt lat="48.83108" lon="2.96367">
        <ele>124</ele>
        <time>2021-05-23T08:05:38Z</time>
      </trkpt>
      <trkpt lat="48.83109" lon="2.96375">
        <ele>124</ele>
        <time>2021-05-23T08:05:39Z</time>
      </trkpt>
      <trkpt lat="48.8311" lon="2.96406">
        <ele>124</ele>
        <time>2021-05-23T08:05:43Z</time>
      </trkpt>
      <trkpt lat="48.83109" lon="2.96431">
        <ele>123.4</ele>
        <time>2021-05-23T08:05:46Z</time>
      </trkpt>
      <trkpt lat="48.83109" lon="2.9644">
        <ele>123.1</ele>
        <time>2021-05-23T08:05:47Z</time>
      </trkpt>
      <trkpt lat="48.83109" lon="2.96449">
        <ele>122.8</ele>
        <time>2021-05-23T08:05:48Z</time>
      </trkpt>
      <trkpt lat="48.83108" lon="2.96457">
        <ele>122.6</ele>
        <time>2021-05-23T08:05:49Z</time>
      </trkpt>
      <trkpt lat="48.83108" lon="2.96465">
        <ele>122.4</ele>
        <time>2021-05-23T08:05:50Z</time>
      </trkpt>
      <trkpt lat="48.83108" lon="2.96481">
        <ele>121.9</ele>
        <time>2021-05-23T08:05:52Z</time>
      </trkpt>
      <trkpt lat="48.83105" lon="2.96542">
        <ele>122</ele>
        <time>2021-05-23T08:06:02Z</time>
      </trkpt>
      <trkpt lat="48.83101" lon="2.96561">
        <ele>122</ele>
        <time>2021-05-23T08:06:05Z</time>
      </trkpt>
      <trkpt lat="48.83099" lon="2.96567">
        <ele>122</ele>
        <time>2021-05-23T08:06:06Z</time>
      </trkpt>
      <trkpt lat="48.83095" lon="2.96581">
        <ele>121.9</ele>
        <time>2021-05-23T08:06:08Z</time>
      </trkpt>
      <trkpt lat="48.83091" lon="2.96594">
        <ele>121.9</ele>
        <time>2021-05-23T08:06:10Z</time>
      </trkpt>
      <trkpt lat="48.83091" lon="2.966">
        <ele>122</ele>
        <time>2021-05-23T08:06:11Z</time>
      </trkpt>
      <trkpt lat="48.83091" lon="2.96605">
        <ele>122.2</ele>
        <time>2021-05-23T08:06:12Z</time>
      </trkpt>
      <trkpt lat="48.83092" lon="2.9661">
        <ele>122.3</ele>
        <time>2021-05-23T08:06:13Z</time>
      </trkpt>
      <trkpt lat="48.83093" lon="2.96613">
        <ele>122.5</ele>
        <time>2021-05-23T08:06:15Z</time>
      </trkpt>
      <trkpt lat="48.83104" lon="2.96631">
        <ele>123.6</ele>
        <time>2021-05-23T08:06:23Z</time>
      </trkpt>
      <trkpt lat="48.83106" lon="2.96638">
        <ele>123.8</ele>
        <time>2021-05-23T08:06:25Z</time>
      </trkpt>
      <trkpt lat="48.83105" lon="2.96642">
        <ele>123.9</ele>
        <time>2021-05-23T08:06:26Z</time>
      </trkpt>
      <trkpt lat="48.83106" lon="2.96647">
        <ele>124</ele>
        <time>2021-05-23T08:06:27Z</time>
      </trkpt>
      <trkpt lat="48.83106" lon="2.96658">
        <ele>124.2</ele>
        <time>2021-05-23T08:06:30Z</time>
      </trkpt>
      <trkpt lat="48.8311" lon="2.96705">
        <ele>125.2</ele>
        <time>2021-05-23T08:06:41Z</time>
      </trkpt>
      <trkpt lat="48.83117" lon="2.96768">
        <ele>126.9</ele>
        <time>2021-05-23T08:06:54Z</time>
      </trkpt>
      <trkpt lat="48.83115" lon="2.96774">
        <ele>126.9</ele>
        <time>2021-05-23T08:06:55Z</time>
      </trkpt>
      <trkpt lat="48.83107" lon="2.96846">
        <ele>128.2</ele>
        <time>2021-05-23T08:07:07Z</time>
      </trkpt>
      <trkpt lat="48.83109" lon="2.96872">
        <ele>128.4</ele>
        <time>2021-05-23T08:07:11Z</time>
      </trkpt>
      <trkpt lat="48.8311" lon="2.96884">
        <ele>128.5</ele>
        <time>2021-05-23T08:07:13Z</time>
      </trkpt>
      <trkpt lat="48.8311" lon="2.9689">
        <ele>128.5</ele>
        <time>2021-05-23T08:07:14Z</time>
      </trkpt>
      <trkpt lat="48.83116" lon="2.9694">
        <ele>129.1</ele>
        <time>2021-05-23T08:07:22Z</time>
      </trkpt>
      <trkpt lat="48.83117" lon="2.96947">
        <ele>129.2</ele>
        <time>2021-05-23T08:07:23Z</time>
      </trkpt>
      <trkpt lat="48.83119" lon="2.9696">
        <ele>129.4</ele>
        <time>2021-05-23T08:07:25Z</time>
      </trkpt>
      <trkpt lat="48.83122" lon="2.97001">
        <ele>129.8</ele>
        <time>2021-05-23T08:07:32Z</time>
      </trkpt>
      <trkpt lat="48.83121" lon="2.97007">
        <ele>129.6</ele>
        <time>2021-05-23T08:07:33Z</time>
      </trkpt>
      <trkpt lat="48.83099" lon="2.971">
        <ele>124.6</ele>
        <time>2021-05-23T08:07:44Z</time>
      </trkpt>
      <trkpt lat="48.83096" lon="2.97107">
        <ele>124</ele>
        <time>2021-05-23T08:07:45Z</time>
      </trkpt>
      <trkpt lat="48.83093" lon="2.97114">
        <ele>123.3</ele>
        <time>2021-05-23T08:07:46Z</time>
      </trkpt>
      <trkpt lat="48.83089" lon="2.9712">
        <ele>122.7</ele>
        <time>2021-05-23T08:07:47Z</time>
      </trkpt>
      <trkpt lat="48.83085" lon="2.97124">
        <ele>122.2</ele>
        <time>2021-05-23T08:07:48Z</time>
      </trkpt>
      <trkpt lat="48.83081" lon="2.97127">
        <ele>121.7</ele>
        <time>2021-05-23T08:07:49Z</time>
      </trkpt>
      <trkpt lat="48.83078" lon="2.97129">
        <ele>121.1</ele>
        <time>2021-05-23T08:07:50Z</time>
      </trkpt>
      <trkpt lat="48.83074" lon="2.97131">
        <ele>120.6</ele>
        <time>2021-05-23T08:07:51Z</time>
      </trkpt>
      <trkpt lat="48.83058" lon="2.97149">
        <ele>117.9</ele>
        <time>2021-05-23T08:07:59Z</time>
      </trkpt>
      <trkpt lat="48.83035" lon="2.9717">
        <ele>114.2</ele>
        <time>2021-05-23T08:08:08Z</time>
      </trkpt>
      <trkpt lat="48.83033" lon="2.97171">
        <ele>113.9</ele>
        <time>2021-05-23T08:08:09Z</time>
      </trkpt>
      <trkpt lat="48.83011" lon="2.9719">
        <ele>111.1</ele>
        <time>2021-05-23T08:08:19Z</time>
      </trkpt>
      <trkpt lat="48.83007" lon="2.97192">
        <ele>110.5</ele>
        <time>2021-05-23T08:08:20Z</time>
      </trkpt>
      <trkpt lat="48.83002" lon="2.97195">
        <ele>110</ele>
        <time>2021-05-23T08:08:21Z</time>
      </trkpt>
      <trkpt lat="48.82998" lon="2.97199">
        <ele>109.4</ele>
        <time>2021-05-23T08:08:22Z</time>
      </trkpt>
      <trkpt lat="48.82975" lon="2.97208">
        <ele>107.5</ele>
        <time>2021-05-23T08:08:30Z</time>
      </trkpt>
      <trkpt lat="48.82973" lon="2.9721">
        <ele>107.4</ele>
        <time>2021-05-23T08:08:42Z</time>
      </trkpt>
      <trkpt lat="48.82969" lon="2.97211">
        <ele>107.1</ele>
        <time>2021-05-23T08:08:57Z</time>
      </trkpt>
      <trkpt lat="48.82969" lon="2.97211">
        <ele>107.1</ele>
        <time>2021-05-23T08:08:59Z</time>
      </trkpt>
      <trkpt lat="48.82968" lon="2.97211">
        <ele>107</ele>
        <time>2021-05-23T08:09:00Z</time>
      </trkpt>
      <trkpt lat="48.82966" lon="2.97211">
        <ele>106.8</ele>
        <time>2021-05-23T08:09:01Z</time>
      </trkpt>
      <trkpt lat="48.82964" lon="2.97211">
        <ele>106.6</ele>
        <time>2021-05-23T08:09:02Z</time>
      </trkpt>
      <trkpt lat="48.82961" lon="2.97212">
        <ele>106.4</ele>
        <time>2021-05-23T08:09:03Z</time>
      </trkpt>
      <trkpt lat="48.82958" lon="2.97213">
        <ele>106.2</ele>
        <time>2021-05-23T08:09:04Z</time>
      </trkpt>
      <trkpt lat="48.8293" lon="2.97215">
        <ele>103.8</ele>
        <time>2021-05-23T08:09:17Z</time>
      </trkpt>
      <trkpt lat="48.829" lon="2.97225">
        <ele>101</ele>
        <time>2021-05-23T08:09:27Z</time>
      </trkpt>
      <trkpt lat="48.82892" lon="2.97231">
        <ele>100.2</ele>
        <time>2021-05-23T08:09:29Z</time>
      </trkpt>
      <trkpt lat="48.82888" lon="2.97234">
        <ele>99.9</ele>
        <time>2021-05-23T08:09:30Z</time>
      </trkpt>
      <trkpt lat="48.82886" lon="2.97238">
        <ele>99.6</ele>
        <time>2021-05-23T08:09:31Z</time>
      </trkpt>
      <trkpt lat="48.82883" lon="2.97242">
        <ele>99.3</ele>
        <time>2021-05-23T08:09:32Z</time>
      </trkpt>
      <trkpt lat="48.82882" lon="2.97245">
        <ele>99.1</ele>
        <time>2021-05-23T08:09:33Z</time>
      </trkpt>
      <trkpt lat="48.82881" lon="2.97248">
        <ele>99</ele>
        <time>2021-05-23T08:09:34Z</time>
      </trkpt>
      <trkpt lat="48.82877" lon="2.97251">
        <ele>98.7</ele>
        <time>2021-05-23T08:09:47Z</time>
      </trkpt>
      <trkpt lat="48.82872" lon="2.97266">
        <ele>98</ele>
        <time>2021-05-23T08:10:02Z</time>
      </trkpt>
      <trkpt lat="48.82871" lon="2.97268">
        <ele>97.9</ele>
        <time>2021-05-23T08:10:03Z</time>
      </trkpt>
      <trkpt lat="48.82871" lon="2.9727">
        <ele>97.8</ele>
        <time>2021-05-23T08:10:04Z</time>
      </trkpt>
      <trkpt lat="48.8287" lon="2.97272">
        <ele>97.7</ele>
        <time>2021-05-23T08:10:05Z</time>
      </trkpt>
      <trkpt lat="48.82868" lon="2.97278">
        <ele>97.4</ele>
        <time>2021-05-23T08:10:09Z</time>
      </trkpt>
      <trkpt lat="48.82868" lon="2.9728">
        <ele>97.3</ele>
        <time>2021-05-23T08:10:10Z</time>
      </trkpt>
      <trkpt lat="48.82867" lon="2.97283">
        <ele>97.2</ele>
        <time>2021-05-23T08:10:11Z</time>
      </trkpt>
      <trkpt lat="48.82865" lon="2.97287">
        <ele>97</ele>
        <time>2021-05-23T08:10:12Z</time>
      </trkpt>
      <trkpt lat="48.82863" lon="2.97292">
        <ele>96.7</ele>
        <time>2021-05-23T08:10:13Z</time>
      </trkpt>
      <trkpt lat="48.82862" lon="2.97297">
        <ele>96.4</ele>
        <time>2021-05-23T08:10:14Z</time>
      </trkpt>
      <trkpt lat="48.8284" lon="2.97346">
        <ele>94</ele>
        <time>2021-05-23T08:10:25Z</time>
      </trkpt>
      <trkpt lat="48.82837" lon="2.9735">
        <ele>93.8</ele>
        <time>2021-05-23T08:10:26Z</time>
      </trkpt>
      <trkpt lat="48.82834" lon="2.97356">
        <ele>93.6</ele>
        <time>2021-05-23T08:10:27Z</time>
      </trkpt>
      <trkpt lat="48.82827" lon="2.97367">
        <ele>92.9</ele>
        <time>2021-05-23T08:10:29Z</time>
      </trkpt>
      <trkpt lat="48.82824" lon="2.97373">
        <ele>92.6</ele>
        <time>2021-05-23T08:10:30Z</time>
      </trkpt>
      <trkpt lat="48.82821" lon="2.97378">
        <ele>92.3</ele>
        <time>2021-05-23T08:10:31Z</time>
      </trkpt>
      <trkpt lat="48.82819" lon="2.97381">
        <ele>92</ele>
        <time>2021-05-23T08:10:32Z</time>
      </trkpt>
      <trkpt lat="48.82817" lon="2.97383">
        <ele>91.7</ele>
        <time>2021-05-23T08:10:33Z</time>
      </trkpt>
      <trkpt lat="48.82815" lon="2.97384">
        <ele>91.5</ele>
        <time>2021-05-23T08:10:34Z</time>
      </trkpt>
      <trkpt lat="48.82813" lon="2.97384">
        <ele>91.1</ele>
        <time>2021-05-23T08:10:35Z</time>
      </trkpt>
      <trkpt lat="48.82792" lon="2.97371">
        <ele>87.7</ele>
        <time>2021-05-23T08:10:42Z</time>
      </trkpt>
      <trkpt lat="48.82789" lon="2.97368">
        <ele>87.1</ele>
        <time>2021-05-23T08:10:43Z</time>
      </trkpt>
      <trkpt lat="48.82785" lon="2.97363">
        <ele>86.4</ele>
        <time>2021-05-23T08:10:44Z</time>
      </trkpt>
      <trkpt lat="48.82781" lon="2.9736">
        <ele>85.7</ele>
        <time>2021-05-23T08:10:45Z</time>
      </trkpt>
      <trkpt lat="48.82777" lon="2.97359">
        <ele>85</ele>
        <time>2021-05-23T08:10:46Z</time>
      </trkpt>
      <trkpt lat="48.82773" lon="2.9736">
        <ele>84.4</ele>
        <time>2021-05-23T08:10:47Z</time>
      </trkpt>
      <trkpt lat="48.82769" lon="2.97362">
        <ele>83.9</ele>
        <time>2021-05-23T08:10:48Z</time>
      </trkpt>
      <trkpt lat="48.82764" lon="2.97365">
        <ele>83.2</ele>
        <time>2021-05-23T08:10:49Z</time>
      </trkpt>
      <trkpt lat="48.82759" lon="2.97368">
        <ele>82.6</ele>
        <time>2021-05-23T08:10:50Z</time>
      </trkpt>
      <trkpt lat="48.82742" lon="2.9738">
        <ele>81.3</ele>
        <time>2021-05-23T08:10:53Z</time>
      </trkpt>
      <trkpt lat="48.82676" lon="2.9743">
        <ele>80.4</ele>
        <time>2021-05-23T08:11:03Z</time>
      </trkpt>
      <trkpt lat="48.82665" lon="2.97442">
        <ele>80.8</ele>
        <time>2021-05-23T08:11:05Z</time>
      </trkpt>
      <trkpt lat="48.82657" lon="2.97454">
        <ele>81.6</ele>
        <time>2021-05-23T08:11:07Z</time>
      </trkpt>
      <trkpt lat="48.82653" lon="2.9746">
        <ele>82</ele>
        <time>2021-05-23T08:11:08Z</time>
      </trkpt>
      <trkpt lat="48.82651" lon="2.97465">
        <ele>82.4</ele>
        <time>2021-05-23T08:11:09Z</time>
      </trkpt>
      <trkpt lat="48.82649" lon="2.97469">
        <ele>82.6</ele>
        <time>2021-05-23T08:11:10Z</time>
      </trkpt>
      <trkpt lat="48.82647" lon="2.97472">
        <ele>82.8</ele>
        <time>2021-05-23T08:11:11Z</time>
      </trkpt>
      <trkpt lat="48.82624" lon="2.97504">
        <ele>84.8</ele>
        <time>2021-05-23T08:11:23Z</time>
      </trkpt>
      <trkpt lat="48.82607" lon="2.97528">
        <ele>86.7</ele>
        <time>2021-05-23T08:11:33Z</time>
      </trkpt>
      <trkpt lat="48.82582" lon="2.9757">
        <ele>89.9</ele>
        <time>2021-05-23T08:11:46Z</time>
      </trkpt>
      <trkpt lat="48.82564" lon="2.97582">
        <ele>91.2</ele>
        <time>2021-05-23T08:11:54Z</time>
      </trkpt>
      <trkpt lat="48.82563" lon="2.97581">
        <ele>91</ele>
        <time>2021-05-23T08:11:55Z</time>
      </trkpt>
      <trkpt lat="48.82562" lon="2.97579">
        <ele>90.9</ele>
        <time>2021-05-23T08:11:56Z</time>
      </trkpt>
      <trkpt lat="48.8256" lon="2.97578">
        <ele>90.9</ele>
        <time>2021-05-23T08:11:57Z</time>
      </trkpt>
      <trkpt lat="48.82558" lon="2.97578">
        <ele>90.9</ele>
        <time>2021-05-23T08:11:58Z</time>
      </trkpt>
      <trkpt lat="48.82555" lon="2.97578">
        <ele>90.9</ele>
        <time>2021-05-23T08:11:59Z</time>
      </trkpt>
      <trkpt lat="48.82552" lon="2.97579">
        <ele>91</ele>
        <time>2021-05-23T08:12:00Z</time>
      </trkpt>
      <trkpt lat="48.82549" lon="2.97579">
        <ele>91.1</ele>
        <time>2021-05-23T08:12:01Z</time>
      </trkpt>
      <trkpt lat="48.82517" lon="2.97581">
        <ele>91.6</ele>
        <time>2021-05-23T08:12:11Z</time>
      </trkpt>
      <trkpt lat="48.82503" lon="2.9757">
        <ele>91.1</ele>
        <time>2021-05-23T08:12:15Z</time>
      </trkpt>
      <trkpt lat="48.82482" lon="2.97559">
        <ele>91</ele>
        <time>2021-05-23T08:12:20Z</time>
      </trkpt>
      <trkpt lat="48.82477" lon="2.97559">
        <ele>91.1</ele>
        <time>2021-05-23T08:12:21Z</time>
      </trkpt>
      <trkpt lat="48.82473" lon="2.97558">
        <ele>91.1</ele>
        <time>2021-05-23T08:12:22Z</time>
      </trkpt>
      <trkpt lat="48.82469" lon="2.97556">
        <ele>91.1</ele>
        <time>2021-05-23T08:12:23Z</time>
      </trkpt>
      <trkpt lat="48.82466" lon="2.97553">
        <ele>91</ele>
        <time>2021-05-23T08:12:24Z</time>
      </trkpt>
      <trkpt lat="48.82462" lon="2.97549">
        <ele>90.9</ele>
        <time>2021-05-23T08:12:25Z</time>
      </trkpt>
      <trkpt lat="48.82436" lon="2.97522">
        <ele>89.9</ele>
        <time>2021-05-23T08:12:32Z</time>
      </trkpt>
      <trkpt lat="48.82425" lon="2.97512">
        <ele>89.5</ele>
        <time>2021-05-23T08:12:35Z</time>
      </trkpt>
      <trkpt lat="48.82403" lon="2.97496">
        <ele>88.9</ele>
        <time>2021-05-23T08:12:41Z</time>
      </trkpt>
      <trkpt lat="48.82369" lon="2.97476">
        <ele>88.3</ele>
        <time>2021-05-23T08:12:49Z</time>
      </trkpt>
      <trkpt lat="48.82335" lon="2.9746">
        <ele>88.1</ele>
        <time>2021-05-23T08:12:58Z</time>
      </trkpt>
      <trkpt lat="48.82317" lon="2.97437">
        <ele>88.1</ele>
        <time>2021-05-23T08:13:03Z</time>
      </trkpt>
      <trkpt lat="48.82314" lon="2.97432">
        <ele>88.1</ele>
        <time>2021-05-23T08:13:04Z</time>
      </trkpt>
      <trkpt lat="48.82309" lon="2.97428">
        <ele>88.3</ele>
        <time>2021-05-23T08:13:05Z</time>
      </trkpt>
      <trkpt lat="48.82296" lon="2.97417">
        <ele>88.7</ele>
        <time>2021-05-23T08:13:08Z</time>
      </trkpt>
      <trkpt lat="48.8227" lon="2.97384">
        <ele>89</ele>
        <time>2021-05-23T08:13:16Z</time>
      </trkpt>
      <trkpt lat="48.82268" lon="2.9738">
        <ele>88.9</ele>
        <time>2021-05-23T08:13:17Z</time>
      </trkpt>
      <trkpt lat="48.82236" lon="2.97347">
        <ele>89.5</ele>
        <time>2021-05-23T08:13:24Z</time>
      </trkpt>
      <trkpt lat="48.82218" lon="2.97323">
        <ele>89.3</ele>
        <time>2021-05-23T08:13:29Z</time>
      </trkpt>
      <trkpt lat="48.82213" lon="2.97318">
        <ele>89.4</ele>
        <time>2021-05-23T08:13:30Z</time>
      </trkpt>
      <trkpt lat="48.82204" lon="2.9731">
        <ele>89.6</ele>
        <time>2021-05-23T08:13:32Z</time>
      </trkpt>
      <trkpt lat="48.822" lon="2.97305">
        <ele>89.6</ele>
        <time>2021-05-23T08:13:33Z</time>
      </trkpt>
      <trkpt lat="48.82195" lon="2.97301">
        <ele>89.7</ele>
        <time>2021-05-23T08:13:34Z</time>
      </trkpt>
      <trkpt lat="48.8219" lon="2.97297">
        <ele>89.9</ele>
        <time>2021-05-23T08:13:35Z</time>
      </trkpt>
      <trkpt lat="48.82186" lon="2.97293">
        <ele>90.1</ele>
        <time>2021-05-23T08:13:36Z</time>
      </trkpt>
      <trkpt lat="48.82182" lon="2.97289">
        <ele>90.2</ele>
        <time>2021-05-23T08:13:37Z</time>
      </trkpt>
      <trkpt lat="48.82177" lon="2.97286">
        <ele>90.4</ele>
        <time>2021-05-23T08:13:38Z</time>
      </trkpt>
      <trkpt lat="48.8214" lon="2.97256">
        <ele>92.1</ele>
        <time>2021-05-23T08:13:46Z</time>
      </trkpt>
      <trkpt lat="48.82107" lon="2.97227">
        <ele>92.5</ele>
        <time>2021-05-23T08:13:55Z</time>
      </trkpt>
      <trkpt lat="48.82072" lon="2.97206">
        <ele>92.8</ele>
        <time>2021-05-23T08:14:05Z</time>
      </trkpt>
      <trkpt lat="48.82038" lon="2.97174">
        <ele>91.7</ele>
        <time>2021-05-23T08:14:15Z</time>
      </trkpt>
      <trkpt lat="48.82003" lon="2.97138">
        <ele>90.4</ele>
        <time>2021-05-23T08:14:26Z</time>
      </trkpt>
      <trkpt lat="48.81953" lon="2.97108">
        <ele>89.9</ele>
        <time>2021-05-23T08:14:38Z</time>
      </trkpt>
      <trkpt lat="48.81948" lon="2.97107">
        <ele>90</ele>
        <time>2021-05-23T08:14:39Z</time>
      </trkpt>
      <trkpt lat="48.81923" lon="2.971">
        <ele>90.6</ele>
        <time>2021-05-23T08:14:44Z</time>
      </trkpt>
      <trkpt lat="48.81906" lon="2.97096">
        <ele>90.8</ele>
        <time>2021-05-23T08:14:48Z</time>
      </trkpt>
      <trkpt lat="48.81903" lon="2.97095">
        <ele>90.8</ele>
        <time>2021-05-23T08:14:49Z</time>
      </trkpt>
      <trkpt lat="48.81901" lon="2.97094">
        <ele>90.8</ele>
        <time>2021-05-23T08:14:50Z</time>
      </trkpt>
      <trkpt lat="48.81898" lon="2.97092">
        <ele>90.7</ele>
        <time>2021-05-23T08:14:51Z</time>
      </trkpt>
      <trkpt lat="48.81894" lon="2.97091">
        <ele>90.7</ele>
        <time>2021-05-23T08:14:52Z</time>
      </trkpt>
      <trkpt lat="48.81891" lon="2.9709">
        <ele>90.7</ele>
        <time>2021-05-23T08:14:53Z</time>
      </trkpt>
      <trkpt lat="48.81888" lon="2.97086">
        <ele>90.5</ele>
        <time>2021-05-23T08:14:54Z</time>
      </trkpt>
      <trkpt lat="48.81886" lon="2.97082">
        <ele>90.3</ele>
        <time>2021-05-23T08:14:55Z</time>
      </trkpt>
      <trkpt lat="48.81875" lon="2.97059">
        <ele>88.9</ele>
        <time>2021-05-23T08:14:59Z</time>
      </trkpt>
      <trkpt lat="48.81868" lon="2.97039">
        <ele>87.6</ele>
        <time>2021-05-23T08:15:02Z</time>
      </trkpt>
      <trkpt lat="48.81866" lon="2.97032">
        <ele>87.1</ele>
        <time>2021-05-23T08:15:03Z</time>
      </trkpt>
      <trkpt lat="48.81864" lon="2.97024">
        <ele>86.6</ele>
        <time>2021-05-23T08:15:04Z</time>
      </trkpt>
      <trkpt lat="48.81863" lon="2.97017">
        <ele>86.1</ele>
        <time>2021-05-23T08:15:05Z</time>
      </trkpt>
      <trkpt lat="48.81861" lon="2.97009">
        <ele>85.6</ele>
        <time>2021-05-23T08:15:06Z</time>
      </trkpt>
      <trkpt lat="48.81854" lon="2.96989">
        <ele>84</ele>
        <time>2021-05-23T08:15:09Z</time>
      </trkpt>
      <trkpt lat="48.8185" lon="2.96983">
        <ele>83.6</ele>
        <time>2021-05-23T08:15:10Z</time>
      </trkpt>
      <trkpt lat="48.81841" lon="2.96972">
        <ele>82.9</ele>
        <time>2021-05-23T08:15:12Z</time>
      </trkpt>
      <trkpt lat="48.81837" lon="2.96968">
        <ele>82.6</ele>
        <time>2021-05-23T08:15:13Z</time>
      </trkpt>
      <trkpt lat="48.81833" lon="2.96965">
        <ele>82.5</ele>
        <time>2021-05-23T08:15:14Z</time>
      </trkpt>
      <trkpt lat="48.81828" lon="2.96963">
        <ele>82.5</ele>
        <time>2021-05-23T08:15:15Z</time>
      </trkpt>
      <trkpt lat="48.81823" lon="2.96961">
        <ele>82.5</ele>
        <time>2021-05-23T08:15:16Z</time>
      </trkpt>
      <trkpt lat="48.81818" lon="2.9696">
        <ele>82.6</ele>
        <time>2021-05-23T08:15:17Z</time>
      </trkpt>
      <trkpt lat="48.81794" lon="2.96955">
        <ele>83</ele>
        <time>2021-05-23T08:15:22Z</time>
      </trkpt>
      <trkpt lat="48.81789" lon="2.96953">
        <ele>83</ele>
        <time>2021-05-23T08:15:23Z</time>
      </trkpt>
      <trkpt lat="48.81784" lon="2.96952">
        <ele>83.1</ele>
        <time>2021-05-23T08:15:24Z</time>
      </trkpt>
      <trkpt lat="48.81775" lon="2.96948">
        <ele>83.1</ele>
        <time>2021-05-23T08:15:26Z</time>
      </trkpt>
      <trkpt lat="48.81772" lon="2.96946">
        <ele>83.1</ele>
        <time>2021-05-23T08:15:27Z</time>
      </trkpt>
      <trkpt lat="48.8174" lon="2.9693">
        <ele>83</ele>
        <time>2021-05-23T08:15:36Z</time>
      </trkpt>
      <trkpt lat="48.81717" lon="2.96923">
        <ele>83.2</ele>
        <time>2021-05-23T08:15:41Z</time>
      </trkpt>
      <trkpt lat="48.81712" lon="2.96924">
        <ele>83.4</ele>
        <time>2021-05-23T08:15:42Z</time>
      </trkpt>
      <trkpt lat="48.81664" lon="2.96925">
        <ele>84.5</ele>
        <time>2021-05-23T08:15:53Z</time>
      </trkpt>
      <trkpt lat="48.81646" lon="2.96924">
        <ele>84.7</ele>
        <time>2021-05-23T08:15:57Z</time>
      </trkpt>
      <trkpt lat="48.81591" lon="2.96936">
        <ele>86.3</ele>
        <time>2021-05-23T08:16:09Z</time>
      </trkpt>
      <trkpt lat="48.81586" lon="2.96937">
        <ele>86.5</ele>
        <time>2021-05-23T08:16:10Z</time>
      </trkpt>
      <trkpt lat="48.81581" lon="2.96937">
        <ele>86.5</ele>
        <time>2021-05-23T08:16:11Z</time>
      </trkpt>
      <trkpt lat="48.81576" lon="2.96935">
        <ele>86.4</ele>
        <time>2021-05-23T08:16:12Z</time>
      </trkpt>
      <trkpt lat="48.8157" lon="2.96932">
        <ele>86.3</ele>
        <time>2021-05-23T08:16:13Z</time>
      </trkpt>
      <trkpt lat="48.81565" lon="2.9693">
        <ele>86.1</ele>
        <time>2021-05-23T08:16:14Z</time>
      </trkpt>
      <trkpt lat="48.81494" lon="2.96896">
        <ele>83.9</ele>
        <time>2021-05-23T08:16:26Z</time>
      </trkpt>
      <trkpt lat="48.81463" lon="2.96877">
        <ele>82.1</ele>
        <time>2021-05-23T08:16:31Z</time>
      </trkpt>
      <trkpt lat="48.81424" lon="2.96856">
        <ele>81.4</ele>
        <time>2021-05-23T08:16:37Z</time>
      </trkpt>
      <trkpt lat="48.81418" lon="2.96854">
        <ele>81.5</ele>
        <time>2021-05-23T08:16:38Z</time>
      </trkpt>
      <trkpt lat="48.81412" lon="2.96851">
        <ele>81.4</ele>
        <time>2021-05-23T08:16:39Z</time>
      </trkpt>
      <trkpt lat="48.81406" lon="2.96849">
        <ele>81.3</ele>
        <time>2021-05-23T08:16:40Z</time>
      </trkpt>
      <trkpt lat="48.81401" lon="2.96846">
        <ele>81.2</ele>
        <time>2021-05-23T08:16:41Z</time>
      </trkpt>
      <trkpt lat="48.8139" lon="2.96841">
        <ele>80.9</ele>
        <time>2021-05-23T08:16:43Z</time>
      </trkpt>
      <trkpt lat="48.81332" lon="2.96817">
        <ele>78.4</ele>
        <time>2021-05-23T08:16:53Z</time>
      </trkpt>
      <trkpt lat="48.81327" lon="2.96816">
        <ele>78.2</ele>
        <time>2021-05-23T08:16:54Z</time>
      </trkpt>
      <trkpt lat="48.81315" lon="2.96815">
        <ele>77.8</ele>
        <time>2021-05-23T08:16:57Z</time>
      </trkpt>
      <trkpt lat="48.81312" lon="2.96818">
        <ele>77.9</ele>
        <time>2021-05-23T08:16:58Z</time>
      </trkpt>
      <trkpt lat="48.8131" lon="2.96822">
        <ele>78.3</ele>
        <time>2021-05-23T08:16:59Z</time>
      </trkpt>
      <trkpt lat="48.81309" lon="2.96827">
        <ele>78.6</ele>
        <time>2021-05-23T08:17:00Z</time>
      </trkpt>
      <trkpt lat="48.81308" lon="2.96833">
        <ele>79</ele>
        <time>2021-05-23T08:17:01Z</time>
      </trkpt>
      <trkpt lat="48.813" lon="2.9688">
        <ele>81.2</ele>
        <time>2021-05-23T08:17:12Z</time>
      </trkpt>
      <trkpt lat="48.81299" lon="2.96885">
        <ele>81.4</ele>
        <time>2021-05-23T08:17:13Z</time>
      </trkpt>
      <trkpt lat="48.8129" lon="2.96926">
        <ele>83.3</ele>
        <time>2021-05-23T08:17:24Z</time>
      </trkpt>
      <trkpt lat="48.81285" lon="2.9697">
        <ele>84.8</ele>
        <time>2021-05-23T08:17:35Z</time>
      </trkpt>
      <trkpt lat="48.81277" lon="2.97034">
        <ele>86.6</ele>
        <time>2021-05-23T08:17:49Z</time>
      </trkpt>
      <trkpt lat="48.81269" lon="2.97093">
        <ele>87.8</ele>
        <time>2021-05-23T08:18:05Z</time>
      </trkpt>
      <trkpt lat="48.81264" lon="2.97136">
        <ele>88.1</ele>
        <time>2021-05-23T08:18:16Z</time>
      </trkpt>
      <trkpt lat="48.81261" lon="2.97175">
        <ele>88.2</ele>
        <time>2021-05-23T08:18:26Z</time>
      </trkpt>
      <trkpt lat="48.81262" lon="2.97177">
        <ele>88.2</ele>
        <time>2021-05-23T08:18:27Z</time>
      </trkpt>
      <trkpt lat="48.81265" lon="2.97179">
        <ele>88.3</ele>
        <time>2021-05-23T08:18:28Z</time>
      </trkpt>
      <trkpt lat="48.81267" lon="2.97181">
        <ele>88.4</ele>
        <time>2021-05-23T08:18:29Z</time>
      </trkpt>
      <trkpt lat="48.8127" lon="2.97182">
        <ele>88.5</ele>
        <time>2021-05-23T08:18:30Z</time>
      </trkpt>
      <trkpt lat="48.81319" lon="2.97211">
        <ele>90.8</ele>
        <time>2021-05-23T08:18:48Z</time>
      </trkpt>
      <trkpt lat="48.81362" lon="2.97233">
        <ele>92.9</ele>
        <time>2021-05-23T08:19:03Z</time>
      </trkpt>
      <trkpt lat="48.81408" lon="2.97264">
        <ele>94.6</ele>
        <time>2021-05-23T08:19:18Z</time>
      </trkpt>
      <trkpt lat="48.81464" lon="2.97303">
        <ele>96.4</ele>
        <time>2021-05-23T08:19:36Z</time>
      </trkpt>
      <trkpt lat="48.81511" lon="2.97338">
        <ele>97.6</ele>
        <time>2021-05-23T08:19:52Z</time>
      </trkpt>
      <trkpt lat="48.81553" lon="2.97369">
        <ele>100.4</ele>
        <time>2021-05-23T08:20:06Z</time>
      </trkpt>
      <trkpt lat="48.81615" lon="2.97401">
        <ele>104.2</ele>
        <time>2021-05-23T08:20:25Z</time>
      </trkpt>
      <trkpt lat="48.81664" lon="2.97451">
        <ele>107.3</ele>
        <time>2021-05-23T08:20:41Z</time>
      </trkpt>
      <trkpt lat="48.81711" lon="2.97531">
        <ele>107.5</ele>
        <time>2021-05-23T08:20:58Z</time>
      </trkpt>
      <trkpt lat="48.8172" lon="2.97544">
        <ele>107.4</ele>
        <time>2021-05-23T08:21:01Z</time>
      </trkpt>
      <trkpt lat="48.81724" lon="2.97547">
        <ele>107.3</ele>
        <time>2021-05-23T08:21:02Z</time>
      </trkpt>
      <trkpt lat="48.81727" lon="2.97551">
        <ele>107.3</ele>
        <time>2021-05-23T08:21:03Z</time>
      </trkpt>
      <trkpt lat="48.81793" lon="2.97619">
        <ele>107.8</ele>
        <time>2021-05-23T08:21:21Z</time>
      </trkpt>
      <trkpt lat="48.81856" lon="2.97695">
        <ele>108.2</ele>
        <time>2021-05-23T08:21:38Z</time>
      </trkpt>
      <trkpt lat="48.81896" lon="2.97752">
        <ele>109.3</ele>
        <time>2021-05-23T08:21:50Z</time>
      </trkpt>
      <trkpt lat="48.81937" lon="2.9781">
        <ele>110</ele>
        <time>2021-05-23T08:22:02Z</time>
      </trkpt>
      <trkpt lat="48.81941" lon="2.97816">
        <ele>110.1</ele>
        <time>2021-05-23T08:22:03Z</time>
      </trkpt>
      <trkpt lat="48.81947" lon="2.97827">
        <ele>110.3</ele>
        <time>2021-05-23T08:22:05Z</time>
      </trkpt>
      <trkpt lat="48.8195" lon="2.97832">
        <ele>110.4</ele>
        <time>2021-05-23T08:22:06Z</time>
      </trkpt>
      <trkpt lat="48.81986" lon="2.97875">
        <ele>110.9</ele>
        <time>2021-05-23T08:22:16Z</time>
      </trkpt>
      <trkpt lat="48.82051" lon="2.97944">
        <ele>112.1</ele>
        <time>2021-05-23T08:22:33Z</time>
      </trkpt>
      <trkpt lat="48.8207" lon="2.97959">
        <ele>112.6</ele>
        <time>2021-05-23T08:22:38Z</time>
      </trkpt>
      <trkpt lat="48.82074" lon="2.97962">
        <ele>112.7</ele>
        <time>2021-05-23T08:22:39Z</time>
      </trkpt>
      <trkpt lat="48.82078" lon="2.97964">
        <ele>112.8</ele>
        <time>2021-05-23T08:22:40Z</time>
      </trkpt>
      <trkpt lat="48.82082" lon="2.97967">
        <ele>112.9</ele>
        <time>2021-05-23T08:22:41Z</time>
      </trkpt>
      <trkpt lat="48.82086" lon="2.97971">
        <ele>113.1</ele>
        <time>2021-05-23T08:22:42Z</time>
      </trkpt>
      <trkpt lat="48.8209" lon="2.97973">
        <ele>113.2</ele>
        <time>2021-05-23T08:22:43Z</time>
      </trkpt>
      <trkpt lat="48.82097" lon="2.9798">
        <ele>113.5</ele>
        <time>2021-05-23T08:22:45Z</time>
      </trkpt>
      <trkpt lat="48.82129" lon="2.98025">
        <ele>115.1</ele>
        <time>2021-05-23T08:22:58Z</time>
      </trkpt>
      <trkpt lat="48.82158" lon="2.98066">
        <ele>117.2</ele>
        <time>2021-05-23T08:23:11Z</time>
      </trkpt>
      <trkpt lat="48.82174" lon="2.98081">
        <ele>118.5</ele>
        <time>2021-05-23T08:23:18Z</time>
      </trkpt>
      <trkpt lat="48.82175" lon="2.98084">
        <ele>118.6</ele>
        <time>2021-05-23T08:23:19Z</time>
      </trkpt>
      <trkpt lat="48.82174" lon="2.98088">
        <ele>118.6</ele>
        <time>2021-05-23T08:23:20Z</time>
      </trkpt>
      <trkpt lat="48.82173" lon="2.98091">
        <ele>118.4</ele>
        <time>2021-05-23T08:23:21Z</time>
      </trkpt>
      <trkpt lat="48.8217" lon="2.98095">
        <ele>118.3</ele>
        <time>2021-05-23T08:23:22Z</time>
      </trkpt>
      <trkpt lat="48.82158" lon="2.9812">
        <ele>117.5</ele>
        <time>2021-05-23T08:23:29Z</time>
      </trkpt>
      <trkpt lat="48.82159" lon="2.98125">
        <ele>117.5</ele>
        <time>2021-05-23T08:23:30Z</time>
      </trkpt>
      <trkpt lat="48.8216" lon="2.98129">
        <ele>117.6</ele>
        <time>2021-05-23T08:23:31Z</time>
      </trkpt>
      <trkpt lat="48.82161" lon="2.98133">
        <ele>117.7</ele>
        <time>2021-05-23T08:23:32Z</time>
      </trkpt>
      <trkpt lat="48.82163" lon="2.98136">
        <ele>117.8</ele>
        <time>2021-05-23T08:23:33Z</time>
      </trkpt>
      <trkpt lat="48.82165" lon="2.9814">
        <ele>117.9</ele>
        <time>2021-05-23T08:23:34Z</time>
      </trkpt>
      <trkpt lat="48.82199" lon="2.98185">
        <ele>120.6</ele>
        <time>2021-05-23T08:23:46Z</time>
      </trkpt>
      <trkpt lat="48.82209" lon="2.98206">
        <ele>121.3</ele>
        <time>2021-05-23T08:23:50Z</time>
      </trkpt>
      <trkpt lat="48.82212" lon="2.98211">
        <ele>121.6</ele>
        <time>2021-05-23T08:23:51Z</time>
      </trkpt>
      <trkpt lat="48.82215" lon="2.98216">
        <ele>121.8</ele>
        <time>2021-05-23T08:23:52Z</time>
      </trkpt>
      <trkpt lat="48.82254" lon="2.98286">
        <ele>123.9</ele>
        <time>2021-05-23T08:24:06Z</time>
      </trkpt>
      <trkpt lat="48.82283" lon="2.98373">
        <ele>123.4</ele>
        <time>2021-05-23T08:24:20Z</time>
      </trkpt>
      <trkpt lat="48.82295" lon="2.98443">
        <ele>123.1</ele>
        <time>2021-05-23T08:24:32Z</time>
      </trkpt>
      <trkpt lat="48.82325" lon="2.98495">
        <ele>125.3</ele>
        <time>2021-05-23T08:24:46Z</time>
      </trkpt>
      <trkpt lat="48.82358" lon="2.9854">
        <ele>127</ele>
        <time>2021-05-23T08:25:00Z</time>
      </trkpt>
      <trkpt lat="48.82375" lon="2.98608">
        <ele>127.7</ele>
        <time>2021-05-23T08:25:12Z</time>
      </trkpt>
      <trkpt lat="48.82377" lon="2.98613">
        <ele>127.7</ele>
        <time>2021-05-23T08:25:13Z</time>
      </trkpt>
      <trkpt lat="48.82391" lon="2.98646">
        <ele>128</ele>
        <time>2021-05-23T08:25:19Z</time>
      </trkpt>
      <trkpt lat="48.82397" lon="2.98656">
        <ele>128.2</ele>
        <time>2021-05-23T08:25:21Z</time>
      </trkpt>
      <trkpt lat="48.82415" lon="2.987">
        <ele>128.5</ele>
        <time>2021-05-23T08:25:29Z</time>
      </trkpt>
      <trkpt lat="48.82414" lon="2.98706">
        <ele>128.4</ele>
        <time>2021-05-23T08:25:30Z</time>
      </trkpt>
      <trkpt lat="48.82412" lon="2.98711">
        <ele>128.2</ele>
        <time>2021-05-23T08:25:31Z</time>
      </trkpt>
      <trkpt lat="48.82383" lon="2.98783">
        <ele>125.2</ele>
        <time>2021-05-23T08:25:42Z</time>
      </trkpt>
      <trkpt lat="48.8238" lon="2.98789">
        <ele>124.9</ele>
        <time>2021-05-23T08:25:43Z</time>
      </trkpt>
      <trkpt lat="48.82376" lon="2.98795">
        <ele>124.5</ele>
        <time>2021-05-23T08:25:44Z</time>
      </trkpt>
      <trkpt lat="48.82371" lon="2.98801">
        <ele>124.1</ele>
        <time>2021-05-23T08:25:45Z</time>
      </trkpt>
      <trkpt lat="48.82366" lon="2.98806">
        <ele>123.7</ele>
        <time>2021-05-23T08:25:46Z</time>
      </trkpt>
      <trkpt lat="48.82323" lon="2.98843">
        <ele>120.3</ele>
        <time>2021-05-23T08:25:54Z</time>
      </trkpt>
      <trkpt lat="48.82294" lon="2.98875">
        <ele>118.4</ele>
        <time>2021-05-23T08:25:59Z</time>
      </trkpt>
      <trkpt lat="48.82289" lon="2.98884">
        <ele>118.1</ele>
        <time>2021-05-23T08:26:00Z</time>
      </trkpt>
      <trkpt lat="48.82285" lon="2.98894">
        <ele>117.8</ele>
        <time>2021-05-23T08:26:01Z</time>
      </trkpt>
      <trkpt lat="48.82281" lon="2.98904">
        <ele>117.5</ele>
        <time>2021-05-23T08:26:02Z</time>
      </trkpt>
      <trkpt lat="48.82279" lon="2.98915">
        <ele>117.4</ele>
        <time>2021-05-23T08:26:03Z</time>
      </trkpt>
      <trkpt lat="48.82278" lon="2.98926">
        <ele>117.6</ele>
        <time>2021-05-23T08:26:04Z</time>
      </trkpt>
      <trkpt lat="48.82278" lon="2.98935">
        <ele>117.9</ele>
        <time>2021-05-23T08:26:05Z</time>
      </trkpt>
      <trkpt lat="48.82281" lon="2.98966">
        <ele>118.8</ele>
        <time>2021-05-23T08:26:09Z</time>
      </trkpt>
      <trkpt lat="48.82291" lon="2.99008">
        <ele>120.1</ele>
        <time>2021-05-23T08:26:15Z</time>
      </trkpt>
      <trkpt lat="48.82294" lon="2.99076">
        <ele>121</ele>
        <time>2021-05-23T08:26:25Z</time>
      </trkpt>
      <trkpt lat="48.82294" lon="2.99083">
        <ele>121.1</ele>
        <time>2021-05-23T08:26:26Z</time>
      </trkpt>
      <trkpt lat="48.82293" lon="2.99089">
        <ele>121.4</ele>
        <time>2021-05-23T08:26:27Z</time>
      </trkpt>
      <trkpt lat="48.82292" lon="2.99096">
        <ele>121.7</ele>
        <time>2021-05-23T08:26:28Z</time>
      </trkpt>
      <trkpt lat="48.8229" lon="2.99103">
        <ele>122</ele>
        <time>2021-05-23T08:26:29Z</time>
      </trkpt>
      <trkpt lat="48.82288" lon="2.99109">
        <ele>122.2</ele>
        <time>2021-05-23T08:26:30Z</time>
      </trkpt>
      <trkpt lat="48.82286" lon="2.99116">
        <ele>122.5</ele>
        <time>2021-05-23T08:26:31Z</time>
      </trkpt>
      <trkpt lat="48.82269" lon="2.99155">
        <ele>123.5</ele>
        <time>2021-05-23T08:26:37Z</time>
      </trkpt>
      <trkpt lat="48.82266" lon="2.99161">
        <ele>123.7</ele>
        <time>2021-05-23T08:26:38Z</time>
      </trkpt>
      <trkpt lat="48.82259" lon="2.99196">
        <ele>124.2</ele>
        <time>2021-05-23T08:26:43Z</time>
      </trkpt>
      <trkpt lat="48.82258" lon="2.99204">
        <ele>124.3</ele>
        <time>2021-05-23T08:26:44Z</time>
      </trkpt>
      <trkpt lat="48.82259" lon="2.99211">
        <ele>124.5</ele>
        <time>2021-05-23T08:26:45Z</time>
      </trkpt>
      <trkpt lat="48.82259" lon="2.99218">
        <ele>124.7</ele>
        <time>2021-05-23T08:26:46Z</time>
      </trkpt>
      <trkpt lat="48.8226" lon="2.99225">
        <ele>124.9</ele>
        <time>2021-05-23T08:26:47Z</time>
      </trkpt>
      <trkpt lat="48.82264" lon="2.99245">
        <ele>125.6</ele>
        <time>2021-05-23T08:26:50Z</time>
      </trkpt>
      <trkpt lat="48.82264" lon="2.99252">
        <ele>125.7</ele>
        <time>2021-05-23T08:26:51Z</time>
      </trkpt>
      <trkpt lat="48.82264" lon="2.99259">
        <ele>125.7</ele>
        <time>2021-05-23T08:26:52Z</time>
      </trkpt>
      <trkpt lat="48.82264" lon="2.99266">
        <ele>125.6</ele>
        <time>2021-05-23T08:26:53Z</time>
      </trkpt>
      <trkpt lat="48.82263" lon="2.99273">
        <ele>125.6</ele>
        <time>2021-05-23T08:26:54Z</time>
      </trkpt>
      <trkpt lat="48.82262" lon="2.99279">
        <ele>125.5</ele>
        <time>2021-05-23T08:26:55Z</time>
      </trkpt>
      <trkpt lat="48.8226" lon="2.99285">
        <ele>125.4</ele>
        <time>2021-05-23T08:26:56Z</time>
      </trkpt>
      <trkpt lat="48.82258" lon="2.99292">
        <ele>125.3</ele>
        <time>2021-05-23T08:26:57Z</time>
      </trkpt>
      <trkpt lat="48.82256" lon="2.99298">
        <ele>125.2</ele>
        <time>2021-05-23T08:26:58Z</time>
      </trkpt>
      <trkpt lat="48.82245" lon="2.99345">
        <ele>125</ele>
        <time>2021-05-23T08:27:05Z</time>
      </trkpt>
      <trkpt lat="48.82242" lon="2.99395">
        <ele>125.9</ele>
        <time>2021-05-23T08:27:12Z</time>
      </trkpt>
      <trkpt lat="48.82243" lon="2.99401">
        <ele>126.1</ele>
        <time>2021-05-23T08:27:13Z</time>
      </trkpt>
      <trkpt lat="48.82245" lon="2.99414">
        <ele>126.5</ele>
        <time>2021-05-23T08:27:15Z</time>
      </trkpt>
      <trkpt lat="48.82248" lon="2.99419">
        <ele>126.8</ele>
        <time>2021-05-23T08:27:16Z</time>
      </trkpt>
      <trkpt lat="48.82251" lon="2.99423">
        <ele>127.1</ele>
        <time>2021-05-23T08:27:17Z</time>
      </trkpt>
      <trkpt lat="48.82255" lon="2.99425">
        <ele>127.2</ele>
        <time>2021-05-23T08:27:18Z</time>
      </trkpt>
      <trkpt lat="48.8226" lon="2.99427">
        <ele>127.4</ele>
        <time>2021-05-23T08:27:19Z</time>
      </trkpt>
      <trkpt lat="48.82264" lon="2.99431">
        <ele>127.5</ele>
        <time>2021-05-23T08:27:20Z</time>
      </trkpt>
      <trkpt lat="48.82267" lon="2.99437">
        <ele>127.6</ele>
        <time>2021-05-23T08:27:21Z</time>
      </trkpt>
      <trkpt lat="48.82269" lon="2.99443">
        <ele>127.8</ele>
        <time>2021-05-23T08:27:22Z</time>
      </trkpt>
      <trkpt lat="48.82269" lon="2.9945">
        <ele>127.9</ele>
        <time>2021-05-23T08:27:23Z</time>
      </trkpt>
      <trkpt lat="48.8227" lon="2.99457">
        <ele>128</ele>
        <time>2021-05-23T08:27:24Z</time>
      </trkpt>
      <trkpt lat="48.8227" lon="2.99464">
        <ele>128.1</ele>
        <time>2021-05-23T08:27:25Z</time>
      </trkpt>
      <trkpt lat="48.82271" lon="2.99471">
        <ele>128.2</ele>
        <time>2021-05-23T08:27:26Z</time>
      </trkpt>
      <trkpt lat="48.82273" lon="2.99477">
        <ele>128.3</ele>
        <time>2021-05-23T08:27:27Z</time>
      </trkpt>
      <trkpt lat="48.82275" lon="2.99483">
        <ele>128.4</ele>
        <time>2021-05-23T08:27:28Z</time>
      </trkpt>
      <trkpt lat="48.82278" lon="2.99488">
        <ele>128.5</ele>
        <time>2021-05-23T08:27:29Z</time>
      </trkpt>
      <trkpt lat="48.82294" lon="2.99531">
        <ele>129.4</ele>
        <time>2021-05-23T08:27:38Z</time>
      </trkpt>
      <trkpt lat="48.82296" lon="2.99533">
        <ele>129.5</ele>
        <time>2021-05-23T08:27:39Z</time>
      </trkpt>
      <trkpt lat="48.82299" lon="2.99533">
        <ele>129.6</ele>
        <time>2021-05-23T08:27:40Z</time>
      </trkpt>
      <trkpt lat="48.82303" lon="2.99533">
        <ele>129.7</ele>
        <time>2021-05-23T08:27:41Z</time>
      </trkpt>
      <trkpt lat="48.82306" lon="2.99532">
        <ele>129.7</ele>
        <time>2021-05-23T08:27:42Z</time>
      </trkpt>
      <trkpt lat="48.82331" lon="2.9953">
        <ele>130.3</ele>
        <time>2021-05-23T08:27:49Z</time>
      </trkpt>
      <trkpt lat="48.82333" lon="2.99533">
        <ele>130.4</ele>
        <time>2021-05-23T08:27:50Z</time>
      </trkpt>
      <trkpt lat="48.82334" lon="2.99537">
        <ele>130.5</ele>
        <time>2021-05-23T08:27:51Z</time>
      </trkpt>
      <trkpt lat="48.82334" lon="2.99541">
        <ele>130.5</ele>
        <time>2021-05-23T08:27:52Z</time>
      </trkpt>
      <trkpt lat="48.82335" lon="2.99544">
        <ele>130.6</ele>
        <time>2021-05-23T08:27:53Z</time>
      </trkpt>
      <trkpt lat="48.82341" lon="2.99595">
        <ele>131.3</ele>
        <time>2021-05-23T08:28:05Z</time>
      </trkpt>
      <trkpt lat="48.82346" lon="2.9967">
        <ele>132.1</ele>
        <time>2021-05-23T08:28:22Z</time>
      </trkpt>
      <trkpt lat="48.82363" lon="2.9972">
        <ele>131.9</ele>
        <time>2021-05-23T08:28:35Z</time>
      </trkpt>
      <trkpt lat="48.82361" lon="2.99785">
        <ele>131.3</ele>
        <time>2021-05-23T08:28:49Z</time>
      </trkpt>
      <trkpt lat="48.82352" lon="2.99854">
        <ele>130.9</ele>
        <time>2021-05-23T08:29:03Z</time>
      </trkpt>
      <trkpt lat="48.8235" lon="2.99858">
        <ele>131</ele>
        <time>2021-05-23T08:29:04Z</time>
      </trkpt>
      <trkpt lat="48.82348" lon="2.9986">
        <ele>131</ele>
        <time>2021-05-23T08:29:05Z</time>
      </trkpt>
      <trkpt lat="48.82345" lon="2.9986">
        <ele>130.9</ele>
        <time>2021-05-23T08:29:06Z</time>
      </trkpt>
      <trkpt lat="48.82342" lon="2.99859">
        <ele>130.8</ele>
        <time>2021-05-23T08:29:07Z</time>
      </trkpt>
      <trkpt lat="48.82338" lon="2.99857">
        <ele>130.7</ele>
        <time>2021-05-23T08:29:08Z</time>
      </trkpt>
      <trkpt lat="48.82335" lon="2.99856">
        <ele>130.6</ele>
        <time>2021-05-23T08:29:09Z</time>
      </trkpt>
      <trkpt lat="48.82313" lon="2.99848">
        <ele>129.8</ele>
        <time>2021-05-23T08:29:15Z</time>
      </trkpt>
      <trkpt lat="48.82308" lon="2.99847">
        <ele>129.7</ele>
        <time>2021-05-23T08:29:16Z</time>
      </trkpt>
      <trkpt lat="48.82254" lon="2.99834">
        <ele>128.1</ele>
        <time>2021-05-23T08:29:28Z</time>
      </trkpt>
      <trkpt lat="48.82249" lon="2.99836">
        <ele>128</ele>
        <time>2021-05-23T08:29:29Z</time>
      </trkpt>
      <trkpt lat="48.82245" lon="2.99839">
        <ele>127.9</ele>
        <time>2021-05-23T08:29:30Z</time>
      </trkpt>
      <trkpt lat="48.82241" lon="2.99842">
        <ele>127.8</ele>
        <time>2021-05-23T08:29:31Z</time>
      </trkpt>
      <trkpt lat="48.82236" lon="2.99844">
        <ele>127.6</ele>
        <time>2021-05-23T08:29:32Z</time>
      </trkpt>
      <trkpt lat="48.82231" lon="2.99845">
        <ele>127.5</ele>
        <time>2021-05-23T08:29:33Z</time>
      </trkpt>
      <trkpt lat="48.82226" lon="2.99846">
        <ele>127.3</ele>
        <time>2021-05-23T08:29:34Z</time>
      </trkpt>
      <trkpt lat="48.82215" lon="2.99847">
        <ele>126.9</ele>
        <time>2021-05-23T08:29:36Z</time>
      </trkpt>
      <trkpt lat="48.8221" lon="2.99847">
        <ele>126.7</ele>
        <time>2021-05-23T08:29:37Z</time>
      </trkpt>
      <trkpt lat="48.82183" lon="2.99855">
        <ele>125.8</ele>
        <time>2021-05-23T08:29:42Z</time>
      </trkpt>
      <trkpt lat="48.82178" lon="2.99858">
        <ele>125.7</ele>
        <time>2021-05-23T08:29:43Z</time>
      </trkpt>
      <trkpt lat="48.82172" lon="2.99863">
        <ele>125.6</ele>
        <time>2021-05-23T08:29:44Z</time>
      </trkpt>
      <trkpt lat="48.82168" lon="2.99867">
        <ele>125.4</ele>
        <time>2021-05-23T08:29:45Z</time>
      </trkpt>
      <trkpt lat="48.82163" lon="2.99872">
        <ele>125.3</ele>
        <time>2021-05-23T08:29:46Z</time>
      </trkpt>
      <trkpt lat="48.82159" lon="2.99877">
        <ele>125.1</ele>
        <time>2021-05-23T08:29:47Z</time>
      </trkpt>
      <trkpt lat="48.82155" lon="2.99883">
        <ele>125</ele>
        <time>2021-05-23T08:29:48Z</time>
      </trkpt>
      <trkpt lat="48.82151" lon="2.99889">
        <ele>124.9</ele>
        <time>2021-05-23T08:29:49Z</time>
      </trkpt>
      <trkpt lat="48.82148" lon="2.99896">
        <ele>124.9</ele>
        <time>2021-05-23T08:29:50Z</time>
      </trkpt>
      <trkpt lat="48.82145" lon="2.99903">
        <ele>124.8</ele>
        <time>2021-05-23T08:29:51Z</time>
      </trkpt>
      <trkpt lat="48.82143" lon="2.9991">
        <ele>124.8</ele>
        <time>2021-05-23T08:29:52Z</time>
      </trkpt>
      <trkpt lat="48.82119" lon="3.00028">
        <ele>124.2</ele>
        <time>2021-05-23T08:30:07Z</time>
      </trkpt>
      <trkpt lat="48.82091" lon="3.00151">
        <ele>124.3</ele>
        <time>2021-05-23T08:30:23Z</time>
      </trkpt>
      <trkpt lat="48.82076" lon="3.00306">
        <ele>123.4</ele>
        <time>2021-05-23T08:30:40Z</time>
      </trkpt>
      <trkpt lat="48.8207" lon="3.00367">
        <ele>123.4</ele>
        <time>2021-05-23T08:30:47Z</time>
      </trkpt>
      <trkpt lat="48.82068" lon="3.00429">
        <ele>123</ele>
        <time>2021-05-23T08:30:54Z</time>
      </trkpt>
      <trkpt lat="48.8209" lon="3.00549">
        <ele>122.1</ele>
        <time>2021-05-23T08:31:08Z</time>
      </trkpt>
      <trkpt lat="48.82103" lon="3.00582">
        <ele>122.2</ele>
        <time>2021-05-23T08:31:12Z</time>
      </trkpt>
      <trkpt lat="48.8215" lon="3.00673">
        <ele>122.4</ele>
        <time>2021-05-23T08:31:26Z</time>
      </trkpt>
      <trkpt lat="48.822" lon="3.0077">
        <ele>122.1</ele>
        <time>2021-05-23T08:31:41Z</time>
      </trkpt>
      <trkpt lat="48.82212" lon="3.00787">
        <ele>122.4</ele>
        <time>2021-05-23T08:31:45Z</time>
      </trkpt>
      <trkpt lat="48.82215" lon="3.00787">
        <ele>122.5</ele>
        <time>2021-05-23T08:31:46Z</time>
      </trkpt>
      <trkpt lat="48.82217" lon="3.00785">
        <ele>122.6</ele>
        <time>2021-05-23T08:31:47Z</time>
      </trkpt>
      <trkpt lat="48.8222" lon="3.00783">
        <ele>122.7</ele>
        <time>2021-05-23T08:31:48Z</time>
      </trkpt>
      <trkpt lat="48.82222" lon="3.0078">
        <ele>122.7</ele>
        <time>2021-05-23T08:31:49Z</time>
      </trkpt>
      <trkpt lat="48.82224" lon="3.00776">
        <ele>122.8</ele>
        <time>2021-05-23T08:31:50Z</time>
      </trkpt>
      <trkpt lat="48.82226" lon="3.00773">
        <ele>122.9</ele>
        <time>2021-05-23T08:31:51Z</time>
      </trkpt>
      <trkpt lat="48.82228" lon="3.0077">
        <ele>123</ele>
        <time>2021-05-23T08:31:52Z</time>
      </trkpt>
      <trkpt lat="48.82256" lon="3.00717">
        <ele>124.9</ele>
        <time>2021-05-23T08:32:07Z</time>
      </trkpt>
      <trkpt lat="48.82287" lon="3.00659">
        <ele>127</ele>
        <time>2021-05-23T08:32:23Z</time>
      </trkpt>
      <trkpt lat="48.82318" lon="3.00606">
        <ele>128.4</ele>
        <time>2021-05-23T08:32:37Z</time>
      </trkpt>
      <trkpt lat="48.82353" lon="3.00544">
        <ele>130</ele>
        <time>2021-05-23T08:32:52Z</time>
      </trkpt>
      <trkpt lat="48.82387" lon="3.00488">
        <ele>131.4</ele>
        <time>2021-05-23T08:33:06Z</time>
      </trkpt>
      <trkpt lat="48.82396" lon="3.00482">
        <ele>131.6</ele>
        <time>2021-05-23T08:33:09Z</time>
      </trkpt>
      <trkpt lat="48.824" lon="3.00484">
        <ele>131.5</ele>
        <time>2021-05-23T08:33:10Z</time>
      </trkpt>
      <trkpt lat="48.82404" lon="3.00489">
        <ele>131.4</ele>
        <time>2021-05-23T08:33:11Z</time>
      </trkpt>
      <trkpt lat="48.82413" lon="3.00506">
        <ele>130.8</ele>
        <time>2021-05-23T08:33:14Z</time>
      </trkpt>
      <trkpt lat="48.82416" lon="3.00513">
        <ele>130.7</ele>
        <time>2021-05-23T08:33:15Z</time>
      </trkpt>
      <trkpt lat="48.82419" lon="3.0052">
        <ele>130.5</ele>
        <time>2021-05-23T08:33:16Z</time>
      </trkpt>
      <trkpt lat="48.82466" lon="3.00615">
        <ele>129.4</ele>
        <time>2021-05-23T08:33:30Z</time>
      </trkpt>
      <trkpt lat="48.82477" lon="3.00642">
        <ele>129.5</ele>
        <time>2021-05-23T08:33:34Z</time>
      </trkpt>
      <trkpt lat="48.82479" lon="3.00649">
        <ele>129.5</ele>
        <time>2021-05-23T08:33:35Z</time>
      </trkpt>
      <trkpt lat="48.82503" lon="3.00784">
        <ele>129.2</ele>
        <time>2021-05-23T08:33:53Z</time>
      </trkpt>
      <trkpt lat="48.82511" lon="3.00869">
        <ele>129.6</ele>
        <time>2021-05-23T08:34:04Z</time>
      </trkpt>
      <trkpt lat="48.82509" lon="3.00877">
        <ele>129.5</ele>
        <time>2021-05-23T08:34:05Z</time>
      </trkpt>
      <trkpt lat="48.82504" lon="3.00908">
        <ele>129.2</ele>
        <time>2021-05-23T08:34:09Z</time>
      </trkpt>
      <trkpt lat="48.82504" lon="3.00916">
        <ele>129.2</ele>
        <time>2021-05-23T08:34:10Z</time>
      </trkpt>
      <trkpt lat="48.82504" lon="3.00925">
        <ele>129.1</ele>
        <time>2021-05-23T08:34:11Z</time>
      </trkpt>
      <trkpt lat="48.82505" lon="3.00933">
        <ele>129</ele>
        <time>2021-05-23T08:34:12Z</time>
      </trkpt>
      <trkpt lat="48.82506" lon="3.00942">
        <ele>129</ele>
        <time>2021-05-23T08:34:13Z</time>
      </trkpt>
      <trkpt lat="48.82507" lon="3.0095">
        <ele>128.9</ele>
        <time>2021-05-23T08:34:14Z</time>
      </trkpt>
      <trkpt lat="48.82509" lon="3.00957">
        <ele>128.9</ele>
        <time>2021-05-23T08:34:15Z</time>
      </trkpt>
      <trkpt lat="48.82512" lon="3.00964">
        <ele>128.9</ele>
        <time>2021-05-23T08:34:16Z</time>
      </trkpt>
      <trkpt lat="48.82515" lon="3.00969">
        <ele>129</ele>
        <time>2021-05-23T08:34:17Z</time>
      </trkpt>
      <trkpt lat="48.82518" lon="3.00974">
        <ele>129</ele>
        <time>2021-05-23T08:34:18Z</time>
      </trkpt>
      <trkpt lat="48.8253" lon="3.00994">
        <ele>129.2</ele>
        <time>2021-05-23T08:34:25Z</time>
      </trkpt>
      <trkpt lat="48.82531" lon="3.00998">
        <ele>129.2</ele>
        <time>2021-05-23T08:34:36Z</time>
      </trkpt>
      <trkpt lat="48.82532" lon="3.00997">
        <ele>129.2</ele>
        <time>2021-05-23T08:35:05Z</time>
      </trkpt>
      <trkpt lat="48.82531" lon="3.00998">
        <ele>129.2</ele>
        <time>2021-05-23T08:35:33Z</time>
      </trkpt>
      <trkpt lat="48.82531" lon="3.00999">
        <ele>129.1</ele>
        <time>2021-05-23T08:36:00Z</time>
      </trkpt>
      <trkpt lat="48.82531" lon="3.00998">
        <ele>129.1</ele>
        <time>2021-05-23T08:36:31Z</time>
      </trkpt>
      <trkpt lat="48.82531" lon="3.00998">
        <ele>129.2</ele>
        <time>2021-05-23T08:37:03Z</time>
      </trkpt>
      <trkpt lat="48.82531" lon="3.00998">
        <ele>129.1</ele>
        <time>2021-05-23T08:37:32Z</time>
      </trkpt>
      <trkpt lat="48.82531" lon="3.00998">
        <ele>129.2</ele>
        <time>2021-05-23T08:38:03Z</time>
      </trkpt>
      <trkpt lat="48.82531" lon="3.00999">
        <ele>129.1</ele>
        <time>2021-05-23T08:38:35Z</time>
      </trkpt>
      <trkpt lat="48.82531" lon="3.00999">
        <ele>129.2</ele>
        <time>2021-05-23T08:39:13Z</time>
      </trkpt>
      <trkpt lat="48.82532" lon="3.00998">
        <ele>129.2</ele>
        <time>2021-05-23T08:39:47Z</time>
      </trkpt>
      <trkpt lat="48.82532" lon="3.00996">
        <ele>129.2</ele>
        <time>2021-05-23T08:40:20Z</time>
      </trkpt>
      <trkpt lat="48.82532" lon="3.00998">
        <ele>129.2</ele>
        <time>2021-05-23T08:40:50Z</time>
      </trkpt>
      <trkpt lat="48.82534" lon="3.00998">
        <ele>129.2</ele>
        <time>2021-05-23T08:41:21Z</time>
      </trkpt>
      <trkpt lat="48.82534" lon="3.00998">
        <ele>129.2</ele>
        <time>2021-05-23T08:41:48Z</time>
      </trkpt>
      <trkpt lat="48.82534" lon="3.00999">
        <ele>129.3</ele>
        <time>2021-05-23T08:42:15Z</time>
      </trkpt>
      <trkpt lat="48.82535" lon="3.00997">
        <ele>129.3</ele>
        <time>2021-05-23T08:42:43Z</time>
      </trkpt>
      <trkpt lat="48.82535" lon="3.00997">
        <ele>129.3</ele>
        <time>2021-05-23T08:42:54Z</time>
      </trkpt>
      <trkpt lat="48.82536" lon="3.00997">
        <ele>129.4</ele>
        <time>2021-05-23T08:42:57Z</time>
      </trkpt>
      <trkpt lat="48.82537" lon="3.00998">
        <ele>129.4</ele>
        <time>2021-05-23T08:42:58Z</time>
      </trkpt>
      <trkpt lat="48.82538" lon="3.01">
        <ele>129.4</ele>
        <time>2021-05-23T08:42:59Z</time>
      </trkpt>
      <trkpt lat="48.82551" lon="3.01034">
        <ele>128.7</ele>
        <time>2021-05-23T08:43:12Z</time>
      </trkpt>
      <trkpt lat="48.82552" lon="3.01063">
        <ele>127.9</ele>
        <time>2021-05-23T08:43:17Z</time>
      </trkpt>
      <trkpt lat="48.82552" lon="3.0107">
        <ele>127.6</ele>
        <time>2021-05-23T08:43:18Z</time>
      </trkpt>
      <trkpt lat="48.8255" lon="3.01077">
        <ele>127.4</ele>
        <time>2021-05-23T08:43:19Z</time>
      </trkpt>
      <trkpt lat="48.82549" lon="3.01084">
        <ele>127.2</ele>
        <time>2021-05-23T08:43:20Z</time>
      </trkpt>
      <trkpt lat="48.82546" lon="3.01091">
        <ele>127.1</ele>
        <time>2021-05-23T08:43:21Z</time>
      </trkpt>
      <trkpt lat="48.82543" lon="3.01098">
        <ele>127</ele>
        <time>2021-05-23T08:43:22Z</time>
      </trkpt>
      <trkpt lat="48.8254" lon="3.01105">
        <ele>126.8</ele>
        <time>2021-05-23T08:43:23Z</time>
      </trkpt>
      <trkpt lat="48.82537" lon="3.01111">
        <ele>126.7</ele>
        <time>2021-05-23T08:43:24Z</time>
      </trkpt>
      <trkpt lat="48.82532" lon="3.01123">
        <ele>126.4</ele>
        <time>2021-05-23T08:43:26Z</time>
      </trkpt>
      <trkpt lat="48.82529" lon="3.0113">
        <ele>126.2</ele>
        <time>2021-05-23T08:43:27Z</time>
      </trkpt>
      <trkpt lat="48.82524" lon="3.01145">
        <ele>125.8</ele>
        <time>2021-05-23T08:43:29Z</time>
      </trkpt>
      <trkpt lat="48.82522" lon="3.01153">
        <ele>125.6</ele>
        <time>2021-05-23T08:43:30Z</time>
      </trkpt>
      <trkpt lat="48.82516" lon="3.01214">
        <ele>126.4</ele>
        <time>2021-05-23T08:43:38Z</time>
      </trkpt>
      <trkpt lat="48.82518" lon="3.01242">
        <ele>127.4</ele>
        <time>2021-05-23T08:43:42Z</time>
      </trkpt>
      <trkpt lat="48.82519" lon="3.01249">
        <ele>127.7</ele>
        <time>2021-05-23T08:43:43Z</time>
      </trkpt>
      <trkpt lat="48.82519" lon="3.01256">
        <ele>127.8</ele>
        <time>2021-05-23T08:43:44Z</time>
      </trkpt>
      <trkpt lat="48.82527" lon="3.01315">
        <ele>128.5</ele>
        <time>2021-05-23T08:43:52Z</time>
      </trkpt>
      <trkpt lat="48.82528" lon="3.01321">
        <ele>128.6</ele>
        <time>2021-05-23T08:43:53Z</time>
      </trkpt>
      <trkpt lat="48.82535" lon="3.01366">
        <ele>129.3</ele>
        <time>2021-05-23T08:44:00Z</time>
      </trkpt>
      <trkpt lat="48.82535" lon="3.01373">
        <ele>129.4</ele>
        <time>2021-05-23T08:44:01Z</time>
      </trkpt>
      <trkpt lat="48.82536" lon="3.0138">
        <ele>129.5</ele>
        <time>2021-05-23T08:44:02Z</time>
      </trkpt>
      <trkpt lat="48.8254" lon="3.01429">
        <ele>130.2</ele>
        <time>2021-05-23T08:44:09Z</time>
      </trkpt>
      <trkpt lat="48.82541" lon="3.01436">
        <ele>130.2</ele>
        <time>2021-05-23T08:44:10Z</time>
      </trkpt>
      <trkpt lat="48.82544" lon="3.0147">
        <ele>130.6</ele>
        <time>2021-05-23T08:44:15Z</time>
      </trkpt>
      <trkpt lat="48.82545" lon="3.01477">
        <ele>130.7</ele>
        <time>2021-05-23T08:44:16Z</time>
      </trkpt>
      <trkpt lat="48.8255" lon="3.01522">
        <ele>130.7</ele>
        <time>2021-05-23T08:44:22Z</time>
      </trkpt>
      <trkpt lat="48.82552" lon="3.01537">
        <ele>130.7</ele>
        <time>2021-05-23T08:44:24Z</time>
      </trkpt>
      <trkpt lat="48.82554" lon="3.01544">
        <ele>130.7</ele>
        <time>2021-05-23T08:44:25Z</time>
      </trkpt>
      <trkpt lat="48.82555" lon="3.01552">
        <ele>130.7</ele>
        <time>2021-05-23T08:44:26Z</time>
      </trkpt>
      <trkpt lat="48.82579" lon="3.01611">
        <ele>130.9</ele>
        <time>2021-05-23T08:44:37Z</time>
      </trkpt>
      <trkpt lat="48.82598" lon="3.01643">
        <ele>131.3</ele>
        <time>2021-05-23T08:44:46Z</time>
      </trkpt>
      <trkpt lat="48.82617" lon="3.01683">
        <ele>131.2</ele>
        <time>2021-05-23T08:44:55Z</time>
      </trkpt>
      <trkpt lat="48.82638" lon="3.01756">
        <ele>129.3</ele>
        <time>2021-05-23T08:45:09Z</time>
      </trkpt>
      <trkpt lat="48.82648" lon="3.01815">
        <ele>129.4</ele>
        <time>2021-05-23T08:45:21Z</time>
      </trkpt>
      <trkpt lat="48.8266" lon="3.01901">
        <ele>130.5</ele>
        <time>2021-05-23T08:45:34Z</time>
      </trkpt>
      <trkpt lat="48.82661" lon="3.01914">
        <ele>130.7</ele>
        <time>2021-05-23T08:45:36Z</time>
      </trkpt>
      <trkpt lat="48.82662" lon="3.01921">
        <ele>130.7</ele>
        <time>2021-05-23T08:45:37Z</time>
      </trkpt>
      <trkpt lat="48.82671" lon="3.02034">
        <ele>128.4</ele>
        <time>2021-05-23T08:45:51Z</time>
      </trkpt>
      <trkpt lat="48.8267" lon="3.02064">
        <ele>127.6</ele>
        <time>2021-05-23T08:45:54Z</time>
      </trkpt>
      <trkpt lat="48.82669" lon="3.02074">
        <ele>127.3</ele>
        <time>2021-05-23T08:45:55Z</time>
      </trkpt>
      <trkpt lat="48.82658" lon="3.02149">
        <ele>124.6</ele>
        <time>2021-05-23T08:46:02Z</time>
      </trkpt>
      <trkpt lat="48.82658" lon="3.0216">
        <ele>124.3</ele>
        <time>2021-05-23T08:46:03Z</time>
      </trkpt>
      <trkpt lat="48.82655" lon="3.02254">
        <ele>120.9</ele>
        <time>2021-05-23T08:46:12Z</time>
      </trkpt>
      <trkpt lat="48.82653" lon="3.02255">
        <ele>120.7</ele>
        <time>2021-05-23T08:46:13Z</time>
      </trkpt>
      <trkpt lat="48.82651" lon="3.02253">
        <ele>120.5</ele>
        <time>2021-05-23T08:46:14Z</time>
      </trkpt>
      <trkpt lat="48.82649" lon="3.0225">
        <ele>120.5</ele>
        <time>2021-05-23T08:46:15Z</time>
      </trkpt>
      <trkpt lat="48.82646" lon="3.02246">
        <ele>120.4</ele>
        <time>2021-05-23T08:46:16Z</time>
      </trkpt>
      <trkpt lat="48.82644" lon="3.02243">
        <ele>120.3</ele>
        <time>2021-05-23T08:46:17Z</time>
      </trkpt>
      <trkpt lat="48.82641" lon="3.02239">
        <ele>120.2</ele>
        <time>2021-05-23T08:46:18Z</time>
      </trkpt>
      <trkpt lat="48.82601" lon="3.02163">
        <ele>118.7</ele>
        <time>2021-05-23T08:46:32Z</time>
      </trkpt>
      <trkpt lat="48.82552" lon="3.02071">
        <ele>115.6</ele>
        <time>2021-05-23T08:46:46Z</time>
      </trkpt>
      <trkpt lat="48.82546" lon="3.02057">
        <ele>115.5</ele>
        <time>2021-05-23T08:46:48Z</time>
      </trkpt>
      <trkpt lat="48.82539" lon="3.02045">
        <ele>115.2</ele>
        <time>2021-05-23T08:46:50Z</time>
      </trkpt>
      <trkpt lat="48.82537" lon="3.02038">
        <ele>115.2</ele>
        <time>2021-05-23T08:46:51Z</time>
      </trkpt>
      <trkpt lat="48.82506" lon="3.01967">
        <ele>114.4</ele>
        <time>2021-05-23T08:47:01Z</time>
      </trkpt>
      <trkpt lat="48.82502" lon="3.0196">
        <ele>114.2</ele>
        <time>2021-05-23T08:47:02Z</time>
      </trkpt>
      <trkpt lat="48.82477" lon="3.01918">
        <ele>113.3</ele>
        <time>2021-05-23T08:47:08Z</time>
      </trkpt>
      <trkpt lat="48.8247" lon="3.01904">
        <ele>113.4</ele>
        <time>2021-05-23T08:47:10Z</time>
      </trkpt>
      <trkpt lat="48.82419" lon="3.01784">
        <ele>113.2</ele>
        <time>2021-05-23T08:47:26Z</time>
      </trkpt>
      <trkpt lat="48.82415" lon="3.01776">
        <ele>113.3</ele>
        <time>2021-05-23T08:47:27Z</time>
      </trkpt>
      <trkpt lat="48.82372" lon="3.01692">
        <ele>112.3</ele>
        <time>2021-05-23T08:47:39Z</time>
      </trkpt>
      <trkpt lat="48.82364" lon="3.01677">
        <ele>111.9</ele>
        <time>2021-05-23T08:47:41Z</time>
      </trkpt>
      <trkpt lat="48.82354" lon="3.01654">
        <ele>111.6</ele>
        <time>2021-05-23T08:47:44Z</time>
      </trkpt>
      <trkpt lat="48.82349" lon="3.01638">
        <ele>111.5</ele>
        <time>2021-05-23T08:47:46Z</time>
      </trkpt>
      <trkpt lat="48.82334" lon="3.0159">
        <ele>110.9</ele>
        <time>2021-05-23T08:47:52Z</time>
      </trkpt>
      <trkpt lat="48.8233" lon="3.01585">
        <ele>110.7</ele>
        <time>2021-05-23T08:47:53Z</time>
      </trkpt>
      <trkpt lat="48.82326" lon="3.01579">
        <ele>110.5</ele>
        <time>2021-05-23T08:47:54Z</time>
      </trkpt>
      <trkpt lat="48.8231" lon="3.01551">
        <ele>109.2</ele>
        <time>2021-05-23T08:47:58Z</time>
      </trkpt>
      <trkpt lat="48.82304" lon="3.01547">
        <ele>108.6</ele>
        <time>2021-05-23T08:47:59Z</time>
      </trkpt>
      <trkpt lat="48.82297" lon="3.01547">
        <ele>107.9</ele>
        <time>2021-05-23T08:48:00Z</time>
      </trkpt>
      <trkpt lat="48.82272" lon="3.01548">
        <ele>105.2</ele>
        <time>2021-05-23T08:48:03Z</time>
      </trkpt>
      <trkpt lat="48.82264" lon="3.01548">
        <ele>104.3</ele>
        <time>2021-05-23T08:48:04Z</time>
      </trkpt>
      <trkpt lat="48.82242" lon="3.01551">
        <ele>101.9</ele>
        <time>2021-05-23T08:48:08Z</time>
      </trkpt>
      <trkpt lat="48.82239" lon="3.01554">
        <ele>101.7</ele>
        <time>2021-05-23T08:48:09Z</time>
      </trkpt>
      <trkpt lat="48.82237" lon="3.01558">
        <ele>101.6</ele>
        <time>2021-05-23T08:48:10Z</time>
      </trkpt>
      <trkpt lat="48.82236" lon="3.01563">
        <ele>101.7</ele>
        <time>2021-05-23T08:48:11Z</time>
      </trkpt>
      <trkpt lat="48.82236" lon="3.01568">
        <ele>101.9</ele>
        <time>2021-05-23T08:48:12Z</time>
      </trkpt>
      <trkpt lat="48.82237" lon="3.01574">
        <ele>102.1</ele>
        <time>2021-05-23T08:48:13Z</time>
      </trkpt>
      <trkpt lat="48.82236" lon="3.0158">
        <ele>102.2</ele>
        <time>2021-05-23T08:48:14Z</time>
      </trkpt>
      <trkpt lat="48.82235" lon="3.01585">
        <ele>102.2</ele>
        <time>2021-05-23T08:48:15Z</time>
      </trkpt>
      <trkpt lat="48.82234" lon="3.01591">
        <ele>101.9</ele>
        <time>2021-05-23T08:48:16Z</time>
      </trkpt>
      <trkpt lat="48.82234" lon="3.01597">
        <ele>101.6</ele>
        <time>2021-05-23T08:48:17Z</time>
      </trkpt>
      <trkpt lat="48.82234" lon="3.01603">
        <ele>101.4</ele>
        <time>2021-05-23T08:48:18Z</time>
      </trkpt>
      <trkpt lat="48.82248" lon="3.01652">
        <ele>102.1</ele>
        <time>2021-05-23T08:48:28Z</time>
      </trkpt>
      <trkpt lat="48.82268" lon="3.0169">
        <ele>102</ele>
        <time>2021-05-23T08:48:35Z</time>
      </trkpt>
      <trkpt lat="48.82274" lon="3.01713">
        <ele>101.1</ele>
        <time>2021-05-23T08:48:38Z</time>
      </trkpt>
      <trkpt lat="48.82274" lon="3.01722">
        <ele>100.6</ele>
        <time>2021-05-23T08:48:39Z</time>
      </trkpt>
      <trkpt lat="48.82274" lon="3.0173">
        <ele>100.1</ele>
        <time>2021-05-23T08:48:40Z</time>
      </trkpt>
      <trkpt lat="48.82273" lon="3.01745">
        <ele>99.2</ele>
        <time>2021-05-23T08:48:42Z</time>
      </trkpt>
      <trkpt lat="48.82274" lon="3.01751">
        <ele>98.9</ele>
        <time>2021-05-23T08:48:43Z</time>
      </trkpt>
      <trkpt lat="48.82277" lon="3.01794">
        <ele>97</ele>
        <time>2021-05-23T08:48:48Z</time>
      </trkpt>
      <trkpt lat="48.8228" lon="3.01811">
        <ele>96.4</ele>
        <time>2021-05-23T08:48:50Z</time>
      </trkpt>
      <trkpt lat="48.82281" lon="3.0182">
        <ele>96.2</ele>
        <time>2021-05-23T08:48:51Z</time>
      </trkpt>
      <trkpt lat="48.82282" lon="3.01828">
        <ele>96</ele>
        <time>2021-05-23T08:48:52Z</time>
      </trkpt>
      <trkpt lat="48.82288" lon="3.01845">
        <ele>96.4</ele>
        <time>2021-05-23T08:48:54Z</time>
      </trkpt>
      <trkpt lat="48.8229" lon="3.01852">
        <ele>96.7</ele>
        <time>2021-05-23T08:48:55Z</time>
      </trkpt>
      <trkpt lat="48.82296" lon="3.01888">
        <ele>97.4</ele>
        <time>2021-05-23T08:49:01Z</time>
      </trkpt>
      <trkpt lat="48.82326" lon="3.01936">
        <ele>101.1</ele>
        <time>2021-05-23T08:49:11Z</time>
      </trkpt>
      <trkpt lat="48.82342" lon="3.01985">
        <ele>99.3</ele>
        <time>2021-05-23T08:49:16Z</time>
      </trkpt>
      <trkpt lat="48.82344" lon="3.01995">
        <ele>98.7</ele>
        <time>2021-05-23T08:49:17Z</time>
      </trkpt>
      <trkpt lat="48.82356" lon="3.0204">
        <ele>96.3</ele>
        <time>2021-05-23T08:49:22Z</time>
      </trkpt>
      <trkpt lat="48.82367" lon="3.02088">
        <ele>93.8</ele>
        <time>2021-05-23T08:49:27Z</time>
      </trkpt>
      <trkpt lat="48.82379" lon="3.02143">
        <ele>94.7</ele>
        <time>2021-05-23T08:49:34Z</time>
      </trkpt>
      <trkpt lat="48.82379" lon="3.0215">
        <ele>94.7</ele>
        <time>2021-05-23T08:49:35Z</time>
      </trkpt>
      <trkpt lat="48.8238" lon="3.02156">
        <ele>94.8</ele>
        <time>2021-05-23T08:49:36Z</time>
      </trkpt>
      <trkpt lat="48.82382" lon="3.02161">
        <ele>94.9</ele>
        <time>2021-05-23T08:49:37Z</time>
      </trkpt>
      <trkpt lat="48.82384" lon="3.02167">
        <ele>95.1</ele>
        <time>2021-05-23T08:49:38Z</time>
      </trkpt>
      <trkpt lat="48.82387" lon="3.02179">
        <ele>95.2</ele>
        <time>2021-05-23T08:49:40Z</time>
      </trkpt>
      <trkpt lat="48.82387" lon="3.02187">
        <ele>95.1</ele>
        <time>2021-05-23T08:49:41Z</time>
      </trkpt>
      <trkpt lat="48.82386" lon="3.02194">
        <ele>94.8</ele>
        <time>2021-05-23T08:49:42Z</time>
      </trkpt>
      <trkpt lat="48.82385" lon="3.02202">
        <ele>94.6</ele>
        <time>2021-05-23T08:49:43Z</time>
      </trkpt>
      <trkpt lat="48.82386" lon="3.02208">
        <ele>94.5</ele>
        <time>2021-05-23T08:49:44Z</time>
      </trkpt>
      <trkpt lat="48.82388" lon="3.02214">
        <ele>94.6</ele>
        <time>2021-05-23T08:49:45Z</time>
      </trkpt>
      <trkpt lat="48.8239" lon="3.02219">
        <ele>94.8</ele>
        <time>2021-05-23T08:49:46Z</time>
      </trkpt>
      <trkpt lat="48.82394" lon="3.02224">
        <ele>95.1</ele>
        <time>2021-05-23T08:49:47Z</time>
      </trkpt>
      <trkpt lat="48.82429" lon="3.02268">
        <ele>98.6</ele>
        <time>2021-05-23T08:49:58Z</time>
      </trkpt>
      <trkpt lat="48.82462" lon="3.02284">
        <ele>103.3</ele>
        <time>2021-05-23T08:50:09Z</time>
      </trkpt>
      <trkpt lat="48.82472" lon="3.02285">
        <ele>104.6</ele>
        <time>2021-05-23T08:50:13Z</time>
      </trkpt>
      <trkpt lat="48.82474" lon="3.02287">
        <ele>104.9</ele>
        <time>2021-05-23T08:50:14Z</time>
      </trkpt>
      <trkpt lat="48.82476" lon="3.02289">
        <ele>105</ele>
        <time>2021-05-23T08:50:15Z</time>
      </trkpt>
      <trkpt lat="48.82477" lon="3.02293">
        <ele>105.2</ele>
        <time>2021-05-23T08:50:16Z</time>
      </trkpt>
      <trkpt lat="48.82478" lon="3.02297">
        <ele>105.2</ele>
        <time>2021-05-23T08:50:17Z</time>
      </trkpt>
      <trkpt lat="48.8248" lon="3.02301">
        <ele>105.3</ele>
        <time>2021-05-23T08:50:18Z</time>
      </trkpt>
      <trkpt lat="48.82481" lon="3.02304">
        <ele>105.3</ele>
        <time>2021-05-23T08:50:19Z</time>
      </trkpt>
      <trkpt lat="48.82481" lon="3.02309">
        <ele>105.3</ele>
        <time>2021-05-23T08:50:20Z</time>
      </trkpt>
      <trkpt lat="48.82483" lon="3.02313">
        <ele>105.4</ele>
        <time>2021-05-23T08:50:21Z</time>
      </trkpt>
      <trkpt lat="48.82484" lon="3.02317">
        <ele>105.4</ele>
        <time>2021-05-23T08:50:22Z</time>
      </trkpt>
      <trkpt lat="48.82485" lon="3.02321">
        <ele>105.4</ele>
        <time>2021-05-23T08:50:23Z</time>
      </trkpt>
      <trkpt lat="48.82487" lon="3.02325">
        <ele>105.5</ele>
        <time>2021-05-23T08:50:24Z</time>
      </trkpt>
      <trkpt lat="48.82502" lon="3.02376">
        <ele>105.6</ele>
        <time>2021-05-23T08:50:37Z</time>
      </trkpt>
      <trkpt lat="48.82522" lon="3.02413">
        <ele>105.7</ele>
        <time>2021-05-23T08:50:46Z</time>
      </trkpt>
      <trkpt lat="48.82552" lon="3.02449">
        <ele>107.5</ele>
        <time>2021-05-23T08:50:59Z</time>
      </trkpt>
      <trkpt lat="48.82576" lon="3.02452">
        <ele>109.1</ele>
        <time>2021-05-23T08:51:11Z</time>
      </trkpt>
      <trkpt lat="48.82599" lon="3.02459">
        <ele>111</ele>
        <time>2021-05-23T08:51:25Z</time>
      </trkpt>
      <trkpt lat="48.82613" lon="3.02458">
        <ele>112.4</ele>
        <time>2021-05-23T08:51:36Z</time>
      </trkpt>
      <trkpt lat="48.82633" lon="3.02463">
        <ele>114.2</ele>
        <time>2021-05-23T08:51:48Z</time>
      </trkpt>
      <trkpt lat="48.82651" lon="3.02464">
        <ele>115.9</ele>
        <time>2021-05-23T08:52:01Z</time>
      </trkpt>
      <trkpt lat="48.82668" lon="3.02466">
        <ele>117.5</ele>
        <time>2021-05-23T08:52:13Z</time>
      </trkpt>
      <trkpt lat="48.82685" lon="3.02472">
        <ele>118.9</ele>
        <time>2021-05-23T08:52:24Z</time>
      </trkpt>
      <trkpt lat="48.82689" lon="3.02474">
        <ele>119.2</ele>
        <time>2021-05-23T08:52:26Z</time>
      </trkpt>
      <trkpt lat="48.8271" lon="3.02489">
        <ele>120.8</ele>
        <time>2021-05-23T08:52:39Z</time>
      </trkpt>
      <trkpt lat="48.82726" lon="3.02521">
        <ele>121.6</ele>
        <time>2021-05-23T08:52:50Z</time>
      </trkpt>
      <trkpt lat="48.82752" lon="3.02556">
        <ele>122.8</ele>
        <time>2021-05-23T08:53:03Z</time>
      </trkpt>
      <trkpt lat="48.8278" lon="3.02613">
        <ele>123.7</ele>
        <time>2021-05-23T08:53:18Z</time>
      </trkpt>
      <trkpt lat="48.82808" lon="3.02662">
        <ele>124.8</ele>
        <time>2021-05-23T08:53:31Z</time>
      </trkpt>
      <trkpt lat="48.82848" lon="3.02728">
        <ele>126.4</ele>
        <time>2021-05-23T08:53:46Z</time>
      </trkpt>
      <trkpt lat="48.82879" lon="3.02763">
        <ele>126.8</ele>
        <time>2021-05-23T08:53:59Z</time>
      </trkpt>
      <trkpt lat="48.82882" lon="3.02765">
        <ele>126.8</ele>
        <time>2021-05-23T08:54:00Z</time>
      </trkpt>
      <trkpt lat="48.82917" lon="3.02793">
        <ele>126.4</ele>
        <time>2021-05-23T08:54:10Z</time>
      </trkpt>
      <trkpt lat="48.8292" lon="3.02797">
        <ele>126.4</ele>
        <time>2021-05-23T08:54:11Z</time>
      </trkpt>
      <trkpt lat="48.82944" lon="3.02818">
        <ele>126.5</ele>
        <time>2021-05-23T08:54:18Z</time>
      </trkpt>
      <trkpt lat="48.82945" lon="3.02825">
        <ele>126.3</ele>
        <time>2021-05-23T08:54:19Z</time>
      </trkpt>
      <trkpt lat="48.82944" lon="3.02831">
        <ele>126.1</ele>
        <time>2021-05-23T08:54:20Z</time>
      </trkpt>
      <trkpt lat="48.82937" lon="3.02865">
        <ele>126.1</ele>
        <time>2021-05-23T08:54:25Z</time>
      </trkpt>
      <trkpt lat="48.82925" lon="3.02947">
        <ele>126.7</ele>
        <time>2021-05-23T08:54:36Z</time>
      </trkpt>
      <trkpt lat="48.82923" lon="3.02953">
        <ele>126.7</ele>
        <time>2021-05-23T08:54:37Z</time>
      </trkpt>
      <trkpt lat="48.82912" lon="3.02982">
        <ele>126.6</ele>
        <time>2021-05-23T08:54:42Z</time>
      </trkpt>
      <trkpt lat="48.8291" lon="3.02988">
        <ele>126.6</ele>
        <time>2021-05-23T08:54:43Z</time>
      </trkpt>
      <trkpt lat="48.82899" lon="3.0303">
        <ele>125.7</ele>
        <time>2021-05-23T08:54:49Z</time>
      </trkpt>
      <trkpt lat="48.82898" lon="3.03038">
        <ele>125.6</ele>
        <time>2021-05-23T08:54:50Z</time>
      </trkpt>
      <trkpt lat="48.82898" lon="3.03169">
        <ele>124.3</ele>
        <time>2021-05-23T08:55:06Z</time>
      </trkpt>
      <trkpt lat="48.82898" lon="3.03178">
        <ele>124.1</ele>
        <time>2021-05-23T08:55:07Z</time>
      </trkpt>
      <trkpt lat="48.82885" lon="3.03307">
        <ele>120.9</ele>
        <time>2021-05-23T08:55:22Z</time>
      </trkpt>
      <trkpt lat="48.82862" lon="3.03395">
        <ele>119</ele>
        <time>2021-05-23T08:55:32Z</time>
      </trkpt>
      <trkpt lat="48.82802" lon="3.0352">
        <ele>115</ele>
        <time>2021-05-23T08:55:47Z</time>
      </trkpt>
      <trkpt lat="48.82793" lon="3.0354">
        <ele>114.3</ele>
        <time>2021-05-23T08:55:50Z</time>
      </trkpt>
      <trkpt lat="48.82791" lon="3.03547">
        <ele>114.1</ele>
        <time>2021-05-23T08:55:51Z</time>
      </trkpt>
      <trkpt lat="48.82791" lon="3.03555">
        <ele>114</ele>
        <time>2021-05-23T08:55:52Z</time>
      </trkpt>
      <trkpt lat="48.82791" lon="3.03611">
        <ele>112.7</ele>
        <time>2021-05-23T08:56:02Z</time>
      </trkpt>
      <trkpt lat="48.82794" lon="3.03698">
        <ele>110.2</ele>
        <time>2021-05-23T08:56:15Z</time>
      </trkpt>
      <trkpt lat="48.82794" lon="3.03705">
        <ele>109.9</ele>
        <time>2021-05-23T08:56:16Z</time>
      </trkpt>
      <trkpt lat="48.82793" lon="3.03713">
        <ele>109.7</ele>
        <time>2021-05-23T08:56:17Z</time>
      </trkpt>
      <trkpt lat="48.82786" lon="3.03833">
        <ele>106.3</ele>
        <time>2021-05-23T08:56:32Z</time>
      </trkpt>
      <trkpt lat="48.82785" lon="3.03941">
        <ele>102</ele>
        <time>2021-05-23T08:56:45Z</time>
      </trkpt>
      <trkpt lat="48.82783" lon="3.04039">
        <ele>97.8</ele>
        <time>2021-05-23T08:56:56Z</time>
      </trkpt>
      <trkpt lat="48.82775" lon="3.0416">
        <ele>93</ele>
        <time>2021-05-23T08:57:08Z</time>
      </trkpt>
      <trkpt lat="48.82772" lon="3.04176">
        <ele>92.1</ele>
        <time>2021-05-23T08:57:11Z</time>
      </trkpt>
      <trkpt lat="48.82768" lon="3.04178">
        <ele>92</ele>
        <time>2021-05-23T08:57:12Z</time>
      </trkpt>
      <trkpt lat="48.82765" lon="3.04179">
        <ele>92</ele>
        <time>2021-05-23T08:57:13Z</time>
      </trkpt>
      <trkpt lat="48.82704" lon="3.04163">
        <ele>92.6</ele>
        <time>2021-05-23T08:57:28Z</time>
      </trkpt>
      <trkpt lat="48.827" lon="3.04163">
        <ele>92.5</ele>
        <time>2021-05-23T08:57:29Z</time>
      </trkpt>
      <trkpt lat="48.82624" lon="3.04152">
        <ele>90.1</ele>
        <time>2021-05-23T08:57:46Z</time>
      </trkpt>
      <trkpt lat="48.82574" lon="3.04143">
        <ele>87.7</ele>
        <time>2021-05-23T08:57:56Z</time>
      </trkpt>
      <trkpt lat="48.82569" lon="3.04142">
        <ele>87.6</ele>
        <time>2021-05-23T08:57:57Z</time>
      </trkpt>
      <trkpt lat="48.82514" lon="3.04129">
        <ele>85.5</ele>
        <time>2021-05-23T08:58:07Z</time>
      </trkpt>
      <trkpt lat="48.82508" lon="3.04127">
        <ele>85.3</ele>
        <time>2021-05-23T08:58:08Z</time>
      </trkpt>
      <trkpt lat="48.82415" lon="3.04064">
        <ele>81.6</ele>
        <time>2021-05-23T08:58:25Z</time>
      </trkpt>
      <trkpt lat="48.82405" lon="3.04047">
        <ele>81.7</ele>
        <time>2021-05-23T08:58:33Z</time>
      </trkpt>
      <trkpt lat="48.82403" lon="3.04045">
        <ele>81.7</ele>
        <time>2021-05-23T08:58:35Z</time>
      </trkpt>
      <trkpt lat="48.82402" lon="3.04045">
        <ele>81.7</ele>
        <time>2021-05-23T08:58:36Z</time>
      </trkpt>
      <trkpt lat="48.82399" lon="3.04046">
        <ele>81.5</ele>
        <time>2021-05-23T08:58:37Z</time>
      </trkpt>
      <trkpt lat="48.82396" lon="3.04045">
        <ele>81.4</ele>
        <time>2021-05-23T08:58:38Z</time>
      </trkpt>
      <trkpt lat="48.82392" lon="3.04044">
        <ele>81.2</ele>
        <time>2021-05-23T08:58:39Z</time>
      </trkpt>
      <trkpt lat="48.82355" lon="3.04029">
        <ele>79.8</ele>
        <time>2021-05-23T08:58:50Z</time>
      </trkpt>
      <trkpt lat="48.82343" lon="3.04023">
        <ele>79.2</ele>
        <time>2021-05-23T08:58:54Z</time>
      </trkpt>
      <trkpt lat="48.82338" lon="3.04022">
        <ele>79</ele>
        <time>2021-05-23T08:58:55Z</time>
      </trkpt>
      <trkpt lat="48.82258" lon="3.03975">
        <ele>75</ele>
        <time>2021-05-23T08:59:10Z</time>
      </trkpt>
      <trkpt lat="48.82198" lon="3.03908">
        <ele>74.2</ele>
        <time>2021-05-23T08:59:23Z</time>
      </trkpt>
      <trkpt lat="48.82188" lon="3.0389">
        <ele>74</ele>
        <time>2021-05-23T08:59:26Z</time>
      </trkpt>
      <trkpt lat="48.82184" lon="3.03885">
        <ele>73.9</ele>
        <time>2021-05-23T08:59:27Z</time>
      </trkpt>
      <trkpt lat="48.82179" lon="3.03882">
        <ele>73.8</ele>
        <time>2021-05-23T08:59:28Z</time>
      </trkpt>
      <trkpt lat="48.82174" lon="3.03879">
        <ele>73.7</ele>
        <time>2021-05-23T08:59:29Z</time>
      </trkpt>
      <trkpt lat="48.82169" lon="3.03877">
        <ele>73.5</ele>
        <time>2021-05-23T08:59:30Z</time>
      </trkpt>
      <trkpt lat="48.82159" lon="3.03874">
        <ele>73.2</ele>
        <time>2021-05-23T08:59:32Z</time>
      </trkpt>
      <trkpt lat="48.82154" lon="3.03873">
        <ele>73</ele>
        <time>2021-05-23T08:59:33Z</time>
      </trkpt>
      <trkpt lat="48.82149" lon="3.0387">
        <ele>72.8</ele>
        <time>2021-05-23T08:59:34Z</time>
      </trkpt>
      <trkpt lat="48.82146" lon="3.03867">
        <ele>72.7</ele>
        <time>2021-05-23T08:59:35Z</time>
      </trkpt>
      <trkpt lat="48.82143" lon="3.03863">
        <ele>72.6</ele>
        <time>2021-05-23T08:59:36Z</time>
      </trkpt>
      <trkpt lat="48.82141" lon="3.03858">
        <ele>72.6</ele>
        <time>2021-05-23T08:59:37Z</time>
      </trkpt>
      <trkpt lat="48.8214" lon="3.03852">
        <ele>72.6</ele>
        <time>2021-05-23T08:59:38Z</time>
      </trkpt>
      <trkpt lat="48.82141" lon="3.03846">
        <ele>72.7</ele>
        <time>2021-05-23T08:59:39Z</time>
      </trkpt>
      <trkpt lat="48.82142" lon="3.03838">
        <ele>72.8</ele>
        <time>2021-05-23T08:59:40Z</time>
      </trkpt>
      <trkpt lat="48.82144" lon="3.03831">
        <ele>72.9</ele>
        <time>2021-05-23T08:59:41Z</time>
      </trkpt>
      <trkpt lat="48.82146" lon="3.03824">
        <ele>73</ele>
        <time>2021-05-23T08:59:42Z</time>
      </trkpt>
      <trkpt lat="48.82147" lon="3.03816">
        <ele>73</ele>
        <time>2021-05-23T08:59:43Z</time>
      </trkpt>
      <trkpt lat="48.82148" lon="3.03809">
        <ele>73</ele>
        <time>2021-05-23T08:59:44Z</time>
      </trkpt>
      <trkpt lat="48.8215" lon="3.03802">
        <ele>73.1</ele>
        <time>2021-05-23T08:59:45Z</time>
      </trkpt>
      <trkpt lat="48.82155" lon="3.03736">
        <ele>73.3</ele>
        <time>2021-05-23T08:59:57Z</time>
      </trkpt>
      <trkpt lat="48.82151" lon="3.03731">
        <ele>73</ele>
        <time>2021-05-23T08:59:59Z</time>
      </trkpt>
      <trkpt lat="48.82148" lon="3.03729">
        <ele>72.8</ele>
        <time>2021-05-23T09:00:00Z</time>
      </trkpt>
      <trkpt lat="48.82145" lon="3.03728">
        <ele>72.7</ele>
        <time>2021-05-23T09:00:01Z</time>
      </trkpt>
      <trkpt lat="48.82127" lon="3.03723">
        <ele>71.5</ele>
        <time>2021-05-23T09:00:06Z</time>
      </trkpt>
      <trkpt lat="48.82102" lon="3.03722">
        <ele>69.9</ele>
        <time>2021-05-23T09:00:11Z</time>
      </trkpt>
      <trkpt lat="48.82091" lon="3.03724">
        <ele>69.2</ele>
        <time>2021-05-23T09:00:13Z</time>
      </trkpt>
      <trkpt lat="48.82085" lon="3.03727">
        <ele>68.8</ele>
        <time>2021-05-23T09:00:14Z</time>
      </trkpt>
      <trkpt lat="48.8208" lon="3.03732">
        <ele>68.6</ele>
        <time>2021-05-23T09:00:15Z</time>
      </trkpt>
      <trkpt lat="48.82074" lon="3.03738">
        <ele>68.3</ele>
        <time>2021-05-23T09:00:16Z</time>
      </trkpt>
      <trkpt lat="48.82068" lon="3.03742">
        <ele>68</ele>
        <time>2021-05-23T09:00:17Z</time>
      </trkpt>
      <trkpt lat="48.8206" lon="3.03743">
        <ele>67.6</ele>
        <time>2021-05-23T09:00:18Z</time>
      </trkpt>
      <trkpt lat="48.82053" lon="3.03742">
        <ele>67.1</ele>
        <time>2021-05-23T09:00:19Z</time>
      </trkpt>
      <trkpt lat="48.82046" lon="3.0374">
        <ele>66.7</ele>
        <time>2021-05-23T09:00:20Z</time>
      </trkpt>
      <trkpt lat="48.8203" lon="3.03734">
        <ele>65.7</ele>
        <time>2021-05-23T09:00:23Z</time>
      </trkpt>
      <trkpt lat="48.81979" lon="3.03719">
        <ele>63.7</ele>
        <time>2021-05-23T09:00:35Z</time>
      </trkpt>
      <trkpt lat="48.81915" lon="3.03707">
        <ele>62.5</ele>
        <time>2021-05-23T09:00:49Z</time>
      </trkpt>
      <trkpt lat="48.81877" lon="3.03718">
        <ele>62.6</ele>
        <time>2021-05-23T09:00:57Z</time>
      </trkpt>
      <trkpt lat="48.81804" lon="3.0378">
        <ele>66.3</ele>
        <time>2021-05-23T09:01:13Z</time>
      </trkpt>
      <trkpt lat="48.81795" lon="3.03786">
        <ele>67.3</ele>
        <time>2021-05-23T09:01:15Z</time>
      </trkpt>
      <trkpt lat="48.81792" lon="3.03785">
        <ele>67.7</ele>
        <time>2021-05-23T09:01:16Z</time>
      </trkpt>
      <trkpt lat="48.81788" lon="3.03784">
        <ele>68.1</ele>
        <time>2021-05-23T09:01:17Z</time>
      </trkpt>
      <trkpt lat="48.81757" lon="3.03786">
        <ele>71.6</ele>
        <time>2021-05-23T09:01:30Z</time>
      </trkpt>
      <trkpt lat="48.81735" lon="3.03786">
        <ele>74.8</ele>
        <time>2021-05-23T09:01:44Z</time>
      </trkpt>
      <trkpt lat="48.81734" lon="3.03786">
        <ele>75</ele>
        <time>2021-05-23T09:01:45Z</time>
      </trkpt>
      <trkpt lat="48.81732" lon="3.03786">
        <ele>75.2</ele>
        <time>2021-05-23T09:01:46Z</time>
      </trkpt>
      <trkpt lat="48.81716" lon="3.03783">
        <ele>77.7</ele>
        <time>2021-05-23T09:01:58Z</time>
      </trkpt>
      <trkpt lat="48.81709" lon="3.03782">
        <ele>78.7</ele>
        <time>2021-05-23T09:02:02Z</time>
      </trkpt>
      <trkpt lat="48.81708" lon="3.03781">
        <ele>79</ele>
        <time>2021-05-23T09:02:03Z</time>
      </trkpt>
      <trkpt lat="48.81706" lon="3.03781">
        <ele>79.2</ele>
        <time>2021-05-23T09:02:04Z</time>
      </trkpt>
      <trkpt lat="48.81704" lon="3.03781">
        <ele>79.5</ele>
        <time>2021-05-23T09:02:05Z</time>
      </trkpt>
      <trkpt lat="48.81703" lon="3.0378">
        <ele>79.8</ele>
        <time>2021-05-23T09:02:06Z</time>
      </trkpt>
      <trkpt lat="48.81701" lon="3.03779">
        <ele>80</ele>
        <time>2021-05-23T09:02:07Z</time>
      </trkpt>
      <trkpt lat="48.81699" lon="3.03778">
        <ele>80.3</ele>
        <time>2021-05-23T09:02:08Z</time>
      </trkpt>
      <trkpt lat="48.81697" lon="3.03778">
        <ele>80.6</ele>
        <time>2021-05-23T09:02:09Z</time>
      </trkpt>
      <trkpt lat="48.81696" lon="3.03778">
        <ele>80.8</ele>
        <time>2021-05-23T09:02:10Z</time>
      </trkpt>
      <trkpt lat="48.81694" lon="3.03778">
        <ele>81</ele>
        <time>2021-05-23T09:02:11Z</time>
      </trkpt>
      <trkpt lat="48.81693" lon="3.03777">
        <ele>81.2</ele>
        <time>2021-05-23T09:02:12Z</time>
      </trkpt>
      <trkpt lat="48.81673" lon="3.03764">
        <ele>84.2</ele>
        <time>2021-05-23T09:02:25Z</time>
      </trkpt>
      <trkpt lat="48.81654" lon="3.03762">
        <ele>86.2</ele>
        <time>2021-05-23T09:02:37Z</time>
      </trkpt>
      <trkpt lat="48.81639" lon="3.03761">
        <ele>87.4</ele>
        <time>2021-05-23T09:02:50Z</time>
      </trkpt>
      <trkpt lat="48.81622" lon="3.03759">
        <ele>88.8</ele>
        <time>2021-05-23T09:03:02Z</time>
      </trkpt>
      <trkpt lat="48.8161" lon="3.03756">
        <ele>89.8</ele>
        <time>2021-05-23T09:03:13Z</time>
      </trkpt>
      <trkpt lat="48.81595" lon="3.03753">
        <ele>91.1</ele>
        <time>2021-05-23T09:03:24Z</time>
      </trkpt>
      <trkpt lat="48.81592" lon="3.03753">
        <ele>91.3</ele>
        <time>2021-05-23T09:03:26Z</time>
      </trkpt>
      <trkpt lat="48.81585" lon="3.03751">
        <ele>91.9</ele>
        <time>2021-05-23T09:03:31Z</time>
      </trkpt>
      <trkpt lat="48.81583" lon="3.0375">
        <ele>92</ele>
        <time>2021-05-23T09:03:32Z</time>
      </trkpt>
      <trkpt lat="48.81582" lon="3.0375">
        <ele>92.1</ele>
        <time>2021-05-23T09:03:33Z</time>
      </trkpt>
      <trkpt lat="48.8158" lon="3.0375">
        <ele>92.2</ele>
        <time>2021-05-23T09:03:34Z</time>
      </trkpt>
      <trkpt lat="48.81564" lon="3.03745">
        <ele>93.1</ele>
        <time>2021-05-23T09:03:45Z</time>
      </trkpt>
      <trkpt lat="48.81559" lon="3.03742">
        <ele>93.3</ele>
        <time>2021-05-23T09:03:48Z</time>
      </trkpt>
      <trkpt lat="48.81558" lon="3.0374">
        <ele>93.4</ele>
        <time>2021-05-23T09:03:49Z</time>
      </trkpt>
      <trkpt lat="48.81557" lon="3.03737">
        <ele>93.4</ele>
        <time>2021-05-23T09:03:50Z</time>
      </trkpt>
      <trkpt lat="48.81556" lon="3.03735">
        <ele>93.4</ele>
        <time>2021-05-23T09:03:51Z</time>
      </trkpt>
      <trkpt lat="48.81557" lon="3.0373">
        <ele>93.3</ele>
        <time>2021-05-23T09:03:54Z</time>
      </trkpt>
      <trkpt lat="48.81569" lon="3.03686">
        <ele>91.6</ele>
        <time>2021-05-23T09:04:07Z</time>
      </trkpt>
      <trkpt lat="48.81588" lon="3.0362">
        <ele>87.7</ele>
        <time>2021-05-23T09:04:20Z</time>
      </trkpt>
      <trkpt lat="48.81592" lon="3.03603">
        <ele>86.5</ele>
        <time>2021-05-23T09:04:23Z</time>
      </trkpt>
      <trkpt lat="48.81595" lon="3.03581">
        <ele>85.3</ele>
        <time>2021-05-23T09:04:26Z</time>
      </trkpt>
      <trkpt lat="48.81615" lon="3.03494">
        <ele>85.4</ele>
        <time>2021-05-23T09:04:35Z</time>
      </trkpt>
      <trkpt lat="48.81626" lon="3.03442">
        <ele>86.3</ele>
        <time>2021-05-23T09:04:43Z</time>
      </trkpt>
      <trkpt lat="48.81626" lon="3.03436">
        <ele>86.6</ele>
        <time>2021-05-23T09:04:44Z</time>
      </trkpt>
      <trkpt lat="48.81627" lon="3.03431">
        <ele>86.8</ele>
        <time>2021-05-23T09:04:45Z</time>
      </trkpt>
      <trkpt lat="48.81628" lon="3.03426">
        <ele>87</ele>
        <time>2021-05-23T09:04:46Z</time>
      </trkpt>
      <trkpt lat="48.81629" lon="3.03421">
        <ele>87.2</ele>
        <time>2021-05-23T09:04:47Z</time>
      </trkpt>
      <trkpt lat="48.8163" lon="3.03416">
        <ele>87.3</ele>
        <time>2021-05-23T09:04:48Z</time>
      </trkpt>
      <trkpt lat="48.81631" lon="3.03411">
        <ele>87.4</ele>
        <time>2021-05-23T09:04:49Z</time>
      </trkpt>
      <trkpt lat="48.81632" lon="3.03405">
        <ele>87.4</ele>
        <time>2021-05-23T09:04:50Z</time>
      </trkpt>
      <trkpt lat="48.81644" lon="3.03341">
        <ele>88</ele>
        <time>2021-05-23T09:05:01Z</time>
      </trkpt>
      <trkpt lat="48.81646" lon="3.03314">
        <ele>88</ele>
        <time>2021-05-23T09:05:05Z</time>
      </trkpt>
      <trkpt lat="48.81646" lon="3.03307">
        <ele>88.1</ele>
        <time>2021-05-23T09:05:06Z</time>
      </trkpt>
      <trkpt lat="48.81652" lon="3.03221">
        <ele>88.4</ele>
        <time>2021-05-23T09:05:17Z</time>
      </trkpt>
      <trkpt lat="48.81652" lon="3.03214">
        <ele>88.5</ele>
        <time>2021-05-23T09:05:18Z</time>
      </trkpt>
      <trkpt lat="48.81651" lon="3.03147">
        <ele>89.1</ele>
        <time>2021-05-23T09:05:27Z</time>
      </trkpt>
      <trkpt lat="48.81652" lon="3.03139">
        <ele>88.9</ele>
        <time>2021-05-23T09:05:28Z</time>
      </trkpt>
      <trkpt lat="48.81652" lon="3.03124">
        <ele>88.7</ele>
        <time>2021-05-23T09:05:30Z</time>
      </trkpt>
      <trkpt lat="48.81648" lon="3.03088">
        <ele>88.1</ele>
        <time>2021-05-23T09:05:34Z</time>
      </trkpt>
      <trkpt lat="48.8165" lon="3.03047">
        <ele>86.7</ele>
        <time>2021-05-23T09:05:38Z</time>
      </trkpt>
      <trkpt lat="48.81649" lon="3.03038">
        <ele>86.4</ele>
        <time>2021-05-23T09:05:39Z</time>
      </trkpt>
      <trkpt lat="48.81648" lon="3.03029">
        <ele>86.1</ele>
        <time>2021-05-23T09:05:40Z</time>
      </trkpt>
      <trkpt lat="48.81648" lon="3.03021">
        <ele>85.7</ele>
        <time>2021-05-23T09:05:41Z</time>
      </trkpt>
      <trkpt lat="48.81648" lon="3.03012">
        <ele>85.4</ele>
        <time>2021-05-23T09:05:42Z</time>
      </trkpt>
      <trkpt lat="48.81647" lon="3.02986">
        <ele>84.6</ele>
        <time>2021-05-23T09:05:45Z</time>
      </trkpt>
      <trkpt lat="48.81646" lon="3.02977">
        <ele>84.3</ele>
        <time>2021-05-23T09:05:46Z</time>
      </trkpt>
      <trkpt lat="48.81641" lon="3.02917">
        <ele>82.4</ele>
        <time>2021-05-23T09:05:53Z</time>
      </trkpt>
      <trkpt lat="48.81642" lon="3.02907">
        <ele>82</ele>
        <time>2021-05-23T09:05:54Z</time>
      </trkpt>
      <trkpt lat="48.81642" lon="3.02898">
        <ele>81.7</ele>
        <time>2021-05-23T09:05:55Z</time>
      </trkpt>
      <trkpt lat="48.81642" lon="3.02889">
        <ele>81.4</ele>
        <time>2021-05-23T09:05:56Z</time>
      </trkpt>
      <trkpt lat="48.81641" lon="3.02879">
        <ele>81</ele>
        <time>2021-05-23T09:05:57Z</time>
      </trkpt>
      <trkpt lat="48.81641" lon="3.02869">
        <ele>80.6</ele>
        <time>2021-05-23T09:05:58Z</time>
      </trkpt>
      <trkpt lat="48.81641" lon="3.0286">
        <ele>80.3</ele>
        <time>2021-05-23T09:05:59Z</time>
      </trkpt>
      <trkpt lat="48.81641" lon="3.0285">
        <ele>79.9</ele>
        <time>2021-05-23T09:06:00Z</time>
      </trkpt>
      <trkpt lat="48.81641" lon="3.02842">
        <ele>79.6</ele>
        <time>2021-05-23T09:06:01Z</time>
      </trkpt>
      <trkpt lat="48.8164" lon="3.02833">
        <ele>79.3</ele>
        <time>2021-05-23T09:06:02Z</time>
      </trkpt>
      <trkpt lat="48.81639" lon="3.02825">
        <ele>79</ele>
        <time>2021-05-23T09:06:03Z</time>
      </trkpt>
      <trkpt lat="48.81637" lon="3.02817">
        <ele>78.8</ele>
        <time>2021-05-23T09:06:04Z</time>
      </trkpt>
      <trkpt lat="48.81635" lon="3.02808">
        <ele>78.5</ele>
        <time>2021-05-23T09:06:05Z</time>
      </trkpt>
      <trkpt lat="48.81634" lon="3.028">
        <ele>78.3</ele>
        <time>2021-05-23T09:06:06Z</time>
      </trkpt>
      <trkpt lat="48.81633" lon="3.02791">
        <ele>78</ele>
        <time>2021-05-23T09:06:07Z</time>
      </trkpt>
      <trkpt lat="48.81632" lon="3.02783">
        <ele>77.8</ele>
        <time>2021-05-23T09:06:08Z</time>
      </trkpt>
      <trkpt lat="48.81631" lon="3.02776">
        <ele>77.5</ele>
        <time>2021-05-23T09:06:09Z</time>
      </trkpt>
      <trkpt lat="48.81627" lon="3.02744">
        <ele>76.9</ele>
        <time>2021-05-23T09:06:14Z</time>
      </trkpt>
      <trkpt lat="48.81624" lon="3.02722">
        <ele>76.9</ele>
        <time>2021-05-23T09:06:17Z</time>
      </trkpt>
      <trkpt lat="48.81623" lon="3.02715">
        <ele>76.9</ele>
        <time>2021-05-23T09:06:18Z</time>
      </trkpt>
      <trkpt lat="48.8162" lon="3.02703">
        <ele>77</ele>
        <time>2021-05-23T09:06:20Z</time>
      </trkpt>
      <trkpt lat="48.81619" lon="3.02696">
        <ele>77</ele>
        <time>2021-05-23T09:06:21Z</time>
      </trkpt>
      <trkpt lat="48.81603" lon="3.02615">
        <ele>76.9</ele>
        <time>2021-05-23T09:06:33Z</time>
      </trkpt>
      <trkpt lat="48.81601" lon="3.02609">
        <ele>76.9</ele>
        <time>2021-05-23T09:06:34Z</time>
      </trkpt>
      <trkpt lat="48.81585" lon="3.02537">
        <ele>77.3</ele>
        <time>2021-05-23T09:06:45Z</time>
      </trkpt>
      <trkpt lat="48.81574" lon="3.02483">
        <ele>77.4</ele>
        <time>2021-05-23T09:06:55Z</time>
      </trkpt>
      <trkpt lat="48.81573" lon="3.02476">
        <ele>77.4</ele>
        <time>2021-05-23T09:06:56Z</time>
      </trkpt>
      <trkpt lat="48.81571" lon="3.02372">
        <ele>77.9</ele>
        <time>2021-05-23T09:07:09Z</time>
      </trkpt>
      <trkpt lat="48.8157" lon="3.02364">
        <ele>78.1</ele>
        <time>2021-05-23T09:07:10Z</time>
      </trkpt>
      <trkpt lat="48.81569" lon="3.02356">
        <ele>78.4</ele>
        <time>2021-05-23T09:07:11Z</time>
      </trkpt>
      <trkpt lat="48.81554" lon="3.02281">
        <ele>79.2</ele>
        <time>2021-05-23T09:07:21Z</time>
      </trkpt>
      <trkpt lat="48.81552" lon="3.02274">
        <ele>79.3</ele>
        <time>2021-05-23T09:07:22Z</time>
      </trkpt>
      <trkpt lat="48.81545" lon="3.02237">
        <ele>79.1</ele>
        <time>2021-05-23T09:07:27Z</time>
      </trkpt>
      <trkpt lat="48.81544" lon="3.02229">
        <ele>78.8</ele>
        <time>2021-05-23T09:07:28Z</time>
      </trkpt>
      <trkpt lat="48.81542" lon="3.02222">
        <ele>78.7</ele>
        <time>2021-05-23T09:07:29Z</time>
      </trkpt>
      <trkpt lat="48.8154" lon="3.02215">
        <ele>78.5</ele>
        <time>2021-05-23T09:07:30Z</time>
      </trkpt>
      <trkpt lat="48.81538" lon="3.02209">
        <ele>78.3</ele>
        <time>2021-05-23T09:07:31Z</time>
      </trkpt>
      <trkpt lat="48.81536" lon="3.02203">
        <ele>78.2</ele>
        <time>2021-05-23T09:07:32Z</time>
      </trkpt>
      <trkpt lat="48.81523" lon="3.02139">
        <ele>77</ele>
        <time>2021-05-23T09:07:41Z</time>
      </trkpt>
      <trkpt lat="48.81522" lon="3.02132">
        <ele>76.9</ele>
        <time>2021-05-23T09:07:42Z</time>
      </trkpt>
      <trkpt lat="48.81517" lon="3.02104">
        <ele>76.7</ele>
        <time>2021-05-23T09:07:46Z</time>
      </trkpt>
      <trkpt lat="48.81515" lon="3.02097">
        <ele>76.7</ele>
        <time>2021-05-23T09:07:47Z</time>
      </trkpt>
      <trkpt lat="48.81508" lon="3.02062">
        <ele>76.3</ele>
        <time>2021-05-23T09:07:52Z</time>
      </trkpt>
      <trkpt lat="48.81506" lon="3.02055">
        <ele>76.2</ele>
        <time>2021-05-23T09:07:53Z</time>
      </trkpt>
      <trkpt lat="48.81505" lon="3.02048">
        <ele>76.1</ele>
        <time>2021-05-23T09:07:54Z</time>
      </trkpt>
      <trkpt lat="48.81498" lon="3.02011">
        <ele>75.3</ele>
        <time>2021-05-23T09:07:59Z</time>
      </trkpt>
      <trkpt lat="48.8149" lon="3.01982">
        <ele>74.3</ele>
        <time>2021-05-23T09:08:03Z</time>
      </trkpt>
      <trkpt lat="48.81488" lon="3.01974">
        <ele>74</ele>
        <time>2021-05-23T09:08:04Z</time>
      </trkpt>
      <trkpt lat="48.81486" lon="3.01966">
        <ele>73.7</ele>
        <time>2021-05-23T09:08:05Z</time>
      </trkpt>
      <trkpt lat="48.81482" lon="3.01951">
        <ele>73.2</ele>
        <time>2021-05-23T09:08:07Z</time>
      </trkpt>
      <trkpt lat="48.8148" lon="3.01944">
        <ele>73</ele>
        <time>2021-05-23T09:08:08Z</time>
      </trkpt>
      <trkpt lat="48.81478" lon="3.01936">
        <ele>72.8</ele>
        <time>2021-05-23T09:08:09Z</time>
      </trkpt>
      <trkpt lat="48.81474" lon="3.01922">
        <ele>72.4</ele>
        <time>2021-05-23T09:08:11Z</time>
      </trkpt>
      <trkpt lat="48.81459" lon="3.01866">
        <ele>71.7</ele>
        <time>2021-05-23T09:08:19Z</time>
      </trkpt>
      <trkpt lat="48.81435" lon="3.01799">
        <ele>71.2</ele>
        <time>2021-05-23T09:08:32Z</time>
      </trkpt>
      <trkpt lat="48.81416" lon="3.0178">
        <ele>71.4</ele>
        <time>2021-05-23T09:08:37Z</time>
      </trkpt>
      <trkpt lat="48.81403" lon="3.01763">
        <ele>71.4</ele>
        <time>2021-05-23T09:08:40Z</time>
      </trkpt>
      <trkpt lat="48.814" lon="3.01756">
        <ele>71.3</ele>
        <time>2021-05-23T09:08:41Z</time>
      </trkpt>
      <trkpt lat="48.81385" lon="3.01709">
        <ele>70.7</ele>
        <time>2021-05-23T09:08:47Z</time>
      </trkpt>
      <trkpt lat="48.81348" lon="3.01578">
        <ele>66.1</ele>
        <time>2021-05-23T09:09:02Z</time>
      </trkpt>
      <trkpt lat="48.81322" lon="3.01519">
        <ele>64.2</ele>
        <time>2021-05-23T09:09:10Z</time>
      </trkpt>
      <trkpt lat="48.81297" lon="3.01467">
        <ele>63.6</ele>
        <time>2021-05-23T09:09:21Z</time>
      </trkpt>
      <trkpt lat="48.81298" lon="3.01466">
        <ele>63.6</ele>
        <time>2021-05-23T09:09:38Z</time>
      </trkpt>
      <trkpt lat="48.81286" lon="3.01454">
        <ele>63.5</ele>
        <time>2021-05-23T09:09:44Z</time>
      </trkpt>
      <trkpt lat="48.81264" lon="3.0144">
        <ele>63.2</ele>
        <time>2021-05-23T09:09:49Z</time>
      </trkpt>
      <trkpt lat="48.81241" lon="3.01425">
        <ele>62.9</ele>
        <time>2021-05-23T09:09:54Z</time>
      </trkpt>
      <trkpt lat="48.81237" lon="3.01421">
        <ele>62.8</ele>
        <time>2021-05-23T09:09:55Z</time>
      </trkpt>
      <trkpt lat="48.81223" lon="3.01406">
        <ele>63.2</ele>
        <time>2021-05-23T09:09:59Z</time>
      </trkpt>
      <trkpt lat="48.81219" lon="3.01406">
        <ele>63.4</ele>
        <time>2021-05-23T09:10:00Z</time>
      </trkpt>
      <trkpt lat="48.81216" lon="3.01407">
        <ele>63.5</ele>
        <time>2021-05-23T09:10:01Z</time>
      </trkpt>
      <trkpt lat="48.81187" lon="3.01422">
        <ele>65.1</ele>
        <time>2021-05-23T09:10:09Z</time>
      </trkpt>
      <trkpt lat="48.81182" lon="3.01423">
        <ele>65.3</ele>
        <time>2021-05-23T09:10:10Z</time>
      </trkpt>
      <trkpt lat="48.81178" lon="3.01425">
        <ele>65.5</ele>
        <time>2021-05-23T09:10:11Z</time>
      </trkpt>
      <trkpt lat="48.81174" lon="3.01427">
        <ele>65.7</ele>
        <time>2021-05-23T09:10:12Z</time>
      </trkpt>
      <trkpt lat="48.8117" lon="3.0143">
        <ele>65.9</ele>
        <time>2021-05-23T09:10:13Z</time>
      </trkpt>
      <trkpt lat="48.81166" lon="3.01434">
        <ele>66</ele>
        <time>2021-05-23T09:10:14Z</time>
      </trkpt>
      <trkpt lat="48.81162" lon="3.01437">
        <ele>66</ele>
        <time>2021-05-23T09:10:15Z</time>
      </trkpt>
      <trkpt lat="48.81154" lon="3.01445">
        <ele>65.8</ele>
        <time>2021-05-23T09:10:17Z</time>
      </trkpt>
      <trkpt lat="48.81143" lon="3.01459">
        <ele>65.6</ele>
        <time>2021-05-23T09:10:20Z</time>
      </trkpt>
      <trkpt lat="48.81139" lon="3.01464">
        <ele>65.4</ele>
        <time>2021-05-23T09:10:21Z</time>
      </trkpt>
      <trkpt lat="48.81087" lon="3.01517">
        <ele>63.3</ele>
        <time>2021-05-23T09:10:34Z</time>
      </trkpt>
      <trkpt lat="48.81033" lon="3.01587">
        <ele>64.8</ele>
        <time>2021-05-23T09:10:49Z</time>
      </trkpt>
      <trkpt lat="48.81016" lon="3.0161">
        <ele>65.8</ele>
        <time>2021-05-23T09:10:54Z</time>
      </trkpt>
      <trkpt lat="48.81" lon="3.01622">
        <ele>66.4</ele>
        <time>2021-05-23T09:10:58Z</time>
      </trkpt>
      <trkpt lat="48.80995" lon="3.01624">
        <ele>66.5</ele>
        <time>2021-05-23T09:10:59Z</time>
      </trkpt>
      <trkpt lat="48.80987" lon="3.01626">
        <ele>66.6</ele>
        <time>2021-05-23T09:11:01Z</time>
      </trkpt>
      <trkpt lat="48.8092" lon="3.01637">
        <ele>67.6</ele>
        <time>2021-05-23T09:11:16Z</time>
      </trkpt>
      <trkpt lat="48.80853" lon="3.01651">
        <ele>68.7</ele>
        <time>2021-05-23T09:11:29Z</time>
      </trkpt>
      <trkpt lat="48.80834" lon="3.01653">
        <ele>68.8</ele>
        <time>2021-05-23T09:11:33Z</time>
      </trkpt>
      <trkpt lat="48.80829" lon="3.01654">
        <ele>68.8</ele>
        <time>2021-05-23T09:11:34Z</time>
      </trkpt>
      <trkpt lat="48.80811" lon="3.01659">
        <ele>68.9</ele>
        <time>2021-05-23T09:11:38Z</time>
      </trkpt>
      <trkpt lat="48.80805" lon="3.01661">
        <ele>68.9</ele>
        <time>2021-05-23T09:11:39Z</time>
      </trkpt>
      <trkpt lat="48.80776" lon="3.01673">
        <ele>69.8</ele>
        <time>2021-05-23T09:11:45Z</time>
      </trkpt>
      <trkpt lat="48.80771" lon="3.01675">
        <ele>70</ele>
        <time>2021-05-23T09:11:46Z</time>
      </trkpt>
      <trkpt lat="48.80732" lon="3.01697">
        <ele>72.3</ele>
        <time>2021-05-23T09:11:53Z</time>
      </trkpt>
      <trkpt lat="48.80727" lon="3.017">
        <ele>72.6</ele>
        <time>2021-05-23T09:11:54Z</time>
      </trkpt>
      <trkpt lat="48.80722" lon="3.01702">
        <ele>72.8</ele>
        <time>2021-05-23T09:11:55Z</time>
      </trkpt>
      <trkpt lat="48.80717" lon="3.01705">
        <ele>73</ele>
        <time>2021-05-23T09:11:56Z</time>
      </trkpt>
      <trkpt lat="48.80713" lon="3.01707">
        <ele>73.2</ele>
        <time>2021-05-23T09:11:57Z</time>
      </trkpt>
      <trkpt lat="48.80707" lon="3.01709">
        <ele>73.3</ele>
        <time>2021-05-23T09:11:58Z</time>
      </trkpt>
      <trkpt lat="48.80696" lon="3.01712">
        <ele>73.4</ele>
        <time>2021-05-23T09:12:00Z</time>
      </trkpt>
      <trkpt lat="48.80651" lon="3.0172">
        <ele>72.6</ele>
        <time>2021-05-23T09:12:09Z</time>
      </trkpt>
      <trkpt lat="48.80568" lon="3.01748">
        <ele>68.4</ele>
        <time>2021-05-23T09:12:24Z</time>
      </trkpt>
      <trkpt lat="48.80506" lon="3.01763">
        <ele>66.7</ele>
        <time>2021-05-23T09:12:36Z</time>
      </trkpt>
      <trkpt lat="48.80501" lon="3.01761">
        <ele>66.5</ele>
        <time>2021-05-23T09:12:37Z</time>
      </trkpt>
      <trkpt lat="48.80498" lon="3.01757">
        <ele>66.3</ele>
        <time>2021-05-23T09:12:38Z</time>
      </trkpt>
      <trkpt lat="48.80496" lon="3.0175">
        <ele>66</ele>
        <time>2021-05-23T09:12:39Z</time>
      </trkpt>
      <trkpt lat="48.80495" lon="3.01743">
        <ele>65.9</ele>
        <time>2021-05-23T09:12:40Z</time>
      </trkpt>
      <trkpt lat="48.80495" lon="3.01735">
        <ele>65.8</ele>
        <time>2021-05-23T09:12:41Z</time>
      </trkpt>
      <trkpt lat="48.80495" lon="3.01727">
        <ele>65.7</ele>
        <time>2021-05-23T09:12:42Z</time>
      </trkpt>
      <trkpt lat="48.80495" lon="3.0172">
        <ele>65.6</ele>
        <time>2021-05-23T09:12:43Z</time>
      </trkpt>
      <trkpt lat="48.80495" lon="3.01685">
        <ele>65.2</ele>
        <time>2021-05-23T09:12:48Z</time>
      </trkpt>
      <trkpt lat="48.80495" lon="3.01678">
        <ele>65.1</ele>
        <time>2021-05-23T09:12:49Z</time>
      </trkpt>
      <trkpt lat="48.80489" lon="3.01625">
        <ele>65.4</ele>
        <time>2021-05-23T09:12:58Z</time>
      </trkpt>
      <trkpt lat="48.80487" lon="3.01611">
        <ele>65.6</ele>
        <time>2021-05-23T09:13:00Z</time>
      </trkpt>
      <trkpt lat="48.80483" lon="3.01592">
        <ele>65.7</ele>
        <time>2021-05-23T09:13:03Z</time>
      </trkpt>
      <trkpt lat="48.8048" lon="3.01589">
        <ele>65.7</ele>
        <time>2021-05-23T09:13:04Z</time>
      </trkpt>
      <trkpt lat="48.80475" lon="3.01586">
        <ele>65.7</ele>
        <time>2021-05-23T09:13:05Z</time>
      </trkpt>
      <trkpt lat="48.8047" lon="3.01585">
        <ele>65.6</ele>
        <time>2021-05-23T09:13:06Z</time>
      </trkpt>
      <trkpt lat="48.80464" lon="3.01584">
        <ele>65.6</ele>
        <time>2021-05-23T09:13:07Z</time>
      </trkpt>
      <trkpt lat="48.80423" lon="3.01574">
        <ele>65.6</ele>
        <time>2021-05-23T09:13:15Z</time>
      </trkpt>
      <trkpt lat="48.80404" lon="3.01572">
        <ele>65.9</ele>
        <time>2021-05-23T09:13:19Z</time>
      </trkpt>
      <trkpt lat="48.80399" lon="3.01574">
        <ele>65.9</ele>
        <time>2021-05-23T09:13:20Z</time>
      </trkpt>
      <trkpt lat="48.80389" lon="3.01578">
        <ele>65.9</ele>
        <time>2021-05-23T09:13:22Z</time>
      </trkpt>
      <trkpt lat="48.80384" lon="3.01581">
        <ele>65.9</ele>
        <time>2021-05-23T09:13:23Z</time>
      </trkpt>
      <trkpt lat="48.80374" lon="3.01587">
        <ele>66</ele>
        <time>2021-05-23T09:13:25Z</time>
      </trkpt>
      <trkpt lat="48.80369" lon="3.01589">
        <ele>66.1</ele>
        <time>2021-05-23T09:13:26Z</time>
      </trkpt>
      <trkpt lat="48.80325" lon="3.01595">
        <ele>66.6</ele>
        <time>2021-05-23T09:13:34Z</time>
      </trkpt>
      <trkpt lat="48.8032" lon="3.01598">
        <ele>66.4</ele>
        <time>2021-05-23T09:13:35Z</time>
      </trkpt>
      <trkpt lat="48.80315" lon="3.01602">
        <ele>66.3</ele>
        <time>2021-05-23T09:13:36Z</time>
      </trkpt>
      <trkpt lat="48.80311" lon="3.01606">
        <ele>66.1</ele>
        <time>2021-05-23T09:13:37Z</time>
      </trkpt>
      <trkpt lat="48.80306" lon="3.01611">
        <ele>66</ele>
        <time>2021-05-23T09:13:38Z</time>
      </trkpt>
      <trkpt lat="48.80257" lon="3.01665">
        <ele>66</ele>
        <time>2021-05-23T09:13:49Z</time>
      </trkpt>
      <trkpt lat="48.80251" lon="3.01668">
        <ele>66</ele>
        <time>2021-05-23T09:13:50Z</time>
      </trkpt>
      <trkpt lat="48.80246" lon="3.0167">
        <ele>66.1</ele>
        <time>2021-05-23T09:13:51Z</time>
      </trkpt>
      <trkpt lat="48.80241" lon="3.01671">
        <ele>66.2</ele>
        <time>2021-05-23T09:13:52Z</time>
      </trkpt>
      <trkpt lat="48.80235" lon="3.01671">
        <ele>66.2</ele>
        <time>2021-05-23T09:13:53Z</time>
      </trkpt>
      <trkpt lat="48.8016" lon="3.01667">
        <ele>65.9</ele>
        <time>2021-05-23T09:14:08Z</time>
      </trkpt>
      <trkpt lat="48.80145" lon="3.01666">
        <ele>65.7</ele>
        <time>2021-05-23T09:14:11Z</time>
      </trkpt>
      <trkpt lat="48.80082" lon="3.01655">
        <ele>65</ele>
        <time>2021-05-23T09:14:24Z</time>
      </trkpt>
      <trkpt lat="48.80077" lon="3.01653">
        <ele>65.2</ele>
        <time>2021-05-23T09:14:25Z</time>
      </trkpt>
      <trkpt lat="48.80045" lon="3.01645">
        <ele>66</ele>
        <time>2021-05-23T09:14:32Z</time>
      </trkpt>
      <trkpt lat="48.79967" lon="3.0162">
        <ele>67.1</ele>
        <time>2021-05-23T09:14:48Z</time>
      </trkpt>
      <trkpt lat="48.79947" lon="3.01609">
        <ele>67.2</ele>
        <time>2021-05-23T09:14:52Z</time>
      </trkpt>
      <trkpt lat="48.79942" lon="3.01609">
        <ele>67.3</ele>
        <time>2021-05-23T09:14:53Z</time>
      </trkpt>
      <trkpt lat="48.79893" lon="3.01613">
        <ele>68.5</ele>
        <time>2021-05-23T09:15:02Z</time>
      </trkpt>
      <trkpt lat="48.79887" lon="3.01613">
        <ele>68.7</ele>
        <time>2021-05-23T09:15:03Z</time>
      </trkpt>
      <trkpt lat="48.79865" lon="3.0161">
        <ele>69</ele>
        <time>2021-05-23T09:15:07Z</time>
      </trkpt>
      <trkpt lat="48.79845" lon="3.01598">
        <ele>69.1</ele>
        <time>2021-05-23T09:15:11Z</time>
      </trkpt>
      <trkpt lat="48.79816" lon="3.01581">
        <ele>69.3</ele>
        <time>2021-05-23T09:15:17Z</time>
      </trkpt>
      <trkpt lat="48.79806" lon="3.01579">
        <ele>69.5</ele>
        <time>2021-05-23T09:15:19Z</time>
      </trkpt>
      <trkpt lat="48.79801" lon="3.01579">
        <ele>69.5</ele>
        <time>2021-05-23T09:15:20Z</time>
      </trkpt>
      <trkpt lat="48.79773" lon="3.01581">
        <ele>69.8</ele>
        <time>2021-05-23T09:15:25Z</time>
      </trkpt>
      <trkpt lat="48.79767" lon="3.0158">
        <ele>69.9</ele>
        <time>2021-05-23T09:15:26Z</time>
      </trkpt>
      <trkpt lat="48.79762" lon="3.01578">
        <ele>70.1</ele>
        <time>2021-05-23T09:15:27Z</time>
      </trkpt>
      <trkpt lat="48.79736" lon="3.01568">
        <ele>70.6</ele>
        <time>2021-05-23T09:15:32Z</time>
      </trkpt>
      <trkpt lat="48.79691" lon="3.01573">
        <ele>70.5</ele>
        <time>2021-05-23T09:15:41Z</time>
      </trkpt>
      <trkpt lat="48.79671" lon="3.01574">
        <ele>70.4</ele>
        <time>2021-05-23T09:15:45Z</time>
      </trkpt>
      <trkpt lat="48.79666" lon="3.01573">
        <ele>70.5</ele>
        <time>2021-05-23T09:15:46Z</time>
      </trkpt>
      <trkpt lat="48.79662" lon="3.01571">
        <ele>70.8</ele>
        <time>2021-05-23T09:15:47Z</time>
      </trkpt>
      <trkpt lat="48.79658" lon="3.01568">
        <ele>71.1</ele>
        <time>2021-05-23T09:15:48Z</time>
      </trkpt>
      <trkpt lat="48.79655" lon="3.01565">
        <ele>71.4</ele>
        <time>2021-05-23T09:15:49Z</time>
      </trkpt>
      <trkpt lat="48.79635" lon="3.0154">
        <ele>73.4</ele>
        <time>2021-05-23T09:16:00Z</time>
      </trkpt>
      <trkpt lat="48.79631" lon="3.01535">
        <ele>73.8</ele>
        <time>2021-05-23T09:16:03Z</time>
      </trkpt>
      <trkpt lat="48.79629" lon="3.01534">
        <ele>73.9</ele>
        <time>2021-05-23T09:16:04Z</time>
      </trkpt>
      <trkpt lat="48.79628" lon="3.01533">
        <ele>74</ele>
        <time>2021-05-23T09:16:05Z</time>
      </trkpt>
      <trkpt lat="48.79626" lon="3.01532">
        <ele>74.1</ele>
        <time>2021-05-23T09:16:06Z</time>
      </trkpt>
      <trkpt lat="48.79615" lon="3.01525">
        <ele>74.8</ele>
        <time>2021-05-23T09:16:15Z</time>
      </trkpt>
      <trkpt lat="48.79614" lon="3.01522">
        <ele>75</ele>
        <time>2021-05-23T09:16:16Z</time>
      </trkpt>
      <trkpt lat="48.79593" lon="3.01508">
        <ele>76.4</ele>
        <time>2021-05-23T09:16:27Z</time>
      </trkpt>
      <trkpt lat="48.79591" lon="3.0151">
        <ele>76.4</ele>
        <time>2021-05-23T09:16:28Z</time>
      </trkpt>
      <trkpt lat="48.79554" lon="3.01524">
        <ele>76.1</ele>
        <time>2021-05-23T09:16:38Z</time>
      </trkpt>
      <trkpt lat="48.79516" lon="3.01517">
        <ele>76.1</ele>
        <time>2021-05-23T09:16:49Z</time>
      </trkpt>
      <trkpt lat="48.79486" lon="3.01517">
        <ele>75.7</ele>
        <time>2021-05-23T09:16:56Z</time>
      </trkpt>
      <trkpt lat="48.7948" lon="3.01516">
        <ele>75.5</ele>
        <time>2021-05-23T09:16:57Z</time>
      </trkpt>
      <trkpt lat="48.79474" lon="3.01515">
        <ele>75.4</ele>
        <time>2021-05-23T09:16:58Z</time>
      </trkpt>
      <trkpt lat="48.79425" lon="3.01506">
        <ele>74.2</ele>
        <time>2021-05-23T09:17:08Z</time>
      </trkpt>
      <trkpt lat="48.79419" lon="3.01505">
        <ele>74.1</ele>
        <time>2021-05-23T09:17:09Z</time>
      </trkpt>
      <trkpt lat="48.79414" lon="3.01502">
        <ele>74.1</ele>
        <time>2021-05-23T09:17:10Z</time>
      </trkpt>
      <trkpt lat="48.79409" lon="3.01498">
        <ele>74.2</ele>
        <time>2021-05-23T09:17:11Z</time>
      </trkpt>
      <trkpt lat="48.79405" lon="3.01494">
        <ele>74.5</ele>
        <time>2021-05-23T09:17:12Z</time>
      </trkpt>
      <trkpt lat="48.794" lon="3.0149">
        <ele>74.7</ele>
        <time>2021-05-23T09:17:13Z</time>
      </trkpt>
      <trkpt lat="48.79396" lon="3.01487">
        <ele>74.8</ele>
        <time>2021-05-23T09:17:14Z</time>
      </trkpt>
      <trkpt lat="48.79392" lon="3.01484">
        <ele>75</ele>
        <time>2021-05-23T09:17:15Z</time>
      </trkpt>
      <trkpt lat="48.79347" lon="3.01442">
        <ele>75.4</ele>
        <time>2021-05-23T09:17:27Z</time>
      </trkpt>
      <trkpt lat="48.79301" lon="3.01393">
        <ele>77.2</ele>
        <time>2021-05-23T09:17:39Z</time>
      </trkpt>
      <trkpt lat="48.79266" lon="3.0135">
        <ele>80.3</ele>
        <time>2021-05-23T09:17:49Z</time>
      </trkpt>
      <trkpt lat="48.79229" lon="3.01318">
        <ele>82.3</ele>
        <time>2021-05-23T09:18:00Z</time>
      </trkpt>
      <trkpt lat="48.79207" lon="3.01306">
        <ele>82.5</ele>
        <time>2021-05-23T09:18:06Z</time>
      </trkpt>
      <trkpt lat="48.7919" lon="3.01295">
        <ele>82.7</ele>
        <time>2021-05-23T09:18:10Z</time>
      </trkpt>
      <trkpt lat="48.79155" lon="3.01284">
        <ele>81.8</ele>
        <time>2021-05-23T09:18:17Z</time>
      </trkpt>
      <trkpt lat="48.79132" lon="3.01276">
        <ele>81.9</ele>
        <time>2021-05-23T09:18:22Z</time>
      </trkpt>
      <trkpt lat="48.79116" lon="3.01271">
        <ele>82</ele>
        <time>2021-05-23T09:18:25Z</time>
      </trkpt>
      <trkpt lat="48.79107" lon="3.01267">
        <ele>82.2</ele>
        <time>2021-05-23T09:18:27Z</time>
      </trkpt>
      <trkpt lat="48.79082" lon="3.01249">
        <ele>84.1</ele>
        <time>2021-05-23T09:18:33Z</time>
      </trkpt>
      <trkpt lat="48.79069" lon="3.01239">
        <ele>85.8</ele>
        <time>2021-05-23T09:18:37Z</time>
      </trkpt>
      <trkpt lat="48.79046" lon="3.01242">
        <ele>85.2</ele>
        <time>2021-05-23T09:18:43Z</time>
      </trkpt>
      <trkpt lat="48.79014" lon="3.01265">
        <ele>82.1</ele>
        <time>2021-05-23T09:18:51Z</time>
      </trkpt>
      <trkpt lat="48.78989" lon="3.01288">
        <ele>79.8</ele>
        <time>2021-05-23T09:18:59Z</time>
      </trkpt>
      <trkpt lat="48.78958" lon="3.01315">
        <ele>77.9</ele>
        <time>2021-05-23T09:19:10Z</time>
      </trkpt>
      <trkpt lat="48.78954" lon="3.01318">
        <ele>77.7</ele>
        <time>2021-05-23T09:19:11Z</time>
      </trkpt>
      <trkpt lat="48.7894" lon="3.01327">
        <ele>77.5</ele>
        <time>2021-05-23T09:19:15Z</time>
      </trkpt>
      <trkpt lat="48.78928" lon="3.01339">
        <ele>77.2</ele>
        <time>2021-05-23T09:19:19Z</time>
      </trkpt>
      <trkpt lat="48.78892" lon="3.01381">
        <ele>77.5</ele>
        <time>2021-05-23T09:19:30Z</time>
      </trkpt>
      <trkpt lat="48.78874" lon="3.01399">
        <ele>77.8</ele>
        <time>2021-05-23T09:19:35Z</time>
      </trkpt>
      <trkpt lat="48.78837" lon="3.01441">
        <ele>77.1</ele>
        <time>2021-05-23T09:19:46Z</time>
      </trkpt>
      <trkpt lat="48.78794" lon="3.0149">
        <ele>76.5</ele>
        <time>2021-05-23T09:19:59Z</time>
      </trkpt>
      <trkpt lat="48.78753" lon="3.01534">
        <ele>78.4</ele>
        <time>2021-05-23T09:20:11Z</time>
      </trkpt>
      <trkpt lat="48.78729" lon="3.01562">
        <ele>81.3</ele>
        <time>2021-05-23T09:20:22Z</time>
      </trkpt>
      <trkpt lat="48.78702" lon="3.01597">
        <ele>83.7</ele>
        <time>2021-05-23T09:20:33Z</time>
      </trkpt>
      <trkpt lat="48.78699" lon="3.01601">
        <ele>83.9</ele>
        <time>2021-05-23T09:20:35Z</time>
      </trkpt>
      <trkpt lat="48.78688" lon="3.01614">
        <ele>84.5</ele>
        <time>2021-05-23T09:20:40Z</time>
      </trkpt>
      <trkpt lat="48.78671" lon="3.01635">
        <ele>84.8</ele>
        <time>2021-05-23T09:20:48Z</time>
      </trkpt>
      <trkpt lat="48.78659" lon="3.01688">
        <ele>82</ele>
        <time>2021-05-23T09:20:59Z</time>
      </trkpt>
      <trkpt lat="48.78649" lon="3.01757">
        <ele>78.1</ele>
        <time>2021-05-23T09:21:08Z</time>
      </trkpt>
      <trkpt lat="48.78642" lon="3.0177">
        <ele>78.2</ele>
        <time>2021-05-23T09:21:10Z</time>
      </trkpt>
      <trkpt lat="48.78616" lon="3.01803">
        <ele>77.5</ele>
        <time>2021-05-23T09:21:16Z</time>
      </trkpt>
      <trkpt lat="48.78571" lon="3.01872">
        <ele>75</ele>
        <time>2021-05-23T09:21:29Z</time>
      </trkpt>
      <trkpt lat="48.78565" lon="3.01902">
        <ele>74.7</ele>
        <time>2021-05-23T09:21:34Z</time>
      </trkpt>
      <trkpt lat="48.78567" lon="3.01946">
        <ele>75</ele>
        <time>2021-05-23T09:21:43Z</time>
      </trkpt>
      <trkpt lat="48.78565" lon="3.01949">
        <ele>75.1</ele>
        <time>2021-05-23T09:21:44Z</time>
      </trkpt>
      <trkpt lat="48.78535" lon="3.01977">
        <ele>76.2</ele>
        <time>2021-05-23T09:21:54Z</time>
      </trkpt>
      <trkpt lat="48.78506" lon="3.01977">
        <ele>76.6</ele>
        <time>2021-05-23T09:22:03Z</time>
      </trkpt>
      <trkpt lat="48.78504" lon="3.01973">
        <ele>76.6</ele>
        <time>2021-05-23T09:22:04Z</time>
      </trkpt>
      <trkpt lat="48.7849" lon="3.01914">
        <ele>76.1</ele>
        <time>2021-05-23T09:22:17Z</time>
      </trkpt>
      <trkpt lat="48.7849" lon="3.01859">
        <ele>78.1</ele>
        <time>2021-05-23T09:22:31Z</time>
      </trkpt>
      <trkpt lat="48.78489" lon="3.01803">
        <ele>80.1</ele>
        <time>2021-05-23T09:22:46Z</time>
      </trkpt>
      <trkpt lat="48.78484" lon="3.01757">
        <ele>81.7</ele>
        <time>2021-05-23T09:22:59Z</time>
      </trkpt>
      <trkpt lat="48.78473" lon="3.01705">
        <ele>84.3</ele>
        <time>2021-05-23T09:23:16Z</time>
      </trkpt>
      <trkpt lat="48.78464" lon="3.01664">
        <ele>86.6</ele>
        <time>2021-05-23T09:23:32Z</time>
      </trkpt>
      <trkpt lat="48.78456" lon="3.01626">
        <ele>88.7</ele>
        <time>2021-05-23T09:23:46Z</time>
      </trkpt>
      <trkpt lat="48.78453" lon="3.0159">
        <ele>90.8</ele>
        <time>2021-05-23T09:24:00Z</time>
      </trkpt>
      <trkpt lat="48.7845" lon="3.01535">
        <ele>95.2</ele>
        <time>2021-05-23T09:24:17Z</time>
      </trkpt>
      <trkpt lat="48.78449" lon="3.01492">
        <ele>98.5</ele>
        <time>2021-05-23T09:24:31Z</time>
      </trkpt>
      <trkpt lat="48.78453" lon="3.01452">
        <ele>100.7</ele>
        <time>2021-05-23T09:24:45Z</time>
      </trkpt>
      <trkpt lat="48.78477" lon="3.01428">
        <ele>101.7</ele>
        <time>2021-05-23T09:24:59Z</time>
      </trkpt>
      <trkpt lat="48.785" lon="3.01391">
        <ele>102.9</ele>
        <time>2021-05-23T09:25:13Z</time>
      </trkpt>
      <trkpt lat="48.78512" lon="3.01356">
        <ele>104.2</ele>
        <time>2021-05-23T09:25:24Z</time>
      </trkpt>
      <trkpt lat="48.78521" lon="3.0131">
        <ele>105.9</ele>
        <time>2021-05-23T09:25:37Z</time>
      </trkpt>
      <trkpt lat="48.78525" lon="3.01262">
        <ele>107.3</ele>
        <time>2021-05-23T09:25:52Z</time>
      </trkpt>
      <trkpt lat="48.78526" lon="3.0122">
        <ele>108.4</ele>
        <time>2021-05-23T09:26:06Z</time>
      </trkpt>
      <trkpt lat="48.78527" lon="3.01181">
        <ele>109.3</ele>
        <time>2021-05-23T09:26:19Z</time>
      </trkpt>
      <trkpt lat="48.78528" lon="3.01135">
        <ele>111.1</ele>
        <time>2021-05-23T09:26:34Z</time>
      </trkpt>
      <trkpt lat="48.78529" lon="3.01095">
        <ele>112.8</ele>
        <time>2021-05-23T09:26:47Z</time>
      </trkpt>
      <trkpt lat="48.78523" lon="3.01048">
        <ele>114.3</ele>
        <time>2021-05-23T09:27:03Z</time>
      </trkpt>
      <trkpt lat="48.78517" lon="3.00998">
        <ele>115.6</ele>
        <time>2021-05-23T09:27:19Z</time>
      </trkpt>
      <trkpt lat="48.78511" lon="3.00935">
        <ele>116.8</ele>
        <time>2021-05-23T09:27:36Z</time>
      </trkpt>
      <trkpt lat="48.78512" lon="3.00918">
        <ele>117.1</ele>
        <time>2021-05-23T09:27:42Z</time>
      </trkpt>
      <trkpt lat="48.78518" lon="3.00905">
        <ele>117.3</ele>
        <time>2021-05-23T09:27:47Z</time>
      </trkpt>
      <trkpt lat="48.78549" lon="3.00872">
        <ele>117.5</ele>
        <time>2021-05-23T09:28:01Z</time>
      </trkpt>
      <trkpt lat="48.78582" lon="3.00839">
        <ele>117.1</ele>
        <time>2021-05-23T09:28:14Z</time>
      </trkpt>
      <trkpt lat="48.7863" lon="3.00795">
        <ele>117.4</ele>
        <time>2021-05-23T09:28:29Z</time>
      </trkpt>
      <trkpt lat="48.78652" lon="3.00778">
        <ele>117.2</ele>
        <time>2021-05-23T09:28:35Z</time>
      </trkpt>
      <trkpt lat="48.78683" lon="3.0075">
        <ele>117</ele>
        <time>2021-05-23T09:28:43Z</time>
      </trkpt>
      <trkpt lat="48.78752" lon="3.00709">
        <ele>117.5</ele>
        <time>2021-05-23T09:28:59Z</time>
      </trkpt>
      <trkpt lat="48.78823" lon="3.00681">
        <ele>118.1</ele>
        <time>2021-05-23T09:29:14Z</time>
      </trkpt>
      <trkpt lat="48.78827" lon="3.00679">
        <ele>118.1</ele>
        <time>2021-05-23T09:29:15Z</time>
      </trkpt>
      <trkpt lat="48.78894" lon="3.00631">
        <ele>119.9</ele>
        <time>2021-05-23T09:29:30Z</time>
      </trkpt>
      <trkpt lat="48.78975" lon="3.0056">
        <ele>121.8</ele>
        <time>2021-05-23T09:29:50Z</time>
      </trkpt>
      <trkpt lat="48.79041" lon="3.00499">
        <ele>122</ele>
        <time>2021-05-23T09:30:08Z</time>
      </trkpt>
      <trkpt lat="48.79103" lon="3.00443">
        <ele>123.9</ele>
        <time>2021-05-23T09:30:26Z</time>
      </trkpt>
      <trkpt lat="48.79152" lon="3.00397">
        <ele>126</ele>
        <time>2021-05-23T09:30:42Z</time>
      </trkpt>
      <trkpt lat="48.79193" lon="3.00358">
        <ele>127.8</ele>
        <time>2021-05-23T09:30:57Z</time>
      </trkpt>
      <trkpt lat="48.79242" lon="3.00313">
        <ele>128.7</ele>
        <time>2021-05-23T09:31:14Z</time>
      </trkpt>
      <trkpt lat="48.79288" lon="3.00287">
        <ele>128.7</ele>
        <time>2021-05-23T09:31:28Z</time>
      </trkpt>
      <trkpt lat="48.79346" lon="3.00266">
        <ele>129</ele>
        <time>2021-05-23T09:31:43Z</time>
      </trkpt>
      <trkpt lat="48.79412" lon="3.00247">
        <ele>129</ele>
        <time>2021-05-23T09:31:59Z</time>
      </trkpt>
      <trkpt lat="48.79417" lon="3.00247">
        <ele>129</ele>
        <time>2021-05-23T09:32:00Z</time>
      </trkpt>
      <trkpt lat="48.79422" lon="3.00245">
        <ele>129.1</ele>
        <time>2021-05-23T09:32:01Z</time>
      </trkpt>
      <trkpt lat="48.79457" lon="3.00236">
        <ele>130.1</ele>
        <time>2021-05-23T09:32:09Z</time>
      </trkpt>
      <trkpt lat="48.79462" lon="3.00235">
        <ele>130.2</ele>
        <time>2021-05-23T09:32:10Z</time>
      </trkpt>
      <trkpt lat="48.79483" lon="3.0023">
        <ele>130.8</ele>
        <time>2021-05-23T09:32:15Z</time>
      </trkpt>
      <trkpt lat="48.79487" lon="3.0023">
        <ele>130.9</ele>
        <time>2021-05-23T09:32:16Z</time>
      </trkpt>
      <trkpt lat="48.79501" lon="3.0023">
        <ele>131.2</ele>
        <time>2021-05-23T09:32:19Z</time>
      </trkpt>
      <trkpt lat="48.79506" lon="3.00227">
        <ele>131.3</ele>
        <time>2021-05-23T09:32:20Z</time>
      </trkpt>
      <trkpt lat="48.7951" lon="3.00225">
        <ele>131.3</ele>
        <time>2021-05-23T09:32:21Z</time>
      </trkpt>
      <trkpt lat="48.79515" lon="3.00224">
        <ele>131.3</ele>
        <time>2021-05-23T09:32:22Z</time>
      </trkpt>
      <trkpt lat="48.79519" lon="3.00222">
        <ele>131.3</ele>
        <time>2021-05-23T09:32:23Z</time>
      </trkpt>
      <trkpt lat="48.79581" lon="3.00207">
        <ele>131.5</ele>
        <time>2021-05-23T09:32:38Z</time>
      </trkpt>
      <trkpt lat="48.79643" lon="3.00195">
        <ele>131.2</ele>
        <time>2021-05-23T09:32:52Z</time>
      </trkpt>
      <trkpt lat="48.79699" lon="3.0018">
        <ele>131.3</ele>
        <time>2021-05-23T09:33:04Z</time>
      </trkpt>
      <trkpt lat="48.79703" lon="3.00178">
        <ele>131.4</ele>
        <time>2021-05-23T09:33:05Z</time>
      </trkpt>
      <trkpt lat="48.79708" lon="3.00176">
        <ele>131.4</ele>
        <time>2021-05-23T09:33:06Z</time>
      </trkpt>
      <trkpt lat="48.79713" lon="3.00175">
        <ele>131.5</ele>
        <time>2021-05-23T09:33:07Z</time>
      </trkpt>
      <trkpt lat="48.79718" lon="3.00175">
        <ele>131.6</ele>
        <time>2021-05-23T09:33:08Z</time>
      </trkpt>
      <trkpt lat="48.79752" lon="3.00176">
        <ele>131.9</ele>
        <time>2021-05-23T09:33:15Z</time>
      </trkpt>
      <trkpt lat="48.79757" lon="3.00178">
        <ele>132</ele>
        <time>2021-05-23T09:33:16Z</time>
      </trkpt>
      <trkpt lat="48.79832" lon="3.00216">
        <ele>132.4</ele>
        <time>2021-05-23T09:33:31Z</time>
      </trkpt>
      <trkpt lat="48.79905" lon="3.00223">
        <ele>130.9</ele>
        <time>2021-05-23T09:33:46Z</time>
      </trkpt>
      <trkpt lat="48.7991" lon="3.00218">
        <ele>130.9</ele>
        <time>2021-05-23T09:33:48Z</time>
      </trkpt>
      <trkpt lat="48.79909" lon="3.00184">
        <ele>131.7</ele>
        <time>2021-05-23T09:33:57Z</time>
      </trkpt>
      <trkpt lat="48.79908" lon="3.00167">
        <ele>132.1</ele>
        <time>2021-05-23T09:34:00Z</time>
      </trkpt>
      <trkpt lat="48.79908" lon="3.00145">
        <ele>132.1</ele>
        <time>2021-05-23T09:34:04Z</time>
      </trkpt>
      <trkpt lat="48.79909" lon="3.00087">
        <ele>132</ele>
        <time>2021-05-23T09:34:15Z</time>
      </trkpt>
      <trkpt lat="48.79911" lon="3.00069">
        <ele>131.8</ele>
        <time>2021-05-23T09:34:19Z</time>
      </trkpt>
      <trkpt lat="48.79909" lon="2.99992">
        <ele>131.1</ele>
        <time>2021-05-23T09:34:32Z</time>
      </trkpt>
      <trkpt lat="48.79909" lon="2.99985">
        <ele>131.1</ele>
        <time>2021-05-23T09:34:33Z</time>
      </trkpt>
      <trkpt lat="48.79911" lon="2.99965">
        <ele>131.1</ele>
        <time>2021-05-23T09:34:36Z</time>
      </trkpt>
      <trkpt lat="48.7991" lon="2.99924">
        <ele>131.1</ele>
        <time>2021-05-23T09:34:42Z</time>
      </trkpt>
      <trkpt lat="48.79907" lon="2.99841">
        <ele>131</ele>
        <time>2021-05-23T09:34:53Z</time>
      </trkpt>
      <trkpt lat="48.79908" lon="2.99819">
        <ele>130.7</ele>
        <time>2021-05-23T09:34:56Z</time>
      </trkpt>
      <trkpt lat="48.79909" lon="2.99813">
        <ele>130.5</ele>
        <time>2021-05-23T09:34:57Z</time>
      </trkpt>
      <trkpt lat="48.7991" lon="2.99781">
        <ele>129.8</ele>
        <time>2021-05-23T09:35:02Z</time>
      </trkpt>
      <trkpt lat="48.7991" lon="2.99775">
        <ele>129.7</ele>
        <time>2021-05-23T09:35:03Z</time>
      </trkpt>
      <trkpt lat="48.79911" lon="2.99769">
        <ele>129.5</ele>
        <time>2021-05-23T09:35:04Z</time>
      </trkpt>
      <trkpt lat="48.79928" lon="2.99733">
        <ele>128.5</ele>
        <time>2021-05-23T09:35:12Z</time>
      </trkpt>
      <trkpt lat="48.79931" lon="2.99727">
        <ele>128.3</ele>
        <time>2021-05-23T09:35:13Z</time>
      </trkpt>
      <trkpt lat="48.79932" lon="2.99721">
        <ele>128.2</ele>
        <time>2021-05-23T09:35:14Z</time>
      </trkpt>
      <trkpt lat="48.79938" lon="2.99679">
        <ele>127.3</ele>
        <time>2021-05-23T09:35:21Z</time>
      </trkpt>
      <trkpt lat="48.79939" lon="2.99673">
        <ele>127.1</ele>
        <time>2021-05-23T09:35:22Z</time>
      </trkpt>
      <trkpt lat="48.7994" lon="2.99643">
        <ele>126.9</ele>
        <time>2021-05-23T09:35:26Z</time>
      </trkpt>
      <trkpt lat="48.79941" lon="2.99635">
        <ele>126.9</ele>
        <time>2021-05-23T09:35:27Z</time>
      </trkpt>
      <trkpt lat="48.79961" lon="2.99524">
        <ele>126.8</ele>
        <time>2021-05-23T09:35:42Z</time>
      </trkpt>
      <trkpt lat="48.79978" lon="2.99443">
        <ele>127</ele>
        <time>2021-05-23T09:35:53Z</time>
      </trkpt>
      <trkpt lat="48.79988" lon="2.99394">
        <ele>126.8</ele>
        <time>2021-05-23T09:35:59Z</time>
      </trkpt>
      <trkpt lat="48.79989" lon="2.99385">
        <ele>126.7</ele>
        <time>2021-05-23T09:36:00Z</time>
      </trkpt>
      <trkpt lat="48.7999" lon="2.99376">
        <ele>126.6</ele>
        <time>2021-05-23T09:36:01Z</time>
      </trkpt>
      <trkpt lat="48.79993" lon="2.99358">
        <ele>126.4</ele>
        <time>2021-05-23T09:36:03Z</time>
      </trkpt>
      <trkpt lat="48.80018" lon="2.99248">
        <ele>126</ele>
        <time>2021-05-23T09:36:17Z</time>
      </trkpt>
      <trkpt lat="48.80031" lon="2.99194">
        <ele>125.6</ele>
        <time>2021-05-23T09:36:24Z</time>
      </trkpt>
      <trkpt lat="48.80034" lon="2.99179">
        <ele>125.5</ele>
        <time>2021-05-23T09:36:26Z</time>
      </trkpt>
      <trkpt lat="48.80036" lon="2.99172">
        <ele>125.5</ele>
        <time>2021-05-23T09:36:27Z</time>
      </trkpt>
      <trkpt lat="48.80043" lon="2.99149">
        <ele>125.4</ele>
        <time>2021-05-23T09:36:30Z</time>
      </trkpt>
      <trkpt lat="48.80067" lon="2.99043">
        <ele>125.6</ele>
        <time>2021-05-23T09:36:45Z</time>
      </trkpt>
      <trkpt lat="48.80068" lon="2.9903">
        <ele>125.8</ele>
        <time>2021-05-23T09:36:47Z</time>
      </trkpt>
      <trkpt lat="48.80068" lon="2.99024">
        <ele>125.8</ele>
        <time>2021-05-23T09:36:48Z</time>
      </trkpt>
      <trkpt lat="48.80067" lon="2.99017">
        <ele>125.9</ele>
        <time>2021-05-23T09:36:49Z</time>
      </trkpt>
      <trkpt lat="48.80068" lon="2.98996">
        <ele>126.2</ele>
        <time>2021-05-23T09:36:52Z</time>
      </trkpt>
      <trkpt lat="48.80067" lon="2.98989">
        <ele>126.3</ele>
        <time>2021-05-23T09:36:53Z</time>
      </trkpt>
      <trkpt lat="48.8005" lon="2.98876">
        <ele>126.8</ele>
        <time>2021-05-23T09:37:09Z</time>
      </trkpt>
      <trkpt lat="48.80048" lon="2.98868">
        <ele>126.8</ele>
        <time>2021-05-23T09:37:10Z</time>
      </trkpt>
      <trkpt lat="48.80046" lon="2.98862">
        <ele>126.8</ele>
        <time>2021-05-23T09:37:11Z</time>
      </trkpt>
      <trkpt lat="48.80043" lon="2.98857">
        <ele>126.9</ele>
        <time>2021-05-23T09:37:12Z</time>
      </trkpt>
      <trkpt lat="48.80041" lon="2.98851">
        <ele>126.9</ele>
        <time>2021-05-23T09:37:13Z</time>
      </trkpt>
      <trkpt lat="48.80038" lon="2.98846">
        <ele>126.9</ele>
        <time>2021-05-23T09:37:14Z</time>
      </trkpt>
      <trkpt lat="48.80037" lon="2.98841">
        <ele>126.9</ele>
        <time>2021-05-23T09:37:15Z</time>
      </trkpt>
      <trkpt lat="48.80035" lon="2.98834">
        <ele>127</ele>
        <time>2021-05-23T09:37:16Z</time>
      </trkpt>
      <trkpt lat="48.80034" lon="2.98826">
        <ele>126.9</ele>
        <time>2021-05-23T09:37:17Z</time>
      </trkpt>
      <trkpt lat="48.80034" lon="2.98818">
        <ele>126.8</ele>
        <time>2021-05-23T09:37:18Z</time>
      </trkpt>
      <trkpt lat="48.80033" lon="2.98811">
        <ele>126.7</ele>
        <time>2021-05-23T09:37:19Z</time>
      </trkpt>
      <trkpt lat="48.80032" lon="2.98804">
        <ele>126.6</ele>
        <time>2021-05-23T09:37:20Z</time>
      </trkpt>
      <trkpt lat="48.80031" lon="2.98797">
        <ele>126.6</ele>
        <time>2021-05-23T09:37:21Z</time>
      </trkpt>
      <trkpt lat="48.80022" lon="2.98719">
        <ele>125.6</ele>
        <time>2021-05-23T09:37:32Z</time>
      </trkpt>
      <trkpt lat="48.80019" lon="2.98706">
        <ele>125.5</ele>
        <time>2021-05-23T09:37:34Z</time>
      </trkpt>
      <trkpt lat="48.80002" lon="2.98611">
        <ele>125</ele>
        <time>2021-05-23T09:37:47Z</time>
      </trkpt>
      <trkpt lat="48.8" lon="2.98605">
        <ele>125</ele>
        <time>2021-05-23T09:37:48Z</time>
      </trkpt>
      <trkpt lat="48.79997" lon="2.986">
        <ele>125</ele>
        <time>2021-05-23T09:37:49Z</time>
      </trkpt>
      <trkpt lat="48.79994" lon="2.98595">
        <ele>124.9</ele>
        <time>2021-05-23T09:37:50Z</time>
      </trkpt>
      <trkpt lat="48.7999" lon="2.98591">
        <ele>124.9</ele>
        <time>2021-05-23T09:37:51Z</time>
      </trkpt>
      <trkpt lat="48.79986" lon="2.98587">
        <ele>124.8</ele>
        <time>2021-05-23T09:37:52Z</time>
      </trkpt>
      <trkpt lat="48.79982" lon="2.98585">
        <ele>124.8</ele>
        <time>2021-05-23T09:37:53Z</time>
      </trkpt>
      <trkpt lat="48.79977" lon="2.98585">
        <ele>124.7</ele>
        <time>2021-05-23T09:37:54Z</time>
      </trkpt>
      <trkpt lat="48.79973" lon="2.98587">
        <ele>124.7</ele>
        <time>2021-05-23T09:37:55Z</time>
      </trkpt>
      <trkpt lat="48.7997" lon="2.98589">
        <ele>124.6</ele>
        <time>2021-05-23T09:37:56Z</time>
      </trkpt>
      <trkpt lat="48.79967" lon="2.98592">
        <ele>124.6</ele>
        <time>2021-05-23T09:37:57Z</time>
      </trkpt>
      <trkpt lat="48.79965" lon="2.98595">
        <ele>124.6</ele>
        <time>2021-05-23T09:37:58Z</time>
      </trkpt>
      <trkpt lat="48.79954" lon="2.98606">
        <ele>124.4</ele>
        <time>2021-05-23T09:38:08Z</time>
      </trkpt>
      <trkpt lat="48.79954" lon="2.98604">
        <ele>124.4</ele>
        <time>2021-05-23T09:38:23Z</time>
      </trkpt>
      <trkpt lat="48.79952" lon="2.98604">
        <ele>124.4</ele>
        <time>2021-05-23T09:38:52Z</time>
      </trkpt>
      <trkpt lat="48.79953" lon="2.98605">
        <ele>124.4</ele>
        <time>2021-05-23T09:39:18Z</time>
      </trkpt>
      <trkpt lat="48.79952" lon="2.98603">
        <ele>124.4</ele>
        <time>2021-05-23T09:39:49Z</time>
      </trkpt>
      <trkpt lat="48.79951" lon="2.98603">
        <ele>124.4</ele>
        <time>2021-05-23T09:40:19Z</time>
      </trkpt>
      <trkpt lat="48.79953" lon="2.98601">
        <ele>124.4</ele>
        <time>2021-05-23T09:40:37Z</time>
      </trkpt>
      <trkpt lat="48.79956" lon="2.986">
        <ele>124.5</ele>
        <time>2021-05-23T09:40:48Z</time>
      </trkpt>
      <trkpt lat="48.79956" lon="2.986">
        <ele>124.5</ele>
        <time>2021-05-23T09:40:52Z</time>
      </trkpt>
      <trkpt lat="48.79956" lon="2.98601">
        <ele>124.5</ele>
        <time>2021-05-23T09:41:04Z</time>
      </trkpt>
      <trkpt lat="48.79956" lon="2.98603">
        <ele>124.5</ele>
        <time>2021-05-23T09:41:30Z</time>
      </trkpt>
      <trkpt lat="48.79957" lon="2.98604">
        <ele>124.5</ele>
        <time>2021-05-23T09:42:02Z</time>
      </trkpt>
      <trkpt lat="48.79956" lon="2.98605">
        <ele>124.5</ele>
        <time>2021-05-23T09:42:38Z</time>
      </trkpt>
      <trkpt lat="48.79955" lon="2.98606">
        <ele>124.5</ele>
        <time>2021-05-23T09:43:14Z</time>
      </trkpt>
      <trkpt lat="48.79956" lon="2.98609">
        <ele>124.5</ele>
        <time>2021-05-23T09:43:44Z</time>
      </trkpt>
      <trkpt lat="48.79957" lon="2.98609">
        <ele>124.5</ele>
        <time>2021-05-23T09:44:14Z</time>
      </trkpt>
      <trkpt lat="48.79954" lon="2.98609">
        <ele>124.5</ele>
        <time>2021-05-23T09:44:44Z</time>
      </trkpt>
      <trkpt lat="48.79955" lon="2.98608">
        <ele>124.5</ele>
        <time>2021-05-23T09:45:16Z</time>
      </trkpt>
      <trkpt lat="48.79956" lon="2.98608">
        <ele>124.5</ele>
        <time>2021-05-23T09:45:44Z</time>
      </trkpt>
      <trkpt lat="48.79955" lon="2.98608">
        <ele>124.5</ele>
        <time>2021-05-23T09:46:17Z</time>
      </trkpt>
      <trkpt lat="48.79956" lon="2.98608">
        <ele>124.5</ele>
        <time>2021-05-23T09:46:49Z</time>
      </trkpt>
      <trkpt lat="48.79957" lon="2.98607">
        <ele>124.5</ele>
        <time>2021-05-23T09:47:24Z</time>
      </trkpt>
      <trkpt lat="48.79957" lon="2.98609">
        <ele>124.5</ele>
        <time>2021-05-23T09:47:54Z</time>
      </trkpt>
      <trkpt lat="48.79957" lon="2.98609">
        <ele>124.5</ele>
        <time>2021-05-23T09:48:22Z</time>
      </trkpt>
      <trkpt lat="48.79955" lon="2.98609">
        <ele>124.5</ele>
        <time>2021-05-23T09:49:02Z</time>
      </trkpt>
      <trkpt lat="48.79955" lon="2.98613">
        <ele>124.5</ele>
        <time>2021-05-23T09:49:10Z</time>
      </trkpt>
      <trkpt lat="48.79955" lon="2.98615">
        <ele>124.5</ele>
        <time>2021-05-23T09:49:11Z</time>
      </trkpt>
      <trkpt lat="48.79955" lon="2.98617">
        <ele>124.5</ele>
        <time>2021-05-23T09:49:12Z</time>
      </trkpt>
      <trkpt lat="48.79952" lon="2.98623">
        <ele>124.4</ele>
        <time>2021-05-23T09:49:22Z</time>
      </trkpt>
      <trkpt lat="48.7995" lon="2.9862">
        <ele>124.4</ele>
        <time>2021-05-23T09:49:24Z</time>
      </trkpt>
      <trkpt lat="48.79949" lon="2.98619">
        <ele>124.4</ele>
        <time>2021-05-23T09:49:25Z</time>
      </trkpt>
      <trkpt lat="48.79949" lon="2.98617">
        <ele>124.4</ele>
        <time>2021-05-23T09:49:26Z</time>
      </trkpt>
      <trkpt lat="48.79949" lon="2.98615">
        <ele>124.4</ele>
        <time>2021-05-23T09:49:27Z</time>
      </trkpt>
      <trkpt lat="48.79949" lon="2.98613">
        <ele>124.4</ele>
        <time>2021-05-23T09:49:28Z</time>
      </trkpt>
      <trkpt lat="48.79951" lon="2.98592">
        <ele>124.4</ele>
        <time>2021-05-23T09:49:35Z</time>
      </trkpt>
      <trkpt lat="48.79953" lon="2.98589">
        <ele>124.4</ele>
        <time>2021-05-23T09:49:36Z</time>
      </trkpt>
      <trkpt lat="48.79955" lon="2.98587">
        <ele>124.5</ele>
        <time>2021-05-23T09:49:37Z</time>
      </trkpt>
      <trkpt lat="48.79957" lon="2.98585">
        <ele>124.5</ele>
        <time>2021-05-23T09:49:38Z</time>
      </trkpt>
      <trkpt lat="48.79961" lon="2.98585">
        <ele>124.5</ele>
        <time>2021-05-23T09:49:39Z</time>
      </trkpt>
      <trkpt lat="48.79965" lon="2.98584">
        <ele>124.6</ele>
        <time>2021-05-23T09:49:40Z</time>
      </trkpt>
      <trkpt lat="48.79994" lon="2.98587">
        <ele>124.9</ele>
        <time>2021-05-23T09:49:48Z</time>
      </trkpt>
      <trkpt lat="48.79998" lon="2.98585">
        <ele>125</ele>
        <time>2021-05-23T09:49:49Z</time>
      </trkpt>
      <trkpt lat="48.80001" lon="2.98581">
        <ele>125</ele>
        <time>2021-05-23T09:49:50Z</time>
      </trkpt>
      <trkpt lat="48.80003" lon="2.98575">
        <ele>124.9</ele>
        <time>2021-05-23T09:49:51Z</time>
      </trkpt>
      <trkpt lat="48.80004" lon="2.98569">
        <ele>124.8</ele>
        <time>2021-05-23T09:49:52Z</time>
      </trkpt>
      <trkpt lat="48.80007" lon="2.98539">
        <ele>124.5</ele>
        <time>2021-05-23T09:49:56Z</time>
      </trkpt>
      <trkpt lat="48.79984" lon="2.984">
        <ele>123.8</ele>
        <time>2021-05-23T09:50:07Z</time>
      </trkpt>
      <trkpt lat="48.79954" lon="2.98223">
        <ele>123.3</ele>
        <time>2021-05-23T09:50:15Z</time>
      </trkpt>
      <trkpt lat="48.79919" lon="2.97992">
        <ele>123.9</ele>
        <time>2021-05-23T09:50:23Z</time>
      </trkpt>
      <trkpt lat="48.79846" lon="2.97511">
        <ele>127.1</ele>
        <time>2021-05-23T09:50:37Z</time>
      </trkpt>
      <trkpt lat="48.79789" lon="2.97123">
        <ele>129.7</ele>
        <time>2021-05-23T09:50:49Z</time>
      </trkpt>
      <trkpt lat="48.79697" lon="2.96495">
        <ele>128.7</ele>
        <time>2021-05-23T09:51:08Z</time>
      </trkpt>
      <trkpt lat="48.79604" lon="2.95853">
        <ele>126.8</ele>
        <time>2021-05-23T09:51:28Z</time>
      </trkpt>
      <trkpt lat="48.79544" lon="2.9544">
        <ele>128.7</ele>
        <time>2021-05-23T09:51:41Z</time>
      </trkpt>
      <trkpt lat="48.79456" lon="2.94844">
        <ele>131.2</ele>
        <time>2021-05-23T09:51:59Z</time>
      </trkpt>
      <trkpt lat="48.79383" lon="2.94345">
        <ele>131.6</ele>
        <time>2021-05-23T09:52:14Z</time>
      </trkpt>
      <trkpt lat="48.79293" lon="2.93731">
        <ele>134.5</ele>
        <time>2021-05-23T09:52:33Z</time>
      </trkpt>
      <trkpt lat="48.79246" lon="2.93338">
        <ele>136</ele>
        <time>2021-05-23T09:52:46Z</time>
      </trkpt>
      <trkpt lat="48.79211" lon="2.92922">
        <ele>135.6</ele>
        <time>2021-05-23T09:53:00Z</time>
      </trkpt>
      <trkpt lat="48.79125" lon="2.92433">
        <ele>132.6</ele>
        <time>2021-05-23T09:53:17Z</time>
      </trkpt>
      <trkpt lat="48.79072" lon="2.92151">
        <ele>130.7</ele>
        <time>2021-05-23T09:53:29Z</time>
      </trkpt>
      <trkpt lat="48.79036" lon="2.92001">
        <ele>129.4</ele>
        <time>2021-05-23T09:53:39Z</time>
      </trkpt>
      <trkpt lat="48.79008" lon="2.91876">
        <ele>127.6</ele>
        <time>2021-05-23T09:53:50Z</time>
      </trkpt>
      <trkpt lat="48.78972" lon="2.91705">
        <ele>124.1</ele>
        <time>2021-05-23T09:54:05Z</time>
      </trkpt>
      <trkpt lat="48.78961" lon="2.91616">
        <ele>122.1</ele>
        <time>2021-05-23T09:54:15Z</time>
      </trkpt>
      <trkpt lat="48.78943" lon="2.91596">
        <ele>121.9</ele>
        <time>2021-05-23T09:54:20Z</time>
      </trkpt>
      <trkpt lat="48.78921" lon="2.91593">
        <ele>122.1</ele>
        <time>2021-05-23T09:54:23Z</time>
      </trkpt>
      <trkpt lat="48.78885" lon="2.91597">
        <ele>121</ele>
        <time>2021-05-23T09:54:28Z</time>
      </trkpt>
      <trkpt lat="48.78793" lon="2.91658">
        <ele>119.4</ele>
        <time>2021-05-23T09:54:40Z</time>
      </trkpt>
      <trkpt lat="48.78753" lon="2.91686">
        <ele>120</ele>
        <time>2021-05-23T09:54:46Z</time>
      </trkpt>
      <trkpt lat="48.78721" lon="2.91695">
        <ele>120.5</ele>
        <time>2021-05-23T09:54:52Z</time>
      </trkpt>
      <trkpt lat="48.78715" lon="2.91676">
        <ele>119.8</ele>
        <time>2021-05-23T09:54:56Z</time>
      </trkpt>
      <trkpt lat="48.78675" lon="2.91555">
        <ele>115.5</ele>
        <time>2021-05-23T09:55:07Z</time>
      </trkpt>
      <trkpt lat="48.786" lon="2.9142">
        <ele>107.7</ele>
        <time>2021-05-23T09:55:19Z</time>
      </trkpt>
      <trkpt lat="48.7853" lon="2.91302">
        <ele>100.9</ele>
        <time>2021-05-23T09:55:29Z</time>
      </trkpt>
      <trkpt lat="48.78467" lon="2.91191">
        <ele>100.9</ele>
        <time>2021-05-23T09:55:39Z</time>
      </trkpt>
      <trkpt lat="48.7841" lon="2.91086">
        <ele>105.8</ele>
        <time>2021-05-23T09:55:48Z</time>
      </trkpt>
      <trkpt lat="48.78359" lon="2.90989">
        <ele>109.2</ele>
        <time>2021-05-23T09:55:56Z</time>
      </trkpt>
      <trkpt lat="48.78271" lon="2.90817">
        <ele>123.4</ele>
        <time>2021-05-23T09:56:05Z</time>
      </trkpt>
      <trkpt lat="48.78186" lon="2.90647">
        <ele>120.7</ele>
        <time>2021-05-23T09:56:13Z</time>
      </trkpt>
      <trkpt lat="48.7809" lon="2.9047">
        <ele>119.8</ele>
        <time>2021-05-23T09:56:21Z</time>
      </trkpt>
      <trkpt lat="48.77897" lon="2.90268">
        <ele>122</ele>
        <time>2021-05-23T09:56:33Z</time>
      </trkpt>
      <trkpt lat="48.77723" lon="2.90092">
        <ele>125.7</ele>
        <time>2021-05-23T09:56:45Z</time>
      </trkpt>
      <trkpt lat="48.77686" lon="2.90057">
        <ele>126.2</ele>
        <time>2021-05-23T09:56:48Z</time>
      </trkpt>
      <trkpt lat="48.77648" lon="2.90038">
        <ele>125.5</ele>
        <time>2021-05-23T09:56:51Z</time>
      </trkpt>
      <trkpt lat="48.77614" lon="2.90028">
        <ele>124.3</ele>
        <time>2021-05-23T09:56:54Z</time>
      </trkpt>
      <trkpt lat="48.77577" lon="2.89981">
        <ele>121.7</ele>
        <time>2021-05-23T09:57:00Z</time>
      </trkpt>
      <trkpt lat="48.77576" lon="2.89962">
        <ele>121.2</ele>
        <time>2021-05-23T09:57:04Z</time>
      </trkpt>
      <trkpt lat="48.7762" lon="2.89876">
        <ele>122</ele>
        <time>2021-05-23T09:57:12Z</time>
      </trkpt>
      <trkpt lat="48.77703" lon="2.89713">
        <ele>123</ele>
        <time>2021-05-23T09:57:20Z</time>
      </trkpt>
      <trkpt lat="48.7784" lon="2.89462">
        <ele>122.9</ele>
        <time>2021-05-23T09:57:30Z</time>
      </trkpt>
      <trkpt lat="48.77975" lon="2.89198">
        <ele>124.8</ele>
        <time>2021-05-23T09:57:41Z</time>
      </trkpt>
      <trkpt lat="48.78102" lon="2.88958">
        <ele>125.5</ele>
        <time>2021-05-23T09:57:51Z</time>
      </trkpt>
      <trkpt lat="48.78258" lon="2.88663">
        <ele>127</ele>
        <time>2021-05-23T09:58:03Z</time>
      </trkpt>
      <trkpt lat="48.7839" lon="2.88407">
        <ele>124.4</ele>
        <time>2021-05-23T09:58:14Z</time>
      </trkpt>
      <trkpt lat="48.78536" lon="2.88127">
        <ele>127.3</ele>
        <time>2021-05-23T09:58:26Z</time>
      </trkpt>
      <trkpt lat="48.78664" lon="2.87883">
        <ele>129.6</ele>
        <time>2021-05-23T09:58:37Z</time>
      </trkpt>
      <trkpt lat="48.78765" lon="2.8769">
        <ele>129.5</ele>
        <time>2021-05-23T09:58:46Z</time>
      </trkpt>
      <trkpt lat="48.78876" lon="2.87468">
        <ele>127</ele>
        <time>2021-05-23T09:58:56Z</time>
      </trkpt>
      <trkpt lat="48.79015" lon="2.87213">
        <ele>127.8</ele>
        <time>2021-05-23T09:59:08Z</time>
      </trkpt>
      <trkpt lat="48.79099" lon="2.87038">
        <ele>127.7</ele>
        <time>2021-05-23T09:59:17Z</time>
      </trkpt>
      <trkpt lat="48.79134" lon="2.86978">
        <ele>126.2</ele>
        <time>2021-05-23T09:59:21Z</time>
      </trkpt>
      <trkpt lat="48.79166" lon="2.86946">
        <ele>125.4</ele>
        <time>2021-05-23T09:59:25Z</time>
      </trkpt>
      <trkpt lat="48.79177" lon="2.86934">
        <ele>125.5</ele>
        <time>2021-05-23T09:59:27Z</time>
      </trkpt>
      <trkpt lat="48.79181" lon="2.86926">
        <ele>125.6</ele>
        <time>2021-05-23T09:59:28Z</time>
      </trkpt>
      <trkpt lat="48.79183" lon="2.86917">
        <ele>125.6</ele>
        <time>2021-05-23T09:59:29Z</time>
      </trkpt>
      <trkpt lat="48.79183" lon="2.86909">
        <ele>125.8</ele>
        <time>2021-05-23T09:59:30Z</time>
      </trkpt>
      <trkpt lat="48.79178" lon="2.86899">
        <ele>125.8</ele>
        <time>2021-05-23T09:59:31Z</time>
      </trkpt>
      <trkpt lat="48.79174" lon="2.86893">
        <ele>125.8</ele>
        <time>2021-05-23T09:59:32Z</time>
      </trkpt>
      <trkpt lat="48.79168" lon="2.86889">
        <ele>125.7</ele>
        <time>2021-05-23T09:59:33Z</time>
      </trkpt>
      <trkpt lat="48.79161" lon="2.86889">
        <ele>125.7</ele>
        <time>2021-05-23T09:59:34Z</time>
      </trkpt>
      <trkpt lat="48.79153" lon="2.86892">
        <ele>125.8</ele>
        <time>2021-05-23T09:59:35Z</time>
      </trkpt>
      <trkpt lat="48.79134" lon="2.86894">
        <ele>126</ele>
        <time>2021-05-23T09:59:37Z</time>
      </trkpt>
      <trkpt lat="48.79122" lon="2.86893">
        <ele>126.2</ele>
        <time>2021-05-23T09:59:38Z</time>
      </trkpt>
      <trkpt lat="48.79003" lon="2.86865">
        <ele>125.8</ele>
        <time>2021-05-23T09:59:45Z</time>
      </trkpt>
      <trkpt lat="48.78855" lon="2.86826">
        <ele>123.4</ele>
        <time>2021-05-23T09:59:52Z</time>
      </trkpt>
      <trkpt lat="48.78639" lon="2.86769">
        <ele>125.6</ele>
        <time>2021-05-23T10:00:02Z</time>
      </trkpt>
      <trkpt lat="48.78453" lon="2.8672">
        <ele>123.9</ele>
        <time>2021-05-23T10:00:10Z</time>
      </trkpt>
      <trkpt lat="48.78189" lon="2.8665">
        <ele>123.2</ele>
        <time>2021-05-23T10:00:22Z</time>
      </trkpt>
      <trkpt lat="48.77988" lon="2.86595">
        <ele>125</ele>
        <time>2021-05-23T10:00:31Z</time>
      </trkpt>
      <trkpt lat="48.77749" lon="2.86532">
        <ele>125.6</ele>
        <time>2021-05-23T10:00:42Z</time>
      </trkpt>
      <trkpt lat="48.775" lon="2.86466">
        <ele>124.4</ele>
        <time>2021-05-23T10:00:54Z</time>
      </trkpt>
      <trkpt lat="48.77337" lon="2.86423">
        <ele>122.9</ele>
        <time>2021-05-23T10:01:02Z</time>
      </trkpt>
      <trkpt lat="48.77145" lon="2.86364">
        <ele>120.1</ele>
        <time>2021-05-23T10:01:12Z</time>
      </trkpt>
      <trkpt lat="48.76884" lon="2.86282">
        <ele>117.1</ele>
        <time>2021-05-23T10:01:25Z</time>
      </trkpt>
      <trkpt lat="48.76474" lon="2.8611">
        <ele>115.3</ele>
        <time>2021-05-23T10:01:45Z</time>
      </trkpt>
      <trkpt lat="48.76126" lon="2.85988">
        <ele>117</ele>
        <time>2021-05-23T10:02:02Z</time>
      </trkpt>
      <trkpt lat="48.75784" lon="2.85913">
        <ele>115</ele>
        <time>2021-05-23T10:02:19Z</time>
      </trkpt>
      <trkpt lat="48.75343" lon="2.85854">
        <ele>111.5</ele>
        <time>2021-05-23T10:02:41Z</time>
      </trkpt>
      <trkpt lat="48.74913" lon="2.85799">
        <ele>111</ele>
        <time>2021-05-23T10:03:03Z</time>
      </trkpt>
      <trkpt lat="48.74634" lon="2.85763">
        <ele>109.8</ele>
        <time>2021-05-23T10:03:17Z</time>
      </trkpt>
      <trkpt lat="48.74335" lon="2.85724">
        <ele>110.7</ele>
        <time>2021-05-23T10:03:32Z</time>
      </trkpt>
      <trkpt lat="48.73903" lon="2.85665">
        <ele>110</ele>
        <time>2021-05-23T10:03:53Z</time>
      </trkpt>
      <trkpt lat="48.73596" lon="2.85598">
        <ele>109.5</ele>
        <time>2021-05-23T10:04:08Z</time>
      </trkpt>
      <trkpt lat="48.73264" lon="2.85498">
        <ele>109.6</ele>
        <time>2021-05-23T10:04:25Z</time>
      </trkpt>
      <trkpt lat="48.72961" lon="2.85382">
        <ele>109.1</ele>
        <time>2021-05-23T10:04:41Z</time>
      </trkpt>
      <trkpt lat="48.727" lon="2.85263">
        <ele>109.1</ele>
        <time>2021-05-23T10:04:54Z</time>
      </trkpt>
      <trkpt lat="48.72403" lon="2.85106">
        <ele>115.8</ele>
        <time>2021-05-23T10:05:10Z</time>
      </trkpt>
      <trkpt lat="48.72164" lon="2.84961">
        <ele>112.6</ele>
        <time>2021-05-23T10:05:23Z</time>
      </trkpt>
      <trkpt lat="48.71938" lon="2.84806">
        <ele>110.8</ele>
        <time>2021-05-23T10:05:36Z</time>
      </trkpt>
      <trkpt lat="48.71798" lon="2.84701">
        <ele>108.2</ele>
        <time>2021-05-23T10:05:47Z</time>
      </trkpt>
      <trkpt lat="48.71783" lon="2.84688">
        <ele>108.4</ele>
        <time>2021-05-23T10:05:49Z</time>
      </trkpt>
      <trkpt lat="48.7177" lon="2.84663">
        <ele>108.9</ele>
        <time>2021-05-23T10:05:52Z</time>
      </trkpt>
      <trkpt lat="48.71744" lon="2.84645">
        <ele>109.3</ele>
        <time>2021-05-23T10:05:56Z</time>
      </trkpt>
      <trkpt lat="48.71735" lon="2.84645">
        <ele>108.9</ele>
        <time>2021-05-23T10:05:57Z</time>
      </trkpt>
      <trkpt lat="48.71707" lon="2.84631">
        <ele>108.1</ele>
        <time>2021-05-23T10:06:00Z</time>
      </trkpt>
      <trkpt lat="48.71583" lon="2.84527">
        <ele>104</ele>
        <time>2021-05-23T10:06:10Z</time>
      </trkpt>
      <trkpt lat="48.71402" lon="2.84369">
        <ele>103.1</ele>
        <time>2021-05-23T10:06:21Z</time>
      </trkpt>
      <trkpt lat="48.71051" lon="2.84025">
        <ele>101.3</ele>
        <time>2021-05-23T10:06:41Z</time>
      </trkpt>
      <trkpt lat="48.7077" lon="2.8371">
        <ele>111.1</ele>
        <time>2021-05-23T10:06:58Z</time>
      </trkpt>
      <trkpt lat="48.70584" lon="2.83473">
        <ele>113.3</ele>
        <time>2021-05-23T10:07:10Z</time>
      </trkpt>
      <trkpt lat="48.70356" lon="2.83163">
        <ele>103.8</ele>
        <time>2021-05-23T10:07:25Z</time>
      </trkpt>
      <trkpt lat="48.70068" lon="2.82778">
        <ele>102.2</ele>
        <time>2021-05-23T10:07:44Z</time>
      </trkpt>
      <trkpt lat="48.69803" lon="2.82459">
        <ele>102.2</ele>
        <time>2021-05-23T10:08:01Z</time>
      </trkpt>
      <trkpt lat="48.69535" lon="2.82185">
        <ele>112.3</ele>
        <time>2021-05-23T10:08:17Z</time>
      </trkpt>
      <trkpt lat="48.69243" lon="2.81949">
        <ele>107.1</ele>
        <time>2021-05-23T10:08:33Z</time>
      </trkpt>
      <trkpt lat="48.69003" lon="2.81801">
        <ele>108</ele>
        <time>2021-05-23T10:08:46Z</time>
      </trkpt>
      <trkpt lat="48.68755" lon="2.81668">
        <ele>104.1</ele>
        <time>2021-05-23T10:08:59Z</time>
      </trkpt>
      <trkpt lat="48.68462" lon="2.81555">
        <ele>105.7</ele>
        <time>2021-05-23T10:09:14Z</time>
      </trkpt>
      <trkpt lat="48.68147" lon="2.81469">
        <ele>98.9</ele>
        <time>2021-05-23T10:09:30Z</time>
      </trkpt>
      <trkpt lat="48.67752" lon="2.81374">
        <ele>95.6</ele>
        <time>2021-05-23T10:09:50Z</time>
      </trkpt>
      <trkpt lat="48.67402" lon="2.81287">
        <ele>99.5</ele>
        <time>2021-05-23T10:10:08Z</time>
      </trkpt>
      <trkpt lat="48.67083" lon="2.81207">
        <ele>98.5</ele>
        <time>2021-05-23T10:10:24Z</time>
      </trkpt>
      <trkpt lat="48.66726" lon="2.81118">
        <ele>101.6</ele>
        <time>2021-05-23T10:10:42Z</time>
      </trkpt>
      <trkpt lat="48.66375" lon="2.81019">
        <ele>91.6</ele>
        <time>2021-05-23T10:11:00Z</time>
      </trkpt>
      <trkpt lat="48.6614" lon="2.80935">
        <ele>79.6</ele>
        <time>2021-05-23T10:11:11Z</time>
      </trkpt>
      <trkpt lat="48.65843" lon="2.80805">
        <ele>68</ele>
        <time>2021-05-23T10:11:26Z</time>
      </trkpt>
      <trkpt lat="48.6561" lon="2.80681">
        <ele>90.2</ele>
        <time>2021-05-23T10:11:37Z</time>
      </trkpt>
      <trkpt lat="48.65365" lon="2.80534">
        <ele>97.3</ele>
        <time>2021-05-23T10:11:49Z</time>
      </trkpt>
      <trkpt lat="48.65081" lon="2.80334">
        <ele>99.1</ele>
        <time>2021-05-23T10:12:03Z</time>
      </trkpt>
      <trkpt lat="48.64858" lon="2.80154">
        <ele>98.6</ele>
        <time>2021-05-23T10:12:15Z</time>
      </trkpt>
      <trkpt lat="48.64567" lon="2.79893">
        <ele>98.6</ele>
        <time>2021-05-23T10:12:32Z</time>
      </trkpt>
      <trkpt lat="48.64335" lon="2.79674">
        <ele>93.2</ele>
        <time>2021-05-23T10:12:46Z</time>
      </trkpt>
      <trkpt lat="48.64121" lon="2.79471">
        <ele>84.4</ele>
        <time>2021-05-23T10:12:58Z</time>
      </trkpt>
      <trkpt lat="48.63922" lon="2.79277">
        <ele>78.6</ele>
        <time>2021-05-23T10:13:10Z</time>
      </trkpt>
      <trkpt lat="48.63748" lon="2.79062">
        <ele>87.3</ele>
        <time>2021-05-23T10:13:22Z</time>
      </trkpt>
      <trkpt lat="48.63687" lon="2.78899">
        <ele>87.8</ele>
        <time>2021-05-23T10:13:29Z</time>
      </trkpt>
      <trkpt lat="48.63638" lon="2.78812">
        <ele>89.3</ele>
        <time>2021-05-23T10:13:35Z</time>
      </trkpt>
      <trkpt lat="48.63619" lon="2.78794">
        <ele>90.6</ele>
        <time>2021-05-23T10:13:40Z</time>
      </trkpt>
      <trkpt lat="48.63612" lon="2.78775">
        <ele>90.9</ele>
        <time>2021-05-23T10:13:43Z</time>
      </trkpt>
      <trkpt lat="48.63569" lon="2.78742">
        <ele>92.1</ele>
        <time>2021-05-23T10:13:49Z</time>
      </trkpt>
      <trkpt lat="48.63525" lon="2.78719">
        <ele>92.3</ele>
        <time>2021-05-23T10:13:53Z</time>
      </trkpt>
      <trkpt lat="48.63404" lon="2.7858">
        <ele>92.1</ele>
        <time>2021-05-23T10:14:02Z</time>
      </trkpt>
      <trkpt lat="48.63291" lon="2.78365">
        <ele>91.2</ele>
        <time>2021-05-23T10:14:11Z</time>
      </trkpt>
      <trkpt lat="48.63063" lon="2.77912">
        <ele>91.8</ele>
        <time>2021-05-23T10:14:29Z</time>
      </trkpt>
      <trkpt lat="48.62865" lon="2.77519">
        <ele>91</ele>
        <time>2021-05-23T10:14:45Z</time>
      </trkpt>
      <trkpt lat="48.62704" lon="2.77202">
        <ele>92.9</ele>
        <time>2021-05-23T10:14:58Z</time>
      </trkpt>
      <trkpt lat="48.62471" lon="2.76741">
        <ele>93.7</ele>
        <time>2021-05-23T10:15:17Z</time>
      </trkpt>
      <trkpt lat="48.62263" lon="2.76331">
        <ele>93.2</ele>
        <time>2021-05-23T10:15:34Z</time>
      </trkpt>
      <trkpt lat="48.62106" lon="2.7602">
        <ele>92.1</ele>
        <time>2021-05-23T10:15:47Z</time>
      </trkpt>
      <trkpt lat="48.619" lon="2.75614">
        <ele>91.3</ele>
        <time>2021-05-23T10:16:04Z</time>
      </trkpt>
      <trkpt lat="48.6167" lon="2.75161">
        <ele>92</ele>
        <time>2021-05-23T10:16:23Z</time>
      </trkpt>
      <trkpt lat="48.61503" lon="2.7486">
        <ele>90</ele>
        <time>2021-05-23T10:16:37Z</time>
      </trkpt>
      <trkpt lat="48.61367" lon="2.74725">
        <ele>90</ele>
        <time>2021-05-23T10:16:46Z</time>
      </trkpt>
      <trkpt lat="48.61075" lon="2.74446">
        <ele>88.3</ele>
        <time>2021-05-23T10:17:03Z</time>
      </trkpt>
      <trkpt lat="48.60851" lon="2.74231">
        <ele>90.6</ele>
        <time>2021-05-23T10:17:16Z</time>
      </trkpt>
      <trkpt lat="48.60549" lon="2.73937">
        <ele>88.6</ele>
        <time>2021-05-23T10:17:34Z</time>
      </trkpt>
      <trkpt lat="48.6024" lon="2.73643">
        <ele>89.4</ele>
        <time>2021-05-23T10:17:52Z</time>
      </trkpt>
      <trkpt lat="48.59938" lon="2.73352">
        <ele>90.2</ele>
        <time>2021-05-23T10:18:10Z</time>
      </trkpt>
      <trkpt lat="48.59617" lon="2.73045">
        <ele>88.2</ele>
        <time>2021-05-23T10:18:29Z</time>
      </trkpt>
      <trkpt lat="48.59367" lon="2.72804">
        <ele>86.5</ele>
        <time>2021-05-23T10:18:44Z</time>
      </trkpt>
      <trkpt lat="48.59193" lon="2.726">
        <ele>86.3</ele>
        <time>2021-05-23T10:18:56Z</time>
      </trkpt>
      <trkpt lat="48.59052" lon="2.72415">
        <ele>86.3</ele>
        <time>2021-05-23T10:19:07Z</time>
      </trkpt>
      <trkpt lat="48.5898" lon="2.72316">
        <ele>85.8</ele>
        <time>2021-05-23T10:19:16Z</time>
      </trkpt>
      <trkpt lat="48.58954" lon="2.72266">
        <ele>85.4</ele>
        <time>2021-05-23T10:19:23Z</time>
      </trkpt>
      <trkpt lat="48.58952" lon="2.72256">
        <ele>85.4</ele>
        <time>2021-05-23T10:19:24Z</time>
      </trkpt>
      <trkpt lat="48.58948" lon="2.72232">
        <ele>85.5</ele>
        <time>2021-05-23T10:19:26Z</time>
      </trkpt>
      <trkpt lat="48.58943" lon="2.7222">
        <ele>85.6</ele>
        <time>2021-05-23T10:19:27Z</time>
      </trkpt>
      <trkpt lat="48.58936" lon="2.72211">
        <ele>85.6</ele>
        <time>2021-05-23T10:19:28Z</time>
      </trkpt>
      <trkpt lat="48.58927" lon="2.72205">
        <ele>85.6</ele>
        <time>2021-05-23T10:19:29Z</time>
      </trkpt>
      <trkpt lat="48.58916" lon="2.72203">
        <ele>85.6</ele>
        <time>2021-05-23T10:19:30Z</time>
      </trkpt>
      <trkpt lat="48.58905" lon="2.72201">
        <ele>85.4</ele>
        <time>2021-05-23T10:19:31Z</time>
      </trkpt>
      <trkpt lat="48.58895" lon="2.72198">
        <ele>85.4</ele>
        <time>2021-05-23T10:19:32Z</time>
      </trkpt>
      <trkpt lat="48.58885" lon="2.72191">
        <ele>85.3</ele>
        <time>2021-05-23T10:19:33Z</time>
      </trkpt>
      <trkpt lat="48.58875" lon="2.72181">
        <ele>85.3</ele>
        <time>2021-05-23T10:19:34Z</time>
      </trkpt>
      <trkpt lat="48.58866" lon="2.72169">
        <ele>85.4</ele>
        <time>2021-05-23T10:19:35Z</time>
      </trkpt>
      <trkpt lat="48.58774" lon="2.7205">
        <ele>85.9</ele>
        <time>2021-05-23T10:19:44Z</time>
      </trkpt>
      <trkpt lat="48.58676" lon="2.71921">
        <ele>87.8</ele>
        <time>2021-05-23T10:19:56Z</time>
      </trkpt>
      <trkpt lat="48.58557" lon="2.71767">
        <ele>86.9</ele>
        <time>2021-05-23T10:20:10Z</time>
      </trkpt>
      <trkpt lat="48.58431" lon="2.71598">
        <ele>83.4</ele>
        <time>2021-05-23T10:20:24Z</time>
      </trkpt>
      <trkpt lat="48.58334" lon="2.71474">
        <ele>84</ele>
        <time>2021-05-23T10:20:35Z</time>
      </trkpt>
      <trkpt lat="48.58232" lon="2.71342">
        <ele>84.1</ele>
        <time>2021-05-23T10:20:48Z</time>
      </trkpt>
      <trkpt lat="48.58183" lon="2.71277">
        <ele>84</ele>
        <time>2021-05-23T10:20:55Z</time>
      </trkpt>
      <trkpt lat="48.58106" lon="2.71176">
        <ele>85</ele>
        <time>2021-05-23T10:21:06Z</time>
      </trkpt>
      <trkpt lat="48.58077" lon="2.71137">
        <ele>84.2</ele>
        <time>2021-05-23T10:21:17Z</time>
      </trkpt>
      <trkpt lat="48.58078" lon="2.71136">
        <ele>84.1</ele>
        <time>2021-05-23T10:21:31Z</time>
      </trkpt>
      <trkpt lat="48.58078" lon="2.71136">
        <ele>84.2</ele>
        <time>2021-05-23T10:21:36Z</time>
      </trkpt>
      <trkpt lat="48.58069" lon="2.71126">
        <ele>83.8</ele>
        <time>2021-05-23T10:21:39Z</time>
      </trkpt>
      <trkpt lat="48.58016" lon="2.71057">
        <ele>83</ele>
        <time>2021-05-23T10:21:46Z</time>
      </trkpt>
      <trkpt lat="48.57883" lon="2.70886">
        <ele>82.2</ele>
        <time>2021-05-23T10:21:58Z</time>
      </trkpt>
      <trkpt lat="48.57746" lon="2.70715">
        <ele>81.3</ele>
        <time>2021-05-23T10:22:07Z</time>
      </trkpt>
      <trkpt lat="48.57578" lon="2.70487">
        <ele>82.3</ele>
        <time>2021-05-23T10:22:18Z</time>
      </trkpt>
      <trkpt lat="48.5733" lon="2.70162">
        <ele>80.1</ele>
        <time>2021-05-23T10:22:35Z</time>
      </trkpt>
      <trkpt lat="48.57118" lon="2.69884">
        <ele>80.2</ele>
        <time>2021-05-23T10:22:50Z</time>
      </trkpt>
      <trkpt lat="48.5689" lon="2.69587">
        <ele>77.9</ele>
        <time>2021-05-23T10:23:06Z</time>
      </trkpt>
      <trkpt lat="48.56671" lon="2.69301">
        <ele>78.2</ele>
        <time>2021-05-23T10:23:22Z</time>
      </trkpt>
      <trkpt lat="48.56525" lon="2.69106">
        <ele>76.1</ele>
        <time>2021-05-23T10:23:34Z</time>
      </trkpt>
      <trkpt lat="48.56518" lon="2.69093">
        <ele>76</ele>
        <time>2021-05-23T10:23:35Z</time>
      </trkpt>
      <trkpt lat="48.56512" lon="2.69082">
        <ele>76</ele>
        <time>2021-05-23T10:23:36Z</time>
      </trkpt>
      <trkpt lat="48.56509" lon="2.69069">
        <ele>76</ele>
        <time>2021-05-23T10:23:37Z</time>
      </trkpt>
      <trkpt lat="48.56507" lon="2.69056">
        <ele>76</ele>
        <time>2021-05-23T10:23:38Z</time>
      </trkpt>
      <trkpt lat="48.56506" lon="2.69042">
        <ele>76</ele>
        <time>2021-05-23T10:23:39Z</time>
      </trkpt>
      <trkpt lat="48.56508" lon="2.69029">
        <ele>76</ele>
        <time>2021-05-23T10:23:40Z</time>
      </trkpt>
      <trkpt lat="48.56513" lon="2.69016">
        <ele>76</ele>
        <time>2021-05-23T10:23:41Z</time>
      </trkpt>
      <trkpt lat="48.56519" lon="2.69004">
        <ele>76</ele>
        <time>2021-05-23T10:23:42Z</time>
      </trkpt>
      <trkpt lat="48.56527" lon="2.68991">
        <ele>76.1</ele>
        <time>2021-05-23T10:23:43Z</time>
      </trkpt>
      <trkpt lat="48.56537" lon="2.68979">
        <ele>76.1</ele>
        <time>2021-05-23T10:23:44Z</time>
      </trkpt>
      <trkpt lat="48.56608" lon="2.68867">
        <ele>77.3</ele>
        <time>2021-05-23T10:23:51Z</time>
      </trkpt>
      <trkpt lat="48.56615" lon="2.68847">
        <ele>77.7</ele>
        <time>2021-05-23T10:23:52Z</time>
      </trkpt>
      <trkpt lat="48.56621" lon="2.68826">
        <ele>78.1</ele>
        <time>2021-05-23T10:23:53Z</time>
      </trkpt>
      <trkpt lat="48.56683" lon="2.68551">
        <ele>78.7</ele>
        <time>2021-05-23T10:24:04Z</time>
      </trkpt>
      <trkpt lat="48.56771" lon="2.6816">
        <ele>77.2</ele>
        <time>2021-05-23T10:24:19Z</time>
      </trkpt>
      <trkpt lat="48.56842" lon="2.67834">
        <ele>74</ele>
        <time>2021-05-23T10:24:33Z</time>
      </trkpt>
      <trkpt lat="48.56844" lon="2.67812">
        <ele>74.1</ele>
        <time>2021-05-23T10:24:34Z</time>
      </trkpt>
      <trkpt lat="48.56844" lon="2.67791">
        <ele>74.1</ele>
        <time>2021-05-23T10:24:35Z</time>
      </trkpt>
      <trkpt lat="48.56842" lon="2.67769">
        <ele>74.2</ele>
        <time>2021-05-23T10:24:36Z</time>
      </trkpt>
      <trkpt lat="48.56838" lon="2.67749">
        <ele>74.2</ele>
        <time>2021-05-23T10:24:37Z</time>
      </trkpt>
      <trkpt lat="48.56834" lon="2.67729">
        <ele>74.5</ele>
        <time>2021-05-23T10:24:38Z</time>
      </trkpt>
      <trkpt lat="48.56822" lon="2.67656">
        <ele>76</ele>
        <time>2021-05-23T10:24:42Z</time>
      </trkpt>
      <trkpt lat="48.56822" lon="2.67641">
        <ele>76</ele>
        <time>2021-05-23T10:24:43Z</time>
      </trkpt>
      <trkpt lat="48.56822" lon="2.67628">
        <ele>76.1</ele>
        <time>2021-05-23T10:24:44Z</time>
      </trkpt>
      <trkpt lat="48.56824" lon="2.67616">
        <ele>76.1</ele>
        <time>2021-05-23T10:24:45Z</time>
      </trkpt>
      <trkpt lat="48.56827" lon="2.67606">
        <ele>76.1</ele>
        <time>2021-05-23T10:24:46Z</time>
      </trkpt>
      <trkpt lat="48.56831" lon="2.67596">
        <ele>76</ele>
        <time>2021-05-23T10:24:47Z</time>
      </trkpt>
      <trkpt lat="48.56834" lon="2.67586">
        <ele>76</ele>
        <time>2021-05-23T10:24:48Z</time>
      </trkpt>
      <trkpt lat="48.56836" lon="2.67575">
        <ele>75.9</ele>
        <time>2021-05-23T10:24:49Z</time>
      </trkpt>
      <trkpt lat="48.56836" lon="2.67563">
        <ele>75.9</ele>
        <time>2021-05-23T10:24:50Z</time>
      </trkpt>
      <trkpt lat="48.56836" lon="2.6755">
        <ele>76</ele>
        <time>2021-05-23T10:24:51Z</time>
      </trkpt>
      <trkpt lat="48.56836" lon="2.67536">
        <ele>76</ele>
        <time>2021-05-23T10:24:52Z</time>
      </trkpt>
      <trkpt lat="48.56838" lon="2.67521">
        <ele>76</ele>
        <time>2021-05-23T10:24:53Z</time>
      </trkpt>
      <trkpt lat="48.56842" lon="2.67507">
        <ele>76</ele>
        <time>2021-05-23T10:24:54Z</time>
      </trkpt>
      <trkpt lat="48.56847" lon="2.67492">
        <ele>76.3</ele>
        <time>2021-05-23T10:24:55Z</time>
      </trkpt>
      <trkpt lat="48.56907" lon="2.67325">
        <ele>79.5</ele>
        <time>2021-05-23T10:25:05Z</time>
      </trkpt>
      <trkpt lat="48.56951" lon="2.67114">
        <ele>77.5</ele>
        <time>2021-05-23T10:25:16Z</time>
      </trkpt>
      <trkpt lat="48.56987" lon="2.6688">
        <ele>77.6</ele>
        <time>2021-05-23T10:25:28Z</time>
      </trkpt>
      <trkpt lat="48.57005" lon="2.66761">
        <ele>78.1</ele>
        <time>2021-05-23T10:25:37Z</time>
      </trkpt>
      <trkpt lat="48.57012" lon="2.66714">
        <ele>78.1</ele>
        <time>2021-05-23T10:25:41Z</time>
      </trkpt>
      <trkpt lat="48.57036" lon="2.6659">
        <ele>78.4</ele>
        <time>2021-05-23T10:25:52Z</time>
      </trkpt>
      <trkpt lat="48.57056" lon="2.66506">
        <ele>77.7</ele>
        <time>2021-05-23T10:26:01Z</time>
      </trkpt>
      <trkpt lat="48.57061" lon="2.66483">
        <ele>77.9</ele>
        <time>2021-05-23T10:26:10Z</time>
      </trkpt>
      <trkpt lat="48.57073" lon="2.66398">
        <ele>79.2</ele>
        <time>2021-05-23T10:26:18Z</time>
      </trkpt>
      <trkpt lat="48.57088" lon="2.66285">
        <ele>79.7</ele>
        <time>2021-05-23T10:26:29Z</time>
      </trkpt>
      <trkpt lat="48.57088" lon="2.66255">
        <ele>79</ele>
        <time>2021-05-23T10:26:35Z</time>
      </trkpt>
      <trkpt lat="48.57087" lon="2.66245">
        <ele>78.9</ele>
        <time>2021-05-23T10:26:36Z</time>
      </trkpt>
      <trkpt lat="48.57084" lon="2.66169">
        <ele>79</ele>
        <time>2021-05-23T10:26:42Z</time>
      </trkpt>
      <trkpt lat="48.57086" lon="2.66157">
        <ele>78.9</ele>
        <time>2021-05-23T10:26:43Z</time>
      </trkpt>
      <trkpt lat="48.5709" lon="2.66148">
        <ele>78.9</ele>
        <time>2021-05-23T10:26:44Z</time>
      </trkpt>
      <trkpt lat="48.57096" lon="2.66143">
        <ele>78.7</ele>
        <time>2021-05-23T10:26:45Z</time>
      </trkpt>
      <trkpt lat="48.57103" lon="2.66139">
        <ele>78.6</ele>
        <time>2021-05-23T10:26:46Z</time>
      </trkpt>
      <trkpt lat="48.57112" lon="2.66138">
        <ele>78.4</ele>
        <time>2021-05-23T10:26:47Z</time>
      </trkpt>
      <trkpt lat="48.57121" lon="2.66136">
        <ele>78.3</ele>
        <time>2021-05-23T10:26:48Z</time>
      </trkpt>
      <trkpt lat="48.5713" lon="2.66132">
        <ele>78.1</ele>
        <time>2021-05-23T10:26:49Z</time>
      </trkpt>
      <trkpt lat="48.57138" lon="2.66126">
        <ele>78</ele>
        <time>2021-05-23T10:26:50Z</time>
      </trkpt>
      <trkpt lat="48.57145" lon="2.66118">
        <ele>78</ele>
        <time>2021-05-23T10:26:51Z</time>
      </trkpt>
      <trkpt lat="48.5715" lon="2.66108">
        <ele>78</ele>
        <time>2021-05-23T10:26:52Z</time>
      </trkpt>
      <trkpt lat="48.57155" lon="2.66096">
        <ele>78</ele>
        <time>2021-05-23T10:26:53Z</time>
      </trkpt>
      <trkpt lat="48.57159" lon="2.66083">
        <ele>78.1</ele>
        <time>2021-05-23T10:26:54Z</time>
      </trkpt>
      <trkpt lat="48.57162" lon="2.66069">
        <ele>78.2</ele>
        <time>2021-05-23T10:26:55Z</time>
      </trkpt>
      <trkpt lat="48.5718" lon="2.66005">
        <ele>78.9</ele>
        <time>2021-05-23T10:27:00Z</time>
      </trkpt>
      <trkpt lat="48.57185" lon="2.65995">
        <ele>79</ele>
        <time>2021-05-23T10:27:01Z</time>
      </trkpt>
      <trkpt lat="48.57222" lon="2.65927">
        <ele>79</ele>
        <time>2021-05-23T10:27:07Z</time>
      </trkpt>
      <trkpt lat="48.57225" lon="2.65913">
        <ele>79</ele>
        <time>2021-05-23T10:27:08Z</time>
      </trkpt>
      <trkpt lat="48.57233" lon="2.65869">
        <ele>78.9</ele>
        <time>2021-05-23T10:27:11Z</time>
      </trkpt>
      <trkpt lat="48.57234" lon="2.65854">
        <ele>78.9</ele>
        <time>2021-05-23T10:27:12Z</time>
      </trkpt>
      <trkpt lat="48.57238" lon="2.65791">
        <ele>78</ele>
        <time>2021-05-23T10:27:16Z</time>
      </trkpt>
      <trkpt lat="48.57241" lon="2.65776">
        <ele>77.7</ele>
        <time>2021-05-23T10:27:17Z</time>
      </trkpt>
      <trkpt lat="48.57243" lon="2.65761">
        <ele>77.3</ele>
        <time>2021-05-23T10:27:18Z</time>
      </trkpt>
      <trkpt lat="48.57249" lon="2.65712">
        <ele>76.6</ele>
        <time>2021-05-23T10:27:21Z</time>
      </trkpt>
      <trkpt lat="48.57252" lon="2.65695">
        <ele>76.4</ele>
        <time>2021-05-23T10:27:22Z</time>
      </trkpt>
      <trkpt lat="48.57256" lon="2.65679">
        <ele>76.3</ele>
        <time>2021-05-23T10:27:23Z</time>
      </trkpt>
      <trkpt lat="48.57315" lon="2.65487">
        <ele>76.5</ele>
        <time>2021-05-23T10:27:33Z</time>
      </trkpt>
      <trkpt lat="48.57412" lon="2.65175">
        <ele>79.3</ele>
        <time>2021-05-23T10:27:47Z</time>
      </trkpt>
      <trkpt lat="48.57458" lon="2.65043">
        <ele>77.3</ele>
        <time>2021-05-23T10:27:53Z</time>
      </trkpt>
      <trkpt lat="48.57462" lon="2.65018">
        <ele>76.9</ele>
        <time>2021-05-23T10:27:54Z</time>
      </trkpt>
      <trkpt lat="48.57465" lon="2.64993">
        <ele>76.5</ele>
        <time>2021-05-23T10:27:55Z</time>
      </trkpt>
      <trkpt lat="48.57467" lon="2.64721">
        <ele>77.9</ele>
        <time>2021-05-23T10:28:05Z</time>
      </trkpt>
      <trkpt lat="48.57465" lon="2.64452">
        <ele>77.9</ele>
        <time>2021-05-23T10:28:16Z</time>
      </trkpt>
      <trkpt lat="48.57468" lon="2.64371">
        <ele>78.4</ele>
        <time>2021-05-23T10:28:21Z</time>
      </trkpt>
      <trkpt lat="48.5747" lon="2.64361">
        <ele>78.5</ele>
        <time>2021-05-23T10:28:22Z</time>
      </trkpt>
      <trkpt lat="48.57474" lon="2.64352">
        <ele>78.6</ele>
        <time>2021-05-23T10:28:23Z</time>
      </trkpt>
      <trkpt lat="48.57484" lon="2.64333">
        <ele>78.8</ele>
        <time>2021-05-23T10:28:25Z</time>
      </trkpt>
      <trkpt lat="48.57487" lon="2.64321">
        <ele>78.8</ele>
        <time>2021-05-23T10:28:26Z</time>
      </trkpt>
      <trkpt lat="48.57488" lon="2.64309">
        <ele>78.8</ele>
        <time>2021-05-23T10:28:27Z</time>
      </trkpt>
      <trkpt lat="48.57486" lon="2.64297">
        <ele>78.8</ele>
        <time>2021-05-23T10:28:28Z</time>
      </trkpt>
      <trkpt lat="48.57482" lon="2.64286">
        <ele>78.7</ele>
        <time>2021-05-23T10:28:29Z</time>
      </trkpt>
      <trkpt lat="48.57478" lon="2.64275">
        <ele>78.5</ele>
        <time>2021-05-23T10:28:30Z</time>
      </trkpt>
      <trkpt lat="48.57475" lon="2.64261">
        <ele>78.4</ele>
        <time>2021-05-23T10:28:31Z</time>
      </trkpt>
      <trkpt lat="48.57473" lon="2.64245">
        <ele>78.4</ele>
        <time>2021-05-23T10:28:32Z</time>
      </trkpt>
      <trkpt lat="48.57473" lon="2.64228">
        <ele>78.4</ele>
        <time>2021-05-23T10:28:33Z</time>
      </trkpt>
      <trkpt lat="48.57471" lon="2.64025">
        <ele>79.8</ele>
        <time>2021-05-23T10:28:42Z</time>
      </trkpt>
      <trkpt lat="48.57471" lon="2.63658">
        <ele>79.8</ele>
        <time>2021-05-23T10:28:57Z</time>
      </trkpt>
      <trkpt lat="48.57473" lon="2.63623">
        <ele>80</ele>
        <time>2021-05-23T10:29:00Z</time>
      </trkpt>
      <trkpt lat="48.57475" lon="2.63615">
        <ele>80</ele>
        <time>2021-05-23T10:29:01Z</time>
      </trkpt>
      <trkpt lat="48.57479" lon="2.63607">
        <ele>80</ele>
        <time>2021-05-23T10:29:02Z</time>
      </trkpt>
      <trkpt lat="48.57484" lon="2.636">
        <ele>80</ele>
        <time>2021-05-23T10:29:03Z</time>
      </trkpt>
      <trkpt lat="48.57489" lon="2.63591">
        <ele>80.1</ele>
        <time>2021-05-23T10:29:04Z</time>
      </trkpt>
      <trkpt lat="48.57493" lon="2.6358">
        <ele>80.1</ele>
        <time>2021-05-23T10:29:05Z</time>
      </trkpt>
      <trkpt lat="48.57496" lon="2.63569">
        <ele>80</ele>
        <time>2021-05-23T10:29:06Z</time>
      </trkpt>
      <trkpt lat="48.57497" lon="2.63557">
        <ele>80</ele>
        <time>2021-05-23T10:29:07Z</time>
      </trkpt>
      <trkpt lat="48.57495" lon="2.63546">
        <ele>80</ele>
        <time>2021-05-23T10:29:08Z</time>
      </trkpt>
      <trkpt lat="48.57491" lon="2.63537">
        <ele>80</ele>
        <time>2021-05-23T10:29:09Z</time>
      </trkpt>
      <trkpt lat="48.57484" lon="2.6353">
        <ele>79.9</ele>
        <time>2021-05-23T10:29:10Z</time>
      </trkpt>
      <trkpt lat="48.57474" lon="2.63527">
        <ele>79.9</ele>
        <time>2021-05-23T10:29:11Z</time>
      </trkpt>
      <trkpt lat="48.57464" lon="2.63528">
        <ele>79.9</ele>
        <time>2021-05-23T10:29:12Z</time>
      </trkpt>
      <trkpt lat="48.57454" lon="2.6353">
        <ele>79.8</ele>
        <time>2021-05-23T10:29:13Z</time>
      </trkpt>
      <trkpt lat="48.57445" lon="2.6353">
        <ele>79.8</ele>
        <time>2021-05-23T10:29:14Z</time>
      </trkpt>
      <trkpt lat="48.57437" lon="2.63527">
        <ele>79.7</ele>
        <time>2021-05-23T10:29:15Z</time>
      </trkpt>
      <trkpt lat="48.57429" lon="2.63521">
        <ele>79.6</ele>
        <time>2021-05-23T10:29:16Z</time>
      </trkpt>
      <trkpt lat="48.57421" lon="2.63513">
        <ele>79.3</ele>
        <time>2021-05-23T10:29:17Z</time>
      </trkpt>
      <trkpt lat="48.57412" lon="2.63504">
        <ele>79.2</ele>
        <time>2021-05-23T10:29:18Z</time>
      </trkpt>
      <trkpt lat="48.57346" lon="2.63427">
        <ele>81.7</ele>
        <time>2021-05-23T10:29:25Z</time>
      </trkpt>
      <trkpt lat="48.57334" lon="2.63419">
        <ele>82</ele>
        <time>2021-05-23T10:29:26Z</time>
      </trkpt>
      <trkpt lat="48.57322" lon="2.63414">
        <ele>82.2</ele>
        <time>2021-05-23T10:29:27Z</time>
      </trkpt>
      <trkpt lat="48.5731" lon="2.63411">
        <ele>82.4</ele>
        <time>2021-05-23T10:29:28Z</time>
      </trkpt>
      <trkpt lat="48.57297" lon="2.6341">
        <ele>82.5</ele>
        <time>2021-05-23T10:29:29Z</time>
      </trkpt>
      <trkpt lat="48.57285" lon="2.6341">
        <ele>82.7</ele>
        <time>2021-05-23T10:29:30Z</time>
      </trkpt>
      <trkpt lat="48.57213" lon="2.63405">
        <ele>82.3</ele>
        <time>2021-05-23T10:29:37Z</time>
      </trkpt>
      <trkpt lat="48.57205" lon="2.63403">
        <ele>82.1</ele>
        <time>2021-05-23T10:29:38Z</time>
      </trkpt>
      <trkpt lat="48.57198" lon="2.634">
        <ele>81.9</ele>
        <time>2021-05-23T10:29:39Z</time>
      </trkpt>
      <trkpt lat="48.5719" lon="2.634">
        <ele>81.8</ele>
        <time>2021-05-23T10:29:40Z</time>
      </trkpt>
      <trkpt lat="48.57181" lon="2.63403">
        <ele>81.5</ele>
        <time>2021-05-23T10:29:41Z</time>
      </trkpt>
      <trkpt lat="48.57174" lon="2.63409">
        <ele>81.3</ele>
        <time>2021-05-23T10:29:42Z</time>
      </trkpt>
      <trkpt lat="48.57167" lon="2.63417">
        <ele>81</ele>
        <time>2021-05-23T10:29:43Z</time>
      </trkpt>
      <trkpt lat="48.57159" lon="2.63423">
        <ele>81.2</ele>
        <time>2021-05-23T10:29:44Z</time>
      </trkpt>
      <trkpt lat="48.57151" lon="2.63427">
        <ele>81.4</ele>
        <time>2021-05-23T10:29:45Z</time>
      </trkpt>
      <trkpt lat="48.57141" lon="2.6343">
        <ele>81.5</ele>
        <time>2021-05-23T10:29:46Z</time>
      </trkpt>
      <trkpt lat="48.57132" lon="2.63431">
        <ele>81.6</ele>
        <time>2021-05-23T10:29:47Z</time>
      </trkpt>
      <trkpt lat="48.57121" lon="2.63431">
        <ele>81.7</ele>
        <time>2021-05-23T10:29:48Z</time>
      </trkpt>
      <trkpt lat="48.57111" lon="2.6343">
        <ele>81.8</ele>
        <time>2021-05-23T10:29:49Z</time>
      </trkpt>
      <trkpt lat="48.571" lon="2.63426">
        <ele>81.8</ele>
        <time>2021-05-23T10:29:50Z</time>
      </trkpt>
      <trkpt lat="48.5709" lon="2.63421">
        <ele>81.9</ele>
        <time>2021-05-23T10:29:51Z</time>
      </trkpt>
      <trkpt lat="48.5708" lon="2.63413">
        <ele>81.9</ele>
        <time>2021-05-23T10:29:52Z</time>
      </trkpt>
      <trkpt lat="48.57071" lon="2.63402">
        <ele>81.7</ele>
        <time>2021-05-23T10:29:53Z</time>
      </trkpt>
      <trkpt lat="48.57062" lon="2.6339">
        <ele>81.5</ele>
        <time>2021-05-23T10:29:54Z</time>
      </trkpt>
      <trkpt lat="48.57055" lon="2.63376">
        <ele>81.3</ele>
        <time>2021-05-23T10:29:55Z</time>
      </trkpt>
      <trkpt lat="48.57049" lon="2.6336">
        <ele>81.2</ele>
        <time>2021-05-23T10:29:56Z</time>
      </trkpt>
      <trkpt lat="48.57044" lon="2.63343">
        <ele>81.1</ele>
        <time>2021-05-23T10:29:57Z</time>
      </trkpt>
      <trkpt lat="48.56972" lon="2.63103">
        <ele>79.8</ele>
        <time>2021-05-23T10:30:10Z</time>
      </trkpt>
      <trkpt lat="48.56901" lon="2.62862">
        <ele>79.3</ele>
        <time>2021-05-23T10:30:24Z</time>
      </trkpt>
      <trkpt lat="48.56837" lon="2.62642">
        <ele>81.9</ele>
        <time>2021-05-23T10:30:38Z</time>
      </trkpt>
      <trkpt lat="48.56831" lon="2.62613">
        <ele>82</ele>
        <time>2021-05-23T10:30:44Z</time>
      </trkpt>
      <trkpt lat="48.56833" lon="2.62612">
        <ele>82</ele>
        <time>2021-05-23T10:31:14Z</time>
      </trkpt>
      <trkpt lat="48.56834" lon="2.62613">
        <ele>82</ele>
        <time>2021-05-23T10:31:47Z</time>
      </trkpt>
      <trkpt lat="48.56834" lon="2.62603">
        <ele>82</ele>
        <time>2021-05-23T10:31:55Z</time>
      </trkpt>
      <trkpt lat="48.56835" lon="2.62596">
        <ele>82</ele>
        <time>2021-05-23T10:31:56Z</time>
      </trkpt>
      <trkpt lat="48.56838" lon="2.62588">
        <ele>82</ele>
        <time>2021-05-23T10:31:57Z</time>
      </trkpt>
      <trkpt lat="48.56843" lon="2.6258">
        <ele>82.1</ele>
        <time>2021-05-23T10:31:58Z</time>
      </trkpt>
      <trkpt lat="48.56849" lon="2.62572">
        <ele>82.3</ele>
        <time>2021-05-23T10:31:59Z</time>
      </trkpt>
      <trkpt lat="48.56926" lon="2.62482">
        <ele>82.8</ele>
        <time>2021-05-23T10:32:07Z</time>
      </trkpt>
      <trkpt lat="48.57083" lon="2.62302">
        <ele>83.7</ele>
        <time>2021-05-23T10:32:20Z</time>
      </trkpt>
      <trkpt lat="48.57214" lon="2.62151">
        <ele>82.8</ele>
        <time>2021-05-23T10:32:32Z</time>
      </trkpt>
      <trkpt lat="48.57238" lon="2.62126">
        <ele>82.2</ele>
        <time>2021-05-23T10:32:38Z</time>
      </trkpt>
      <trkpt lat="48.57236" lon="2.62123">
        <ele>82.1</ele>
        <time>2021-05-23T10:32:50Z</time>
      </trkpt>
      <trkpt lat="48.57237" lon="2.62119">
        <ele>82</ele>
        <time>2021-05-23T10:32:51Z</time>
      </trkpt>
      <trkpt lat="48.57237" lon="2.62114">
        <ele>81.9</ele>
        <time>2021-05-23T10:32:52Z</time>
      </trkpt>
      <trkpt lat="48.57235" lon="2.6211">
        <ele>81.9</ele>
        <time>2021-05-23T10:32:53Z</time>
      </trkpt>
      <trkpt lat="48.57232" lon="2.62105">
        <ele>81.8</ele>
        <time>2021-05-23T10:32:54Z</time>
      </trkpt>
      <trkpt lat="48.57228" lon="2.621">
        <ele>81.8</ele>
        <time>2021-05-23T10:32:55Z</time>
      </trkpt>
      <trkpt lat="48.57222" lon="2.62096">
        <ele>81.9</ele>
        <time>2021-05-23T10:32:56Z</time>
      </trkpt>
      <trkpt lat="48.57134" lon="2.62014">
        <ele>81.7</ele>
        <time>2021-05-23T10:33:08Z</time>
      </trkpt>
      <trkpt lat="48.57054" lon="2.6194">
        <ele>81.7</ele>
        <time>2021-05-23T10:33:17Z</time>
      </trkpt>
      <trkpt lat="48.57046" lon="2.6193">
        <ele>81.7</ele>
        <time>2021-05-23T10:33:18Z</time>
      </trkpt>
      <trkpt lat="48.5699" lon="2.61854">
        <ele>79.6</ele>
        <time>2021-05-23T10:33:25Z</time>
      </trkpt>
      <trkpt lat="48.56983" lon="2.6184">
        <ele>79</ele>
        <time>2021-05-23T10:33:26Z</time>
      </trkpt>
      <trkpt lat="48.56977" lon="2.61826">
        <ele>78.5</ele>
        <time>2021-05-23T10:33:27Z</time>
      </trkpt>
      <trkpt lat="48.56973" lon="2.61811">
        <ele>77.9</ele>
        <time>2021-05-23T10:33:28Z</time>
      </trkpt>
      <trkpt lat="48.56969" lon="2.61796">
        <ele>77.3</ele>
        <time>2021-05-23T10:33:29Z</time>
      </trkpt>
      <trkpt lat="48.56935" lon="2.61635">
        <ele>74.5</ele>
        <time>2021-05-23T10:33:39Z</time>
      </trkpt>
      <trkpt lat="48.56903" lon="2.61428">
        <ele>76.4</ele>
        <time>2021-05-23T10:33:51Z</time>
      </trkpt>
      <trkpt lat="48.56899" lon="2.61358">
        <ele>75.2</ele>
        <time>2021-05-23T10:33:57Z</time>
      </trkpt>
      <trkpt lat="48.56901" lon="2.61352">
        <ele>75.1</ele>
        <time>2021-05-23T10:33:58Z</time>
      </trkpt>
      <trkpt lat="48.56903" lon="2.61346">
        <ele>75</ele>
        <time>2021-05-23T10:33:59Z</time>
      </trkpt>
      <trkpt lat="48.56909" lon="2.61343">
        <ele>75.1</ele>
        <time>2021-05-23T10:34:00Z</time>
      </trkpt>
      <trkpt lat="48.56915" lon="2.61342">
        <ele>75.2</ele>
        <time>2021-05-23T10:34:01Z</time>
      </trkpt>
      <trkpt lat="48.56923" lon="2.61342">
        <ele>75.5</ele>
        <time>2021-05-23T10:34:02Z</time>
      </trkpt>
      <trkpt lat="48.56998" lon="2.61326">
        <ele>78.8</ele>
        <time>2021-05-23T10:34:09Z</time>
      </trkpt>
      <trkpt lat="48.57118" lon="2.61274">
        <ele>78</ele>
        <time>2021-05-23T10:34:19Z</time>
      </trkpt>
      <trkpt lat="48.57128" lon="2.61266">
        <ele>78</ele>
        <time>2021-05-23T10:34:20Z</time>
      </trkpt>
      <trkpt lat="48.57136" lon="2.61257">
        <ele>78</ele>
        <time>2021-05-23T10:34:21Z</time>
      </trkpt>
      <trkpt lat="48.57143" lon="2.61245">
        <ele>78</ele>
        <time>2021-05-23T10:34:22Z</time>
      </trkpt>
      <trkpt lat="48.57148" lon="2.61232">
        <ele>78.1</ele>
        <time>2021-05-23T10:34:23Z</time>
      </trkpt>
      <trkpt lat="48.57151" lon="2.61218">
        <ele>78.2</ele>
        <time>2021-05-23T10:34:24Z</time>
      </trkpt>
      <trkpt lat="48.57153" lon="2.61204">
        <ele>78.4</ele>
        <time>2021-05-23T10:34:25Z</time>
      </trkpt>
      <trkpt lat="48.57154" lon="2.61189">
        <ele>78.5</ele>
        <time>2021-05-23T10:34:26Z</time>
      </trkpt>
      <trkpt lat="48.57154" lon="2.61173">
        <ele>78.6</ele>
        <time>2021-05-23T10:34:27Z</time>
      </trkpt>
      <trkpt lat="48.57153" lon="2.61157">
        <ele>78.7</ele>
        <time>2021-05-23T10:34:28Z</time>
      </trkpt>
      <trkpt lat="48.57141" lon="2.60941">
        <ele>79.8</ele>
        <time>2021-05-23T10:34:41Z</time>
      </trkpt>
      <trkpt lat="48.57141" lon="2.60931">
        <ele>79.9</ele>
        <time>2021-05-23T10:34:42Z</time>
      </trkpt>
      <trkpt lat="48.57142" lon="2.60923">
        <ele>79.9</ele>
        <time>2021-05-23T10:34:43Z</time>
      </trkpt>
      <trkpt lat="48.57144" lon="2.60917">
        <ele>80</ele>
        <time>2021-05-23T10:34:44Z</time>
      </trkpt>
      <trkpt lat="48.57147" lon="2.60911">
        <ele>80</ele>
        <time>2021-05-23T10:34:45Z</time>
      </trkpt>
      <trkpt lat="48.57151" lon="2.60907">
        <ele>80</ele>
        <time>2021-05-23T10:34:46Z</time>
      </trkpt>
      <trkpt lat="48.57155" lon="2.60903">
        <ele>80</ele>
        <time>2021-05-23T10:34:47Z</time>
      </trkpt>
      <trkpt lat="48.5716" lon="2.60902">
        <ele>80</ele>
        <time>2021-05-23T10:34:48Z</time>
      </trkpt>
      <trkpt lat="48.57166" lon="2.609">
        <ele>80</ele>
        <time>2021-05-23T10:34:49Z</time>
      </trkpt>
      <trkpt lat="48.57173" lon="2.60899">
        <ele>80</ele>
        <time>2021-05-23T10:34:50Z</time>
      </trkpt>
      <trkpt lat="48.57181" lon="2.609">
        <ele>79.9</ele>
        <time>2021-05-23T10:34:51Z</time>
      </trkpt>
      <trkpt lat="48.57189" lon="2.60901">
        <ele>79.8</ele>
        <time>2021-05-23T10:34:52Z</time>
      </trkpt>
      <trkpt lat="48.57198" lon="2.60904">
        <ele>79.7</ele>
        <time>2021-05-23T10:34:53Z</time>
      </trkpt>
      <trkpt lat="48.57206" lon="2.60907">
        <ele>79.6</ele>
        <time>2021-05-23T10:34:54Z</time>
      </trkpt>
      <trkpt lat="48.57305" lon="2.60949">
        <ele>78.9</ele>
        <time>2021-05-23T10:35:04Z</time>
      </trkpt>
      <trkpt lat="48.57343" lon="2.60966">
        <ele>78.9</ele>
        <time>2021-05-23T10:35:10Z</time>
      </trkpt>
      <trkpt lat="48.57346" lon="2.6097">
        <ele>78.8</ele>
        <time>2021-05-23T10:35:11Z</time>
      </trkpt>
      <trkpt lat="48.57348" lon="2.60975">
        <ele>78.8</ele>
        <time>2021-05-23T10:35:12Z</time>
      </trkpt>
      <trkpt lat="48.57348" lon="2.6098">
        <ele>78.7</ele>
        <time>2021-05-23T10:35:13Z</time>
      </trkpt>
      <trkpt lat="48.57347" lon="2.60987">
        <ele>78.7</ele>
        <time>2021-05-23T10:35:14Z</time>
      </trkpt>
      <trkpt lat="48.57346" lon="2.60993">
        <ele>78.7</ele>
        <time>2021-05-23T10:35:15Z</time>
      </trkpt>
      <trkpt lat="48.57341" lon="2.61013">
        <ele>78.7</ele>
        <time>2021-05-23T10:35:19Z</time>
      </trkpt>
      <trkpt lat="48.57338" lon="2.61015">
        <ele>78.7</ele>
        <time>2021-05-23T10:35:20Z</time>
      </trkpt>
      <trkpt lat="48.57336" lon="2.61015">
        <ele>78.8</ele>
        <time>2021-05-23T10:35:21Z</time>
      </trkpt>
      <trkpt lat="48.57332" lon="2.61014">
        <ele>78.8</ele>
        <time>2021-05-23T10:35:22Z</time>
      </trkpt>
      <trkpt lat="48.57328" lon="2.61014">
        <ele>78.8</ele>
        <time>2021-05-23T10:35:23Z</time>
      </trkpt>
      <trkpt lat="48.57323" lon="2.61015">
        <ele>78.7</ele>
        <time>2021-05-23T10:35:24Z</time>
      </trkpt>
      <trkpt lat="48.57319" lon="2.61019">
        <ele>78.7</ele>
        <time>2021-05-23T10:35:25Z</time>
      </trkpt>
      <trkpt lat="48.57317" lon="2.61025">
        <ele>78.6</ele>
        <time>2021-05-23T10:35:26Z</time>
      </trkpt>
      <trkpt lat="48.57315" lon="2.61033">
        <ele>78.6</ele>
        <time>2021-05-23T10:35:27Z</time>
      </trkpt>
      <trkpt lat="48.57314" lon="2.61042">
        <ele>78.5</ele>
        <time>2021-05-23T10:35:28Z</time>
      </trkpt>
      <trkpt lat="48.57313" lon="2.61052">
        <ele>78.4</ele>
        <time>2021-05-23T10:35:29Z</time>
      </trkpt>
      <trkpt lat="48.57312" lon="2.61071">
        <ele>78.3</ele>
        <time>2021-05-23T10:35:31Z</time>
      </trkpt>
      <trkpt lat="48.57313" lon="2.6108">
        <ele>78.3</ele>
        <time>2021-05-23T10:35:32Z</time>
      </trkpt>
      <trkpt lat="48.57317" lon="2.61168">
        <ele>78</ele>
        <time>2021-05-23T10:35:44Z</time>
      </trkpt>
      <trkpt lat="48.5732" lon="2.61171">
        <ele>77.9</ele>
        <time>2021-05-23T10:35:45Z</time>
      </trkpt>
      <trkpt lat="48.57324" lon="2.61173">
        <ele>77.9</ele>
        <time>2021-05-23T10:35:46Z</time>
      </trkpt>
      <trkpt lat="48.57367" lon="2.61188">
        <ele>76.9</ele>
        <time>2021-05-23T10:35:58Z</time>
      </trkpt>
      <trkpt lat="48.57368" lon="2.6119">
        <ele>76.9</ele>
        <time>2021-05-23T10:35:59Z</time>
      </trkpt>
      <trkpt lat="48.57367" lon="2.61194">
        <ele>76.9</ele>
        <time>2021-05-23T10:36:00Z</time>
      </trkpt>
      <trkpt lat="48.57367" lon="2.61198">
        <ele>76.8</ele>
        <time>2021-05-23T10:36:01Z</time>
      </trkpt>
      <trkpt lat="48.57366" lon="2.61203">
        <ele>76.8</ele>
        <time>2021-05-23T10:36:02Z</time>
      </trkpt>
      <trkpt lat="48.57362" lon="2.61211">
        <ele>76.8</ele>
        <time>2021-05-23T10:36:05Z</time>
      </trkpt>
      <trkpt lat="48.5736" lon="2.61211">
        <ele>76.8</ele>
        <time>2021-05-23T10:36:06Z</time>
      </trkpt>
      <trkpt lat="48.57359" lon="2.61212">
        <ele>76.8</ele>
        <time>2021-05-23T10:36:07Z</time>
      </trkpt>
    </trkseg>
  </trk>
  <trk>
    <name><![CDATA[Tracé actuel: 29 MAI 2021 21:02]]></name>
    <trkseg>
      <trkpt lat="48.57344" lon="2.61238">
        <ele>76.9</ele>
        <time>2021-05-29T19:02:02Z</time>
      </trkpt>
      <trkpt lat="48.57347" lon="2.61239">
        <ele>76.8</ele>
        <time>2021-05-29T19:02:20Z</time>
      </trkpt>
      <trkpt lat="48.57348" lon="2.61241">
        <ele>76.8</ele>
        <time>2021-05-29T19:02:41Z</time>
      </trkpt>
      <trkpt lat="48.57346" lon="2.61239">
        <ele>76.8</ele>
        <time>2021-05-29T19:02:58Z</time>
      </trkpt>
      <trkpt lat="48.57343" lon="2.6124">
        <ele>76.9</ele>
        <time>2021-05-29T19:03:22Z</time>
      </trkpt>
      <trkpt lat="48.5734" lon="2.61237">
        <ele>77</ele>
        <time>2021-05-29T19:03:46Z</time>
      </trkpt>
      <trkpt lat="48.57341" lon="2.61237">
        <ele>77</ele>
        <time>2021-05-29T19:03:54Z</time>
      </trkpt>
    </trkseg>
  </trk>
  <trk>
    <name><![CDATA[Tracé actuel: 29 MAI 2021 21:04]]></name>
    <trkseg>
      <trkpt lat="48.57342" lon="2.61237">
        <ele>76.9</ele>
        <time>2021-05-29T19:04:42Z</time>
      </trkpt>
      <trkpt lat="48.57342" lon="2.61237">
        <ele>76.9</ele>
        <time>2021-05-29T19:04:53Z</time>
      </trkpt>
    </trkseg>
  </trk>
  <trk>
    <name><![CDATA[Tracé actuel: 30 MAI 2021 08:19]]></name>
    <trkseg>
      <trkpt lat="48.57363" lon="2.61112">
        <ele>77.1</ele>
        <time>2021-05-30T06:19:32Z</time>
      </trkpt>
      <trkpt lat="48.57366" lon="2.61116">
        <ele>77</ele>
        <time>2021-05-30T06:19:50Z</time>
      </trkpt>
      <trkpt lat="48.57365" lon="2.61112">
        <ele>77</ele>
        <time>2021-05-30T06:19:52Z</time>
      </trkpt>
      <trkpt lat="48.57368" lon="2.61096">
        <ele>76.8</ele>
        <time>2021-05-30T06:19:58Z</time>
      </trkpt>
      <trkpt lat="48.57375" lon="2.61031">
        <ele>77.4</ele>
        <time>2021-05-30T06:20:11Z</time>
      </trkpt>
      <trkpt lat="48.57351" lon="2.61006">
        <ele>78.5</ele>
        <time>2021-05-30T06:20:20Z</time>
      </trkpt>
      <trkpt lat="48.57352" lon="2.61002">
        <ele>78.5</ele>
        <time>2021-05-30T06:20:21Z</time>
      </trkpt>
      <trkpt lat="48.57355" lon="2.60972">
        <ele>78.7</ele>
        <time>2021-05-30T06:20:28Z</time>
      </trkpt>
      <trkpt lat="48.5735" lon="2.60963">
        <ele>78.8</ele>
        <time>2021-05-30T06:20:30Z</time>
      </trkpt>
      <trkpt lat="48.57341" lon="2.60957">
        <ele>78.9</ele>
        <time>2021-05-30T06:20:32Z</time>
      </trkpt>
      <trkpt lat="48.5728" lon="2.60933">
        <ele>78.9</ele>
        <time>2021-05-30T06:20:43Z</time>
      </trkpt>
      <trkpt lat="48.57198" lon="2.60901">
        <ele>79.8</ele>
        <time>2021-05-30T06:20:57Z</time>
      </trkpt>
      <trkpt lat="48.57192" lon="2.60899">
        <ele>79.8</ele>
        <time>2021-05-30T06:20:58Z</time>
      </trkpt>
      <trkpt lat="48.57186" lon="2.60899">
        <ele>79.9</ele>
        <time>2021-05-30T06:20:59Z</time>
      </trkpt>
      <trkpt lat="48.57161" lon="2.609">
        <ele>80</ele>
        <time>2021-05-30T06:21:03Z</time>
      </trkpt>
      <trkpt lat="48.57155" lon="2.60899">
        <ele>79.9</ele>
        <time>2021-05-30T06:21:04Z</time>
      </trkpt>
      <trkpt lat="48.57137" lon="2.60895">
        <ele>79.8</ele>
        <time>2021-05-30T06:21:07Z</time>
      </trkpt>
      <trkpt lat="48.57131" lon="2.60897">
        <ele>79.8</ele>
        <time>2021-05-30T06:21:08Z</time>
      </trkpt>
      <trkpt lat="48.57125" lon="2.60901">
        <ele>79.8</ele>
        <time>2021-05-30T06:21:09Z</time>
      </trkpt>
      <trkpt lat="48.57118" lon="2.60904">
        <ele>79.8</ele>
        <time>2021-05-30T06:21:10Z</time>
      </trkpt>
      <trkpt lat="48.57112" lon="2.60905">
        <ele>79.8</ele>
        <time>2021-05-30T06:21:11Z</time>
      </trkpt>
      <trkpt lat="48.57105" lon="2.60906">
        <ele>79.8</ele>
        <time>2021-05-30T06:21:12Z</time>
      </trkpt>
      <trkpt lat="48.57091" lon="2.60907">
        <ele>79.8</ele>
        <time>2021-05-30T06:21:14Z</time>
      </trkpt>
      <trkpt lat="48.57084" lon="2.60906">
        <ele>79.8</ele>
        <time>2021-05-30T06:21:15Z</time>
      </trkpt>
      <trkpt lat="48.56997" lon="2.60918">
        <ele>78</ele>
        <time>2021-05-30T06:21:28Z</time>
      </trkpt>
      <trkpt lat="48.56991" lon="2.60918">
        <ele>77.9</ele>
        <time>2021-05-30T06:21:29Z</time>
      </trkpt>
      <trkpt lat="48.56985" lon="2.60914">
        <ele>77.8</ele>
        <time>2021-05-30T06:21:30Z</time>
      </trkpt>
      <trkpt lat="48.56979" lon="2.60909">
        <ele>77.8</ele>
        <time>2021-05-30T06:21:31Z</time>
      </trkpt>
      <trkpt lat="48.56973" lon="2.60907">
        <ele>77.8</ele>
        <time>2021-05-30T06:21:32Z</time>
      </trkpt>
      <trkpt lat="48.56966" lon="2.60909">
        <ele>77.6</ele>
        <time>2021-05-30T06:21:33Z</time>
      </trkpt>
      <trkpt lat="48.56959" lon="2.60913">
        <ele>77.5</ele>
        <time>2021-05-30T06:21:34Z</time>
      </trkpt>
      <trkpt lat="48.56952" lon="2.60917">
        <ele>77.4</ele>
        <time>2021-05-30T06:21:35Z</time>
      </trkpt>
      <trkpt lat="48.56945" lon="2.60919">
        <ele>77.4</ele>
        <time>2021-05-30T06:21:36Z</time>
      </trkpt>
      <trkpt lat="48.56922" lon="2.60926">
        <ele>77.4</ele>
        <time>2021-05-30T06:21:39Z</time>
      </trkpt>
      <trkpt lat="48.56915" lon="2.60929">
        <ele>77.5</ele>
        <time>2021-05-30T06:21:40Z</time>
      </trkpt>
      <trkpt lat="48.56829" lon="2.6096">
        <ele>76.8</ele>
        <time>2021-05-30T06:21:52Z</time>
      </trkpt>
      <trkpt lat="48.56822" lon="2.60962">
        <ele>76.6</ele>
        <time>2021-05-30T06:21:53Z</time>
      </trkpt>
      <trkpt lat="48.56815" lon="2.6096">
        <ele>76.4</ele>
        <time>2021-05-30T06:21:54Z</time>
      </trkpt>
      <trkpt lat="48.56809" lon="2.60956">
        <ele>76.3</ele>
        <time>2021-05-30T06:21:55Z</time>
      </trkpt>
      <trkpt lat="48.56804" lon="2.60952">
        <ele>76.2</ele>
        <time>2021-05-30T06:21:56Z</time>
      </trkpt>
      <trkpt lat="48.56798" lon="2.60947">
        <ele>76.2</ele>
        <time>2021-05-30T06:21:57Z</time>
      </trkpt>
      <trkpt lat="48.56793" lon="2.6094">
        <ele>76.1</ele>
        <time>2021-05-30T06:21:58Z</time>
      </trkpt>
      <trkpt lat="48.56789" lon="2.60931">
        <ele>76.1</ele>
        <time>2021-05-30T06:21:59Z</time>
      </trkpt>
      <trkpt lat="48.56786" lon="2.60922">
        <ele>76.2</ele>
        <time>2021-05-30T06:22:00Z</time>
      </trkpt>
      <trkpt lat="48.56782" lon="2.60914">
        <ele>76.1</ele>
        <time>2021-05-30T06:22:01Z</time>
      </trkpt>
      <trkpt lat="48.56779" lon="2.60904">
        <ele>75.9</ele>
        <time>2021-05-30T06:22:02Z</time>
      </trkpt>
      <trkpt lat="48.56737" lon="2.60735">
        <ele>75.2</ele>
        <time>2021-05-30T06:22:20Z</time>
      </trkpt>
      <trkpt lat="48.56708" lon="2.60593">
        <ele>75.6</ele>
        <time>2021-05-30T06:22:35Z</time>
      </trkpt>
      <trkpt lat="48.56692" lon="2.60446">
        <ele>76.3</ele>
        <time>2021-05-30T06:22:50Z</time>
      </trkpt>
      <trkpt lat="48.56688" lon="2.60369">
        <ele>76.2</ele>
        <time>2021-05-30T06:22:58Z</time>
      </trkpt>
      <trkpt lat="48.56687" lon="2.60323">
        <ele>75.9</ele>
        <time>2021-05-30T06:23:04Z</time>
      </trkpt>
      <trkpt lat="48.56686" lon="2.60318">
        <ele>75.9</ele>
        <time>2021-05-30T06:23:05Z</time>
      </trkpt>
      <trkpt lat="48.56682" lon="2.60314">
        <ele>75.7</ele>
        <time>2021-05-30T06:23:06Z</time>
      </trkpt>
      <trkpt lat="48.56678" lon="2.60313">
        <ele>75.5</ele>
        <time>2021-05-30T06:23:07Z</time>
      </trkpt>
      <trkpt lat="48.56673" lon="2.60314">
        <ele>75.3</ele>
        <time>2021-05-30T06:23:08Z</time>
      </trkpt>
      <trkpt lat="48.56667" lon="2.60317">
        <ele>75</ele>
        <time>2021-05-30T06:23:09Z</time>
      </trkpt>
      <trkpt lat="48.56656" lon="2.6032">
        <ele>74.4</ele>
        <time>2021-05-30T06:23:11Z</time>
      </trkpt>
      <trkpt lat="48.5656" lon="2.6033">
        <ele>70.3</ele>
        <time>2021-05-30T06:23:24Z</time>
      </trkpt>
      <trkpt lat="48.56475" lon="2.60337">
        <ele>71.9</ele>
        <time>2021-05-30T06:23:36Z</time>
      </trkpt>
      <trkpt lat="48.56429" lon="2.60341">
        <ele>73.6</ele>
        <time>2021-05-30T06:23:45Z</time>
      </trkpt>
      <trkpt lat="48.56424" lon="2.60344">
        <ele>73.7</ele>
        <time>2021-05-30T06:23:46Z</time>
      </trkpt>
      <trkpt lat="48.5642" lon="2.60347">
        <ele>73.9</ele>
        <time>2021-05-30T06:23:47Z</time>
      </trkpt>
      <trkpt lat="48.56417" lon="2.60352">
        <ele>74</ele>
        <time>2021-05-30T06:23:48Z</time>
      </trkpt>
      <trkpt lat="48.56414" lon="2.60357">
        <ele>74.1</ele>
        <time>2021-05-30T06:23:49Z</time>
      </trkpt>
      <trkpt lat="48.56407" lon="2.60372">
        <ele>74.5</ele>
        <time>2021-05-30T06:23:52Z</time>
      </trkpt>
      <trkpt lat="48.56405" lon="2.60377">
        <ele>74.6</ele>
        <time>2021-05-30T06:23:53Z</time>
      </trkpt>
      <trkpt lat="48.56404" lon="2.60383">
        <ele>74.6</ele>
        <time>2021-05-30T06:23:54Z</time>
      </trkpt>
      <trkpt lat="48.56399" lon="2.60404">
        <ele>74.9</ele>
        <time>2021-05-30T06:23:58Z</time>
      </trkpt>
      <trkpt lat="48.56396" lon="2.60406">
        <ele>75</ele>
        <time>2021-05-30T06:23:59Z</time>
      </trkpt>
      <trkpt lat="48.56392" lon="2.60406">
        <ele>75.2</ele>
        <time>2021-05-30T06:24:00Z</time>
      </trkpt>
      <trkpt lat="48.56348" lon="2.60405">
        <ele>77.3</ele>
        <time>2021-05-30T06:24:15Z</time>
      </trkpt>
      <trkpt lat="48.563" lon="2.60401">
        <ele>78.3</ele>
        <time>2021-05-30T06:24:30Z</time>
      </trkpt>
      <trkpt lat="48.56294" lon="2.60399">
        <ele>78.4</ele>
        <time>2021-05-30T06:24:33Z</time>
      </trkpt>
      <trkpt lat="48.56293" lon="2.60397">
        <ele>78.4</ele>
        <time>2021-05-30T06:24:34Z</time>
      </trkpt>
      <trkpt lat="48.56293" lon="2.60393">
        <ele>78.3</ele>
        <time>2021-05-30T06:24:35Z</time>
      </trkpt>
      <trkpt lat="48.56292" lon="2.60388">
        <ele>78.3</ele>
        <time>2021-05-30T06:24:36Z</time>
      </trkpt>
      <trkpt lat="48.56292" lon="2.60383">
        <ele>78.3</ele>
        <time>2021-05-30T06:24:37Z</time>
      </trkpt>
      <trkpt lat="48.56271" lon="2.60326">
        <ele>78.1</ele>
        <time>2021-05-30T06:24:48Z</time>
      </trkpt>
      <trkpt lat="48.5627" lon="2.6032">
        <ele>78.1</ele>
        <time>2021-05-30T06:24:49Z</time>
      </trkpt>
      <trkpt lat="48.56269" lon="2.60315">
        <ele>78.2</ele>
        <time>2021-05-30T06:24:50Z</time>
      </trkpt>
      <trkpt lat="48.56252" lon="2.60262">
        <ele>78.8</ele>
        <time>2021-05-30T06:25:02Z</time>
      </trkpt>
      <trkpt lat="48.56252" lon="2.6026">
        <ele>78.9</ele>
        <time>2021-05-30T06:25:03Z</time>
      </trkpt>
      <trkpt lat="48.56254" lon="2.60257">
        <ele>78.9</ele>
        <time>2021-05-30T06:25:14Z</time>
      </trkpt>
      <trkpt lat="48.56253" lon="2.60258">
        <ele>78.9</ele>
        <time>2021-05-30T06:25:39Z</time>
      </trkpt>
      <trkpt lat="48.56253" lon="2.60259">
        <ele>78.9</ele>
        <time>2021-05-30T06:26:07Z</time>
      </trkpt>
      <trkpt lat="48.56254" lon="2.60258">
        <ele>78.9</ele>
        <time>2021-05-30T06:26:39Z</time>
      </trkpt>
      <trkpt lat="48.56255" lon="2.60258">
        <ele>78.9</ele>
        <time>2021-05-30T06:27:13Z</time>
      </trkpt>
      <trkpt lat="48.56255" lon="2.60259">
        <ele>78.8</ele>
        <time>2021-05-30T06:27:48Z</time>
      </trkpt>
      <trkpt lat="48.56254" lon="2.60259">
        <ele>78.8</ele>
        <time>2021-05-30T06:28:17Z</time>
      </trkpt>
      <trkpt lat="48.56254" lon="2.60259">
        <ele>78.8</ele>
        <time>2021-05-30T06:28:45Z</time>
      </trkpt>
      <trkpt lat="48.56254" lon="2.60259">
        <ele>78.8</ele>
        <time>2021-05-30T06:29:10Z</time>
      </trkpt>
      <trkpt lat="48.56253" lon="2.60259">
        <ele>78.9</ele>
        <time>2021-05-30T06:29:41Z</time>
      </trkpt>
      <trkpt lat="48.56252" lon="2.60258">
        <ele>78.9</ele>
        <time>2021-05-30T06:30:15Z</time>
      </trkpt>
      <trkpt lat="48.56249" lon="2.60258">
        <ele>78.9</ele>
        <time>2021-05-30T06:30:29Z</time>
      </trkpt>
      <trkpt lat="48.5625" lon="2.60258">
        <ele>78.9</ele>
        <time>2021-05-30T06:30:47Z</time>
      </trkpt>
      <trkpt lat="48.56248" lon="2.60258">
        <ele>78.9</ele>
        <time>2021-05-30T06:31:11Z</time>
      </trkpt>
      <trkpt lat="48.56249" lon="2.60258">
        <ele>78.9</ele>
        <time>2021-05-30T06:31:21Z</time>
      </trkpt>
      <trkpt lat="48.56248" lon="2.60258">
        <ele>79</ele>
        <time>2021-05-30T06:31:22Z</time>
      </trkpt>
      <trkpt lat="48.56247" lon="2.60258">
        <ele>79</ele>
        <time>2021-05-30T06:31:23Z</time>
      </trkpt>
      <trkpt lat="48.56244" lon="2.60263">
        <ele>79</ele>
        <time>2021-05-30T06:31:27Z</time>
      </trkpt>
      <trkpt lat="48.56244" lon="2.60265">
        <ele>79</ele>
        <time>2021-05-30T06:31:28Z</time>
      </trkpt>
      <trkpt lat="48.56243" lon="2.60268">
        <ele>79</ele>
        <time>2021-05-30T06:31:29Z</time>
      </trkpt>
      <trkpt lat="48.56242" lon="2.60271">
        <ele>79</ele>
        <time>2021-05-30T06:31:30Z</time>
      </trkpt>
      <trkpt lat="48.5624" lon="2.60273">
        <ele>79</ele>
        <time>2021-05-30T06:31:31Z</time>
      </trkpt>
      <trkpt lat="48.56237" lon="2.60276">
        <ele>79</ele>
        <time>2021-05-30T06:31:32Z</time>
      </trkpt>
      <trkpt lat="48.56235" lon="2.60278">
        <ele>79</ele>
        <time>2021-05-30T06:31:33Z</time>
      </trkpt>
      <trkpt lat="48.56197" lon="2.60311">
        <ele>79.5</ele>
        <time>2021-05-30T06:31:47Z</time>
      </trkpt>
      <trkpt lat="48.56158" lon="2.60321">
        <ele>80.1</ele>
        <time>2021-05-30T06:31:58Z</time>
      </trkpt>
      <trkpt lat="48.56125" lon="2.60296">
        <ele>80.2</ele>
        <time>2021-05-30T06:32:08Z</time>
      </trkpt>
      <trkpt lat="48.56084" lon="2.60265">
        <ele>80</ele>
        <time>2021-05-30T06:32:21Z</time>
      </trkpt>
      <trkpt lat="48.56023" lon="2.60279">
        <ele>79.5</ele>
        <time>2021-05-30T06:32:37Z</time>
      </trkpt>
      <trkpt lat="48.55992" lon="2.6031">
        <ele>80</ele>
        <time>2021-05-30T06:32:49Z</time>
      </trkpt>
      <trkpt lat="48.55986" lon="2.60333">
        <ele>80.3</ele>
        <time>2021-05-30T06:32:54Z</time>
      </trkpt>
      <trkpt lat="48.55983" lon="2.60333">
        <ele>80.4</ele>
        <time>2021-05-30T06:32:55Z</time>
      </trkpt>
      <trkpt lat="48.55978" lon="2.60331">
        <ele>80.5</ele>
        <time>2021-05-30T06:32:56Z</time>
      </trkpt>
      <trkpt lat="48.5592" lon="2.60308">
        <ele>82.8</ele>
        <time>2021-05-30T06:33:11Z</time>
      </trkpt>
      <trkpt lat="48.55852" lon="2.60289">
        <ele>82.8</ele>
        <time>2021-05-30T06:33:27Z</time>
      </trkpt>
      <trkpt lat="48.55848" lon="2.60288">
        <ele>82.8</ele>
        <time>2021-05-30T06:33:28Z</time>
      </trkpt>
      <trkpt lat="48.55789" lon="2.60268">
        <ele>83.8</ele>
        <time>2021-05-30T06:33:41Z</time>
      </trkpt>
      <trkpt lat="48.55785" lon="2.60266">
        <ele>83.9</ele>
        <time>2021-05-30T06:33:42Z</time>
      </trkpt>
      <trkpt lat="48.55777" lon="2.60264">
        <ele>84</ele>
        <time>2021-05-30T06:33:44Z</time>
      </trkpt>
      <trkpt lat="48.55772" lon="2.60265">
        <ele>84</ele>
        <time>2021-05-30T06:33:45Z</time>
      </trkpt>
      <trkpt lat="48.55768" lon="2.60266">
        <ele>84</ele>
        <time>2021-05-30T06:33:46Z</time>
      </trkpt>
      <trkpt lat="48.55764" lon="2.60269">
        <ele>84.1</ele>
        <time>2021-05-30T06:33:47Z</time>
      </trkpt>
      <trkpt lat="48.55761" lon="2.60272">
        <ele>84.1</ele>
        <time>2021-05-30T06:33:48Z</time>
      </trkpt>
      <trkpt lat="48.55758" lon="2.60275">
        <ele>84.2</ele>
        <time>2021-05-30T06:33:49Z</time>
      </trkpt>
      <trkpt lat="48.55756" lon="2.60278">
        <ele>84.2</ele>
        <time>2021-05-30T06:33:50Z</time>
      </trkpt>
      <trkpt lat="48.55753" lon="2.60281">
        <ele>84.3</ele>
        <time>2021-05-30T06:33:51Z</time>
      </trkpt>
      <trkpt lat="48.55729" lon="2.60326">
        <ele>84.6</ele>
        <time>2021-05-30T06:34:02Z</time>
      </trkpt>
      <trkpt lat="48.55722" lon="2.60343">
        <ele>84.6</ele>
        <time>2021-05-30T06:34:07Z</time>
      </trkpt>
      <trkpt lat="48.55722" lon="2.60346">
        <ele>84.6</ele>
        <time>2021-05-30T06:34:08Z</time>
      </trkpt>
      <trkpt lat="48.55728" lon="2.60375">
        <ele>84.5</ele>
        <time>2021-05-30T06:34:14Z</time>
      </trkpt>
      <trkpt lat="48.55727" lon="2.60381">
        <ele>84.5</ele>
        <time>2021-05-30T06:34:15Z</time>
      </trkpt>
      <trkpt lat="48.55725" lon="2.60386">
        <ele>84.4</ele>
        <time>2021-05-30T06:34:16Z</time>
      </trkpt>
      <trkpt lat="48.55719" lon="2.60447">
        <ele>84.2</ele>
        <time>2021-05-30T06:34:27Z</time>
      </trkpt>
      <trkpt lat="48.55713" lon="2.60488">
        <ele>84.1</ele>
        <time>2021-05-30T06:34:37Z</time>
      </trkpt>
      <trkpt lat="48.55714" lon="2.60491">
        <ele>84</ele>
        <time>2021-05-30T06:34:38Z</time>
      </trkpt>
      <trkpt lat="48.55715" lon="2.60494">
        <ele>84</ele>
        <time>2021-05-30T06:34:39Z</time>
      </trkpt>
      <trkpt lat="48.55702" lon="2.60567">
        <ele>83.2</ele>
        <time>2021-05-30T06:34:54Z</time>
      </trkpt>
      <trkpt lat="48.55689" lon="2.6063">
        <ele>81.7</ele>
        <time>2021-05-30T06:35:04Z</time>
      </trkpt>
      <trkpt lat="48.55671" lon="2.60681">
        <ele>80.8</ele>
        <time>2021-05-30T06:35:14Z</time>
      </trkpt>
      <trkpt lat="48.55656" lon="2.60727">
        <ele>80.3</ele>
        <time>2021-05-30T06:35:24Z</time>
      </trkpt>
      <trkpt lat="48.55645" lon="2.60783">
        <ele>80</ele>
        <time>2021-05-30T06:35:35Z</time>
      </trkpt>
      <trkpt lat="48.55636" lon="2.60836">
        <ele>80</ele>
        <time>2021-05-30T06:35:45Z</time>
      </trkpt>
      <trkpt lat="48.55637" lon="2.60841">
        <ele>80.1</ele>
        <time>2021-05-30T06:35:46Z</time>
      </trkpt>
      <trkpt lat="48.55638" lon="2.60845">
        <ele>80.1</ele>
        <time>2021-05-30T06:35:47Z</time>
      </trkpt>
      <trkpt lat="48.55639" lon="2.60849">
        <ele>80.1</ele>
        <time>2021-05-30T06:35:48Z</time>
      </trkpt>
      <trkpt lat="48.5564" lon="2.60854">
        <ele>80.2</ele>
        <time>2021-05-30T06:35:49Z</time>
      </trkpt>
      <trkpt lat="48.55641" lon="2.60857">
        <ele>80.2</ele>
        <time>2021-05-30T06:35:50Z</time>
      </trkpt>
      <trkpt lat="48.55644" lon="2.60861">
        <ele>80.2</ele>
        <time>2021-05-30T06:35:51Z</time>
      </trkpt>
      <trkpt lat="48.55668" lon="2.60927">
        <ele>80.9</ele>
        <time>2021-05-30T06:36:03Z</time>
      </trkpt>
      <trkpt lat="48.55693" lon="2.60986">
        <ele>80.1</ele>
        <time>2021-05-30T06:36:16Z</time>
      </trkpt>
      <trkpt lat="48.55696" lon="2.60988">
        <ele>80.1</ele>
        <time>2021-05-30T06:36:17Z</time>
      </trkpt>
      <trkpt lat="48.55699" lon="2.60988">
        <ele>80.1</ele>
        <time>2021-05-30T06:36:18Z</time>
      </trkpt>
      <trkpt lat="48.55736" lon="2.60998">
        <ele>80</ele>
        <time>2021-05-30T06:36:27Z</time>
      </trkpt>
      <trkpt lat="48.55755" lon="2.61004">
        <ele>80.4</ele>
        <time>2021-05-30T06:36:32Z</time>
      </trkpt>
      <trkpt lat="48.5576" lon="2.61005">
        <ele>80.5</ele>
        <time>2021-05-30T06:36:33Z</time>
      </trkpt>
      <trkpt lat="48.55814" lon="2.61019">
        <ele>82.7</ele>
        <time>2021-05-30T06:36:47Z</time>
      </trkpt>
      <trkpt lat="48.55872" lon="2.61033">
        <ele>84.1</ele>
        <time>2021-05-30T06:37:01Z</time>
      </trkpt>
      <trkpt lat="48.55883" lon="2.61034">
        <ele>84.3</ele>
        <time>2021-05-30T06:37:04Z</time>
      </trkpt>
      <trkpt lat="48.55907" lon="2.61052">
        <ele>85.7</ele>
        <time>2021-05-30T06:37:12Z</time>
      </trkpt>
      <trkpt lat="48.55908" lon="2.61057">
        <ele>86</ele>
        <time>2021-05-30T06:37:13Z</time>
      </trkpt>
      <trkpt lat="48.55909" lon="2.61062">
        <ele>86.4</ele>
        <time>2021-05-30T06:37:14Z</time>
      </trkpt>
      <trkpt lat="48.55911" lon="2.61067">
        <ele>86.7</ele>
        <time>2021-05-30T06:37:15Z</time>
      </trkpt>
      <trkpt lat="48.55912" lon="2.61072">
        <ele>87.1</ele>
        <time>2021-05-30T06:37:16Z</time>
      </trkpt>
      <trkpt lat="48.55913" lon="2.61076">
        <ele>87.4</ele>
        <time>2021-05-30T06:37:17Z</time>
      </trkpt>
      <trkpt lat="48.55914" lon="2.6108">
        <ele>87.7</ele>
        <time>2021-05-30T06:37:18Z</time>
      </trkpt>
      <trkpt lat="48.55916" lon="2.61083">
        <ele>87.9</ele>
        <time>2021-05-30T06:37:19Z</time>
      </trkpt>
      <trkpt lat="48.55917" lon="2.61087">
        <ele>88.1</ele>
        <time>2021-05-30T06:37:20Z</time>
      </trkpt>
      <trkpt lat="48.55918" lon="2.61092">
        <ele>88.3</ele>
        <time>2021-05-30T06:37:21Z</time>
      </trkpt>
      <trkpt lat="48.55918" lon="2.61096">
        <ele>88.4</ele>
        <time>2021-05-30T06:37:22Z</time>
      </trkpt>
      <trkpt lat="48.55914" lon="2.61148">
        <ele>90.2</ele>
        <time>2021-05-30T06:37:32Z</time>
      </trkpt>
      <trkpt lat="48.55919" lon="2.61184">
        <ele>90.7</ele>
        <time>2021-05-30T06:37:42Z</time>
      </trkpt>
      <trkpt lat="48.55922" lon="2.61259">
        <ele>89.6</ele>
        <time>2021-05-30T06:37:52Z</time>
      </trkpt>
      <trkpt lat="48.55902" lon="2.61294">
        <ele>87.9</ele>
        <time>2021-05-30T06:38:02Z</time>
      </trkpt>
      <trkpt lat="48.55892" lon="2.61298">
        <ele>87.4</ele>
        <time>2021-05-30T06:38:04Z</time>
      </trkpt>
      <trkpt lat="48.55888" lon="2.613">
        <ele>87.2</ele>
        <time>2021-05-30T06:38:05Z</time>
      </trkpt>
      <trkpt lat="48.55884" lon="2.61301">
        <ele>87.1</ele>
        <time>2021-05-30T06:38:06Z</time>
      </trkpt>
      <trkpt lat="48.55862" lon="2.6132">
        <ele>86</ele>
        <time>2021-05-30T06:38:13Z</time>
      </trkpt>
      <trkpt lat="48.55857" lon="2.61325">
        <ele>85.7</ele>
        <time>2021-05-30T06:38:14Z</time>
      </trkpt>
      <trkpt lat="48.55854" lon="2.61321">
        <ele>85.7</ele>
        <time>2021-05-30T06:38:15Z</time>
      </trkpt>
      <trkpt lat="48.5582" lon="2.61299">
        <ele>85.2</ele>
        <time>2021-05-30T06:38:26Z</time>
      </trkpt>
      <trkpt lat="48.55814" lon="2.61294">
        <ele>85.1</ele>
        <time>2021-05-30T06:38:28Z</time>
      </trkpt>
      <trkpt lat="48.55811" lon="2.61293">
        <ele>85.1</ele>
        <time>2021-05-30T06:38:29Z</time>
      </trkpt>
      <trkpt lat="48.55809" lon="2.61293">
        <ele>85</ele>
        <time>2021-05-30T06:38:30Z</time>
      </trkpt>
      <trkpt lat="48.55806" lon="2.61294">
        <ele>85</ele>
        <time>2021-05-30T06:38:31Z</time>
      </trkpt>
      <trkpt lat="48.55803" lon="2.61293">
        <ele>84.9</ele>
        <time>2021-05-30T06:38:32Z</time>
      </trkpt>
      <trkpt lat="48.558" lon="2.61293">
        <ele>84.9</ele>
        <time>2021-05-30T06:38:33Z</time>
      </trkpt>
      <trkpt lat="48.55797" lon="2.61293">
        <ele>84.8</ele>
        <time>2021-05-30T06:38:34Z</time>
      </trkpt>
      <trkpt lat="48.55794" lon="2.61293">
        <ele>84.8</ele>
        <time>2021-05-30T06:38:35Z</time>
      </trkpt>
      <trkpt lat="48.5579" lon="2.61293">
        <ele>84.7</ele>
        <time>2021-05-30T06:38:36Z</time>
      </trkpt>
      <trkpt lat="48.55757" lon="2.61289">
        <ele>84.2</ele>
        <time>2021-05-30T06:38:45Z</time>
      </trkpt>
      <trkpt lat="48.55714" lon="2.61285">
        <ele>84.8</ele>
        <time>2021-05-30T06:38:55Z</time>
      </trkpt>
      <trkpt lat="48.55694" lon="2.61285">
        <ele>85.2</ele>
        <time>2021-05-30T06:39:00Z</time>
      </trkpt>
      <trkpt lat="48.5569" lon="2.61285">
        <ele>85.3</ele>
        <time>2021-05-30T06:39:01Z</time>
      </trkpt>
      <trkpt lat="48.55644" lon="2.61283">
        <ele>85.8</ele>
        <time>2021-05-30T06:39:12Z</time>
      </trkpt>
      <trkpt lat="48.55593" lon="2.61282">
        <ele>85.6</ele>
        <time>2021-05-30T06:39:24Z</time>
      </trkpt>
      <trkpt lat="48.55572" lon="2.61284">
        <ele>85.4</ele>
        <time>2021-05-30T06:39:29Z</time>
      </trkpt>
      <trkpt lat="48.55569" lon="2.61286">
        <ele>85.3</ele>
        <time>2021-05-30T06:39:30Z</time>
      </trkpt>
      <trkpt lat="48.55567" lon="2.61289">
        <ele>85.2</ele>
        <time>2021-05-30T06:39:31Z</time>
      </trkpt>
      <trkpt lat="48.55565" lon="2.61292">
        <ele>85.2</ele>
        <time>2021-05-30T06:39:32Z</time>
      </trkpt>
      <trkpt lat="48.55563" lon="2.61295">
        <ele>85.1</ele>
        <time>2021-05-30T06:39:33Z</time>
      </trkpt>
      <trkpt lat="48.5554" lon="2.61312">
        <ele>84.6</ele>
        <time>2021-05-30T06:39:42Z</time>
      </trkpt>
      <trkpt lat="48.55501" lon="2.6131">
        <ele>84</ele>
        <time>2021-05-30T06:39:54Z</time>
      </trkpt>
      <trkpt lat="48.55479" lon="2.61307">
        <ele>83.8</ele>
        <time>2021-05-30T06:39:59Z</time>
      </trkpt>
      <trkpt lat="48.55437" lon="2.61303">
        <ele>83.5</ele>
        <time>2021-05-30T06:40:09Z</time>
      </trkpt>
      <trkpt lat="48.55397" lon="2.61298">
        <ele>83.4</ele>
        <time>2021-05-30T06:40:18Z</time>
      </trkpt>
      <trkpt lat="48.55392" lon="2.61298">
        <ele>83.4</ele>
        <time>2021-05-30T06:40:19Z</time>
      </trkpt>
      <trkpt lat="48.55344" lon="2.61295">
        <ele>83.5</ele>
        <time>2021-05-30T06:40:30Z</time>
      </trkpt>
      <trkpt lat="48.55312" lon="2.6129">
        <ele>84.3</ele>
        <time>2021-05-30T06:40:39Z</time>
      </trkpt>
      <trkpt lat="48.55307" lon="2.61285">
        <ele>84.5</ele>
        <time>2021-05-30T06:40:41Z</time>
      </trkpt>
      <trkpt lat="48.55306" lon="2.61282">
        <ele>84.6</ele>
        <time>2021-05-30T06:40:42Z</time>
      </trkpt>
      <trkpt lat="48.55305" lon="2.61278">
        <ele>84.7</ele>
        <time>2021-05-30T06:40:43Z</time>
      </trkpt>
      <trkpt lat="48.553" lon="2.61261">
        <ele>85.1</ele>
        <time>2021-05-30T06:40:47Z</time>
      </trkpt>
      <trkpt lat="48.55297" lon="2.61255">
        <ele>85.2</ele>
        <time>2021-05-30T06:40:48Z</time>
      </trkpt>
      <trkpt lat="48.55295" lon="2.6125">
        <ele>85.4</ele>
        <time>2021-05-30T06:40:49Z</time>
      </trkpt>
      <trkpt lat="48.55293" lon="2.61244">
        <ele>85.3</ele>
        <time>2021-05-30T06:40:50Z</time>
      </trkpt>
      <trkpt lat="48.55292" lon="2.61238">
        <ele>85.3</ele>
        <time>2021-05-30T06:40:51Z</time>
      </trkpt>
      <trkpt lat="48.5529" lon="2.61232">
        <ele>85.2</ele>
        <time>2021-05-30T06:40:52Z</time>
      </trkpt>
      <trkpt lat="48.55285" lon="2.61208">
        <ele>85</ele>
        <time>2021-05-30T06:40:56Z</time>
      </trkpt>
      <trkpt lat="48.5528" lon="2.61195">
        <ele>84.8</ele>
        <time>2021-05-30T06:40:58Z</time>
      </trkpt>
      <trkpt lat="48.55278" lon="2.61189">
        <ele>84.8</ele>
        <time>2021-05-30T06:40:59Z</time>
      </trkpt>
      <trkpt lat="48.5527" lon="2.6116">
        <ele>84.4</ele>
        <time>2021-05-30T06:41:04Z</time>
      </trkpt>
      <trkpt lat="48.55263" lon="2.61141">
        <ele>84.4</ele>
        <time>2021-05-30T06:41:07Z</time>
      </trkpt>
      <trkpt lat="48.55252" lon="2.61105">
        <ele>84.2</ele>
        <time>2021-05-30T06:41:13Z</time>
      </trkpt>
      <trkpt lat="48.55236" lon="2.61047">
        <ele>84.4</ele>
        <time>2021-05-30T06:41:22Z</time>
      </trkpt>
      <trkpt lat="48.55235" lon="2.61041">
        <ele>84.5</ele>
        <time>2021-05-30T06:41:23Z</time>
      </trkpt>
      <trkpt lat="48.55234" lon="2.61036">
        <ele>84.6</ele>
        <time>2021-05-30T06:41:24Z</time>
      </trkpt>
      <trkpt lat="48.55233" lon="2.61031">
        <ele>84.6</ele>
        <time>2021-05-30T06:41:25Z</time>
      </trkpt>
      <trkpt lat="48.55232" lon="2.61024">
        <ele>84.7</ele>
        <time>2021-05-30T06:41:26Z</time>
      </trkpt>
      <trkpt lat="48.55227" lon="2.6101">
        <ele>84.9</ele>
        <time>2021-05-30T06:41:28Z</time>
      </trkpt>
      <trkpt lat="48.55224" lon="2.61003">
        <ele>85</ele>
        <time>2021-05-30T06:41:29Z</time>
      </trkpt>
      <trkpt lat="48.55205" lon="2.60951">
        <ele>83.5</ele>
        <time>2021-05-30T06:41:37Z</time>
      </trkpt>
      <trkpt lat="48.55204" lon="2.60945">
        <ele>83.3</ele>
        <time>2021-05-30T06:41:38Z</time>
      </trkpt>
      <trkpt lat="48.55202" lon="2.60939">
        <ele>83.1</ele>
        <time>2021-05-30T06:41:39Z</time>
      </trkpt>
      <trkpt lat="48.55196" lon="2.60918">
        <ele>82.4</ele>
        <time>2021-05-30T06:41:42Z</time>
      </trkpt>
      <trkpt lat="48.55194" lon="2.60911">
        <ele>82.1</ele>
        <time>2021-05-30T06:41:43Z</time>
      </trkpt>
      <trkpt lat="48.55192" lon="2.60905">
        <ele>81.9</ele>
        <time>2021-05-30T06:41:44Z</time>
      </trkpt>
      <trkpt lat="48.55189" lon="2.60899">
        <ele>81.6</ele>
        <time>2021-05-30T06:41:45Z</time>
      </trkpt>
      <trkpt lat="48.55187" lon="2.60893">
        <ele>81.4</ele>
        <time>2021-05-30T06:41:46Z</time>
      </trkpt>
      <trkpt lat="48.55185" lon="2.60888">
        <ele>81.2</ele>
        <time>2021-05-30T06:41:47Z</time>
      </trkpt>
      <trkpt lat="48.55183" lon="2.60882">
        <ele>81</ele>
        <time>2021-05-30T06:41:48Z</time>
      </trkpt>
      <trkpt lat="48.55182" lon="2.60877">
        <ele>80.7</ele>
        <time>2021-05-30T06:41:49Z</time>
      </trkpt>
      <trkpt lat="48.55182" lon="2.60871">
        <ele>80.5</ele>
        <time>2021-05-30T06:41:50Z</time>
      </trkpt>
      <trkpt lat="48.55182" lon="2.60866">
        <ele>80.4</ele>
        <time>2021-05-30T06:41:51Z</time>
      </trkpt>
      <trkpt lat="48.55182" lon="2.60862">
        <ele>80.2</ele>
        <time>2021-05-30T06:41:52Z</time>
      </trkpt>
      <trkpt lat="48.55181" lon="2.60858">
        <ele>80</ele>
        <time>2021-05-30T06:41:53Z</time>
      </trkpt>
      <trkpt lat="48.5518" lon="2.60854">
        <ele>79.9</ele>
        <time>2021-05-30T06:41:54Z</time>
      </trkpt>
      <trkpt lat="48.55178" lon="2.6085">
        <ele>79.7</ele>
        <time>2021-05-30T06:41:55Z</time>
      </trkpt>
      <trkpt lat="48.55177" lon="2.60845">
        <ele>79.5</ele>
        <time>2021-05-30T06:41:56Z</time>
      </trkpt>
      <trkpt lat="48.55178" lon="2.6084">
        <ele>79.4</ele>
        <time>2021-05-30T06:41:57Z</time>
      </trkpt>
      <trkpt lat="48.55179" lon="2.60835">
        <ele>79.2</ele>
        <time>2021-05-30T06:41:58Z</time>
      </trkpt>
      <trkpt lat="48.55181" lon="2.60831">
        <ele>79.1</ele>
        <time>2021-05-30T06:41:59Z</time>
      </trkpt>
      <trkpt lat="48.55183" lon="2.60827">
        <ele>79.1</ele>
        <time>2021-05-30T06:42:00Z</time>
      </trkpt>
      <trkpt lat="48.55187" lon="2.60823">
        <ele>79.1</ele>
        <time>2021-05-30T06:42:01Z</time>
      </trkpt>
      <trkpt lat="48.5519" lon="2.60819">
        <ele>79</ele>
        <time>2021-05-30T06:42:02Z</time>
      </trkpt>
      <trkpt lat="48.55194" lon="2.60814">
        <ele>78.9</ele>
        <time>2021-05-30T06:42:03Z</time>
      </trkpt>
      <trkpt lat="48.5521" lon="2.60783">
        <ele>78.3</ele>
        <time>2021-05-30T06:42:09Z</time>
      </trkpt>
      <trkpt lat="48.55212" lon="2.60776">
        <ele>78.1</ele>
        <time>2021-05-30T06:42:10Z</time>
      </trkpt>
      <trkpt lat="48.55212" lon="2.6077">
        <ele>78</ele>
        <time>2021-05-30T06:42:11Z</time>
      </trkpt>
      <trkpt lat="48.55211" lon="2.60765">
        <ele>77.8</ele>
        <time>2021-05-30T06:42:12Z</time>
      </trkpt>
      <trkpt lat="48.55209" lon="2.60759">
        <ele>77.7</ele>
        <time>2021-05-30T06:42:13Z</time>
      </trkpt>
      <trkpt lat="48.55207" lon="2.60754">
        <ele>77.6</ele>
        <time>2021-05-30T06:42:14Z</time>
      </trkpt>
      <trkpt lat="48.55204" lon="2.60749">
        <ele>77.5</ele>
        <time>2021-05-30T06:42:15Z</time>
      </trkpt>
      <trkpt lat="48.55201" lon="2.60744">
        <ele>77.5</ele>
        <time>2021-05-30T06:42:16Z</time>
      </trkpt>
      <trkpt lat="48.55188" lon="2.60719">
        <ele>77.2</ele>
        <time>2021-05-30T06:42:21Z</time>
      </trkpt>
      <trkpt lat="48.55147" lon="2.60658">
        <ele>75.2</ele>
        <time>2021-05-30T06:42:31Z</time>
      </trkpt>
      <trkpt lat="48.55084" lon="2.60582">
        <ele>73</ele>
        <time>2021-05-30T06:42:43Z</time>
      </trkpt>
      <trkpt lat="48.55007" lon="2.60518">
        <ele>73.9</ele>
        <time>2021-05-30T06:43:00Z</time>
      </trkpt>
      <trkpt lat="48.54926" lon="2.60449">
        <ele>74.9</ele>
        <time>2021-05-30T06:43:19Z</time>
      </trkpt>
      <trkpt lat="48.54844" lon="2.6038">
        <ele>75.8</ele>
        <time>2021-05-30T06:43:38Z</time>
      </trkpt>
      <trkpt lat="48.5479" lon="2.60333">
        <ele>78.1</ele>
        <time>2021-05-30T06:43:52Z</time>
      </trkpt>
      <trkpt lat="48.54786" lon="2.60331">
        <ele>78.4</ele>
        <time>2021-05-30T06:43:53Z</time>
      </trkpt>
      <trkpt lat="48.54752" lon="2.60298">
        <ele>81.2</ele>
        <time>2021-05-30T06:44:04Z</time>
      </trkpt>
      <trkpt lat="48.54748" lon="2.60294">
        <ele>81.4</ele>
        <time>2021-05-30T06:44:05Z</time>
      </trkpt>
      <trkpt lat="48.54743" lon="2.6029">
        <ele>81.6</ele>
        <time>2021-05-30T06:44:06Z</time>
      </trkpt>
      <trkpt lat="48.54739" lon="2.60287">
        <ele>81.7</ele>
        <time>2021-05-30T06:44:07Z</time>
      </trkpt>
      <trkpt lat="48.54734" lon="2.60284">
        <ele>81.8</ele>
        <time>2021-05-30T06:44:08Z</time>
      </trkpt>
      <trkpt lat="48.54729" lon="2.60281">
        <ele>81.8</ele>
        <time>2021-05-30T06:44:09Z</time>
      </trkpt>
      <trkpt lat="48.54711" lon="2.60267">
        <ele>81.9</ele>
        <time>2021-05-30T06:44:13Z</time>
      </trkpt>
      <trkpt lat="48.54707" lon="2.60264">
        <ele>81.9</ele>
        <time>2021-05-30T06:44:14Z</time>
      </trkpt>
      <trkpt lat="48.54664" lon="2.60226">
        <ele>80.8</ele>
        <time>2021-05-30T06:44:25Z</time>
      </trkpt>
      <trkpt lat="48.54652" lon="2.60215">
        <ele>80.8</ele>
        <time>2021-05-30T06:44:28Z</time>
      </trkpt>
      <trkpt lat="48.54648" lon="2.60212">
        <ele>80.8</ele>
        <time>2021-05-30T06:44:29Z</time>
      </trkpt>
      <trkpt lat="48.5464" lon="2.60204">
        <ele>80.8</ele>
        <time>2021-05-30T06:44:31Z</time>
      </trkpt>
      <trkpt lat="48.54635" lon="2.602">
        <ele>80.8</ele>
        <time>2021-05-30T06:44:32Z</time>
      </trkpt>
      <trkpt lat="48.54627" lon="2.60193">
        <ele>80.8</ele>
        <time>2021-05-30T06:44:34Z</time>
      </trkpt>
      <trkpt lat="48.54623" lon="2.6019">
        <ele>80.8</ele>
        <time>2021-05-30T06:44:35Z</time>
      </trkpt>
      <trkpt lat="48.54619" lon="2.60186">
        <ele>80.8</ele>
        <time>2021-05-30T06:44:36Z</time>
      </trkpt>
      <trkpt lat="48.5459" lon="2.60163">
        <ele>80.9</ele>
        <time>2021-05-30T06:44:43Z</time>
      </trkpt>
      <trkpt lat="48.54586" lon="2.60159">
        <ele>80.9</ele>
        <time>2021-05-30T06:44:44Z</time>
      </trkpt>
      <trkpt lat="48.54582" lon="2.60155">
        <ele>80.8</ele>
        <time>2021-05-30T06:44:45Z</time>
      </trkpt>
      <trkpt lat="48.54578" lon="2.60151">
        <ele>80.8</ele>
        <time>2021-05-30T06:44:46Z</time>
      </trkpt>
      <trkpt lat="48.54574" lon="2.60147">
        <ele>80.7</ele>
        <time>2021-05-30T06:44:47Z</time>
      </trkpt>
      <trkpt lat="48.54554" lon="2.60128">
        <ele>80.5</ele>
        <time>2021-05-30T06:44:52Z</time>
      </trkpt>
      <trkpt lat="48.54542" lon="2.60118">
        <ele>80.5</ele>
        <time>2021-05-30T06:44:55Z</time>
      </trkpt>
      <trkpt lat="48.54538" lon="2.60114">
        <ele>80.5</ele>
        <time>2021-05-30T06:44:56Z</time>
      </trkpt>
      <trkpt lat="48.54534" lon="2.60111">
        <ele>80.5</ele>
        <time>2021-05-30T06:44:57Z</time>
      </trkpt>
      <trkpt lat="48.54529" lon="2.60108">
        <ele>80.6</ele>
        <time>2021-05-30T06:44:58Z</time>
      </trkpt>
      <trkpt lat="48.54525" lon="2.60104">
        <ele>80.6</ele>
        <time>2021-05-30T06:44:59Z</time>
      </trkpt>
      <trkpt lat="48.5452" lon="2.60101">
        <ele>80.6</ele>
        <time>2021-05-30T06:45:00Z</time>
      </trkpt>
      <trkpt lat="48.54512" lon="2.60094">
        <ele>80.8</ele>
        <time>2021-05-30T06:45:02Z</time>
      </trkpt>
      <trkpt lat="48.54508" lon="2.6009">
        <ele>80.8</ele>
        <time>2021-05-30T06:45:03Z</time>
      </trkpt>
      <trkpt lat="48.54458" lon="2.6005">
        <ele>82.7</ele>
        <time>2021-05-30T06:45:15Z</time>
      </trkpt>
      <trkpt lat="48.54441" lon="2.60042">
        <ele>83.4</ele>
        <time>2021-05-30T06:45:19Z</time>
      </trkpt>
      <trkpt lat="48.5442" lon="2.60036">
        <ele>84.2</ele>
        <time>2021-05-30T06:45:23Z</time>
      </trkpt>
      <trkpt lat="48.54415" lon="2.60036">
        <ele>84.3</ele>
        <time>2021-05-30T06:45:24Z</time>
      </trkpt>
      <trkpt lat="48.54406" lon="2.60033">
        <ele>84.2</ele>
        <time>2021-05-30T06:45:26Z</time>
      </trkpt>
      <trkpt lat="48.54401" lon="2.60031">
        <ele>84.3</ele>
        <time>2021-05-30T06:45:27Z</time>
      </trkpt>
      <trkpt lat="48.5438" lon="2.60019">
        <ele>84.4</ele>
        <time>2021-05-30T06:45:32Z</time>
      </trkpt>
      <trkpt lat="48.54376" lon="2.60017">
        <ele>84.4</ele>
        <time>2021-05-30T06:45:33Z</time>
      </trkpt>
      <trkpt lat="48.54373" lon="2.60015">
        <ele>84.4</ele>
        <time>2021-05-30T06:45:34Z</time>
      </trkpt>
      <trkpt lat="48.54368" lon="2.60011">
        <ele>84.5</ele>
        <time>2021-05-30T06:45:35Z</time>
      </trkpt>
      <trkpt lat="48.54363" lon="2.60007">
        <ele>84.5</ele>
        <time>2021-05-30T06:45:36Z</time>
      </trkpt>
      <trkpt lat="48.54359" lon="2.60003">
        <ele>84.5</ele>
        <time>2021-05-30T06:45:37Z</time>
      </trkpt>
      <trkpt lat="48.54328" lon="2.59978">
        <ele>84.6</ele>
        <time>2021-05-30T06:45:44Z</time>
      </trkpt>
      <trkpt lat="48.54324" lon="2.59973">
        <ele>84.8</ele>
        <time>2021-05-30T06:45:45Z</time>
      </trkpt>
      <trkpt lat="48.54316" lon="2.59967">
        <ele>85</ele>
        <time>2021-05-30T06:45:47Z</time>
      </trkpt>
      <trkpt lat="48.54296" lon="2.59951">
        <ele>85.3</ele>
        <time>2021-05-30T06:45:53Z</time>
      </trkpt>
      <trkpt lat="48.54293" lon="2.59947">
        <ele>85.3</ele>
        <time>2021-05-30T06:45:54Z</time>
      </trkpt>
      <trkpt lat="48.54245" lon="2.59914">
        <ele>85.1</ele>
        <time>2021-05-30T06:46:05Z</time>
      </trkpt>
      <trkpt lat="48.54212" lon="2.59888">
        <ele>85.4</ele>
        <time>2021-05-30T06:46:13Z</time>
      </trkpt>
      <trkpt lat="48.54203" lon="2.59881">
        <ele>85.4</ele>
        <time>2021-05-30T06:46:15Z</time>
      </trkpt>
      <trkpt lat="48.5418" lon="2.59864">
        <ele>85.2</ele>
        <time>2021-05-30T06:46:20Z</time>
      </trkpt>
      <trkpt lat="48.54176" lon="2.59861">
        <ele>85.2</ele>
        <time>2021-05-30T06:46:21Z</time>
      </trkpt>
      <trkpt lat="48.54134" lon="2.59829">
        <ele>83.5</ele>
        <time>2021-05-30T06:46:30Z</time>
      </trkpt>
      <trkpt lat="48.5413" lon="2.59826">
        <ele>83.4</ele>
        <time>2021-05-30T06:46:31Z</time>
      </trkpt>
      <trkpt lat="48.54115" lon="2.59816">
        <ele>82.9</ele>
        <time>2021-05-30T06:46:35Z</time>
      </trkpt>
      <trkpt lat="48.54112" lon="2.59817">
        <ele>82.7</ele>
        <time>2021-05-30T06:46:36Z</time>
      </trkpt>
      <trkpt lat="48.54109" lon="2.59819">
        <ele>82.5</ele>
        <time>2021-05-30T06:46:37Z</time>
      </trkpt>
      <trkpt lat="48.54085" lon="2.5986">
        <ele>81.4</ele>
        <time>2021-05-30T06:46:46Z</time>
      </trkpt>
      <trkpt lat="48.54039" lon="2.59945">
        <ele>81.8</ele>
        <time>2021-05-30T06:47:00Z</time>
      </trkpt>
      <trkpt lat="48.54009" lon="2.59995">
        <ele>80.4</ele>
        <time>2021-05-30T06:47:09Z</time>
      </trkpt>
      <trkpt lat="48.54" lon="2.60013">
        <ele>79.8</ele>
        <time>2021-05-30T06:47:12Z</time>
      </trkpt>
      <trkpt lat="48.53954" lon="2.60107">
        <ele>80.1</ele>
        <time>2021-05-30T06:47:27Z</time>
      </trkpt>
      <trkpt lat="48.53916" lon="2.60192">
        <ele>82.3</ele>
        <time>2021-05-30T06:47:40Z</time>
      </trkpt>
      <trkpt lat="48.5391" lon="2.60198">
        <ele>82.7</ele>
        <time>2021-05-30T06:47:42Z</time>
      </trkpt>
      <trkpt lat="48.53906" lon="2.60198">
        <ele>82.8</ele>
        <time>2021-05-30T06:47:43Z</time>
      </trkpt>
      <trkpt lat="48.53902" lon="2.60194">
        <ele>83</ele>
        <time>2021-05-30T06:47:44Z</time>
      </trkpt>
      <trkpt lat="48.53895" lon="2.60186">
        <ele>83.2</ele>
        <time>2021-05-30T06:47:46Z</time>
      </trkpt>
      <trkpt lat="48.53862" lon="2.60152">
        <ele>84.3</ele>
        <time>2021-05-30T06:47:55Z</time>
      </trkpt>
      <trkpt lat="48.53859" lon="2.60148">
        <ele>84.3</ele>
        <time>2021-05-30T06:47:56Z</time>
      </trkpt>
      <trkpt lat="48.53832" lon="2.60124">
        <ele>85</ele>
        <time>2021-05-30T06:48:03Z</time>
      </trkpt>
      <trkpt lat="48.53828" lon="2.6012">
        <ele>85</ele>
        <time>2021-05-30T06:48:04Z</time>
      </trkpt>
      <trkpt lat="48.53799" lon="2.60091">
        <ele>84.6</ele>
        <time>2021-05-30T06:48:12Z</time>
      </trkpt>
      <trkpt lat="48.53748" lon="2.60041">
        <ele>84</ele>
        <time>2021-05-30T06:48:25Z</time>
      </trkpt>
      <trkpt lat="48.5373" lon="2.60024">
        <ele>84.2</ele>
        <time>2021-05-30T06:48:29Z</time>
      </trkpt>
      <trkpt lat="48.53673" lon="2.59972">
        <ele>84.2</ele>
        <time>2021-05-30T06:48:41Z</time>
      </trkpt>
      <trkpt lat="48.53669" lon="2.59967">
        <ele>84</ele>
        <time>2021-05-30T06:48:42Z</time>
      </trkpt>
      <trkpt lat="48.53664" lon="2.59961">
        <ele>83.6</ele>
        <time>2021-05-30T06:48:43Z</time>
      </trkpt>
      <trkpt lat="48.53659" lon="2.59956">
        <ele>83.2</ele>
        <time>2021-05-30T06:48:44Z</time>
      </trkpt>
      <trkpt lat="48.53626" lon="2.59923">
        <ele>80.8</ele>
        <time>2021-05-30T06:48:51Z</time>
      </trkpt>
      <trkpt lat="48.53622" lon="2.59917">
        <ele>80.5</ele>
        <time>2021-05-30T06:48:52Z</time>
      </trkpt>
      <trkpt lat="48.53617" lon="2.59911">
        <ele>80.4</ele>
        <time>2021-05-30T06:48:53Z</time>
      </trkpt>
      <trkpt lat="48.53613" lon="2.59906">
        <ele>80.3</ele>
        <time>2021-05-30T06:48:54Z</time>
      </trkpt>
      <trkpt lat="48.53607" lon="2.59901">
        <ele>80.2</ele>
        <time>2021-05-30T06:48:55Z</time>
      </trkpt>
      <trkpt lat="48.53545" lon="2.59843">
        <ele>79.6</ele>
        <time>2021-05-30T06:49:07Z</time>
      </trkpt>
      <trkpt lat="48.53535" lon="2.59833">
        <ele>79.6</ele>
        <time>2021-05-30T06:49:09Z</time>
      </trkpt>
      <trkpt lat="48.53523" lon="2.59824">
        <ele>79.8</ele>
        <time>2021-05-30T06:49:11Z</time>
      </trkpt>
      <trkpt lat="48.53517" lon="2.5982">
        <ele>79.9</ele>
        <time>2021-05-30T06:49:12Z</time>
      </trkpt>
      <trkpt lat="48.53513" lon="2.59816">
        <ele>79.9</ele>
        <time>2021-05-30T06:49:13Z</time>
      </trkpt>
      <trkpt lat="48.53508" lon="2.59813">
        <ele>80</ele>
        <time>2021-05-30T06:49:14Z</time>
      </trkpt>
      <trkpt lat="48.53504" lon="2.59808">
        <ele>80</ele>
        <time>2021-05-30T06:49:15Z</time>
      </trkpt>
      <trkpt lat="48.53499" lon="2.59804">
        <ele>80</ele>
        <time>2021-05-30T06:49:16Z</time>
      </trkpt>
      <trkpt lat="48.53494" lon="2.59798">
        <ele>79.9</ele>
        <time>2021-05-30T06:49:17Z</time>
      </trkpt>
      <trkpt lat="48.53461" lon="2.59765">
        <ele>79.2</ele>
        <time>2021-05-30T06:49:24Z</time>
      </trkpt>
      <trkpt lat="48.53441" lon="2.59743">
        <ele>78.6</ele>
        <time>2021-05-30T06:49:29Z</time>
      </trkpt>
      <trkpt lat="48.53437" lon="2.59739">
        <ele>78.4</ele>
        <time>2021-05-30T06:49:30Z</time>
      </trkpt>
      <trkpt lat="48.53412" lon="2.59716">
        <ele>77.6</ele>
        <time>2021-05-30T06:49:36Z</time>
      </trkpt>
      <trkpt lat="48.53392" lon="2.59701">
        <ele>77.3</ele>
        <time>2021-05-30T06:49:40Z</time>
      </trkpt>
      <trkpt lat="48.53382" lon="2.59692">
        <ele>77</ele>
        <time>2021-05-30T06:49:42Z</time>
      </trkpt>
      <trkpt lat="48.53344" lon="2.59655">
        <ele>75.3</ele>
        <time>2021-05-30T06:49:50Z</time>
      </trkpt>
      <trkpt lat="48.53339" lon="2.59651">
        <ele>75.2</ele>
        <time>2021-05-30T06:49:51Z</time>
      </trkpt>
      <trkpt lat="48.53336" lon="2.59647">
        <ele>75.1</ele>
        <time>2021-05-30T06:49:52Z</time>
      </trkpt>
      <trkpt lat="48.53332" lon="2.59643">
        <ele>75</ele>
        <time>2021-05-30T06:49:53Z</time>
      </trkpt>
      <trkpt lat="48.53328" lon="2.59639">
        <ele>75.2</ele>
        <time>2021-05-30T06:49:54Z</time>
      </trkpt>
      <trkpt lat="48.53324" lon="2.59635">
        <ele>75.3</ele>
        <time>2021-05-30T06:49:55Z</time>
      </trkpt>
      <trkpt lat="48.5332" lon="2.59632">
        <ele>75.5</ele>
        <time>2021-05-30T06:49:56Z</time>
      </trkpt>
      <trkpt lat="48.53307" lon="2.59621">
        <ele>75.9</ele>
        <time>2021-05-30T06:49:59Z</time>
      </trkpt>
      <trkpt lat="48.53302" lon="2.59617">
        <ele>76</ele>
        <time>2021-05-30T06:50:00Z</time>
      </trkpt>
      <trkpt lat="48.53262" lon="2.59579">
        <ele>76.7</ele>
        <time>2021-05-30T06:50:10Z</time>
      </trkpt>
      <trkpt lat="48.53231" lon="2.59547">
        <ele>77.4</ele>
        <time>2021-05-30T06:50:19Z</time>
      </trkpt>
      <trkpt lat="48.53205" lon="2.59522">
        <ele>77.7</ele>
        <time>2021-05-30T06:50:25Z</time>
      </trkpt>
      <trkpt lat="48.53201" lon="2.59519">
        <ele>77.7</ele>
        <time>2021-05-30T06:50:26Z</time>
      </trkpt>
      <trkpt lat="48.53193" lon="2.59511">
        <ele>77.8</ele>
        <time>2021-05-30T06:50:28Z</time>
      </trkpt>
      <trkpt lat="48.53189" lon="2.59507">
        <ele>77.8</ele>
        <time>2021-05-30T06:50:29Z</time>
      </trkpt>
      <trkpt lat="48.53184" lon="2.59503">
        <ele>77.8</ele>
        <time>2021-05-30T06:50:30Z</time>
      </trkpt>
      <trkpt lat="48.53179" lon="2.59498">
        <ele>77.8</ele>
        <time>2021-05-30T06:50:31Z</time>
      </trkpt>
      <trkpt lat="48.53175" lon="2.59494">
        <ele>77.8</ele>
        <time>2021-05-30T06:50:32Z</time>
      </trkpt>
      <trkpt lat="48.53171" lon="2.59491">
        <ele>77.8</ele>
        <time>2021-05-30T06:50:33Z</time>
      </trkpt>
      <trkpt lat="48.53167" lon="2.59488">
        <ele>77.7</ele>
        <time>2021-05-30T06:50:34Z</time>
      </trkpt>
      <trkpt lat="48.53139" lon="2.59466">
        <ele>76.8</ele>
        <time>2021-05-30T06:50:43Z</time>
      </trkpt>
      <trkpt lat="48.5312" lon="2.59476">
        <ele>76.9</ele>
        <time>2021-05-30T06:50:49Z</time>
      </trkpt>
      <trkpt lat="48.53118" lon="2.5948">
        <ele>76.9</ele>
        <time>2021-05-30T06:50:50Z</time>
      </trkpt>
      <trkpt lat="48.53115" lon="2.59488">
        <ele>77.1</ele>
        <time>2021-05-30T06:50:52Z</time>
      </trkpt>
      <trkpt lat="48.53112" lon="2.59488">
        <ele>77.1</ele>
        <time>2021-05-30T06:50:53Z</time>
      </trkpt>
      <trkpt lat="48.53099" lon="2.59484">
        <ele>76.8</ele>
        <time>2021-05-30T06:50:58Z</time>
      </trkpt>
      <trkpt lat="48.53098" lon="2.59481">
        <ele>76.7</ele>
        <time>2021-05-30T06:50:59Z</time>
      </trkpt>
      <trkpt lat="48.53096" lon="2.59478">
        <ele>76.6</ele>
        <time>2021-05-30T06:51:00Z</time>
      </trkpt>
      <trkpt lat="48.53095" lon="2.59474">
        <ele>76.5</ele>
        <time>2021-05-30T06:51:01Z</time>
      </trkpt>
      <trkpt lat="48.53093" lon="2.59471">
        <ele>76.4</ele>
        <time>2021-05-30T06:51:02Z</time>
      </trkpt>
      <trkpt lat="48.53091" lon="2.5947">
        <ele>76.4</ele>
        <time>2021-05-30T06:51:03Z</time>
      </trkpt>
      <trkpt lat="48.53089" lon="2.59468">
        <ele>76.3</ele>
        <time>2021-05-30T06:51:04Z</time>
      </trkpt>
      <trkpt lat="48.53086" lon="2.59467">
        <ele>76.2</ele>
        <time>2021-05-30T06:51:05Z</time>
      </trkpt>
      <trkpt lat="48.53082" lon="2.59465">
        <ele>76.1</ele>
        <time>2021-05-30T06:51:06Z</time>
      </trkpt>
      <trkpt lat="48.53079" lon="2.59462">
        <ele>76</ele>
        <time>2021-05-30T06:51:07Z</time>
      </trkpt>
      <trkpt lat="48.53075" lon="2.59459">
        <ele>75.9</ele>
        <time>2021-05-30T06:51:08Z</time>
      </trkpt>
      <trkpt lat="48.53072" lon="2.59457">
        <ele>75.8</ele>
        <time>2021-05-30T06:51:09Z</time>
      </trkpt>
      <trkpt lat="48.53068" lon="2.59457">
        <ele>75.7</ele>
        <time>2021-05-30T06:51:10Z</time>
      </trkpt>
      <trkpt lat="48.53064" lon="2.59457">
        <ele>75.6</ele>
        <time>2021-05-30T06:51:11Z</time>
      </trkpt>
      <trkpt lat="48.53038" lon="2.59449">
        <ele>74.9</ele>
        <time>2021-05-30T06:51:18Z</time>
      </trkpt>
      <trkpt lat="48.53031" lon="2.59446">
        <ele>74.7</ele>
        <time>2021-05-30T06:51:21Z</time>
      </trkpt>
      <trkpt lat="48.53028" lon="2.59444">
        <ele>74.6</ele>
        <time>2021-05-30T06:51:23Z</time>
      </trkpt>
      <trkpt lat="48.53026" lon="2.59445">
        <ele>74.5</ele>
        <time>2021-05-30T06:51:24Z</time>
      </trkpt>
      <trkpt lat="48.53023" lon="2.59448">
        <ele>74.6</ele>
        <time>2021-05-30T06:51:25Z</time>
      </trkpt>
      <trkpt lat="48.53019" lon="2.59453">
        <ele>74.7</ele>
        <time>2021-05-30T06:51:26Z</time>
      </trkpt>
      <trkpt lat="48.53016" lon="2.59457">
        <ele>74.7</ele>
        <time>2021-05-30T06:51:27Z</time>
      </trkpt>
      <trkpt lat="48.53004" lon="2.59478">
        <ele>75.3</ele>
        <time>2021-05-30T06:51:33Z</time>
      </trkpt>
      <trkpt lat="48.52993" lon="2.59493">
        <ele>75.8</ele>
        <time>2021-05-30T06:51:37Z</time>
      </trkpt>
      <trkpt lat="48.52989" lon="2.59502">
        <ele>76</ele>
        <time>2021-05-30T06:51:39Z</time>
      </trkpt>
      <trkpt lat="48.52986" lon="2.59504">
        <ele>76.1</ele>
        <time>2021-05-30T06:51:40Z</time>
      </trkpt>
      <trkpt lat="48.52983" lon="2.59506">
        <ele>76.1</ele>
        <time>2021-05-30T06:51:41Z</time>
      </trkpt>
      <trkpt lat="48.5298" lon="2.59506">
        <ele>76.1</ele>
        <time>2021-05-30T06:51:42Z</time>
      </trkpt>
      <trkpt lat="48.52976" lon="2.59505">
        <ele>76.1</ele>
        <time>2021-05-30T06:51:43Z</time>
      </trkpt>
      <trkpt lat="48.52973" lon="2.59503">
        <ele>76.1</ele>
        <time>2021-05-30T06:51:44Z</time>
      </trkpt>
      <trkpt lat="48.5297" lon="2.59501">
        <ele>76</ele>
        <time>2021-05-30T06:51:45Z</time>
      </trkpt>
      <trkpt lat="48.52966" lon="2.595">
        <ele>76</ele>
        <time>2021-05-30T06:51:46Z</time>
      </trkpt>
      <trkpt lat="48.52962" lon="2.59498">
        <ele>75.9</ele>
        <time>2021-05-30T06:51:47Z</time>
      </trkpt>
      <trkpt lat="48.52958" lon="2.59496">
        <ele>75.8</ele>
        <time>2021-05-30T06:51:48Z</time>
      </trkpt>
      <trkpt lat="48.52953" lon="2.59494">
        <ele>75.7</ele>
        <time>2021-05-30T06:51:49Z</time>
      </trkpt>
      <trkpt lat="48.52904" lon="2.59462">
        <ele>74.1</ele>
        <time>2021-05-30T06:52:01Z</time>
      </trkpt>
      <trkpt lat="48.52898" lon="2.59458">
        <ele>73.9</ele>
        <time>2021-05-30T06:52:02Z</time>
      </trkpt>
      <trkpt lat="48.52893" lon="2.59455">
        <ele>73.7</ele>
        <time>2021-05-30T06:52:03Z</time>
      </trkpt>
      <trkpt lat="48.52889" lon="2.59453">
        <ele>73.6</ele>
        <time>2021-05-30T06:52:04Z</time>
      </trkpt>
      <trkpt lat="48.52885" lon="2.59451">
        <ele>73.4</ele>
        <time>2021-05-30T06:52:05Z</time>
      </trkpt>
      <trkpt lat="48.5288" lon="2.5945">
        <ele>73.3</ele>
        <time>2021-05-30T06:52:06Z</time>
      </trkpt>
      <trkpt lat="48.52875" lon="2.59449">
        <ele>73.2</ele>
        <time>2021-05-30T06:52:07Z</time>
      </trkpt>
      <trkpt lat="48.52864" lon="2.59448">
        <ele>73.1</ele>
        <time>2021-05-30T06:52:09Z</time>
      </trkpt>
      <trkpt lat="48.52859" lon="2.59448">
        <ele>73.1</ele>
        <time>2021-05-30T06:52:10Z</time>
      </trkpt>
      <trkpt lat="48.52847" lon="2.59449">
        <ele>73</ele>
        <time>2021-05-30T06:52:12Z</time>
      </trkpt>
      <trkpt lat="48.5284" lon="2.59448">
        <ele>72.9</ele>
        <time>2021-05-30T06:52:13Z</time>
      </trkpt>
      <trkpt lat="48.52787" lon="2.59437">
        <ele>69.5</ele>
        <time>2021-05-30T06:52:22Z</time>
      </trkpt>
      <trkpt lat="48.5278" lon="2.59435">
        <ele>68.9</ele>
        <time>2021-05-30T06:52:23Z</time>
      </trkpt>
      <trkpt lat="48.52774" lon="2.59433">
        <ele>68.4</ele>
        <time>2021-05-30T06:52:24Z</time>
      </trkpt>
      <trkpt lat="48.52769" lon="2.59431">
        <ele>68</ele>
        <time>2021-05-30T06:52:25Z</time>
      </trkpt>
      <trkpt lat="48.52764" lon="2.5943">
        <ele>67.6</ele>
        <time>2021-05-30T06:52:26Z</time>
      </trkpt>
      <trkpt lat="48.52759" lon="2.59429">
        <ele>67.3</ele>
        <time>2021-05-30T06:52:27Z</time>
      </trkpt>
      <trkpt lat="48.52754" lon="2.59429">
        <ele>66.9</ele>
        <time>2021-05-30T06:52:28Z</time>
      </trkpt>
      <trkpt lat="48.52722" lon="2.5942">
        <ele>64.9</ele>
        <time>2021-05-30T06:52:33Z</time>
      </trkpt>
      <trkpt lat="48.52711" lon="2.59416">
        <ele>64.1</ele>
        <time>2021-05-30T06:52:35Z</time>
      </trkpt>
      <trkpt lat="48.52704" lon="2.59418">
        <ele>63.9</ele>
        <time>2021-05-30T06:52:36Z</time>
      </trkpt>
      <trkpt lat="48.52682" lon="2.59432">
        <ele>63.6</ele>
        <time>2021-05-30T06:52:40Z</time>
      </trkpt>
      <trkpt lat="48.52677" lon="2.59433">
        <ele>63.5</ele>
        <time>2021-05-30T06:52:41Z</time>
      </trkpt>
      <trkpt lat="48.52671" lon="2.59433">
        <ele>63.2</ele>
        <time>2021-05-30T06:52:42Z</time>
      </trkpt>
      <trkpt lat="48.52665" lon="2.59433">
        <ele>62.9</ele>
        <time>2021-05-30T06:52:43Z</time>
      </trkpt>
      <trkpt lat="48.52659" lon="2.59431">
        <ele>62.6</ele>
        <time>2021-05-30T06:52:44Z</time>
      </trkpt>
      <trkpt lat="48.52654" lon="2.5943">
        <ele>62.3</ele>
        <time>2021-05-30T06:52:45Z</time>
      </trkpt>
      <trkpt lat="48.5265" lon="2.59429">
        <ele>62.1</ele>
        <time>2021-05-30T06:52:46Z</time>
      </trkpt>
      <trkpt lat="48.52636" lon="2.59425">
        <ele>61.4</ele>
        <time>2021-05-30T06:52:49Z</time>
      </trkpt>
      <trkpt lat="48.52631" lon="2.59422">
        <ele>61</ele>
        <time>2021-05-30T06:52:50Z</time>
      </trkpt>
      <trkpt lat="48.52626" lon="2.59419">
        <ele>60.7</ele>
        <time>2021-05-30T06:52:51Z</time>
      </trkpt>
      <trkpt lat="48.52582" lon="2.59389">
        <ele>57.7</ele>
        <time>2021-05-30T06:53:00Z</time>
      </trkpt>
      <trkpt lat="48.52546" lon="2.59358">
        <ele>54.8</ele>
        <time>2021-05-30T06:53:09Z</time>
      </trkpt>
      <trkpt lat="48.52542" lon="2.59356">
        <ele>54.6</ele>
        <time>2021-05-30T06:53:10Z</time>
      </trkpt>
      <trkpt lat="48.52534" lon="2.59354">
        <ele>54.2</ele>
        <time>2021-05-30T06:53:12Z</time>
      </trkpt>
      <trkpt lat="48.5253" lon="2.59351">
        <ele>53.9</ele>
        <time>2021-05-30T06:53:13Z</time>
      </trkpt>
      <trkpt lat="48.52489" lon="2.59312">
        <ele>51.8</ele>
        <time>2021-05-30T06:53:21Z</time>
      </trkpt>
      <trkpt lat="48.5241" lon="2.5923">
        <ele>49.7</ele>
        <time>2021-05-30T06:53:37Z</time>
      </trkpt>
      <trkpt lat="48.52389" lon="2.5921">
        <ele>49.3</ele>
        <time>2021-05-30T06:53:42Z</time>
      </trkpt>
      <trkpt lat="48.52333" lon="2.59152">
        <ele>48.6</ele>
        <time>2021-05-30T06:53:55Z</time>
      </trkpt>
      <trkpt lat="48.52282" lon="2.591">
        <ele>44.8</ele>
        <time>2021-05-30T06:54:07Z</time>
      </trkpt>
      <trkpt lat="48.52278" lon="2.59096">
        <ele>44.5</ele>
        <time>2021-05-30T06:54:08Z</time>
      </trkpt>
      <trkpt lat="48.52276" lon="2.5909">
        <ele>44.3</ele>
        <time>2021-05-30T06:54:09Z</time>
      </trkpt>
      <trkpt lat="48.52275" lon="2.59084">
        <ele>44.2</ele>
        <time>2021-05-30T06:54:10Z</time>
      </trkpt>
      <trkpt lat="48.52277" lon="2.59079">
        <ele>44.3</ele>
        <time>2021-05-30T06:54:11Z</time>
      </trkpt>
      <trkpt lat="48.5228" lon="2.59074">
        <ele>44.4</ele>
        <time>2021-05-30T06:54:12Z</time>
      </trkpt>
      <trkpt lat="48.52284" lon="2.5907">
        <ele>44.6</ele>
        <time>2021-05-30T06:54:13Z</time>
      </trkpt>
      <trkpt lat="48.52308" lon="2.59038">
        <ele>45.2</ele>
        <time>2021-05-30T06:54:20Z</time>
      </trkpt>
      <trkpt lat="48.52346" lon="2.58991">
        <ele>45.3</ele>
        <time>2021-05-30T06:54:32Z</time>
      </trkpt>
      <trkpt lat="48.52361" lon="2.58968">
        <ele>45.8</ele>
        <time>2021-05-30T06:54:38Z</time>
      </trkpt>
      <trkpt lat="48.5236" lon="2.58963">
        <ele>45.8</ele>
        <time>2021-05-30T06:54:39Z</time>
      </trkpt>
      <trkpt lat="48.52353" lon="2.58951">
        <ele>45.6</ele>
        <time>2021-05-30T06:54:42Z</time>
      </trkpt>
      <trkpt lat="48.52309" lon="2.58868">
        <ele>44.4</ele>
        <time>2021-05-30T06:54:54Z</time>
      </trkpt>
      <trkpt lat="48.52268" lon="2.58788">
        <ele>44.4</ele>
        <time>2021-05-30T06:55:04Z</time>
      </trkpt>
      <trkpt lat="48.52264" lon="2.5878">
        <ele>44.5</ele>
        <time>2021-05-30T06:55:05Z</time>
      </trkpt>
      <trkpt lat="48.52261" lon="2.58773">
        <ele>44.6</ele>
        <time>2021-05-30T06:55:06Z</time>
      </trkpt>
      <trkpt lat="48.5226" lon="2.58765">
        <ele>44.8</ele>
        <time>2021-05-30T06:55:07Z</time>
      </trkpt>
      <trkpt lat="48.52261" lon="2.58757">
        <ele>45</ele>
        <time>2021-05-30T06:55:08Z</time>
      </trkpt>
      <trkpt lat="48.52263" lon="2.58751">
        <ele>45.1</ele>
        <time>2021-05-30T06:55:09Z</time>
      </trkpt>
      <trkpt lat="48.52267" lon="2.58748">
        <ele>45.2</ele>
        <time>2021-05-30T06:55:10Z</time>
      </trkpt>
      <trkpt lat="48.5227" lon="2.58745">
        <ele>45.2</ele>
        <time>2021-05-30T06:55:11Z</time>
      </trkpt>
      <trkpt lat="48.52292" lon="2.58726">
        <ele>45.1</ele>
        <time>2021-05-30T06:55:18Z</time>
      </trkpt>
      <trkpt lat="48.52293" lon="2.58722">
        <ele>45</ele>
        <time>2021-05-30T06:55:19Z</time>
      </trkpt>
      <trkpt lat="48.52293" lon="2.58719">
        <ele>44.9</ele>
        <time>2021-05-30T06:55:20Z</time>
      </trkpt>
      <trkpt lat="48.52291" lon="2.58718">
        <ele>44.9</ele>
        <time>2021-05-30T06:55:21Z</time>
      </trkpt>
      <trkpt lat="48.52289" lon="2.58719">
        <ele>45</ele>
        <time>2021-05-30T06:55:22Z</time>
      </trkpt>
      <trkpt lat="48.52288" lon="2.5872">
        <ele>45</ele>
        <time>2021-05-30T06:55:23Z</time>
      </trkpt>
      <trkpt lat="48.52287" lon="2.58722">
        <ele>45</ele>
        <time>2021-05-30T06:55:24Z</time>
      </trkpt>
      <trkpt lat="48.52259" lon="2.58748">
        <ele>45.1</ele>
        <time>2021-05-30T06:55:37Z</time>
      </trkpt>
      <trkpt lat="48.52257" lon="2.58748">
        <ele>45.1</ele>
        <time>2021-05-30T06:55:40Z</time>
      </trkpt>
      <trkpt lat="48.52257" lon="2.58746">
        <ele>45.1</ele>
        <time>2021-05-30T06:55:41Z</time>
      </trkpt>
      <trkpt lat="48.52258" lon="2.58744">
        <ele>45.1</ele>
        <time>2021-05-30T06:55:42Z</time>
      </trkpt>
      <trkpt lat="48.52259" lon="2.58743">
        <ele>45.1</ele>
        <time>2021-05-30T06:55:43Z</time>
      </trkpt>
      <trkpt lat="48.52261" lon="2.58741">
        <ele>45.2</ele>
        <time>2021-05-30T06:55:44Z</time>
      </trkpt>
      <trkpt lat="48.52263" lon="2.58739">
        <ele>45.2</ele>
        <time>2021-05-30T06:55:45Z</time>
      </trkpt>
      <trkpt lat="48.52266" lon="2.58737">
        <ele>45.2</ele>
        <time>2021-05-30T06:55:46Z</time>
      </trkpt>
      <trkpt lat="48.52268" lon="2.58735">
        <ele>45.2</ele>
        <time>2021-05-30T06:55:47Z</time>
      </trkpt>
      <trkpt lat="48.5227" lon="2.58733">
        <ele>45.2</ele>
        <time>2021-05-30T06:55:48Z</time>
      </trkpt>
      <trkpt lat="48.52272" lon="2.58731">
        <ele>45.2</ele>
        <time>2021-05-30T06:55:49Z</time>
      </trkpt>
      <trkpt lat="48.52274" lon="2.5873">
        <ele>45.2</ele>
        <time>2021-05-30T06:55:50Z</time>
      </trkpt>
      <trkpt lat="48.52291" lon="2.58714">
        <ele>44.9</ele>
        <time>2021-05-30T06:55:58Z</time>
      </trkpt>
      <trkpt lat="48.52291" lon="2.58711">
        <ele>44.8</ele>
        <time>2021-05-30T06:55:59Z</time>
      </trkpt>
      <trkpt lat="48.5229" lon="2.58708">
        <ele>44.8</ele>
        <time>2021-05-30T06:56:00Z</time>
      </trkpt>
      <trkpt lat="48.52266" lon="2.58645">
        <ele>43.7</ele>
        <time>2021-05-30T06:56:15Z</time>
      </trkpt>
      <trkpt lat="48.5224" lon="2.58587">
        <ele>40.4</ele>
        <time>2021-05-30T06:56:29Z</time>
      </trkpt>
      <trkpt lat="48.52218" lon="2.5853">
        <ele>44.5</ele>
        <time>2021-05-30T06:56:42Z</time>
      </trkpt>
      <trkpt lat="48.5221" lon="2.58512">
        <ele>46.7</ele>
        <time>2021-05-30T06:56:48Z</time>
      </trkpt>
      <trkpt lat="48.52208" lon="2.58513">
        <ele>46.9</ele>
        <time>2021-05-30T06:56:49Z</time>
      </trkpt>
      <trkpt lat="48.52206" lon="2.58514">
        <ele>46.9</ele>
        <time>2021-05-30T06:56:50Z</time>
      </trkpt>
      <trkpt lat="48.52174" lon="2.58542">
        <ele>46.4</ele>
        <time>2021-05-30T06:57:02Z</time>
      </trkpt>
      <trkpt lat="48.52173" lon="2.58544">
        <ele>46.2</ele>
        <time>2021-05-30T06:57:03Z</time>
      </trkpt>
      <trkpt lat="48.52175" lon="2.58544">
        <ele>46.1</ele>
        <time>2021-05-30T06:57:06Z</time>
      </trkpt>
      <trkpt lat="48.52177" lon="2.58542">
        <ele>46.3</ele>
        <time>2021-05-30T06:57:07Z</time>
      </trkpt>
      <trkpt lat="48.522" lon="2.5852">
        <ele>47</ele>
        <time>2021-05-30T06:57:16Z</time>
      </trkpt>
      <trkpt lat="48.52208" lon="2.58515">
        <ele>46.7</ele>
        <time>2021-05-30T06:57:20Z</time>
      </trkpt>
      <trkpt lat="48.52209" lon="2.58517">
        <ele>46.5</ele>
        <time>2021-05-30T06:57:21Z</time>
      </trkpt>
      <trkpt lat="48.52208" lon="2.58519">
        <ele>46.3</ele>
        <time>2021-05-30T06:57:22Z</time>
      </trkpt>
      <trkpt lat="48.52207" lon="2.58521">
        <ele>46.3</ele>
        <time>2021-05-30T06:57:23Z</time>
      </trkpt>
      <trkpt lat="48.52205" lon="2.58523">
        <ele>46.3</ele>
        <time>2021-05-30T06:57:24Z</time>
      </trkpt>
      <trkpt lat="48.52202" lon="2.58525">
        <ele>46.2</ele>
        <time>2021-05-30T06:57:25Z</time>
      </trkpt>
      <trkpt lat="48.52165" lon="2.5856">
        <ele>44.6</ele>
        <time>2021-05-30T06:57:37Z</time>
      </trkpt>
      <trkpt lat="48.5211" lon="2.58616">
        <ele>47.7</ele>
        <time>2021-05-30T06:57:52Z</time>
      </trkpt>
      <trkpt lat="48.52086" lon="2.58639">
        <ele>48.8</ele>
        <time>2021-05-30T06:57:59Z</time>
      </trkpt>
      <trkpt lat="48.52052" lon="2.58666">
        <ele>50.9</ele>
        <time>2021-05-30T06:58:08Z</time>
      </trkpt>
      <trkpt lat="48.52015" lon="2.58694">
        <ele>53.4</ele>
        <time>2021-05-30T06:58:17Z</time>
      </trkpt>
      <trkpt lat="48.51964" lon="2.58768">
        <ele>52.4</ele>
        <time>2021-05-30T06:58:32Z</time>
      </trkpt>
      <trkpt lat="48.51938" lon="2.58816">
        <ele>49.1</ele>
        <time>2021-05-30T06:58:40Z</time>
      </trkpt>
      <trkpt lat="48.51934" lon="2.58822">
        <ele>48.4</ele>
        <time>2021-05-30T06:58:41Z</time>
      </trkpt>
      <trkpt lat="48.51889" lon="2.58899">
        <ele>46.5</ele>
        <time>2021-05-30T06:58:55Z</time>
      </trkpt>
      <trkpt lat="48.51831" lon="2.58997">
        <ele>46.7</ele>
        <time>2021-05-30T06:59:13Z</time>
      </trkpt>
      <trkpt lat="48.51827" lon="2.59002">
        <ele>46.8</ele>
        <time>2021-05-30T06:59:14Z</time>
      </trkpt>
      <trkpt lat="48.51823" lon="2.59005">
        <ele>47</ele>
        <time>2021-05-30T06:59:15Z</time>
      </trkpt>
      <trkpt lat="48.51819" lon="2.5901">
        <ele>46.9</ele>
        <time>2021-05-30T06:59:16Z</time>
      </trkpt>
      <trkpt lat="48.51816" lon="2.59015">
        <ele>46.8</ele>
        <time>2021-05-30T06:59:17Z</time>
      </trkpt>
      <trkpt lat="48.51813" lon="2.5902">
        <ele>46.5</ele>
        <time>2021-05-30T06:59:18Z</time>
      </trkpt>
      <trkpt lat="48.51772" lon="2.59082">
        <ele>46.4</ele>
        <time>2021-05-30T06:59:30Z</time>
      </trkpt>
      <trkpt lat="48.51763" lon="2.59097">
        <ele>47.6</ele>
        <time>2021-05-30T06:59:33Z</time>
      </trkpt>
      <trkpt lat="48.51749" lon="2.59117">
        <ele>49.2</ele>
        <time>2021-05-30T06:59:37Z</time>
      </trkpt>
      <trkpt lat="48.51743" lon="2.59129">
        <ele>49.9</ele>
        <time>2021-05-30T06:59:39Z</time>
      </trkpt>
      <trkpt lat="48.51739" lon="2.59134">
        <ele>50.5</ele>
        <time>2021-05-30T06:59:40Z</time>
      </trkpt>
      <trkpt lat="48.51735" lon="2.59139">
        <ele>51</ele>
        <time>2021-05-30T06:59:41Z</time>
      </trkpt>
      <trkpt lat="48.51724" lon="2.59155">
        <ele>52.3</ele>
        <time>2021-05-30T06:59:44Z</time>
      </trkpt>
      <trkpt lat="48.51677" lon="2.59252">
        <ele>51.3</ele>
        <time>2021-05-30T06:59:59Z</time>
      </trkpt>
      <trkpt lat="48.51643" lon="2.59322">
        <ele>53</ele>
        <time>2021-05-30T07:00:11Z</time>
      </trkpt>
      <trkpt lat="48.5164" lon="2.59327">
        <ele>53.2</ele>
        <time>2021-05-30T07:00:12Z</time>
      </trkpt>
      <trkpt lat="48.51637" lon="2.59333">
        <ele>53.3</ele>
        <time>2021-05-30T07:00:13Z</time>
      </trkpt>
      <trkpt lat="48.5163" lon="2.59351">
        <ele>53.2</ele>
        <time>2021-05-30T07:00:16Z</time>
      </trkpt>
      <trkpt lat="48.51628" lon="2.59357">
        <ele>53.1</ele>
        <time>2021-05-30T07:00:17Z</time>
      </trkpt>
      <trkpt lat="48.51601" lon="2.59441">
        <ele>51.5</ele>
        <time>2021-05-30T07:00:30Z</time>
      </trkpt>
      <trkpt lat="48.51575" lon="2.59541">
        <ele>49.1</ele>
        <time>2021-05-30T07:00:45Z</time>
      </trkpt>
      <trkpt lat="48.51571" lon="2.59554">
        <ele>49.4</ele>
        <time>2021-05-30T07:00:47Z</time>
      </trkpt>
      <trkpt lat="48.5157" lon="2.59561">
        <ele>49.4</ele>
        <time>2021-05-30T07:00:48Z</time>
      </trkpt>
      <trkpt lat="48.51562" lon="2.59598">
        <ele>49.4</ele>
        <time>2021-05-30T07:00:53Z</time>
      </trkpt>
      <trkpt lat="48.51561" lon="2.59605">
        <ele>49.5</ele>
        <time>2021-05-30T07:00:54Z</time>
      </trkpt>
      <trkpt lat="48.51553" lon="2.59646">
        <ele>49.3</ele>
        <time>2021-05-30T07:01:00Z</time>
      </trkpt>
      <trkpt lat="48.51551" lon="2.59653">
        <ele>49.3</ele>
        <time>2021-05-30T07:01:01Z</time>
      </trkpt>
      <trkpt lat="48.51546" lon="2.59684">
        <ele>49.3</ele>
        <time>2021-05-30T07:01:05Z</time>
      </trkpt>
      <trkpt lat="48.51538" lon="2.59737">
        <ele>49.9</ele>
        <time>2021-05-30T07:01:13Z</time>
      </trkpt>
      <trkpt lat="48.51534" lon="2.59768">
        <ele>49.4</ele>
        <time>2021-05-30T07:01:18Z</time>
      </trkpt>
      <trkpt lat="48.51531" lon="2.59773">
        <ele>49.6</ele>
        <time>2021-05-30T07:01:19Z</time>
      </trkpt>
      <trkpt lat="48.51528" lon="2.59775">
        <ele>50</ele>
        <time>2021-05-30T07:01:20Z</time>
      </trkpt>
      <trkpt lat="48.51525" lon="2.59775">
        <ele>50.5</ele>
        <time>2021-05-30T07:01:21Z</time>
      </trkpt>
      <trkpt lat="48.51521" lon="2.59774">
        <ele>51.2</ele>
        <time>2021-05-30T07:01:22Z</time>
      </trkpt>
      <trkpt lat="48.51514" lon="2.59771">
        <ele>52.5</ele>
        <time>2021-05-30T07:01:24Z</time>
      </trkpt>
      <trkpt lat="48.51511" lon="2.59767">
        <ele>53.2</ele>
        <time>2021-05-30T07:01:25Z</time>
      </trkpt>
      <trkpt lat="48.51509" lon="2.59762">
        <ele>53.8</ele>
        <time>2021-05-30T07:01:26Z</time>
      </trkpt>
      <trkpt lat="48.51508" lon="2.59757">
        <ele>54.2</ele>
        <time>2021-05-30T07:01:27Z</time>
      </trkpt>
      <trkpt lat="48.51508" lon="2.59753">
        <ele>54.6</ele>
        <time>2021-05-30T07:01:28Z</time>
      </trkpt>
      <trkpt lat="48.51505" lon="2.59704">
        <ele>56.8</ele>
        <time>2021-05-30T07:01:42Z</time>
      </trkpt>
      <trkpt lat="48.51499" lon="2.59664">
        <ele>59.5</ele>
        <time>2021-05-30T07:01:56Z</time>
      </trkpt>
      <trkpt lat="48.51495" lon="2.59638">
        <ele>62</ele>
        <time>2021-05-30T07:02:07Z</time>
      </trkpt>
      <trkpt lat="48.51494" lon="2.59636">
        <ele>62.3</ele>
        <time>2021-05-30T07:02:08Z</time>
      </trkpt>
      <trkpt lat="48.51494" lon="2.59633">
        <ele>62.6</ele>
        <time>2021-05-30T07:02:09Z</time>
      </trkpt>
      <trkpt lat="48.51493" lon="2.59631">
        <ele>63</ele>
        <time>2021-05-30T07:02:10Z</time>
      </trkpt>
      <trkpt lat="48.51493" lon="2.59628">
        <ele>63.2</ele>
        <time>2021-05-30T07:02:11Z</time>
      </trkpt>
      <trkpt lat="48.51492" lon="2.59626">
        <ele>63.4</ele>
        <time>2021-05-30T07:02:12Z</time>
      </trkpt>
      <trkpt lat="48.51492" lon="2.59624">
        <ele>63.6</ele>
        <time>2021-05-30T07:02:13Z</time>
      </trkpt>
      <trkpt lat="48.51483" lon="2.59601">
        <ele>66.8</ele>
        <time>2021-05-30T07:02:24Z</time>
      </trkpt>
      <trkpt lat="48.51472" lon="2.59576">
        <ele>70</ele>
        <time>2021-05-30T07:02:34Z</time>
      </trkpt>
      <trkpt lat="48.51472" lon="2.59574">
        <ele>70.2</ele>
        <time>2021-05-30T07:02:35Z</time>
      </trkpt>
      <trkpt lat="48.51471" lon="2.59571">
        <ele>70.5</ele>
        <time>2021-05-30T07:02:36Z</time>
      </trkpt>
      <trkpt lat="48.5147" lon="2.59569">
        <ele>70.6</ele>
        <time>2021-05-30T07:02:37Z</time>
      </trkpt>
      <trkpt lat="48.5147" lon="2.59566">
        <ele>70.9</ele>
        <time>2021-05-30T07:02:38Z</time>
      </trkpt>
      <trkpt lat="48.51469" lon="2.59564">
        <ele>71.1</ele>
        <time>2021-05-30T07:02:39Z</time>
      </trkpt>
      <trkpt lat="48.51469" lon="2.59561">
        <ele>71.3</ele>
        <time>2021-05-30T07:02:40Z</time>
      </trkpt>
      <trkpt lat="48.51468" lon="2.59558">
        <ele>71.4</ele>
        <time>2021-05-30T07:02:41Z</time>
      </trkpt>
      <trkpt lat="48.51467" lon="2.59511">
        <ele>73.7</ele>
        <time>2021-05-30T07:02:55Z</time>
      </trkpt>
      <trkpt lat="48.5146" lon="2.59469">
        <ele>74.7</ele>
        <time>2021-05-30T07:03:08Z</time>
      </trkpt>
      <trkpt lat="48.51453" lon="2.59427">
        <ele>74.9</ele>
        <time>2021-05-30T07:03:21Z</time>
      </trkpt>
      <trkpt lat="48.51437" lon="2.59377">
        <ele>75.8</ele>
        <time>2021-05-30T07:03:37Z</time>
      </trkpt>
      <trkpt lat="48.51427" lon="2.59362">
        <ele>76.4</ele>
        <time>2021-05-30T07:03:42Z</time>
      </trkpt>
      <trkpt lat="48.51427" lon="2.59358">
        <ele>76.4</ele>
        <time>2021-05-30T07:03:43Z</time>
      </trkpt>
      <trkpt lat="48.51409" lon="2.59307">
        <ele>76.7</ele>
        <time>2021-05-30T07:03:57Z</time>
      </trkpt>
      <trkpt lat="48.51383" lon="2.59246">
        <ele>76.2</ele>
        <time>2021-05-30T07:04:11Z</time>
      </trkpt>
      <trkpt lat="48.51338" lon="2.59183">
        <ele>76.4</ele>
        <time>2021-05-30T07:04:26Z</time>
      </trkpt>
      <trkpt lat="48.51288" lon="2.59133">
        <ele>75.9</ele>
        <time>2021-05-30T07:04:41Z</time>
      </trkpt>
      <trkpt lat="48.51282" lon="2.59131">
        <ele>75.9</ele>
        <time>2021-05-30T07:04:43Z</time>
      </trkpt>
      <trkpt lat="48.51279" lon="2.59132">
        <ele>76</ele>
        <time>2021-05-30T07:04:44Z</time>
      </trkpt>
      <trkpt lat="48.51276" lon="2.59133">
        <ele>76</ele>
        <time>2021-05-30T07:04:45Z</time>
      </trkpt>
      <trkpt lat="48.51272" lon="2.59135">
        <ele>76.1</ele>
        <time>2021-05-30T07:04:46Z</time>
      </trkpt>
      <trkpt lat="48.5127" lon="2.59137">
        <ele>76.1</ele>
        <time>2021-05-30T07:04:47Z</time>
      </trkpt>
      <trkpt lat="48.51269" lon="2.59139">
        <ele>76.2</ele>
        <time>2021-05-30T07:04:48Z</time>
      </trkpt>
      <trkpt lat="48.51267" lon="2.5914">
        <ele>76.2</ele>
        <time>2021-05-30T07:04:49Z</time>
      </trkpt>
      <trkpt lat="48.51265" lon="2.5914">
        <ele>76.2</ele>
        <time>2021-05-30T07:04:50Z</time>
      </trkpt>
      <trkpt lat="48.51263" lon="2.59139">
        <ele>76.2</ele>
        <time>2021-05-30T07:04:51Z</time>
      </trkpt>
      <trkpt lat="48.51261" lon="2.59138">
        <ele>76.2</ele>
        <time>2021-05-30T07:04:52Z</time>
      </trkpt>
      <trkpt lat="48.5126" lon="2.59136">
        <ele>76.2</ele>
        <time>2021-05-30T07:04:53Z</time>
      </trkpt>
      <trkpt lat="48.51259" lon="2.59132">
        <ele>76.1</ele>
        <time>2021-05-30T07:04:54Z</time>
      </trkpt>
      <trkpt lat="48.51259" lon="2.59129">
        <ele>76</ele>
        <time>2021-05-30T07:04:55Z</time>
      </trkpt>
      <trkpt lat="48.51257" lon="2.59124">
        <ele>75.9</ele>
        <time>2021-05-30T07:04:56Z</time>
      </trkpt>
      <trkpt lat="48.51256" lon="2.5912">
        <ele>75.8</ele>
        <time>2021-05-30T07:04:57Z</time>
      </trkpt>
      <trkpt lat="48.51255" lon="2.59115">
        <ele>75.7</ele>
        <time>2021-05-30T07:04:58Z</time>
      </trkpt>
      <trkpt lat="48.51254" lon="2.59109">
        <ele>75.6</ele>
        <time>2021-05-30T07:04:59Z</time>
      </trkpt>
      <trkpt lat="48.51254" lon="2.59104">
        <ele>75.5</ele>
        <time>2021-05-30T07:05:00Z</time>
      </trkpt>
      <trkpt lat="48.51253" lon="2.59099">
        <ele>75.4</ele>
        <time>2021-05-30T07:05:01Z</time>
      </trkpt>
      <trkpt lat="48.51252" lon="2.59093">
        <ele>75.2</ele>
        <time>2021-05-30T07:05:02Z</time>
      </trkpt>
      <trkpt lat="48.51251" lon="2.59089">
        <ele>75.1</ele>
        <time>2021-05-30T07:05:03Z</time>
      </trkpt>
      <trkpt lat="48.51213" lon="2.59037">
        <ele>74.8</ele>
        <time>2021-05-30T07:05:17Z</time>
      </trkpt>
      <trkpt lat="48.51156" lon="2.58977">
        <ele>75.8</ele>
        <time>2021-05-30T07:05:35Z</time>
      </trkpt>
      <trkpt lat="48.51142" lon="2.58966">
        <ele>76.2</ele>
        <time>2021-05-30T07:05:39Z</time>
      </trkpt>
      <trkpt lat="48.51088" lon="2.58921">
        <ele>77.8</ele>
        <time>2021-05-30T07:05:55Z</time>
      </trkpt>
      <trkpt lat="48.51035" lon="2.58907">
        <ele>77.5</ele>
        <time>2021-05-30T07:06:09Z</time>
      </trkpt>
      <trkpt lat="48.50993" lon="2.58899">
        <ele>77.4</ele>
        <time>2021-05-30T07:06:21Z</time>
      </trkpt>
      <trkpt lat="48.50954" lon="2.58891">
        <ele>78.4</ele>
        <time>2021-05-30T07:06:33Z</time>
      </trkpt>
      <trkpt lat="48.509" lon="2.58879">
        <ele>80.1</ele>
        <time>2021-05-30T07:06:49Z</time>
      </trkpt>
      <trkpt lat="48.50854" lon="2.58869">
        <ele>81.9</ele>
        <time>2021-05-30T07:07:03Z</time>
      </trkpt>
      <trkpt lat="48.50847" lon="2.58868">
        <ele>82.1</ele>
        <time>2021-05-30T07:07:08Z</time>
      </trkpt>
      <trkpt lat="48.50815" lon="2.58861">
        <ele>82.6</ele>
        <time>2021-05-30T07:07:19Z</time>
      </trkpt>
      <trkpt lat="48.50766" lon="2.58853">
        <ele>82.3</ele>
        <time>2021-05-30T07:07:33Z</time>
      </trkpt>
      <trkpt lat="48.50725" lon="2.58884">
        <ele>82.4</ele>
        <time>2021-05-30T07:07:45Z</time>
      </trkpt>
      <trkpt lat="48.50695" lon="2.58914">
        <ele>82.3</ele>
        <time>2021-05-30T07:07:54Z</time>
      </trkpt>
      <trkpt lat="48.50626" lon="2.58979">
        <ele>83.2</ele>
        <time>2021-05-30T07:08:13Z</time>
      </trkpt>
      <trkpt lat="48.50623" lon="2.58983">
        <ele>83.2</ele>
        <time>2021-05-30T07:08:14Z</time>
      </trkpt>
      <trkpt lat="48.5062" lon="2.58987">
        <ele>83.2</ele>
        <time>2021-05-30T07:08:15Z</time>
      </trkpt>
      <trkpt lat="48.50618" lon="2.58992">
        <ele>83.1</ele>
        <time>2021-05-30T07:08:16Z</time>
      </trkpt>
      <trkpt lat="48.50616" lon="2.58996">
        <ele>83.1</ele>
        <time>2021-05-30T07:08:17Z</time>
      </trkpt>
      <trkpt lat="48.50615" lon="2.58999">
        <ele>83</ele>
        <time>2021-05-30T07:08:18Z</time>
      </trkpt>
      <trkpt lat="48.50611" lon="2.59009">
        <ele>83</ele>
        <time>2021-05-30T07:08:21Z</time>
      </trkpt>
      <trkpt lat="48.50608" lon="2.5901">
        <ele>83</ele>
        <time>2021-05-30T07:08:22Z</time>
      </trkpt>
      <trkpt lat="48.50605" lon="2.59009">
        <ele>82.9</ele>
        <time>2021-05-30T07:08:23Z</time>
      </trkpt>
      <trkpt lat="48.50601" lon="2.59008">
        <ele>82.9</ele>
        <time>2021-05-30T07:08:24Z</time>
      </trkpt>
      <trkpt lat="48.50597" lon="2.59008">
        <ele>82.9</ele>
        <time>2021-05-30T07:08:25Z</time>
      </trkpt>
      <trkpt lat="48.50593" lon="2.59009">
        <ele>82.9</ele>
        <time>2021-05-30T07:08:26Z</time>
      </trkpt>
      <trkpt lat="48.5059" lon="2.59012">
        <ele>82.9</ele>
        <time>2021-05-30T07:08:27Z</time>
      </trkpt>
      <trkpt lat="48.50587" lon="2.59015">
        <ele>82.8</ele>
        <time>2021-05-30T07:08:28Z</time>
      </trkpt>
      <trkpt lat="48.50549" lon="2.59049">
        <ele>83.1</ele>
        <time>2021-05-30T07:08:39Z</time>
      </trkpt>
      <trkpt lat="48.50545" lon="2.5905">
        <ele>83.1</ele>
        <time>2021-05-30T07:08:40Z</time>
      </trkpt>
      <trkpt lat="48.50541" lon="2.59051">
        <ele>83.2</ele>
        <time>2021-05-30T07:08:41Z</time>
      </trkpt>
      <trkpt lat="48.50537" lon="2.5905">
        <ele>83.3</ele>
        <time>2021-05-30T07:08:42Z</time>
      </trkpt>
      <trkpt lat="48.50534" lon="2.59048">
        <ele>83.4</ele>
        <time>2021-05-30T07:08:43Z</time>
      </trkpt>
      <trkpt lat="48.5053" lon="2.59046">
        <ele>83.4</ele>
        <time>2021-05-30T07:08:44Z</time>
      </trkpt>
      <trkpt lat="48.50526" lon="2.59043">
        <ele>83.5</ele>
        <time>2021-05-30T07:08:45Z</time>
      </trkpt>
      <trkpt lat="48.50509" lon="2.59035">
        <ele>83.9</ele>
        <time>2021-05-30T07:08:50Z</time>
      </trkpt>
      <trkpt lat="48.50484" lon="2.59067">
        <ele>84.4</ele>
        <time>2021-05-30T07:08:59Z</time>
      </trkpt>
      <trkpt lat="48.50481" lon="2.59073">
        <ele>84.5</ele>
        <time>2021-05-30T07:09:00Z</time>
      </trkpt>
      <trkpt lat="48.50444" lon="2.59161">
        <ele>87</ele>
        <time>2021-05-30T07:09:13Z</time>
      </trkpt>
      <trkpt lat="48.50427" lon="2.59184">
        <ele>86.9</ele>
        <time>2021-05-30T07:09:17Z</time>
      </trkpt>
      <trkpt lat="48.50343" lon="2.59262">
        <ele>88.6</ele>
        <time>2021-05-30T07:09:34Z</time>
      </trkpt>
      <trkpt lat="48.50269" lon="2.59335">
        <ele>86.2</ele>
        <time>2021-05-30T07:09:50Z</time>
      </trkpt>
      <trkpt lat="48.5026" lon="2.59345">
        <ele>85.9</ele>
        <time>2021-05-30T07:09:52Z</time>
      </trkpt>
      <trkpt lat="48.50228" lon="2.5938">
        <ele>83.5</ele>
        <time>2021-05-30T07:09:59Z</time>
      </trkpt>
      <trkpt lat="48.50157" lon="2.59452">
        <ele>81.8</ele>
        <time>2021-05-30T07:10:14Z</time>
      </trkpt>
      <trkpt lat="48.501" lon="2.5951">
        <ele>81.4</ele>
        <time>2021-05-30T07:10:26Z</time>
      </trkpt>
      <trkpt lat="48.50085" lon="2.59527">
        <ele>80.9</ele>
        <time>2021-05-30T07:10:29Z</time>
      </trkpt>
      <trkpt lat="48.5002" lon="2.59592">
        <ele>79.8</ele>
        <time>2021-05-30T07:10:43Z</time>
      </trkpt>
      <trkpt lat="48.5001" lon="2.59603">
        <ele>79.8</ele>
        <time>2021-05-30T07:10:52Z</time>
      </trkpt>
      <trkpt lat="48.50009" lon="2.59603">
        <ele>79.9</ele>
        <time>2021-05-30T07:10:57Z</time>
      </trkpt>
      <trkpt lat="48.50006" lon="2.59604">
        <ele>80</ele>
        <time>2021-05-30T07:11:00Z</time>
      </trkpt>
      <trkpt lat="48.50002" lon="2.59614">
        <ele>79.8</ele>
        <time>2021-05-30T07:11:10Z</time>
      </trkpt>
      <trkpt lat="48.49999" lon="2.5962">
        <ele>79.7</ele>
        <time>2021-05-30T07:11:23Z</time>
      </trkpt>
      <trkpt lat="48.4998" lon="2.59581">
        <ele>80.8</ele>
        <time>2021-05-30T07:11:35Z</time>
      </trkpt>
      <trkpt lat="48.49963" lon="2.59548">
        <ele>81.4</ele>
        <time>2021-05-30T07:11:41Z</time>
      </trkpt>
      <trkpt lat="48.4996" lon="2.59544">
        <ele>81.5</ele>
        <time>2021-05-30T07:11:42Z</time>
      </trkpt>
      <trkpt lat="48.49957" lon="2.59539">
        <ele>81.5</ele>
        <time>2021-05-30T07:11:43Z</time>
      </trkpt>
      <trkpt lat="48.49955" lon="2.59534">
        <ele>81.6</ele>
        <time>2021-05-30T07:11:44Z</time>
      </trkpt>
      <trkpt lat="48.49954" lon="2.59528">
        <ele>81.7</ele>
        <time>2021-05-30T07:11:45Z</time>
      </trkpt>
      <trkpt lat="48.49951" lon="2.59523">
        <ele>81.7</ele>
        <time>2021-05-30T07:11:46Z</time>
      </trkpt>
      <trkpt lat="48.49948" lon="2.59518">
        <ele>81.8</ele>
        <time>2021-05-30T07:11:47Z</time>
      </trkpt>
      <trkpt lat="48.49921" lon="2.59464">
        <ele>80.8</ele>
        <time>2021-05-30T07:11:58Z</time>
      </trkpt>
      <trkpt lat="48.49894" lon="2.59437">
        <ele>79.4</ele>
        <time>2021-05-30T07:12:07Z</time>
      </trkpt>
      <trkpt lat="48.49888" lon="2.59434">
        <ele>79.2</ele>
        <time>2021-05-30T07:12:09Z</time>
      </trkpt>
      <trkpt lat="48.49885" lon="2.59435">
        <ele>79.1</ele>
        <time>2021-05-30T07:12:10Z</time>
      </trkpt>
      <trkpt lat="48.49882" lon="2.59439">
        <ele>79</ele>
        <time>2021-05-30T07:12:11Z</time>
      </trkpt>
      <trkpt lat="48.49877" lon="2.59487">
        <ele>79.4</ele>
        <time>2021-05-30T07:12:22Z</time>
      </trkpt>
      <trkpt lat="48.4988" lon="2.59537">
        <ele>79.2</ele>
        <time>2021-05-30T07:12:33Z</time>
      </trkpt>
      <trkpt lat="48.49881" lon="2.59543">
        <ele>79.2</ele>
        <time>2021-05-30T07:12:34Z</time>
      </trkpt>
      <trkpt lat="48.49883" lon="2.5955">
        <ele>79.2</ele>
        <time>2021-05-30T07:12:35Z</time>
      </trkpt>
      <trkpt lat="48.49885" lon="2.59555">
        <ele>79.2</ele>
        <time>2021-05-30T07:12:36Z</time>
      </trkpt>
      <trkpt lat="48.49888" lon="2.59559">
        <ele>79.3</ele>
        <time>2021-05-30T07:12:37Z</time>
      </trkpt>
      <trkpt lat="48.4989" lon="2.59564">
        <ele>79.3</ele>
        <time>2021-05-30T07:12:38Z</time>
      </trkpt>
      <trkpt lat="48.49891" lon="2.5957">
        <ele>79.2</ele>
        <time>2021-05-30T07:12:39Z</time>
      </trkpt>
      <trkpt lat="48.49892" lon="2.59576">
        <ele>79.2</ele>
        <time>2021-05-30T07:12:40Z</time>
      </trkpt>
      <trkpt lat="48.49892" lon="2.59583">
        <ele>79.1</ele>
        <time>2021-05-30T07:12:41Z</time>
      </trkpt>
      <trkpt lat="48.49891" lon="2.5959">
        <ele>78.9</ele>
        <time>2021-05-30T07:12:42Z</time>
      </trkpt>
      <trkpt lat="48.4989" lon="2.59597">
        <ele>78.6</ele>
        <time>2021-05-30T07:12:43Z</time>
      </trkpt>
      <trkpt lat="48.49889" lon="2.59603">
        <ele>78.4</ele>
        <time>2021-05-30T07:12:44Z</time>
      </trkpt>
      <trkpt lat="48.4986" lon="2.59719">
        <ele>76</ele>
        <time>2021-05-30T07:13:02Z</time>
      </trkpt>
      <trkpt lat="48.49829" lon="2.59847">
        <ele>75.4</ele>
        <time>2021-05-30T07:13:21Z</time>
      </trkpt>
      <trkpt lat="48.49803" lon="2.5996">
        <ele>78.9</ele>
        <time>2021-05-30T07:13:36Z</time>
      </trkpt>
      <trkpt lat="48.498" lon="2.59973">
        <ele>79.2</ele>
        <time>2021-05-30T07:13:38Z</time>
      </trkpt>
      <trkpt lat="48.4979" lon="2.60008">
        <ele>79.3</ele>
        <time>2021-05-30T07:13:43Z</time>
      </trkpt>
      <trkpt lat="48.49745" lon="2.60117">
        <ele>76.6</ele>
        <time>2021-05-30T07:13:59Z</time>
      </trkpt>
      <trkpt lat="48.49693" lon="2.60223">
        <ele>77.6</ele>
        <time>2021-05-30T07:14:17Z</time>
      </trkpt>
      <trkpt lat="48.49691" lon="2.6023">
        <ele>77.8</ele>
        <time>2021-05-30T07:14:18Z</time>
      </trkpt>
      <trkpt lat="48.4969" lon="2.60236">
        <ele>78</ele>
        <time>2021-05-30T07:14:19Z</time>
      </trkpt>
      <trkpt lat="48.49689" lon="2.60249">
        <ele>78.5</ele>
        <time>2021-05-30T07:14:21Z</time>
      </trkpt>
      <trkpt lat="48.49688" lon="2.60256">
        <ele>78.4</ele>
        <time>2021-05-30T07:14:22Z</time>
      </trkpt>
      <trkpt lat="48.49687" lon="2.60263">
        <ele>78.3</ele>
        <time>2021-05-30T07:14:23Z</time>
      </trkpt>
      <trkpt lat="48.4968" lon="2.6032">
        <ele>77.3</ele>
        <time>2021-05-30T07:14:31Z</time>
      </trkpt>
      <trkpt lat="48.49679" lon="2.60327">
        <ele>77.1</ele>
        <time>2021-05-30T07:14:32Z</time>
      </trkpt>
      <trkpt lat="48.49663" lon="2.60407">
        <ele>77</ele>
        <time>2021-05-30T07:14:43Z</time>
      </trkpt>
      <trkpt lat="48.49661" lon="2.60414">
        <ele>77</ele>
        <time>2021-05-30T07:14:44Z</time>
      </trkpt>
      <trkpt lat="48.49639" lon="2.60515">
        <ele>77.2</ele>
        <time>2021-05-30T07:14:58Z</time>
      </trkpt>
      <trkpt lat="48.49638" lon="2.60616">
        <ele>77.2</ele>
        <time>2021-05-30T07:15:14Z</time>
      </trkpt>
      <trkpt lat="48.49629" lon="2.60644">
        <ele>78.2</ele>
        <time>2021-05-30T07:15:24Z</time>
      </trkpt>
      <trkpt lat="48.49614" lon="2.60686">
        <ele>80.2</ele>
        <time>2021-05-30T07:15:31Z</time>
      </trkpt>
      <trkpt lat="48.49611" lon="2.60699">
        <ele>80.7</ele>
        <time>2021-05-30T07:15:33Z</time>
      </trkpt>
      <trkpt lat="48.49608" lon="2.60711">
        <ele>81.1</ele>
        <time>2021-05-30T07:15:35Z</time>
      </trkpt>
      <trkpt lat="48.49601" lon="2.60733">
        <ele>81.9</ele>
        <time>2021-05-30T07:15:39Z</time>
      </trkpt>
      <trkpt lat="48.49588" lon="2.6076">
        <ele>82.4</ele>
        <time>2021-05-30T07:15:44Z</time>
      </trkpt>
      <trkpt lat="48.49577" lon="2.60782">
        <ele>82.1</ele>
        <time>2021-05-30T07:15:48Z</time>
      </trkpt>
      <trkpt lat="48.49571" lon="2.60802">
        <ele>81.7</ele>
        <time>2021-05-30T07:15:51Z</time>
      </trkpt>
      <trkpt lat="48.49565" lon="2.6086">
        <ele>80.4</ele>
        <time>2021-05-30T07:16:02Z</time>
      </trkpt>
      <trkpt lat="48.4956" lon="2.60912">
        <ele>79.3</ele>
        <time>2021-05-30T07:16:12Z</time>
      </trkpt>
      <trkpt lat="48.49559" lon="2.60936">
        <ele>78.8</ele>
        <time>2021-05-30T07:16:16Z</time>
      </trkpt>
      <trkpt lat="48.49549" lon="2.60952">
        <ele>78.8</ele>
        <time>2021-05-30T07:16:20Z</time>
      </trkpt>
      <trkpt lat="48.49467" lon="2.60963">
        <ele>79.8</ele>
        <time>2021-05-30T07:16:36Z</time>
      </trkpt>
      <trkpt lat="48.49456" lon="2.60963">
        <ele>80</ele>
        <time>2021-05-30T07:16:38Z</time>
      </trkpt>
      <trkpt lat="48.49421" lon="2.60954">
        <ele>81.2</ele>
        <time>2021-05-30T07:16:45Z</time>
      </trkpt>
      <trkpt lat="48.49406" lon="2.60948">
        <ele>82.2</ele>
        <time>2021-05-30T07:16:49Z</time>
      </trkpt>
      <trkpt lat="48.49392" lon="2.61016">
        <ele>79.4</ele>
        <time>2021-05-30T07:17:01Z</time>
      </trkpt>
      <trkpt lat="48.49379" lon="2.61099">
        <ele>80.3</ele>
        <time>2021-05-30T07:17:13Z</time>
      </trkpt>
      <trkpt lat="48.49359" lon="2.61234">
        <ele>82.7</ele>
        <time>2021-05-30T07:17:33Z</time>
      </trkpt>
      <trkpt lat="48.49351" lon="2.61344">
        <ele>80.9</ele>
        <time>2021-05-30T07:17:50Z</time>
      </trkpt>
      <trkpt lat="48.4935" lon="2.61357">
        <ele>80.8</ele>
        <time>2021-05-30T07:17:52Z</time>
      </trkpt>
      <trkpt lat="48.49351" lon="2.61411">
        <ele>80.2</ele>
        <time>2021-05-30T07:18:00Z</time>
      </trkpt>
      <trkpt lat="48.49349" lon="2.61517">
        <ele>82.8</ele>
        <time>2021-05-30T07:18:17Z</time>
      </trkpt>
      <trkpt lat="48.4935" lon="2.61535">
        <ele>83.5</ele>
        <time>2021-05-30T07:18:21Z</time>
      </trkpt>
      <trkpt lat="48.49344" lon="2.61541">
        <ele>84.2</ele>
        <time>2021-05-30T07:18:25Z</time>
      </trkpt>
      <trkpt lat="48.4931" lon="2.61517">
        <ele>84.7</ele>
        <time>2021-05-30T07:18:33Z</time>
      </trkpt>
      <trkpt lat="48.49293" lon="2.61507">
        <ele>85.1</ele>
        <time>2021-05-30T07:18:37Z</time>
      </trkpt>
      <trkpt lat="48.49285" lon="2.61501">
        <ele>85.4</ele>
        <time>2021-05-30T07:18:39Z</time>
      </trkpt>
      <trkpt lat="48.4928" lon="2.61497">
        <ele>85.5</ele>
        <time>2021-05-30T07:18:40Z</time>
      </trkpt>
      <trkpt lat="48.49275" lon="2.61493">
        <ele>85.6</ele>
        <time>2021-05-30T07:18:41Z</time>
      </trkpt>
      <trkpt lat="48.49271" lon="2.6149">
        <ele>85.7</ele>
        <time>2021-05-30T07:18:42Z</time>
      </trkpt>
      <trkpt lat="48.49267" lon="2.61486">
        <ele>85.9</ele>
        <time>2021-05-30T07:18:43Z</time>
      </trkpt>
      <trkpt lat="48.49263" lon="2.61483">
        <ele>86</ele>
        <time>2021-05-30T07:18:44Z</time>
      </trkpt>
      <trkpt lat="48.4925" lon="2.61472">
        <ele>86.3</ele>
        <time>2021-05-30T07:18:47Z</time>
      </trkpt>
      <trkpt lat="48.49245" lon="2.61468">
        <ele>86.2</ele>
        <time>2021-05-30T07:18:48Z</time>
      </trkpt>
      <trkpt lat="48.4924" lon="2.61465">
        <ele>86.1</ele>
        <time>2021-05-30T07:18:49Z</time>
      </trkpt>
      <trkpt lat="48.49231" lon="2.61459">
        <ele>85.9</ele>
        <time>2021-05-30T07:18:51Z</time>
      </trkpt>
      <trkpt lat="48.49226" lon="2.61456">
        <ele>85.8</ele>
        <time>2021-05-30T07:18:52Z</time>
      </trkpt>
      <trkpt lat="48.49221" lon="2.61454">
        <ele>85.7</ele>
        <time>2021-05-30T07:18:53Z</time>
      </trkpt>
      <trkpt lat="48.49166" lon="2.61413">
        <ele>85.1</ele>
        <time>2021-05-30T07:19:05Z</time>
      </trkpt>
      <trkpt lat="48.49137" lon="2.61392">
        <ele>86.1</ele>
        <time>2021-05-30T07:19:12Z</time>
      </trkpt>
      <trkpt lat="48.49092" lon="2.61359">
        <ele>86.5</ele>
        <time>2021-05-30T07:19:22Z</time>
      </trkpt>
      <trkpt lat="48.49083" lon="2.61352">
        <ele>86.4</ele>
        <time>2021-05-30T07:19:24Z</time>
      </trkpt>
      <trkpt lat="48.49055" lon="2.61334">
        <ele>84.7</ele>
        <time>2021-05-30T07:19:30Z</time>
      </trkpt>
      <trkpt lat="48.49051" lon="2.61331">
        <ele>84.4</ele>
        <time>2021-05-30T07:19:31Z</time>
      </trkpt>
      <trkpt lat="48.49023" lon="2.61308">
        <ele>82.5</ele>
        <time>2021-05-30T07:19:39Z</time>
      </trkpt>
      <trkpt lat="48.49022" lon="2.61305">
        <ele>82.4</ele>
        <time>2021-05-30T07:19:40Z</time>
      </trkpt>
      <trkpt lat="48.4902" lon="2.61302">
        <ele>82.2</ele>
        <time>2021-05-30T07:19:41Z</time>
      </trkpt>
      <trkpt lat="48.49018" lon="2.61301">
        <ele>82.1</ele>
        <time>2021-05-30T07:19:42Z</time>
      </trkpt>
      <trkpt lat="48.49016" lon="2.61299">
        <ele>81.9</ele>
        <time>2021-05-30T07:19:43Z</time>
      </trkpt>
      <trkpt lat="48.49012" lon="2.61296">
        <ele>81.7</ele>
        <time>2021-05-30T07:19:44Z</time>
      </trkpt>
      <trkpt lat="48.49008" lon="2.61292">
        <ele>81.4</ele>
        <time>2021-05-30T07:19:45Z</time>
      </trkpt>
      <trkpt lat="48.48979" lon="2.61257">
        <ele>79.7</ele>
        <time>2021-05-30T07:19:52Z</time>
      </trkpt>
      <trkpt lat="48.48976" lon="2.61252">
        <ele>79.5</ele>
        <time>2021-05-30T07:19:53Z</time>
      </trkpt>
      <trkpt lat="48.48925" lon="2.61185">
        <ele>76.7</ele>
        <time>2021-05-30T07:20:05Z</time>
      </trkpt>
      <trkpt lat="48.48892" lon="2.61147">
        <ele>76.5</ele>
        <time>2021-05-30T07:20:12Z</time>
      </trkpt>
      <trkpt lat="48.48879" lon="2.61131">
        <ele>76.7</ele>
        <time>2021-05-30T07:20:15Z</time>
      </trkpt>
      <trkpt lat="48.48875" lon="2.61125">
        <ele>76.7</ele>
        <time>2021-05-30T07:20:16Z</time>
      </trkpt>
      <trkpt lat="48.4882" lon="2.61053">
        <ele>77.5</ele>
        <time>2021-05-30T07:20:29Z</time>
      </trkpt>
      <trkpt lat="48.48808" lon="2.61036">
        <ele>77.7</ele>
        <time>2021-05-30T07:20:32Z</time>
      </trkpt>
      <trkpt lat="48.48804" lon="2.6103">
        <ele>77.8</ele>
        <time>2021-05-30T07:20:33Z</time>
      </trkpt>
      <trkpt lat="48.4877" lon="2.60983">
        <ele>78</ele>
        <time>2021-05-30T07:20:42Z</time>
      </trkpt>
      <trkpt lat="48.48716" lon="2.60918">
        <ele>78.4</ele>
        <time>2021-05-30T07:20:55Z</time>
      </trkpt>
      <trkpt lat="48.48711" lon="2.60914">
        <ele>78.4</ele>
        <time>2021-05-30T07:20:56Z</time>
      </trkpt>
      <trkpt lat="48.48637" lon="2.60887">
        <ele>80</ele>
        <time>2021-05-30T07:21:10Z</time>
      </trkpt>
      <trkpt lat="48.48631" lon="2.60884">
        <ele>80.1</ele>
        <time>2021-05-30T07:21:11Z</time>
      </trkpt>
      <trkpt lat="48.48616" lon="2.60876">
        <ele>80.6</ele>
        <time>2021-05-30T07:21:14Z</time>
      </trkpt>
      <trkpt lat="48.48575" lon="2.60844">
        <ele>81.5</ele>
        <time>2021-05-30T07:21:23Z</time>
      </trkpt>
      <trkpt lat="48.48555" lon="2.60832">
        <ele>81.6</ele>
        <time>2021-05-30T07:21:27Z</time>
      </trkpt>
      <trkpt lat="48.48503" lon="2.60804">
        <ele>81.2</ele>
        <time>2021-05-30T07:21:37Z</time>
      </trkpt>
      <trkpt lat="48.48497" lon="2.60802">
        <ele>81</ele>
        <time>2021-05-30T07:21:38Z</time>
      </trkpt>
      <trkpt lat="48.48485" lon="2.60798">
        <ele>80.4</ele>
        <time>2021-05-30T07:21:40Z</time>
      </trkpt>
      <trkpt lat="48.48395" lon="2.60775">
        <ele>77.4</ele>
        <time>2021-05-30T07:21:56Z</time>
      </trkpt>
      <trkpt lat="48.48372" lon="2.60769">
        <ele>77.2</ele>
        <time>2021-05-30T07:22:00Z</time>
      </trkpt>
      <trkpt lat="48.48315" lon="2.60757">
        <ele>77</ele>
        <time>2021-05-30T07:22:11Z</time>
      </trkpt>
      <trkpt lat="48.48245" lon="2.60745">
        <ele>77</ele>
        <time>2021-05-30T07:22:24Z</time>
      </trkpt>
      <trkpt lat="48.48227" lon="2.60737">
        <ele>77</ele>
        <time>2021-05-30T07:22:28Z</time>
      </trkpt>
      <trkpt lat="48.48223" lon="2.60734">
        <ele>77</ele>
        <time>2021-05-30T07:22:29Z</time>
      </trkpt>
      <trkpt lat="48.48218" lon="2.60733">
        <ele>77</ele>
        <time>2021-05-30T07:22:30Z</time>
      </trkpt>
      <trkpt lat="48.48147" lon="2.60707">
        <ele>76.8</ele>
        <time>2021-05-30T07:22:44Z</time>
      </trkpt>
      <trkpt lat="48.48058" lon="2.60681">
        <ele>76.6</ele>
        <time>2021-05-30T07:23:01Z</time>
      </trkpt>
      <trkpt lat="48.47993" lon="2.60672">
        <ele>77.9</ele>
        <time>2021-05-30T07:23:13Z</time>
      </trkpt>
      <trkpt lat="48.47918" lon="2.60668">
        <ele>77</ele>
        <time>2021-05-30T07:23:27Z</time>
      </trkpt>
      <trkpt lat="48.4787" lon="2.60663">
        <ele>77</ele>
        <time>2021-05-30T07:23:36Z</time>
      </trkpt>
      <trkpt lat="48.47795" lon="2.60611">
        <ele>77.9</ele>
        <time>2021-05-30T07:23:51Z</time>
      </trkpt>
      <trkpt lat="48.47723" lon="2.60575">
        <ele>79.2</ele>
        <time>2021-05-30T07:24:05Z</time>
      </trkpt>
      <trkpt lat="48.47696" lon="2.60571">
        <ele>79.3</ele>
        <time>2021-05-30T07:24:10Z</time>
      </trkpt>
      <trkpt lat="48.47596" lon="2.60596">
        <ele>80</ele>
        <time>2021-05-30T07:24:29Z</time>
      </trkpt>
      <trkpt lat="48.47586" lon="2.60599">
        <ele>80</ele>
        <time>2021-05-30T07:24:31Z</time>
      </trkpt>
      <trkpt lat="48.47506" lon="2.60628">
        <ele>80.4</ele>
        <time>2021-05-30T07:24:46Z</time>
      </trkpt>
      <trkpt lat="48.47495" lon="2.60631">
        <ele>80.4</ele>
        <time>2021-05-30T07:24:48Z</time>
      </trkpt>
      <trkpt lat="48.47418" lon="2.60653">
        <ele>80.7</ele>
        <time>2021-05-30T07:25:03Z</time>
      </trkpt>
      <trkpt lat="48.47413" lon="2.60655">
        <ele>80.7</ele>
        <time>2021-05-30T07:25:04Z</time>
      </trkpt>
      <trkpt lat="48.4738" lon="2.60673">
        <ele>81.2</ele>
        <time>2021-05-30T07:25:11Z</time>
      </trkpt>
      <trkpt lat="48.47366" lon="2.6068">
        <ele>81.4</ele>
        <time>2021-05-30T07:25:14Z</time>
      </trkpt>
      <trkpt lat="48.47357" lon="2.60686">
        <ele>81.7</ele>
        <time>2021-05-30T07:25:16Z</time>
      </trkpt>
      <trkpt lat="48.47334" lon="2.60701">
        <ele>82.6</ele>
        <time>2021-05-30T07:25:21Z</time>
      </trkpt>
      <trkpt lat="48.4733" lon="2.60704">
        <ele>83</ele>
        <time>2021-05-30T07:25:22Z</time>
      </trkpt>
      <trkpt lat="48.47283" lon="2.60736">
        <ele>86.9</ele>
        <time>2021-05-30T07:25:34Z</time>
      </trkpt>
      <trkpt lat="48.47273" lon="2.60745">
        <ele>87.8</ele>
        <time>2021-05-30T07:25:37Z</time>
      </trkpt>
      <trkpt lat="48.47243" lon="2.60764">
        <ele>89.3</ele>
        <time>2021-05-30T07:25:45Z</time>
      </trkpt>
      <trkpt lat="48.47239" lon="2.60767">
        <ele>89.3</ele>
        <time>2021-05-30T07:25:46Z</time>
      </trkpt>
      <trkpt lat="48.47235" lon="2.6077">
        <ele>89.2</ele>
        <time>2021-05-30T07:25:47Z</time>
      </trkpt>
      <trkpt lat="48.47231" lon="2.60772">
        <ele>89.1</ele>
        <time>2021-05-30T07:25:48Z</time>
      </trkpt>
      <trkpt lat="48.47227" lon="2.60776">
        <ele>89</ele>
        <time>2021-05-30T07:25:49Z</time>
      </trkpt>
      <trkpt lat="48.4719" lon="2.60832">
        <ele>87.7</ele>
        <time>2021-05-30T07:26:01Z</time>
      </trkpt>
      <trkpt lat="48.47173" lon="2.60895">
        <ele>88.6</ele>
        <time>2021-05-30T07:26:13Z</time>
      </trkpt>
      <trkpt lat="48.47157" lon="2.60914">
        <ele>88.3</ele>
        <time>2021-05-30T07:26:18Z</time>
      </trkpt>
      <trkpt lat="48.47141" lon="2.60927">
        <ele>87.9</ele>
        <time>2021-05-30T07:26:22Z</time>
      </trkpt>
      <trkpt lat="48.47084" lon="2.60947">
        <ele>85.5</ele>
        <time>2021-05-30T07:26:36Z</time>
      </trkpt>
      <trkpt lat="48.47072" lon="2.60947">
        <ele>84.9</ele>
        <time>2021-05-30T07:26:39Z</time>
      </trkpt>
      <trkpt lat="48.47063" lon="2.60945">
        <ele>84.5</ele>
        <time>2021-05-30T07:26:41Z</time>
      </trkpt>
      <trkpt lat="48.47059" lon="2.60945">
        <ele>84.3</ele>
        <time>2021-05-30T07:26:42Z</time>
      </trkpt>
      <trkpt lat="48.47055" lon="2.60944">
        <ele>84.1</ele>
        <time>2021-05-30T07:26:43Z</time>
      </trkpt>
      <trkpt lat="48.47052" lon="2.60944">
        <ele>83.9</ele>
        <time>2021-05-30T07:26:44Z</time>
      </trkpt>
      <trkpt lat="48.47048" lon="2.60943">
        <ele>83.7</ele>
        <time>2021-05-30T07:26:45Z</time>
      </trkpt>
      <trkpt lat="48.47027" lon="2.60934">
        <ele>82.5</ele>
        <time>2021-05-30T07:26:51Z</time>
      </trkpt>
      <trkpt lat="48.4697" lon="2.60891">
        <ele>80.9</ele>
        <time>2021-05-30T07:27:06Z</time>
      </trkpt>
      <trkpt lat="48.46953" lon="2.6089">
        <ele>81</ele>
        <time>2021-05-30T07:27:11Z</time>
      </trkpt>
      <trkpt lat="48.4695" lon="2.60891">
        <ele>81.1</ele>
        <time>2021-05-30T07:27:12Z</time>
      </trkpt>
      <trkpt lat="48.46941" lon="2.60894">
        <ele>81.1</ele>
        <time>2021-05-30T07:27:14Z</time>
      </trkpt>
      <trkpt lat="48.46936" lon="2.60895">
        <ele>81.1</ele>
        <time>2021-05-30T07:27:15Z</time>
      </trkpt>
      <trkpt lat="48.46927" lon="2.60895">
        <ele>81.2</ele>
        <time>2021-05-30T07:27:17Z</time>
      </trkpt>
      <trkpt lat="48.46923" lon="2.60895">
        <ele>81.2</ele>
        <time>2021-05-30T07:27:18Z</time>
      </trkpt>
      <trkpt lat="48.46919" lon="2.60896">
        <ele>81.2</ele>
        <time>2021-05-30T07:27:19Z</time>
      </trkpt>
      <trkpt lat="48.46915" lon="2.60896">
        <ele>81.2</ele>
        <time>2021-05-30T07:27:20Z</time>
      </trkpt>
      <trkpt lat="48.46912" lon="2.60898">
        <ele>81.2</ele>
        <time>2021-05-30T07:27:21Z</time>
      </trkpt>
      <trkpt lat="48.46908" lon="2.609">
        <ele>81.2</ele>
        <time>2021-05-30T07:27:22Z</time>
      </trkpt>
      <trkpt lat="48.46906" lon="2.60903">
        <ele>81.2</ele>
        <time>2021-05-30T07:27:23Z</time>
      </trkpt>
      <trkpt lat="48.46905" lon="2.60908">
        <ele>81.1</ele>
        <time>2021-05-30T07:27:24Z</time>
      </trkpt>
      <trkpt lat="48.46904" lon="2.60915">
        <ele>81</ele>
        <time>2021-05-30T07:27:25Z</time>
      </trkpt>
      <trkpt lat="48.46905" lon="2.60936">
        <ele>81</ele>
        <time>2021-05-30T07:27:28Z</time>
      </trkpt>
      <trkpt lat="48.46904" lon="2.60943">
        <ele>81</ele>
        <time>2021-05-30T07:27:29Z</time>
      </trkpt>
      <trkpt lat="48.46904" lon="2.60972">
        <ele>81</ele>
        <time>2021-05-30T07:27:33Z</time>
      </trkpt>
      <trkpt lat="48.46904" lon="2.60978">
        <ele>81</ele>
        <time>2021-05-30T07:27:34Z</time>
      </trkpt>
      <trkpt lat="48.46902" lon="2.61008">
        <ele>80.9</ele>
        <time>2021-05-30T07:27:39Z</time>
      </trkpt>
      <trkpt lat="48.46902" lon="2.61029">
        <ele>80.7</ele>
        <time>2021-05-30T07:27:42Z</time>
      </trkpt>
      <trkpt lat="48.46901" lon="2.61035">
        <ele>80.7</ele>
        <time>2021-05-30T07:27:43Z</time>
      </trkpt>
      <trkpt lat="48.46901" lon="2.61069">
        <ele>80.3</ele>
        <time>2021-05-30T07:27:51Z</time>
      </trkpt>
      <trkpt lat="48.469" lon="2.61071">
        <ele>80.3</ele>
        <time>2021-05-30T07:27:53Z</time>
      </trkpt>
      <trkpt lat="48.46898" lon="2.61073">
        <ele>80.3</ele>
        <time>2021-05-30T07:27:54Z</time>
      </trkpt>
      <trkpt lat="48.46896" lon="2.61073">
        <ele>80.3</ele>
        <time>2021-05-30T07:27:55Z</time>
      </trkpt>
      <trkpt lat="48.46894" lon="2.61073">
        <ele>80.4</ele>
        <time>2021-05-30T07:27:56Z</time>
      </trkpt>
      <trkpt lat="48.46892" lon="2.61073">
        <ele>80.4</ele>
        <time>2021-05-30T07:27:57Z</time>
      </trkpt>
      <trkpt lat="48.46888" lon="2.61073">
        <ele>80.4</ele>
        <time>2021-05-30T07:27:58Z</time>
      </trkpt>
      <trkpt lat="48.46885" lon="2.61072">
        <ele>80.5</ele>
        <time>2021-05-30T07:27:59Z</time>
      </trkpt>
      <trkpt lat="48.46845" lon="2.61061">
        <ele>80.9</ele>
        <time>2021-05-30T07:28:11Z</time>
      </trkpt>
      <trkpt lat="48.468" lon="2.61048">
        <ele>80.7</ele>
        <time>2021-05-30T07:28:23Z</time>
      </trkpt>
      <trkpt lat="48.46789" lon="2.61045">
        <ele>80.5</ele>
        <time>2021-05-30T07:28:26Z</time>
      </trkpt>
      <trkpt lat="48.46784" lon="2.61043">
        <ele>80.4</ele>
        <time>2021-05-30T07:28:27Z</time>
      </trkpt>
      <trkpt lat="48.4678" lon="2.61041">
        <ele>80.4</ele>
        <time>2021-05-30T07:28:28Z</time>
      </trkpt>
      <trkpt lat="48.46729" lon="2.61014">
        <ele>79.7</ele>
        <time>2021-05-30T07:28:42Z</time>
      </trkpt>
      <trkpt lat="48.46667" lon="2.60972">
        <ele>81.7</ele>
        <time>2021-05-30T07:28:59Z</time>
      </trkpt>
      <trkpt lat="48.46637" lon="2.60953">
        <ele>81.6</ele>
        <time>2021-05-30T07:29:07Z</time>
      </trkpt>
      <trkpt lat="48.46634" lon="2.6095">
        <ele>81.6</ele>
        <time>2021-05-30T07:29:08Z</time>
      </trkpt>
      <trkpt lat="48.46604" lon="2.60944">
        <ele>81.1</ele>
        <time>2021-05-30T07:29:19Z</time>
      </trkpt>
      <trkpt lat="48.46603" lon="2.60946">
        <ele>81</ele>
        <time>2021-05-30T07:29:20Z</time>
      </trkpt>
      <trkpt lat="48.46602" lon="2.6095">
        <ele>81</ele>
        <time>2021-05-30T07:29:21Z</time>
      </trkpt>
      <trkpt lat="48.46601" lon="2.60955">
        <ele>80.9</ele>
        <time>2021-05-30T07:29:22Z</time>
      </trkpt>
      <trkpt lat="48.46598" lon="2.60967">
        <ele>80.6</ele>
        <time>2021-05-30T07:29:24Z</time>
      </trkpt>
      <trkpt lat="48.46596" lon="2.6099">
        <ele>80.3</ele>
        <time>2021-05-30T07:29:27Z</time>
      </trkpt>
      <trkpt lat="48.46571" lon="2.61114">
        <ele>79.6</ele>
        <time>2021-05-30T07:29:44Z</time>
      </trkpt>
      <trkpt lat="48.46556" lon="2.61169">
        <ele>79.3</ele>
        <time>2021-05-30T07:29:52Z</time>
      </trkpt>
      <trkpt lat="48.46556" lon="2.61175">
        <ele>79.4</ele>
        <time>2021-05-30T07:29:53Z</time>
      </trkpt>
      <trkpt lat="48.46556" lon="2.61181">
        <ele>79.4</ele>
        <time>2021-05-30T07:29:54Z</time>
      </trkpt>
      <trkpt lat="48.46556" lon="2.61187">
        <ele>79.4</ele>
        <time>2021-05-30T07:29:55Z</time>
      </trkpt>
      <trkpt lat="48.46557" lon="2.61193">
        <ele>79.4</ele>
        <time>2021-05-30T07:29:56Z</time>
      </trkpt>
      <trkpt lat="48.46579" lon="2.61277">
        <ele>79.4</ele>
        <time>2021-05-30T07:30:09Z</time>
      </trkpt>
      <trkpt lat="48.4658" lon="2.61291">
        <ele>79.5</ele>
        <time>2021-05-30T07:30:11Z</time>
      </trkpt>
      <trkpt lat="48.4658" lon="2.61297">
        <ele>79.6</ele>
        <time>2021-05-30T07:30:12Z</time>
      </trkpt>
      <trkpt lat="48.46581" lon="2.61304">
        <ele>79.7</ele>
        <time>2021-05-30T07:30:13Z</time>
      </trkpt>
      <trkpt lat="48.46582" lon="2.61367">
        <ele>79.6</ele>
        <time>2021-05-30T07:30:22Z</time>
      </trkpt>
      <trkpt lat="48.46582" lon="2.61374">
        <ele>79.5</ele>
        <time>2021-05-30T07:30:23Z</time>
      </trkpt>
      <trkpt lat="48.46581" lon="2.6138">
        <ele>79.4</ele>
        <time>2021-05-30T07:30:24Z</time>
      </trkpt>
      <trkpt lat="48.4658" lon="2.61387">
        <ele>79.3</ele>
        <time>2021-05-30T07:30:25Z</time>
      </trkpt>
      <trkpt lat="48.46578" lon="2.61393">
        <ele>79.3</ele>
        <time>2021-05-30T07:30:26Z</time>
      </trkpt>
      <trkpt lat="48.46575" lon="2.61399">
        <ele>79.2</ele>
        <time>2021-05-30T07:30:27Z</time>
      </trkpt>
      <trkpt lat="48.46572" lon="2.61405">
        <ele>79.1</ele>
        <time>2021-05-30T07:30:28Z</time>
      </trkpt>
      <trkpt lat="48.46519" lon="2.61501">
        <ele>80</ele>
        <time>2021-05-30T07:30:45Z</time>
      </trkpt>
      <trkpt lat="48.46482" lon="2.61599">
        <ele>81.2</ele>
        <time>2021-05-30T07:31:00Z</time>
      </trkpt>
      <trkpt lat="48.46462" lon="2.61723">
        <ele>81.7</ele>
        <time>2021-05-30T07:31:17Z</time>
      </trkpt>
      <trkpt lat="48.46449" lon="2.6183">
        <ele>80.4</ele>
        <time>2021-05-30T07:31:31Z</time>
      </trkpt>
      <trkpt lat="48.46439" lon="2.61914">
        <ele>78.1</ele>
        <time>2021-05-30T07:31:42Z</time>
      </trkpt>
      <trkpt lat="48.46436" lon="2.62041">
        <ele>79.2</ele>
        <time>2021-05-30T07:31:58Z</time>
      </trkpt>
      <trkpt lat="48.46435" lon="2.62106">
        <ele>80.8</ele>
        <time>2021-05-30T07:32:06Z</time>
      </trkpt>
      <trkpt lat="48.46435" lon="2.62113">
        <ele>80.9</ele>
        <time>2021-05-30T07:32:07Z</time>
      </trkpt>
      <trkpt lat="48.46434" lon="2.62128">
        <ele>81.2</ele>
        <time>2021-05-30T07:32:09Z</time>
      </trkpt>
      <trkpt lat="48.46434" lon="2.62166">
        <ele>81.8</ele>
        <time>2021-05-30T07:32:14Z</time>
      </trkpt>
      <trkpt lat="48.46433" lon="2.62206">
        <ele>82.1</ele>
        <time>2021-05-30T07:32:19Z</time>
      </trkpt>
      <trkpt lat="48.46432" lon="2.62214">
        <ele>82.1</ele>
        <time>2021-05-30T07:32:20Z</time>
      </trkpt>
      <trkpt lat="48.46431" lon="2.62222">
        <ele>82.2</ele>
        <time>2021-05-30T07:32:21Z</time>
      </trkpt>
      <trkpt lat="48.46428" lon="2.6231">
        <ele>82.9</ele>
        <time>2021-05-30T07:32:31Z</time>
      </trkpt>
      <trkpt lat="48.46427" lon="2.62337">
        <ele>83.1</ele>
        <time>2021-05-30T07:32:34Z</time>
      </trkpt>
      <trkpt lat="48.46423" lon="2.62458">
        <ele>82.6</ele>
        <time>2021-05-30T07:32:49Z</time>
      </trkpt>
      <trkpt lat="48.46422" lon="2.62505">
        <ele>82.1</ele>
        <time>2021-05-30T07:32:55Z</time>
      </trkpt>
      <trkpt lat="48.46423" lon="2.62518">
        <ele>82.1</ele>
        <time>2021-05-30T07:32:57Z</time>
      </trkpt>
      <trkpt lat="48.46421" lon="2.62559">
        <ele>82</ele>
        <time>2021-05-30T07:33:03Z</time>
      </trkpt>
      <trkpt lat="48.4642" lon="2.62567">
        <ele>82</ele>
        <time>2021-05-30T07:33:04Z</time>
      </trkpt>
      <trkpt lat="48.46419" lon="2.62574">
        <ele>82</ele>
        <time>2021-05-30T07:33:05Z</time>
      </trkpt>
      <trkpt lat="48.46416" lon="2.62603">
        <ele>82</ele>
        <time>2021-05-30T07:33:09Z</time>
      </trkpt>
      <trkpt lat="48.46415" lon="2.6261">
        <ele>82</ele>
        <time>2021-05-30T07:33:10Z</time>
      </trkpt>
      <trkpt lat="48.46403" lon="2.62656">
        <ele>81.7</ele>
        <time>2021-05-30T07:33:20Z</time>
      </trkpt>
      <trkpt lat="48.46402" lon="2.62659">
        <ele>81.7</ele>
        <time>2021-05-30T07:33:21Z</time>
      </trkpt>
      <trkpt lat="48.46401" lon="2.62683">
        <ele>81.6</ele>
        <time>2021-05-30T07:33:26Z</time>
      </trkpt>
      <trkpt lat="48.464" lon="2.62689">
        <ele>81.6</ele>
        <time>2021-05-30T07:33:27Z</time>
      </trkpt>
      <trkpt lat="48.46398" lon="2.62702">
        <ele>81.6</ele>
        <time>2021-05-30T07:33:29Z</time>
      </trkpt>
      <trkpt lat="48.46397" lon="2.6271">
        <ele>81.5</ele>
        <time>2021-05-30T07:33:30Z</time>
      </trkpt>
      <trkpt lat="48.46389" lon="2.62763">
        <ele>81.4</ele>
        <time>2021-05-30T07:33:37Z</time>
      </trkpt>
      <trkpt lat="48.46377" lon="2.62873">
        <ele>82.2</ele>
        <time>2021-05-30T07:33:52Z</time>
      </trkpt>
      <trkpt lat="48.46367" lon="2.62954">
        <ele>82.4</ele>
        <time>2021-05-30T07:34:04Z</time>
      </trkpt>
      <trkpt lat="48.46366" lon="2.6296">
        <ele>82.3</ele>
        <time>2021-05-30T07:34:05Z</time>
      </trkpt>
      <trkpt lat="48.46356" lon="2.6305">
        <ele>82.4</ele>
        <time>2021-05-30T07:34:18Z</time>
      </trkpt>
      <trkpt lat="48.46345" lon="2.63136">
        <ele>84.5</ele>
        <time>2021-05-30T07:34:31Z</time>
      </trkpt>
      <trkpt lat="48.46345" lon="2.63142">
        <ele>84.7</ele>
        <time>2021-05-30T07:34:32Z</time>
      </trkpt>
      <trkpt lat="48.46345" lon="2.63149">
        <ele>84.9</ele>
        <time>2021-05-30T07:34:33Z</time>
      </trkpt>
      <trkpt lat="48.46345" lon="2.63155">
        <ele>85.1</ele>
        <time>2021-05-30T07:34:34Z</time>
      </trkpt>
      <trkpt lat="48.46345" lon="2.63161">
        <ele>85.3</ele>
        <time>2021-05-30T07:34:35Z</time>
      </trkpt>
      <trkpt lat="48.46343" lon="2.63197">
        <ele>85.5</ele>
        <time>2021-05-30T07:34:41Z</time>
      </trkpt>
      <trkpt lat="48.46342" lon="2.63219">
        <ele>85.5</ele>
        <time>2021-05-30T07:34:44Z</time>
      </trkpt>
      <trkpt lat="48.46343" lon="2.63227">
        <ele>85.5</ele>
        <time>2021-05-30T07:34:45Z</time>
      </trkpt>
      <trkpt lat="48.46342" lon="2.63234">
        <ele>85.5</ele>
        <time>2021-05-30T07:34:46Z</time>
      </trkpt>
      <trkpt lat="48.46342" lon="2.63241">
        <ele>85.5</ele>
        <time>2021-05-30T07:34:47Z</time>
      </trkpt>
      <trkpt lat="48.46341" lon="2.63248">
        <ele>85.5</ele>
        <time>2021-05-30T07:34:48Z</time>
      </trkpt>
      <trkpt lat="48.4634" lon="2.63263">
        <ele>86.1</ele>
        <time>2021-05-30T07:34:50Z</time>
      </trkpt>
      <trkpt lat="48.46341" lon="2.63298">
        <ele>87.3</ele>
        <time>2021-05-30T07:34:57Z</time>
      </trkpt>
      <trkpt lat="48.46343" lon="2.63304">
        <ele>87.4</ele>
        <time>2021-05-30T07:34:58Z</time>
      </trkpt>
      <trkpt lat="48.46344" lon="2.6331">
        <ele>87.6</ele>
        <time>2021-05-30T07:34:59Z</time>
      </trkpt>
      <trkpt lat="48.46359" lon="2.63397">
        <ele>89.6</ele>
        <time>2021-05-30T07:35:11Z</time>
      </trkpt>
      <trkpt lat="48.4636" lon="2.63404">
        <ele>89.7</ele>
        <time>2021-05-30T07:35:12Z</time>
      </trkpt>
      <trkpt lat="48.46371" lon="2.63458">
        <ele>90.3</ele>
        <time>2021-05-30T07:35:20Z</time>
      </trkpt>
      <trkpt lat="48.46375" lon="2.63491">
        <ele>90.8</ele>
        <time>2021-05-30T07:35:25Z</time>
      </trkpt>
      <trkpt lat="48.46375" lon="2.63497">
        <ele>91</ele>
        <time>2021-05-30T07:35:26Z</time>
      </trkpt>
      <trkpt lat="48.46374" lon="2.63504">
        <ele>91</ele>
        <time>2021-05-30T07:35:27Z</time>
      </trkpt>
      <trkpt lat="48.46371" lon="2.63545">
        <ele>91.4</ele>
        <time>2021-05-30T07:35:33Z</time>
      </trkpt>
      <trkpt lat="48.46369" lon="2.63565">
        <ele>91.6</ele>
        <time>2021-05-30T07:35:36Z</time>
      </trkpt>
      <trkpt lat="48.46369" lon="2.63571">
        <ele>91.6</ele>
        <time>2021-05-30T07:35:37Z</time>
      </trkpt>
      <trkpt lat="48.4637" lon="2.63591">
        <ele>91.9</ele>
        <time>2021-05-30T07:35:40Z</time>
      </trkpt>
      <trkpt lat="48.46372" lon="2.63597">
        <ele>92.1</ele>
        <time>2021-05-30T07:35:41Z</time>
      </trkpt>
      <trkpt lat="48.46376" lon="2.6361">
        <ele>92.5</ele>
        <time>2021-05-30T07:35:43Z</time>
      </trkpt>
      <trkpt lat="48.46378" lon="2.63615">
        <ele>92.7</ele>
        <time>2021-05-30T07:35:44Z</time>
      </trkpt>
      <trkpt lat="48.46381" lon="2.6362">
        <ele>93</ele>
        <time>2021-05-30T07:35:45Z</time>
      </trkpt>
      <trkpt lat="48.46383" lon="2.63625">
        <ele>93.2</ele>
        <time>2021-05-30T07:35:46Z</time>
      </trkpt>
      <trkpt lat="48.46386" lon="2.63631">
        <ele>93.4</ele>
        <time>2021-05-30T07:35:47Z</time>
      </trkpt>
      <trkpt lat="48.46395" lon="2.63654">
        <ele>94.5</ele>
        <time>2021-05-30T07:35:51Z</time>
      </trkpt>
      <trkpt lat="48.46406" lon="2.63698">
        <ele>96.2</ele>
        <time>2021-05-30T07:35:58Z</time>
      </trkpt>
      <trkpt lat="48.46408" lon="2.63704">
        <ele>96.4</ele>
        <time>2021-05-30T07:35:59Z</time>
      </trkpt>
      <trkpt lat="48.4641" lon="2.63711">
        <ele>96.7</ele>
        <time>2021-05-30T07:36:00Z</time>
      </trkpt>
      <trkpt lat="48.46411" lon="2.63718">
        <ele>96.9</ele>
        <time>2021-05-30T07:36:01Z</time>
      </trkpt>
      <trkpt lat="48.46412" lon="2.63726">
        <ele>97.2</ele>
        <time>2021-05-30T07:36:02Z</time>
      </trkpt>
      <trkpt lat="48.46413" lon="2.63733">
        <ele>97.4</ele>
        <time>2021-05-30T07:36:03Z</time>
      </trkpt>
      <trkpt lat="48.46415" lon="2.63739">
        <ele>97.6</ele>
        <time>2021-05-30T07:36:04Z</time>
      </trkpt>
      <trkpt lat="48.46416" lon="2.63745">
        <ele>97.8</ele>
        <time>2021-05-30T07:36:05Z</time>
      </trkpt>
      <trkpt lat="48.46418" lon="2.63759">
        <ele>98.1</ele>
        <time>2021-05-30T07:36:07Z</time>
      </trkpt>
      <trkpt lat="48.46426" lon="2.63821">
        <ele>98.9</ele>
        <time>2021-05-30T07:36:16Z</time>
      </trkpt>
      <trkpt lat="48.46427" lon="2.63828">
        <ele>98.9</ele>
        <time>2021-05-30T07:36:17Z</time>
      </trkpt>
      <trkpt lat="48.46428" lon="2.63834">
        <ele>99</ele>
        <time>2021-05-30T07:36:18Z</time>
      </trkpt>
      <trkpt lat="48.46433" lon="2.6386">
        <ele>99.6</ele>
        <time>2021-05-30T07:36:22Z</time>
      </trkpt>
      <trkpt lat="48.46433" lon="2.63867">
        <ele>99.7</ele>
        <time>2021-05-30T07:36:23Z</time>
      </trkpt>
      <trkpt lat="48.4643" lon="2.63899">
        <ele>100.4</ele>
        <time>2021-05-30T07:36:28Z</time>
      </trkpt>
      <trkpt lat="48.46404" lon="2.63958">
        <ele>102.1</ele>
        <time>2021-05-30T07:36:38Z</time>
      </trkpt>
      <trkpt lat="48.46382" lon="2.64007">
        <ele>103.4</ele>
        <time>2021-05-30T07:36:47Z</time>
      </trkpt>
      <trkpt lat="48.46356" lon="2.6406">
        <ele>104.1</ele>
        <time>2021-05-30T07:36:57Z</time>
      </trkpt>
      <trkpt lat="48.46348" lon="2.64078">
        <ele>104.4</ele>
        <time>2021-05-30T07:37:00Z</time>
      </trkpt>
      <trkpt lat="48.46345" lon="2.64084">
        <ele>104.6</ele>
        <time>2021-05-30T07:37:01Z</time>
      </trkpt>
      <trkpt lat="48.46343" lon="2.64089">
        <ele>104.5</ele>
        <time>2021-05-30T07:37:02Z</time>
      </trkpt>
      <trkpt lat="48.46341" lon="2.64094">
        <ele>104.4</ele>
        <time>2021-05-30T07:37:03Z</time>
      </trkpt>
      <trkpt lat="48.46339" lon="2.64099">
        <ele>104.3</ele>
        <time>2021-05-30T07:37:04Z</time>
      </trkpt>
      <trkpt lat="48.46325" lon="2.6413">
        <ele>103.5</ele>
        <time>2021-05-30T07:37:09Z</time>
      </trkpt>
      <trkpt lat="48.46322" lon="2.64137">
        <ele>103.3</ele>
        <time>2021-05-30T07:37:10Z</time>
      </trkpt>
      <trkpt lat="48.46293" lon="2.64199">
        <ele>103.5</ele>
        <time>2021-05-30T07:37:20Z</time>
      </trkpt>
      <trkpt lat="48.46273" lon="2.64246">
        <ele>103.8</ele>
        <time>2021-05-30T07:37:28Z</time>
      </trkpt>
      <trkpt lat="48.46251" lon="2.64295">
        <ele>104</ele>
        <time>2021-05-30T07:37:37Z</time>
      </trkpt>
      <trkpt lat="48.46239" lon="2.64319">
        <ele>103.7</ele>
        <time>2021-05-30T07:37:41Z</time>
      </trkpt>
      <trkpt lat="48.46236" lon="2.64326">
        <ele>103.5</ele>
        <time>2021-05-30T07:37:42Z</time>
      </trkpt>
      <trkpt lat="48.46201" lon="2.64404">
        <ele>100</ele>
        <time>2021-05-30T07:37:54Z</time>
      </trkpt>
      <trkpt lat="48.46172" lon="2.64467">
        <ele>98.8</ele>
        <time>2021-05-30T07:38:04Z</time>
      </trkpt>
      <trkpt lat="48.4616" lon="2.64491">
        <ele>99.4</ele>
        <time>2021-05-30T07:38:08Z</time>
      </trkpt>
      <trkpt lat="48.4615" lon="2.64517">
        <ele>100.3</ele>
        <time>2021-05-30T07:38:12Z</time>
      </trkpt>
      <trkpt lat="48.46147" lon="2.64524">
        <ele>100.4</ele>
        <time>2021-05-30T07:38:13Z</time>
      </trkpt>
      <trkpt lat="48.46135" lon="2.64568">
        <ele>100.9</ele>
        <time>2021-05-30T07:38:19Z</time>
      </trkpt>
      <trkpt lat="48.46132" lon="2.64583">
        <ele>100.8</ele>
        <time>2021-05-30T07:38:21Z</time>
      </trkpt>
      <trkpt lat="48.46127" lon="2.64639">
        <ele>101</ele>
        <time>2021-05-30T07:38:28Z</time>
      </trkpt>
      <trkpt lat="48.46127" lon="2.64656">
        <ele>100.9</ele>
        <time>2021-05-30T07:38:30Z</time>
      </trkpt>
      <trkpt lat="48.46133" lon="2.64745">
        <ele>98.4</ele>
        <time>2021-05-30T07:38:42Z</time>
      </trkpt>
      <trkpt lat="48.46133" lon="2.64753">
        <ele>98.2</ele>
        <time>2021-05-30T07:38:43Z</time>
      </trkpt>
      <trkpt lat="48.46132" lon="2.64761">
        <ele>98</ele>
        <time>2021-05-30T07:38:44Z</time>
      </trkpt>
      <trkpt lat="48.46132" lon="2.64769">
        <ele>97.9</ele>
        <time>2021-05-30T07:38:45Z</time>
      </trkpt>
      <trkpt lat="48.46131" lon="2.64777">
        <ele>97.8</ele>
        <time>2021-05-30T07:38:46Z</time>
      </trkpt>
      <trkpt lat="48.4613" lon="2.64799">
        <ele>97.4</ele>
        <time>2021-05-30T07:38:49Z</time>
      </trkpt>
      <trkpt lat="48.4613" lon="2.64807">
        <ele>97.3</ele>
        <time>2021-05-30T07:38:50Z</time>
      </trkpt>
      <trkpt lat="48.4613" lon="2.64815">
        <ele>97.1</ele>
        <time>2021-05-30T07:38:51Z</time>
      </trkpt>
      <trkpt lat="48.4613" lon="2.64823">
        <ele>96.9</ele>
        <time>2021-05-30T07:38:52Z</time>
      </trkpt>
      <trkpt lat="48.4613" lon="2.64831">
        <ele>96.8</ele>
        <time>2021-05-30T07:38:53Z</time>
      </trkpt>
      <trkpt lat="48.46128" lon="2.64891">
        <ele>96.8</ele>
        <time>2021-05-30T07:39:00Z</time>
      </trkpt>
      <trkpt lat="48.46128" lon="2.6494">
        <ele>98</ele>
        <time>2021-05-30T07:39:06Z</time>
      </trkpt>
      <trkpt lat="48.46128" lon="2.64947">
        <ele>98.3</ele>
        <time>2021-05-30T07:39:07Z</time>
      </trkpt>
      <trkpt lat="48.4613" lon="2.64994">
        <ele>100.6</ele>
        <time>2021-05-30T07:39:13Z</time>
      </trkpt>
      <trkpt lat="48.46133" lon="2.65052">
        <ele>102.5</ele>
        <time>2021-05-30T07:39:23Z</time>
      </trkpt>
      <trkpt lat="48.46129" lon="2.6506">
        <ele>102.8</ele>
        <time>2021-05-30T07:39:25Z</time>
      </trkpt>
      <trkpt lat="48.46126" lon="2.65062">
        <ele>102.9</ele>
        <time>2021-05-30T07:39:26Z</time>
      </trkpt>
      <trkpt lat="48.46088" lon="2.65085">
        <ele>103.1</ele>
        <time>2021-05-30T07:39:38Z</time>
      </trkpt>
      <trkpt lat="48.46058" lon="2.65104">
        <ele>104.9</ele>
        <time>2021-05-30T07:39:49Z</time>
      </trkpt>
      <trkpt lat="48.46023" lon="2.65124">
        <ele>107.3</ele>
        <time>2021-05-30T07:40:02Z</time>
      </trkpt>
      <trkpt lat="48.45989" lon="2.65143">
        <ele>110.4</ele>
        <time>2021-05-30T07:40:15Z</time>
      </trkpt>
      <trkpt lat="48.45964" lon="2.65156">
        <ele>113.9</ele>
        <time>2021-05-30T07:40:26Z</time>
      </trkpt>
      <trkpt lat="48.4595" lon="2.6516">
        <ele>115.7</ele>
        <time>2021-05-30T07:40:32Z</time>
      </trkpt>
      <trkpt lat="48.45947" lon="2.65159">
        <ele>116.2</ele>
        <time>2021-05-30T07:40:33Z</time>
      </trkpt>
      <trkpt lat="48.45944" lon="2.6516">
        <ele>116.5</ele>
        <time>2021-05-30T07:40:34Z</time>
      </trkpt>
      <trkpt lat="48.45942" lon="2.6516">
        <ele>116.8</ele>
        <time>2021-05-30T07:40:35Z</time>
      </trkpt>
      <trkpt lat="48.4594" lon="2.6516">
        <ele>117.1</ele>
        <time>2021-05-30T07:40:36Z</time>
      </trkpt>
      <trkpt lat="48.45933" lon="2.65162">
        <ele>118</ele>
        <time>2021-05-30T07:40:40Z</time>
      </trkpt>
      <trkpt lat="48.45931" lon="2.65161">
        <ele>118.2</ele>
        <time>2021-05-30T07:40:41Z</time>
      </trkpt>
      <trkpt lat="48.4593" lon="2.65161">
        <ele>118.5</ele>
        <time>2021-05-30T07:40:42Z</time>
      </trkpt>
      <trkpt lat="48.45928" lon="2.65161">
        <ele>118.7</ele>
        <time>2021-05-30T07:40:43Z</time>
      </trkpt>
      <trkpt lat="48.45926" lon="2.65162">
        <ele>119</ele>
        <time>2021-05-30T07:40:44Z</time>
      </trkpt>
      <trkpt lat="48.45903" lon="2.65167">
        <ele>121.7</ele>
        <time>2021-05-30T07:40:56Z</time>
      </trkpt>
      <trkpt lat="48.45877" lon="2.65175">
        <ele>124.7</ele>
        <time>2021-05-30T07:41:09Z</time>
      </trkpt>
      <trkpt lat="48.45856" lon="2.6518">
        <ele>127</ele>
        <time>2021-05-30T07:41:18Z</time>
      </trkpt>
      <trkpt lat="48.4583" lon="2.65185">
        <ele>129.7</ele>
        <time>2021-05-30T07:41:31Z</time>
      </trkpt>
      <trkpt lat="48.45827" lon="2.65185">
        <ele>129.7</ele>
        <time>2021-05-30T07:41:32Z</time>
      </trkpt>
      <trkpt lat="48.45825" lon="2.65186">
        <ele>129.8</ele>
        <time>2021-05-30T07:41:33Z</time>
      </trkpt>
      <trkpt lat="48.45823" lon="2.65187">
        <ele>129.8</ele>
        <time>2021-05-30T07:41:34Z</time>
      </trkpt>
      <trkpt lat="48.45821" lon="2.65188">
        <ele>129.9</ele>
        <time>2021-05-30T07:41:35Z</time>
      </trkpt>
      <trkpt lat="48.45819" lon="2.65189">
        <ele>129.9</ele>
        <time>2021-05-30T07:41:36Z</time>
      </trkpt>
      <trkpt lat="48.45817" lon="2.65189">
        <ele>130</ele>
        <time>2021-05-30T07:41:37Z</time>
      </trkpt>
      <trkpt lat="48.45797" lon="2.65208">
        <ele>130.3</ele>
        <time>2021-05-30T07:41:49Z</time>
      </trkpt>
      <trkpt lat="48.45783" lon="2.65232">
        <ele>130.6</ele>
        <time>2021-05-30T07:42:00Z</time>
      </trkpt>
      <trkpt lat="48.45768" lon="2.65263">
        <ele>131.1</ele>
        <time>2021-05-30T07:42:12Z</time>
      </trkpt>
      <trkpt lat="48.45769" lon="2.65266">
        <ele>131.1</ele>
        <time>2021-05-30T07:42:13Z</time>
      </trkpt>
      <trkpt lat="48.45769" lon="2.65269">
        <ele>131.1</ele>
        <time>2021-05-30T07:42:14Z</time>
      </trkpt>
      <trkpt lat="48.4577" lon="2.65271">
        <ele>131</ele>
        <time>2021-05-30T07:42:15Z</time>
      </trkpt>
      <trkpt lat="48.4577" lon="2.65274">
        <ele>131</ele>
        <time>2021-05-30T07:42:16Z</time>
      </trkpt>
      <trkpt lat="48.45788" lon="2.65322">
        <ele>130.9</ele>
        <time>2021-05-30T07:42:28Z</time>
      </trkpt>
      <trkpt lat="48.45801" lon="2.65333">
        <ele>131</ele>
        <time>2021-05-30T07:42:33Z</time>
      </trkpt>
      <trkpt lat="48.45802" lon="2.65335">
        <ele>131</ele>
        <time>2021-05-30T07:42:34Z</time>
      </trkpt>
      <trkpt lat="48.45819" lon="2.65345">
        <ele>131</ele>
        <time>2021-05-30T07:42:43Z</time>
      </trkpt>
      <trkpt lat="48.45819" lon="2.65345">
        <ele>131</ele>
        <time>2021-05-30T07:42:44Z</time>
      </trkpt>
      <trkpt lat="48.45822" lon="2.65345">
        <ele>131</ele>
        <time>2021-05-30T07:42:45Z</time>
      </trkpt>
      <trkpt lat="48.45826" lon="2.65344">
        <ele>131</ele>
        <time>2021-05-30T07:42:46Z</time>
      </trkpt>
      <trkpt lat="48.4583" lon="2.65343">
        <ele>131</ele>
        <time>2021-05-30T07:42:47Z</time>
      </trkpt>
      <trkpt lat="48.45833" lon="2.65343">
        <ele>131</ele>
        <time>2021-05-30T07:42:48Z</time>
      </trkpt>
      <trkpt lat="48.45859" lon="2.6534">
        <ele>130.4</ele>
        <time>2021-05-30T07:42:56Z</time>
      </trkpt>
      <trkpt lat="48.45901" lon="2.6534">
        <ele>129.5</ele>
        <time>2021-05-30T07:43:07Z</time>
      </trkpt>
      <trkpt lat="48.45941" lon="2.65369">
        <ele>127.5</ele>
        <time>2021-05-30T07:43:18Z</time>
      </trkpt>
      <trkpt lat="48.45953" lon="2.65413">
        <ele>127.8</ele>
        <time>2021-05-30T07:43:28Z</time>
      </trkpt>
      <trkpt lat="48.4595" lon="2.65424">
        <ele>128.2</ele>
        <time>2021-05-30T07:43:30Z</time>
      </trkpt>
      <trkpt lat="48.45946" lon="2.65494">
        <ele>128.4</ele>
        <time>2021-05-30T07:43:43Z</time>
      </trkpt>
      <trkpt lat="48.45935" lon="2.65544">
        <ele>128.2</ele>
        <time>2021-05-30T07:43:53Z</time>
      </trkpt>
      <trkpt lat="48.45904" lon="2.6561">
        <ele>129.3</ele>
        <time>2021-05-30T07:44:06Z</time>
      </trkpt>
      <trkpt lat="48.45881" lon="2.65658">
        <ele>128.9</ele>
        <time>2021-05-30T07:44:16Z</time>
      </trkpt>
      <trkpt lat="48.45858" lon="2.65706">
        <ele>128.1</ele>
        <time>2021-05-30T07:44:25Z</time>
      </trkpt>
      <trkpt lat="48.45848" lon="2.65721">
        <ele>128.4</ele>
        <time>2021-05-30T07:44:28Z</time>
      </trkpt>
      <trkpt lat="48.45844" lon="2.65724">
        <ele>128.7</ele>
        <time>2021-05-30T07:44:29Z</time>
      </trkpt>
      <trkpt lat="48.45839" lon="2.65727">
        <ele>129.1</ele>
        <time>2021-05-30T07:44:30Z</time>
      </trkpt>
      <trkpt lat="48.45813" lon="2.65736">
        <ele>129.5</ele>
        <time>2021-05-30T07:44:35Z</time>
      </trkpt>
      <trkpt lat="48.45804" lon="2.65738">
        <ele>129.4</ele>
        <time>2021-05-30T07:44:37Z</time>
      </trkpt>
      <trkpt lat="48.45798" lon="2.6574">
        <ele>129.3</ele>
        <time>2021-05-30T07:44:38Z</time>
      </trkpt>
      <trkpt lat="48.45793" lon="2.65741">
        <ele>129.3</ele>
        <time>2021-05-30T07:44:39Z</time>
      </trkpt>
      <trkpt lat="48.45768" lon="2.65748">
        <ele>129.1</ele>
        <time>2021-05-30T07:44:44Z</time>
      </trkpt>
      <trkpt lat="48.45714" lon="2.65775">
        <ele>128.9</ele>
        <time>2021-05-30T07:44:56Z</time>
      </trkpt>
      <trkpt lat="48.45702" lon="2.65781">
        <ele>129.1</ele>
        <time>2021-05-30T07:44:59Z</time>
      </trkpt>
      <trkpt lat="48.45694" lon="2.65786">
        <ele>129.2</ele>
        <time>2021-05-30T07:45:01Z</time>
      </trkpt>
      <trkpt lat="48.4569" lon="2.6579">
        <ele>129.3</ele>
        <time>2021-05-30T07:45:02Z</time>
      </trkpt>
      <trkpt lat="48.45687" lon="2.65795">
        <ele>129.4</ele>
        <time>2021-05-30T07:45:03Z</time>
      </trkpt>
      <trkpt lat="48.45683" lon="2.65799">
        <ele>129.4</ele>
        <time>2021-05-30T07:45:04Z</time>
      </trkpt>
      <trkpt lat="48.4568" lon="2.65805">
        <ele>129.5</ele>
        <time>2021-05-30T07:45:05Z</time>
      </trkpt>
      <trkpt lat="48.45677" lon="2.65811">
        <ele>129.6</ele>
        <time>2021-05-30T07:45:06Z</time>
      </trkpt>
      <trkpt lat="48.45674" lon="2.65817">
        <ele>129.7</ele>
        <time>2021-05-30T07:45:07Z</time>
      </trkpt>
      <trkpt lat="48.45671" lon="2.65823">
        <ele>129.8</ele>
        <time>2021-05-30T07:45:08Z</time>
      </trkpt>
      <trkpt lat="48.45668" lon="2.65829">
        <ele>129.9</ele>
        <time>2021-05-30T07:45:09Z</time>
      </trkpt>
      <trkpt lat="48.45661" lon="2.65847">
        <ele>130.5</ele>
        <time>2021-05-30T07:45:12Z</time>
      </trkpt>
      <trkpt lat="48.45643" lon="2.65916">
        <ele>132.3</ele>
        <time>2021-05-30T07:45:24Z</time>
      </trkpt>
      <trkpt lat="48.45631" lon="2.65977">
        <ele>132.3</ele>
        <time>2021-05-30T07:45:34Z</time>
      </trkpt>
      <trkpt lat="48.45629" lon="2.65983">
        <ele>132.4</ele>
        <time>2021-05-30T07:45:35Z</time>
      </trkpt>
      <trkpt lat="48.4562" lon="2.66012">
        <ele>132.3</ele>
        <time>2021-05-30T07:45:40Z</time>
      </trkpt>
      <trkpt lat="48.45617" lon="2.66017">
        <ele>132.3</ele>
        <time>2021-05-30T07:45:41Z</time>
      </trkpt>
      <trkpt lat="48.45615" lon="2.6602">
        <ele>132.4</ele>
        <time>2021-05-30T07:45:42Z</time>
      </trkpt>
      <trkpt lat="48.45612" lon="2.66023">
        <ele>132.4</ele>
        <time>2021-05-30T07:45:43Z</time>
      </trkpt>
      <trkpt lat="48.45609" lon="2.66026">
        <ele>132.5</ele>
        <time>2021-05-30T07:45:44Z</time>
      </trkpt>
      <trkpt lat="48.45606" lon="2.66028">
        <ele>132.6</ele>
        <time>2021-05-30T07:45:45Z</time>
      </trkpt>
      <trkpt lat="48.45589" lon="2.66044">
        <ele>133.2</ele>
        <time>2021-05-30T07:45:55Z</time>
      </trkpt>
      <trkpt lat="48.45569" lon="2.66062">
        <ele>133.7</ele>
        <time>2021-05-30T07:46:05Z</time>
      </trkpt>
      <trkpt lat="48.45549" lon="2.66075">
        <ele>134.3</ele>
        <time>2021-05-30T07:46:10Z</time>
      </trkpt>
      <trkpt lat="48.45513" lon="2.661">
        <ele>135.9</ele>
        <time>2021-05-30T07:46:19Z</time>
      </trkpt>
      <trkpt lat="48.45465" lon="2.66135">
        <ele>137.1</ele>
        <time>2021-05-30T07:46:31Z</time>
      </trkpt>
      <trkpt lat="48.45418" lon="2.6617">
        <ele>137</ele>
        <time>2021-05-30T07:46:43Z</time>
      </trkpt>
      <trkpt lat="48.45369" lon="2.66212">
        <ele>136.5</ele>
        <time>2021-05-30T07:46:55Z</time>
      </trkpt>
      <trkpt lat="48.45368" lon="2.66218">
        <ele>136.4</ele>
        <time>2021-05-30T07:46:56Z</time>
      </trkpt>
      <trkpt lat="48.45366" lon="2.66231">
        <ele>136.2</ele>
        <time>2021-05-30T07:46:58Z</time>
      </trkpt>
      <trkpt lat="48.45366" lon="2.66238">
        <ele>136.1</ele>
        <time>2021-05-30T07:46:59Z</time>
      </trkpt>
      <trkpt lat="48.45367" lon="2.66252">
        <ele>136</ele>
        <time>2021-05-30T07:47:01Z</time>
      </trkpt>
      <trkpt lat="48.45368" lon="2.6626">
        <ele>136</ele>
        <time>2021-05-30T07:47:02Z</time>
      </trkpt>
      <trkpt lat="48.45368" lon="2.66269">
        <ele>136</ele>
        <time>2021-05-30T07:47:03Z</time>
      </trkpt>
      <trkpt lat="48.45367" lon="2.66277">
        <ele>135.9</ele>
        <time>2021-05-30T07:47:04Z</time>
      </trkpt>
      <trkpt lat="48.45366" lon="2.66285">
        <ele>135.9</ele>
        <time>2021-05-30T07:47:05Z</time>
      </trkpt>
      <trkpt lat="48.4536" lon="2.66372">
        <ele>134.6</ele>
        <time>2021-05-30T07:47:17Z</time>
      </trkpt>
      <trkpt lat="48.45361" lon="2.66408">
        <ele>133.6</ele>
        <time>2021-05-30T07:47:22Z</time>
      </trkpt>
      <trkpt lat="48.45363" lon="2.66415">
        <ele>133.4</ele>
        <time>2021-05-30T07:47:23Z</time>
      </trkpt>
      <trkpt lat="48.45388" lon="2.66468">
        <ele>133.7</ele>
        <time>2021-05-30T07:47:31Z</time>
      </trkpt>
      <trkpt lat="48.45413" lon="2.66519">
        <ele>134</ele>
        <time>2021-05-30T07:47:39Z</time>
      </trkpt>
      <trkpt lat="48.45416" lon="2.66526">
        <ele>134</ele>
        <time>2021-05-30T07:47:40Z</time>
      </trkpt>
      <trkpt lat="48.45416" lon="2.66534">
        <ele>134</ele>
        <time>2021-05-30T07:47:41Z</time>
      </trkpt>
      <trkpt lat="48.45414" lon="2.6654">
        <ele>134</ele>
        <time>2021-05-30T07:47:42Z</time>
      </trkpt>
      <trkpt lat="48.45412" lon="2.66545">
        <ele>134</ele>
        <time>2021-05-30T07:47:43Z</time>
      </trkpt>
      <trkpt lat="48.45409" lon="2.6655">
        <ele>134.1</ele>
        <time>2021-05-30T07:47:44Z</time>
      </trkpt>
      <trkpt lat="48.45404" lon="2.66561">
        <ele>134.2</ele>
        <time>2021-05-30T07:47:46Z</time>
      </trkpt>
      <trkpt lat="48.45401" lon="2.66566">
        <ele>134.3</ele>
        <time>2021-05-30T07:47:47Z</time>
      </trkpt>
      <trkpt lat="48.45392" lon="2.66588">
        <ele>134.7</ele>
        <time>2021-05-30T07:47:51Z</time>
      </trkpt>
      <trkpt lat="48.45391" lon="2.66595">
        <ele>134.8</ele>
        <time>2021-05-30T07:47:52Z</time>
      </trkpt>
      <trkpt lat="48.45391" lon="2.66601">
        <ele>134.9</ele>
        <time>2021-05-30T07:47:53Z</time>
      </trkpt>
      <trkpt lat="48.45393" lon="2.66623">
        <ele>135.2</ele>
        <time>2021-05-30T07:47:56Z</time>
      </trkpt>
      <trkpt lat="48.45394" lon="2.66629">
        <ele>135.2</ele>
        <time>2021-05-30T07:47:57Z</time>
      </trkpt>
      <trkpt lat="48.45406" lon="2.66668">
        <ele>135.4</ele>
        <time>2021-05-30T07:48:03Z</time>
      </trkpt>
      <trkpt lat="48.45409" lon="2.66674">
        <ele>135.2</ele>
        <time>2021-05-30T07:48:04Z</time>
      </trkpt>
      <trkpt lat="48.45413" lon="2.6668">
        <ele>135</ele>
        <time>2021-05-30T07:48:05Z</time>
      </trkpt>
      <trkpt lat="48.45425" lon="2.66704">
        <ele>134.1</ele>
        <time>2021-05-30T07:48:09Z</time>
      </trkpt>
      <trkpt lat="48.45428" lon="2.6671">
        <ele>133.9</ele>
        <time>2021-05-30T07:48:10Z</time>
      </trkpt>
      <trkpt lat="48.45448" lon="2.6675">
        <ele>132.9</ele>
        <time>2021-05-30T07:48:17Z</time>
      </trkpt>
      <trkpt lat="48.4545" lon="2.66756">
        <ele>132.8</ele>
        <time>2021-05-30T07:48:18Z</time>
      </trkpt>
      <trkpt lat="48.45451" lon="2.66763">
        <ele>132.7</ele>
        <time>2021-05-30T07:48:19Z</time>
      </trkpt>
      <trkpt lat="48.45456" lon="2.66785">
        <ele>132.4</ele>
        <time>2021-05-30T07:48:22Z</time>
      </trkpt>
      <trkpt lat="48.45456" lon="2.66793">
        <ele>132.3</ele>
        <time>2021-05-30T07:48:23Z</time>
      </trkpt>
      <trkpt lat="48.45456" lon="2.668">
        <ele>132.3</ele>
        <time>2021-05-30T07:48:24Z</time>
      </trkpt>
      <trkpt lat="48.45454" lon="2.66806">
        <ele>132.3</ele>
        <time>2021-05-30T07:48:25Z</time>
      </trkpt>
      <trkpt lat="48.45452" lon="2.66812">
        <ele>132.3</ele>
        <time>2021-05-30T07:48:26Z</time>
      </trkpt>
      <trkpt lat="48.45448" lon="2.66815">
        <ele>132.4</ele>
        <time>2021-05-30T07:48:27Z</time>
      </trkpt>
      <trkpt lat="48.45444" lon="2.66818">
        <ele>132.5</ele>
        <time>2021-05-30T07:48:28Z</time>
      </trkpt>
      <trkpt lat="48.4544" lon="2.66819">
        <ele>132.6</ele>
        <time>2021-05-30T07:48:29Z</time>
      </trkpt>
      <trkpt lat="48.45435" lon="2.66817">
        <ele>132.7</ele>
        <time>2021-05-30T07:48:30Z</time>
      </trkpt>
      <trkpt lat="48.45431" lon="2.66814">
        <ele>132.9</ele>
        <time>2021-05-30T07:48:31Z</time>
      </trkpt>
      <trkpt lat="48.45427" lon="2.6681">
        <ele>133</ele>
        <time>2021-05-30T07:48:32Z</time>
      </trkpt>
      <trkpt lat="48.45424" lon="2.66805">
        <ele>133.1</ele>
        <time>2021-05-30T07:48:33Z</time>
      </trkpt>
      <trkpt lat="48.45421" lon="2.668">
        <ele>133.3</ele>
        <time>2021-05-30T07:48:34Z</time>
      </trkpt>
      <trkpt lat="48.45414" lon="2.66789">
        <ele>133.7</ele>
        <time>2021-05-30T07:48:36Z</time>
      </trkpt>
      <trkpt lat="48.45411" lon="2.66784">
        <ele>133.9</ele>
        <time>2021-05-30T07:48:37Z</time>
      </trkpt>
      <trkpt lat="48.45407" lon="2.6678">
        <ele>134.2</ele>
        <time>2021-05-30T07:48:38Z</time>
      </trkpt>
      <trkpt lat="48.45403" lon="2.66776">
        <ele>134.5</ele>
        <time>2021-05-30T07:48:39Z</time>
      </trkpt>
      <trkpt lat="48.45398" lon="2.66772">
        <ele>134.8</ele>
        <time>2021-05-30T07:48:40Z</time>
      </trkpt>
      <trkpt lat="48.45394" lon="2.66769">
        <ele>135.1</ele>
        <time>2021-05-30T07:48:41Z</time>
      </trkpt>
      <trkpt lat="48.45389" lon="2.66767">
        <ele>135.5</ele>
        <time>2021-05-30T07:48:42Z</time>
      </trkpt>
      <trkpt lat="48.45384" lon="2.66765">
        <ele>135.8</ele>
        <time>2021-05-30T07:48:43Z</time>
      </trkpt>
      <trkpt lat="48.45379" lon="2.66763">
        <ele>136.1</ele>
        <time>2021-05-30T07:48:44Z</time>
      </trkpt>
      <trkpt lat="48.45374" lon="2.66763">
        <ele>136.4</ele>
        <time>2021-05-30T07:48:45Z</time>
      </trkpt>
      <trkpt lat="48.45369" lon="2.66764">
        <ele>136.7</ele>
        <time>2021-05-30T07:48:46Z</time>
      </trkpt>
      <trkpt lat="48.45364" lon="2.66766">
        <ele>137</ele>
        <time>2021-05-30T07:48:47Z</time>
      </trkpt>
      <trkpt lat="48.45359" lon="2.66769">
        <ele>137.2</ele>
        <time>2021-05-30T07:48:48Z</time>
      </trkpt>
      <trkpt lat="48.45355" lon="2.66772">
        <ele>137.4</ele>
        <time>2021-05-30T07:48:49Z</time>
      </trkpt>
      <trkpt lat="48.45346" lon="2.66779">
        <ele>137.9</ele>
        <time>2021-05-30T07:48:51Z</time>
      </trkpt>
      <trkpt lat="48.45342" lon="2.66782">
        <ele>138.1</ele>
        <time>2021-05-30T07:48:52Z</time>
      </trkpt>
      <trkpt lat="48.4533" lon="2.66792">
        <ele>138.5</ele>
        <time>2021-05-30T07:48:55Z</time>
      </trkpt>
      <trkpt lat="48.45297" lon="2.66834">
        <ele>138</ele>
        <time>2021-05-30T07:49:05Z</time>
      </trkpt>
      <trkpt lat="48.45292" lon="2.66845">
        <ele>137.9</ele>
        <time>2021-05-30T07:49:07Z</time>
      </trkpt>
      <trkpt lat="48.45282" lon="2.66883">
        <ele>137.7</ele>
        <time>2021-05-30T07:49:16Z</time>
      </trkpt>
      <trkpt lat="48.45279" lon="2.66889">
        <ele>137.7</ele>
        <time>2021-05-30T07:49:28Z</time>
      </trkpt>
      <trkpt lat="48.45278" lon="2.66894">
        <ele>137.8</ele>
        <time>2021-05-30T07:49:52Z</time>
      </trkpt>
      <trkpt lat="48.45277" lon="2.66897">
        <ele>137.8</ele>
        <time>2021-05-30T07:49:54Z</time>
      </trkpt>
      <trkpt lat="48.45278" lon="2.66899">
        <ele>137.7</ele>
        <time>2021-05-30T07:49:55Z</time>
      </trkpt>
      <trkpt lat="48.45278" lon="2.66902">
        <ele>137.7</ele>
        <time>2021-05-30T07:49:56Z</time>
      </trkpt>
      <trkpt lat="48.45284" lon="2.66945">
        <ele>137.6</ele>
        <time>2021-05-30T07:50:05Z</time>
      </trkpt>
      <trkpt lat="48.45294" lon="2.67001">
        <ele>137.3</ele>
        <time>2021-05-30T07:50:15Z</time>
      </trkpt>
      <trkpt lat="48.45306" lon="2.67053">
        <ele>135.4</ele>
        <time>2021-05-30T07:50:24Z</time>
      </trkpt>
      <trkpt lat="48.45309" lon="2.67093">
        <ele>134.9</ele>
        <time>2021-05-30T07:50:32Z</time>
      </trkpt>
      <trkpt lat="48.45311" lon="2.67097">
        <ele>134.9</ele>
        <time>2021-05-30T07:50:44Z</time>
      </trkpt>
      <trkpt lat="48.45307" lon="2.67113">
        <ele>135.4</ele>
        <time>2021-05-30T07:50:56Z</time>
      </trkpt>
      <trkpt lat="48.45287" lon="2.6713">
        <ele>136.9</ele>
        <time>2021-05-30T07:51:04Z</time>
      </trkpt>
      <trkpt lat="48.45253" lon="2.67158">
        <ele>138.8</ele>
        <time>2021-05-30T07:51:15Z</time>
      </trkpt>
      <trkpt lat="48.45246" lon="2.67163">
        <ele>139.2</ele>
        <time>2021-05-30T07:51:17Z</time>
      </trkpt>
      <trkpt lat="48.45242" lon="2.67165">
        <ele>139.3</ele>
        <time>2021-05-30T07:51:18Z</time>
      </trkpt>
      <trkpt lat="48.45238" lon="2.67167">
        <ele>139.4</ele>
        <time>2021-05-30T07:51:19Z</time>
      </trkpt>
      <trkpt lat="48.45235" lon="2.6717">
        <ele>139.5</ele>
        <time>2021-05-30T07:51:20Z</time>
      </trkpt>
      <trkpt lat="48.45232" lon="2.67172">
        <ele>139.5</ele>
        <time>2021-05-30T07:51:21Z</time>
      </trkpt>
      <trkpt lat="48.45228" lon="2.67176">
        <ele>139.6</ele>
        <time>2021-05-30T07:51:22Z</time>
      </trkpt>
      <trkpt lat="48.45196" lon="2.67201">
        <ele>139.9</ele>
        <time>2021-05-30T07:51:30Z</time>
      </trkpt>
      <trkpt lat="48.45169" lon="2.67216">
        <ele>140.1</ele>
        <time>2021-05-30T07:51:36Z</time>
      </trkpt>
      <trkpt lat="48.45164" lon="2.67216">
        <ele>140.4</ele>
        <time>2021-05-30T07:51:37Z</time>
      </trkpt>
      <trkpt lat="48.45159" lon="2.67215">
        <ele>140.7</ele>
        <time>2021-05-30T07:51:38Z</time>
      </trkpt>
      <trkpt lat="48.45154" lon="2.67216">
        <ele>140.9</ele>
        <time>2021-05-30T07:51:39Z</time>
      </trkpt>
      <trkpt lat="48.45149" lon="2.67218">
        <ele>141.1</ele>
        <time>2021-05-30T07:51:40Z</time>
      </trkpt>
      <trkpt lat="48.45145" lon="2.67221">
        <ele>141.3</ele>
        <time>2021-05-30T07:51:41Z</time>
      </trkpt>
      <trkpt lat="48.45141" lon="2.67225">
        <ele>141.4</ele>
        <time>2021-05-30T07:51:42Z</time>
      </trkpt>
      <trkpt lat="48.45138" lon="2.67231">
        <ele>141.3</ele>
        <time>2021-05-30T07:51:43Z</time>
      </trkpt>
      <trkpt lat="48.45135" lon="2.67237">
        <ele>141.3</ele>
        <time>2021-05-30T07:51:44Z</time>
      </trkpt>
      <trkpt lat="48.45105" lon="2.67298">
        <ele>141.2</ele>
        <time>2021-05-30T07:51:55Z</time>
      </trkpt>
      <trkpt lat="48.45101" lon="2.673">
        <ele>141.5</ele>
        <time>2021-05-30T07:51:56Z</time>
      </trkpt>
      <trkpt lat="48.45098" lon="2.67303">
        <ele>141.6</ele>
        <time>2021-05-30T07:51:57Z</time>
      </trkpt>
      <trkpt lat="48.45094" lon="2.67306">
        <ele>141.8</ele>
        <time>2021-05-30T07:51:58Z</time>
      </trkpt>
      <trkpt lat="48.4509" lon="2.67309">
        <ele>142</ele>
        <time>2021-05-30T07:51:59Z</time>
      </trkpt>
      <trkpt lat="48.45087" lon="2.67312">
        <ele>142.2</ele>
        <time>2021-05-30T07:52:00Z</time>
      </trkpt>
      <trkpt lat="48.45074" lon="2.67325">
        <ele>142.6</ele>
        <time>2021-05-30T07:52:03Z</time>
      </trkpt>
      <trkpt lat="48.45067" lon="2.67336">
        <ele>142.6</ele>
        <time>2021-05-30T07:52:05Z</time>
      </trkpt>
      <trkpt lat="48.45065" lon="2.67342">
        <ele>142.4</ele>
        <time>2021-05-30T07:52:06Z</time>
      </trkpt>
      <trkpt lat="48.45062" lon="2.67348">
        <ele>142.3</ele>
        <time>2021-05-30T07:52:07Z</time>
      </trkpt>
      <trkpt lat="48.45038" lon="2.67393">
        <ele>142.2</ele>
        <time>2021-05-30T07:52:15Z</time>
      </trkpt>
      <trkpt lat="48.45036" lon="2.67399">
        <ele>142.3</ele>
        <time>2021-05-30T07:52:16Z</time>
      </trkpt>
      <trkpt lat="48.45032" lon="2.67411">
        <ele>142.3</ele>
        <time>2021-05-30T07:52:18Z</time>
      </trkpt>
      <trkpt lat="48.45024" lon="2.67437">
        <ele>142.6</ele>
        <time>2021-05-30T07:52:22Z</time>
      </trkpt>
      <trkpt lat="48.45022" lon="2.67444">
        <ele>142.7</ele>
        <time>2021-05-30T07:52:23Z</time>
      </trkpt>
      <trkpt lat="48.45011" lon="2.67484">
        <ele>142.7</ele>
        <time>2021-05-30T07:52:29Z</time>
      </trkpt>
      <trkpt lat="48.44992" lon="2.67552">
        <ele>141.4</ele>
        <time>2021-05-30T07:52:38Z</time>
      </trkpt>
      <trkpt lat="48.44988" lon="2.67559">
        <ele>141.3</ele>
        <time>2021-05-30T07:52:39Z</time>
      </trkpt>
      <trkpt lat="48.44983" lon="2.67564">
        <ele>141.3</ele>
        <time>2021-05-30T07:52:40Z</time>
      </trkpt>
      <trkpt lat="48.44978" lon="2.67567">
        <ele>141.4</ele>
        <time>2021-05-30T07:52:41Z</time>
      </trkpt>
      <trkpt lat="48.44973" lon="2.67569">
        <ele>141.5</ele>
        <time>2021-05-30T07:52:42Z</time>
      </trkpt>
      <trkpt lat="48.44968" lon="2.67571">
        <ele>141.6</ele>
        <time>2021-05-30T07:52:43Z</time>
      </trkpt>
      <trkpt lat="48.44963" lon="2.67571">
        <ele>141.8</ele>
        <time>2021-05-30T07:52:44Z</time>
      </trkpt>
      <trkpt lat="48.44958" lon="2.67572">
        <ele>141.9</ele>
        <time>2021-05-30T07:52:45Z</time>
      </trkpt>
      <trkpt lat="48.44932" lon="2.6757">
        <ele>142.9</ele>
        <time>2021-05-30T07:52:54Z</time>
      </trkpt>
      <trkpt lat="48.4493" lon="2.67569">
        <ele>143</ele>
        <time>2021-05-30T07:52:56Z</time>
      </trkpt>
      <trkpt lat="48.44929" lon="2.67568">
        <ele>143.1</ele>
        <time>2021-05-30T07:52:57Z</time>
      </trkpt>
      <trkpt lat="48.44928" lon="2.67572">
        <ele>143</ele>
        <time>2021-05-30T07:53:05Z</time>
      </trkpt>
      <trkpt lat="48.44929" lon="2.67573">
        <ele>142.9</ele>
        <time>2021-05-30T07:53:10Z</time>
      </trkpt>
      <trkpt lat="48.44931" lon="2.67575">
        <ele>142.8</ele>
        <time>2021-05-30T07:53:12Z</time>
      </trkpt>
      <trkpt lat="48.44955" lon="2.67577">
        <ele>141.8</ele>
        <time>2021-05-30T07:53:19Z</time>
      </trkpt>
      <trkpt lat="48.4498" lon="2.67578">
        <ele>140.9</ele>
        <time>2021-05-30T07:53:26Z</time>
      </trkpt>
      <trkpt lat="48.44981" lon="2.6758">
        <ele>140.8</ele>
        <time>2021-05-30T07:53:27Z</time>
      </trkpt>
      <trkpt lat="48.44985" lon="2.67592">
        <ele>139.9</ele>
        <time>2021-05-30T07:53:35Z</time>
      </trkpt>
      <trkpt lat="48.44985" lon="2.67594">
        <ele>139.7</ele>
        <time>2021-05-30T07:53:36Z</time>
      </trkpt>
      <trkpt lat="48.44985" lon="2.67596">
        <ele>139.6</ele>
        <time>2021-05-30T07:53:37Z</time>
      </trkpt>
      <trkpt lat="48.44986" lon="2.67599">
        <ele>139.4</ele>
        <time>2021-05-30T07:53:38Z</time>
      </trkpt>
      <trkpt lat="48.44986" lon="2.67603">
        <ele>139.1</ele>
        <time>2021-05-30T07:53:39Z</time>
      </trkpt>
      <trkpt lat="48.44986" lon="2.67607">
        <ele>138.7</ele>
        <time>2021-05-30T07:53:40Z</time>
      </trkpt>
      <trkpt lat="48.44987" lon="2.67613">
        <ele>138.3</ele>
        <time>2021-05-30T07:53:41Z</time>
      </trkpt>
      <trkpt lat="48.44994" lon="2.67675">
        <ele>133.3</ele>
        <time>2021-05-30T07:53:50Z</time>
      </trkpt>
      <trkpt lat="48.45014" lon="2.67729">
        <ele>128.1</ele>
        <time>2021-05-30T07:53:57Z</time>
      </trkpt>
      <trkpt lat="48.45058" lon="2.67833">
        <ele>121.1</ele>
        <time>2021-05-30T07:54:06Z</time>
      </trkpt>
      <trkpt lat="48.45086" lon="2.67955">
        <ele>116.5</ele>
        <time>2021-05-30T07:54:16Z</time>
      </trkpt>
      <trkpt lat="48.45095" lon="2.68">
        <ele>113.6</ele>
        <time>2021-05-30T07:54:20Z</time>
      </trkpt>
      <trkpt lat="48.4514" lon="2.68141">
        <ele>105.5</ele>
        <time>2021-05-30T07:54:33Z</time>
      </trkpt>
      <trkpt lat="48.45183" lon="2.68247">
        <ele>103.1</ele>
        <time>2021-05-30T07:54:45Z</time>
      </trkpt>
      <trkpt lat="48.45195" lon="2.68281">
        <ele>101.6</ele>
        <time>2021-05-30T07:54:49Z</time>
      </trkpt>
      <trkpt lat="48.45199" lon="2.68294">
        <ele>101.2</ele>
        <time>2021-05-30T07:54:51Z</time>
      </trkpt>
      <trkpt lat="48.45198" lon="2.68299">
        <ele>101</ele>
        <time>2021-05-30T07:54:52Z</time>
      </trkpt>
      <trkpt lat="48.45196" lon="2.68302">
        <ele>100.8</ele>
        <time>2021-05-30T07:54:53Z</time>
      </trkpt>
      <trkpt lat="48.45165" lon="2.68333">
        <ele>98</ele>
        <time>2021-05-30T07:55:05Z</time>
      </trkpt>
      <trkpt lat="48.45138" lon="2.68366">
        <ele>96.5</ele>
        <time>2021-05-30T07:55:15Z</time>
      </trkpt>
      <trkpt lat="48.45125" lon="2.68383">
        <ele>95.8</ele>
        <time>2021-05-30T07:55:21Z</time>
      </trkpt>
      <trkpt lat="48.45124" lon="2.68388">
        <ele>95.7</ele>
        <time>2021-05-30T07:55:22Z</time>
      </trkpt>
      <trkpt lat="48.4512" lon="2.68393">
        <ele>95.4</ele>
        <time>2021-05-30T07:55:23Z</time>
      </trkpt>
      <trkpt lat="48.45068" lon="2.68455">
        <ele>94.3</ele>
        <time>2021-05-30T07:55:34Z</time>
      </trkpt>
      <trkpt lat="48.45052" lon="2.68475">
        <ele>95.1</ele>
        <time>2021-05-30T07:55:38Z</time>
      </trkpt>
      <trkpt lat="48.45048" lon="2.68479">
        <ele>95.2</ele>
        <time>2021-05-30T07:55:39Z</time>
      </trkpt>
      <trkpt lat="48.45004" lon="2.6853">
        <ele>97.5</ele>
        <time>2021-05-30T07:55:49Z</time>
      </trkpt>
      <trkpt lat="48.44953" lon="2.68587">
        <ele>100.3</ele>
        <time>2021-05-30T07:56:01Z</time>
      </trkpt>
      <trkpt lat="48.44949" lon="2.68591">
        <ele>100.6</ele>
        <time>2021-05-30T07:56:02Z</time>
      </trkpt>
      <trkpt lat="48.44927" lon="2.68615">
        <ele>102</ele>
        <time>2021-05-30T07:56:08Z</time>
      </trkpt>
      <trkpt lat="48.44923" lon="2.68619">
        <ele>102.2</ele>
        <time>2021-05-30T07:56:09Z</time>
      </trkpt>
      <trkpt lat="48.44881" lon="2.68668">
        <ele>102.4</ele>
        <time>2021-05-30T07:56:21Z</time>
      </trkpt>
      <trkpt lat="48.44866" lon="2.6869">
        <ele>101.5</ele>
        <time>2021-05-30T07:56:28Z</time>
      </trkpt>
      <trkpt lat="48.44865" lon="2.68694">
        <ele>101.3</ele>
        <time>2021-05-30T07:56:29Z</time>
      </trkpt>
      <trkpt lat="48.44865" lon="2.68698">
        <ele>101.1</ele>
        <time>2021-05-30T07:56:30Z</time>
      </trkpt>
      <trkpt lat="48.44855" lon="2.68758">
        <ele>98.5</ele>
        <time>2021-05-30T07:56:41Z</time>
      </trkpt>
      <trkpt lat="48.44855" lon="2.68774">
        <ele>98</ele>
        <time>2021-05-30T07:56:44Z</time>
      </trkpt>
      <trkpt lat="48.44855" lon="2.68778">
        <ele>97.8</ele>
        <time>2021-05-30T07:56:45Z</time>
      </trkpt>
      <trkpt lat="48.44856" lon="2.68786">
        <ele>97.6</ele>
        <time>2021-05-30T07:56:47Z</time>
      </trkpt>
      <trkpt lat="48.44856" lon="2.68796">
        <ele>97.2</ele>
        <time>2021-05-30T07:56:49Z</time>
      </trkpt>
      <trkpt lat="48.44854" lon="2.688">
        <ele>97.1</ele>
        <time>2021-05-30T07:56:50Z</time>
      </trkpt>
      <trkpt lat="48.44848" lon="2.68811">
        <ele>96.7</ele>
        <time>2021-05-30T07:57:01Z</time>
      </trkpt>
      <trkpt lat="48.44846" lon="2.68816">
        <ele>96.6</ele>
        <time>2021-05-30T07:57:23Z</time>
      </trkpt>
      <trkpt lat="48.44846" lon="2.6882">
        <ele>96.4</ele>
        <time>2021-05-30T07:57:38Z</time>
      </trkpt>
      <trkpt lat="48.44842" lon="2.6886">
        <ele>96.4</ele>
        <time>2021-05-30T07:57:48Z</time>
      </trkpt>
      <trkpt lat="48.44841" lon="2.68876">
        <ele>96.6</ele>
        <time>2021-05-30T07:57:50Z</time>
      </trkpt>
      <trkpt lat="48.44826" lon="2.68984">
        <ele>95.9</ele>
        <time>2021-05-30T07:58:02Z</time>
      </trkpt>
      <trkpt lat="48.44822" lon="2.69009">
        <ele>95.4</ele>
        <time>2021-05-30T07:58:05Z</time>
      </trkpt>
      <trkpt lat="48.44821" lon="2.69018">
        <ele>95.2</ele>
        <time>2021-05-30T07:58:06Z</time>
      </trkpt>
      <trkpt lat="48.44817" lon="2.6905">
        <ele>94.3</ele>
        <time>2021-05-30T07:58:10Z</time>
      </trkpt>
      <trkpt lat="48.44814" lon="2.69081">
        <ele>93.6</ele>
        <time>2021-05-30T07:58:14Z</time>
      </trkpt>
      <trkpt lat="48.44802" lon="2.69184">
        <ele>92.5</ele>
        <time>2021-05-30T07:58:27Z</time>
      </trkpt>
      <trkpt lat="48.44797" lon="2.69215">
        <ele>92.4</ele>
        <time>2021-05-30T07:58:31Z</time>
      </trkpt>
      <trkpt lat="48.44795" lon="2.69221">
        <ele>92.5</ele>
        <time>2021-05-30T07:58:32Z</time>
      </trkpt>
      <trkpt lat="48.44792" lon="2.69226">
        <ele>92.6</ele>
        <time>2021-05-30T07:58:33Z</time>
      </trkpt>
      <trkpt lat="48.44788" lon="2.69229">
        <ele>92.9</ele>
        <time>2021-05-30T07:58:34Z</time>
      </trkpt>
      <trkpt lat="48.44784" lon="2.69231">
        <ele>93.2</ele>
        <time>2021-05-30T07:58:35Z</time>
      </trkpt>
      <trkpt lat="48.44779" lon="2.69231">
        <ele>93.5</ele>
        <time>2021-05-30T07:58:36Z</time>
      </trkpt>
      <trkpt lat="48.44769" lon="2.69233">
        <ele>94.2</ele>
        <time>2021-05-30T07:58:38Z</time>
      </trkpt>
      <trkpt lat="48.4476" lon="2.69236">
        <ele>94.9</ele>
        <time>2021-05-30T07:58:40Z</time>
      </trkpt>
      <trkpt lat="48.44735" lon="2.69241">
        <ele>96.2</ele>
        <time>2021-05-30T07:58:45Z</time>
      </trkpt>
      <trkpt lat="48.44673" lon="2.6926">
        <ele>97.9</ele>
        <time>2021-05-30T07:58:59Z</time>
      </trkpt>
      <trkpt lat="48.44622" lon="2.69278">
        <ele>97.1</ele>
        <time>2021-05-30T07:59:10Z</time>
      </trkpt>
      <trkpt lat="48.44551" lon="2.69304">
        <ele>96.5</ele>
        <time>2021-05-30T07:59:24Z</time>
      </trkpt>
      <trkpt lat="48.44518" lon="2.69313">
        <ele>97.2</ele>
        <time>2021-05-30T07:59:31Z</time>
      </trkpt>
      <trkpt lat="48.4445" lon="2.69336">
        <ele>98.6</ele>
        <time>2021-05-30T07:59:44Z</time>
      </trkpt>
      <trkpt lat="48.44429" lon="2.69343">
        <ele>99</ele>
        <time>2021-05-30T07:59:48Z</time>
      </trkpt>
      <trkpt lat="48.44423" lon="2.69344">
        <ele>99</ele>
        <time>2021-05-30T07:59:49Z</time>
      </trkpt>
      <trkpt lat="48.44359" lon="2.69366">
        <ele>95.9</ele>
        <time>2021-05-30T08:00:01Z</time>
      </trkpt>
      <trkpt lat="48.44294" lon="2.69389">
        <ele>93.3</ele>
        <time>2021-05-30T08:00:15Z</time>
      </trkpt>
      <trkpt lat="48.44243" lon="2.69406">
        <ele>92.3</ele>
        <time>2021-05-30T08:00:27Z</time>
      </trkpt>
      <trkpt lat="48.44237" lon="2.69409">
        <ele>92.3</ele>
        <time>2021-05-30T08:00:38Z</time>
      </trkpt>
      <trkpt lat="48.44236" lon="2.6941">
        <ele>92.3</ele>
        <time>2021-05-30T08:00:58Z</time>
      </trkpt>
      <trkpt lat="48.44236" lon="2.69411">
        <ele>92.4</ele>
        <time>2021-05-30T08:00:59Z</time>
      </trkpt>
      <trkpt lat="48.44237" lon="2.69412">
        <ele>92.5</ele>
        <time>2021-05-30T08:01:00Z</time>
      </trkpt>
      <trkpt lat="48.44238" lon="2.69414">
        <ele>92.6</ele>
        <time>2021-05-30T08:01:01Z</time>
      </trkpt>
      <trkpt lat="48.44239" lon="2.69417">
        <ele>92.7</ele>
        <time>2021-05-30T08:01:02Z</time>
      </trkpt>
      <trkpt lat="48.44255" lon="2.69443">
        <ele>94.3</ele>
        <time>2021-05-30T08:01:09Z</time>
      </trkpt>
      <trkpt lat="48.44289" lon="2.69502">
        <ele>95.1</ele>
        <time>2021-05-30T08:01:21Z</time>
      </trkpt>
      <trkpt lat="48.4432" lon="2.69553">
        <ele>93.7</ele>
        <time>2021-05-30T08:01:31Z</time>
      </trkpt>
      <trkpt lat="48.44335" lon="2.6958">
        <ele>93</ele>
        <time>2021-05-30T08:01:36Z</time>
      </trkpt>
      <trkpt lat="48.44349" lon="2.69613">
        <ele>94.2</ele>
        <time>2021-05-30T08:01:42Z</time>
      </trkpt>
      <trkpt lat="48.44365" lon="2.69641">
        <ele>95</ele>
        <time>2021-05-30T08:01:47Z</time>
      </trkpt>
      <trkpt lat="48.4437" lon="2.69647">
        <ele>95.2</ele>
        <time>2021-05-30T08:01:48Z</time>
      </trkpt>
      <trkpt lat="48.44374" lon="2.69654">
        <ele>95.3</ele>
        <time>2021-05-30T08:01:49Z</time>
      </trkpt>
      <trkpt lat="48.44388" lon="2.69677">
        <ele>95.4</ele>
        <time>2021-05-30T08:01:53Z</time>
      </trkpt>
      <trkpt lat="48.44391" lon="2.69682">
        <ele>95.4</ele>
        <time>2021-05-30T08:01:54Z</time>
      </trkpt>
      <trkpt lat="48.44395" lon="2.69688">
        <ele>95.3</ele>
        <time>2021-05-30T08:01:55Z</time>
      </trkpt>
      <trkpt lat="48.44398" lon="2.69694">
        <ele>95.3</ele>
        <time>2021-05-30T08:01:56Z</time>
      </trkpt>
      <trkpt lat="48.44401" lon="2.69699">
        <ele>95.1</ele>
        <time>2021-05-30T08:01:57Z</time>
      </trkpt>
      <trkpt lat="48.44405" lon="2.69705">
        <ele>95</ele>
        <time>2021-05-30T08:01:58Z</time>
      </trkpt>
      <trkpt lat="48.44409" lon="2.69711">
        <ele>94.8</ele>
        <time>2021-05-30T08:01:59Z</time>
      </trkpt>
      <trkpt lat="48.44413" lon="2.69717">
        <ele>94.6</ele>
        <time>2021-05-30T08:02:00Z</time>
      </trkpt>
      <trkpt lat="48.44421" lon="2.69729">
        <ele>94.4</ele>
        <time>2021-05-30T08:02:02Z</time>
      </trkpt>
      <trkpt lat="48.44424" lon="2.69734">
        <ele>94.4</ele>
        <time>2021-05-30T08:02:03Z</time>
      </trkpt>
      <trkpt lat="48.44428" lon="2.69739">
        <ele>94.4</ele>
        <time>2021-05-30T08:02:04Z</time>
      </trkpt>
      <trkpt lat="48.44431" lon="2.69745">
        <ele>94.4</ele>
        <time>2021-05-30T08:02:05Z</time>
      </trkpt>
      <trkpt lat="48.44435" lon="2.6975">
        <ele>94.4</ele>
        <time>2021-05-30T08:02:06Z</time>
      </trkpt>
      <trkpt lat="48.44442" lon="2.69761">
        <ele>94.7</ele>
        <time>2021-05-30T08:02:08Z</time>
      </trkpt>
      <trkpt lat="48.44449" lon="2.69771">
        <ele>94.8</ele>
        <time>2021-05-30T08:02:10Z</time>
      </trkpt>
      <trkpt lat="48.44452" lon="2.69777">
        <ele>94.9</ele>
        <time>2021-05-30T08:02:11Z</time>
      </trkpt>
      <trkpt lat="48.44454" lon="2.69782">
        <ele>94.9</ele>
        <time>2021-05-30T08:02:12Z</time>
      </trkpt>
      <trkpt lat="48.44454" lon="2.69787">
        <ele>94.9</ele>
        <time>2021-05-30T08:02:15Z</time>
      </trkpt>
      <trkpt lat="48.44449" lon="2.69786">
        <ele>94.9</ele>
        <time>2021-05-30T08:02:16Z</time>
      </trkpt>
      <trkpt lat="48.44442" lon="2.69785">
        <ele>94.8</ele>
        <time>2021-05-30T08:02:17Z</time>
      </trkpt>
      <trkpt lat="48.44349" lon="2.69789">
        <ele>97.8</ele>
        <time>2021-05-30T08:02:35Z</time>
      </trkpt>
      <trkpt lat="48.4431" lon="2.69786">
        <ele>98.8</ele>
        <time>2021-05-30T08:02:43Z</time>
      </trkpt>
      <trkpt lat="48.44306" lon="2.69786">
        <ele>98.9</ele>
        <time>2021-05-30T08:02:44Z</time>
      </trkpt>
      <trkpt lat="48.44296" lon="2.69786">
        <ele>98.9</ele>
        <time>2021-05-30T08:02:46Z</time>
      </trkpt>
      <trkpt lat="48.44291" lon="2.69786">
        <ele>98.9</ele>
        <time>2021-05-30T08:02:47Z</time>
      </trkpt>
      <trkpt lat="48.44229" lon="2.69787">
        <ele>98</ele>
        <time>2021-05-30T08:03:00Z</time>
      </trkpt>
      <trkpt lat="48.44225" lon="2.69787">
        <ele>97.8</ele>
        <time>2021-05-30T08:03:01Z</time>
      </trkpt>
      <trkpt lat="48.44192" lon="2.69788">
        <ele>95.9</ele>
        <time>2021-05-30T08:03:08Z</time>
      </trkpt>
      <trkpt lat="48.44173" lon="2.69788">
        <ele>94.9</ele>
        <time>2021-05-30T08:03:12Z</time>
      </trkpt>
      <trkpt lat="48.44163" lon="2.6979">
        <ele>94.5</ele>
        <time>2021-05-30T08:03:14Z</time>
      </trkpt>
      <trkpt lat="48.44148" lon="2.6979">
        <ele>94.3</ele>
        <time>2021-05-30T08:03:17Z</time>
      </trkpt>
      <trkpt lat="48.44138" lon="2.69792">
        <ele>94.2</ele>
        <time>2021-05-30T08:03:19Z</time>
      </trkpt>
      <trkpt lat="48.44134" lon="2.69791">
        <ele>94.1</ele>
        <time>2021-05-30T08:03:20Z</time>
      </trkpt>
      <trkpt lat="48.44129" lon="2.69791">
        <ele>94</ele>
        <time>2021-05-30T08:03:21Z</time>
      </trkpt>
      <trkpt lat="48.44086" lon="2.69791">
        <ele>93.5</ele>
        <time>2021-05-30T08:03:31Z</time>
      </trkpt>
      <trkpt lat="48.44081" lon="2.69792">
        <ele>93.7</ele>
        <time>2021-05-30T08:03:32Z</time>
      </trkpt>
      <trkpt lat="48.44076" lon="2.69793">
        <ele>94</ele>
        <time>2021-05-30T08:03:33Z</time>
      </trkpt>
      <trkpt lat="48.44049" lon="2.6979">
        <ele>95.5</ele>
        <time>2021-05-30T08:03:41Z</time>
      </trkpt>
      <trkpt lat="48.44026" lon="2.69785">
        <ele>96.3</ele>
        <time>2021-05-30T08:03:47Z</time>
      </trkpt>
      <trkpt lat="48.44022" lon="2.69785">
        <ele>96.5</ele>
        <time>2021-05-30T08:03:48Z</time>
      </trkpt>
      <trkpt lat="48.44018" lon="2.69784">
        <ele>96.6</ele>
        <time>2021-05-30T08:03:49Z</time>
      </trkpt>
      <trkpt lat="48.44014" lon="2.69783">
        <ele>96.8</ele>
        <time>2021-05-30T08:03:50Z</time>
      </trkpt>
      <trkpt lat="48.4401" lon="2.69782">
        <ele>96.9</ele>
        <time>2021-05-30T08:03:51Z</time>
      </trkpt>
      <trkpt lat="48.43978" lon="2.69776">
        <ele>99.4</ele>
        <time>2021-05-30T08:04:00Z</time>
      </trkpt>
      <trkpt lat="48.4396" lon="2.69774">
        <ele>101.3</ele>
        <time>2021-05-30T08:04:06Z</time>
      </trkpt>
      <trkpt lat="48.43958" lon="2.69775">
        <ele>101.6</ele>
        <time>2021-05-30T08:04:07Z</time>
      </trkpt>
      <trkpt lat="48.43956" lon="2.69775">
        <ele>101.9</ele>
        <time>2021-05-30T08:04:08Z</time>
      </trkpt>
      <trkpt lat="48.43953" lon="2.69775">
        <ele>102.2</ele>
        <time>2021-05-30T08:04:09Z</time>
      </trkpt>
      <trkpt lat="48.43951" lon="2.69774">
        <ele>102.4</ele>
        <time>2021-05-30T08:04:10Z</time>
      </trkpt>
      <trkpt lat="48.43949" lon="2.69773">
        <ele>102.6</ele>
        <time>2021-05-30T08:04:11Z</time>
      </trkpt>
      <trkpt lat="48.43947" lon="2.69774">
        <ele>102.8</ele>
        <time>2021-05-30T08:04:12Z</time>
      </trkpt>
      <trkpt lat="48.43945" lon="2.69773">
        <ele>103.1</ele>
        <time>2021-05-30T08:04:13Z</time>
      </trkpt>
      <trkpt lat="48.43942" lon="2.69775">
        <ele>103.5</ele>
        <time>2021-05-30T08:04:14Z</time>
      </trkpt>
      <trkpt lat="48.43939" lon="2.69775">
        <ele>103.9</ele>
        <time>2021-05-30T08:04:15Z</time>
      </trkpt>
      <trkpt lat="48.43934" lon="2.69776">
        <ele>104.5</ele>
        <time>2021-05-30T08:04:17Z</time>
      </trkpt>
      <trkpt lat="48.43932" lon="2.69775">
        <ele>104.7</ele>
        <time>2021-05-30T08:04:18Z</time>
      </trkpt>
      <trkpt lat="48.4393" lon="2.69776">
        <ele>105</ele>
        <time>2021-05-30T08:04:19Z</time>
      </trkpt>
      <trkpt lat="48.43915" lon="2.69771">
        <ele>106.5</ele>
        <time>2021-05-30T08:04:27Z</time>
      </trkpt>
      <trkpt lat="48.43913" lon="2.6977">
        <ele>106.7</ele>
        <time>2021-05-30T08:04:28Z</time>
      </trkpt>
      <trkpt lat="48.43912" lon="2.6977">
        <ele>106.8</ele>
        <time>2021-05-30T08:04:29Z</time>
      </trkpt>
      <trkpt lat="48.4391" lon="2.69769">
        <ele>107</ele>
        <time>2021-05-30T08:04:30Z</time>
      </trkpt>
      <trkpt lat="48.43909" lon="2.69769">
        <ele>107.2</ele>
        <time>2021-05-30T08:04:31Z</time>
      </trkpt>
      <trkpt lat="48.43897" lon="2.69767">
        <ele>108.5</ele>
        <time>2021-05-30T08:04:39Z</time>
      </trkpt>
      <trkpt lat="48.43896" lon="2.69766">
        <ele>108.6</ele>
        <time>2021-05-30T08:04:40Z</time>
      </trkpt>
      <trkpt lat="48.43881" lon="2.69761">
        <ele>110.4</ele>
        <time>2021-05-30T08:04:52Z</time>
      </trkpt>
      <trkpt lat="48.43877" lon="2.69763">
        <ele>110.9</ele>
        <time>2021-05-30T08:04:57Z</time>
      </trkpt>
      <trkpt lat="48.43876" lon="2.69764">
        <ele>111.1</ele>
        <time>2021-05-30T08:04:58Z</time>
      </trkpt>
      <trkpt lat="48.43875" lon="2.69765">
        <ele>111.3</ele>
        <time>2021-05-30T08:04:59Z</time>
      </trkpt>
      <trkpt lat="48.43874" lon="2.69766">
        <ele>111.5</ele>
        <time>2021-05-30T08:05:00Z</time>
      </trkpt>
      <trkpt lat="48.43872" lon="2.69767">
        <ele>111.8</ele>
        <time>2021-05-30T08:05:01Z</time>
      </trkpt>
      <trkpt lat="48.43871" lon="2.69768">
        <ele>112</ele>
        <time>2021-05-30T08:05:02Z</time>
      </trkpt>
      <trkpt lat="48.43857" lon="2.69774">
        <ele>114.2</ele>
        <time>2021-05-30T08:05:13Z</time>
      </trkpt>
      <trkpt lat="48.43845" lon="2.6979">
        <ele>116.5</ele>
        <time>2021-05-30T08:05:24Z</time>
      </trkpt>
      <trkpt lat="48.43843" lon="2.69792">
        <ele>116.8</ele>
        <time>2021-05-30T08:05:25Z</time>
      </trkpt>
      <trkpt lat="48.43842" lon="2.69793">
        <ele>117</ele>
        <time>2021-05-30T08:05:26Z</time>
      </trkpt>
      <trkpt lat="48.43841" lon="2.69794">
        <ele>117.2</ele>
        <time>2021-05-30T08:05:27Z</time>
      </trkpt>
      <trkpt lat="48.43834" lon="2.69804">
        <ele>118.5</ele>
        <time>2021-05-30T08:05:42Z</time>
      </trkpt>
      <trkpt lat="48.43835" lon="2.69805">
        <ele>118.4</ele>
        <time>2021-05-30T08:06:04Z</time>
      </trkpt>
      <trkpt lat="48.43833" lon="2.69804">
        <ele>118.6</ele>
        <time>2021-05-30T08:06:17Z</time>
      </trkpt>
      <trkpt lat="48.43832" lon="2.69808">
        <ele>118.7</ele>
        <time>2021-05-30T08:06:24Z</time>
      </trkpt>
      <trkpt lat="48.43831" lon="2.69809">
        <ele>118.7</ele>
        <time>2021-05-30T08:06:25Z</time>
      </trkpt>
      <trkpt lat="48.43829" lon="2.69812">
        <ele>118.7</ele>
        <time>2021-05-30T08:06:26Z</time>
      </trkpt>
      <trkpt lat="48.43827" lon="2.69816">
        <ele>118.8</ele>
        <time>2021-05-30T08:06:27Z</time>
      </trkpt>
      <trkpt lat="48.43824" lon="2.69819">
        <ele>118.8</ele>
        <time>2021-05-30T08:06:28Z</time>
      </trkpt>
      <trkpt lat="48.43821" lon="2.69821">
        <ele>118.7</ele>
        <time>2021-05-30T08:06:29Z</time>
      </trkpt>
      <trkpt lat="48.43817" lon="2.69821">
        <ele>118.5</ele>
        <time>2021-05-30T08:06:30Z</time>
      </trkpt>
      <trkpt lat="48.43814" lon="2.6982">
        <ele>118.2</ele>
        <time>2021-05-30T08:06:31Z</time>
      </trkpt>
      <trkpt lat="48.4381" lon="2.6982">
        <ele>118</ele>
        <time>2021-05-30T08:06:32Z</time>
      </trkpt>
      <trkpt lat="48.43806" lon="2.69819">
        <ele>117.7</ele>
        <time>2021-05-30T08:06:33Z</time>
      </trkpt>
      <trkpt lat="48.43801" lon="2.69817">
        <ele>117.3</ele>
        <time>2021-05-30T08:06:34Z</time>
      </trkpt>
      <trkpt lat="48.43797" lon="2.69815">
        <ele>116.9</ele>
        <time>2021-05-30T08:06:35Z</time>
      </trkpt>
      <trkpt lat="48.43793" lon="2.69811">
        <ele>116.5</ele>
        <time>2021-05-30T08:06:36Z</time>
      </trkpt>
      <trkpt lat="48.43788" lon="2.69807">
        <ele>116</ele>
        <time>2021-05-30T08:06:37Z</time>
      </trkpt>
      <trkpt lat="48.43777" lon="2.69795">
        <ele>114.8</ele>
        <time>2021-05-30T08:06:40Z</time>
      </trkpt>
      <trkpt lat="48.4376" lon="2.69779">
        <ele>113</ele>
        <time>2021-05-30T08:06:44Z</time>
      </trkpt>
      <trkpt lat="48.43756" lon="2.69776">
        <ele>112.6</ele>
        <time>2021-05-30T08:06:45Z</time>
      </trkpt>
      <trkpt lat="48.43752" lon="2.69772">
        <ele>112.1</ele>
        <time>2021-05-30T08:06:46Z</time>
      </trkpt>
      <trkpt lat="48.43747" lon="2.69768">
        <ele>111.6</ele>
        <time>2021-05-30T08:06:47Z</time>
      </trkpt>
      <trkpt lat="48.43742" lon="2.69765">
        <ele>110.9</ele>
        <time>2021-05-30T08:06:48Z</time>
      </trkpt>
      <trkpt lat="48.43737" lon="2.69763">
        <ele>110.2</ele>
        <time>2021-05-30T08:06:49Z</time>
      </trkpt>
      <trkpt lat="48.43731" lon="2.6976">
        <ele>109.5</ele>
        <time>2021-05-30T08:06:50Z</time>
      </trkpt>
      <trkpt lat="48.43678" lon="2.69739">
        <ele>103.2</ele>
        <time>2021-05-30T08:06:59Z</time>
      </trkpt>
      <trkpt lat="48.43665" lon="2.69736">
        <ele>102</ele>
        <time>2021-05-30T08:07:01Z</time>
      </trkpt>
      <trkpt lat="48.4366" lon="2.69734">
        <ele>101.7</ele>
        <time>2021-05-30T08:07:02Z</time>
      </trkpt>
      <trkpt lat="48.43643" lon="2.69731">
        <ele>101</ele>
        <time>2021-05-30T08:07:06Z</time>
      </trkpt>
      <trkpt lat="48.43641" lon="2.69734">
        <ele>101</ele>
        <time>2021-05-30T08:07:07Z</time>
      </trkpt>
      <trkpt lat="48.4364" lon="2.69737">
        <ele>101</ele>
        <time>2021-05-30T08:07:08Z</time>
      </trkpt>
      <trkpt lat="48.43639" lon="2.69741">
        <ele>101</ele>
        <time>2021-05-30T08:07:09Z</time>
      </trkpt>
      <trkpt lat="48.43638" lon="2.69746">
        <ele>100.9</ele>
        <time>2021-05-30T08:07:10Z</time>
      </trkpt>
      <trkpt lat="48.43637" lon="2.6975">
        <ele>100.9</ele>
        <time>2021-05-30T08:07:11Z</time>
      </trkpt>
      <trkpt lat="48.43636" lon="2.69753">
        <ele>101.1</ele>
        <time>2021-05-30T08:07:12Z</time>
      </trkpt>
      <trkpt lat="48.43635" lon="2.69757">
        <ele>101.3</ele>
        <time>2021-05-30T08:07:13Z</time>
      </trkpt>
      <trkpt lat="48.43628" lon="2.69806">
        <ele>104</ele>
        <time>2021-05-30T08:07:23Z</time>
      </trkpt>
      <trkpt lat="48.43627" lon="2.69814">
        <ele>104.5</ele>
        <time>2021-05-30T08:07:24Z</time>
      </trkpt>
      <trkpt lat="48.43625" lon="2.69829">
        <ele>105.2</ele>
        <time>2021-05-30T08:07:26Z</time>
      </trkpt>
      <trkpt lat="48.43624" lon="2.69835">
        <ele>105.5</ele>
        <time>2021-05-30T08:07:27Z</time>
      </trkpt>
      <trkpt lat="48.43623" lon="2.69842">
        <ele>105.7</ele>
        <time>2021-05-30T08:07:28Z</time>
      </trkpt>
      <trkpt lat="48.43612" lon="2.69895">
        <ele>107.2</ele>
        <time>2021-05-30T08:07:37Z</time>
      </trkpt>
      <trkpt lat="48.43602" lon="2.69946">
        <ele>108.7</ele>
        <time>2021-05-30T08:07:46Z</time>
      </trkpt>
      <trkpt lat="48.43589" lon="2.70006">
        <ele>110.6</ele>
        <time>2021-05-30T08:07:57Z</time>
      </trkpt>
      <trkpt lat="48.43575" lon="2.70071">
        <ele>113.6</ele>
        <time>2021-05-30T08:08:09Z</time>
      </trkpt>
      <trkpt lat="48.43571" lon="2.70108">
        <ele>115.2</ele>
        <time>2021-05-30T08:08:17Z</time>
      </trkpt>
      <trkpt lat="48.43571" lon="2.70111">
        <ele>115.3</ele>
        <time>2021-05-30T08:08:18Z</time>
      </trkpt>
      <trkpt lat="48.43571" lon="2.70116">
        <ele>115.5</ele>
        <time>2021-05-30T08:08:19Z</time>
      </trkpt>
      <trkpt lat="48.43567" lon="2.70168">
        <ele>117.5</ele>
        <time>2021-05-30T08:08:29Z</time>
      </trkpt>
      <trkpt lat="48.43561" lon="2.70229">
        <ele>121.3</ele>
        <time>2021-05-30T08:08:42Z</time>
      </trkpt>
      <trkpt lat="48.43562" lon="2.70265">
        <ele>123.3</ele>
        <time>2021-05-30T08:08:50Z</time>
      </trkpt>
      <trkpt lat="48.43562" lon="2.70269">
        <ele>123.6</ele>
        <time>2021-05-30T08:08:51Z</time>
      </trkpt>
      <trkpt lat="48.43561" lon="2.70318">
        <ele>126.2</ele>
        <time>2021-05-30T08:09:03Z</time>
      </trkpt>
      <trkpt lat="48.43561" lon="2.70358">
        <ele>128.4</ele>
        <time>2021-05-30T08:09:14Z</time>
      </trkpt>
      <trkpt lat="48.43561" lon="2.70409">
        <ele>131.1</ele>
        <time>2021-05-30T08:09:27Z</time>
      </trkpt>
      <trkpt lat="48.4356" lon="2.70422">
        <ele>131.8</ele>
        <time>2021-05-30T08:09:31Z</time>
      </trkpt>
      <trkpt lat="48.4356" lon="2.70424">
        <ele>131.9</ele>
        <time>2021-05-30T08:09:32Z</time>
      </trkpt>
      <trkpt lat="48.43559" lon="2.70457">
        <ele>133.6</ele>
        <time>2021-05-30T08:09:43Z</time>
      </trkpt>
      <trkpt lat="48.4356" lon="2.70494">
        <ele>135.4</ele>
        <time>2021-05-30T08:09:54Z</time>
      </trkpt>
      <trkpt lat="48.43561" lon="2.705">
        <ele>135.7</ele>
        <time>2021-05-30T08:09:56Z</time>
      </trkpt>
      <trkpt lat="48.43556" lon="2.70537">
        <ele>136.4</ele>
        <time>2021-05-30T08:10:09Z</time>
      </trkpt>
      <trkpt lat="48.43554" lon="2.70547">
        <ele>136.6</ele>
        <time>2021-05-30T08:10:13Z</time>
      </trkpt>
      <trkpt lat="48.43554" lon="2.7055">
        <ele>136.6</ele>
        <time>2021-05-30T08:10:14Z</time>
      </trkpt>
      <trkpt lat="48.43553" lon="2.70553">
        <ele>136.6</ele>
        <time>2021-05-30T08:10:15Z</time>
      </trkpt>
      <trkpt lat="48.43553" lon="2.70556">
        <ele>136.7</ele>
        <time>2021-05-30T08:10:16Z</time>
      </trkpt>
      <trkpt lat="48.43555" lon="2.7056">
        <ele>136.8</ele>
        <time>2021-05-30T08:10:18Z</time>
      </trkpt>
      <trkpt lat="48.43557" lon="2.70559">
        <ele>136.9</ele>
        <time>2021-05-30T08:10:19Z</time>
      </trkpt>
      <trkpt lat="48.43558" lon="2.70558">
        <ele>136.9</ele>
        <time>2021-05-30T08:10:20Z</time>
      </trkpt>
      <trkpt lat="48.4356" lon="2.70556">
        <ele>137</ele>
        <time>2021-05-30T08:10:21Z</time>
      </trkpt>
      <trkpt lat="48.43562" lon="2.70554">
        <ele>137</ele>
        <time>2021-05-30T08:10:22Z</time>
      </trkpt>
      <trkpt lat="48.43563" lon="2.70553">
        <ele>137</ele>
        <time>2021-05-30T08:10:23Z</time>
      </trkpt>
      <trkpt lat="48.43564" lon="2.70551">
        <ele>137.1</ele>
        <time>2021-05-30T08:10:24Z</time>
      </trkpt>
      <trkpt lat="48.43565" lon="2.7055">
        <ele>137.1</ele>
        <time>2021-05-30T08:10:25Z</time>
      </trkpt>
      <trkpt lat="48.43566" lon="2.70549">
        <ele>137.1</ele>
        <time>2021-05-30T08:10:26Z</time>
      </trkpt>
      <trkpt lat="48.43567" lon="2.70547">
        <ele>137</ele>
        <time>2021-05-30T08:10:27Z</time>
      </trkpt>
      <trkpt lat="48.43568" lon="2.70545">
        <ele>137</ele>
        <time>2021-05-30T08:10:28Z</time>
      </trkpt>
      <trkpt lat="48.43569" lon="2.70543">
        <ele>137</ele>
        <time>2021-05-30T08:10:29Z</time>
      </trkpt>
      <trkpt lat="48.4357" lon="2.70541">
        <ele>137</ele>
        <time>2021-05-30T08:10:30Z</time>
      </trkpt>
      <trkpt lat="48.43571" lon="2.70539">
        <ele>137</ele>
        <time>2021-05-30T08:10:31Z</time>
      </trkpt>
      <trkpt lat="48.43572" lon="2.70537">
        <ele>137</ele>
        <time>2021-05-30T08:10:32Z</time>
      </trkpt>
      <trkpt lat="48.43573" lon="2.70536">
        <ele>137</ele>
        <time>2021-05-30T08:10:33Z</time>
      </trkpt>
      <trkpt lat="48.43587" lon="2.70511">
        <ele>136.7</ele>
        <time>2021-05-30T08:10:45Z</time>
      </trkpt>
      <trkpt lat="48.43599" lon="2.70485">
        <ele>136.5</ele>
        <time>2021-05-30T08:10:56Z</time>
      </trkpt>
      <trkpt lat="48.43604" lon="2.7045">
        <ele>135</ele>
        <time>2021-05-30T08:11:08Z</time>
      </trkpt>
      <trkpt lat="48.43625" lon="2.70411">
        <ele>135.3</ele>
        <time>2021-05-30T08:11:21Z</time>
      </trkpt>
      <trkpt lat="48.43643" lon="2.70394">
        <ele>137</ele>
        <time>2021-05-30T08:11:32Z</time>
      </trkpt>
      <trkpt lat="48.43658" lon="2.70377">
        <ele>138.9</ele>
        <time>2021-05-30T08:11:40Z</time>
      </trkpt>
      <trkpt lat="48.43666" lon="2.70327">
        <ele>139.5</ele>
        <time>2021-05-30T08:11:51Z</time>
      </trkpt>
      <trkpt lat="48.43675" lon="2.70276">
        <ele>136.9</ele>
        <time>2021-05-30T08:12:01Z</time>
      </trkpt>
      <trkpt lat="48.43678" lon="2.70271">
        <ele>136.8</ele>
        <time>2021-05-30T08:12:03Z</time>
      </trkpt>
      <trkpt lat="48.4368" lon="2.7027">
        <ele>136.8</ele>
        <time>2021-05-30T08:12:04Z</time>
      </trkpt>
      <trkpt lat="48.4368" lon="2.70268">
        <ele>136.7</ele>
        <time>2021-05-30T08:12:05Z</time>
      </trkpt>
      <trkpt lat="48.43678" lon="2.70266">
        <ele>136.6</ele>
        <time>2021-05-30T08:12:06Z</time>
      </trkpt>
      <trkpt lat="48.43677" lon="2.70266">
        <ele>136.5</ele>
        <time>2021-05-30T08:12:07Z</time>
      </trkpt>
      <trkpt lat="48.43675" lon="2.70267">
        <ele>136.4</ele>
        <time>2021-05-30T08:12:08Z</time>
      </trkpt>
      <trkpt lat="48.43674" lon="2.70269">
        <ele>136.5</ele>
        <time>2021-05-30T08:12:09Z</time>
      </trkpt>
      <trkpt lat="48.43674" lon="2.7027">
        <ele>136.5</ele>
        <time>2021-05-30T08:12:21Z</time>
      </trkpt>
      <trkpt lat="48.43675" lon="2.7027">
        <ele>136.6</ele>
        <time>2021-05-30T08:12:42Z</time>
      </trkpt>
      <trkpt lat="48.43676" lon="2.70269">
        <ele>136.6</ele>
        <time>2021-05-30T08:13:07Z</time>
      </trkpt>
      <trkpt lat="48.43676" lon="2.70268">
        <ele>136.6</ele>
        <time>2021-05-30T08:13:25Z</time>
      </trkpt>
      <trkpt lat="48.43678" lon="2.70266">
        <ele>136.6</ele>
        <time>2021-05-30T08:13:31Z</time>
      </trkpt>
      <trkpt lat="48.4368" lon="2.70265">
        <ele>136.6</ele>
        <time>2021-05-30T08:13:32Z</time>
      </trkpt>
      <trkpt lat="48.43682" lon="2.70264">
        <ele>136.7</ele>
        <time>2021-05-30T08:13:33Z</time>
      </trkpt>
      <trkpt lat="48.43684" lon="2.70264">
        <ele>136.8</ele>
        <time>2021-05-30T08:13:34Z</time>
      </trkpt>
      <trkpt lat="48.43687" lon="2.70264">
        <ele>137</ele>
        <time>2021-05-30T08:13:35Z</time>
      </trkpt>
      <trkpt lat="48.4369" lon="2.70263">
        <ele>137.1</ele>
        <time>2021-05-30T08:13:36Z</time>
      </trkpt>
      <trkpt lat="48.43693" lon="2.70263">
        <ele>137.3</ele>
        <time>2021-05-30T08:13:37Z</time>
      </trkpt>
      <trkpt lat="48.43695" lon="2.70264">
        <ele>137.4</ele>
        <time>2021-05-30T08:13:38Z</time>
      </trkpt>
      <trkpt lat="48.43697" lon="2.70267">
        <ele>137.6</ele>
        <time>2021-05-30T08:13:39Z</time>
      </trkpt>
      <trkpt lat="48.43702" lon="2.70274">
        <ele>138</ele>
        <time>2021-05-30T08:13:42Z</time>
      </trkpt>
      <trkpt lat="48.43702" lon="2.70278">
        <ele>138.1</ele>
        <time>2021-05-30T08:13:43Z</time>
      </trkpt>
      <trkpt lat="48.43703" lon="2.70282">
        <ele>138.2</ele>
        <time>2021-05-30T08:13:44Z</time>
      </trkpt>
      <trkpt lat="48.43702" lon="2.70287">
        <ele>138.3</ele>
        <time>2021-05-30T08:13:45Z</time>
      </trkpt>
      <trkpt lat="48.43701" lon="2.70291">
        <ele>138.3</ele>
        <time>2021-05-30T08:13:46Z</time>
      </trkpt>
      <trkpt lat="48.43699" lon="2.70295">
        <ele>138.4</ele>
        <time>2021-05-30T08:13:47Z</time>
      </trkpt>
      <trkpt lat="48.43699" lon="2.70301">
        <ele>138.5</ele>
        <time>2021-05-30T08:13:48Z</time>
      </trkpt>
      <trkpt lat="48.43699" lon="2.70304">
        <ele>138.5</ele>
        <time>2021-05-30T08:13:49Z</time>
      </trkpt>
      <trkpt lat="48.43698" lon="2.70307">
        <ele>138.6</ele>
        <time>2021-05-30T08:13:50Z</time>
      </trkpt>
      <trkpt lat="48.43698" lon="2.7031">
        <ele>138.7</ele>
        <time>2021-05-30T08:13:51Z</time>
      </trkpt>
      <trkpt lat="48.43699" lon="2.70314">
        <ele>138.8</ele>
        <time>2021-05-30T08:13:52Z</time>
      </trkpt>
      <trkpt lat="48.43698" lon="2.70317">
        <ele>138.8</ele>
        <time>2021-05-30T08:13:53Z</time>
      </trkpt>
      <trkpt lat="48.43698" lon="2.7032">
        <ele>138.9</ele>
        <time>2021-05-30T08:13:54Z</time>
      </trkpt>
      <trkpt lat="48.43697" lon="2.70323">
        <ele>139</ele>
        <time>2021-05-30T08:13:55Z</time>
      </trkpt>
      <trkpt lat="48.43697" lon="2.70328">
        <ele>139.1</ele>
        <time>2021-05-30T08:13:56Z</time>
      </trkpt>
      <trkpt lat="48.43696" lon="2.70332">
        <ele>139.3</ele>
        <time>2021-05-30T08:13:57Z</time>
      </trkpt>
      <trkpt lat="48.43696" lon="2.70336">
        <ele>139.2</ele>
        <time>2021-05-30T08:13:58Z</time>
      </trkpt>
      <trkpt lat="48.43696" lon="2.7034">
        <ele>139.2</ele>
        <time>2021-05-30T08:13:59Z</time>
      </trkpt>
      <trkpt lat="48.43691" lon="2.70358">
        <ele>139.1</ele>
        <time>2021-05-30T08:14:05Z</time>
      </trkpt>
      <trkpt lat="48.4369" lon="2.70362">
        <ele>139</ele>
        <time>2021-05-30T08:14:06Z</time>
      </trkpt>
      <trkpt lat="48.43689" lon="2.70368">
        <ele>139</ele>
        <time>2021-05-30T08:14:07Z</time>
      </trkpt>
      <trkpt lat="48.43688" lon="2.70372">
        <ele>139</ele>
        <time>2021-05-30T08:14:08Z</time>
      </trkpt>
      <trkpt lat="48.43687" lon="2.70376">
        <ele>139</ele>
        <time>2021-05-30T08:14:09Z</time>
      </trkpt>
      <trkpt lat="48.43694" lon="2.70428">
        <ele>138.5</ele>
        <time>2021-05-30T08:14:20Z</time>
      </trkpt>
      <trkpt lat="48.43721" lon="2.70484">
        <ele>139</ele>
        <time>2021-05-30T08:14:32Z</time>
      </trkpt>
      <trkpt lat="48.43738" lon="2.70539">
        <ele>139.2</ele>
        <time>2021-05-30T08:14:42Z</time>
      </trkpt>
      <trkpt lat="48.43745" lon="2.7055">
        <ele>138.9</ele>
        <time>2021-05-30T08:14:44Z</time>
      </trkpt>
      <trkpt lat="48.43774" lon="2.70585">
        <ele>134.6</ele>
        <time>2021-05-30T08:14:54Z</time>
      </trkpt>
      <trkpt lat="48.43776" lon="2.70586">
        <ele>134.3</ele>
        <time>2021-05-30T08:14:55Z</time>
      </trkpt>
      <trkpt lat="48.43779" lon="2.70588">
        <ele>133.6</ele>
        <time>2021-05-30T08:15:07Z</time>
      </trkpt>
      <trkpt lat="48.4378" lon="2.70589">
        <ele>133.4</ele>
        <time>2021-05-30T08:15:35Z</time>
      </trkpt>
      <trkpt lat="48.43779" lon="2.70594">
        <ele>133.3</ele>
        <time>2021-05-30T08:15:56Z</time>
      </trkpt>
      <trkpt lat="48.43779" lon="2.70589">
        <ele>133.5</ele>
        <time>2021-05-30T08:16:24Z</time>
      </trkpt>
      <trkpt lat="48.43777" lon="2.70589">
        <ele>134</ele>
        <time>2021-05-30T08:16:35Z</time>
      </trkpt>
      <trkpt lat="48.43771" lon="2.70585">
        <ele>135.2</ele>
        <time>2021-05-30T08:16:41Z</time>
      </trkpt>
      <trkpt lat="48.43769" lon="2.70585">
        <ele>135.5</ele>
        <time>2021-05-30T08:16:42Z</time>
      </trkpt>
      <trkpt lat="48.43767" lon="2.70585">
        <ele>135.8</ele>
        <time>2021-05-30T08:16:43Z</time>
      </trkpt>
      <trkpt lat="48.43766" lon="2.70587">
        <ele>136</ele>
        <time>2021-05-30T08:16:44Z</time>
      </trkpt>
      <trkpt lat="48.43764" lon="2.70587">
        <ele>136.3</ele>
        <time>2021-05-30T08:16:45Z</time>
      </trkpt>
      <trkpt lat="48.43763" lon="2.70587">
        <ele>136.5</ele>
        <time>2021-05-30T08:16:46Z</time>
      </trkpt>
      <trkpt lat="48.43762" lon="2.70588">
        <ele>136.7</ele>
        <time>2021-05-30T08:16:47Z</time>
      </trkpt>
      <trkpt lat="48.43761" lon="2.70588">
        <ele>136.9</ele>
        <time>2021-05-30T08:16:48Z</time>
      </trkpt>
      <trkpt lat="48.43759" lon="2.70588">
        <ele>137.2</ele>
        <time>2021-05-30T08:16:49Z</time>
      </trkpt>
      <trkpt lat="48.43757" lon="2.70586">
        <ele>137.6</ele>
        <time>2021-05-30T08:16:50Z</time>
      </trkpt>
      <trkpt lat="48.43729" lon="2.70582">
        <ele>140.2</ele>
        <time>2021-05-30T08:17:01Z</time>
      </trkpt>
      <trkpt lat="48.43713" lon="2.70616">
        <ele>140.2</ele>
        <time>2021-05-30T08:17:10Z</time>
      </trkpt>
      <trkpt lat="48.43698" lon="2.70666">
        <ele>139.8</ele>
        <time>2021-05-30T08:17:21Z</time>
      </trkpt>
      <trkpt lat="48.43692" lon="2.70718">
        <ele>140.2</ele>
        <time>2021-05-30T08:17:32Z</time>
      </trkpt>
      <trkpt lat="48.43719" lon="2.70744">
        <ele>138.3</ele>
        <time>2021-05-30T08:17:42Z</time>
      </trkpt>
      <trkpt lat="48.4375" lon="2.70759">
        <ele>136</ele>
        <time>2021-05-30T08:17:52Z</time>
      </trkpt>
      <trkpt lat="48.43772" lon="2.70787">
        <ele>132.5</ele>
        <time>2021-05-30T08:18:02Z</time>
      </trkpt>
      <trkpt lat="48.43777" lon="2.70803">
        <ele>131.9</ele>
        <time>2021-05-30T08:18:06Z</time>
      </trkpt>
      <trkpt lat="48.43777" lon="2.70808">
        <ele>132</ele>
        <time>2021-05-30T08:18:07Z</time>
      </trkpt>
      <trkpt lat="48.43775" lon="2.70813">
        <ele>132.2</ele>
        <time>2021-05-30T08:18:08Z</time>
      </trkpt>
      <trkpt lat="48.43774" lon="2.70818">
        <ele>132.4</ele>
        <time>2021-05-30T08:18:09Z</time>
      </trkpt>
      <trkpt lat="48.43772" lon="2.70822">
        <ele>132.8</ele>
        <time>2021-05-30T08:18:10Z</time>
      </trkpt>
      <trkpt lat="48.4377" lon="2.70826">
        <ele>133</ele>
        <time>2021-05-30T08:18:11Z</time>
      </trkpt>
      <trkpt lat="48.43755" lon="2.70837">
        <ele>134.9</ele>
        <time>2021-05-30T08:18:16Z</time>
      </trkpt>
      <trkpt lat="48.43752" lon="2.70837">
        <ele>135.5</ele>
        <time>2021-05-30T08:18:17Z</time>
      </trkpt>
      <trkpt lat="48.43748" lon="2.70836">
        <ele>135.9</ele>
        <time>2021-05-30T08:18:18Z</time>
      </trkpt>
      <trkpt lat="48.43745" lon="2.70834">
        <ele>136.3</ele>
        <time>2021-05-30T08:18:19Z</time>
      </trkpt>
      <trkpt lat="48.43742" lon="2.70833">
        <ele>136.6</ele>
        <time>2021-05-30T08:18:20Z</time>
      </trkpt>
      <trkpt lat="48.43739" lon="2.70831">
        <ele>136.8</ele>
        <time>2021-05-30T08:18:21Z</time>
      </trkpt>
      <trkpt lat="48.43735" lon="2.7083">
        <ele>137.1</ele>
        <time>2021-05-30T08:18:22Z</time>
      </trkpt>
      <trkpt lat="48.43732" lon="2.7083">
        <ele>137.3</ele>
        <time>2021-05-30T08:18:23Z</time>
      </trkpt>
      <trkpt lat="48.43693" lon="2.70845">
        <ele>139.1</ele>
        <time>2021-05-30T08:18:34Z</time>
      </trkpt>
      <trkpt lat="48.43679" lon="2.70876">
        <ele>137.6</ele>
        <time>2021-05-30T08:18:41Z</time>
      </trkpt>
      <trkpt lat="48.43667" lon="2.70897">
        <ele>136.6</ele>
        <time>2021-05-30T08:18:45Z</time>
      </trkpt>
      <trkpt lat="48.43625" lon="2.70977">
        <ele>130.4</ele>
        <time>2021-05-30T08:18:56Z</time>
      </trkpt>
      <trkpt lat="48.43611" lon="2.71002">
        <ele>129.1</ele>
        <time>2021-05-30T08:18:59Z</time>
      </trkpt>
      <trkpt lat="48.43607" lon="2.71012">
        <ele>128.4</ele>
        <time>2021-05-30T08:19:00Z</time>
      </trkpt>
      <trkpt lat="48.43593" lon="2.71039">
        <ele>126.5</ele>
        <time>2021-05-30T08:19:03Z</time>
      </trkpt>
      <trkpt lat="48.43588" lon="2.71046">
        <ele>126.2</ele>
        <time>2021-05-30T08:19:04Z</time>
      </trkpt>
      <trkpt lat="48.43583" lon="2.71052">
        <ele>126</ele>
        <time>2021-05-30T08:19:05Z</time>
      </trkpt>
      <trkpt lat="48.4357" lon="2.71061">
        <ele>124.6</ele>
        <time>2021-05-30T08:19:07Z</time>
      </trkpt>
      <trkpt lat="48.43525" lon="2.71084">
        <ele>121.6</ele>
        <time>2021-05-30T08:19:14Z</time>
      </trkpt>
      <trkpt lat="48.4352" lon="2.71083">
        <ele>121.5</ele>
        <time>2021-05-30T08:19:15Z</time>
      </trkpt>
      <trkpt lat="48.43514" lon="2.71081">
        <ele>121.4</ele>
        <time>2021-05-30T08:19:16Z</time>
      </trkpt>
      <trkpt lat="48.43508" lon="2.71075">
        <ele>121.5</ele>
        <time>2021-05-30T08:19:17Z</time>
      </trkpt>
      <trkpt lat="48.43503" lon="2.71069">
        <ele>121.6</ele>
        <time>2021-05-30T08:19:18Z</time>
      </trkpt>
      <trkpt lat="48.43493" lon="2.71056">
        <ele>122.4</ele>
        <time>2021-05-30T08:19:20Z</time>
      </trkpt>
      <trkpt lat="48.43488" lon="2.71051">
        <ele>122.8</ele>
        <time>2021-05-30T08:19:21Z</time>
      </trkpt>
      <trkpt lat="48.43484" lon="2.71049">
        <ele>123.2</ele>
        <time>2021-05-30T08:19:22Z</time>
      </trkpt>
      <trkpt lat="48.4348" lon="2.7105">
        <ele>123.3</ele>
        <time>2021-05-30T08:19:23Z</time>
      </trkpt>
      <trkpt lat="48.43478" lon="2.71054">
        <ele>123.4</ele>
        <time>2021-05-30T08:19:24Z</time>
      </trkpt>
      <trkpt lat="48.43476" lon="2.7106">
        <ele>123.3</ele>
        <time>2021-05-30T08:19:25Z</time>
      </trkpt>
      <trkpt lat="48.43475" lon="2.71067">
        <ele>123.2</ele>
        <time>2021-05-30T08:19:26Z</time>
      </trkpt>
      <trkpt lat="48.43466" lon="2.71117">
        <ele>123.3</ele>
        <time>2021-05-30T08:19:33Z</time>
      </trkpt>
      <trkpt lat="48.43465" lon="2.71124">
        <ele>123.4</ele>
        <time>2021-05-30T08:19:34Z</time>
      </trkpt>
      <trkpt lat="48.43463" lon="2.71136">
        <ele>123.6</ele>
        <time>2021-05-30T08:19:36Z</time>
      </trkpt>
      <trkpt lat="48.43461" lon="2.71142">
        <ele>123.7</ele>
        <time>2021-05-30T08:19:37Z</time>
      </trkpt>
      <trkpt lat="48.4346" lon="2.71147">
        <ele>123.8</ele>
        <time>2021-05-30T08:19:38Z</time>
      </trkpt>
      <trkpt lat="48.43459" lon="2.71153">
        <ele>123.9</ele>
        <time>2021-05-30T08:19:39Z</time>
      </trkpt>
      <trkpt lat="48.43458" lon="2.71158">
        <ele>124.1</ele>
        <time>2021-05-30T08:19:40Z</time>
      </trkpt>
      <trkpt lat="48.43457" lon="2.71164">
        <ele>124.1</ele>
        <time>2021-05-30T08:19:41Z</time>
      </trkpt>
      <trkpt lat="48.43456" lon="2.7117">
        <ele>124.2</ele>
        <time>2021-05-30T08:19:42Z</time>
      </trkpt>
      <trkpt lat="48.43455" lon="2.71176">
        <ele>124.2</ele>
        <time>2021-05-30T08:19:43Z</time>
      </trkpt>
      <trkpt lat="48.43454" lon="2.71181">
        <ele>124.1</ele>
        <time>2021-05-30T08:19:44Z</time>
      </trkpt>
      <trkpt lat="48.43453" lon="2.71187">
        <ele>124.1</ele>
        <time>2021-05-30T08:19:45Z</time>
      </trkpt>
      <trkpt lat="48.43452" lon="2.71193">
        <ele>124.1</ele>
        <time>2021-05-30T08:19:46Z</time>
      </trkpt>
      <trkpt lat="48.43451" lon="2.71199">
        <ele>124.1</ele>
        <time>2021-05-30T08:19:47Z</time>
      </trkpt>
      <trkpt lat="48.43442" lon="2.71249">
        <ele>123.9</ele>
        <time>2021-05-30T08:19:57Z</time>
      </trkpt>
      <trkpt lat="48.43441" lon="2.71258">
        <ele>123.6</ele>
        <time>2021-05-30T08:19:59Z</time>
      </trkpt>
      <trkpt lat="48.4344" lon="2.71263">
        <ele>123.5</ele>
        <time>2021-05-30T08:20:00Z</time>
      </trkpt>
      <trkpt lat="48.43433" lon="2.71312">
        <ele>121.2</ele>
        <time>2021-05-30T08:20:11Z</time>
      </trkpt>
      <trkpt lat="48.43428" lon="2.71335">
        <ele>120.2</ele>
        <time>2021-05-30T08:20:20Z</time>
      </trkpt>
      <trkpt lat="48.43427" lon="2.71356">
        <ele>120</ele>
        <time>2021-05-30T08:20:28Z</time>
      </trkpt>
      <trkpt lat="48.43427" lon="2.7136">
        <ele>120</ele>
        <time>2021-05-30T08:20:37Z</time>
      </trkpt>
      <trkpt lat="48.43427" lon="2.71362">
        <ele>119.9</ele>
        <time>2021-05-30T08:20:38Z</time>
      </trkpt>
      <trkpt lat="48.43427" lon="2.71366">
        <ele>119.9</ele>
        <time>2021-05-30T08:20:39Z</time>
      </trkpt>
      <trkpt lat="48.43428" lon="2.71371">
        <ele>119.8</ele>
        <time>2021-05-30T08:20:40Z</time>
      </trkpt>
      <trkpt lat="48.43428" lon="2.71374">
        <ele>119.8</ele>
        <time>2021-05-30T08:20:41Z</time>
      </trkpt>
      <trkpt lat="48.43427" lon="2.71378">
        <ele>119.8</ele>
        <time>2021-05-30T08:20:42Z</time>
      </trkpt>
      <trkpt lat="48.43426" lon="2.71382">
        <ele>119.8</ele>
        <time>2021-05-30T08:20:43Z</time>
      </trkpt>
      <trkpt lat="48.43425" lon="2.71387">
        <ele>119.8</ele>
        <time>2021-05-30T08:20:44Z</time>
      </trkpt>
      <trkpt lat="48.43423" lon="2.71391">
        <ele>119.9</ele>
        <time>2021-05-30T08:20:45Z</time>
      </trkpt>
      <trkpt lat="48.43423" lon="2.71397">
        <ele>119.9</ele>
        <time>2021-05-30T08:20:46Z</time>
      </trkpt>
      <trkpt lat="48.43423" lon="2.71402">
        <ele>119.8</ele>
        <time>2021-05-30T08:20:47Z</time>
      </trkpt>
      <trkpt lat="48.43423" lon="2.71407">
        <ele>119.7</ele>
        <time>2021-05-30T08:20:48Z</time>
      </trkpt>
      <trkpt lat="48.43422" lon="2.71411">
        <ele>119.7</ele>
        <time>2021-05-30T08:20:49Z</time>
      </trkpt>
      <trkpt lat="48.43421" lon="2.71415">
        <ele>119.8</ele>
        <time>2021-05-30T08:20:50Z</time>
      </trkpt>
      <trkpt lat="48.4342" lon="2.71421">
        <ele>119.8</ele>
        <time>2021-05-30T08:20:51Z</time>
      </trkpt>
      <trkpt lat="48.43419" lon="2.71425">
        <ele>119.8</ele>
        <time>2021-05-30T08:20:52Z</time>
      </trkpt>
      <trkpt lat="48.43418" lon="2.7143">
        <ele>119.8</ele>
        <time>2021-05-30T08:20:53Z</time>
      </trkpt>
      <trkpt lat="48.4341" lon="2.71485">
        <ele>119.1</ele>
        <time>2021-05-30T08:21:03Z</time>
      </trkpt>
      <trkpt lat="48.434" lon="2.71533">
        <ele>117.7</ele>
        <time>2021-05-30T08:21:13Z</time>
      </trkpt>
      <trkpt lat="48.43394" lon="2.71592">
        <ele>116.2</ele>
        <time>2021-05-30T08:21:25Z</time>
      </trkpt>
      <trkpt lat="48.43384" lon="2.71662">
        <ele>115.8</ele>
        <time>2021-05-30T08:21:36Z</time>
      </trkpt>
      <trkpt lat="48.43381" lon="2.71683">
        <ele>115.6</ele>
        <time>2021-05-30T08:21:39Z</time>
      </trkpt>
      <trkpt lat="48.4338" lon="2.7169">
        <ele>115.5</ele>
        <time>2021-05-30T08:21:40Z</time>
      </trkpt>
      <trkpt lat="48.43374" lon="2.71731">
        <ele>115.1</ele>
        <time>2021-05-30T08:21:46Z</time>
      </trkpt>
      <trkpt lat="48.43373" lon="2.71738">
        <ele>115.1</ele>
        <time>2021-05-30T08:21:47Z</time>
      </trkpt>
      <trkpt lat="48.43372" lon="2.71744">
        <ele>115</ele>
        <time>2021-05-30T08:21:48Z</time>
      </trkpt>
      <trkpt lat="48.43368" lon="2.7177">
        <ele>115</ele>
        <time>2021-05-30T08:21:52Z</time>
      </trkpt>
      <trkpt lat="48.43367" lon="2.71777">
        <ele>115</ele>
        <time>2021-05-30T08:21:53Z</time>
      </trkpt>
      <trkpt lat="48.43363" lon="2.71811">
        <ele>115</ele>
        <time>2021-05-30T08:21:58Z</time>
      </trkpt>
      <trkpt lat="48.43358" lon="2.71838">
        <ele>115.1</ele>
        <time>2021-05-30T08:22:02Z</time>
      </trkpt>
      <trkpt lat="48.43357" lon="2.71845">
        <ele>115.2</ele>
        <time>2021-05-30T08:22:03Z</time>
      </trkpt>
      <trkpt lat="48.43353" lon="2.71874">
        <ele>115.7</ele>
        <time>2021-05-30T08:22:07Z</time>
      </trkpt>
      <trkpt lat="48.4335" lon="2.71893">
        <ele>116.2</ele>
        <time>2021-05-30T08:22:10Z</time>
      </trkpt>
      <trkpt lat="48.43348" lon="2.719">
        <ele>116.3</ele>
        <time>2021-05-30T08:22:11Z</time>
      </trkpt>
      <trkpt lat="48.43348" lon="2.71906">
        <ele>116.5</ele>
        <time>2021-05-30T08:22:12Z</time>
      </trkpt>
      <trkpt lat="48.43341" lon="2.71955">
        <ele>118.5</ele>
        <time>2021-05-30T08:22:19Z</time>
      </trkpt>
      <trkpt lat="48.4334" lon="2.71962">
        <ele>118.9</ele>
        <time>2021-05-30T08:22:20Z</time>
      </trkpt>
      <trkpt lat="48.43339" lon="2.71969">
        <ele>119.2</ele>
        <time>2021-05-30T08:22:21Z</time>
      </trkpt>
      <trkpt lat="48.43337" lon="2.71976">
        <ele>119.6</ele>
        <time>2021-05-30T08:22:22Z</time>
      </trkpt>
      <trkpt lat="48.43336" lon="2.71983">
        <ele>120</ele>
        <time>2021-05-30T08:22:23Z</time>
      </trkpt>
      <trkpt lat="48.43333" lon="2.72015">
        <ele>120.9</ele>
        <time>2021-05-30T08:22:28Z</time>
      </trkpt>
      <trkpt lat="48.43331" lon="2.72021">
        <ele>120.9</ele>
        <time>2021-05-30T08:22:29Z</time>
      </trkpt>
      <trkpt lat="48.43331" lon="2.72026">
        <ele>120.9</ele>
        <time>2021-05-30T08:22:30Z</time>
      </trkpt>
      <trkpt lat="48.43331" lon="2.72032">
        <ele>120.8</ele>
        <time>2021-05-30T08:22:31Z</time>
      </trkpt>
      <trkpt lat="48.4333" lon="2.72037">
        <ele>120.8</ele>
        <time>2021-05-30T08:22:32Z</time>
      </trkpt>
      <trkpt lat="48.43329" lon="2.72043">
        <ele>120.8</ele>
        <time>2021-05-30T08:22:33Z</time>
      </trkpt>
      <trkpt lat="48.43327" lon="2.72049">
        <ele>120.8</ele>
        <time>2021-05-30T08:22:34Z</time>
      </trkpt>
      <trkpt lat="48.43326" lon="2.72055">
        <ele>120.8</ele>
        <time>2021-05-30T08:22:35Z</time>
      </trkpt>
      <trkpt lat="48.43325" lon="2.72062">
        <ele>120.8</ele>
        <time>2021-05-30T08:22:36Z</time>
      </trkpt>
      <trkpt lat="48.43325" lon="2.72069">
        <ele>120.8</ele>
        <time>2021-05-30T08:22:37Z</time>
      </trkpt>
      <trkpt lat="48.43324" lon="2.72075">
        <ele>120.8</ele>
        <time>2021-05-30T08:22:38Z</time>
      </trkpt>
      <trkpt lat="48.43317" lon="2.72124">
        <ele>120.8</ele>
        <time>2021-05-30T08:22:47Z</time>
      </trkpt>
      <trkpt lat="48.43315" lon="2.7213">
        <ele>120.8</ele>
        <time>2021-05-30T08:22:48Z</time>
      </trkpt>
      <trkpt lat="48.43303" lon="2.72169">
        <ele>121.7</ele>
        <time>2021-05-30T08:22:56Z</time>
      </trkpt>
      <trkpt lat="48.43299" lon="2.72187">
        <ele>122.7</ele>
        <time>2021-05-30T08:23:00Z</time>
      </trkpt>
      <trkpt lat="48.43299" lon="2.7219">
        <ele>122.8</ele>
        <time>2021-05-30T08:23:01Z</time>
      </trkpt>
      <trkpt lat="48.43299" lon="2.72193">
        <ele>123</ele>
        <time>2021-05-30T08:23:02Z</time>
      </trkpt>
      <trkpt lat="48.43298" lon="2.72196">
        <ele>123.1</ele>
        <time>2021-05-30T08:23:03Z</time>
      </trkpt>
      <trkpt lat="48.43297" lon="2.72199">
        <ele>123.3</ele>
        <time>2021-05-30T08:23:04Z</time>
      </trkpt>
      <trkpt lat="48.43296" lon="2.72204">
        <ele>123.6</ele>
        <time>2021-05-30T08:23:05Z</time>
      </trkpt>
      <trkpt lat="48.43295" lon="2.72209">
        <ele>123.8</ele>
        <time>2021-05-30T08:23:06Z</time>
      </trkpt>
      <trkpt lat="48.43293" lon="2.72215">
        <ele>124.2</ele>
        <time>2021-05-30T08:23:07Z</time>
      </trkpt>
      <trkpt lat="48.43291" lon="2.72222">
        <ele>124.6</ele>
        <time>2021-05-30T08:23:08Z</time>
      </trkpt>
      <trkpt lat="48.43288" lon="2.72229">
        <ele>124.9</ele>
        <time>2021-05-30T08:23:09Z</time>
      </trkpt>
      <trkpt lat="48.43285" lon="2.72236">
        <ele>125.3</ele>
        <time>2021-05-30T08:23:10Z</time>
      </trkpt>
      <trkpt lat="48.43283" lon="2.72244">
        <ele>125.6</ele>
        <time>2021-05-30T08:23:11Z</time>
      </trkpt>
      <trkpt lat="48.43281" lon="2.7225">
        <ele>125.9</ele>
        <time>2021-05-30T08:23:12Z</time>
      </trkpt>
      <trkpt lat="48.43281" lon="2.72255">
        <ele>125.9</ele>
        <time>2021-05-30T08:23:13Z</time>
      </trkpt>
      <trkpt lat="48.43279" lon="2.7226">
        <ele>125.9</ele>
        <time>2021-05-30T08:23:14Z</time>
      </trkpt>
      <trkpt lat="48.43278" lon="2.72265">
        <ele>125.9</ele>
        <time>2021-05-30T08:23:15Z</time>
      </trkpt>
      <trkpt lat="48.43264" lon="2.72303">
        <ele>125.6</ele>
        <time>2021-05-30T08:23:22Z</time>
      </trkpt>
      <trkpt lat="48.43263" lon="2.72309">
        <ele>125.6</ele>
        <time>2021-05-30T08:23:23Z</time>
      </trkpt>
      <trkpt lat="48.43262" lon="2.72313">
        <ele>125.5</ele>
        <time>2021-05-30T08:23:24Z</time>
      </trkpt>
      <trkpt lat="48.43239" lon="2.72388">
        <ele>123.8</ele>
        <time>2021-05-30T08:23:37Z</time>
      </trkpt>
      <trkpt lat="48.43234" lon="2.72403">
        <ele>123.7</ele>
        <time>2021-05-30T08:23:39Z</time>
      </trkpt>
      <trkpt lat="48.43226" lon="2.72428">
        <ele>123.1</ele>
        <time>2021-05-30T08:23:43Z</time>
      </trkpt>
      <trkpt lat="48.43223" lon="2.72435">
        <ele>123</ele>
        <time>2021-05-30T08:23:44Z</time>
      </trkpt>
      <trkpt lat="48.43207" lon="2.72494">
        <ele>120.9</ele>
        <time>2021-05-30T08:23:51Z</time>
      </trkpt>
      <trkpt lat="48.43204" lon="2.72502">
        <ele>120.7</ele>
        <time>2021-05-30T08:23:52Z</time>
      </trkpt>
      <trkpt lat="48.43196" lon="2.72526">
        <ele>119.9</ele>
        <time>2021-05-30T08:23:55Z</time>
      </trkpt>
      <trkpt lat="48.43194" lon="2.72531">
        <ele>119.7</ele>
        <time>2021-05-30T08:23:56Z</time>
      </trkpt>
      <trkpt lat="48.43192" lon="2.72537">
        <ele>119.5</ele>
        <time>2021-05-30T08:23:57Z</time>
      </trkpt>
      <trkpt lat="48.43192" lon="2.72543">
        <ele>119.2</ele>
        <time>2021-05-30T08:23:58Z</time>
      </trkpt>
      <trkpt lat="48.43192" lon="2.72548">
        <ele>118.9</ele>
        <time>2021-05-30T08:23:59Z</time>
      </trkpt>
      <trkpt lat="48.43195" lon="2.72551">
        <ele>118.7</ele>
        <time>2021-05-30T08:24:00Z</time>
      </trkpt>
      <trkpt lat="48.43196" lon="2.72551">
        <ele>118.6</ele>
        <time>2021-05-30T08:24:01Z</time>
      </trkpt>
      <trkpt lat="48.43199" lon="2.7255">
        <ele>118.6</ele>
        <time>2021-05-30T08:24:02Z</time>
      </trkpt>
      <trkpt lat="48.432" lon="2.72548">
        <ele>118.6</ele>
        <time>2021-05-30T08:24:03Z</time>
      </trkpt>
      <trkpt lat="48.43203" lon="2.72545">
        <ele>118.6</ele>
        <time>2021-05-30T08:24:04Z</time>
      </trkpt>
      <trkpt lat="48.43211" lon="2.72529">
        <ele>118.9</ele>
        <time>2021-05-30T08:24:08Z</time>
      </trkpt>
      <trkpt lat="48.43214" lon="2.72525">
        <ele>119</ele>
        <time>2021-05-30T08:24:09Z</time>
      </trkpt>
      <trkpt lat="48.43221" lon="2.72514">
        <ele>119.1</ele>
        <time>2021-05-30T08:24:11Z</time>
      </trkpt>
      <trkpt lat="48.43235" lon="2.72495">
        <ele>119.2</ele>
        <time>2021-05-30T08:24:15Z</time>
      </trkpt>
      <trkpt lat="48.43249" lon="2.72472">
        <ele>119.4</ele>
        <time>2021-05-30T08:24:20Z</time>
      </trkpt>
      <trkpt lat="48.43252" lon="2.72468">
        <ele>119.6</ele>
        <time>2021-05-30T08:24:21Z</time>
      </trkpt>
      <trkpt lat="48.43293" lon="2.72444">
        <ele>123.1</ele>
        <time>2021-05-30T08:24:33Z</time>
      </trkpt>
      <trkpt lat="48.43323" lon="2.72467">
        <ele>124.2</ele>
        <time>2021-05-30T08:24:44Z</time>
      </trkpt>
      <trkpt lat="48.43338" lon="2.72505">
        <ele>124.2</ele>
        <time>2021-05-30T08:24:55Z</time>
      </trkpt>
      <trkpt lat="48.4335" lon="2.72556">
        <ele>123.8</ele>
        <time>2021-05-30T08:25:09Z</time>
      </trkpt>
      <trkpt lat="48.43354" lon="2.72608">
        <ele>122.9</ele>
        <time>2021-05-30T08:25:21Z</time>
      </trkpt>
      <trkpt lat="48.43359" lon="2.72645">
        <ele>122.4</ele>
        <time>2021-05-30T08:25:30Z</time>
      </trkpt>
      <trkpt lat="48.43375" lon="2.72663">
        <ele>123.1</ele>
        <time>2021-05-30T08:25:37Z</time>
      </trkpt>
      <trkpt lat="48.43378" lon="2.72663">
        <ele>123.3</ele>
        <time>2021-05-30T08:25:38Z</time>
      </trkpt>
      <trkpt lat="48.43381" lon="2.72661">
        <ele>123.6</ele>
        <time>2021-05-30T08:25:39Z</time>
      </trkpt>
      <trkpt lat="48.43402" lon="2.72622">
        <ele>126</ele>
        <time>2021-05-30T08:25:51Z</time>
      </trkpt>
      <trkpt lat="48.43402" lon="2.72607">
        <ele>126.4</ele>
        <time>2021-05-30T08:25:57Z</time>
      </trkpt>
      <trkpt lat="48.43384" lon="2.72599">
        <ele>125.3</ele>
        <time>2021-05-30T08:26:09Z</time>
      </trkpt>
      <trkpt lat="48.43384" lon="2.72599">
        <ele>125.3</ele>
        <time>2021-05-30T08:26:23Z</time>
      </trkpt>
      <trkpt lat="48.43383" lon="2.72598">
        <ele>125.2</ele>
        <time>2021-05-30T08:26:58Z</time>
      </trkpt>
      <trkpt lat="48.43385" lon="2.72597">
        <ele>125.4</ele>
        <time>2021-05-30T08:27:31Z</time>
      </trkpt>
      <trkpt lat="48.43385" lon="2.72597">
        <ele>125.4</ele>
        <time>2021-05-30T08:28:07Z</time>
      </trkpt>
      <trkpt lat="48.43385" lon="2.72598">
        <ele>125.4</ele>
        <time>2021-05-30T08:28:41Z</time>
      </trkpt>
      <trkpt lat="48.43385" lon="2.72597">
        <ele>125.4</ele>
        <time>2021-05-30T08:29:12Z</time>
      </trkpt>
      <trkpt lat="48.43385" lon="2.72598">
        <ele>125.3</ele>
        <time>2021-05-30T08:29:44Z</time>
      </trkpt>
      <trkpt lat="48.43384" lon="2.72598">
        <ele>125.3</ele>
        <time>2021-05-30T08:30:16Z</time>
      </trkpt>
      <trkpt lat="48.43383" lon="2.72599">
        <ele>125.2</ele>
        <time>2021-05-30T08:30:50Z</time>
      </trkpt>
      <trkpt lat="48.43383" lon="2.72597">
        <ele>125.3</ele>
        <time>2021-05-30T08:31:31Z</time>
      </trkpt>
      <trkpt lat="48.43384" lon="2.72597">
        <ele>125.3</ele>
        <time>2021-05-30T08:32:02Z</time>
      </trkpt>
      <trkpt lat="48.43385" lon="2.72597">
        <ele>125.4</ele>
        <time>2021-05-30T08:32:25Z</time>
      </trkpt>
      <trkpt lat="48.43386" lon="2.72593">
        <ele>125.6</ele>
        <time>2021-05-30T08:32:37Z</time>
      </trkpt>
      <trkpt lat="48.43389" lon="2.72593">
        <ele>125.7</ele>
        <time>2021-05-30T08:32:41Z</time>
      </trkpt>
      <trkpt lat="48.4339" lon="2.72593">
        <ele>125.9</ele>
        <time>2021-05-30T08:32:42Z</time>
      </trkpt>
      <trkpt lat="48.43392" lon="2.72594">
        <ele>126</ele>
        <time>2021-05-30T08:32:43Z</time>
      </trkpt>
      <trkpt lat="48.43394" lon="2.72596">
        <ele>126.1</ele>
        <time>2021-05-30T08:32:44Z</time>
      </trkpt>
      <trkpt lat="48.43396" lon="2.72599">
        <ele>126.2</ele>
        <time>2021-05-30T08:32:45Z</time>
      </trkpt>
      <trkpt lat="48.43398" lon="2.72603">
        <ele>126.2</ele>
        <time>2021-05-30T08:32:46Z</time>
      </trkpt>
      <trkpt lat="48.43401" lon="2.72627">
        <ele>125.8</ele>
        <time>2021-05-30T08:32:50Z</time>
      </trkpt>
      <trkpt lat="48.434" lon="2.72634">
        <ele>125.6</ele>
        <time>2021-05-30T08:32:51Z</time>
      </trkpt>
      <trkpt lat="48.43398" lon="2.72642">
        <ele>125.2</ele>
        <time>2021-05-30T08:32:52Z</time>
      </trkpt>
      <trkpt lat="48.43394" lon="2.7265">
        <ele>124.8</ele>
        <time>2021-05-30T08:32:53Z</time>
      </trkpt>
      <trkpt lat="48.4339" lon="2.72656">
        <ele>124.3</ele>
        <time>2021-05-30T08:32:54Z</time>
      </trkpt>
      <trkpt lat="48.43385" lon="2.72661">
        <ele>123.8</ele>
        <time>2021-05-30T08:32:55Z</time>
      </trkpt>
      <trkpt lat="48.43379" lon="2.72663">
        <ele>123.4</ele>
        <time>2021-05-30T08:32:56Z</time>
      </trkpt>
      <trkpt lat="48.43374" lon="2.72664">
        <ele>123</ele>
        <time>2021-05-30T08:32:57Z</time>
      </trkpt>
      <trkpt lat="48.43369" lon="2.72663">
        <ele>122.6</ele>
        <time>2021-05-30T08:32:58Z</time>
      </trkpt>
      <trkpt lat="48.43364" lon="2.7266">
        <ele>122.4</ele>
        <time>2021-05-30T08:32:59Z</time>
      </trkpt>
      <trkpt lat="48.43361" lon="2.72657">
        <ele>122.2</ele>
        <time>2021-05-30T08:33:00Z</time>
      </trkpt>
      <trkpt lat="48.43358" lon="2.72654">
        <ele>122.1</ele>
        <time>2021-05-30T08:33:01Z</time>
      </trkpt>
      <trkpt lat="48.43348" lon="2.72608">
        <ele>122.5</ele>
        <time>2021-05-30T08:33:09Z</time>
      </trkpt>
      <trkpt lat="48.43351" lon="2.7259">
        <ele>123.1</ele>
        <time>2021-05-30T08:33:11Z</time>
      </trkpt>
      <trkpt lat="48.4335" lon="2.72568">
        <ele>123.6</ele>
        <time>2021-05-30T08:33:14Z</time>
      </trkpt>
      <trkpt lat="48.43349" lon="2.72554">
        <ele>123.8</ele>
        <time>2021-05-30T08:33:16Z</time>
      </trkpt>
      <trkpt lat="48.43348" lon="2.72547">
        <ele>123.9</ele>
        <time>2021-05-30T08:33:17Z</time>
      </trkpt>
      <trkpt lat="48.43347" lon="2.72539">
        <ele>124</ele>
        <time>2021-05-30T08:33:18Z</time>
      </trkpt>
      <trkpt lat="48.43346" lon="2.72531">
        <ele>124.2</ele>
        <time>2021-05-30T08:33:19Z</time>
      </trkpt>
      <trkpt lat="48.43345" lon="2.72523">
        <ele>124.3</ele>
        <time>2021-05-30T08:33:20Z</time>
      </trkpt>
      <trkpt lat="48.43343" lon="2.72515">
        <ele>124.3</ele>
        <time>2021-05-30T08:33:21Z</time>
      </trkpt>
      <trkpt lat="48.43341" lon="2.72507">
        <ele>124.3</ele>
        <time>2021-05-30T08:33:22Z</time>
      </trkpt>
      <trkpt lat="48.4333" lon="2.72472">
        <ele>124.4</ele>
        <time>2021-05-30T08:33:27Z</time>
      </trkpt>
      <trkpt lat="48.43326" lon="2.72464">
        <ele>124.4</ele>
        <time>2021-05-30T08:33:28Z</time>
      </trkpt>
      <trkpt lat="48.43322" lon="2.72456">
        <ele>124.4</ele>
        <time>2021-05-30T08:33:29Z</time>
      </trkpt>
      <trkpt lat="48.43312" lon="2.72442">
        <ele>124.2</ele>
        <time>2021-05-30T08:33:31Z</time>
      </trkpt>
      <trkpt lat="48.43306" lon="2.72437">
        <ele>124.1</ele>
        <time>2021-05-30T08:33:32Z</time>
      </trkpt>
      <trkpt lat="48.43299" lon="2.72434">
        <ele>123.8</ele>
        <time>2021-05-30T08:33:33Z</time>
      </trkpt>
      <trkpt lat="48.43292" lon="2.72435">
        <ele>123.4</ele>
        <time>2021-05-30T08:33:34Z</time>
      </trkpt>
      <trkpt lat="48.43286" lon="2.72437">
        <ele>123</ele>
        <time>2021-05-30T08:33:35Z</time>
      </trkpt>
      <trkpt lat="48.43279" lon="2.72441">
        <ele>122.4</ele>
        <time>2021-05-30T08:33:36Z</time>
      </trkpt>
      <trkpt lat="48.43271" lon="2.72448">
        <ele>121.7</ele>
        <time>2021-05-30T08:33:37Z</time>
      </trkpt>
      <trkpt lat="48.43232" lon="2.72507">
        <ele>118.8</ele>
        <time>2021-05-30T08:33:44Z</time>
      </trkpt>
      <trkpt lat="48.43223" lon="2.72517">
        <ele>118.9</ele>
        <time>2021-05-30T08:33:46Z</time>
      </trkpt>
      <trkpt lat="48.43219" lon="2.72524">
        <ele>118.8</ele>
        <time>2021-05-30T08:33:47Z</time>
      </trkpt>
      <trkpt lat="48.43215" lon="2.72529">
        <ele>118.7</ele>
        <time>2021-05-30T08:33:48Z</time>
      </trkpt>
      <trkpt lat="48.43212" lon="2.72535">
        <ele>118.6</ele>
        <time>2021-05-30T08:33:49Z</time>
      </trkpt>
      <trkpt lat="48.43209" lon="2.72541">
        <ele>118.5</ele>
        <time>2021-05-30T08:33:50Z</time>
      </trkpt>
      <trkpt lat="48.43205" lon="2.72547">
        <ele>118.4</ele>
        <time>2021-05-30T08:33:51Z</time>
      </trkpt>
      <trkpt lat="48.43195" lon="2.72589">
        <ele>116.7</ele>
        <time>2021-05-30T08:33:59Z</time>
      </trkpt>
      <trkpt lat="48.43196" lon="2.72601">
        <ele>116.2</ele>
        <time>2021-05-30T08:34:02Z</time>
      </trkpt>
      <trkpt lat="48.43196" lon="2.72618">
        <ele>115.4</ele>
        <time>2021-05-30T08:34:05Z</time>
      </trkpt>
      <trkpt lat="48.43197" lon="2.72625">
        <ele>115.1</ele>
        <time>2021-05-30T08:34:06Z</time>
      </trkpt>
      <trkpt lat="48.4321" lon="2.72677">
        <ele>112.7</ele>
        <time>2021-05-30T08:34:13Z</time>
      </trkpt>
      <trkpt lat="48.43213" lon="2.72685">
        <ele>112.4</ele>
        <time>2021-05-30T08:34:14Z</time>
      </trkpt>
      <trkpt lat="48.43216" lon="2.72693">
        <ele>112.1</ele>
        <time>2021-05-30T08:34:15Z</time>
      </trkpt>
      <trkpt lat="48.43229" lon="2.7273">
        <ele>111.2</ele>
        <time>2021-05-30T08:34:21Z</time>
      </trkpt>
      <trkpt lat="48.4323" lon="2.72732">
        <ele>111.1</ele>
        <time>2021-05-30T08:34:22Z</time>
      </trkpt>
      <trkpt lat="48.4323" lon="2.72735">
        <ele>111.1</ele>
        <time>2021-05-30T08:34:23Z</time>
      </trkpt>
      <trkpt lat="48.43231" lon="2.72738">
        <ele>111</ele>
        <time>2021-05-30T08:34:24Z</time>
      </trkpt>
      <trkpt lat="48.43233" lon="2.72741">
        <ele>111</ele>
        <time>2021-05-30T08:34:25Z</time>
      </trkpt>
      <trkpt lat="48.43236" lon="2.72745">
        <ele>110.9</ele>
        <time>2021-05-30T08:34:26Z</time>
      </trkpt>
      <trkpt lat="48.4324" lon="2.72748">
        <ele>110.9</ele>
        <time>2021-05-30T08:34:27Z</time>
      </trkpt>
      <trkpt lat="48.43244" lon="2.72751">
        <ele>110.9</ele>
        <time>2021-05-30T08:34:28Z</time>
      </trkpt>
      <trkpt lat="48.43248" lon="2.72754">
        <ele>110.9</ele>
        <time>2021-05-30T08:34:29Z</time>
      </trkpt>
      <trkpt lat="48.43285" lon="2.72764">
        <ele>112.8</ele>
        <time>2021-05-30T08:34:39Z</time>
      </trkpt>
      <trkpt lat="48.43312" lon="2.72766">
        <ele>114.5</ele>
        <time>2021-05-30T08:34:49Z</time>
      </trkpt>
      <trkpt lat="48.43341" lon="2.72768">
        <ele>116.2</ele>
        <time>2021-05-30T08:34:58Z</time>
      </trkpt>
      <trkpt lat="48.43363" lon="2.72778">
        <ele>117.2</ele>
        <time>2021-05-30T08:35:05Z</time>
      </trkpt>
      <trkpt lat="48.43367" lon="2.72779">
        <ele>117.4</ele>
        <time>2021-05-30T08:35:06Z</time>
      </trkpt>
      <trkpt lat="48.4337" lon="2.7278">
        <ele>117.5</ele>
        <time>2021-05-30T08:35:07Z</time>
      </trkpt>
      <trkpt lat="48.43372" lon="2.72781">
        <ele>117.7</ele>
        <time>2021-05-30T08:35:08Z</time>
      </trkpt>
      <trkpt lat="48.43375" lon="2.72782">
        <ele>117.8</ele>
        <time>2021-05-30T08:35:09Z</time>
      </trkpt>
      <trkpt lat="48.43378" lon="2.72783">
        <ele>118</ele>
        <time>2021-05-30T08:35:10Z</time>
      </trkpt>
      <trkpt lat="48.43407" lon="2.72782">
        <ele>119.5</ele>
        <time>2021-05-30T08:35:19Z</time>
      </trkpt>
      <trkpt lat="48.43417" lon="2.72784">
        <ele>120</ele>
        <time>2021-05-30T08:35:22Z</time>
      </trkpt>
      <trkpt lat="48.43432" lon="2.72794">
        <ele>118.7</ele>
        <time>2021-05-30T08:35:25Z</time>
      </trkpt>
      <trkpt lat="48.43444" lon="2.72803">
        <ele>117.5</ele>
        <time>2021-05-30T08:35:27Z</time>
      </trkpt>
      <trkpt lat="48.43451" lon="2.72808">
        <ele>116.8</ele>
        <time>2021-05-30T08:35:28Z</time>
      </trkpt>
      <trkpt lat="48.43488" lon="2.72833">
        <ele>112.3</ele>
        <time>2021-05-30T08:35:33Z</time>
      </trkpt>
      <trkpt lat="48.43494" lon="2.72841">
        <ele>111.5</ele>
        <time>2021-05-30T08:35:34Z</time>
      </trkpt>
      <trkpt lat="48.43511" lon="2.72863">
        <ele>109.3</ele>
        <time>2021-05-30T08:35:37Z</time>
      </trkpt>
      <trkpt lat="48.43522" lon="2.7288">
        <ele>107.9</ele>
        <time>2021-05-30T08:35:39Z</time>
      </trkpt>
      <trkpt lat="48.43529" lon="2.72887">
        <ele>107.2</ele>
        <time>2021-05-30T08:35:40Z</time>
      </trkpt>
      <trkpt lat="48.43535" lon="2.72893">
        <ele>106.5</ele>
        <time>2021-05-30T08:35:41Z</time>
      </trkpt>
      <trkpt lat="48.43559" lon="2.72909">
        <ele>104.2</ele>
        <time>2021-05-30T08:35:46Z</time>
      </trkpt>
      <trkpt lat="48.43562" lon="2.72906">
        <ele>103.9</ele>
        <time>2021-05-30T08:35:47Z</time>
      </trkpt>
      <trkpt lat="48.43565" lon="2.72902">
        <ele>103.7</ele>
        <time>2021-05-30T08:35:48Z</time>
      </trkpt>
      <trkpt lat="48.43569" lon="2.72898">
        <ele>103.5</ele>
        <time>2021-05-30T08:35:49Z</time>
      </trkpt>
      <trkpt lat="48.43572" lon="2.72895">
        <ele>103.3</ele>
        <time>2021-05-30T08:35:50Z</time>
      </trkpt>
      <trkpt lat="48.43574" lon="2.72891">
        <ele>103.1</ele>
        <time>2021-05-30T08:35:51Z</time>
      </trkpt>
      <trkpt lat="48.43575" lon="2.72886">
        <ele>103.1</ele>
        <time>2021-05-30T08:35:52Z</time>
      </trkpt>
      <trkpt lat="48.43577" lon="2.72881">
        <ele>103</ele>
        <time>2021-05-30T08:35:53Z</time>
      </trkpt>
      <trkpt lat="48.43577" lon="2.72876">
        <ele>103.1</ele>
        <time>2021-05-30T08:35:54Z</time>
      </trkpt>
      <trkpt lat="48.4358" lon="2.72827">
        <ele>103.7</ele>
        <time>2021-05-30T08:36:05Z</time>
      </trkpt>
      <trkpt lat="48.43583" lon="2.72809">
        <ele>104.5</ele>
        <time>2021-05-30T08:36:09Z</time>
      </trkpt>
      <trkpt lat="48.43584" lon="2.72804">
        <ele>104.8</ele>
        <time>2021-05-30T08:36:10Z</time>
      </trkpt>
      <trkpt lat="48.43585" lon="2.728">
        <ele>105</ele>
        <time>2021-05-30T08:36:11Z</time>
      </trkpt>
      <trkpt lat="48.43585" lon="2.72796">
        <ele>105.3</ele>
        <time>2021-05-30T08:36:12Z</time>
      </trkpt>
      <trkpt lat="48.43586" lon="2.72791">
        <ele>105.6</ele>
        <time>2021-05-30T08:36:13Z</time>
      </trkpt>
      <trkpt lat="48.43598" lon="2.72766">
        <ele>107.3</ele>
        <time>2021-05-30T08:36:20Z</time>
      </trkpt>
      <trkpt lat="48.436" lon="2.72766">
        <ele>107.4</ele>
        <time>2021-05-30T08:36:21Z</time>
      </trkpt>
      <trkpt lat="48.43602" lon="2.72766">
        <ele>107.4</ele>
        <time>2021-05-30T08:36:22Z</time>
      </trkpt>
      <trkpt lat="48.43605" lon="2.72766">
        <ele>107.4</ele>
        <time>2021-05-30T08:36:23Z</time>
      </trkpt>
      <trkpt lat="48.43608" lon="2.72767">
        <ele>107.5</ele>
        <time>2021-05-30T08:36:24Z</time>
      </trkpt>
      <trkpt lat="48.43611" lon="2.72767">
        <ele>107.5</ele>
        <time>2021-05-30T08:36:25Z</time>
      </trkpt>
      <trkpt lat="48.43635" lon="2.72776">
        <ele>107.6</ele>
        <time>2021-05-30T08:36:33Z</time>
      </trkpt>
      <trkpt lat="48.43637" lon="2.72777">
        <ele>107.6</ele>
        <time>2021-05-30T08:36:34Z</time>
      </trkpt>
      <trkpt lat="48.4364" lon="2.72778">
        <ele>107.7</ele>
        <time>2021-05-30T08:36:35Z</time>
      </trkpt>
      <trkpt lat="48.43642" lon="2.72778">
        <ele>107.7</ele>
        <time>2021-05-30T08:36:36Z</time>
      </trkpt>
      <trkpt lat="48.43645" lon="2.7278">
        <ele>107.7</ele>
        <time>2021-05-30T08:36:37Z</time>
      </trkpt>
      <trkpt lat="48.43647" lon="2.72781">
        <ele>107.8</ele>
        <time>2021-05-30T08:36:38Z</time>
      </trkpt>
      <trkpt lat="48.4365" lon="2.72782">
        <ele>107.8</ele>
        <time>2021-05-30T08:36:39Z</time>
      </trkpt>
      <trkpt lat="48.43652" lon="2.72783">
        <ele>107.8</ele>
        <time>2021-05-30T08:36:40Z</time>
      </trkpt>
      <trkpt lat="48.43654" lon="2.72784">
        <ele>107.8</ele>
        <time>2021-05-30T08:36:41Z</time>
      </trkpt>
      <trkpt lat="48.43656" lon="2.72786">
        <ele>107.8</ele>
        <time>2021-05-30T08:36:42Z</time>
      </trkpt>
      <trkpt lat="48.43684" lon="2.72793">
        <ele>105.8</ele>
        <time>2021-05-30T08:36:53Z</time>
      </trkpt>
      <trkpt lat="48.43706" lon="2.72798">
        <ele>102.9</ele>
        <time>2021-05-30T08:37:02Z</time>
      </trkpt>
      <trkpt lat="48.43715" lon="2.72801">
        <ele>101.4</ele>
        <time>2021-05-30T08:37:04Z</time>
      </trkpt>
      <trkpt lat="48.4372" lon="2.72804">
        <ele>100.7</ele>
        <time>2021-05-30T08:37:05Z</time>
      </trkpt>
      <trkpt lat="48.43726" lon="2.72807">
        <ele>99.8</ele>
        <time>2021-05-30T08:37:06Z</time>
      </trkpt>
      <trkpt lat="48.43732" lon="2.72809">
        <ele>98.9</ele>
        <time>2021-05-30T08:37:07Z</time>
      </trkpt>
      <trkpt lat="48.43737" lon="2.72812">
        <ele>98</ele>
        <time>2021-05-30T08:37:08Z</time>
      </trkpt>
      <trkpt lat="48.43743" lon="2.72815">
        <ele>97.1</ele>
        <time>2021-05-30T08:37:09Z</time>
      </trkpt>
      <trkpt lat="48.43748" lon="2.72816">
        <ele>96.3</ele>
        <time>2021-05-30T08:37:10Z</time>
      </trkpt>
      <trkpt lat="48.43753" lon="2.72816">
        <ele>96</ele>
        <time>2021-05-30T08:37:11Z</time>
      </trkpt>
      <trkpt lat="48.43759" lon="2.72815">
        <ele>95.9</ele>
        <time>2021-05-30T08:37:12Z</time>
      </trkpt>
      <trkpt lat="48.43764" lon="2.72814">
        <ele>95.9</ele>
        <time>2021-05-30T08:37:13Z</time>
      </trkpt>
      <trkpt lat="48.4378" lon="2.72811">
        <ele>95.8</ele>
        <time>2021-05-30T08:37:16Z</time>
      </trkpt>
      <trkpt lat="48.43814" lon="2.72807">
        <ele>95.1</ele>
        <time>2021-05-30T08:37:23Z</time>
      </trkpt>
      <trkpt lat="48.43818" lon="2.7281">
        <ele>95</ele>
        <time>2021-05-30T08:37:24Z</time>
      </trkpt>
      <trkpt lat="48.43822" lon="2.72812">
        <ele>95</ele>
        <time>2021-05-30T08:37:25Z</time>
      </trkpt>
      <trkpt lat="48.43835" lon="2.72819">
        <ele>94.9</ele>
        <time>2021-05-30T08:37:28Z</time>
      </trkpt>
      <trkpt lat="48.43841" lon="2.72821">
        <ele>95</ele>
        <time>2021-05-30T08:37:29Z</time>
      </trkpt>
      <trkpt lat="48.43845" lon="2.72822">
        <ele>95.1</ele>
        <time>2021-05-30T08:37:30Z</time>
      </trkpt>
      <trkpt lat="48.43849" lon="2.72824">
        <ele>95.2</ele>
        <time>2021-05-30T08:37:31Z</time>
      </trkpt>
      <trkpt lat="48.43853" lon="2.72826">
        <ele>95.4</ele>
        <time>2021-05-30T08:37:32Z</time>
      </trkpt>
      <trkpt lat="48.43857" lon="2.72828">
        <ele>95.5</ele>
        <time>2021-05-30T08:37:33Z</time>
      </trkpt>
      <trkpt lat="48.4389" lon="2.72842">
        <ele>96.4</ele>
        <time>2021-05-30T08:37:41Z</time>
      </trkpt>
      <trkpt lat="48.43893" lon="2.72845">
        <ele>96.4</ele>
        <time>2021-05-30T08:37:42Z</time>
      </trkpt>
      <trkpt lat="48.43895" lon="2.72848">
        <ele>96.5</ele>
        <time>2021-05-30T08:37:43Z</time>
      </trkpt>
      <trkpt lat="48.43897" lon="2.72851">
        <ele>96.5</ele>
        <time>2021-05-30T08:37:44Z</time>
      </trkpt>
      <trkpt lat="48.439" lon="2.72854">
        <ele>96.6</ele>
        <time>2021-05-30T08:37:45Z</time>
      </trkpt>
      <trkpt lat="48.43902" lon="2.72855">
        <ele>96.7</ele>
        <time>2021-05-30T08:37:46Z</time>
      </trkpt>
      <trkpt lat="48.43905" lon="2.72856">
        <ele>96.7</ele>
        <time>2021-05-30T08:37:47Z</time>
      </trkpt>
      <trkpt lat="48.43908" lon="2.72856">
        <ele>96.8</ele>
        <time>2021-05-30T08:37:48Z</time>
      </trkpt>
      <trkpt lat="48.43912" lon="2.72855">
        <ele>96.9</ele>
        <time>2021-05-30T08:37:49Z</time>
      </trkpt>
      <trkpt lat="48.43932" lon="2.72865">
        <ele>97.4</ele>
        <time>2021-05-30T08:37:56Z</time>
      </trkpt>
      <trkpt lat="48.43935" lon="2.72868">
        <ele>97.4</ele>
        <time>2021-05-30T08:37:57Z</time>
      </trkpt>
      <trkpt lat="48.43938" lon="2.7287">
        <ele>97.5</ele>
        <time>2021-05-30T08:37:58Z</time>
      </trkpt>
      <trkpt lat="48.43979" lon="2.72899">
        <ele>98.5</ele>
        <time>2021-05-30T08:38:10Z</time>
      </trkpt>
      <trkpt lat="48.44021" lon="2.72928">
        <ele>99.2</ele>
        <time>2021-05-30T08:38:22Z</time>
      </trkpt>
      <trkpt lat="48.44025" lon="2.72931">
        <ele>99.2</ele>
        <time>2021-05-30T08:38:23Z</time>
      </trkpt>
      <trkpt lat="48.4403" lon="2.72935">
        <ele>99.2</ele>
        <time>2021-05-30T08:38:24Z</time>
      </trkpt>
      <trkpt lat="48.44034" lon="2.72938">
        <ele>99.2</ele>
        <time>2021-05-30T08:38:25Z</time>
      </trkpt>
      <trkpt lat="48.44038" lon="2.72941">
        <ele>99.2</ele>
        <time>2021-05-30T08:38:26Z</time>
      </trkpt>
      <trkpt lat="48.44042" lon="2.72944">
        <ele>99.2</ele>
        <time>2021-05-30T08:38:27Z</time>
      </trkpt>
      <trkpt lat="48.44047" lon="2.72946">
        <ele>99.2</ele>
        <time>2021-05-30T08:38:28Z</time>
      </trkpt>
      <trkpt lat="48.44061" lon="2.72955">
        <ele>99.1</ele>
        <time>2021-05-30T08:38:31Z</time>
      </trkpt>
      <trkpt lat="48.44066" lon="2.72957">
        <ele>99</ele>
        <time>2021-05-30T08:38:32Z</time>
      </trkpt>
      <trkpt lat="48.44089" lon="2.72972">
        <ele>98.7</ele>
        <time>2021-05-30T08:38:37Z</time>
      </trkpt>
      <trkpt lat="48.44093" lon="2.72975">
        <ele>98.7</ele>
        <time>2021-05-30T08:38:38Z</time>
      </trkpt>
      <trkpt lat="48.44098" lon="2.72979">
        <ele>98.7</ele>
        <time>2021-05-30T08:38:39Z</time>
      </trkpt>
      <trkpt lat="48.44106" lon="2.72985">
        <ele>98.8</ele>
        <time>2021-05-30T08:38:41Z</time>
      </trkpt>
      <trkpt lat="48.44121" lon="2.72995">
        <ele>98.9</ele>
        <time>2021-05-30T08:38:44Z</time>
      </trkpt>
      <trkpt lat="48.44176" lon="2.73034">
        <ele>98.8</ele>
        <time>2021-05-30T08:38:56Z</time>
      </trkpt>
      <trkpt lat="48.4418" lon="2.73037">
        <ele>98.7</ele>
        <time>2021-05-30T08:38:57Z</time>
      </trkpt>
      <trkpt lat="48.44219" lon="2.73063">
        <ele>98.5</ele>
        <time>2021-05-30T08:39:05Z</time>
      </trkpt>
      <trkpt lat="48.44224" lon="2.73066">
        <ele>98.6</ele>
        <time>2021-05-30T08:39:06Z</time>
      </trkpt>
      <trkpt lat="48.44233" lon="2.73072">
        <ele>98.7</ele>
        <time>2021-05-30T08:39:08Z</time>
      </trkpt>
      <trkpt lat="48.44238" lon="2.73075">
        <ele>98.8</ele>
        <time>2021-05-30T08:39:09Z</time>
      </trkpt>
      <trkpt lat="48.44243" lon="2.73078">
        <ele>98.8</ele>
        <time>2021-05-30T08:39:10Z</time>
      </trkpt>
      <trkpt lat="48.44247" lon="2.73081">
        <ele>98.9</ele>
        <time>2021-05-30T08:39:11Z</time>
      </trkpt>
      <trkpt lat="48.44252" lon="2.73084">
        <ele>99</ele>
        <time>2021-05-30T08:39:12Z</time>
      </trkpt>
      <trkpt lat="48.44268" lon="2.73095">
        <ele>98.8</ele>
        <time>2021-05-30T08:39:16Z</time>
      </trkpt>
      <trkpt lat="48.44273" lon="2.73097">
        <ele>98.7</ele>
        <time>2021-05-30T08:39:17Z</time>
      </trkpt>
      <trkpt lat="48.44277" lon="2.73098">
        <ele>98.7</ele>
        <time>2021-05-30T08:39:18Z</time>
      </trkpt>
      <trkpt lat="48.44282" lon="2.73099">
        <ele>98.7</ele>
        <time>2021-05-30T08:39:19Z</time>
      </trkpt>
      <trkpt lat="48.44286" lon="2.73098">
        <ele>98.7</ele>
        <time>2021-05-30T08:39:20Z</time>
      </trkpt>
      <trkpt lat="48.44291" lon="2.73097">
        <ele>98.7</ele>
        <time>2021-05-30T08:39:21Z</time>
      </trkpt>
      <trkpt lat="48.44295" lon="2.73097">
        <ele>98.7</ele>
        <time>2021-05-30T08:39:22Z</time>
      </trkpt>
      <trkpt lat="48.44303" lon="2.73096">
        <ele>98.7</ele>
        <time>2021-05-30T08:39:24Z</time>
      </trkpt>
      <trkpt lat="48.44341" lon="2.73085">
        <ele>99</ele>
        <time>2021-05-30T08:39:34Z</time>
      </trkpt>
      <trkpt lat="48.44373" lon="2.73079">
        <ele>99.6</ele>
        <time>2021-05-30T08:39:43Z</time>
      </trkpt>
      <trkpt lat="48.44407" lon="2.73072">
        <ele>100.2</ele>
        <time>2021-05-30T08:39:53Z</time>
      </trkpt>
      <trkpt lat="48.44449" lon="2.73058">
        <ele>101.2</ele>
        <time>2021-05-30T08:40:05Z</time>
      </trkpt>
      <trkpt lat="48.44479" lon="2.73051">
        <ele>101.7</ele>
        <time>2021-05-30T08:40:13Z</time>
      </trkpt>
      <trkpt lat="48.44515" lon="2.73043">
        <ele>101.6</ele>
        <time>2021-05-30T08:40:21Z</time>
      </trkpt>
      <trkpt lat="48.44545" lon="2.73037">
        <ele>100.9</ele>
        <time>2021-05-30T08:40:27Z</time>
      </trkpt>
      <trkpt lat="48.44554" lon="2.73035">
        <ele>100.7</ele>
        <time>2021-05-30T08:40:29Z</time>
      </trkpt>
      <trkpt lat="48.44558" lon="2.73034">
        <ele>100.6</ele>
        <time>2021-05-30T08:40:30Z</time>
      </trkpt>
      <trkpt lat="48.44562" lon="2.73032">
        <ele>100.5</ele>
        <time>2021-05-30T08:40:31Z</time>
      </trkpt>
      <trkpt lat="48.44566" lon="2.7303">
        <ele>100.4</ele>
        <time>2021-05-30T08:40:32Z</time>
      </trkpt>
      <trkpt lat="48.4457" lon="2.73029">
        <ele>100.3</ele>
        <time>2021-05-30T08:40:33Z</time>
      </trkpt>
      <trkpt lat="48.44574" lon="2.73028">
        <ele>100.2</ele>
        <time>2021-05-30T08:40:34Z</time>
      </trkpt>
      <trkpt lat="48.44617" lon="2.73019">
        <ele>98.8</ele>
        <time>2021-05-30T08:40:44Z</time>
      </trkpt>
      <trkpt lat="48.44639" lon="2.73016">
        <ele>98</ele>
        <time>2021-05-30T08:40:50Z</time>
      </trkpt>
      <trkpt lat="48.44643" lon="2.73014">
        <ele>97.9</ele>
        <time>2021-05-30T08:40:51Z</time>
      </trkpt>
      <trkpt lat="48.44683" lon="2.73002">
        <ele>96.6</ele>
        <time>2021-05-30T08:41:01Z</time>
      </trkpt>
      <trkpt lat="48.44722" lon="2.72989">
        <ele>95.6</ele>
        <time>2021-05-30T08:41:10Z</time>
      </trkpt>
      <trkpt lat="48.44779" lon="2.72925">
        <ele>93.7</ele>
        <time>2021-05-30T08:41:24Z</time>
      </trkpt>
      <trkpt lat="48.44826" lon="2.72862">
        <ele>92.2</ele>
        <time>2021-05-30T08:41:36Z</time>
      </trkpt>
      <trkpt lat="48.44851" lon="2.72824">
        <ele>92</ele>
        <time>2021-05-30T08:41:43Z</time>
      </trkpt>
      <trkpt lat="48.44856" lon="2.72823">
        <ele>92.2</ele>
        <time>2021-05-30T08:41:44Z</time>
      </trkpt>
      <trkpt lat="48.44861" lon="2.72825">
        <ele>92.2</ele>
        <time>2021-05-30T08:41:45Z</time>
      </trkpt>
      <trkpt lat="48.44865" lon="2.72829">
        <ele>92.3</ele>
        <time>2021-05-30T08:41:46Z</time>
      </trkpt>
      <trkpt lat="48.44868" lon="2.72832">
        <ele>92.3</ele>
        <time>2021-05-30T08:41:47Z</time>
      </trkpt>
      <trkpt lat="48.44879" lon="2.72842">
        <ele>93</ele>
        <time>2021-05-30T08:41:50Z</time>
      </trkpt>
      <trkpt lat="48.44884" lon="2.72842">
        <ele>93.2</ele>
        <time>2021-05-30T08:41:51Z</time>
      </trkpt>
      <trkpt lat="48.44888" lon="2.72839">
        <ele>93.2</ele>
        <time>2021-05-30T08:41:52Z</time>
      </trkpt>
      <trkpt lat="48.44891" lon="2.72835">
        <ele>93.2</ele>
        <time>2021-05-30T08:41:53Z</time>
      </trkpt>
      <trkpt lat="48.44894" lon="2.72831">
        <ele>93.2</ele>
        <time>2021-05-30T08:41:54Z</time>
      </trkpt>
      <trkpt lat="48.44897" lon="2.72827">
        <ele>93.4</ele>
        <time>2021-05-30T08:41:55Z</time>
      </trkpt>
      <trkpt lat="48.449" lon="2.72823">
        <ele>93.5</ele>
        <time>2021-05-30T08:41:56Z</time>
      </trkpt>
      <trkpt lat="48.44938" lon="2.72779">
        <ele>94.8</ele>
        <time>2021-05-30T08:42:08Z</time>
      </trkpt>
      <trkpt lat="48.4498" lon="2.72729">
        <ele>96.4</ele>
        <time>2021-05-30T08:42:22Z</time>
      </trkpt>
      <trkpt lat="48.44999" lon="2.72701">
        <ele>96.4</ele>
        <time>2021-05-30T08:42:30Z</time>
      </trkpt>
      <trkpt lat="48.45028" lon="2.72666">
        <ele>97</ele>
        <time>2021-05-30T08:42:39Z</time>
      </trkpt>
      <trkpt lat="48.45066" lon="2.72618">
        <ele>97.1</ele>
        <time>2021-05-30T08:42:51Z</time>
      </trkpt>
      <trkpt lat="48.45069" lon="2.72614">
        <ele>97</ele>
        <time>2021-05-30T08:42:52Z</time>
      </trkpt>
      <trkpt lat="48.45092" lon="2.72585">
        <ele>96.5</ele>
        <time>2021-05-30T08:42:59Z</time>
      </trkpt>
      <trkpt lat="48.45096" lon="2.72582">
        <ele>96.6</ele>
        <time>2021-05-30T08:43:00Z</time>
      </trkpt>
      <trkpt lat="48.45116" lon="2.72559">
        <ele>97.9</ele>
        <time>2021-05-30T08:43:06Z</time>
      </trkpt>
      <trkpt lat="48.45135" lon="2.72536">
        <ele>98.4</ele>
        <time>2021-05-30T08:43:11Z</time>
      </trkpt>
      <trkpt lat="48.4519" lon="2.72469">
        <ele>99</ele>
        <time>2021-05-30T08:43:26Z</time>
      </trkpt>
      <trkpt lat="48.45215" lon="2.72436">
        <ele>99.1</ele>
        <time>2021-05-30T08:43:33Z</time>
      </trkpt>
      <trkpt lat="48.45262" lon="2.72373">
        <ele>97.6</ele>
        <time>2021-05-30T08:43:47Z</time>
      </trkpt>
      <trkpt lat="48.45266" lon="2.72369">
        <ele>97.5</ele>
        <time>2021-05-30T08:43:48Z</time>
      </trkpt>
      <trkpt lat="48.45303" lon="2.72325">
        <ele>95.3</ele>
        <time>2021-05-30T08:43:59Z</time>
      </trkpt>
      <trkpt lat="48.45311" lon="2.72316">
        <ele>95</ele>
        <time>2021-05-30T08:44:07Z</time>
      </trkpt>
      <trkpt lat="48.45314" lon="2.72315">
        <ele>95</ele>
        <time>2021-05-30T08:44:09Z</time>
      </trkpt>
      <trkpt lat="48.45315" lon="2.72313">
        <ele>94.9</ele>
        <time>2021-05-30T08:44:10Z</time>
      </trkpt>
      <trkpt lat="48.45317" lon="2.7231">
        <ele>94.8</ele>
        <time>2021-05-30T08:44:11Z</time>
      </trkpt>
      <trkpt lat="48.45317" lon="2.72308">
        <ele>94.8</ele>
        <time>2021-05-30T08:44:12Z</time>
      </trkpt>
      <trkpt lat="48.45318" lon="2.72306">
        <ele>94.7</ele>
        <time>2021-05-30T08:44:13Z</time>
      </trkpt>
      <trkpt lat="48.45335" lon="2.72283">
        <ele>93.9</ele>
        <time>2021-05-30T08:44:21Z</time>
      </trkpt>
      <trkpt lat="48.4534" lon="2.72273">
        <ele>94</ele>
        <time>2021-05-30T08:44:26Z</time>
      </trkpt>
      <trkpt lat="48.45367" lon="2.72251">
        <ele>95</ele>
        <time>2021-05-30T08:44:36Z</time>
      </trkpt>
      <trkpt lat="48.45402" lon="2.72206">
        <ele>96.7</ele>
        <time>2021-05-30T08:44:49Z</time>
      </trkpt>
      <trkpt lat="48.45438" lon="2.72164">
        <ele>96.5</ele>
        <time>2021-05-30T08:45:01Z</time>
      </trkpt>
      <trkpt lat="48.45473" lon="2.7212">
        <ele>95.6</ele>
        <time>2021-05-30T08:45:13Z</time>
      </trkpt>
      <trkpt lat="48.45503" lon="2.72084">
        <ele>93.2</ele>
        <time>2021-05-30T08:45:21Z</time>
      </trkpt>
      <trkpt lat="48.45511" lon="2.72073">
        <ele>93.8</ele>
        <time>2021-05-30T08:45:23Z</time>
      </trkpt>
      <trkpt lat="48.45514" lon="2.72069">
        <ele>94</ele>
        <time>2021-05-30T08:45:24Z</time>
      </trkpt>
      <trkpt lat="48.45528" lon="2.7205">
        <ele>94.7</ele>
        <time>2021-05-30T08:45:28Z</time>
      </trkpt>
      <trkpt lat="48.45533" lon="2.72045">
        <ele>94.9</ele>
        <time>2021-05-30T08:45:29Z</time>
      </trkpt>
      <trkpt lat="48.4557" lon="2.72004">
        <ele>94.4</ele>
        <time>2021-05-30T08:45:38Z</time>
      </trkpt>
      <trkpt lat="48.45608" lon="2.7196">
        <ele>94.6</ele>
        <time>2021-05-30T08:45:47Z</time>
      </trkpt>
      <trkpt lat="48.45621" lon="2.71946">
        <ele>94.6</ele>
        <time>2021-05-30T08:45:50Z</time>
      </trkpt>
      <trkpt lat="48.45637" lon="2.71924">
        <ele>94.2</ele>
        <time>2021-05-30T08:45:54Z</time>
      </trkpt>
      <trkpt lat="48.45641" lon="2.71919">
        <ele>94.1</ele>
        <time>2021-05-30T08:45:55Z</time>
      </trkpt>
      <trkpt lat="48.4569" lon="2.71856">
        <ele>95.8</ele>
        <time>2021-05-30T08:46:07Z</time>
      </trkpt>
      <trkpt lat="48.45705" lon="2.71837">
        <ele>96</ele>
        <time>2021-05-30T08:46:11Z</time>
      </trkpt>
      <trkpt lat="48.45751" lon="2.71779">
        <ele>95.1</ele>
        <time>2021-05-30T08:46:23Z</time>
      </trkpt>
      <trkpt lat="48.4578" lon="2.71741">
        <ele>95.4</ele>
        <time>2021-05-30T08:46:31Z</time>
      </trkpt>
      <trkpt lat="48.4581" lon="2.717">
        <ele>95.3</ele>
        <time>2021-05-30T08:46:40Z</time>
      </trkpt>
      <trkpt lat="48.45819" lon="2.7169">
        <ele>95</ele>
        <time>2021-05-30T08:46:42Z</time>
      </trkpt>
      <trkpt lat="48.45834" lon="2.71671">
        <ele>94.3</ele>
        <time>2021-05-30T08:46:46Z</time>
      </trkpt>
      <trkpt lat="48.45838" lon="2.71667">
        <ele>94.3</ele>
        <time>2021-05-30T08:46:47Z</time>
      </trkpt>
      <trkpt lat="48.45841" lon="2.71663">
        <ele>94.5</ele>
        <time>2021-05-30T08:46:48Z</time>
      </trkpt>
      <trkpt lat="48.45844" lon="2.71659">
        <ele>94.8</ele>
        <time>2021-05-30T08:46:49Z</time>
      </trkpt>
      <trkpt lat="48.45848" lon="2.71654">
        <ele>95.1</ele>
        <time>2021-05-30T08:46:50Z</time>
      </trkpt>
      <trkpt lat="48.45864" lon="2.71634">
        <ele>96</ele>
        <time>2021-05-30T08:46:54Z</time>
      </trkpt>
      <trkpt lat="48.4589" lon="2.71595">
        <ele>96.8</ele>
        <time>2021-05-30T08:47:03Z</time>
      </trkpt>
      <trkpt lat="48.45926" lon="2.71554">
        <ele>97.7</ele>
        <time>2021-05-30T08:47:12Z</time>
      </trkpt>
      <trkpt lat="48.45929" lon="2.71553">
        <ele>97.8</ele>
        <time>2021-05-30T08:47:13Z</time>
      </trkpt>
      <trkpt lat="48.45943" lon="2.71548">
        <ele>98.4</ele>
        <time>2021-05-30T08:47:17Z</time>
      </trkpt>
      <trkpt lat="48.45946" lon="2.71546">
        <ele>98.4</ele>
        <time>2021-05-30T08:47:18Z</time>
      </trkpt>
      <trkpt lat="48.45949" lon="2.71544">
        <ele>98.5</ele>
        <time>2021-05-30T08:47:19Z</time>
      </trkpt>
      <trkpt lat="48.45952" lon="2.71543">
        <ele>98.6</ele>
        <time>2021-05-30T08:47:20Z</time>
      </trkpt>
      <trkpt lat="48.45955" lon="2.71542">
        <ele>98.7</ele>
        <time>2021-05-30T08:47:21Z</time>
      </trkpt>
      <trkpt lat="48.45958" lon="2.7154">
        <ele>98.7</ele>
        <time>2021-05-30T08:47:22Z</time>
      </trkpt>
      <trkpt lat="48.45987" lon="2.71531">
        <ele>99.2</ele>
        <time>2021-05-30T08:47:31Z</time>
      </trkpt>
      <trkpt lat="48.46017" lon="2.71523">
        <ele>99.7</ele>
        <time>2021-05-30T08:47:40Z</time>
      </trkpt>
      <trkpt lat="48.46059" lon="2.71505">
        <ele>100.9</ele>
        <time>2021-05-30T08:47:51Z</time>
      </trkpt>
      <trkpt lat="48.46101" lon="2.71489">
        <ele>102.1</ele>
        <time>2021-05-30T08:48:02Z</time>
      </trkpt>
      <trkpt lat="48.46136" lon="2.71486">
        <ele>102.7</ele>
        <time>2021-05-30T08:48:11Z</time>
      </trkpt>
      <trkpt lat="48.46142" lon="2.7148">
        <ele>102.8</ele>
        <time>2021-05-30T08:48:13Z</time>
      </trkpt>
      <trkpt lat="48.46145" lon="2.71479">
        <ele>102.9</ele>
        <time>2021-05-30T08:48:14Z</time>
      </trkpt>
      <trkpt lat="48.4618" lon="2.71466">
        <ele>103</ele>
        <time>2021-05-30T08:48:24Z</time>
      </trkpt>
      <trkpt lat="48.46213" lon="2.7146">
        <ele>102.3</ele>
        <time>2021-05-30T08:48:35Z</time>
      </trkpt>
      <trkpt lat="48.46228" lon="2.71465">
        <ele>101.6</ele>
        <time>2021-05-30T08:48:41Z</time>
      </trkpt>
      <trkpt lat="48.46229" lon="2.71466">
        <ele>101.5</ele>
        <time>2021-05-30T08:48:42Z</time>
      </trkpt>
      <trkpt lat="48.46231" lon="2.71467">
        <ele>101.4</ele>
        <time>2021-05-30T08:48:43Z</time>
      </trkpt>
      <trkpt lat="48.46232" lon="2.71469">
        <ele>101.2</ele>
        <time>2021-05-30T08:48:44Z</time>
      </trkpt>
      <trkpt lat="48.46234" lon="2.71472">
        <ele>100.9</ele>
        <time>2021-05-30T08:48:45Z</time>
      </trkpt>
      <trkpt lat="48.46245" lon="2.71487">
        <ele>99.3</ele>
        <time>2021-05-30T08:48:53Z</time>
      </trkpt>
      <trkpt lat="48.46255" lon="2.71499">
        <ele>97.6</ele>
        <time>2021-05-30T08:49:02Z</time>
      </trkpt>
      <trkpt lat="48.46258" lon="2.715">
        <ele>97.3</ele>
        <time>2021-05-30T08:49:03Z</time>
      </trkpt>
      <trkpt lat="48.4626" lon="2.71502">
        <ele>96.9</ele>
        <time>2021-05-30T08:49:04Z</time>
      </trkpt>
      <trkpt lat="48.46263" lon="2.71504">
        <ele>96.5</ele>
        <time>2021-05-30T08:49:05Z</time>
      </trkpt>
      <trkpt lat="48.46266" lon="2.71507">
        <ele>96.1</ele>
        <time>2021-05-30T08:49:06Z</time>
      </trkpt>
      <trkpt lat="48.46271" lon="2.71511">
        <ele>95.4</ele>
        <time>2021-05-30T08:49:08Z</time>
      </trkpt>
      <trkpt lat="48.46273" lon="2.71513">
        <ele>95.1</ele>
        <time>2021-05-30T08:49:09Z</time>
      </trkpt>
      <trkpt lat="48.46276" lon="2.71514">
        <ele>94.8</ele>
        <time>2021-05-30T08:49:10Z</time>
      </trkpt>
      <trkpt lat="48.4628" lon="2.71516">
        <ele>94.4</ele>
        <time>2021-05-30T08:49:11Z</time>
      </trkpt>
      <trkpt lat="48.46283" lon="2.71518">
        <ele>94</ele>
        <time>2021-05-30T08:49:12Z</time>
      </trkpt>
      <trkpt lat="48.46287" lon="2.7152">
        <ele>93.6</ele>
        <time>2021-05-30T08:49:13Z</time>
      </trkpt>
      <trkpt lat="48.4629" lon="2.71522">
        <ele>93.2</ele>
        <time>2021-05-30T08:49:14Z</time>
      </trkpt>
      <trkpt lat="48.46306" lon="2.71534">
        <ele>91.4</ele>
        <time>2021-05-30T08:49:18Z</time>
      </trkpt>
      <trkpt lat="48.4631" lon="2.71537">
        <ele>91</ele>
        <time>2021-05-30T08:49:19Z</time>
      </trkpt>
      <trkpt lat="48.46343" lon="2.7156">
        <ele>88.5</ele>
        <time>2021-05-30T08:49:28Z</time>
      </trkpt>
      <trkpt lat="48.46377" lon="2.71581">
        <ele>88</ele>
        <time>2021-05-30T08:49:37Z</time>
      </trkpt>
      <trkpt lat="48.46415" lon="2.71608">
        <ele>87.4</ele>
        <time>2021-05-30T08:49:46Z</time>
      </trkpt>
      <trkpt lat="48.46435" lon="2.71622">
        <ele>86.6</ele>
        <time>2021-05-30T08:49:50Z</time>
      </trkpt>
      <trkpt lat="48.46441" lon="2.71625">
        <ele>86.4</ele>
        <time>2021-05-30T08:49:51Z</time>
      </trkpt>
      <trkpt lat="48.46481" lon="2.71653">
        <ele>85.3</ele>
        <time>2021-05-30T08:50:00Z</time>
      </trkpt>
      <trkpt lat="48.46489" lon="2.7166">
        <ele>85.2</ele>
        <time>2021-05-30T08:50:02Z</time>
      </trkpt>
      <trkpt lat="48.46493" lon="2.71662">
        <ele>85.1</ele>
        <time>2021-05-30T08:50:03Z</time>
      </trkpt>
      <trkpt lat="48.46533" lon="2.71687">
        <ele>88.1</ele>
        <time>2021-05-30T08:50:14Z</time>
      </trkpt>
      <trkpt lat="48.46535" lon="2.71685">
        <ele>88.2</ele>
        <time>2021-05-30T08:50:15Z</time>
      </trkpt>
      <trkpt lat="48.46537" lon="2.71683">
        <ele>88.2</ele>
        <time>2021-05-30T08:50:16Z</time>
      </trkpt>
      <trkpt lat="48.46539" lon="2.71679">
        <ele>88.3</ele>
        <time>2021-05-30T08:50:17Z</time>
      </trkpt>
      <trkpt lat="48.46542" lon="2.71675">
        <ele>88.3</ele>
        <time>2021-05-30T08:50:18Z</time>
      </trkpt>
      <trkpt lat="48.46558" lon="2.7163">
        <ele>88.6</ele>
        <time>2021-05-30T08:50:26Z</time>
      </trkpt>
      <trkpt lat="48.4657" lon="2.71595">
        <ele>88.6</ele>
        <time>2021-05-30T08:50:32Z</time>
      </trkpt>
      <trkpt lat="48.46572" lon="2.71589">
        <ele>88.6</ele>
        <time>2021-05-30T08:50:33Z</time>
      </trkpt>
      <trkpt lat="48.46575" lon="2.71583">
        <ele>88.6</ele>
        <time>2021-05-30T08:50:34Z</time>
      </trkpt>
      <trkpt lat="48.46577" lon="2.71577">
        <ele>88.5</ele>
        <time>2021-05-30T08:50:35Z</time>
      </trkpt>
      <trkpt lat="48.46579" lon="2.71571">
        <ele>88.4</ele>
        <time>2021-05-30T08:50:36Z</time>
      </trkpt>
      <trkpt lat="48.46581" lon="2.71565">
        <ele>88.3</ele>
        <time>2021-05-30T08:50:37Z</time>
      </trkpt>
      <trkpt lat="48.46584" lon="2.71558">
        <ele>88.1</ele>
        <time>2021-05-30T08:50:38Z</time>
      </trkpt>
      <trkpt lat="48.46586" lon="2.71552">
        <ele>87.9</ele>
        <time>2021-05-30T08:50:39Z</time>
      </trkpt>
      <trkpt lat="48.46588" lon="2.71545">
        <ele>87.7</ele>
        <time>2021-05-30T08:50:40Z</time>
      </trkpt>
      <trkpt lat="48.46611" lon="2.71478">
        <ele>86.3</ele>
        <time>2021-05-30T08:50:52Z</time>
      </trkpt>
      <trkpt lat="48.46629" lon="2.71426">
        <ele>85.5</ele>
        <time>2021-05-30T08:51:02Z</time>
      </trkpt>
      <trkpt lat="48.46653" lon="2.71365">
        <ele>85.8</ele>
        <time>2021-05-30T08:51:13Z</time>
      </trkpt>
      <trkpt lat="48.46675" lon="2.71302">
        <ele>85.6</ele>
        <time>2021-05-30T08:51:24Z</time>
      </trkpt>
      <trkpt lat="48.46681" lon="2.71277">
        <ele>85.3</ele>
        <time>2021-05-30T08:51:31Z</time>
      </trkpt>
      <trkpt lat="48.46687" lon="2.71273">
        <ele>85.4</ele>
        <time>2021-05-30T08:51:34Z</time>
      </trkpt>
      <trkpt lat="48.46689" lon="2.71274">
        <ele>85.6</ele>
        <time>2021-05-30T08:51:35Z</time>
      </trkpt>
      <trkpt lat="48.46691" lon="2.71274">
        <ele>85.7</ele>
        <time>2021-05-30T08:51:36Z</time>
      </trkpt>
      <trkpt lat="48.46693" lon="2.71275">
        <ele>85.8</ele>
        <time>2021-05-30T08:51:37Z</time>
      </trkpt>
      <trkpt lat="48.46696" lon="2.71276">
        <ele>85.9</ele>
        <time>2021-05-30T08:51:38Z</time>
      </trkpt>
      <trkpt lat="48.46698" lon="2.71279">
        <ele>86.1</ele>
        <time>2021-05-30T08:51:39Z</time>
      </trkpt>
      <trkpt lat="48.46701" lon="2.71281">
        <ele>86.2</ele>
        <time>2021-05-30T08:51:40Z</time>
      </trkpt>
      <trkpt lat="48.46704" lon="2.71283">
        <ele>86.4</ele>
        <time>2021-05-30T08:51:41Z</time>
      </trkpt>
      <trkpt lat="48.46707" lon="2.71285">
        <ele>86.6</ele>
        <time>2021-05-30T08:51:42Z</time>
      </trkpt>
      <trkpt lat="48.4671" lon="2.71286">
        <ele>86.7</ele>
        <time>2021-05-30T08:51:43Z</time>
      </trkpt>
      <trkpt lat="48.46711" lon="2.71287">
        <ele>86.8</ele>
        <time>2021-05-30T08:51:44Z</time>
      </trkpt>
      <trkpt lat="48.46713" lon="2.71289">
        <ele>86.9</ele>
        <time>2021-05-30T08:51:45Z</time>
      </trkpt>
      <trkpt lat="48.46739" lon="2.71305">
        <ele>88.2</ele>
        <time>2021-05-30T08:51:55Z</time>
      </trkpt>
      <trkpt lat="48.46746" lon="2.71311">
        <ele>88.6</ele>
        <time>2021-05-30T08:51:57Z</time>
      </trkpt>
      <trkpt lat="48.46769" lon="2.7133">
        <ele>88</ele>
        <time>2021-05-30T08:52:05Z</time>
      </trkpt>
      <trkpt lat="48.46771" lon="2.71328">
        <ele>88</ele>
        <time>2021-05-30T08:52:06Z</time>
      </trkpt>
      <trkpt lat="48.46771" lon="2.71327">
        <ele>87.9</ele>
        <time>2021-05-30T08:52:07Z</time>
      </trkpt>
      <trkpt lat="48.46774" lon="2.7132">
        <ele>87.7</ele>
        <time>2021-05-30T08:52:15Z</time>
      </trkpt>
      <trkpt lat="48.46776" lon="2.71318">
        <ele>87.6</ele>
        <time>2021-05-30T08:52:16Z</time>
      </trkpt>
      <trkpt lat="48.46779" lon="2.71314">
        <ele>87.4</ele>
        <time>2021-05-30T08:52:17Z</time>
      </trkpt>
      <trkpt lat="48.46781" lon="2.7131">
        <ele>87.2</ele>
        <time>2021-05-30T08:52:18Z</time>
      </trkpt>
      <trkpt lat="48.46782" lon="2.713">
        <ele>87</ele>
        <time>2021-05-30T08:52:21Z</time>
      </trkpt>
      <trkpt lat="48.46783" lon="2.71296">
        <ele>87</ele>
        <time>2021-05-30T08:52:22Z</time>
      </trkpt>
      <trkpt lat="48.46784" lon="2.71291">
        <ele>86.8</ele>
        <time>2021-05-30T08:52:23Z</time>
      </trkpt>
      <trkpt lat="48.46786" lon="2.71286">
        <ele>86.7</ele>
        <time>2021-05-30T08:52:24Z</time>
      </trkpt>
      <trkpt lat="48.46788" lon="2.71282">
        <ele>86.6</ele>
        <time>2021-05-30T08:52:25Z</time>
      </trkpt>
      <trkpt lat="48.4679" lon="2.71278">
        <ele>86.4</ele>
        <time>2021-05-30T08:52:26Z</time>
      </trkpt>
      <trkpt lat="48.46791" lon="2.71275">
        <ele>86.3</ele>
        <time>2021-05-30T08:52:27Z</time>
      </trkpt>
      <trkpt lat="48.46792" lon="2.71273">
        <ele>86.3</ele>
        <time>2021-05-30T08:52:28Z</time>
      </trkpt>
      <trkpt lat="48.46794" lon="2.71269">
        <ele>86.1</ele>
        <time>2021-05-30T08:52:29Z</time>
      </trkpt>
      <trkpt lat="48.46795" lon="2.71265">
        <ele>86</ele>
        <time>2021-05-30T08:52:30Z</time>
      </trkpt>
      <trkpt lat="48.46795" lon="2.71262">
        <ele>86</ele>
        <time>2021-05-30T08:52:31Z</time>
      </trkpt>
      <trkpt lat="48.46795" lon="2.71258">
        <ele>85.9</ele>
        <time>2021-05-30T08:52:32Z</time>
      </trkpt>
      <trkpt lat="48.46795" lon="2.71254">
        <ele>85.9</ele>
        <time>2021-05-30T08:52:33Z</time>
      </trkpt>
      <trkpt lat="48.46796" lon="2.71251">
        <ele>85.8</ele>
        <time>2021-05-30T08:52:34Z</time>
      </trkpt>
      <trkpt lat="48.46799" lon="2.71228">
        <ele>85.6</ele>
        <time>2021-05-30T08:52:42Z</time>
      </trkpt>
      <trkpt lat="48.46811" lon="2.71194">
        <ele>85.2</ele>
        <time>2021-05-30T08:52:48Z</time>
      </trkpt>
      <trkpt lat="48.46815" lon="2.71189">
        <ele>85.1</ele>
        <time>2021-05-30T08:52:49Z</time>
      </trkpt>
      <trkpt lat="48.46849" lon="2.71135">
        <ele>85.1</ele>
        <time>2021-05-30T08:52:58Z</time>
      </trkpt>
      <trkpt lat="48.46867" lon="2.71081">
        <ele>85.5</ele>
        <time>2021-05-30T08:53:08Z</time>
      </trkpt>
      <trkpt lat="48.46879" lon="2.71032">
        <ele>84.2</ele>
        <time>2021-05-30T08:53:16Z</time>
      </trkpt>
      <trkpt lat="48.46881" lon="2.71027">
        <ele>84.1</ele>
        <time>2021-05-30T08:53:17Z</time>
      </trkpt>
      <trkpt lat="48.46892" lon="2.71006">
        <ele>83.6</ele>
        <time>2021-05-30T08:53:20Z</time>
      </trkpt>
      <trkpt lat="48.46894" lon="2.71002">
        <ele>83.6</ele>
        <time>2021-05-30T08:53:21Z</time>
      </trkpt>
      <trkpt lat="48.46894" lon="2.70999">
        <ele>83.5</ele>
        <time>2021-05-30T08:53:22Z</time>
      </trkpt>
      <trkpt lat="48.46895" lon="2.70994">
        <ele>83.4</ele>
        <time>2021-05-30T08:53:23Z</time>
      </trkpt>
      <trkpt lat="48.46897" lon="2.70988">
        <ele>83.2</ele>
        <time>2021-05-30T08:53:24Z</time>
      </trkpt>
      <trkpt lat="48.46899" lon="2.7098">
        <ele>82.9</ele>
        <time>2021-05-30T08:53:25Z</time>
      </trkpt>
      <trkpt lat="48.46926" lon="2.70893">
        <ele>80.7</ele>
        <time>2021-05-30T08:53:40Z</time>
      </trkpt>
      <trkpt lat="48.4693" lon="2.70878">
        <ele>80.5</ele>
        <time>2021-05-30T08:53:44Z</time>
      </trkpt>
      <trkpt lat="48.46929" lon="2.70874">
        <ele>80.6</ele>
        <time>2021-05-30T08:53:45Z</time>
      </trkpt>
      <trkpt lat="48.46929" lon="2.70869">
        <ele>80.5</ele>
        <time>2021-05-30T08:53:46Z</time>
      </trkpt>
      <trkpt lat="48.46937" lon="2.70811">
        <ele>80.3</ele>
        <time>2021-05-30T08:53:57Z</time>
      </trkpt>
      <trkpt lat="48.46943" lon="2.70766">
        <ele>80.3</ele>
        <time>2021-05-30T08:54:11Z</time>
      </trkpt>
      <trkpt lat="48.46943" lon="2.70764">
        <ele>80.3</ele>
        <time>2021-05-30T08:54:12Z</time>
      </trkpt>
      <trkpt lat="48.46945" lon="2.70763">
        <ele>80.3</ele>
        <time>2021-05-30T08:54:13Z</time>
      </trkpt>
      <trkpt lat="48.46947" lon="2.70761">
        <ele>80.2</ele>
        <time>2021-05-30T08:54:14Z</time>
      </trkpt>
      <trkpt lat="48.46949" lon="2.70761">
        <ele>80.2</ele>
        <time>2021-05-30T08:54:15Z</time>
      </trkpt>
      <trkpt lat="48.46951" lon="2.70761">
        <ele>80.1</ele>
        <time>2021-05-30T08:54:16Z</time>
      </trkpt>
      <trkpt lat="48.46982" lon="2.70773">
        <ele>79.2</ele>
        <time>2021-05-30T08:54:27Z</time>
      </trkpt>
      <trkpt lat="48.47003" lon="2.70785">
        <ele>78.5</ele>
        <time>2021-05-30T08:54:37Z</time>
      </trkpt>
      <trkpt lat="48.47004" lon="2.70785">
        <ele>78.4</ele>
        <time>2021-05-30T08:54:39Z</time>
      </trkpt>
      <trkpt lat="48.47006" lon="2.70784">
        <ele>78.3</ele>
        <time>2021-05-30T08:54:40Z</time>
      </trkpt>
      <trkpt lat="48.47007" lon="2.70782">
        <ele>78.3</ele>
        <time>2021-05-30T08:54:41Z</time>
      </trkpt>
      <trkpt lat="48.47008" lon="2.7078">
        <ele>78.3</ele>
        <time>2021-05-30T08:54:42Z</time>
      </trkpt>
      <trkpt lat="48.4701" lon="2.70778">
        <ele>78.2</ele>
        <time>2021-05-30T08:54:43Z</time>
      </trkpt>
      <trkpt lat="48.47012" lon="2.70775">
        <ele>78.2</ele>
        <time>2021-05-30T08:54:44Z</time>
      </trkpt>
      <trkpt lat="48.47015" lon="2.70771">
        <ele>78.1</ele>
        <time>2021-05-30T08:54:45Z</time>
      </trkpt>
      <trkpt lat="48.47037" lon="2.70729">
        <ele>77.2</ele>
        <time>2021-05-30T08:54:53Z</time>
      </trkpt>
      <trkpt lat="48.4704" lon="2.70723">
        <ele>77.1</ele>
        <time>2021-05-30T08:54:54Z</time>
      </trkpt>
      <trkpt lat="48.47066" lon="2.70679">
        <ele>76.3</ele>
        <time>2021-05-30T08:55:02Z</time>
      </trkpt>
      <trkpt lat="48.47068" lon="2.70665">
        <ele>76.4</ele>
        <time>2021-05-30T08:55:06Z</time>
      </trkpt>
      <trkpt lat="48.47069" lon="2.70661">
        <ele>76.3</ele>
        <time>2021-05-30T08:55:07Z</time>
      </trkpt>
      <trkpt lat="48.47072" lon="2.70657">
        <ele>76.3</ele>
        <time>2021-05-30T08:55:08Z</time>
      </trkpt>
      <trkpt lat="48.47083" lon="2.70626">
        <ele>76</ele>
        <time>2021-05-30T08:55:19Z</time>
      </trkpt>
      <trkpt lat="48.47072" lon="2.706">
        <ele>76.2</ele>
        <time>2021-05-30T08:55:31Z</time>
      </trkpt>
      <trkpt lat="48.47071" lon="2.70595">
        <ele>76.2</ele>
        <time>2021-05-30T08:55:32Z</time>
      </trkpt>
      <trkpt lat="48.4707" lon="2.70591">
        <ele>76.2</ele>
        <time>2021-05-30T08:55:33Z</time>
      </trkpt>
      <trkpt lat="48.47071" lon="2.70579">
        <ele>76.1</ele>
        <time>2021-05-30T08:55:36Z</time>
      </trkpt>
      <trkpt lat="48.47072" lon="2.70576">
        <ele>76.1</ele>
        <time>2021-05-30T08:55:37Z</time>
      </trkpt>
      <trkpt lat="48.47074" lon="2.70572">
        <ele>76</ele>
        <time>2021-05-30T08:55:38Z</time>
      </trkpt>
      <trkpt lat="48.47077" lon="2.70567">
        <ele>75.9</ele>
        <time>2021-05-30T08:55:39Z</time>
      </trkpt>
      <trkpt lat="48.4708" lon="2.70562">
        <ele>75.8</ele>
        <time>2021-05-30T08:55:40Z</time>
      </trkpt>
      <trkpt lat="48.47106" lon="2.70521">
        <ele>74.2</ele>
        <time>2021-05-30T08:55:50Z</time>
      </trkpt>
      <trkpt lat="48.47108" lon="2.7052">
        <ele>74</ele>
        <time>2021-05-30T08:55:51Z</time>
      </trkpt>
      <trkpt lat="48.4711" lon="2.7052">
        <ele>74</ele>
        <time>2021-05-30T08:55:52Z</time>
      </trkpt>
      <trkpt lat="48.47111" lon="2.70521">
        <ele>73.9</ele>
        <time>2021-05-30T08:55:53Z</time>
      </trkpt>
      <trkpt lat="48.4713" lon="2.70535">
        <ele>73.6</ele>
        <time>2021-05-30T08:55:59Z</time>
      </trkpt>
      <trkpt lat="48.47134" lon="2.70538">
        <ele>73.5</ele>
        <time>2021-05-30T08:56:00Z</time>
      </trkpt>
      <trkpt lat="48.47167" lon="2.70563">
        <ele>73.7</ele>
        <time>2021-05-30T08:56:08Z</time>
      </trkpt>
      <trkpt lat="48.47183" lon="2.70571">
        <ele>72.6</ele>
        <time>2021-05-30T08:56:11Z</time>
      </trkpt>
      <trkpt lat="48.47194" lon="2.70576">
        <ele>71.7</ele>
        <time>2021-05-30T08:56:13Z</time>
      </trkpt>
      <trkpt lat="48.47199" lon="2.70578">
        <ele>71.2</ele>
        <time>2021-05-30T08:56:14Z</time>
      </trkpt>
      <trkpt lat="48.47212" lon="2.70584">
        <ele>70.1</ele>
        <time>2021-05-30T08:56:17Z</time>
      </trkpt>
      <trkpt lat="48.4723" lon="2.7059">
        <ele>68.5</ele>
        <time>2021-05-30T08:56:26Z</time>
      </trkpt>
      <trkpt lat="48.47239" lon="2.70583">
        <ele>67.1</ele>
        <time>2021-05-30T08:56:31Z</time>
      </trkpt>
      <trkpt lat="48.47269" lon="2.70529">
        <ele>63.6</ele>
        <time>2021-05-30T08:56:44Z</time>
      </trkpt>
      <trkpt lat="48.47272" lon="2.70522">
        <ele>63.3</ele>
        <time>2021-05-30T08:56:46Z</time>
      </trkpt>
      <trkpt lat="48.47289" lon="2.70519">
        <ele>62.4</ele>
        <time>2021-05-30T08:56:53Z</time>
      </trkpt>
      <trkpt lat="48.47297" lon="2.70521">
        <ele>61.9</ele>
        <time>2021-05-30T08:56:57Z</time>
      </trkpt>
      <trkpt lat="48.47303" lon="2.70526">
        <ele>61.7</ele>
        <time>2021-05-30T08:57:00Z</time>
      </trkpt>
      <trkpt lat="48.47319" lon="2.70503">
        <ele>60.7</ele>
        <time>2021-05-30T08:57:09Z</time>
      </trkpt>
      <trkpt lat="48.47331" lon="2.70477">
        <ele>60.9</ele>
        <time>2021-05-30T08:57:18Z</time>
      </trkpt>
      <trkpt lat="48.47323" lon="2.70459">
        <ele>61.8</ele>
        <time>2021-05-30T08:57:24Z</time>
      </trkpt>
      <trkpt lat="48.47332" lon="2.70422">
        <ele>62.8</ele>
        <time>2021-05-30T08:57:35Z</time>
      </trkpt>
      <trkpt lat="48.47351" lon="2.70386">
        <ele>64.3</ele>
        <time>2021-05-30T08:57:47Z</time>
      </trkpt>
      <trkpt lat="48.47356" lon="2.70377">
        <ele>64.6</ele>
        <time>2021-05-30T08:57:50Z</time>
      </trkpt>
      <trkpt lat="48.47365" lon="2.70362">
        <ele>64.9</ele>
        <time>2021-05-30T08:57:55Z</time>
      </trkpt>
      <trkpt lat="48.4739" lon="2.70315">
        <ele>64.9</ele>
        <time>2021-05-30T08:58:08Z</time>
      </trkpt>
      <trkpt lat="48.47396" lon="2.7031">
        <ele>64.5</ele>
        <time>2021-05-30T08:58:10Z</time>
      </trkpt>
      <trkpt lat="48.47414" lon="2.70318">
        <ele>62.6</ele>
        <time>2021-05-30T08:58:15Z</time>
      </trkpt>
      <trkpt lat="48.47418" lon="2.70319">
        <ele>62.4</ele>
        <time>2021-05-30T08:58:16Z</time>
      </trkpt>
      <trkpt lat="48.47423" lon="2.70318">
        <ele>62.5</ele>
        <time>2021-05-30T08:58:17Z</time>
      </trkpt>
      <trkpt lat="48.47427" lon="2.70315">
        <ele>62.6</ele>
        <time>2021-05-30T08:58:18Z</time>
      </trkpt>
      <trkpt lat="48.47431" lon="2.70311">
        <ele>62.8</ele>
        <time>2021-05-30T08:58:19Z</time>
      </trkpt>
      <trkpt lat="48.47433" lon="2.70307">
        <ele>62.9</ele>
        <time>2021-05-30T08:58:20Z</time>
      </trkpt>
      <trkpt lat="48.47463" lon="2.70262">
        <ele>63.9</ele>
        <time>2021-05-30T08:58:32Z</time>
      </trkpt>
      <trkpt lat="48.47472" lon="2.70245">
        <ele>64</ele>
        <time>2021-05-30T08:58:36Z</time>
      </trkpt>
      <trkpt lat="48.47513" lon="2.70192">
        <ele>62.8</ele>
        <time>2021-05-30T08:58:46Z</time>
      </trkpt>
      <trkpt lat="48.47516" lon="2.70186">
        <ele>62.7</ele>
        <time>2021-05-30T08:58:47Z</time>
      </trkpt>
      <trkpt lat="48.47518" lon="2.7018">
        <ele>62.5</ele>
        <time>2021-05-30T08:58:48Z</time>
      </trkpt>
      <trkpt lat="48.4753" lon="2.70147">
        <ele>63.1</ele>
        <time>2021-05-30T08:58:53Z</time>
      </trkpt>
      <trkpt lat="48.47533" lon="2.70141">
        <ele>63.4</ele>
        <time>2021-05-30T08:58:54Z</time>
      </trkpt>
      <trkpt lat="48.47551" lon="2.70084">
        <ele>66.1</ele>
        <time>2021-05-30T08:59:04Z</time>
      </trkpt>
      <trkpt lat="48.47553" lon="2.70077">
        <ele>66.2</ele>
        <time>2021-05-30T08:59:05Z</time>
      </trkpt>
      <trkpt lat="48.47555" lon="2.70071">
        <ele>66.2</ele>
        <time>2021-05-30T08:59:06Z</time>
      </trkpt>
      <trkpt lat="48.47557" lon="2.70064">
        <ele>66.2</ele>
        <time>2021-05-30T08:59:07Z</time>
      </trkpt>
      <trkpt lat="48.4756" lon="2.70059">
        <ele>66.2</ele>
        <time>2021-05-30T08:59:08Z</time>
      </trkpt>
      <trkpt lat="48.47569" lon="2.70034">
        <ele>66.2</ele>
        <time>2021-05-30T08:59:15Z</time>
      </trkpt>
      <trkpt lat="48.47594" lon="2.69984">
        <ele>66.2</ele>
        <time>2021-05-30T08:59:25Z</time>
      </trkpt>
      <trkpt lat="48.47604" lon="2.69958">
        <ele>66.5</ele>
        <time>2021-05-30T08:59:30Z</time>
      </trkpt>
      <trkpt lat="48.47604" lon="2.69954">
        <ele>66.6</ele>
        <time>2021-05-30T08:59:31Z</time>
      </trkpt>
      <trkpt lat="48.47604" lon="2.69951">
        <ele>66.6</ele>
        <time>2021-05-30T08:59:32Z</time>
      </trkpt>
      <trkpt lat="48.47604" lon="2.69946">
        <ele>66.7</ele>
        <time>2021-05-30T08:59:33Z</time>
      </trkpt>
      <trkpt lat="48.47607" lon="2.69938">
        <ele>66.8</ele>
        <time>2021-05-30T08:59:34Z</time>
      </trkpt>
      <trkpt lat="48.47609" lon="2.69933">
        <ele>66.8</ele>
        <time>2021-05-30T08:59:35Z</time>
      </trkpt>
      <trkpt lat="48.47622" lon="2.69893">
        <ele>67.2</ele>
        <time>2021-05-30T08:59:44Z</time>
      </trkpt>
      <trkpt lat="48.47644" lon="2.69847">
        <ele>67.1</ele>
        <time>2021-05-30T08:59:54Z</time>
      </trkpt>
      <trkpt lat="48.47657" lon="2.69814">
        <ele>66.8</ele>
        <time>2021-05-30T09:00:01Z</time>
      </trkpt>
      <trkpt lat="48.4766" lon="2.69812">
        <ele>66.6</ele>
        <time>2021-05-30T09:00:02Z</time>
      </trkpt>
      <trkpt lat="48.47697" lon="2.69798">
        <ele>64.4</ele>
        <time>2021-05-30T09:00:11Z</time>
      </trkpt>
      <trkpt lat="48.47721" lon="2.69795">
        <ele>62.8</ele>
        <time>2021-05-30T09:00:17Z</time>
      </trkpt>
      <trkpt lat="48.47726" lon="2.69794">
        <ele>62.5</ele>
        <time>2021-05-30T09:00:18Z</time>
      </trkpt>
      <trkpt lat="48.47741" lon="2.69791">
        <ele>61.6</ele>
        <time>2021-05-30T09:00:21Z</time>
      </trkpt>
      <trkpt lat="48.47746" lon="2.69788">
        <ele>61.4</ele>
        <time>2021-05-30T09:00:22Z</time>
      </trkpt>
      <trkpt lat="48.47751" lon="2.69786">
        <ele>61.2</ele>
        <time>2021-05-30T09:00:23Z</time>
      </trkpt>
      <trkpt lat="48.47757" lon="2.69783">
        <ele>60.8</ele>
        <time>2021-05-30T09:00:24Z</time>
      </trkpt>
      <trkpt lat="48.47762" lon="2.69781">
        <ele>60.5</ele>
        <time>2021-05-30T09:00:25Z</time>
      </trkpt>
      <trkpt lat="48.47766" lon="2.69778">
        <ele>60.1</ele>
        <time>2021-05-30T09:00:26Z</time>
      </trkpt>
      <trkpt lat="48.47771" lon="2.69776">
        <ele>59.8</ele>
        <time>2021-05-30T09:00:27Z</time>
      </trkpt>
      <trkpt lat="48.47775" lon="2.69774">
        <ele>59.5</ele>
        <time>2021-05-30T09:00:28Z</time>
      </trkpt>
      <trkpt lat="48.47778" lon="2.69772">
        <ele>59.3</ele>
        <time>2021-05-30T09:00:29Z</time>
      </trkpt>
      <trkpt lat="48.47782" lon="2.69769">
        <ele>59</ele>
        <time>2021-05-30T09:00:30Z</time>
      </trkpt>
      <trkpt lat="48.47786" lon="2.69766">
        <ele>58.7</ele>
        <time>2021-05-30T09:00:31Z</time>
      </trkpt>
      <trkpt lat="48.47791" lon="2.69764">
        <ele>58.2</ele>
        <time>2021-05-30T09:00:32Z</time>
      </trkpt>
      <trkpt lat="48.47795" lon="2.69761">
        <ele>57.9</ele>
        <time>2021-05-30T09:00:33Z</time>
      </trkpt>
      <trkpt lat="48.47799" lon="2.69758">
        <ele>57.5</ele>
        <time>2021-05-30T09:00:34Z</time>
      </trkpt>
      <trkpt lat="48.47802" lon="2.69754">
        <ele>57.3</ele>
        <time>2021-05-30T09:00:35Z</time>
      </trkpt>
      <trkpt lat="48.47806" lon="2.6975">
        <ele>57</ele>
        <time>2021-05-30T09:00:36Z</time>
      </trkpt>
      <trkpt lat="48.47812" lon="2.6974">
        <ele>56.3</ele>
        <time>2021-05-30T09:00:38Z</time>
      </trkpt>
      <trkpt lat="48.47814" lon="2.69734">
        <ele>56</ele>
        <time>2021-05-30T09:00:39Z</time>
      </trkpt>
      <trkpt lat="48.47823" lon="2.69685">
        <ele>55</ele>
        <time>2021-05-30T09:00:49Z</time>
      </trkpt>
      <trkpt lat="48.47822" lon="2.69681">
        <ele>55</ele>
        <time>2021-05-30T09:00:50Z</time>
      </trkpt>
      <trkpt lat="48.47822" lon="2.69678">
        <ele>55</ele>
        <time>2021-05-30T09:00:51Z</time>
      </trkpt>
      <trkpt lat="48.47822" lon="2.69675">
        <ele>54.9</ele>
        <time>2021-05-30T09:00:52Z</time>
      </trkpt>
      <trkpt lat="48.47823" lon="2.69672">
        <ele>54.9</ele>
        <time>2021-05-30T09:00:53Z</time>
      </trkpt>
      <trkpt lat="48.47826" lon="2.69651">
        <ele>54.8</ele>
        <time>2021-05-30T09:00:58Z</time>
      </trkpt>
      <trkpt lat="48.47826" lon="2.69644">
        <ele>54.8</ele>
        <time>2021-05-30T09:00:59Z</time>
      </trkpt>
      <trkpt lat="48.47819" lon="2.6958">
        <ele>55.7</ele>
        <time>2021-05-30T09:01:10Z</time>
      </trkpt>
      <trkpt lat="48.47822" lon="2.69497">
        <ele>55.7</ele>
        <time>2021-05-30T09:01:24Z</time>
      </trkpt>
      <trkpt lat="48.47823" lon="2.69437">
        <ele>59.1</ele>
        <time>2021-05-30T09:01:36Z</time>
      </trkpt>
      <trkpt lat="48.47822" lon="2.69432">
        <ele>59.4</ele>
        <time>2021-05-30T09:01:38Z</time>
      </trkpt>
      <trkpt lat="48.47821" lon="2.69429">
        <ele>59.6</ele>
        <time>2021-05-30T09:01:39Z</time>
      </trkpt>
      <trkpt lat="48.47819" lon="2.69427">
        <ele>59.8</ele>
        <time>2021-05-30T09:01:40Z</time>
      </trkpt>
      <trkpt lat="48.47765" lon="2.69408">
        <ele>62</ele>
        <time>2021-05-30T09:01:54Z</time>
      </trkpt>
      <trkpt lat="48.4771" lon="2.69391">
        <ele>66.6</ele>
        <time>2021-05-30T09:02:09Z</time>
      </trkpt>
      <trkpt lat="48.47686" lon="2.69383">
        <ele>69.1</ele>
        <time>2021-05-30T09:02:15Z</time>
      </trkpt>
      <trkpt lat="48.47683" lon="2.69382">
        <ele>69.5</ele>
        <time>2021-05-30T09:02:16Z</time>
      </trkpt>
      <trkpt lat="48.4768" lon="2.69381">
        <ele>69.9</ele>
        <time>2021-05-30T09:02:17Z</time>
      </trkpt>
      <trkpt lat="48.47637" lon="2.69364">
        <ele>75.1</ele>
        <time>2021-05-30T09:02:29Z</time>
      </trkpt>
      <trkpt lat="48.47599" lon="2.69352">
        <ele>79.1</ele>
        <time>2021-05-30T09:02:40Z</time>
      </trkpt>
      <trkpt lat="48.47561" lon="2.69339">
        <ele>80.6</ele>
        <time>2021-05-30T09:02:51Z</time>
      </trkpt>
      <trkpt lat="48.47523" lon="2.69331">
        <ele>80.3</ele>
        <time>2021-05-30T09:03:01Z</time>
      </trkpt>
      <trkpt lat="48.47491" lon="2.69326">
        <ele>80.3</ele>
        <time>2021-05-30T09:03:11Z</time>
      </trkpt>
      <trkpt lat="48.4748" lon="2.69315">
        <ele>80.6</ele>
        <time>2021-05-30T09:03:14Z</time>
      </trkpt>
      <trkpt lat="48.47477" lon="2.69311">
        <ele>80.6</ele>
        <time>2021-05-30T09:03:15Z</time>
      </trkpt>
      <trkpt lat="48.47475" lon="2.69307">
        <ele>80.7</ele>
        <time>2021-05-30T09:03:16Z</time>
      </trkpt>
      <trkpt lat="48.47474" lon="2.69302">
        <ele>80.7</ele>
        <time>2021-05-30T09:03:17Z</time>
      </trkpt>
      <trkpt lat="48.47473" lon="2.69298">
        <ele>80.7</ele>
        <time>2021-05-30T09:03:18Z</time>
      </trkpt>
      <trkpt lat="48.47474" lon="2.69294">
        <ele>80.6</ele>
        <time>2021-05-30T09:03:19Z</time>
      </trkpt>
      <trkpt lat="48.47475" lon="2.6929">
        <ele>80.5</ele>
        <time>2021-05-30T09:03:20Z</time>
      </trkpt>
      <trkpt lat="48.47476" lon="2.69286">
        <ele>80.5</ele>
        <time>2021-05-30T09:03:21Z</time>
      </trkpt>
      <trkpt lat="48.47477" lon="2.69282">
        <ele>80.4</ele>
        <time>2021-05-30T09:03:22Z</time>
      </trkpt>
      <trkpt lat="48.47479" lon="2.69279">
        <ele>80.3</ele>
        <time>2021-05-30T09:03:23Z</time>
      </trkpt>
      <trkpt lat="48.4748" lon="2.69275">
        <ele>80.2</ele>
        <time>2021-05-30T09:03:24Z</time>
      </trkpt>
      <trkpt lat="48.47498" lon="2.69248">
        <ele>79.1</ele>
        <time>2021-05-30T09:03:34Z</time>
      </trkpt>
      <trkpt lat="48.47518" lon="2.69214">
        <ele>79.4</ele>
        <time>2021-05-30T09:03:45Z</time>
      </trkpt>
      <trkpt lat="48.47532" lon="2.69186">
        <ele>79.3</ele>
        <time>2021-05-30T09:03:57Z</time>
      </trkpt>
      <trkpt lat="48.47532" lon="2.69185">
        <ele>79.3</ele>
        <time>2021-05-30T09:04:09Z</time>
      </trkpt>
      <trkpt lat="48.47531" lon="2.69186">
        <ele>79.3</ele>
        <time>2021-05-30T09:04:32Z</time>
      </trkpt>
      <trkpt lat="48.47529" lon="2.69186">
        <ele>79.3</ele>
        <time>2021-05-30T09:04:55Z</time>
      </trkpt>
      <trkpt lat="48.4753" lon="2.69186">
        <ele>79.3</ele>
        <time>2021-05-30T09:05:13Z</time>
      </trkpt>
      <trkpt lat="48.47532" lon="2.69185">
        <ele>79.3</ele>
        <time>2021-05-30T09:05:31Z</time>
      </trkpt>
      <trkpt lat="48.47532" lon="2.69189">
        <ele>79.3</ele>
        <time>2021-05-30T09:05:39Z</time>
      </trkpt>
      <trkpt lat="48.47518" lon="2.69216">
        <ele>79.4</ele>
        <time>2021-05-30T09:05:51Z</time>
      </trkpt>
      <trkpt lat="48.47506" lon="2.6924">
        <ele>79.2</ele>
        <time>2021-05-30T09:05:58Z</time>
      </trkpt>
      <trkpt lat="48.47484" lon="2.69282">
        <ele>80.1</ele>
        <time>2021-05-30T09:06:09Z</time>
      </trkpt>
      <trkpt lat="48.47468" lon="2.69309">
        <ele>81</ele>
        <time>2021-05-30T09:06:20Z</time>
      </trkpt>
      <trkpt lat="48.47468" lon="2.69317">
        <ele>81</ele>
        <time>2021-05-30T09:06:23Z</time>
      </trkpt>
      <trkpt lat="48.4747" lon="2.69318">
        <ele>81</ele>
        <time>2021-05-30T09:06:24Z</time>
      </trkpt>
      <trkpt lat="48.47473" lon="2.69321">
        <ele>80.9</ele>
        <time>2021-05-30T09:06:25Z</time>
      </trkpt>
      <trkpt lat="48.47505" lon="2.69338">
        <ele>80.2</ele>
        <time>2021-05-30T09:06:36Z</time>
      </trkpt>
      <trkpt lat="48.4751" lon="2.69337">
        <ele>80.2</ele>
        <time>2021-05-30T09:06:39Z</time>
      </trkpt>
      <trkpt lat="48.47512" lon="2.69335">
        <ele>80.2</ele>
        <time>2021-05-30T09:06:40Z</time>
      </trkpt>
      <trkpt lat="48.47513" lon="2.69332">
        <ele>80.1</ele>
        <time>2021-05-30T09:06:41Z</time>
      </trkpt>
      <trkpt lat="48.47514" lon="2.69328">
        <ele>80.1</ele>
        <time>2021-05-30T09:06:42Z</time>
      </trkpt>
      <trkpt lat="48.47515" lon="2.69324">
        <ele>80.1</ele>
        <time>2021-05-30T09:06:43Z</time>
      </trkpt>
      <trkpt lat="48.47534" lon="2.69289">
        <ele>79.9</ele>
        <time>2021-05-30T09:06:53Z</time>
      </trkpt>
      <trkpt lat="48.47569" lon="2.69229">
        <ele>79.4</ele>
        <time>2021-05-30T09:07:07Z</time>
      </trkpt>
      <trkpt lat="48.47587" lon="2.69199">
        <ele>78.7</ele>
        <time>2021-05-30T09:07:13Z</time>
      </trkpt>
      <trkpt lat="48.47589" lon="2.69193">
        <ele>78.6</ele>
        <time>2021-05-30T09:07:14Z</time>
      </trkpt>
      <trkpt lat="48.47633" lon="2.69123">
        <ele>77.4</ele>
        <time>2021-05-30T09:07:28Z</time>
      </trkpt>
      <trkpt lat="48.47677" lon="2.69049">
        <ele>76.6</ele>
        <time>2021-05-30T09:07:44Z</time>
      </trkpt>
      <trkpt lat="48.47708" lon="2.68984">
        <ele>77.8</ele>
        <time>2021-05-30T09:07:56Z</time>
      </trkpt>
      <trkpt lat="48.47711" lon="2.68978">
        <ele>77.9</ele>
        <time>2021-05-30T09:07:57Z</time>
      </trkpt>
      <trkpt lat="48.47714" lon="2.68972">
        <ele>78</ele>
        <time>2021-05-30T09:07:58Z</time>
      </trkpt>
      <trkpt lat="48.47717" lon="2.68967">
        <ele>78</ele>
        <time>2021-05-30T09:07:59Z</time>
      </trkpt>
      <trkpt lat="48.4772" lon="2.68962">
        <ele>78</ele>
        <time>2021-05-30T09:08:00Z</time>
      </trkpt>
      <trkpt lat="48.47723" lon="2.68957">
        <ele>78</ele>
        <time>2021-05-30T09:08:01Z</time>
      </trkpt>
      <trkpt lat="48.47726" lon="2.68952">
        <ele>78</ele>
        <time>2021-05-30T09:08:02Z</time>
      </trkpt>
      <trkpt lat="48.47748" lon="2.6891">
        <ele>77.2</ele>
        <time>2021-05-30T09:08:10Z</time>
      </trkpt>
      <trkpt lat="48.47752" lon="2.68905">
        <ele>77.2</ele>
        <time>2021-05-30T09:08:11Z</time>
      </trkpt>
      <trkpt lat="48.47755" lon="2.68901">
        <ele>77.2</ele>
        <time>2021-05-30T09:08:12Z</time>
      </trkpt>
      <trkpt lat="48.47758" lon="2.68896">
        <ele>77.2</ele>
        <time>2021-05-30T09:08:13Z</time>
      </trkpt>
      <trkpt lat="48.47759" lon="2.68892">
        <ele>77.2</ele>
        <time>2021-05-30T09:08:14Z</time>
      </trkpt>
      <trkpt lat="48.47761" lon="2.68888">
        <ele>77.2</ele>
        <time>2021-05-30T09:08:15Z</time>
      </trkpt>
      <trkpt lat="48.47763" lon="2.68885">
        <ele>77.2</ele>
        <time>2021-05-30T09:08:16Z</time>
      </trkpt>
      <trkpt lat="48.47765" lon="2.68883">
        <ele>77.1</ele>
        <time>2021-05-30T09:08:17Z</time>
      </trkpt>
      <trkpt lat="48.47767" lon="2.68882">
        <ele>77</ele>
        <time>2021-05-30T09:08:18Z</time>
      </trkpt>
      <trkpt lat="48.4777" lon="2.68883">
        <ele>76.9</ele>
        <time>2021-05-30T09:08:19Z</time>
      </trkpt>
      <trkpt lat="48.47772" lon="2.68885">
        <ele>76.8</ele>
        <time>2021-05-30T09:08:20Z</time>
      </trkpt>
      <trkpt lat="48.4783" lon="2.68917">
        <ele>74.1</ele>
        <time>2021-05-30T09:08:33Z</time>
      </trkpt>
      <trkpt lat="48.47873" lon="2.68942">
        <ele>70.8</ele>
        <time>2021-05-30T09:08:41Z</time>
      </trkpt>
      <trkpt lat="48.47878" lon="2.68944">
        <ele>70.3</ele>
        <time>2021-05-30T09:08:42Z</time>
      </trkpt>
      <trkpt lat="48.47942" lon="2.68979">
        <ele>63</ele>
        <time>2021-05-30T09:08:54Z</time>
      </trkpt>
      <trkpt lat="48.48013" lon="2.69017">
        <ele>54.7</ele>
        <time>2021-05-30T09:09:06Z</time>
      </trkpt>
      <trkpt lat="48.48019" lon="2.69021">
        <ele>54.3</ele>
        <time>2021-05-30T09:09:07Z</time>
      </trkpt>
      <trkpt lat="48.48091" lon="2.69065">
        <ele>48.5</ele>
        <time>2021-05-30T09:09:20Z</time>
      </trkpt>
      <trkpt lat="48.481" lon="2.6907">
        <ele>47.8</ele>
        <time>2021-05-30T09:09:23Z</time>
      </trkpt>
      <trkpt lat="48.48103" lon="2.69069">
        <ele>47.7</ele>
        <time>2021-05-30T09:09:24Z</time>
      </trkpt>
      <trkpt lat="48.48105" lon="2.69066">
        <ele>47.7</ele>
        <time>2021-05-30T09:09:25Z</time>
      </trkpt>
      <trkpt lat="48.48108" lon="2.69061">
        <ele>47.8</ele>
        <time>2021-05-30T09:09:26Z</time>
      </trkpt>
      <trkpt lat="48.48109" lon="2.69056">
        <ele>47.9</ele>
        <time>2021-05-30T09:09:27Z</time>
      </trkpt>
      <trkpt lat="48.4811" lon="2.69051">
        <ele>48</ele>
        <time>2021-05-30T09:09:28Z</time>
      </trkpt>
      <trkpt lat="48.48111" lon="2.69045">
        <ele>48.2</ele>
        <time>2021-05-30T09:09:29Z</time>
      </trkpt>
      <trkpt lat="48.48113" lon="2.69013">
        <ele>49.4</ele>
        <time>2021-05-30T09:09:34Z</time>
      </trkpt>
      <trkpt lat="48.48114" lon="2.69001">
        <ele>49.8</ele>
        <time>2021-05-30T09:09:36Z</time>
      </trkpt>
      <trkpt lat="48.48123" lon="2.68948">
        <ele>49.2</ele>
        <time>2021-05-30T09:09:44Z</time>
      </trkpt>
      <trkpt lat="48.48125" lon="2.68928">
        <ele>49</ele>
        <time>2021-05-30T09:09:47Z</time>
      </trkpt>
      <trkpt lat="48.48127" lon="2.68908">
        <ele>49</ele>
        <time>2021-05-30T09:09:50Z</time>
      </trkpt>
      <trkpt lat="48.48133" lon="2.68851">
        <ele>49.5</ele>
        <time>2021-05-30T09:09:59Z</time>
      </trkpt>
      <trkpt lat="48.48143" lon="2.688">
        <ele>49.1</ele>
        <time>2021-05-30T09:10:06Z</time>
      </trkpt>
      <trkpt lat="48.48165" lon="2.68708">
        <ele>48.3</ele>
        <time>2021-05-30T09:10:20Z</time>
      </trkpt>
      <trkpt lat="48.48188" lon="2.68613">
        <ele>50.9</ele>
        <time>2021-05-30T09:10:34Z</time>
      </trkpt>
      <trkpt lat="48.48192" lon="2.68594">
        <ele>51</ele>
        <time>2021-05-30T09:10:37Z</time>
      </trkpt>
      <trkpt lat="48.48203" lon="2.68549">
        <ele>52.3</ele>
        <time>2021-05-30T09:10:44Z</time>
      </trkpt>
      <trkpt lat="48.48205" lon="2.68543">
        <ele>52.5</ele>
        <time>2021-05-30T09:10:45Z</time>
      </trkpt>
      <trkpt lat="48.48215" lon="2.68501">
        <ele>53.6</ele>
        <time>2021-05-30T09:10:51Z</time>
      </trkpt>
      <trkpt lat="48.48217" lon="2.68496">
        <ele>53.9</ele>
        <time>2021-05-30T09:10:52Z</time>
      </trkpt>
      <trkpt lat="48.48228" lon="2.68457">
        <ele>56.3</ele>
        <time>2021-05-30T09:11:03Z</time>
      </trkpt>
      <trkpt lat="48.48227" lon="2.68451">
        <ele>57.2</ele>
        <time>2021-05-30T09:11:16Z</time>
      </trkpt>
      <trkpt lat="48.48228" lon="2.68444">
        <ele>57.9</ele>
        <time>2021-05-30T09:11:32Z</time>
      </trkpt>
      <trkpt lat="48.48231" lon="2.68431">
        <ele>58.7</ele>
        <time>2021-05-30T09:11:37Z</time>
      </trkpt>
      <trkpt lat="48.48232" lon="2.68427">
        <ele>58.9</ele>
        <time>2021-05-30T09:11:38Z</time>
      </trkpt>
      <trkpt lat="48.48233" lon="2.68423">
        <ele>59.1</ele>
        <time>2021-05-30T09:11:39Z</time>
      </trkpt>
      <trkpt lat="48.48234" lon="2.6842">
        <ele>59.2</ele>
        <time>2021-05-30T09:11:40Z</time>
      </trkpt>
      <trkpt lat="48.48236" lon="2.68417">
        <ele>59.1</ele>
        <time>2021-05-30T09:11:41Z</time>
      </trkpt>
      <trkpt lat="48.4825" lon="2.6837">
        <ele>60.5</ele>
        <time>2021-05-30T09:11:52Z</time>
      </trkpt>
      <trkpt lat="48.48263" lon="2.6833">
        <ele>61.3</ele>
        <time>2021-05-30T09:12:00Z</time>
      </trkpt>
      <trkpt lat="48.48278" lon="2.68281">
        <ele>61.4</ele>
        <time>2021-05-30T09:12:10Z</time>
      </trkpt>
      <trkpt lat="48.48287" lon="2.68252">
        <ele>60.9</ele>
        <time>2021-05-30T09:12:15Z</time>
      </trkpt>
      <trkpt lat="48.48288" lon="2.68247">
        <ele>60.8</ele>
        <time>2021-05-30T09:12:16Z</time>
      </trkpt>
      <trkpt lat="48.4829" lon="2.68242">
        <ele>60.5</ele>
        <time>2021-05-30T09:12:17Z</time>
      </trkpt>
      <trkpt lat="48.48309" lon="2.68192">
        <ele>58.6</ele>
        <time>2021-05-30T09:12:27Z</time>
      </trkpt>
      <trkpt lat="48.48312" lon="2.68182">
        <ele>58.6</ele>
        <time>2021-05-30T09:12:30Z</time>
      </trkpt>
      <trkpt lat="48.48313" lon="2.68179">
        <ele>58.4</ele>
        <time>2021-05-30T09:12:31Z</time>
      </trkpt>
      <trkpt lat="48.48315" lon="2.68175">
        <ele>58.2</ele>
        <time>2021-05-30T09:12:32Z</time>
      </trkpt>
      <trkpt lat="48.48325" lon="2.68149">
        <ele>57.3</ele>
        <time>2021-05-30T09:12:38Z</time>
      </trkpt>
      <trkpt lat="48.48329" lon="2.6814">
        <ele>56.8</ele>
        <time>2021-05-30T09:12:39Z</time>
      </trkpt>
      <trkpt lat="48.48332" lon="2.68132">
        <ele>56.7</ele>
        <time>2021-05-30T09:12:40Z</time>
      </trkpt>
      <trkpt lat="48.48335" lon="2.68125">
        <ele>56.6</ele>
        <time>2021-05-30T09:12:41Z</time>
      </trkpt>
      <trkpt lat="48.48338" lon="2.68117">
        <ele>56.7</ele>
        <time>2021-05-30T09:12:42Z</time>
      </trkpt>
      <trkpt lat="48.4834" lon="2.6811">
        <ele>56.8</ele>
        <time>2021-05-30T09:12:43Z</time>
      </trkpt>
      <trkpt lat="48.48342" lon="2.68103">
        <ele>56.8</ele>
        <time>2021-05-30T09:12:44Z</time>
      </trkpt>
      <trkpt lat="48.48356" lon="2.6807">
        <ele>55.5</ele>
        <time>2021-05-30T09:12:49Z</time>
      </trkpt>
      <trkpt lat="48.48359" lon="2.68063">
        <ele>55.1</ele>
        <time>2021-05-30T09:12:50Z</time>
      </trkpt>
      <trkpt lat="48.48361" lon="2.68058">
        <ele>54.7</ele>
        <time>2021-05-30T09:12:51Z</time>
      </trkpt>
      <trkpt lat="48.48363" lon="2.68054">
        <ele>54.4</ele>
        <time>2021-05-30T09:12:52Z</time>
      </trkpt>
      <trkpt lat="48.48365" lon="2.68049">
        <ele>54.2</ele>
        <time>2021-05-30T09:12:53Z</time>
      </trkpt>
      <trkpt lat="48.48371" lon="2.68032">
        <ele>53.2</ele>
        <time>2021-05-30T09:12:56Z</time>
      </trkpt>
      <trkpt lat="48.48396" lon="2.67981">
        <ele>49.2</ele>
        <time>2021-05-30T09:13:06Z</time>
      </trkpt>
      <trkpt lat="48.48398" lon="2.67976">
        <ele>49.2</ele>
        <time>2021-05-30T09:13:07Z</time>
      </trkpt>
      <trkpt lat="48.48402" lon="2.67965">
        <ele>49</ele>
        <time>2021-05-30T09:13:09Z</time>
      </trkpt>
      <trkpt lat="48.48422" lon="2.67931">
        <ele>48.5</ele>
        <time>2021-05-30T09:13:16Z</time>
      </trkpt>
      <trkpt lat="48.48431" lon="2.67914">
        <ele>49.5</ele>
        <time>2021-05-30T09:13:19Z</time>
      </trkpt>
      <trkpt lat="48.48434" lon="2.67909">
        <ele>49.9</ele>
        <time>2021-05-30T09:13:20Z</time>
      </trkpt>
      <trkpt lat="48.48437" lon="2.67904">
        <ele>50.3</ele>
        <time>2021-05-30T09:13:21Z</time>
      </trkpt>
      <trkpt lat="48.48466" lon="2.6785">
        <ele>52.4</ele>
        <time>2021-05-30T09:13:34Z</time>
      </trkpt>
      <trkpt lat="48.48489" lon="2.67804">
        <ele>52.3</ele>
        <time>2021-05-30T09:13:45Z</time>
      </trkpt>
      <trkpt lat="48.48509" lon="2.67767">
        <ele>52.6</ele>
        <time>2021-05-30T09:13:51Z</time>
      </trkpt>
      <trkpt lat="48.48513" lon="2.67761">
        <ele>52.6</ele>
        <time>2021-05-30T09:13:52Z</time>
      </trkpt>
      <trkpt lat="48.4852" lon="2.67749">
        <ele>52.7</ele>
        <time>2021-05-30T09:13:54Z</time>
      </trkpt>
      <trkpt lat="48.48548" lon="2.67705">
        <ele>52.7</ele>
        <time>2021-05-30T09:14:02Z</time>
      </trkpt>
      <trkpt lat="48.48555" lon="2.67694">
        <ele>52.4</ele>
        <time>2021-05-30T09:14:04Z</time>
      </trkpt>
      <trkpt lat="48.4857" lon="2.67672">
        <ele>51.2</ele>
        <time>2021-05-30T09:14:08Z</time>
      </trkpt>
      <trkpt lat="48.48574" lon="2.67666">
        <ele>50.9</ele>
        <time>2021-05-30T09:14:09Z</time>
      </trkpt>
      <trkpt lat="48.48588" lon="2.67643">
        <ele>50.8</ele>
        <time>2021-05-30T09:14:13Z</time>
      </trkpt>
      <trkpt lat="48.4865" lon="2.6756">
        <ele>48.7</ele>
        <time>2021-05-30T09:14:29Z</time>
      </trkpt>
      <trkpt lat="48.48687" lon="2.67517">
        <ele>49.3</ele>
        <time>2021-05-30T09:14:38Z</time>
      </trkpt>
      <trkpt lat="48.48695" lon="2.67508">
        <ele>49.3</ele>
        <time>2021-05-30T09:14:40Z</time>
      </trkpt>
      <trkpt lat="48.48699" lon="2.67503">
        <ele>49.3</ele>
        <time>2021-05-30T09:14:41Z</time>
      </trkpt>
      <trkpt lat="48.48748" lon="2.67443">
        <ele>53</ele>
        <time>2021-05-30T09:14:55Z</time>
      </trkpt>
      <trkpt lat="48.48763" lon="2.67429">
        <ele>53.6</ele>
        <time>2021-05-30T09:14:59Z</time>
      </trkpt>
      <trkpt lat="48.48767" lon="2.67425">
        <ele>53.7</ele>
        <time>2021-05-30T09:15:00Z</time>
      </trkpt>
      <trkpt lat="48.48793" lon="2.67394">
        <ele>54.5</ele>
        <time>2021-05-30T09:15:10Z</time>
      </trkpt>
      <trkpt lat="48.48795" lon="2.67384">
        <ele>55.7</ele>
        <time>2021-05-30T09:15:17Z</time>
      </trkpt>
      <trkpt lat="48.48793" lon="2.67384">
        <ele>56</ele>
        <time>2021-05-30T09:15:18Z</time>
      </trkpt>
      <trkpt lat="48.48792" lon="2.67384">
        <ele>56.2</ele>
        <time>2021-05-30T09:15:19Z</time>
      </trkpt>
      <trkpt lat="48.4879" lon="2.67384">
        <ele>56.5</ele>
        <time>2021-05-30T09:15:20Z</time>
      </trkpt>
      <trkpt lat="48.48789" lon="2.67381">
        <ele>57</ele>
        <time>2021-05-30T09:15:22Z</time>
      </trkpt>
      <trkpt lat="48.48787" lon="2.67371">
        <ele>58.7</ele>
        <time>2021-05-30T09:15:28Z</time>
      </trkpt>
      <trkpt lat="48.48795" lon="2.67359">
        <ele>59.2</ele>
        <time>2021-05-30T09:15:36Z</time>
      </trkpt>
      <trkpt lat="48.48806" lon="2.67349">
        <ele>58.9</ele>
        <time>2021-05-30T09:15:43Z</time>
      </trkpt>
      <trkpt lat="48.48797" lon="2.6733">
        <ele>63</ele>
        <time>2021-05-30T09:15:54Z</time>
      </trkpt>
      <trkpt lat="48.48778" lon="2.67335">
        <ele>65.7</ele>
        <time>2021-05-30T09:16:06Z</time>
      </trkpt>
      <trkpt lat="48.4876" lon="2.67349">
        <ele>66.6</ele>
        <time>2021-05-30T09:16:18Z</time>
      </trkpt>
      <trkpt lat="48.48758" lon="2.6735">
        <ele>66.8</ele>
        <time>2021-05-30T09:16:19Z</time>
      </trkpt>
      <trkpt lat="48.48751" lon="2.67358">
        <ele>66.7</ele>
        <time>2021-05-30T09:16:24Z</time>
      </trkpt>
      <trkpt lat="48.48747" lon="2.67364">
        <ele>66.3</ele>
        <time>2021-05-30T09:16:28Z</time>
      </trkpt>
      <trkpt lat="48.48727" lon="2.67377">
        <ele>66.8</ele>
        <time>2021-05-30T09:16:40Z</time>
      </trkpt>
      <trkpt lat="48.48719" lon="2.67375">
        <ele>68.2</ele>
        <time>2021-05-30T09:16:45Z</time>
      </trkpt>
      <trkpt lat="48.48717" lon="2.67366">
        <ele>69.9</ele>
        <time>2021-05-30T09:16:49Z</time>
      </trkpt>
      <trkpt lat="48.48716" lon="2.67345">
        <ele>73.5</ele>
        <time>2021-05-30T09:16:59Z</time>
      </trkpt>
      <trkpt lat="48.48699" lon="2.67341">
        <ele>76.5</ele>
        <time>2021-05-30T09:17:09Z</time>
      </trkpt>
      <trkpt lat="48.48685" lon="2.67336">
        <ele>79.1</ele>
        <time>2021-05-30T09:17:16Z</time>
      </trkpt>
      <trkpt lat="48.48672" lon="2.67328">
        <ele>82.2</ele>
        <time>2021-05-30T09:17:25Z</time>
      </trkpt>
      <trkpt lat="48.48656" lon="2.6732">
        <ele>85</ele>
        <time>2021-05-30T09:17:37Z</time>
      </trkpt>
      <trkpt lat="48.4865" lon="2.67316">
        <ele>86.1</ele>
        <time>2021-05-30T09:17:47Z</time>
      </trkpt>
      <trkpt lat="48.48645" lon="2.67315">
        <ele>86.7</ele>
        <time>2021-05-30T09:17:49Z</time>
      </trkpt>
      <trkpt lat="48.48639" lon="2.67303">
        <ele>88.7</ele>
        <time>2021-05-30T09:17:55Z</time>
      </trkpt>
      <trkpt lat="48.48635" lon="2.67287">
        <ele>91.3</ele>
        <time>2021-05-30T09:18:04Z</time>
      </trkpt>
      <trkpt lat="48.48631" lon="2.67274">
        <ele>93.5</ele>
        <time>2021-05-30T09:18:10Z</time>
      </trkpt>
      <trkpt lat="48.48629" lon="2.67268">
        <ele>94.4</ele>
        <time>2021-05-30T09:18:13Z</time>
      </trkpt>
      <trkpt lat="48.48612" lon="2.67242">
        <ele>97.9</ele>
        <time>2021-05-30T09:18:28Z</time>
      </trkpt>
      <trkpt lat="48.48601" lon="2.67214">
        <ele>100.1</ele>
        <time>2021-05-30T09:18:41Z</time>
      </trkpt>
      <trkpt lat="48.48595" lon="2.67203">
        <ele>100.8</ele>
        <time>2021-05-30T09:18:48Z</time>
      </trkpt>
      <trkpt lat="48.48592" lon="2.67192">
        <ele>101.6</ele>
        <time>2021-05-30T09:18:52Z</time>
      </trkpt>
      <trkpt lat="48.48577" lon="2.67158">
        <ele>102.6</ele>
        <time>2021-05-30T09:19:05Z</time>
      </trkpt>
      <trkpt lat="48.48567" lon="2.67125">
        <ele>102.3</ele>
        <time>2021-05-30T09:19:17Z</time>
      </trkpt>
      <trkpt lat="48.48558" lon="2.67109">
        <ele>102.1</ele>
        <time>2021-05-30T09:19:21Z</time>
      </trkpt>
      <trkpt lat="48.48557" lon="2.67085">
        <ele>102.4</ele>
        <time>2021-05-30T09:19:30Z</time>
      </trkpt>
      <trkpt lat="48.4857" lon="2.67057">
        <ele>103</ele>
        <time>2021-05-30T09:19:43Z</time>
      </trkpt>
      <trkpt lat="48.48587" lon="2.67036">
        <ele>103.8</ele>
        <time>2021-05-30T09:19:56Z</time>
      </trkpt>
      <trkpt lat="48.48614" lon="2.6701">
        <ele>105.1</ele>
        <time>2021-05-30T09:20:07Z</time>
      </trkpt>
      <trkpt lat="48.48637" lon="2.66988">
        <ele>105.9</ele>
        <time>2021-05-30T09:20:16Z</time>
      </trkpt>
      <trkpt lat="48.48677" lon="2.66958">
        <ele>106</ele>
        <time>2021-05-30T09:20:28Z</time>
      </trkpt>
      <trkpt lat="48.4871" lon="2.6693">
        <ele>105.3</ele>
        <time>2021-05-30T09:20:38Z</time>
      </trkpt>
      <trkpt lat="48.48746" lon="2.66894">
        <ele>105.3</ele>
        <time>2021-05-30T09:20:51Z</time>
      </trkpt>
      <trkpt lat="48.48781" lon="2.66862">
        <ele>104.7</ele>
        <time>2021-05-30T09:21:05Z</time>
      </trkpt>
      <trkpt lat="48.48802" lon="2.66852">
        <ele>104.1</ele>
        <time>2021-05-30T09:21:13Z</time>
      </trkpt>
      <trkpt lat="48.4881" lon="2.66847">
        <ele>103.8</ele>
        <time>2021-05-30T09:21:17Z</time>
      </trkpt>
      <trkpt lat="48.48828" lon="2.66834">
        <ele>103.2</ele>
        <time>2021-05-30T09:21:29Z</time>
      </trkpt>
      <trkpt lat="48.48846" lon="2.66816">
        <ele>103.6</ele>
        <time>2021-05-30T09:21:43Z</time>
      </trkpt>
      <trkpt lat="48.48853" lon="2.66815">
        <ele>103.7</ele>
        <time>2021-05-30T09:21:47Z</time>
      </trkpt>
      <trkpt lat="48.48878" lon="2.66795">
        <ele>104.4</ele>
        <time>2021-05-30T09:22:01Z</time>
      </trkpt>
      <trkpt lat="48.48901" lon="2.6678">
        <ele>104.9</ele>
        <time>2021-05-30T09:22:13Z</time>
      </trkpt>
      <trkpt lat="48.48912" lon="2.66755">
        <ele>105.8</ele>
        <time>2021-05-30T09:22:23Z</time>
      </trkpt>
      <trkpt lat="48.48948" lon="2.66726">
        <ele>104.6</ele>
        <time>2021-05-30T09:22:34Z</time>
      </trkpt>
      <trkpt lat="48.48982" lon="2.66687">
        <ele>104.5</ele>
        <time>2021-05-30T09:22:46Z</time>
      </trkpt>
      <trkpt lat="48.48988" lon="2.66675">
        <ele>104.8</ele>
        <time>2021-05-30T09:22:49Z</time>
      </trkpt>
      <trkpt lat="48.49033" lon="2.66643">
        <ele>104.6</ele>
        <time>2021-05-30T09:23:01Z</time>
      </trkpt>
      <trkpt lat="48.49055" lon="2.6663">
        <ele>104.5</ele>
        <time>2021-05-30T09:23:06Z</time>
      </trkpt>
      <trkpt lat="48.49098" lon="2.66602">
        <ele>104.1</ele>
        <time>2021-05-30T09:23:18Z</time>
      </trkpt>
      <trkpt lat="48.49136" lon="2.6658">
        <ele>102.3</ele>
        <time>2021-05-30T09:23:28Z</time>
      </trkpt>
      <trkpt lat="48.49148" lon="2.66573">
        <ele>101.7</ele>
        <time>2021-05-30T09:23:32Z</time>
      </trkpt>
      <trkpt lat="48.49157" lon="2.66601">
        <ele>100.2</ele>
        <time>2021-05-30T09:23:41Z</time>
      </trkpt>
      <trkpt lat="48.49163" lon="2.66643">
        <ele>98.8</ele>
        <time>2021-05-30T09:23:50Z</time>
      </trkpt>
      <trkpt lat="48.49176" lon="2.66667">
        <ele>97.8</ele>
        <time>2021-05-30T09:23:57Z</time>
      </trkpt>
      <trkpt lat="48.49181" lon="2.66661">
        <ele>97.8</ele>
        <time>2021-05-30T09:24:01Z</time>
      </trkpt>
      <trkpt lat="48.49205" lon="2.66659">
        <ele>97.2</ele>
        <time>2021-05-30T09:24:08Z</time>
      </trkpt>
      <trkpt lat="48.49223" lon="2.66661">
        <ele>96.7</ele>
        <time>2021-05-30T09:24:15Z</time>
      </trkpt>
      <trkpt lat="48.49233" lon="2.66673">
        <ele>96.4</ele>
        <time>2021-05-30T09:24:18Z</time>
      </trkpt>
      <trkpt lat="48.49267" lon="2.66726">
        <ele>96.1</ele>
        <time>2021-05-30T09:24:29Z</time>
      </trkpt>
      <trkpt lat="48.49268" lon="2.66772">
        <ele>94</ele>
        <time>2021-05-30T09:24:38Z</time>
      </trkpt>
      <trkpt lat="48.49289" lon="2.6679">
        <ele>90.9</ele>
        <time>2021-05-30T09:24:48Z</time>
      </trkpt>
      <trkpt lat="48.49299" lon="2.66808">
        <ele>88.1</ele>
        <time>2021-05-30T09:24:58Z</time>
      </trkpt>
      <trkpt lat="48.49299" lon="2.66813">
        <ele>87.5</ele>
        <time>2021-05-30T09:25:01Z</time>
      </trkpt>
      <trkpt lat="48.49295" lon="2.66822">
        <ele>86.9</ele>
        <time>2021-05-30T09:25:07Z</time>
      </trkpt>
      <trkpt lat="48.4929" lon="2.66826">
        <ele>86.9</ele>
        <time>2021-05-30T09:25:24Z</time>
      </trkpt>
      <trkpt lat="48.49289" lon="2.6683">
        <ele>86.7</ele>
        <time>2021-05-30T09:25:31Z</time>
      </trkpt>
      <trkpt lat="48.4931" lon="2.66845">
        <ele>82.7</ele>
        <time>2021-05-30T09:25:40Z</time>
      </trkpt>
      <trkpt lat="48.49329" lon="2.6685">
        <ele>80.3</ele>
        <time>2021-05-30T09:25:47Z</time>
      </trkpt>
      <trkpt lat="48.49336" lon="2.66848">
        <ele>80.1</ele>
        <time>2021-05-30T09:25:49Z</time>
      </trkpt>
      <trkpt lat="48.4935" lon="2.66844">
        <ele>80.3</ele>
        <time>2021-05-30T09:25:56Z</time>
      </trkpt>
      <trkpt lat="48.49364" lon="2.66827">
        <ele>81.7</ele>
        <time>2021-05-30T09:26:04Z</time>
      </trkpt>
      <trkpt lat="48.4937" lon="2.66821">
        <ele>82.1</ele>
        <time>2021-05-30T09:26:08Z</time>
      </trkpt>
      <trkpt lat="48.49389" lon="2.6681">
        <ele>82.7</ele>
        <time>2021-05-30T09:26:22Z</time>
      </trkpt>
      <trkpt lat="48.49394" lon="2.66806">
        <ele>83</ele>
        <time>2021-05-30T09:26:41Z</time>
      </trkpt>
      <trkpt lat="48.49399" lon="2.66808">
        <ele>82.5</ele>
        <time>2021-05-30T09:26:52Z</time>
      </trkpt>
      <trkpt lat="48.49404" lon="2.66809">
        <ele>82.1</ele>
        <time>2021-05-30T09:26:59Z</time>
      </trkpt>
      <trkpt lat="48.49408" lon="2.66812">
        <ele>81.7</ele>
        <time>2021-05-30T09:27:13Z</time>
      </trkpt>
      <trkpt lat="48.49409" lon="2.66812">
        <ele>81.7</ele>
        <time>2021-05-30T09:27:25Z</time>
      </trkpt>
      <trkpt lat="48.4941" lon="2.66813">
        <ele>81.4</ele>
        <time>2021-05-30T09:27:27Z</time>
      </trkpt>
      <trkpt lat="48.49419" lon="2.66816">
        <ele>80.8</ele>
        <time>2021-05-30T09:27:41Z</time>
      </trkpt>
      <trkpt lat="48.49422" lon="2.66818">
        <ele>80.6</ele>
        <time>2021-05-30T09:27:48Z</time>
      </trkpt>
      <trkpt lat="48.49426" lon="2.6682">
        <ele>80.3</ele>
        <time>2021-05-30T09:27:51Z</time>
      </trkpt>
      <trkpt lat="48.49435" lon="2.6681">
        <ele>81.1</ele>
        <time>2021-05-30T09:27:59Z</time>
      </trkpt>
      <trkpt lat="48.49435" lon="2.66801">
        <ele>82.1</ele>
        <time>2021-05-30T09:28:11Z</time>
      </trkpt>
      <trkpt lat="48.49437" lon="2.66801">
        <ele>82.1</ele>
        <time>2021-05-30T09:28:22Z</time>
      </trkpt>
      <trkpt lat="48.4944" lon="2.66799">
        <ele>82.2</ele>
        <time>2021-05-30T09:28:25Z</time>
      </trkpt>
      <trkpt lat="48.49452" lon="2.66787">
        <ele>83.4</ele>
        <time>2021-05-30T09:28:35Z</time>
      </trkpt>
      <trkpt lat="48.49463" lon="2.66786">
        <ele>83.3</ele>
        <time>2021-05-30T09:28:40Z</time>
      </trkpt>
      <trkpt lat="48.49477" lon="2.66774">
        <ele>84.5</ele>
        <time>2021-05-30T09:28:51Z</time>
      </trkpt>
      <trkpt lat="48.49479" lon="2.66771">
        <ele>84.8</ele>
        <time>2021-05-30T09:28:53Z</time>
      </trkpt>
      <trkpt lat="48.49496" lon="2.66761">
        <ele>85.8</ele>
        <time>2021-05-30T09:29:09Z</time>
      </trkpt>
      <trkpt lat="48.49504" lon="2.66753">
        <ele>86.7</ele>
        <time>2021-05-30T09:29:25Z</time>
      </trkpt>
      <trkpt lat="48.49506" lon="2.66747">
        <ele>87.2</ele>
        <time>2021-05-30T09:29:37Z</time>
      </trkpt>
      <trkpt lat="48.49511" lon="2.66739">
        <ele>87.6</ele>
        <time>2021-05-30T09:29:44Z</time>
      </trkpt>
      <trkpt lat="48.4953" lon="2.66726">
        <ele>88.4</ele>
        <time>2021-05-30T09:29:56Z</time>
      </trkpt>
      <trkpt lat="48.49531" lon="2.66725">
        <ele>88.5</ele>
        <time>2021-05-30T09:29:57Z</time>
      </trkpt>
      <trkpt lat="48.49544" lon="2.66711">
        <ele>89.2</ele>
        <time>2021-05-30T09:30:07Z</time>
      </trkpt>
      <trkpt lat="48.49564" lon="2.6671">
        <ele>89.3</ele>
        <time>2021-05-30T09:30:18Z</time>
      </trkpt>
      <trkpt lat="48.4957" lon="2.66699">
        <ele>89.8</ele>
        <time>2021-05-30T09:30:23Z</time>
      </trkpt>
      <trkpt lat="48.49587" lon="2.66698">
        <ele>89.8</ele>
        <time>2021-05-30T09:30:27Z</time>
      </trkpt>
      <trkpt lat="48.49627" lon="2.66703">
        <ele>89.1</ele>
        <time>2021-05-30T09:30:38Z</time>
      </trkpt>
      <trkpt lat="48.49629" lon="2.66703">
        <ele>89</ele>
        <time>2021-05-30T09:30:39Z</time>
      </trkpt>
      <trkpt lat="48.49647" lon="2.66697">
        <ele>89.3</ele>
        <time>2021-05-30T09:30:48Z</time>
      </trkpt>
      <trkpt lat="48.49653" lon="2.66692">
        <ele>89.6</ele>
        <time>2021-05-30T09:30:52Z</time>
      </trkpt>
      <trkpt lat="48.49657" lon="2.66691">
        <ele>89.8</ele>
        <time>2021-05-30T09:30:54Z</time>
      </trkpt>
      <trkpt lat="48.49671" lon="2.66687">
        <ele>90.1</ele>
        <time>2021-05-30T09:31:00Z</time>
      </trkpt>
      <trkpt lat="48.49679" lon="2.66684">
        <ele>90.6</ele>
        <time>2021-05-30T09:31:04Z</time>
      </trkpt>
      <trkpt lat="48.49687" lon="2.6668">
        <ele>91.2</ele>
        <time>2021-05-30T09:31:09Z</time>
      </trkpt>
      <trkpt lat="48.49695" lon="2.6668">
        <ele>91.3</ele>
        <time>2021-05-30T09:31:13Z</time>
      </trkpt>
      <trkpt lat="48.49708" lon="2.66677">
        <ele>91.9</ele>
        <time>2021-05-30T09:31:18Z</time>
      </trkpt>
      <trkpt lat="48.49713" lon="2.66673">
        <ele>92.5</ele>
        <time>2021-05-30T09:31:22Z</time>
      </trkpt>
      <trkpt lat="48.4973" lon="2.66667">
        <ele>93.5</ele>
        <time>2021-05-30T09:31:32Z</time>
      </trkpt>
      <trkpt lat="48.4974" lon="2.66669">
        <ele>93.6</ele>
        <time>2021-05-30T09:31:37Z</time>
      </trkpt>
      <trkpt lat="48.49745" lon="2.66668">
        <ele>93.7</ele>
        <time>2021-05-30T09:31:39Z</time>
      </trkpt>
      <trkpt lat="48.49757" lon="2.66659">
        <ele>94</ele>
        <time>2021-05-30T09:31:44Z</time>
      </trkpt>
      <trkpt lat="48.49774" lon="2.66652">
        <ele>93.5</ele>
        <time>2021-05-30T09:31:50Z</time>
      </trkpt>
      <trkpt lat="48.49788" lon="2.66646">
        <ele>93</ele>
        <time>2021-05-30T09:31:54Z</time>
      </trkpt>
      <trkpt lat="48.49812" lon="2.66649">
        <ele>91.8</ele>
        <time>2021-05-30T09:32:02Z</time>
      </trkpt>
      <trkpt lat="48.49821" lon="2.66651">
        <ele>91.3</ele>
        <time>2021-05-30T09:32:06Z</time>
      </trkpt>
      <trkpt lat="48.49834" lon="2.66651">
        <ele>90.8</ele>
        <time>2021-05-30T09:32:16Z</time>
      </trkpt>
      <trkpt lat="48.4984" lon="2.66647">
        <ele>91.2</ele>
        <time>2021-05-30T09:32:20Z</time>
      </trkpt>
      <trkpt lat="48.49856" lon="2.66646">
        <ele>91.8</ele>
        <time>2021-05-30T09:32:26Z</time>
      </trkpt>
      <trkpt lat="48.49876" lon="2.66656">
        <ele>92.1</ele>
        <time>2021-05-30T09:32:34Z</time>
      </trkpt>
      <trkpt lat="48.49886" lon="2.6666">
        <ele>92.2</ele>
        <time>2021-05-30T09:32:38Z</time>
      </trkpt>
      <trkpt lat="48.49899" lon="2.66663">
        <ele>92.5</ele>
        <time>2021-05-30T09:32:42Z</time>
      </trkpt>
      <trkpt lat="48.49919" lon="2.66669">
        <ele>92.8</ele>
        <time>2021-05-30T09:32:48Z</time>
      </trkpt>
      <trkpt lat="48.49942" lon="2.66661">
        <ele>94.2</ele>
        <time>2021-05-30T09:32:56Z</time>
      </trkpt>
      <trkpt lat="48.49952" lon="2.66661">
        <ele>94.6</ele>
        <time>2021-05-30T09:32:59Z</time>
      </trkpt>
      <trkpt lat="48.49984" lon="2.66644">
        <ele>97</ele>
        <time>2021-05-30T09:33:10Z</time>
      </trkpt>
      <trkpt lat="48.49994" lon="2.66637">
        <ele>97.9</ele>
        <time>2021-05-30T09:33:15Z</time>
      </trkpt>
      <trkpt lat="48.50005" lon="2.66628">
        <ele>98.7</ele>
        <time>2021-05-30T09:33:20Z</time>
      </trkpt>
      <trkpt lat="48.50013" lon="2.66616">
        <ele>99.4</ele>
        <time>2021-05-30T09:33:26Z</time>
      </trkpt>
      <trkpt lat="48.50028" lon="2.66603">
        <ele>100.2</ele>
        <time>2021-05-30T09:33:33Z</time>
      </trkpt>
      <trkpt lat="48.5004" lon="2.66601">
        <ele>100.2</ele>
        <time>2021-05-30T09:33:37Z</time>
      </trkpt>
      <trkpt lat="48.5005" lon="2.66593">
        <ele>100.7</ele>
        <time>2021-05-30T09:33:40Z</time>
      </trkpt>
      <trkpt lat="48.50079" lon="2.66597">
        <ele>99.9</ele>
        <time>2021-05-30T09:33:49Z</time>
      </trkpt>
      <trkpt lat="48.50101" lon="2.66611">
        <ele>98.7</ele>
        <time>2021-05-30T09:33:56Z</time>
      </trkpt>
      <trkpt lat="48.50113" lon="2.66607">
        <ele>99</ele>
        <time>2021-05-30T09:34:01Z</time>
      </trkpt>
      <trkpt lat="48.50146" lon="2.66607">
        <ele>99</ele>
        <time>2021-05-30T09:34:12Z</time>
      </trkpt>
      <trkpt lat="48.50171" lon="2.66594">
        <ele>100.1</ele>
        <time>2021-05-30T09:34:22Z</time>
      </trkpt>
      <trkpt lat="48.50178" lon="2.66593">
        <ele>100.3</ele>
        <time>2021-05-30T09:34:25Z</time>
      </trkpt>
      <trkpt lat="48.50184" lon="2.66572">
        <ele>101.3</ele>
        <time>2021-05-30T09:34:30Z</time>
      </trkpt>
      <trkpt lat="48.50183" lon="2.66541">
        <ele>101.4</ele>
        <time>2021-05-30T09:34:37Z</time>
      </trkpt>
      <trkpt lat="48.50182" lon="2.66506">
        <ele>101.5</ele>
        <time>2021-05-30T09:34:46Z</time>
      </trkpt>
      <trkpt lat="48.50185" lon="2.66477">
        <ele>101.3</ele>
        <time>2021-05-30T09:34:51Z</time>
      </trkpt>
      <trkpt lat="48.50197" lon="2.66464">
        <ele>101.7</ele>
        <time>2021-05-30T09:34:56Z</time>
      </trkpt>
      <trkpt lat="48.50203" lon="2.66458">
        <ele>101.9</ele>
        <time>2021-05-30T09:34:58Z</time>
      </trkpt>
      <trkpt lat="48.50232" lon="2.66424">
        <ele>103.7</ele>
        <time>2021-05-30T09:35:08Z</time>
      </trkpt>
      <trkpt lat="48.50264" lon="2.66398">
        <ele>104.6</ele>
        <time>2021-05-30T09:35:17Z</time>
      </trkpt>
      <trkpt lat="48.50289" lon="2.66382">
        <ele>104.4</ele>
        <time>2021-05-30T09:35:24Z</time>
      </trkpt>
      <trkpt lat="48.50319" lon="2.6636">
        <ele>104.2</ele>
        <time>2021-05-30T09:35:35Z</time>
      </trkpt>
      <trkpt lat="48.50329" lon="2.66351">
        <ele>104.2</ele>
        <time>2021-05-30T09:35:39Z</time>
      </trkpt>
      <trkpt lat="48.50378" lon="2.66328">
        <ele>101.7</ele>
        <time>2021-05-30T09:35:52Z</time>
      </trkpt>
      <trkpt lat="48.50422" lon="2.66302">
        <ele>98</ele>
        <time>2021-05-30T09:36:04Z</time>
      </trkpt>
      <trkpt lat="48.50488" lon="2.66265">
        <ele>94</ele>
        <time>2021-05-30T09:36:19Z</time>
      </trkpt>
      <trkpt lat="48.50545" lon="2.66219">
        <ele>93.1</ele>
        <time>2021-05-30T09:36:31Z</time>
      </trkpt>
      <trkpt lat="48.50569" lon="2.66199">
        <ele>92.9</ele>
        <time>2021-05-30T09:36:36Z</time>
      </trkpt>
      <trkpt lat="48.50578" lon="2.66189">
        <ele>92.7</ele>
        <time>2021-05-30T09:36:38Z</time>
      </trkpt>
      <trkpt lat="48.50587" lon="2.6618">
        <ele>92.4</ele>
        <time>2021-05-30T09:36:40Z</time>
      </trkpt>
      <trkpt lat="48.50629" lon="2.66132">
        <ele>90.5</ele>
        <time>2021-05-30T09:36:51Z</time>
      </trkpt>
      <trkpt lat="48.50632" lon="2.66128">
        <ele>90.4</ele>
        <time>2021-05-30T09:36:52Z</time>
      </trkpt>
      <trkpt lat="48.50646" lon="2.66115">
        <ele>90.2</ele>
        <time>2021-05-30T09:36:56Z</time>
      </trkpt>
      <trkpt lat="48.5065" lon="2.66114">
        <ele>90.1</ele>
        <time>2021-05-30T09:36:57Z</time>
      </trkpt>
      <trkpt lat="48.50655" lon="2.66116">
        <ele>90.1</ele>
        <time>2021-05-30T09:36:58Z</time>
      </trkpt>
      <trkpt lat="48.50659" lon="2.66118">
        <ele>90.1</ele>
        <time>2021-05-30T09:36:59Z</time>
      </trkpt>
      <trkpt lat="48.50663" lon="2.66122">
        <ele>90</ele>
        <time>2021-05-30T09:37:00Z</time>
      </trkpt>
      <trkpt lat="48.50667" lon="2.66126">
        <ele>90</ele>
        <time>2021-05-30T09:37:01Z</time>
      </trkpt>
      <trkpt lat="48.50671" lon="2.6613">
        <ele>89.8</ele>
        <time>2021-05-30T09:37:02Z</time>
      </trkpt>
      <trkpt lat="48.50675" lon="2.66134">
        <ele>89.6</ele>
        <time>2021-05-30T09:37:03Z</time>
      </trkpt>
      <trkpt lat="48.50679" lon="2.66139">
        <ele>89.4</ele>
        <time>2021-05-30T09:37:04Z</time>
      </trkpt>
      <trkpt lat="48.50719" lon="2.66184">
        <ele>87.6</ele>
        <time>2021-05-30T09:37:14Z</time>
      </trkpt>
      <trkpt lat="48.50727" lon="2.66195">
        <ele>87.2</ele>
        <time>2021-05-30T09:37:16Z</time>
      </trkpt>
      <trkpt lat="48.5075" lon="2.66225">
        <ele>86</ele>
        <time>2021-05-30T09:37:22Z</time>
      </trkpt>
      <trkpt lat="48.50755" lon="2.6623">
        <ele>85.7</ele>
        <time>2021-05-30T09:37:23Z</time>
      </trkpt>
      <trkpt lat="48.5076" lon="2.66233">
        <ele>85.4</ele>
        <time>2021-05-30T09:37:24Z</time>
      </trkpt>
      <trkpt lat="48.5079" lon="2.66245">
        <ele>83.6</ele>
        <time>2021-05-30T09:37:29Z</time>
      </trkpt>
      <trkpt lat="48.50796" lon="2.6625">
        <ele>83.3</ele>
        <time>2021-05-30T09:37:30Z</time>
      </trkpt>
      <trkpt lat="48.50857" lon="2.663">
        <ele>80.4</ele>
        <time>2021-05-30T09:37:41Z</time>
      </trkpt>
      <trkpt lat="48.5089" lon="2.66319">
        <ele>78.7</ele>
        <time>2021-05-30T09:37:46Z</time>
      </trkpt>
      <trkpt lat="48.50897" lon="2.66321">
        <ele>78.3</ele>
        <time>2021-05-30T09:37:47Z</time>
      </trkpt>
      <trkpt lat="48.50917" lon="2.6633">
        <ele>77</ele>
        <time>2021-05-30T09:37:50Z</time>
      </trkpt>
      <trkpt lat="48.50923" lon="2.66335">
        <ele>76.7</ele>
        <time>2021-05-30T09:37:51Z</time>
      </trkpt>
      <trkpt lat="48.50985" lon="2.66383">
        <ele>74.2</ele>
        <time>2021-05-30T09:38:01Z</time>
      </trkpt>
      <trkpt lat="48.50991" lon="2.66385">
        <ele>74</ele>
        <time>2021-05-30T09:38:02Z</time>
      </trkpt>
      <trkpt lat="48.51026" lon="2.664">
        <ele>73.2</ele>
        <time>2021-05-30T09:38:08Z</time>
      </trkpt>
      <trkpt lat="48.51044" lon="2.6641">
        <ele>72.9</ele>
        <time>2021-05-30T09:38:11Z</time>
      </trkpt>
      <trkpt lat="48.51049" lon="2.66415">
        <ele>72.8</ele>
        <time>2021-05-30T09:38:12Z</time>
      </trkpt>
      <trkpt lat="48.51059" lon="2.66424">
        <ele>72.5</ele>
        <time>2021-05-30T09:38:14Z</time>
      </trkpt>
      <trkpt lat="48.51064" lon="2.66425">
        <ele>72.4</ele>
        <time>2021-05-30T09:38:15Z</time>
      </trkpt>
      <trkpt lat="48.5107" lon="2.66422">
        <ele>72.3</ele>
        <time>2021-05-30T09:38:16Z</time>
      </trkpt>
      <trkpt lat="48.51073" lon="2.66416">
        <ele>72.2</ele>
        <time>2021-05-30T09:38:17Z</time>
      </trkpt>
      <trkpt lat="48.51076" lon="2.66408">
        <ele>72.2</ele>
        <time>2021-05-30T09:38:18Z</time>
      </trkpt>
      <trkpt lat="48.51077" lon="2.664">
        <ele>72.1</ele>
        <time>2021-05-30T09:38:19Z</time>
      </trkpt>
      <trkpt lat="48.51079" lon="2.66391">
        <ele>72.1</ele>
        <time>2021-05-30T09:38:20Z</time>
      </trkpt>
      <trkpt lat="48.51092" lon="2.66277">
        <ele>73.1</ele>
        <time>2021-05-30T09:38:34Z</time>
      </trkpt>
      <trkpt lat="48.511" lon="2.66205">
        <ele>73.9</ele>
        <time>2021-05-30T09:38:44Z</time>
      </trkpt>
      <trkpt lat="48.51102" lon="2.66198">
        <ele>74</ele>
        <time>2021-05-30T09:38:45Z</time>
      </trkpt>
      <trkpt lat="48.51103" lon="2.66192">
        <ele>74</ele>
        <time>2021-05-30T09:38:46Z</time>
      </trkpt>
      <trkpt lat="48.51106" lon="2.66186">
        <ele>74</ele>
        <time>2021-05-30T09:38:47Z</time>
      </trkpt>
      <trkpt lat="48.51109" lon="2.66181">
        <ele>73.9</ele>
        <time>2021-05-30T09:38:48Z</time>
      </trkpt>
      <trkpt lat="48.51113" lon="2.66178">
        <ele>73.8</ele>
        <time>2021-05-30T09:38:49Z</time>
      </trkpt>
      <trkpt lat="48.51117" lon="2.66176">
        <ele>73.7</ele>
        <time>2021-05-30T09:38:50Z</time>
      </trkpt>
      <trkpt lat="48.51122" lon="2.66176">
        <ele>73.5</ele>
        <time>2021-05-30T09:38:51Z</time>
      </trkpt>
      <trkpt lat="48.51127" lon="2.66176">
        <ele>73.3</ele>
        <time>2021-05-30T09:38:52Z</time>
      </trkpt>
      <trkpt lat="48.51132" lon="2.66175">
        <ele>73.2</ele>
        <time>2021-05-30T09:38:53Z</time>
      </trkpt>
      <trkpt lat="48.51137" lon="2.66174">
        <ele>73</ele>
        <time>2021-05-30T09:38:54Z</time>
      </trkpt>
      <trkpt lat="48.51142" lon="2.66174">
        <ele>72.8</ele>
        <time>2021-05-30T09:38:55Z</time>
      </trkpt>
      <trkpt lat="48.5118" lon="2.66172">
        <ele>71.6</ele>
        <time>2021-05-30T09:39:02Z</time>
      </trkpt>
      <trkpt lat="48.51186" lon="2.66172">
        <ele>71.5</ele>
        <time>2021-05-30T09:39:03Z</time>
      </trkpt>
      <trkpt lat="48.51206" lon="2.66171">
        <ele>71</ele>
        <time>2021-05-30T09:39:07Z</time>
      </trkpt>
      <trkpt lat="48.5121" lon="2.66171">
        <ele>71</ele>
        <time>2021-05-30T09:39:08Z</time>
      </trkpt>
      <trkpt lat="48.51214" lon="2.66171">
        <ele>70.9</ele>
        <time>2021-05-30T09:39:09Z</time>
      </trkpt>
      <trkpt lat="48.51221" lon="2.66169">
        <ele>70.7</ele>
        <time>2021-05-30T09:39:11Z</time>
      </trkpt>
      <trkpt lat="48.51223" lon="2.66165">
        <ele>70.7</ele>
        <time>2021-05-30T09:39:12Z</time>
      </trkpt>
      <trkpt lat="48.51224" lon="2.66159">
        <ele>70.8</ele>
        <time>2021-05-30T09:39:13Z</time>
      </trkpt>
      <trkpt lat="48.51225" lon="2.66154">
        <ele>71</ele>
        <time>2021-05-30T09:39:14Z</time>
      </trkpt>
      <trkpt lat="48.51224" lon="2.66148">
        <ele>71.2</ele>
        <time>2021-05-30T09:39:15Z</time>
      </trkpt>
      <trkpt lat="48.51224" lon="2.66141">
        <ele>71.4</ele>
        <time>2021-05-30T09:39:16Z</time>
      </trkpt>
      <trkpt lat="48.51224" lon="2.66085">
        <ele>73.2</ele>
        <time>2021-05-30T09:39:28Z</time>
      </trkpt>
      <trkpt lat="48.51225" lon="2.66083">
        <ele>73.2</ele>
        <time>2021-05-30T09:39:29Z</time>
      </trkpt>
      <trkpt lat="48.51225" lon="2.66079">
        <ele>73.3</ele>
        <time>2021-05-30T09:39:30Z</time>
      </trkpt>
      <trkpt lat="48.51225" lon="2.66073">
        <ele>73.5</ele>
        <time>2021-05-30T09:39:32Z</time>
      </trkpt>
      <trkpt lat="48.51226" lon="2.66072">
        <ele>73.5</ele>
        <time>2021-05-30T09:39:33Z</time>
      </trkpt>
      <trkpt lat="48.51247" lon="2.66055">
        <ele>73.1</ele>
        <time>2021-05-30T09:39:43Z</time>
      </trkpt>
      <trkpt lat="48.51256" lon="2.66047">
        <ele>73.4</ele>
        <time>2021-05-30T09:39:46Z</time>
      </trkpt>
      <trkpt lat="48.51271" lon="2.66056">
        <ele>73.2</ele>
        <time>2021-05-30T09:39:50Z</time>
      </trkpt>
      <trkpt lat="48.51278" lon="2.66064">
        <ele>73</ele>
        <time>2021-05-30T09:39:52Z</time>
      </trkpt>
      <trkpt lat="48.51289" lon="2.66062">
        <ele>73.2</ele>
        <time>2021-05-30T09:39:55Z</time>
      </trkpt>
      <trkpt lat="48.51305" lon="2.6606">
        <ele>73.5</ele>
        <time>2021-05-30T09:39:59Z</time>
      </trkpt>
      <trkpt lat="48.51323" lon="2.66049">
        <ele>74.1</ele>
        <time>2021-05-30T09:40:03Z</time>
      </trkpt>
      <trkpt lat="48.51362" lon="2.66051">
        <ele>73.3</ele>
        <time>2021-05-30T09:40:10Z</time>
      </trkpt>
      <trkpt lat="48.51385" lon="2.66021">
        <ele>73.8</ele>
        <time>2021-05-30T09:40:17Z</time>
      </trkpt>
      <trkpt lat="48.51396" lon="2.66003">
        <ele>74.4</ele>
        <time>2021-05-30T09:40:20Z</time>
      </trkpt>
      <trkpt lat="48.51413" lon="2.65992">
        <ele>74.2</ele>
        <time>2021-05-30T09:40:24Z</time>
      </trkpt>
      <trkpt lat="48.51444" lon="2.65975">
        <ele>73.6</ele>
        <time>2021-05-30T09:40:32Z</time>
      </trkpt>
      <trkpt lat="48.51454" lon="2.65961">
        <ele>73.4</ele>
        <time>2021-05-30T09:40:36Z</time>
      </trkpt>
      <trkpt lat="48.51468" lon="2.65924">
        <ele>73.1</ele>
        <time>2021-05-30T09:40:42Z</time>
      </trkpt>
      <trkpt lat="48.51478" lon="2.65914">
        <ele>72.7</ele>
        <time>2021-05-30T09:40:45Z</time>
      </trkpt>
      <trkpt lat="48.51486" lon="2.65926">
        <ele>72.5</ele>
        <time>2021-05-30T09:40:50Z</time>
      </trkpt>
      <trkpt lat="48.5147" lon="2.65989">
        <ele>72.8</ele>
        <time>2021-05-30T09:41:02Z</time>
      </trkpt>
      <trkpt lat="48.51475" lon="2.66046">
        <ele>71.2</ele>
        <time>2021-05-30T09:41:11Z</time>
      </trkpt>
      <trkpt lat="48.5149" lon="2.66103">
        <ele>69.5</ele>
        <time>2021-05-30T09:41:20Z</time>
      </trkpt>
      <trkpt lat="48.51507" lon="2.66145">
        <ele>68.3</ele>
        <time>2021-05-30T09:41:29Z</time>
      </trkpt>
      <trkpt lat="48.51505" lon="2.66154">
        <ele>68.1</ele>
        <time>2021-05-30T09:41:31Z</time>
      </trkpt>
      <trkpt lat="48.51491" lon="2.66214">
        <ele>70.7</ele>
        <time>2021-05-30T09:41:42Z</time>
      </trkpt>
      <trkpt lat="48.51491" lon="2.66226">
        <ele>71.4</ele>
        <time>2021-05-30T09:41:44Z</time>
      </trkpt>
      <trkpt lat="48.51493" lon="2.66232">
        <ele>71.8</ele>
        <time>2021-05-30T09:41:45Z</time>
      </trkpt>
      <trkpt lat="48.51497" lon="2.66235">
        <ele>72</ele>
        <time>2021-05-30T09:41:46Z</time>
      </trkpt>
      <trkpt lat="48.515" lon="2.66235">
        <ele>72.1</ele>
        <time>2021-05-30T09:41:47Z</time>
      </trkpt>
      <trkpt lat="48.51503" lon="2.66234">
        <ele>71.9</ele>
        <time>2021-05-30T09:41:48Z</time>
      </trkpt>
      <trkpt lat="48.51505" lon="2.66233">
        <ele>71.7</ele>
        <time>2021-05-30T09:41:49Z</time>
      </trkpt>
      <trkpt lat="48.51509" lon="2.66233">
        <ele>71.6</ele>
        <time>2021-05-30T09:41:50Z</time>
      </trkpt>
      <trkpt lat="48.51513" lon="2.66233">
        <ele>71.4</ele>
        <time>2021-05-30T09:41:51Z</time>
      </trkpt>
      <trkpt lat="48.51518" lon="2.66234">
        <ele>71.2</ele>
        <time>2021-05-30T09:41:52Z</time>
      </trkpt>
      <trkpt lat="48.51521" lon="2.66235">
        <ele>71.1</ele>
        <time>2021-05-30T09:41:53Z</time>
      </trkpt>
      <trkpt lat="48.51525" lon="2.66235">
        <ele>70.9</ele>
        <time>2021-05-30T09:41:54Z</time>
      </trkpt>
      <trkpt lat="48.5153" lon="2.66234">
        <ele>70.7</ele>
        <time>2021-05-30T09:41:55Z</time>
      </trkpt>
      <trkpt lat="48.51534" lon="2.66233">
        <ele>70.4</ele>
        <time>2021-05-30T09:41:56Z</time>
      </trkpt>
      <trkpt lat="48.51539" lon="2.66234">
        <ele>70.3</ele>
        <time>2021-05-30T09:41:57Z</time>
      </trkpt>
      <trkpt lat="48.51543" lon="2.66238">
        <ele>70.3</ele>
        <time>2021-05-30T09:41:58Z</time>
      </trkpt>
      <trkpt lat="48.51546" lon="2.66242">
        <ele>70.4</ele>
        <time>2021-05-30T09:41:59Z</time>
      </trkpt>
      <trkpt lat="48.51547" lon="2.66245">
        <ele>70.5</ele>
        <time>2021-05-30T09:42:00Z</time>
      </trkpt>
      <trkpt lat="48.51548" lon="2.6625">
        <ele>70.7</ele>
        <time>2021-05-30T09:42:01Z</time>
      </trkpt>
      <trkpt lat="48.51577" lon="2.663">
        <ele>70.5</ele>
        <time>2021-05-30T09:42:12Z</time>
      </trkpt>
      <trkpt lat="48.51595" lon="2.66317">
        <ele>70.2</ele>
        <time>2021-05-30T09:42:20Z</time>
      </trkpt>
      <trkpt lat="48.516" lon="2.66318">
        <ele>70</ele>
        <time>2021-05-30T09:42:21Z</time>
      </trkpt>
      <trkpt lat="48.51604" lon="2.66318">
        <ele>69.9</ele>
        <time>2021-05-30T09:42:22Z</time>
      </trkpt>
      <trkpt lat="48.51608" lon="2.66317">
        <ele>69.7</ele>
        <time>2021-05-30T09:42:23Z</time>
      </trkpt>
      <trkpt lat="48.51612" lon="2.66317">
        <ele>69.6</ele>
        <time>2021-05-30T09:42:24Z</time>
      </trkpt>
      <trkpt lat="48.51617" lon="2.66317">
        <ele>69.4</ele>
        <time>2021-05-30T09:42:25Z</time>
      </trkpt>
      <trkpt lat="48.51621" lon="2.66317">
        <ele>69.3</ele>
        <time>2021-05-30T09:42:26Z</time>
      </trkpt>
      <trkpt lat="48.51628" lon="2.66318">
        <ele>69</ele>
        <time>2021-05-30T09:42:28Z</time>
      </trkpt>
      <trkpt lat="48.51632" lon="2.6632">
        <ele>68.9</ele>
        <time>2021-05-30T09:42:29Z</time>
      </trkpt>
      <trkpt lat="48.51637" lon="2.6632">
        <ele>68.8</ele>
        <time>2021-05-30T09:42:30Z</time>
      </trkpt>
      <trkpt lat="48.51645" lon="2.66317">
        <ele>68.4</ele>
        <time>2021-05-30T09:42:33Z</time>
      </trkpt>
      <trkpt lat="48.51647" lon="2.66313">
        <ele>68.2</ele>
        <time>2021-05-30T09:42:34Z</time>
      </trkpt>
      <trkpt lat="48.51649" lon="2.66309">
        <ele>68</ele>
        <time>2021-05-30T09:42:35Z</time>
      </trkpt>
      <trkpt lat="48.51652" lon="2.66304">
        <ele>67.8</ele>
        <time>2021-05-30T09:42:36Z</time>
      </trkpt>
      <trkpt lat="48.51653" lon="2.663">
        <ele>67.7</ele>
        <time>2021-05-30T09:42:37Z</time>
      </trkpt>
      <trkpt lat="48.51664" lon="2.66276">
        <ele>66.7</ele>
        <time>2021-05-30T09:42:42Z</time>
      </trkpt>
      <trkpt lat="48.51665" lon="2.66272">
        <ele>66.6</ele>
        <time>2021-05-30T09:42:43Z</time>
      </trkpt>
      <trkpt lat="48.51667" lon="2.66269">
        <ele>66.5</ele>
        <time>2021-05-30T09:42:44Z</time>
      </trkpt>
      <trkpt lat="48.51674" lon="2.66266">
        <ele>66</ele>
        <time>2021-05-30T09:42:46Z</time>
      </trkpt>
      <trkpt lat="48.5168" lon="2.66264">
        <ele>65.5</ele>
        <time>2021-05-30T09:42:47Z</time>
      </trkpt>
      <trkpt lat="48.51686" lon="2.66264">
        <ele>65.1</ele>
        <time>2021-05-30T09:42:48Z</time>
      </trkpt>
      <trkpt lat="48.51694" lon="2.66264">
        <ele>64.7</ele>
        <time>2021-05-30T09:42:49Z</time>
      </trkpt>
      <trkpt lat="48.517" lon="2.66265">
        <ele>64.4</ele>
        <time>2021-05-30T09:42:50Z</time>
      </trkpt>
      <trkpt lat="48.51706" lon="2.66267">
        <ele>64</ele>
        <time>2021-05-30T09:42:51Z</time>
      </trkpt>
      <trkpt lat="48.51709" lon="2.6627">
        <ele>63.9</ele>
        <time>2021-05-30T09:42:52Z</time>
      </trkpt>
      <trkpt lat="48.51712" lon="2.66272">
        <ele>63.8</ele>
        <time>2021-05-30T09:42:53Z</time>
      </trkpt>
      <trkpt lat="48.51715" lon="2.66275">
        <ele>63.7</ele>
        <time>2021-05-30T09:42:54Z</time>
      </trkpt>
      <trkpt lat="48.51717" lon="2.66277">
        <ele>63.6</ele>
        <time>2021-05-30T09:42:55Z</time>
      </trkpt>
      <trkpt lat="48.5172" lon="2.6628">
        <ele>63.5</ele>
        <time>2021-05-30T09:42:56Z</time>
      </trkpt>
      <trkpt lat="48.51723" lon="2.66283">
        <ele>63.4</ele>
        <time>2021-05-30T09:42:57Z</time>
      </trkpt>
      <trkpt lat="48.51727" lon="2.66284">
        <ele>63.2</ele>
        <time>2021-05-30T09:42:58Z</time>
      </trkpt>
      <trkpt lat="48.51729" lon="2.66284">
        <ele>63.1</ele>
        <time>2021-05-30T09:42:59Z</time>
      </trkpt>
      <trkpt lat="48.51733" lon="2.66284">
        <ele>62.8</ele>
        <time>2021-05-30T09:43:00Z</time>
      </trkpt>
      <trkpt lat="48.51736" lon="2.66285">
        <ele>62.7</ele>
        <time>2021-05-30T09:43:01Z</time>
      </trkpt>
      <trkpt lat="48.51741" lon="2.66287">
        <ele>62.4</ele>
        <time>2021-05-30T09:43:02Z</time>
      </trkpt>
      <trkpt lat="48.51742" lon="2.6629">
        <ele>62.4</ele>
        <time>2021-05-30T09:43:03Z</time>
      </trkpt>
      <trkpt lat="48.51743" lon="2.66294">
        <ele>62.5</ele>
        <time>2021-05-30T09:43:04Z</time>
      </trkpt>
      <trkpt lat="48.51744" lon="2.66298">
        <ele>62.5</ele>
        <time>2021-05-30T09:43:05Z</time>
      </trkpt>
      <trkpt lat="48.51749" lon="2.66344">
        <ele>63.1</ele>
        <time>2021-05-30T09:43:16Z</time>
      </trkpt>
      <trkpt lat="48.51751" lon="2.66383">
        <ele>62.9</ele>
        <time>2021-05-30T09:43:26Z</time>
      </trkpt>
      <trkpt lat="48.51744" lon="2.66451">
        <ele>62.5</ele>
        <time>2021-05-30T09:43:39Z</time>
      </trkpt>
      <trkpt lat="48.51744" lon="2.66463">
        <ele>62.2</ele>
        <time>2021-05-30T09:43:41Z</time>
      </trkpt>
      <trkpt lat="48.51744" lon="2.66469">
        <ele>62</ele>
        <time>2021-05-30T09:43:42Z</time>
      </trkpt>
      <trkpt lat="48.51744" lon="2.66475">
        <ele>61.8</ele>
        <time>2021-05-30T09:43:43Z</time>
      </trkpt>
      <trkpt lat="48.51744" lon="2.66481">
        <ele>61.7</ele>
        <time>2021-05-30T09:43:44Z</time>
      </trkpt>
      <trkpt lat="48.51743" lon="2.66486">
        <ele>61.5</ele>
        <time>2021-05-30T09:43:45Z</time>
      </trkpt>
      <trkpt lat="48.51742" lon="2.66492">
        <ele>61.4</ele>
        <time>2021-05-30T09:43:46Z</time>
      </trkpt>
      <trkpt lat="48.51742" lon="2.66498">
        <ele>61.2</ele>
        <time>2021-05-30T09:43:47Z</time>
      </trkpt>
      <trkpt lat="48.51742" lon="2.66505">
        <ele>61</ele>
        <time>2021-05-30T09:43:48Z</time>
      </trkpt>
      <trkpt lat="48.51741" lon="2.66553">
        <ele>58.7</ele>
        <time>2021-05-30T09:43:58Z</time>
      </trkpt>
      <trkpt lat="48.51747" lon="2.66559">
        <ele>58.3</ele>
        <time>2021-05-30T09:44:12Z</time>
      </trkpt>
      <trkpt lat="48.51753" lon="2.66567">
        <ele>57.7</ele>
        <time>2021-05-30T09:44:29Z</time>
      </trkpt>
      <trkpt lat="48.51754" lon="2.6657">
        <ele>57.5</ele>
        <time>2021-05-30T09:44:30Z</time>
      </trkpt>
      <trkpt lat="48.51754" lon="2.66574">
        <ele>57.4</ele>
        <time>2021-05-30T09:44:31Z</time>
      </trkpt>
      <trkpt lat="48.51753" lon="2.66584">
        <ele>56.9</ele>
        <time>2021-05-30T09:44:33Z</time>
      </trkpt>
      <trkpt lat="48.51755" lon="2.6659">
        <ele>56.6</ele>
        <time>2021-05-30T09:44:34Z</time>
      </trkpt>
      <trkpt lat="48.51756" lon="2.66597">
        <ele>56.4</ele>
        <time>2021-05-30T09:44:35Z</time>
      </trkpt>
      <trkpt lat="48.51758" lon="2.6661">
        <ele>55.9</ele>
        <time>2021-05-30T09:44:37Z</time>
      </trkpt>
      <trkpt lat="48.51759" lon="2.6662">
        <ele>55.4</ele>
        <time>2021-05-30T09:44:38Z</time>
      </trkpt>
      <trkpt lat="48.51762" lon="2.66628">
        <ele>55.1</ele>
        <time>2021-05-30T09:44:39Z</time>
      </trkpt>
      <trkpt lat="48.51764" lon="2.66635">
        <ele>54.8</ele>
        <time>2021-05-30T09:44:40Z</time>
      </trkpt>
      <trkpt lat="48.51767" lon="2.6664">
        <ele>54.5</ele>
        <time>2021-05-30T09:44:41Z</time>
      </trkpt>
      <trkpt lat="48.51772" lon="2.66644">
        <ele>54.3</ele>
        <time>2021-05-30T09:44:42Z</time>
      </trkpt>
      <trkpt lat="48.51778" lon="2.66647">
        <ele>54</ele>
        <time>2021-05-30T09:44:43Z</time>
      </trkpt>
      <trkpt lat="48.51784" lon="2.66648">
        <ele>53.8</ele>
        <time>2021-05-30T09:44:44Z</time>
      </trkpt>
      <trkpt lat="48.5179" lon="2.6665">
        <ele>53.6</ele>
        <time>2021-05-30T09:44:45Z</time>
      </trkpt>
      <trkpt lat="48.51795" lon="2.66652">
        <ele>53.4</ele>
        <time>2021-05-30T09:44:46Z</time>
      </trkpt>
      <trkpt lat="48.5183" lon="2.66662">
        <ele>52.2</ele>
        <time>2021-05-30T09:44:52Z</time>
      </trkpt>
      <trkpt lat="48.51836" lon="2.66666">
        <ele>51.9</ele>
        <time>2021-05-30T09:44:53Z</time>
      </trkpt>
      <trkpt lat="48.5184" lon="2.66672">
        <ele>51.4</ele>
        <time>2021-05-30T09:44:54Z</time>
      </trkpt>
      <trkpt lat="48.51842" lon="2.6668">
        <ele>50.8</ele>
        <time>2021-05-30T09:44:55Z</time>
      </trkpt>
      <trkpt lat="48.51844" lon="2.66687">
        <ele>50.2</ele>
        <time>2021-05-30T09:44:56Z</time>
      </trkpt>
      <trkpt lat="48.51845" lon="2.66695">
        <ele>49.7</ele>
        <time>2021-05-30T09:44:57Z</time>
      </trkpt>
      <trkpt lat="48.51846" lon="2.6671">
        <ele>48.6</ele>
        <time>2021-05-30T09:44:59Z</time>
      </trkpt>
      <trkpt lat="48.51844" lon="2.66717">
        <ele>48.2</ele>
        <time>2021-05-30T09:45:00Z</time>
      </trkpt>
      <trkpt lat="48.51842" lon="2.66723">
        <ele>47.8</ele>
        <time>2021-05-30T09:45:01Z</time>
      </trkpt>
      <trkpt lat="48.51838" lon="2.66728">
        <ele>47.5</ele>
        <time>2021-05-30T09:45:02Z</time>
      </trkpt>
      <trkpt lat="48.51833" lon="2.66732">
        <ele>47.3</ele>
        <time>2021-05-30T09:45:03Z</time>
      </trkpt>
      <trkpt lat="48.51827" lon="2.66734">
        <ele>47.2</ele>
        <time>2021-05-30T09:45:04Z</time>
      </trkpt>
      <trkpt lat="48.51821" lon="2.66736">
        <ele>47.2</ele>
        <time>2021-05-30T09:45:05Z</time>
      </trkpt>
      <trkpt lat="48.51789" lon="2.66751">
        <ele>46.5</ele>
        <time>2021-05-30T09:45:10Z</time>
      </trkpt>
      <trkpt lat="48.51782" lon="2.66757">
        <ele>46.3</ele>
        <time>2021-05-30T09:45:11Z</time>
      </trkpt>
      <trkpt lat="48.51775" lon="2.66764">
        <ele>46.1</ele>
        <time>2021-05-30T09:45:12Z</time>
      </trkpt>
      <trkpt lat="48.5177" lon="2.66773">
        <ele>45.7</ele>
        <time>2021-05-30T09:45:13Z</time>
      </trkpt>
      <trkpt lat="48.51767" lon="2.66783">
        <ele>45.3</ele>
        <time>2021-05-30T09:45:14Z</time>
      </trkpt>
      <trkpt lat="48.51765" lon="2.66795">
        <ele>44.8</ele>
        <time>2021-05-30T09:45:15Z</time>
      </trkpt>
      <trkpt lat="48.51764" lon="2.66807">
        <ele>44.2</ele>
        <time>2021-05-30T09:45:16Z</time>
      </trkpt>
      <trkpt lat="48.51764" lon="2.6682">
        <ele>43.6</ele>
        <time>2021-05-30T09:45:17Z</time>
      </trkpt>
      <trkpt lat="48.51763" lon="2.66909">
        <ele>40.1</ele>
        <time>2021-05-30T09:45:24Z</time>
      </trkpt>
      <trkpt lat="48.51766" lon="2.66918">
        <ele>39.8</ele>
        <time>2021-05-30T09:45:25Z</time>
      </trkpt>
      <trkpt lat="48.51771" lon="2.66925">
        <ele>39.7</ele>
        <time>2021-05-30T09:45:26Z</time>
      </trkpt>
      <trkpt lat="48.51777" lon="2.66928">
        <ele>39.5</ele>
        <time>2021-05-30T09:45:27Z</time>
      </trkpt>
      <trkpt lat="48.51784" lon="2.6693">
        <ele>39.4</ele>
        <time>2021-05-30T09:45:28Z</time>
      </trkpt>
      <trkpt lat="48.51791" lon="2.66931">
        <ele>39.3</ele>
        <time>2021-05-30T09:45:29Z</time>
      </trkpt>
      <trkpt lat="48.51797" lon="2.66932">
        <ele>39.3</ele>
        <time>2021-05-30T09:45:30Z</time>
      </trkpt>
      <trkpt lat="48.51885" lon="2.66936">
        <ele>40.1</ele>
        <time>2021-05-30T09:45:44Z</time>
      </trkpt>
      <trkpt lat="48.5193" lon="2.66939">
        <ele>41</ele>
        <time>2021-05-30T09:45:51Z</time>
      </trkpt>
      <trkpt lat="48.52021" lon="2.66944">
        <ele>40.8</ele>
        <time>2021-05-30T09:46:06Z</time>
      </trkpt>
      <trkpt lat="48.52108" lon="2.66945">
        <ele>40.8</ele>
        <time>2021-05-30T09:46:22Z</time>
      </trkpt>
      <trkpt lat="48.52193" lon="2.66945">
        <ele>42.3</ele>
        <time>2021-05-30T09:46:37Z</time>
      </trkpt>
      <trkpt lat="48.52275" lon="2.66946">
        <ele>42.7</ele>
        <time>2021-05-30T09:46:52Z</time>
      </trkpt>
      <trkpt lat="48.52315" lon="2.66945">
        <ele>42.2</ele>
        <time>2021-05-30T09:46:59Z</time>
      </trkpt>
      <trkpt lat="48.52392" lon="2.66945">
        <ele>42</ele>
        <time>2021-05-30T09:47:13Z</time>
      </trkpt>
      <trkpt lat="48.52476" lon="2.66946">
        <ele>41.1</ele>
        <time>2021-05-30T09:47:28Z</time>
      </trkpt>
      <trkpt lat="48.52563" lon="2.6693">
        <ele>39.3</ele>
        <time>2021-05-30T09:47:43Z</time>
      </trkpt>
      <trkpt lat="48.52655" lon="2.66893">
        <ele>40.2</ele>
        <time>2021-05-30T09:47:59Z</time>
      </trkpt>
      <trkpt lat="48.52734" lon="2.66861">
        <ele>39.6</ele>
        <time>2021-05-30T09:48:13Z</time>
      </trkpt>
      <trkpt lat="48.52778" lon="2.66843">
        <ele>39.3</ele>
        <time>2021-05-30T09:48:21Z</time>
      </trkpt>
      <trkpt lat="48.52783" lon="2.6684">
        <ele>39.4</ele>
        <time>2021-05-30T09:48:22Z</time>
      </trkpt>
      <trkpt lat="48.52789" lon="2.66838">
        <ele>39.5</ele>
        <time>2021-05-30T09:48:23Z</time>
      </trkpt>
      <trkpt lat="48.5287" lon="2.66806">
        <ele>40.6</ele>
        <time>2021-05-30T09:48:38Z</time>
      </trkpt>
      <trkpt lat="48.52934" lon="2.66781">
        <ele>41.4</ele>
        <time>2021-05-30T09:48:50Z</time>
      </trkpt>
      <trkpt lat="48.52939" lon="2.66778">
        <ele>41.8</ele>
        <time>2021-05-30T09:48:51Z</time>
      </trkpt>
      <trkpt lat="48.53017" lon="2.66726">
        <ele>43.9</ele>
        <time>2021-05-30T09:49:06Z</time>
      </trkpt>
      <trkpt lat="48.53038" lon="2.66711">
        <ele>43.1</ele>
        <time>2021-05-30T09:49:10Z</time>
      </trkpt>
      <trkpt lat="48.53044" lon="2.66707">
        <ele>42.9</ele>
        <time>2021-05-30T09:49:11Z</time>
      </trkpt>
      <trkpt lat="48.53123" lon="2.66643">
        <ele>41.7</ele>
        <time>2021-05-30T09:49:26Z</time>
      </trkpt>
      <trkpt lat="48.53184" lon="2.66561">
        <ele>42.2</ele>
        <time>2021-05-30T09:49:40Z</time>
      </trkpt>
      <trkpt lat="48.5324" lon="2.66455">
        <ele>42.2</ele>
        <time>2021-05-30T09:49:55Z</time>
      </trkpt>
      <trkpt lat="48.533" lon="2.66341">
        <ele>43</ele>
        <time>2021-05-30T09:50:11Z</time>
      </trkpt>
      <trkpt lat="48.53318" lon="2.66305">
        <ele>43.6</ele>
        <time>2021-05-30T09:50:16Z</time>
      </trkpt>
      <trkpt lat="48.53343" lon="2.66235">
        <ele>44.8</ele>
        <time>2021-05-30T09:50:25Z</time>
      </trkpt>
      <trkpt lat="48.53345" lon="2.66227">
        <ele>44.9</ele>
        <time>2021-05-30T09:50:26Z</time>
      </trkpt>
      <trkpt lat="48.53347" lon="2.66219">
        <ele>44.9</ele>
        <time>2021-05-30T09:50:27Z</time>
      </trkpt>
      <trkpt lat="48.53349" lon="2.66212">
        <ele>44.9</ele>
        <time>2021-05-30T09:50:28Z</time>
      </trkpt>
      <trkpt lat="48.53351" lon="2.66204">
        <ele>44.9</ele>
        <time>2021-05-30T09:50:29Z</time>
      </trkpt>
      <trkpt lat="48.5338" lon="2.66094">
        <ele>44.2</ele>
        <time>2021-05-30T09:50:43Z</time>
      </trkpt>
      <trkpt lat="48.53391" lon="2.66055">
        <ele>44</ele>
        <time>2021-05-30T09:50:48Z</time>
      </trkpt>
      <trkpt lat="48.53392" lon="2.66048">
        <ele>44.1</ele>
        <time>2021-05-30T09:50:49Z</time>
      </trkpt>
      <trkpt lat="48.53391" lon="2.6604">
        <ele>44.2</ele>
        <time>2021-05-30T09:50:50Z</time>
      </trkpt>
      <trkpt lat="48.5339" lon="2.66032">
        <ele>44.4</ele>
        <time>2021-05-30T09:50:51Z</time>
      </trkpt>
      <trkpt lat="48.53388" lon="2.66024">
        <ele>44.7</ele>
        <time>2021-05-30T09:50:52Z</time>
      </trkpt>
      <trkpt lat="48.53385" lon="2.66017">
        <ele>44.9</ele>
        <time>2021-05-30T09:50:53Z</time>
      </trkpt>
      <trkpt lat="48.5335" lon="2.65925">
        <ele>46.6</ele>
        <time>2021-05-30T09:51:07Z</time>
      </trkpt>
      <trkpt lat="48.5335" lon="2.6591">
        <ele>46.6</ele>
        <time>2021-05-30T09:51:10Z</time>
      </trkpt>
      <trkpt lat="48.53352" lon="2.65906">
        <ele>46.6</ele>
        <time>2021-05-30T09:51:11Z</time>
      </trkpt>
      <trkpt lat="48.53355" lon="2.65903">
        <ele>46.5</ele>
        <time>2021-05-30T09:51:12Z</time>
      </trkpt>
      <trkpt lat="48.53358" lon="2.659">
        <ele>46.5</ele>
        <time>2021-05-30T09:51:13Z</time>
      </trkpt>
      <trkpt lat="48.53361" lon="2.65897">
        <ele>46.4</ele>
        <time>2021-05-30T09:51:14Z</time>
      </trkpt>
      <trkpt lat="48.53364" lon="2.65897">
        <ele>46.4</ele>
        <time>2021-05-30T09:51:15Z</time>
      </trkpt>
      <trkpt lat="48.53367" lon="2.65897">
        <ele>46.3</ele>
        <time>2021-05-30T09:51:16Z</time>
      </trkpt>
      <trkpt lat="48.53371" lon="2.65898">
        <ele>46.2</ele>
        <time>2021-05-30T09:51:17Z</time>
      </trkpt>
      <trkpt lat="48.53414" lon="2.65921">
        <ele>45</ele>
        <time>2021-05-30T09:51:29Z</time>
      </trkpt>
      <trkpt lat="48.53422" lon="2.65925">
        <ele>44.8</ele>
        <time>2021-05-30T09:51:31Z</time>
      </trkpt>
      <trkpt lat="48.53426" lon="2.65926">
        <ele>44.7</ele>
        <time>2021-05-30T09:51:32Z</time>
      </trkpt>
      <trkpt lat="48.53431" lon="2.65925">
        <ele>44.6</ele>
        <time>2021-05-30T09:51:33Z</time>
      </trkpt>
      <trkpt lat="48.53439" lon="2.65921">
        <ele>44.4</ele>
        <time>2021-05-30T09:51:35Z</time>
      </trkpt>
      <trkpt lat="48.53443" lon="2.6592">
        <ele>44.3</ele>
        <time>2021-05-30T09:51:36Z</time>
      </trkpt>
      <trkpt lat="48.53447" lon="2.65922">
        <ele>44.2</ele>
        <time>2021-05-30T09:51:37Z</time>
      </trkpt>
      <trkpt lat="48.53508" lon="2.65949">
        <ele>43</ele>
        <time>2021-05-30T09:51:52Z</time>
      </trkpt>
      <trkpt lat="48.53545" lon="2.65964">
        <ele>44.6</ele>
        <time>2021-05-30T09:51:59Z</time>
      </trkpt>
      <trkpt lat="48.53606" lon="2.66005">
        <ele>45.6</ele>
        <time>2021-05-30T09:52:11Z</time>
      </trkpt>
      <trkpt lat="48.5363" lon="2.66019">
        <ele>44.9</ele>
        <time>2021-05-30T09:52:21Z</time>
      </trkpt>
      <trkpt lat="48.53649" lon="2.66031">
        <ele>44.4</ele>
        <time>2021-05-30T09:52:26Z</time>
      </trkpt>
      <trkpt lat="48.53704" lon="2.66062">
        <ele>44.2</ele>
        <time>2021-05-30T09:52:40Z</time>
      </trkpt>
      <trkpt lat="48.53707" lon="2.6606">
        <ele>44.3</ele>
        <time>2021-05-30T09:52:41Z</time>
      </trkpt>
      <trkpt lat="48.5371" lon="2.66057">
        <ele>44.3</ele>
        <time>2021-05-30T09:52:42Z</time>
      </trkpt>
      <trkpt lat="48.53713" lon="2.66053">
        <ele>44.4</ele>
        <time>2021-05-30T09:52:43Z</time>
      </trkpt>
      <trkpt lat="48.53716" lon="2.66048">
        <ele>44.5</ele>
        <time>2021-05-30T09:52:44Z</time>
      </trkpt>
      <trkpt lat="48.53719" lon="2.66043">
        <ele>44.6</ele>
        <time>2021-05-30T09:52:45Z</time>
      </trkpt>
      <trkpt lat="48.53722" lon="2.66037">
        <ele>44.7</ele>
        <time>2021-05-30T09:52:46Z</time>
      </trkpt>
      <trkpt lat="48.53727" lon="2.66025">
        <ele>44.8</ele>
        <time>2021-05-30T09:52:48Z</time>
      </trkpt>
      <trkpt lat="48.53734" lon="2.66004">
        <ele>45</ele>
        <time>2021-05-30T09:52:51Z</time>
      </trkpt>
      <trkpt lat="48.53736" lon="2.65998">
        <ele>45</ele>
        <time>2021-05-30T09:52:52Z</time>
      </trkpt>
      <trkpt lat="48.53738" lon="2.65992">
        <ele>44.8</ele>
        <time>2021-05-30T09:52:53Z</time>
      </trkpt>
      <trkpt lat="48.53756" lon="2.65931">
        <ele>43.7</ele>
        <time>2021-05-30T09:53:05Z</time>
      </trkpt>
      <trkpt lat="48.53761" lon="2.65923">
        <ele>43.9</ele>
        <time>2021-05-30T09:53:16Z</time>
      </trkpt>
      <trkpt lat="48.53764" lon="2.65917">
        <ele>44</ele>
        <time>2021-05-30T09:53:20Z</time>
      </trkpt>
      <trkpt lat="48.53763" lon="2.6591">
        <ele>43.8</ele>
        <time>2021-05-30T09:53:28Z</time>
      </trkpt>
      <trkpt lat="48.53764" lon="2.65906">
        <ele>43.7</ele>
        <time>2021-05-30T09:53:30Z</time>
      </trkpt>
      <trkpt lat="48.53765" lon="2.65903">
        <ele>43.7</ele>
        <time>2021-05-30T09:53:31Z</time>
      </trkpt>
      <trkpt lat="48.53769" lon="2.65881">
        <ele>43.3</ele>
        <time>2021-05-30T09:53:35Z</time>
      </trkpt>
      <trkpt lat="48.53771" lon="2.65875">
        <ele>43.3</ele>
        <time>2021-05-30T09:53:36Z</time>
      </trkpt>
      <trkpt lat="48.53774" lon="2.65869">
        <ele>43.2</ele>
        <time>2021-05-30T09:53:37Z</time>
      </trkpt>
      <trkpt lat="48.53776" lon="2.65862">
        <ele>43.1</ele>
        <time>2021-05-30T09:53:38Z</time>
      </trkpt>
      <trkpt lat="48.53778" lon="2.65855">
        <ele>43</ele>
        <time>2021-05-30T09:53:39Z</time>
      </trkpt>
      <trkpt lat="48.53785" lon="2.65826">
        <ele>42.7</ele>
        <time>2021-05-30T09:53:43Z</time>
      </trkpt>
      <trkpt lat="48.53787" lon="2.65819">
        <ele>42.7</ele>
        <time>2021-05-30T09:53:44Z</time>
      </trkpt>
      <trkpt lat="48.53789" lon="2.65813">
        <ele>42.8</ele>
        <time>2021-05-30T09:53:45Z</time>
      </trkpt>
      <trkpt lat="48.53791" lon="2.65806">
        <ele>42.8</ele>
        <time>2021-05-30T09:53:46Z</time>
      </trkpt>
      <trkpt lat="48.53793" lon="2.65799">
        <ele>42.8</ele>
        <time>2021-05-30T09:53:47Z</time>
      </trkpt>
      <trkpt lat="48.53817" lon="2.65711">
        <ele>43.1</ele>
        <time>2021-05-30T09:54:00Z</time>
      </trkpt>
      <trkpt lat="48.53819" lon="2.65703">
        <ele>43.1</ele>
        <time>2021-05-30T09:54:01Z</time>
      </trkpt>
      <trkpt lat="48.53821" lon="2.65696">
        <ele>43.1</ele>
        <time>2021-05-30T09:54:02Z</time>
      </trkpt>
      <trkpt lat="48.53837" lon="2.65632">
        <ele>43.3</ele>
        <time>2021-05-30T09:54:11Z</time>
      </trkpt>
      <trkpt lat="48.53837" lon="2.65625">
        <ele>43.3</ele>
        <time>2021-05-30T09:54:12Z</time>
      </trkpt>
      <trkpt lat="48.53838" lon="2.65617">
        <ele>43.3</ele>
        <time>2021-05-30T09:54:13Z</time>
      </trkpt>
      <trkpt lat="48.53838" lon="2.65603">
        <ele>43.4</ele>
        <time>2021-05-30T09:54:15Z</time>
      </trkpt>
      <trkpt lat="48.53838" lon="2.65596">
        <ele>43.4</ele>
        <time>2021-05-30T09:54:16Z</time>
      </trkpt>
      <trkpt lat="48.53839" lon="2.65557">
        <ele>43.5</ele>
        <time>2021-05-30T09:54:21Z</time>
      </trkpt>
      <trkpt lat="48.53841" lon="2.65532">
        <ele>43.8</ele>
        <time>2021-05-30T09:54:24Z</time>
      </trkpt>
      <trkpt lat="48.53841" lon="2.65523">
        <ele>43.8</ele>
        <time>2021-05-30T09:54:25Z</time>
      </trkpt>
      <trkpt lat="48.53844" lon="2.6549">
        <ele>44.3</ele>
        <time>2021-05-30T09:54:29Z</time>
      </trkpt>
      <trkpt lat="48.53851" lon="2.65445">
        <ele>45.1</ele>
        <time>2021-05-30T09:54:35Z</time>
      </trkpt>
      <trkpt lat="48.53855" lon="2.65401">
        <ele>45.3</ele>
        <time>2021-05-30T09:54:40Z</time>
      </trkpt>
      <trkpt lat="48.53855" lon="2.65384">
        <ele>44.9</ele>
        <time>2021-05-30T09:54:42Z</time>
      </trkpt>
      <trkpt lat="48.53855" lon="2.65357">
        <ele>44.3</ele>
        <time>2021-05-30T09:54:45Z</time>
      </trkpt>
      <trkpt lat="48.53857" lon="2.65339">
        <ele>44.1</ele>
        <time>2021-05-30T09:54:47Z</time>
      </trkpt>
      <trkpt lat="48.53858" lon="2.65331">
        <ele>44.1</ele>
        <time>2021-05-30T09:54:48Z</time>
      </trkpt>
      <trkpt lat="48.53861" lon="2.65324">
        <ele>44.3</ele>
        <time>2021-05-30T09:54:49Z</time>
      </trkpt>
      <trkpt lat="48.53864" lon="2.65318">
        <ele>44.5</ele>
        <time>2021-05-30T09:54:50Z</time>
      </trkpt>
      <trkpt lat="48.53867" lon="2.65313">
        <ele>44.8</ele>
        <time>2021-05-30T09:54:51Z</time>
      </trkpt>
      <trkpt lat="48.53871" lon="2.65308">
        <ele>45.1</ele>
        <time>2021-05-30T09:54:52Z</time>
      </trkpt>
      <trkpt lat="48.53874" lon="2.65304">
        <ele>45.4</ele>
        <time>2021-05-30T09:54:53Z</time>
      </trkpt>
      <trkpt lat="48.53898" lon="2.65256">
        <ele>48</ele>
        <time>2021-05-30T09:55:05Z</time>
      </trkpt>
      <trkpt lat="48.53909" lon="2.65205">
        <ele>51.3</ele>
        <time>2021-05-30T09:55:15Z</time>
      </trkpt>
      <trkpt lat="48.5391" lon="2.65202">
        <ele>51.6</ele>
        <time>2021-05-30T09:55:16Z</time>
      </trkpt>
      <trkpt lat="48.53925" lon="2.65179">
        <ele>53.4</ele>
        <time>2021-05-30T09:55:25Z</time>
      </trkpt>
      <trkpt lat="48.53926" lon="2.65177">
        <ele>53.6</ele>
        <time>2021-05-30T09:55:26Z</time>
      </trkpt>
      <trkpt lat="48.53929" lon="2.65158">
        <ele>54.4</ele>
        <time>2021-05-30T09:55:34Z</time>
      </trkpt>
      <trkpt lat="48.53931" lon="2.65155">
        <ele>54.5</ele>
        <time>2021-05-30T09:55:35Z</time>
      </trkpt>
      <trkpt lat="48.53933" lon="2.65151">
        <ele>54.7</ele>
        <time>2021-05-30T09:55:36Z</time>
      </trkpt>
      <trkpt lat="48.53935" lon="2.65147">
        <ele>54.8</ele>
        <time>2021-05-30T09:55:37Z</time>
      </trkpt>
      <trkpt lat="48.53937" lon="2.65143">
        <ele>55</ele>
        <time>2021-05-30T09:55:38Z</time>
      </trkpt>
      <trkpt lat="48.53938" lon="2.65137">
        <ele>55.2</ele>
        <time>2021-05-30T09:55:39Z</time>
      </trkpt>
      <trkpt lat="48.53939" lon="2.65132">
        <ele>55.4</ele>
        <time>2021-05-30T09:55:40Z</time>
      </trkpt>
      <trkpt lat="48.5394" lon="2.65127">
        <ele>55.6</ele>
        <time>2021-05-30T09:55:41Z</time>
      </trkpt>
      <trkpt lat="48.53963" lon="2.65079">
        <ele>57.1</ele>
        <time>2021-05-30T09:55:51Z</time>
      </trkpt>
      <trkpt lat="48.53987" lon="2.65037">
        <ele>59</ele>
        <time>2021-05-30T09:56:00Z</time>
      </trkpt>
      <trkpt lat="48.54" lon="2.65018">
        <ele>59.9</ele>
        <time>2021-05-30T09:56:05Z</time>
      </trkpt>
      <trkpt lat="48.54008" lon="2.65007">
        <ele>60.2</ele>
        <time>2021-05-30T09:56:07Z</time>
      </trkpt>
      <trkpt lat="48.54015" lon="2.65">
        <ele>60.3</ele>
        <time>2021-05-30T09:56:08Z</time>
      </trkpt>
      <trkpt lat="48.54021" lon="2.64993">
        <ele>60.2</ele>
        <time>2021-05-30T09:56:09Z</time>
      </trkpt>
      <trkpt lat="48.54027" lon="2.64987">
        <ele>60.1</ele>
        <time>2021-05-30T09:56:10Z</time>
      </trkpt>
      <trkpt lat="48.54033" lon="2.64983">
        <ele>60.1</ele>
        <time>2021-05-30T09:56:11Z</time>
      </trkpt>
      <trkpt lat="48.54044" lon="2.64974">
        <ele>60</ele>
        <time>2021-05-30T09:56:13Z</time>
      </trkpt>
      <trkpt lat="48.54049" lon="2.64971">
        <ele>60</ele>
        <time>2021-05-30T09:56:14Z</time>
      </trkpt>
      <trkpt lat="48.54063" lon="2.64959">
        <ele>60.1</ele>
        <time>2021-05-30T09:56:16Z</time>
      </trkpt>
      <trkpt lat="48.54068" lon="2.64953">
        <ele>60.2</ele>
        <time>2021-05-30T09:56:17Z</time>
      </trkpt>
      <trkpt lat="48.54073" lon="2.64947">
        <ele>60.4</ele>
        <time>2021-05-30T09:56:18Z</time>
      </trkpt>
      <trkpt lat="48.54083" lon="2.64935">
        <ele>60.9</ele>
        <time>2021-05-30T09:56:20Z</time>
      </trkpt>
      <trkpt lat="48.54086" lon="2.64929">
        <ele>61.1</ele>
        <time>2021-05-30T09:56:21Z</time>
      </trkpt>
      <trkpt lat="48.54089" lon="2.64924">
        <ele>61.3</ele>
        <time>2021-05-30T09:56:22Z</time>
      </trkpt>
      <trkpt lat="48.54092" lon="2.64918">
        <ele>61.5</ele>
        <time>2021-05-30T09:56:23Z</time>
      </trkpt>
      <trkpt lat="48.54095" lon="2.64912">
        <ele>61.7</ele>
        <time>2021-05-30T09:56:24Z</time>
      </trkpt>
      <trkpt lat="48.54099" lon="2.64905">
        <ele>62</ele>
        <time>2021-05-30T09:56:25Z</time>
      </trkpt>
      <trkpt lat="48.54127" lon="2.64845">
        <ele>64.7</ele>
        <time>2021-05-30T09:56:36Z</time>
      </trkpt>
      <trkpt lat="48.54151" lon="2.64805">
        <ele>65.6</ele>
        <time>2021-05-30T09:56:46Z</time>
      </trkpt>
      <trkpt lat="48.54176" lon="2.64779">
        <ele>66.4</ele>
        <time>2021-05-30T09:56:57Z</time>
      </trkpt>
      <trkpt lat="48.54178" lon="2.64739">
        <ele>67.8</ele>
        <time>2021-05-30T09:57:07Z</time>
      </trkpt>
      <trkpt lat="48.5418" lon="2.64721">
        <ele>67.8</ele>
        <time>2021-05-30T09:57:10Z</time>
      </trkpt>
      <trkpt lat="48.54182" lon="2.64713">
        <ele>67.8</ele>
        <time>2021-05-30T09:57:11Z</time>
      </trkpt>
      <trkpt lat="48.54185" lon="2.64708">
        <ele>67.8</ele>
        <time>2021-05-30T09:57:12Z</time>
      </trkpt>
      <trkpt lat="48.54187" lon="2.64702">
        <ele>67.8</ele>
        <time>2021-05-30T09:57:13Z</time>
      </trkpt>
      <trkpt lat="48.54188" lon="2.64697">
        <ele>67.8</ele>
        <time>2021-05-30T09:57:14Z</time>
      </trkpt>
      <trkpt lat="48.54189" lon="2.64691">
        <ele>67.8</ele>
        <time>2021-05-30T09:57:15Z</time>
      </trkpt>
      <trkpt lat="48.54189" lon="2.64686">
        <ele>67.9</ele>
        <time>2021-05-30T09:57:16Z</time>
      </trkpt>
      <trkpt lat="48.54197" lon="2.64649">
        <ele>67.9</ele>
        <time>2021-05-30T09:57:22Z</time>
      </trkpt>
      <trkpt lat="48.54199" lon="2.64646">
        <ele>67.9</ele>
        <time>2021-05-30T09:57:23Z</time>
      </trkpt>
      <trkpt lat="48.54218" lon="2.6461">
        <ele>68.3</ele>
        <time>2021-05-30T09:57:34Z</time>
      </trkpt>
      <trkpt lat="48.54221" lon="2.64599">
        <ele>68.5</ele>
        <time>2021-05-30T09:57:38Z</time>
      </trkpt>
      <trkpt lat="48.54223" lon="2.64598">
        <ele>68.6</ele>
        <time>2021-05-30T09:57:39Z</time>
      </trkpt>
      <trkpt lat="48.54257" lon="2.64563">
        <ele>69.8</ele>
        <time>2021-05-30T09:57:52Z</time>
      </trkpt>
      <trkpt lat="48.5428" lon="2.64513">
        <ele>69.2</ele>
        <time>2021-05-30T09:58:04Z</time>
      </trkpt>
      <trkpt lat="48.54305" lon="2.64454">
        <ele>69.6</ele>
        <time>2021-05-30T09:58:18Z</time>
      </trkpt>
      <trkpt lat="48.54325" lon="2.64414">
        <ele>70.1</ele>
        <time>2021-05-30T09:58:29Z</time>
      </trkpt>
      <trkpt lat="48.54328" lon="2.64412">
        <ele>70</ele>
        <time>2021-05-30T09:58:30Z</time>
      </trkpt>
      <trkpt lat="48.54331" lon="2.6441">
        <ele>69.9</ele>
        <time>2021-05-30T09:58:31Z</time>
      </trkpt>
      <trkpt lat="48.54334" lon="2.64408">
        <ele>69.9</ele>
        <time>2021-05-30T09:58:32Z</time>
      </trkpt>
      <trkpt lat="48.54337" lon="2.64407">
        <ele>69.9</ele>
        <time>2021-05-30T09:58:33Z</time>
      </trkpt>
      <trkpt lat="48.5434" lon="2.64406">
        <ele>69.9</ele>
        <time>2021-05-30T09:58:34Z</time>
      </trkpt>
      <trkpt lat="48.54343" lon="2.64404">
        <ele>69.9</ele>
        <time>2021-05-30T09:58:35Z</time>
      </trkpt>
      <trkpt lat="48.54346" lon="2.64403">
        <ele>69.9</ele>
        <time>2021-05-30T09:58:36Z</time>
      </trkpt>
      <trkpt lat="48.5435" lon="2.64403">
        <ele>69.9</ele>
        <time>2021-05-30T09:58:37Z</time>
      </trkpt>
      <trkpt lat="48.54353" lon="2.64402">
        <ele>69.9</ele>
        <time>2021-05-30T09:58:38Z</time>
      </trkpt>
      <trkpt lat="48.54356" lon="2.64402">
        <ele>70</ele>
        <time>2021-05-30T09:58:39Z</time>
      </trkpt>
      <trkpt lat="48.54359" lon="2.64401">
        <ele>70</ele>
        <time>2021-05-30T09:58:40Z</time>
      </trkpt>
      <trkpt lat="48.54398" lon="2.64392">
        <ele>70.4</ele>
        <time>2021-05-30T09:58:55Z</time>
      </trkpt>
      <trkpt lat="48.54411" lon="2.64392">
        <ele>70.5</ele>
        <time>2021-05-30T09:59:07Z</time>
      </trkpt>
      <trkpt lat="48.54412" lon="2.64392">
        <ele>70.5</ele>
        <time>2021-05-30T09:59:28Z</time>
      </trkpt>
      <trkpt lat="48.5444" lon="2.64383">
        <ele>70.8</ele>
        <time>2021-05-30T09:59:38Z</time>
      </trkpt>
      <trkpt lat="48.54491" lon="2.64335">
        <ele>72</ele>
        <time>2021-05-30T09:59:53Z</time>
      </trkpt>
      <trkpt lat="48.54521" lon="2.643">
        <ele>72.7</ele>
        <time>2021-05-30T10:00:02Z</time>
      </trkpt>
      <trkpt lat="48.5458" lon="2.64215">
        <ele>73</ele>
        <time>2021-05-30T10:00:20Z</time>
      </trkpt>
      <trkpt lat="48.54602" lon="2.64178">
        <ele>72.8</ele>
        <time>2021-05-30T10:00:27Z</time>
      </trkpt>
      <trkpt lat="48.54662" lon="2.6409">
        <ele>73.8</ele>
        <time>2021-05-30T10:00:44Z</time>
      </trkpt>
      <trkpt lat="48.54665" lon="2.64084">
        <ele>74</ele>
        <time>2021-05-30T10:00:45Z</time>
      </trkpt>
      <trkpt lat="48.54667" lon="2.64077">
        <ele>74.1</ele>
        <time>2021-05-30T10:00:46Z</time>
      </trkpt>
      <trkpt lat="48.54668" lon="2.6407">
        <ele>74.2</ele>
        <time>2021-05-30T10:00:47Z</time>
      </trkpt>
      <trkpt lat="48.54668" lon="2.64063">
        <ele>74.3</ele>
        <time>2021-05-30T10:00:48Z</time>
      </trkpt>
      <trkpt lat="48.54668" lon="2.64055">
        <ele>74.4</ele>
        <time>2021-05-30T10:00:49Z</time>
      </trkpt>
      <trkpt lat="48.54661" lon="2.63978">
        <ele>74.2</ele>
        <time>2021-05-30T10:01:03Z</time>
      </trkpt>
      <trkpt lat="48.5466" lon="2.63975">
        <ele>74.1</ele>
        <time>2021-05-30T10:01:15Z</time>
      </trkpt>
      <trkpt lat="48.54659" lon="2.63971">
        <ele>74</ele>
        <time>2021-05-30T10:01:28Z</time>
      </trkpt>
      <trkpt lat="48.54658" lon="2.6397">
        <ele>73.9</ele>
        <time>2021-05-30T10:01:29Z</time>
      </trkpt>
      <trkpt lat="48.54657" lon="2.63968">
        <ele>73.9</ele>
        <time>2021-05-30T10:01:30Z</time>
      </trkpt>
      <trkpt lat="48.54657" lon="2.63965">
        <ele>73.8</ele>
        <time>2021-05-30T10:01:31Z</time>
      </trkpt>
      <trkpt lat="48.54657" lon="2.63961">
        <ele>73.6</ele>
        <time>2021-05-30T10:01:32Z</time>
      </trkpt>
      <trkpt lat="48.54658" lon="2.63956">
        <ele>73.5</ele>
        <time>2021-05-30T10:01:33Z</time>
      </trkpt>
      <trkpt lat="48.54658" lon="2.6395">
        <ele>73.3</ele>
        <time>2021-05-30T10:01:34Z</time>
      </trkpt>
      <trkpt lat="48.54658" lon="2.63944">
        <ele>73.1</ele>
        <time>2021-05-30T10:01:35Z</time>
      </trkpt>
      <trkpt lat="48.54657" lon="2.63938">
        <ele>72.9</ele>
        <time>2021-05-30T10:01:36Z</time>
      </trkpt>
      <trkpt lat="48.54659" lon="2.63897">
        <ele>72.4</ele>
        <time>2021-05-30T10:01:43Z</time>
      </trkpt>
      <trkpt lat="48.54662" lon="2.63891">
        <ele>72.4</ele>
        <time>2021-05-30T10:01:44Z</time>
      </trkpt>
      <trkpt lat="48.54664" lon="2.63886">
        <ele>72.4</ele>
        <time>2021-05-30T10:01:45Z</time>
      </trkpt>
      <trkpt lat="48.54682" lon="2.63852">
        <ele>73</ele>
        <time>2021-05-30T10:01:51Z</time>
      </trkpt>
      <trkpt lat="48.54683" lon="2.63845">
        <ele>73.1</ele>
        <time>2021-05-30T10:01:52Z</time>
      </trkpt>
      <trkpt lat="48.54685" lon="2.63838">
        <ele>73.2</ele>
        <time>2021-05-30T10:01:53Z</time>
      </trkpt>
      <trkpt lat="48.54685" lon="2.6383">
        <ele>73.3</ele>
        <time>2021-05-30T10:01:54Z</time>
      </trkpt>
      <trkpt lat="48.54685" lon="2.63822">
        <ele>73.3</ele>
        <time>2021-05-30T10:01:55Z</time>
      </trkpt>
      <trkpt lat="48.54684" lon="2.63814">
        <ele>73.4</ele>
        <time>2021-05-30T10:01:56Z</time>
      </trkpt>
      <trkpt lat="48.54683" lon="2.63806">
        <ele>73.5</ele>
        <time>2021-05-30T10:01:57Z</time>
      </trkpt>
      <trkpt lat="48.54679" lon="2.63781">
        <ele>73.7</ele>
        <time>2021-05-30T10:02:00Z</time>
      </trkpt>
      <trkpt lat="48.54678" lon="2.63773">
        <ele>73.8</ele>
        <time>2021-05-30T10:02:01Z</time>
      </trkpt>
      <trkpt lat="48.54677" lon="2.63765">
        <ele>73.8</ele>
        <time>2021-05-30T10:02:02Z</time>
      </trkpt>
      <trkpt lat="48.54676" lon="2.63758">
        <ele>73.9</ele>
        <time>2021-05-30T10:02:03Z</time>
      </trkpt>
      <trkpt lat="48.54677" lon="2.6375">
        <ele>74</ele>
        <time>2021-05-30T10:02:04Z</time>
      </trkpt>
      <trkpt lat="48.5468" lon="2.63745">
        <ele>74</ele>
        <time>2021-05-30T10:02:05Z</time>
      </trkpt>
      <trkpt lat="48.54684" lon="2.63741">
        <ele>74</ele>
        <time>2021-05-30T10:02:06Z</time>
      </trkpt>
      <trkpt lat="48.54689" lon="2.63739">
        <ele>74</ele>
        <time>2021-05-30T10:02:07Z</time>
      </trkpt>
      <trkpt lat="48.54694" lon="2.6374">
        <ele>74</ele>
        <time>2021-05-30T10:02:08Z</time>
      </trkpt>
      <trkpt lat="48.54699" lon="2.6374">
        <ele>74</ele>
        <time>2021-05-30T10:02:09Z</time>
      </trkpt>
      <trkpt lat="48.54718" lon="2.63745">
        <ele>74</ele>
        <time>2021-05-30T10:02:13Z</time>
      </trkpt>
      <trkpt lat="48.54757" lon="2.63757">
        <ele>74.1</ele>
        <time>2021-05-30T10:02:21Z</time>
      </trkpt>
      <trkpt lat="48.54762" lon="2.63756">
        <ele>74.1</ele>
        <time>2021-05-30T10:02:22Z</time>
      </trkpt>
      <trkpt lat="48.54766" lon="2.63752">
        <ele>74.2</ele>
        <time>2021-05-30T10:02:23Z</time>
      </trkpt>
      <trkpt lat="48.5477" lon="2.63747">
        <ele>74.2</ele>
        <time>2021-05-30T10:02:24Z</time>
      </trkpt>
      <trkpt lat="48.54772" lon="2.63741">
        <ele>74.2</ele>
        <time>2021-05-30T10:02:25Z</time>
      </trkpt>
      <trkpt lat="48.54773" lon="2.63734">
        <ele>74.3</ele>
        <time>2021-05-30T10:02:26Z</time>
      </trkpt>
      <trkpt lat="48.54773" lon="2.63726">
        <ele>74.2</ele>
        <time>2021-05-30T10:02:27Z</time>
      </trkpt>
      <trkpt lat="48.54773" lon="2.63719">
        <ele>74.2</ele>
        <time>2021-05-30T10:02:28Z</time>
      </trkpt>
      <trkpt lat="48.54772" lon="2.63713">
        <ele>74.2</ele>
        <time>2021-05-30T10:02:29Z</time>
      </trkpt>
      <trkpt lat="48.5477" lon="2.63707">
        <ele>74.1</ele>
        <time>2021-05-30T10:02:30Z</time>
      </trkpt>
      <trkpt lat="48.54769" lon="2.6369">
        <ele>74</ele>
        <time>2021-05-30T10:02:33Z</time>
      </trkpt>
      <trkpt lat="48.5477" lon="2.63685">
        <ele>74</ele>
        <time>2021-05-30T10:02:34Z</time>
      </trkpt>
      <trkpt lat="48.54773" lon="2.63678">
        <ele>74.1</ele>
        <time>2021-05-30T10:02:36Z</time>
      </trkpt>
      <trkpt lat="48.54776" lon="2.63677">
        <ele>74.2</ele>
        <time>2021-05-30T10:02:37Z</time>
      </trkpt>
      <trkpt lat="48.54815" lon="2.63662">
        <ele>76.3</ele>
        <time>2021-05-30T10:02:47Z</time>
      </trkpt>
      <trkpt lat="48.54822" lon="2.6366">
        <ele>76.6</ele>
        <time>2021-05-30T10:02:48Z</time>
      </trkpt>
      <trkpt lat="48.5483" lon="2.63659">
        <ele>77</ele>
        <time>2021-05-30T10:02:49Z</time>
      </trkpt>
      <trkpt lat="48.54836" lon="2.63656">
        <ele>77.3</ele>
        <time>2021-05-30T10:02:50Z</time>
      </trkpt>
      <trkpt lat="48.54843" lon="2.63651">
        <ele>77.7</ele>
        <time>2021-05-30T10:02:52Z</time>
      </trkpt>
      <trkpt lat="48.54845" lon="2.63648">
        <ele>77.9</ele>
        <time>2021-05-30T10:02:53Z</time>
      </trkpt>
      <trkpt lat="48.54848" lon="2.63647">
        <ele>78</ele>
        <time>2021-05-30T10:02:54Z</time>
      </trkpt>
      <trkpt lat="48.5485" lon="2.63646">
        <ele>78.1</ele>
        <time>2021-05-30T10:02:55Z</time>
      </trkpt>
      <trkpt lat="48.54853" lon="2.63643">
        <ele>78.3</ele>
        <time>2021-05-30T10:02:56Z</time>
      </trkpt>
      <trkpt lat="48.54854" lon="2.63639">
        <ele>78.5</ele>
        <time>2021-05-30T10:02:57Z</time>
      </trkpt>
      <trkpt lat="48.54852" lon="2.63636">
        <ele>78.5</ele>
        <time>2021-05-30T10:02:58Z</time>
      </trkpt>
      <trkpt lat="48.5485" lon="2.63633">
        <ele>78.5</ele>
        <time>2021-05-30T10:02:59Z</time>
      </trkpt>
      <trkpt lat="48.54846" lon="2.63632">
        <ele>78.4</ele>
        <time>2021-05-30T10:03:00Z</time>
      </trkpt>
      <trkpt lat="48.54842" lon="2.63631">
        <ele>78.2</ele>
        <time>2021-05-30T10:03:01Z</time>
      </trkpt>
      <trkpt lat="48.54837" lon="2.63631">
        <ele>78</ele>
        <time>2021-05-30T10:03:02Z</time>
      </trkpt>
      <trkpt lat="48.54829" lon="2.63626">
        <ele>77.8</ele>
        <time>2021-05-30T10:03:04Z</time>
      </trkpt>
      <trkpt lat="48.54828" lon="2.63621">
        <ele>77.8</ele>
        <time>2021-05-30T10:03:05Z</time>
      </trkpt>
      <trkpt lat="48.54829" lon="2.63616">
        <ele>78</ele>
        <time>2021-05-30T10:03:06Z</time>
      </trkpt>
      <trkpt lat="48.54831" lon="2.63603">
        <ele>78.4</ele>
        <time>2021-05-30T10:03:09Z</time>
      </trkpt>
      <trkpt lat="48.5483" lon="2.63594">
        <ele>78.6</ele>
        <time>2021-05-30T10:03:11Z</time>
      </trkpt>
      <trkpt lat="48.54831" lon="2.6359">
        <ele>78.7</ele>
        <time>2021-05-30T10:03:12Z</time>
      </trkpt>
      <trkpt lat="48.54832" lon="2.63586">
        <ele>78.9</ele>
        <time>2021-05-30T10:03:13Z</time>
      </trkpt>
      <trkpt lat="48.54832" lon="2.63581">
        <ele>79</ele>
        <time>2021-05-30T10:03:14Z</time>
      </trkpt>
      <trkpt lat="48.54832" lon="2.63575">
        <ele>79.2</ele>
        <time>2021-05-30T10:03:15Z</time>
      </trkpt>
      <trkpt lat="48.54833" lon="2.6357">
        <ele>79.5</ele>
        <time>2021-05-30T10:03:16Z</time>
      </trkpt>
      <trkpt lat="48.54833" lon="2.63564">
        <ele>79.7</ele>
        <time>2021-05-30T10:03:17Z</time>
      </trkpt>
      <trkpt lat="48.54839" lon="2.63499">
        <ele>82.3</ele>
        <time>2021-05-30T10:03:28Z</time>
      </trkpt>
      <trkpt lat="48.54846" lon="2.6344">
        <ele>84.7</ele>
        <time>2021-05-30T10:03:38Z</time>
      </trkpt>
      <trkpt lat="48.54855" lon="2.63382">
        <ele>86.3</ele>
        <time>2021-05-30T10:03:48Z</time>
      </trkpt>
      <trkpt lat="48.54862" lon="2.63324">
        <ele>87.1</ele>
        <time>2021-05-30T10:03:58Z</time>
      </trkpt>
      <trkpt lat="48.54869" lon="2.63265">
        <ele>87.5</ele>
        <time>2021-05-30T10:04:08Z</time>
      </trkpt>
      <trkpt lat="48.54876" lon="2.63213">
        <ele>87.9</ele>
        <time>2021-05-30T10:04:17Z</time>
      </trkpt>
      <trkpt lat="48.54877" lon="2.63207">
        <ele>88</ele>
        <time>2021-05-30T10:04:18Z</time>
      </trkpt>
      <trkpt lat="48.54888" lon="2.63136">
        <ele>88.4</ele>
        <time>2021-05-30T10:04:28Z</time>
      </trkpt>
      <trkpt lat="48.5489" lon="2.63121">
        <ele>88.3</ele>
        <time>2021-05-30T10:04:30Z</time>
      </trkpt>
      <trkpt lat="48.54892" lon="2.63088">
        <ele>88</ele>
        <time>2021-05-30T10:04:35Z</time>
      </trkpt>
      <trkpt lat="48.54893" lon="2.63084">
        <ele>88</ele>
        <time>2021-05-30T10:04:36Z</time>
      </trkpt>
      <trkpt lat="48.54893" lon="2.63079">
        <ele>87.9</ele>
        <time>2021-05-30T10:04:37Z</time>
      </trkpt>
      <trkpt lat="48.54894" lon="2.63074">
        <ele>87.8</ele>
        <time>2021-05-30T10:04:38Z</time>
      </trkpt>
      <trkpt lat="48.54894" lon="2.63068">
        <ele>87.7</ele>
        <time>2021-05-30T10:04:39Z</time>
      </trkpt>
      <trkpt lat="48.54894" lon="2.63061">
        <ele>87.5</ele>
        <time>2021-05-30T10:04:40Z</time>
      </trkpt>
      <trkpt lat="48.54895" lon="2.63055">
        <ele>87.4</ele>
        <time>2021-05-30T10:04:41Z</time>
      </trkpt>
      <trkpt lat="48.54896" lon="2.63048">
        <ele>87.3</ele>
        <time>2021-05-30T10:04:42Z</time>
      </trkpt>
      <trkpt lat="48.54898" lon="2.63041">
        <ele>87.1</ele>
        <time>2021-05-30T10:04:43Z</time>
      </trkpt>
      <trkpt lat="48.54901" lon="2.63035">
        <ele>86.9</ele>
        <time>2021-05-30T10:04:44Z</time>
      </trkpt>
      <trkpt lat="48.54904" lon="2.6303">
        <ele>86.8</ele>
        <time>2021-05-30T10:04:45Z</time>
      </trkpt>
      <trkpt lat="48.54908" lon="2.63028">
        <ele>86.7</ele>
        <time>2021-05-30T10:04:46Z</time>
      </trkpt>
      <trkpt lat="48.54912" lon="2.63026">
        <ele>86.7</ele>
        <time>2021-05-30T10:04:47Z</time>
      </trkpt>
      <trkpt lat="48.54916" lon="2.63026">
        <ele>86.6</ele>
        <time>2021-05-30T10:04:48Z</time>
      </trkpt>
      <trkpt lat="48.54919" lon="2.63026">
        <ele>86.6</ele>
        <time>2021-05-30T10:04:49Z</time>
      </trkpt>
      <trkpt lat="48.54923" lon="2.63027">
        <ele>86.7</ele>
        <time>2021-05-30T10:04:50Z</time>
      </trkpt>
      <trkpt lat="48.5498" lon="2.63033">
        <ele>87.1</ele>
        <time>2021-05-30T10:05:03Z</time>
      </trkpt>
      <trkpt lat="48.5499" lon="2.63031">
        <ele>87.1</ele>
        <time>2021-05-30T10:05:06Z</time>
      </trkpt>
      <trkpt lat="48.54992" lon="2.63028">
        <ele>87</ele>
        <time>2021-05-30T10:05:07Z</time>
      </trkpt>
      <trkpt lat="48.54995" lon="2.63024">
        <ele>86.8</ele>
        <time>2021-05-30T10:05:08Z</time>
      </trkpt>
      <trkpt lat="48.54999" lon="2.63012">
        <ele>86.4</ele>
        <time>2021-05-30T10:05:10Z</time>
      </trkpt>
      <trkpt lat="48.55003" lon="2.62998">
        <ele>86</ele>
        <time>2021-05-30T10:05:12Z</time>
      </trkpt>
      <trkpt lat="48.55005" lon="2.62991">
        <ele>86.1</ele>
        <time>2021-05-30T10:05:13Z</time>
      </trkpt>
      <trkpt lat="48.5502" lon="2.62944">
        <ele>86.6</ele>
        <time>2021-05-30T10:05:21Z</time>
      </trkpt>
      <trkpt lat="48.55026" lon="2.62934">
        <ele>86.7</ele>
        <time>2021-05-30T10:05:23Z</time>
      </trkpt>
      <trkpt lat="48.5503" lon="2.62931">
        <ele>86.8</ele>
        <time>2021-05-30T10:05:24Z</time>
      </trkpt>
      <trkpt lat="48.55034" lon="2.62927">
        <ele>86.8</ele>
        <time>2021-05-30T10:05:25Z</time>
      </trkpt>
      <trkpt lat="48.55038" lon="2.62924">
        <ele>86.9</ele>
        <time>2021-05-30T10:05:26Z</time>
      </trkpt>
      <trkpt lat="48.55041" lon="2.62922">
        <ele>86.9</ele>
        <time>2021-05-30T10:05:27Z</time>
      </trkpt>
      <trkpt lat="48.55045" lon="2.62919">
        <ele>87</ele>
        <time>2021-05-30T10:05:28Z</time>
      </trkpt>
      <trkpt lat="48.55048" lon="2.62915">
        <ele>87</ele>
        <time>2021-05-30T10:05:29Z</time>
      </trkpt>
      <trkpt lat="48.55051" lon="2.62911">
        <ele>87.1</ele>
        <time>2021-05-30T10:05:30Z</time>
      </trkpt>
      <trkpt lat="48.55054" lon="2.62907">
        <ele>87.2</ele>
        <time>2021-05-30T10:05:31Z</time>
      </trkpt>
      <trkpt lat="48.55056" lon="2.62901">
        <ele>87.3</ele>
        <time>2021-05-30T10:05:32Z</time>
      </trkpt>
      <trkpt lat="48.55059" lon="2.62896">
        <ele>87.4</ele>
        <time>2021-05-30T10:05:33Z</time>
      </trkpt>
      <trkpt lat="48.55062" lon="2.6289">
        <ele>87.6</ele>
        <time>2021-05-30T10:05:34Z</time>
      </trkpt>
      <trkpt lat="48.55064" lon="2.62885">
        <ele>87.7</ele>
        <time>2021-05-30T10:05:35Z</time>
      </trkpt>
      <trkpt lat="48.55066" lon="2.6288">
        <ele>87.8</ele>
        <time>2021-05-30T10:05:36Z</time>
      </trkpt>
      <trkpt lat="48.55069" lon="2.62877">
        <ele>87.9</ele>
        <time>2021-05-30T10:05:37Z</time>
      </trkpt>
      <trkpt lat="48.55072" lon="2.62873">
        <ele>88</ele>
        <time>2021-05-30T10:05:38Z</time>
      </trkpt>
      <trkpt lat="48.55074" lon="2.6287">
        <ele>88.1</ele>
        <time>2021-05-30T10:05:39Z</time>
      </trkpt>
      <trkpt lat="48.55076" lon="2.62864">
        <ele>88.2</ele>
        <time>2021-05-30T10:05:40Z</time>
      </trkpt>
      <trkpt lat="48.55077" lon="2.6286">
        <ele>88.3</ele>
        <time>2021-05-30T10:05:41Z</time>
      </trkpt>
      <trkpt lat="48.55079" lon="2.6283">
        <ele>88.9</ele>
        <time>2021-05-30T10:05:45Z</time>
      </trkpt>
      <trkpt lat="48.55079" lon="2.62821">
        <ele>88.8</ele>
        <time>2021-05-30T10:05:46Z</time>
      </trkpt>
      <trkpt lat="48.55079" lon="2.62812">
        <ele>88.7</ele>
        <time>2021-05-30T10:05:47Z</time>
      </trkpt>
      <trkpt lat="48.55078" lon="2.62785">
        <ele>88.4</ele>
        <time>2021-05-30T10:05:50Z</time>
      </trkpt>
      <trkpt lat="48.55078" lon="2.62778">
        <ele>88.3</ele>
        <time>2021-05-30T10:05:51Z</time>
      </trkpt>
      <trkpt lat="48.55077" lon="2.6277">
        <ele>88.2</ele>
        <time>2021-05-30T10:05:52Z</time>
      </trkpt>
      <trkpt lat="48.55077" lon="2.62761">
        <ele>88.1</ele>
        <time>2021-05-30T10:05:53Z</time>
      </trkpt>
      <trkpt lat="48.55077" lon="2.62754">
        <ele>88</ele>
        <time>2021-05-30T10:05:54Z</time>
      </trkpt>
      <trkpt lat="48.55077" lon="2.62747">
        <ele>87.9</ele>
        <time>2021-05-30T10:05:55Z</time>
      </trkpt>
      <trkpt lat="48.55082" lon="2.62718">
        <ele>86.9</ele>
        <time>2021-05-30T10:06:00Z</time>
      </trkpt>
      <trkpt lat="48.55083" lon="2.62699">
        <ele>86.2</ele>
        <time>2021-05-30T10:06:03Z</time>
      </trkpt>
      <trkpt lat="48.55082" lon="2.62692">
        <ele>85.9</ele>
        <time>2021-05-30T10:06:04Z</time>
      </trkpt>
      <trkpt lat="48.55083" lon="2.62686">
        <ele>85.7</ele>
        <time>2021-05-30T10:06:05Z</time>
      </trkpt>
      <trkpt lat="48.55083" lon="2.62679">
        <ele>85.5</ele>
        <time>2021-05-30T10:06:06Z</time>
      </trkpt>
      <trkpt lat="48.55084" lon="2.62673">
        <ele>85.2</ele>
        <time>2021-05-30T10:06:07Z</time>
      </trkpt>
      <trkpt lat="48.55084" lon="2.62647">
        <ele>83.8</ele>
        <time>2021-05-30T10:06:10Z</time>
      </trkpt>
      <trkpt lat="48.55085" lon="2.62583">
        <ele>80.1</ele>
        <time>2021-05-30T10:06:18Z</time>
      </trkpt>
      <trkpt lat="48.55088" lon="2.62569">
        <ele>80.6</ele>
        <time>2021-05-30T10:06:20Z</time>
      </trkpt>
      <trkpt lat="48.55091" lon="2.62549">
        <ele>81.5</ele>
        <time>2021-05-30T10:06:23Z</time>
      </trkpt>
      <trkpt lat="48.55086" lon="2.62455">
        <ele>85.2</ele>
        <time>2021-05-30T10:06:36Z</time>
      </trkpt>
      <trkpt lat="48.55086" lon="2.62448">
        <ele>85.6</ele>
        <time>2021-05-30T10:06:37Z</time>
      </trkpt>
      <trkpt lat="48.55082" lon="2.62372">
        <ele>87</ele>
        <time>2021-05-30T10:06:48Z</time>
      </trkpt>
      <trkpt lat="48.55081" lon="2.62366">
        <ele>87</ele>
        <time>2021-05-30T10:06:49Z</time>
      </trkpt>
      <trkpt lat="48.5508" lon="2.62359">
        <ele>87</ele>
        <time>2021-05-30T10:06:50Z</time>
      </trkpt>
      <trkpt lat="48.55073" lon="2.62326">
        <ele>86.6</ele>
        <time>2021-05-30T10:06:55Z</time>
      </trkpt>
      <trkpt lat="48.55069" lon="2.62311">
        <ele>86</ele>
        <time>2021-05-30T10:06:57Z</time>
      </trkpt>
      <trkpt lat="48.55066" lon="2.62296">
        <ele>85.3</ele>
        <time>2021-05-30T10:06:59Z</time>
      </trkpt>
      <trkpt lat="48.55063" lon="2.6229">
        <ele>85.1</ele>
        <time>2021-05-30T10:07:00Z</time>
      </trkpt>
      <trkpt lat="48.55059" lon="2.62286">
        <ele>84.8</ele>
        <time>2021-05-30T10:07:01Z</time>
      </trkpt>
      <trkpt lat="48.55057" lon="2.62282">
        <ele>84.6</ele>
        <time>2021-05-30T10:07:02Z</time>
      </trkpt>
      <trkpt lat="48.55055" lon="2.62278">
        <ele>84.4</ele>
        <time>2021-05-30T10:07:03Z</time>
      </trkpt>
      <trkpt lat="48.55055" lon="2.62275">
        <ele>84.3</ele>
        <time>2021-05-30T10:07:04Z</time>
      </trkpt>
      <trkpt lat="48.55051" lon="2.62263">
        <ele>83.8</ele>
        <time>2021-05-30T10:07:08Z</time>
      </trkpt>
      <trkpt lat="48.55054" lon="2.62261">
        <ele>83.7</ele>
        <time>2021-05-30T10:07:09Z</time>
      </trkpt>
      <trkpt lat="48.55056" lon="2.62257">
        <ele>83.6</ele>
        <time>2021-05-30T10:07:10Z</time>
      </trkpt>
      <trkpt lat="48.55057" lon="2.62251">
        <ele>83.4</ele>
        <time>2021-05-30T10:07:11Z</time>
      </trkpt>
      <trkpt lat="48.55057" lon="2.62245">
        <ele>83.4</ele>
        <time>2021-05-30T10:07:12Z</time>
      </trkpt>
      <trkpt lat="48.55056" lon="2.62239">
        <ele>83.5</ele>
        <time>2021-05-30T10:07:13Z</time>
      </trkpt>
      <trkpt lat="48.55054" lon="2.62233">
        <ele>83.5</ele>
        <time>2021-05-30T10:07:14Z</time>
      </trkpt>
      <trkpt lat="48.55054" lon="2.62228">
        <ele>83.5</ele>
        <time>2021-05-30T10:07:15Z</time>
      </trkpt>
      <trkpt lat="48.55055" lon="2.62222">
        <ele>83.6</ele>
        <time>2021-05-30T10:07:16Z</time>
      </trkpt>
      <trkpt lat="48.55052" lon="2.62198">
        <ele>83.8</ele>
        <time>2021-05-30T10:07:20Z</time>
      </trkpt>
      <trkpt lat="48.5505" lon="2.62191">
        <ele>83.8</ele>
        <time>2021-05-30T10:07:21Z</time>
      </trkpt>
      <trkpt lat="48.55049" lon="2.62185">
        <ele>83.8</ele>
        <time>2021-05-30T10:07:22Z</time>
      </trkpt>
      <trkpt lat="48.55048" lon="2.62178">
        <ele>83.8</ele>
        <time>2021-05-30T10:07:23Z</time>
      </trkpt>
      <trkpt lat="48.55047" lon="2.62171">
        <ele>83.8</ele>
        <time>2021-05-30T10:07:24Z</time>
      </trkpt>
      <trkpt lat="48.55045" lon="2.62156">
        <ele>83.8</ele>
        <time>2021-05-30T10:07:26Z</time>
      </trkpt>
      <trkpt lat="48.55044" lon="2.62148">
        <ele>83.8</ele>
        <time>2021-05-30T10:07:27Z</time>
      </trkpt>
      <trkpt lat="48.55043" lon="2.6214">
        <ele>83.8</ele>
        <time>2021-05-30T10:07:28Z</time>
      </trkpt>
      <trkpt lat="48.55041" lon="2.62126">
        <ele>83.7</ele>
        <time>2021-05-30T10:07:30Z</time>
      </trkpt>
      <trkpt lat="48.5504" lon="2.62119">
        <ele>83.7</ele>
        <time>2021-05-30T10:07:31Z</time>
      </trkpt>
      <trkpt lat="48.55039" lon="2.62112">
        <ele>83.7</ele>
        <time>2021-05-30T10:07:32Z</time>
      </trkpt>
      <trkpt lat="48.55036" lon="2.6209">
        <ele>83.6</ele>
        <time>2021-05-30T10:07:35Z</time>
      </trkpt>
      <trkpt lat="48.55036" lon="2.62082">
        <ele>83.6</ele>
        <time>2021-05-30T10:07:36Z</time>
      </trkpt>
      <trkpt lat="48.55035" lon="2.62067">
        <ele>83.9</ele>
        <time>2021-05-30T10:07:38Z</time>
      </trkpt>
      <trkpt lat="48.55033" lon="2.6206">
        <ele>83.9</ele>
        <time>2021-05-30T10:07:39Z</time>
      </trkpt>
      <trkpt lat="48.55029" lon="2.62038">
        <ele>84</ele>
        <time>2021-05-30T10:07:42Z</time>
      </trkpt>
      <trkpt lat="48.55028" lon="2.62031">
        <ele>84.1</ele>
        <time>2021-05-30T10:07:43Z</time>
      </trkpt>
      <trkpt lat="48.55027" lon="2.62025">
        <ele>84.1</ele>
        <time>2021-05-30T10:07:44Z</time>
      </trkpt>
      <trkpt lat="48.55026" lon="2.62018">
        <ele>84.2</ele>
        <time>2021-05-30T10:07:45Z</time>
      </trkpt>
      <trkpt lat="48.55025" lon="2.62012">
        <ele>84.2</ele>
        <time>2021-05-30T10:07:46Z</time>
      </trkpt>
      <trkpt lat="48.55024" lon="2.61994">
        <ele>84.5</ele>
        <time>2021-05-30T10:07:49Z</time>
      </trkpt>
      <trkpt lat="48.55024" lon="2.6198">
        <ele>85</ele>
        <time>2021-05-30T10:07:51Z</time>
      </trkpt>
      <trkpt lat="48.55023" lon="2.61965">
        <ele>85.4</ele>
        <time>2021-05-30T10:07:53Z</time>
      </trkpt>
      <trkpt lat="48.55023" lon="2.61936">
        <ele>86.5</ele>
        <time>2021-05-30T10:07:57Z</time>
      </trkpt>
      <trkpt lat="48.55023" lon="2.6193">
        <ele>86.8</ele>
        <time>2021-05-30T10:07:58Z</time>
      </trkpt>
      <trkpt lat="48.55026" lon="2.61878">
        <ele>88</ele>
        <time>2021-05-30T10:08:06Z</time>
      </trkpt>
      <trkpt lat="48.55025" lon="2.6187">
        <ele>87.9</ele>
        <time>2021-05-30T10:08:07Z</time>
      </trkpt>
      <trkpt lat="48.55024" lon="2.61864">
        <ele>87.9</ele>
        <time>2021-05-30T10:08:08Z</time>
      </trkpt>
      <trkpt lat="48.55024" lon="2.61857">
        <ele>88</ele>
        <time>2021-05-30T10:08:09Z</time>
      </trkpt>
      <trkpt lat="48.55025" lon="2.61849">
        <ele>88.2</ele>
        <time>2021-05-30T10:08:10Z</time>
      </trkpt>
      <trkpt lat="48.55024" lon="2.61841">
        <ele>88.2</ele>
        <time>2021-05-30T10:08:11Z</time>
      </trkpt>
      <trkpt lat="48.55024" lon="2.61834">
        <ele>88.3</ele>
        <time>2021-05-30T10:08:12Z</time>
      </trkpt>
      <trkpt lat="48.55023" lon="2.6183">
        <ele>88.2</ele>
        <time>2021-05-30T10:08:13Z</time>
      </trkpt>
      <trkpt lat="48.55024" lon="2.61824">
        <ele>88.2</ele>
        <time>2021-05-30T10:08:14Z</time>
      </trkpt>
      <trkpt lat="48.55027" lon="2.61818">
        <ele>88.3</ele>
        <time>2021-05-30T10:08:15Z</time>
      </trkpt>
      <trkpt lat="48.5503" lon="2.61813">
        <ele>88.5</ele>
        <time>2021-05-30T10:08:16Z</time>
      </trkpt>
      <trkpt lat="48.55032" lon="2.61808">
        <ele>88.7</ele>
        <time>2021-05-30T10:08:17Z</time>
      </trkpt>
      <trkpt lat="48.55034" lon="2.61803">
        <ele>88.8</ele>
        <time>2021-05-30T10:08:18Z</time>
      </trkpt>
      <trkpt lat="48.55034" lon="2.61798">
        <ele>88.8</ele>
        <time>2021-05-30T10:08:19Z</time>
      </trkpt>
      <trkpt lat="48.55034" lon="2.61794">
        <ele>88.7</ele>
        <time>2021-05-30T10:08:20Z</time>
      </trkpt>
      <trkpt lat="48.55034" lon="2.6179">
        <ele>88.6</ele>
        <time>2021-05-30T10:08:21Z</time>
      </trkpt>
      <trkpt lat="48.55033" lon="2.61786">
        <ele>88.5</ele>
        <time>2021-05-30T10:08:22Z</time>
      </trkpt>
      <trkpt lat="48.55033" lon="2.61781">
        <ele>88.4</ele>
        <time>2021-05-30T10:08:23Z</time>
      </trkpt>
      <trkpt lat="48.5503" lon="2.6174">
        <ele>87</ele>
        <time>2021-05-30T10:08:28Z</time>
      </trkpt>
      <trkpt lat="48.5503" lon="2.61733">
        <ele>86.7</ele>
        <time>2021-05-30T10:08:29Z</time>
      </trkpt>
      <trkpt lat="48.55031" lon="2.61726">
        <ele>86.4</ele>
        <time>2021-05-30T10:08:30Z</time>
      </trkpt>
      <trkpt lat="48.55033" lon="2.6172">
        <ele>86.2</ele>
        <time>2021-05-30T10:08:31Z</time>
      </trkpt>
      <trkpt lat="48.55034" lon="2.61714">
        <ele>86</ele>
        <time>2021-05-30T10:08:32Z</time>
      </trkpt>
      <trkpt lat="48.55035" lon="2.61709">
        <ele>85.7</ele>
        <time>2021-05-30T10:08:33Z</time>
      </trkpt>
      <trkpt lat="48.55041" lon="2.6169">
        <ele>85.4</ele>
        <time>2021-05-30T10:08:37Z</time>
      </trkpt>
      <trkpt lat="48.55043" lon="2.61682">
        <ele>85</ele>
        <time>2021-05-30T10:08:38Z</time>
      </trkpt>
      <trkpt lat="48.55043" lon="2.61667">
        <ele>84.1</ele>
        <time>2021-05-30T10:08:40Z</time>
      </trkpt>
      <trkpt lat="48.55042" lon="2.6166">
        <ele>83.9</ele>
        <time>2021-05-30T10:08:41Z</time>
      </trkpt>
      <trkpt lat="48.5504" lon="2.61652">
        <ele>83.4</ele>
        <time>2021-05-30T10:08:42Z</time>
      </trkpt>
      <trkpt lat="48.55037" lon="2.61643">
        <ele>83</ele>
        <time>2021-05-30T10:08:43Z</time>
      </trkpt>
      <trkpt lat="48.55035" lon="2.61634">
        <ele>82.6</ele>
        <time>2021-05-30T10:08:44Z</time>
      </trkpt>
      <trkpt lat="48.55034" lon="2.61625">
        <ele>82.4</ele>
        <time>2021-05-30T10:08:45Z</time>
      </trkpt>
      <trkpt lat="48.55035" lon="2.61616">
        <ele>82.2</ele>
        <time>2021-05-30T10:08:46Z</time>
      </trkpt>
      <trkpt lat="48.55035" lon="2.61607">
        <ele>82.1</ele>
        <time>2021-05-30T10:08:47Z</time>
      </trkpt>
      <trkpt lat="48.55035" lon="2.61599">
        <ele>81.9</ele>
        <time>2021-05-30T10:08:48Z</time>
      </trkpt>
      <trkpt lat="48.55035" lon="2.6159">
        <ele>81.7</ele>
        <time>2021-05-30T10:08:49Z</time>
      </trkpt>
      <trkpt lat="48.55036" lon="2.61581">
        <ele>81.6</ele>
        <time>2021-05-30T10:08:50Z</time>
      </trkpt>
      <trkpt lat="48.55036" lon="2.61562">
        <ele>81.7</ele>
        <time>2021-05-30T10:08:53Z</time>
      </trkpt>
      <trkpt lat="48.55035" lon="2.61557">
        <ele>81.7</ele>
        <time>2021-05-30T10:08:54Z</time>
      </trkpt>
      <trkpt lat="48.55035" lon="2.61552">
        <ele>81.8</ele>
        <time>2021-05-30T10:08:55Z</time>
      </trkpt>
      <trkpt lat="48.55034" lon="2.61546">
        <ele>81.7</ele>
        <time>2021-05-30T10:08:56Z</time>
      </trkpt>
      <trkpt lat="48.55033" lon="2.6154">
        <ele>81.7</ele>
        <time>2021-05-30T10:08:57Z</time>
      </trkpt>
      <trkpt lat="48.55032" lon="2.61533">
        <ele>81.7</ele>
        <time>2021-05-30T10:08:58Z</time>
      </trkpt>
      <trkpt lat="48.55032" lon="2.61526">
        <ele>81.8</ele>
        <time>2021-05-30T10:08:59Z</time>
      </trkpt>
      <trkpt lat="48.55032" lon="2.61519">
        <ele>81.8</ele>
        <time>2021-05-30T10:09:00Z</time>
      </trkpt>
      <trkpt lat="48.55032" lon="2.61513">
        <ele>81.9</ele>
        <time>2021-05-30T10:09:01Z</time>
      </trkpt>
      <trkpt lat="48.55033" lon="2.61507">
        <ele>81.9</ele>
        <time>2021-05-30T10:09:02Z</time>
      </trkpt>
      <trkpt lat="48.55034" lon="2.615">
        <ele>82</ele>
        <time>2021-05-30T10:09:03Z</time>
      </trkpt>
      <trkpt lat="48.55034" lon="2.61493">
        <ele>81.8</ele>
        <time>2021-05-30T10:09:04Z</time>
      </trkpt>
      <trkpt lat="48.55035" lon="2.61486">
        <ele>81.7</ele>
        <time>2021-05-30T10:09:05Z</time>
      </trkpt>
      <trkpt lat="48.55036" lon="2.6148">
        <ele>81.5</ele>
        <time>2021-05-30T10:09:06Z</time>
      </trkpt>
      <trkpt lat="48.55036" lon="2.61474">
        <ele>81.4</ele>
        <time>2021-05-30T10:09:07Z</time>
      </trkpt>
      <trkpt lat="48.55037" lon="2.61468">
        <ele>81.3</ele>
        <time>2021-05-30T10:09:08Z</time>
      </trkpt>
      <trkpt lat="48.5504" lon="2.61462">
        <ele>81.2</ele>
        <time>2021-05-30T10:09:09Z</time>
      </trkpt>
      <trkpt lat="48.55043" lon="2.61445">
        <ele>81</ele>
        <time>2021-05-30T10:09:12Z</time>
      </trkpt>
      <trkpt lat="48.55042" lon="2.61438">
        <ele>80.6</ele>
        <time>2021-05-30T10:09:13Z</time>
      </trkpt>
      <trkpt lat="48.5504" lon="2.61432">
        <ele>80.3</ele>
        <time>2021-05-30T10:09:14Z</time>
      </trkpt>
      <trkpt lat="48.55038" lon="2.61424">
        <ele>80</ele>
        <time>2021-05-30T10:09:15Z</time>
      </trkpt>
      <trkpt lat="48.55037" lon="2.61417">
        <ele>79.7</ele>
        <time>2021-05-30T10:09:16Z</time>
      </trkpt>
      <trkpt lat="48.55036" lon="2.6141">
        <ele>79.6</ele>
        <time>2021-05-30T10:09:17Z</time>
      </trkpt>
      <trkpt lat="48.55035" lon="2.61403">
        <ele>79.5</ele>
        <time>2021-05-30T10:09:18Z</time>
      </trkpt>
      <trkpt lat="48.55034" lon="2.61396">
        <ele>79.5</ele>
        <time>2021-05-30T10:09:19Z</time>
      </trkpt>
      <trkpt lat="48.55035" lon="2.6139">
        <ele>79.5</ele>
        <time>2021-05-30T10:09:20Z</time>
      </trkpt>
      <trkpt lat="48.55036" lon="2.61384">
        <ele>79.6</ele>
        <time>2021-05-30T10:09:21Z</time>
      </trkpt>
      <trkpt lat="48.55038" lon="2.61371">
        <ele>79.7</ele>
        <time>2021-05-30T10:09:23Z</time>
      </trkpt>
      <trkpt lat="48.55038" lon="2.61364">
        <ele>79.7</ele>
        <time>2021-05-30T10:09:24Z</time>
      </trkpt>
      <trkpt lat="48.55039" lon="2.61359">
        <ele>79.8</ele>
        <time>2021-05-30T10:09:25Z</time>
      </trkpt>
      <trkpt lat="48.55039" lon="2.61353">
        <ele>79.8</ele>
        <time>2021-05-30T10:09:26Z</time>
      </trkpt>
      <trkpt lat="48.55039" lon="2.61347">
        <ele>79.8</ele>
        <time>2021-05-30T10:09:27Z</time>
      </trkpt>
      <trkpt lat="48.55038" lon="2.61341">
        <ele>79.8</ele>
        <time>2021-05-30T10:09:28Z</time>
      </trkpt>
      <trkpt lat="48.55039" lon="2.61335">
        <ele>79.8</ele>
        <time>2021-05-30T10:09:29Z</time>
      </trkpt>
      <trkpt lat="48.5504" lon="2.61331">
        <ele>79.8</ele>
        <time>2021-05-30T10:09:30Z</time>
      </trkpt>
      <trkpt lat="48.55041" lon="2.61326">
        <ele>79.9</ele>
        <time>2021-05-30T10:09:31Z</time>
      </trkpt>
      <trkpt lat="48.55042" lon="2.61305">
        <ele>79.7</ele>
        <time>2021-05-30T10:09:35Z</time>
      </trkpt>
      <trkpt lat="48.55043" lon="2.613">
        <ele>79.7</ele>
        <time>2021-05-30T10:09:36Z</time>
      </trkpt>
      <trkpt lat="48.55044" lon="2.6129">
        <ele>79.6</ele>
        <time>2021-05-30T10:09:38Z</time>
      </trkpt>
      <trkpt lat="48.55043" lon="2.61286">
        <ele>79.5</ele>
        <time>2021-05-30T10:09:39Z</time>
      </trkpt>
      <trkpt lat="48.55041" lon="2.61284">
        <ele>79.4</ele>
        <time>2021-05-30T10:09:40Z</time>
      </trkpt>
      <trkpt lat="48.55039" lon="2.61281">
        <ele>79.2</ele>
        <time>2021-05-30T10:09:41Z</time>
      </trkpt>
      <trkpt lat="48.55037" lon="2.61278">
        <ele>79</ele>
        <time>2021-05-30T10:09:42Z</time>
      </trkpt>
      <trkpt lat="48.55036" lon="2.61276">
        <ele>78.9</ele>
        <time>2021-05-30T10:09:43Z</time>
      </trkpt>
      <trkpt lat="48.55032" lon="2.61269">
        <ele>78.5</ele>
        <time>2021-05-30T10:09:45Z</time>
      </trkpt>
      <trkpt lat="48.5503" lon="2.61263">
        <ele>78.3</ele>
        <time>2021-05-30T10:09:46Z</time>
      </trkpt>
      <trkpt lat="48.55029" lon="2.61256">
        <ele>78.2</ele>
        <time>2021-05-30T10:09:47Z</time>
      </trkpt>
      <trkpt lat="48.5503" lon="2.61249">
        <ele>78.2</ele>
        <time>2021-05-30T10:09:48Z</time>
      </trkpt>
      <trkpt lat="48.5503" lon="2.61243">
        <ele>78.2</ele>
        <time>2021-05-30T10:09:49Z</time>
      </trkpt>
      <trkpt lat="48.55038" lon="2.61184">
        <ele>78.8</ele>
        <time>2021-05-30T10:10:00Z</time>
      </trkpt>
      <trkpt lat="48.55051" lon="2.61122">
        <ele>79.5</ele>
        <time>2021-05-30T10:10:12Z</time>
      </trkpt>
      <trkpt lat="48.55067" lon="2.61071">
        <ele>80.4</ele>
        <time>2021-05-30T10:10:22Z</time>
      </trkpt>
      <trkpt lat="48.55076" lon="2.61028">
        <ele>80.2</ele>
        <time>2021-05-30T10:10:31Z</time>
      </trkpt>
      <trkpt lat="48.55094" lon="2.6096">
        <ele>79.2</ele>
        <time>2021-05-30T10:10:43Z</time>
      </trkpt>
      <trkpt lat="48.55098" lon="2.60941">
        <ele>78.7</ele>
        <time>2021-05-30T10:10:46Z</time>
      </trkpt>
      <trkpt lat="48.551" lon="2.60935">
        <ele>78.7</ele>
        <time>2021-05-30T10:10:47Z</time>
      </trkpt>
      <trkpt lat="48.55105" lon="2.60923">
        <ele>78.5</ele>
        <time>2021-05-30T10:10:49Z</time>
      </trkpt>
      <trkpt lat="48.55108" lon="2.60917">
        <ele>78.5</ele>
        <time>2021-05-30T10:10:50Z</time>
      </trkpt>
      <trkpt lat="48.5515" lon="2.60865">
        <ele>79.3</ele>
        <time>2021-05-30T10:11:03Z</time>
      </trkpt>
      <trkpt lat="48.55175" lon="2.60835">
        <ele>79.2</ele>
        <time>2021-05-30T10:11:13Z</time>
      </trkpt>
      <trkpt lat="48.55209" lon="2.60788">
        <ele>78.4</ele>
        <time>2021-05-30T10:11:27Z</time>
      </trkpt>
      <trkpt lat="48.55216" lon="2.6077">
        <ele>77.9</ele>
        <time>2021-05-30T10:11:40Z</time>
      </trkpt>
      <trkpt lat="48.55217" lon="2.6077">
        <ele>77.9</ele>
        <time>2021-05-30T10:12:03Z</time>
      </trkpt>
      <trkpt lat="48.55218" lon="2.60768">
        <ele>77.9</ele>
        <time>2021-05-30T10:12:06Z</time>
      </trkpt>
      <trkpt lat="48.55219" lon="2.60768">
        <ele>77.9</ele>
        <time>2021-05-30T10:12:07Z</time>
      </trkpt>
      <trkpt lat="48.55221" lon="2.60769">
        <ele>77.9</ele>
        <time>2021-05-30T10:12:09Z</time>
      </trkpt>
      <trkpt lat="48.55223" lon="2.6077">
        <ele>77.9</ele>
        <time>2021-05-30T10:12:10Z</time>
      </trkpt>
      <trkpt lat="48.55224" lon="2.60771">
        <ele>77.9</ele>
        <time>2021-05-30T10:12:11Z</time>
      </trkpt>
      <trkpt lat="48.55261" lon="2.60793">
        <ele>78.5</ele>
        <time>2021-05-30T10:12:24Z</time>
      </trkpt>
      <trkpt lat="48.55307" lon="2.60817">
        <ele>78.9</ele>
        <time>2021-05-30T10:12:35Z</time>
      </trkpt>
      <trkpt lat="48.55311" lon="2.60818">
        <ele>78.9</ele>
        <time>2021-05-30T10:12:36Z</time>
      </trkpt>
      <trkpt lat="48.55376" lon="2.60853">
        <ele>79.7</ele>
        <time>2021-05-30T10:12:53Z</time>
      </trkpt>
      <trkpt lat="48.5542" lon="2.60874">
        <ele>80</ele>
        <time>2021-05-30T10:13:05Z</time>
      </trkpt>
      <trkpt lat="48.55429" lon="2.60877">
        <ele>80.1</ele>
        <time>2021-05-30T10:13:07Z</time>
      </trkpt>
      <trkpt lat="48.55433" lon="2.60879">
        <ele>80.2</ele>
        <time>2021-05-30T10:13:08Z</time>
      </trkpt>
      <trkpt lat="48.55436" lon="2.60881">
        <ele>80.2</ele>
        <time>2021-05-30T10:13:09Z</time>
      </trkpt>
      <trkpt lat="48.5544" lon="2.60884">
        <ele>80.3</ele>
        <time>2021-05-30T10:13:10Z</time>
      </trkpt>
      <trkpt lat="48.55444" lon="2.60885">
        <ele>80.3</ele>
        <time>2021-05-30T10:13:11Z</time>
      </trkpt>
      <trkpt lat="48.55463" lon="2.60896">
        <ele>80.6</ele>
        <time>2021-05-30T10:13:16Z</time>
      </trkpt>
      <trkpt lat="48.55467" lon="2.60898">
        <ele>80.6</ele>
        <time>2021-05-30T10:13:17Z</time>
      </trkpt>
      <trkpt lat="48.55471" lon="2.60899">
        <ele>80.7</ele>
        <time>2021-05-30T10:13:18Z</time>
      </trkpt>
      <trkpt lat="48.55475" lon="2.60901">
        <ele>80.7</ele>
        <time>2021-05-30T10:13:19Z</time>
      </trkpt>
      <trkpt lat="48.55479" lon="2.60903">
        <ele>80.8</ele>
        <time>2021-05-30T10:13:20Z</time>
      </trkpt>
      <trkpt lat="48.55531" lon="2.6093">
        <ele>80.8</ele>
        <time>2021-05-30T10:13:33Z</time>
      </trkpt>
      <trkpt lat="48.5559" lon="2.60959">
        <ele>80.5</ele>
        <time>2021-05-30T10:13:49Z</time>
      </trkpt>
      <trkpt lat="48.55614" lon="2.60966">
        <ele>80.5</ele>
        <time>2021-05-30T10:14:00Z</time>
      </trkpt>
      <trkpt lat="48.55622" lon="2.60967">
        <ele>80.5</ele>
        <time>2021-05-30T10:14:02Z</time>
      </trkpt>
      <trkpt lat="48.55626" lon="2.60968">
        <ele>80.5</ele>
        <time>2021-05-30T10:14:03Z</time>
      </trkpt>
      <trkpt lat="48.5563" lon="2.60971">
        <ele>80.5</ele>
        <time>2021-05-30T10:14:04Z</time>
      </trkpt>
      <trkpt lat="48.55633" lon="2.60975">
        <ele>80.5</ele>
        <time>2021-05-30T10:14:05Z</time>
      </trkpt>
      <trkpt lat="48.55637" lon="2.60977">
        <ele>80.4</ele>
        <time>2021-05-30T10:14:06Z</time>
      </trkpt>
      <trkpt lat="48.55641" lon="2.60978">
        <ele>80.4</ele>
        <time>2021-05-30T10:14:07Z</time>
      </trkpt>
      <trkpt lat="48.55645" lon="2.60979">
        <ele>80.4</ele>
        <time>2021-05-30T10:14:08Z</time>
      </trkpt>
      <trkpt lat="48.55649" lon="2.60981">
        <ele>80.3</ele>
        <time>2021-05-30T10:14:09Z</time>
      </trkpt>
      <trkpt lat="48.55653" lon="2.60981">
        <ele>80.3</ele>
        <time>2021-05-30T10:14:10Z</time>
      </trkpt>
      <trkpt lat="48.55692" lon="2.60991">
        <ele>80.1</ele>
        <time>2021-05-30T10:14:21Z</time>
      </trkpt>
      <trkpt lat="48.55712" lon="2.60995">
        <ele>80</ele>
        <time>2021-05-30T10:14:31Z</time>
      </trkpt>
      <trkpt lat="48.55714" lon="2.60995">
        <ele>80</ele>
        <time>2021-05-30T10:14:32Z</time>
      </trkpt>
      <trkpt lat="48.55716" lon="2.60995">
        <ele>80</ele>
        <time>2021-05-30T10:14:33Z</time>
      </trkpt>
      <trkpt lat="48.55719" lon="2.60995">
        <ele>80</ele>
        <time>2021-05-30T10:14:34Z</time>
      </trkpt>
      <trkpt lat="48.55721" lon="2.60995">
        <ele>80</ele>
        <time>2021-05-30T10:14:35Z</time>
      </trkpt>
      <trkpt lat="48.55764" lon="2.61006">
        <ele>80.7</ele>
        <time>2021-05-30T10:14:47Z</time>
      </trkpt>
      <trkpt lat="48.55806" lon="2.61016">
        <ele>82.3</ele>
        <time>2021-05-30T10:14:58Z</time>
      </trkpt>
      <trkpt lat="48.55862" lon="2.61028">
        <ele>83.8</ele>
        <time>2021-05-30T10:15:12Z</time>
      </trkpt>
      <trkpt lat="48.55866" lon="2.61029">
        <ele>83.9</ele>
        <time>2021-05-30T10:15:13Z</time>
      </trkpt>
      <trkpt lat="48.5587" lon="2.6103">
        <ele>84</ele>
        <time>2021-05-30T10:15:14Z</time>
      </trkpt>
      <trkpt lat="48.55874" lon="2.61032">
        <ele>84.1</ele>
        <time>2021-05-30T10:15:15Z</time>
      </trkpt>
      <trkpt lat="48.55878" lon="2.61032">
        <ele>84.1</ele>
        <time>2021-05-30T10:15:16Z</time>
      </trkpt>
      <trkpt lat="48.55882" lon="2.61034">
        <ele>84.2</ele>
        <time>2021-05-30T10:15:17Z</time>
      </trkpt>
      <trkpt lat="48.55909" lon="2.61039">
        <ele>84.8</ele>
        <time>2021-05-30T10:15:23Z</time>
      </trkpt>
      <trkpt lat="48.55914" lon="2.6104">
        <ele>84.9</ele>
        <time>2021-05-30T10:15:24Z</time>
      </trkpt>
      <trkpt lat="48.55918" lon="2.61041">
        <ele>84.9</ele>
        <time>2021-05-30T10:15:25Z</time>
      </trkpt>
      <trkpt lat="48.55922" lon="2.61042">
        <ele>85</ele>
        <time>2021-05-30T10:15:26Z</time>
      </trkpt>
      <trkpt lat="48.55926" lon="2.61043">
        <ele>84.9</ele>
        <time>2021-05-30T10:15:27Z</time>
      </trkpt>
      <trkpt lat="48.55987" lon="2.61057">
        <ele>84.7</ele>
        <time>2021-05-30T10:15:41Z</time>
      </trkpt>
      <trkpt lat="48.56049" lon="2.61072">
        <ele>86.1</ele>
        <time>2021-05-30T10:15:56Z</time>
      </trkpt>
      <trkpt lat="48.56058" lon="2.61073">
        <ele>86.3</ele>
        <time>2021-05-30T10:15:58Z</time>
      </trkpt>
      <trkpt lat="48.56074" lon="2.61077">
        <ele>86.6</ele>
        <time>2021-05-30T10:16:02Z</time>
      </trkpt>
      <trkpt lat="48.56094" lon="2.61081">
        <ele>86.9</ele>
        <time>2021-05-30T10:16:07Z</time>
      </trkpt>
      <trkpt lat="48.56099" lon="2.61082">
        <ele>87</ele>
        <time>2021-05-30T10:16:08Z</time>
      </trkpt>
      <trkpt lat="48.56144" lon="2.61092">
        <ele>87.2</ele>
        <time>2021-05-30T10:16:20Z</time>
      </trkpt>
      <trkpt lat="48.56161" lon="2.61103">
        <ele>87.3</ele>
        <time>2021-05-30T10:16:26Z</time>
      </trkpt>
      <trkpt lat="48.56162" lon="2.61106">
        <ele>87.3</ele>
        <time>2021-05-30T10:16:27Z</time>
      </trkpt>
      <trkpt lat="48.56162" lon="2.61111">
        <ele>87.4</ele>
        <time>2021-05-30T10:16:28Z</time>
      </trkpt>
      <trkpt lat="48.56162" lon="2.61115">
        <ele>87.4</ele>
        <time>2021-05-30T10:16:29Z</time>
      </trkpt>
      <trkpt lat="48.5616" lon="2.6112">
        <ele>87.5</ele>
        <time>2021-05-30T10:16:30Z</time>
      </trkpt>
      <trkpt lat="48.56159" lon="2.61125">
        <ele>87.6</ele>
        <time>2021-05-30T10:16:31Z</time>
      </trkpt>
      <trkpt lat="48.56149" lon="2.61152">
        <ele>88.2</ele>
        <time>2021-05-30T10:16:36Z</time>
      </trkpt>
      <trkpt lat="48.56147" lon="2.61157">
        <ele>88.3</ele>
        <time>2021-05-30T10:16:37Z</time>
      </trkpt>
      <trkpt lat="48.56134" lon="2.61191">
        <ele>88.8</ele>
        <time>2021-05-30T10:16:43Z</time>
      </trkpt>
      <trkpt lat="48.5613" lon="2.61196">
        <ele>88.9</ele>
        <time>2021-05-30T10:16:44Z</time>
      </trkpt>
      <trkpt lat="48.56121" lon="2.61212">
        <ele>89.1</ele>
        <time>2021-05-30T10:16:47Z</time>
      </trkpt>
      <trkpt lat="48.56087" lon="2.61274">
        <ele>89.1</ele>
        <time>2021-05-30T10:16:58Z</time>
      </trkpt>
      <trkpt lat="48.56075" lon="2.61297">
        <ele>88.4</ele>
        <time>2021-05-30T10:17:02Z</time>
      </trkpt>
      <trkpt lat="48.56073" lon="2.61303">
        <ele>88.3</ele>
        <time>2021-05-30T10:17:03Z</time>
      </trkpt>
      <trkpt lat="48.56072" lon="2.6131">
        <ele>88.1</ele>
        <time>2021-05-30T10:17:04Z</time>
      </trkpt>
      <trkpt lat="48.56072" lon="2.61317">
        <ele>87.9</ele>
        <time>2021-05-30T10:17:05Z</time>
      </trkpt>
      <trkpt lat="48.56074" lon="2.61322">
        <ele>87.7</ele>
        <time>2021-05-30T10:17:06Z</time>
      </trkpt>
      <trkpt lat="48.56077" lon="2.61325">
        <ele>87.5</ele>
        <time>2021-05-30T10:17:07Z</time>
      </trkpt>
      <trkpt lat="48.56081" lon="2.61326">
        <ele>87.3</ele>
        <time>2021-05-30T10:17:08Z</time>
      </trkpt>
      <trkpt lat="48.56085" lon="2.61326">
        <ele>87.3</ele>
        <time>2021-05-30T10:17:09Z</time>
      </trkpt>
      <trkpt lat="48.5609" lon="2.61326">
        <ele>87.3</ele>
        <time>2021-05-30T10:17:10Z</time>
      </trkpt>
      <trkpt lat="48.56095" lon="2.61326">
        <ele>87.4</ele>
        <time>2021-05-30T10:17:11Z</time>
      </trkpt>
      <trkpt lat="48.561" lon="2.61326">
        <ele>87.4</ele>
        <time>2021-05-30T10:17:12Z</time>
      </trkpt>
      <trkpt lat="48.56104" lon="2.61326">
        <ele>87.5</ele>
        <time>2021-05-30T10:17:13Z</time>
      </trkpt>
      <trkpt lat="48.56167" lon="2.61328">
        <ele>88</ele>
        <time>2021-05-30T10:17:27Z</time>
      </trkpt>
      <trkpt lat="48.56186" lon="2.61329">
        <ele>87.3</ele>
        <time>2021-05-30T10:17:31Z</time>
      </trkpt>
      <trkpt lat="48.56213" lon="2.61328">
        <ele>86.3</ele>
        <time>2021-05-30T10:17:36Z</time>
      </trkpt>
      <trkpt lat="48.56293" lon="2.61314">
        <ele>82</ele>
        <time>2021-05-30T10:17:49Z</time>
      </trkpt>
      <trkpt lat="48.5632" lon="2.61317">
        <ele>80.1</ele>
        <time>2021-05-30T10:17:53Z</time>
      </trkpt>
      <trkpt lat="48.56326" lon="2.61319">
        <ele>79.7</ele>
        <time>2021-05-30T10:17:54Z</time>
      </trkpt>
      <trkpt lat="48.56333" lon="2.61319">
        <ele>79.2</ele>
        <time>2021-05-30T10:17:55Z</time>
      </trkpt>
      <trkpt lat="48.56345" lon="2.6132">
        <ele>79</ele>
        <time>2021-05-30T10:17:57Z</time>
      </trkpt>
      <trkpt lat="48.56351" lon="2.61318">
        <ele>78.9</ele>
        <time>2021-05-30T10:17:58Z</time>
      </trkpt>
      <trkpt lat="48.56357" lon="2.61316">
        <ele>78.8</ele>
        <time>2021-05-30T10:17:59Z</time>
      </trkpt>
      <trkpt lat="48.56408" lon="2.61302">
        <ele>77.8</ele>
        <time>2021-05-30T10:18:10Z</time>
      </trkpt>
      <trkpt lat="48.56458" lon="2.61292">
        <ele>76.5</ele>
        <time>2021-05-30T10:18:21Z</time>
      </trkpt>
      <trkpt lat="48.56501" lon="2.61279">
        <ele>75.3</ele>
        <time>2021-05-30T10:18:32Z</time>
      </trkpt>
      <trkpt lat="48.56501" lon="2.61274">
        <ele>75.3</ele>
        <time>2021-05-30T10:18:33Z</time>
      </trkpt>
      <trkpt lat="48.56502" lon="2.61269">
        <ele>75.2</ele>
        <time>2021-05-30T10:18:34Z</time>
      </trkpt>
      <trkpt lat="48.56504" lon="2.61265">
        <ele>75.1</ele>
        <time>2021-05-30T10:18:35Z</time>
      </trkpt>
      <trkpt lat="48.56508" lon="2.61262">
        <ele>75</ele>
        <time>2021-05-30T10:18:36Z</time>
      </trkpt>
      <trkpt lat="48.5651" lon="2.61258">
        <ele>75</ele>
        <time>2021-05-30T10:18:37Z</time>
      </trkpt>
      <trkpt lat="48.5651" lon="2.61252">
        <ele>74.9</ele>
        <time>2021-05-30T10:18:38Z</time>
      </trkpt>
      <trkpt lat="48.5651" lon="2.61247">
        <ele>74.9</ele>
        <time>2021-05-30T10:18:39Z</time>
      </trkpt>
      <trkpt lat="48.5651" lon="2.61242">
        <ele>74.9</ele>
        <time>2021-05-30T10:18:40Z</time>
      </trkpt>
      <trkpt lat="48.56509" lon="2.61237">
        <ele>74.9</ele>
        <time>2021-05-30T10:18:41Z</time>
      </trkpt>
      <trkpt lat="48.56502" lon="2.61173">
        <ele>75</ele>
        <time>2021-05-30T10:18:57Z</time>
      </trkpt>
      <trkpt lat="48.565" lon="2.61163">
        <ele>75</ele>
        <time>2021-05-30T10:19:01Z</time>
      </trkpt>
      <trkpt lat="48.56499" lon="2.61165">
        <ele>75</ele>
        <time>2021-05-30T10:19:02Z</time>
      </trkpt>
      <trkpt lat="48.56498" lon="2.61166">
        <ele>75</ele>
        <time>2021-05-30T10:19:03Z</time>
      </trkpt>
      <trkpt lat="48.56496" lon="2.61166">
        <ele>75</ele>
        <time>2021-05-30T10:19:04Z</time>
      </trkpt>
      <trkpt lat="48.56494" lon="2.61165">
        <ele>75.1</ele>
        <time>2021-05-30T10:19:05Z</time>
      </trkpt>
      <trkpt lat="48.56493" lon="2.61163">
        <ele>75.1</ele>
        <time>2021-05-30T10:19:06Z</time>
      </trkpt>
      <trkpt lat="48.56492" lon="2.6116">
        <ele>75.1</ele>
        <time>2021-05-30T10:19:07Z</time>
      </trkpt>
      <trkpt lat="48.56491" lon="2.61156">
        <ele>75.1</ele>
        <time>2021-05-30T10:19:08Z</time>
      </trkpt>
      <trkpt lat="48.56491" lon="2.61151">
        <ele>75.1</ele>
        <time>2021-05-30T10:19:09Z</time>
      </trkpt>
      <trkpt lat="48.5649" lon="2.61147">
        <ele>75.1</ele>
        <time>2021-05-30T10:19:10Z</time>
      </trkpt>
      <trkpt lat="48.56489" lon="2.61143">
        <ele>75.2</ele>
        <time>2021-05-30T10:19:11Z</time>
      </trkpt>
      <trkpt lat="48.56488" lon="2.61139">
        <ele>75.2</ele>
        <time>2021-05-30T10:19:12Z</time>
      </trkpt>
      <trkpt lat="48.56488" lon="2.61134">
        <ele>75.2</ele>
        <time>2021-05-30T10:19:13Z</time>
      </trkpt>
      <trkpt lat="48.56488" lon="2.6113">
        <ele>75.2</ele>
        <time>2021-05-30T10:19:14Z</time>
      </trkpt>
      <trkpt lat="48.56487" lon="2.61126">
        <ele>75.2</ele>
        <time>2021-05-30T10:19:15Z</time>
      </trkpt>
      <trkpt lat="48.56483" lon="2.611">
        <ele>75.4</ele>
        <time>2021-05-30T10:19:21Z</time>
      </trkpt>
      <trkpt lat="48.56465" lon="2.61031">
        <ele>75.5</ele>
        <time>2021-05-30T10:19:35Z</time>
      </trkpt>
      <trkpt lat="48.56459" lon="2.60998">
        <ele>75.5</ele>
        <time>2021-05-30T10:19:43Z</time>
      </trkpt>
      <trkpt lat="48.56462" lon="2.60995">
        <ele>75.4</ele>
        <time>2021-05-30T10:19:44Z</time>
      </trkpt>
      <trkpt lat="48.56465" lon="2.60993">
        <ele>75.3</ele>
        <time>2021-05-30T10:19:45Z</time>
      </trkpt>
      <trkpt lat="48.56469" lon="2.60992">
        <ele>75.1</ele>
        <time>2021-05-30T10:19:46Z</time>
      </trkpt>
      <trkpt lat="48.56472" lon="2.60991">
        <ele>75</ele>
        <time>2021-05-30T10:19:47Z</time>
      </trkpt>
      <trkpt lat="48.56505" lon="2.6099">
        <ele>73.9</ele>
        <time>2021-05-30T10:19:55Z</time>
      </trkpt>
      <trkpt lat="48.56509" lon="2.60988">
        <ele>73.9</ele>
        <time>2021-05-30T10:19:56Z</time>
      </trkpt>
      <trkpt lat="48.56518" lon="2.60985">
        <ele>73.8</ele>
        <time>2021-05-30T10:19:58Z</time>
      </trkpt>
      <trkpt lat="48.56528" lon="2.60983">
        <ele>73.7</ele>
        <time>2021-05-30T10:20:00Z</time>
      </trkpt>
      <trkpt lat="48.56575" lon="2.60961">
        <ele>73.1</ele>
        <time>2021-05-30T10:20:09Z</time>
      </trkpt>
      <trkpt lat="48.56579" lon="2.60958">
        <ele>73.1</ele>
        <time>2021-05-30T10:20:10Z</time>
      </trkpt>
      <trkpt lat="48.56586" lon="2.60952">
        <ele>73</ele>
        <time>2021-05-30T10:20:12Z</time>
      </trkpt>
      <trkpt lat="48.56609" lon="2.6093">
        <ele>73</ele>
        <time>2021-05-30T10:20:19Z</time>
      </trkpt>
      <trkpt lat="48.56612" lon="2.60928">
        <ele>73</ele>
        <time>2021-05-30T10:20:20Z</time>
      </trkpt>
      <trkpt lat="48.56616" lon="2.60926">
        <ele>73</ele>
        <time>2021-05-30T10:20:21Z</time>
      </trkpt>
      <trkpt lat="48.56618" lon="2.60926">
        <ele>73</ele>
        <time>2021-05-30T10:20:22Z</time>
      </trkpt>
      <trkpt lat="48.56621" lon="2.60929">
        <ele>72.9</ele>
        <time>2021-05-30T10:20:23Z</time>
      </trkpt>
      <trkpt lat="48.56624" lon="2.60932">
        <ele>72.9</ele>
        <time>2021-05-30T10:20:24Z</time>
      </trkpt>
      <trkpt lat="48.56627" lon="2.60937">
        <ele>72.9</ele>
        <time>2021-05-30T10:20:25Z</time>
      </trkpt>
      <trkpt lat="48.56631" lon="2.60947">
        <ele>72.8</ele>
        <time>2021-05-30T10:20:27Z</time>
      </trkpt>
      <trkpt lat="48.56632" lon="2.60954">
        <ele>72.7</ele>
        <time>2021-05-30T10:20:28Z</time>
      </trkpt>
      <trkpt lat="48.56643" lon="2.60997">
        <ele>72.3</ele>
        <time>2021-05-30T10:20:34Z</time>
      </trkpt>
      <trkpt lat="48.56646" lon="2.61003">
        <ele>72.2</ele>
        <time>2021-05-30T10:20:35Z</time>
      </trkpt>
      <trkpt lat="48.56651" lon="2.61015">
        <ele>72.2</ele>
        <time>2021-05-30T10:20:37Z</time>
      </trkpt>
      <trkpt lat="48.56654" lon="2.6102">
        <ele>72.1</ele>
        <time>2021-05-30T10:20:38Z</time>
      </trkpt>
      <trkpt lat="48.56661" lon="2.6103">
        <ele>72</ele>
        <time>2021-05-30T10:20:40Z</time>
      </trkpt>
      <trkpt lat="48.56665" lon="2.61035">
        <ele>72</ele>
        <time>2021-05-30T10:20:41Z</time>
      </trkpt>
      <trkpt lat="48.56681" lon="2.61053">
        <ele>72.3</ele>
        <time>2021-05-30T10:20:47Z</time>
      </trkpt>
      <trkpt lat="48.56683" lon="2.61055">
        <ele>72.4</ele>
        <time>2021-05-30T10:20:48Z</time>
      </trkpt>
      <trkpt lat="48.56684" lon="2.61056">
        <ele>72.4</ele>
        <time>2021-05-30T10:20:49Z</time>
      </trkpt>
      <trkpt lat="48.56685" lon="2.61057">
        <ele>72.4</ele>
        <time>2021-05-30T10:20:50Z</time>
      </trkpt>
      <trkpt lat="48.56688" lon="2.61058">
        <ele>72.5</ele>
        <time>2021-05-30T10:20:51Z</time>
      </trkpt>
      <trkpt lat="48.5669" lon="2.61058">
        <ele>72.5</ele>
        <time>2021-05-30T10:20:52Z</time>
      </trkpt>
      <trkpt lat="48.56693" lon="2.61063">
        <ele>72.6</ele>
        <time>2021-05-30T10:20:57Z</time>
      </trkpt>
      <trkpt lat="48.56698" lon="2.61064">
        <ele>72.8</ele>
        <time>2021-05-30T10:21:02Z</time>
      </trkpt>
      <trkpt lat="48.567" lon="2.61064">
        <ele>72.8</ele>
        <time>2021-05-30T10:21:03Z</time>
      </trkpt>
      <trkpt lat="48.56707" lon="2.61069">
        <ele>73</ele>
        <time>2021-05-30T10:21:06Z</time>
      </trkpt>
      <trkpt lat="48.56726" lon="2.61131">
        <ele>72.6</ele>
        <time>2021-05-30T10:21:18Z</time>
      </trkpt>
      <trkpt lat="48.5673" lon="2.61146">
        <ele>72.4</ele>
        <time>2021-05-30T10:21:24Z</time>
      </trkpt>
      <trkpt lat="48.56732" lon="2.61147">
        <ele>72.4</ele>
        <time>2021-05-30T10:21:25Z</time>
      </trkpt>
      <trkpt lat="48.56733" lon="2.61146">
        <ele>72.4</ele>
        <time>2021-05-30T10:21:26Z</time>
      </trkpt>
      <trkpt lat="48.56776" lon="2.61125">
        <ele>73.8</ele>
        <time>2021-05-30T10:21:40Z</time>
      </trkpt>
      <trkpt lat="48.56805" lon="2.61103">
        <ele>75</ele>
        <time>2021-05-30T10:21:54Z</time>
      </trkpt>
      <trkpt lat="48.56809" lon="2.611">
        <ele>75.2</ele>
        <time>2021-05-30T10:22:02Z</time>
      </trkpt>
      <trkpt lat="48.56811" lon="2.61101">
        <ele>75.2</ele>
        <time>2021-05-30T10:22:03Z</time>
      </trkpt>
      <trkpt lat="48.56817" lon="2.61103">
        <ele>75.3</ele>
        <time>2021-05-30T10:22:10Z</time>
      </trkpt>
      <trkpt lat="48.56818" lon="2.61101">
        <ele>75.4</ele>
        <time>2021-05-30T10:22:11Z</time>
      </trkpt>
      <trkpt lat="48.56818" lon="2.61099">
        <ele>75.4</ele>
        <time>2021-05-30T10:22:13Z</time>
      </trkpt>
      <trkpt lat="48.56818" lon="2.61097">
        <ele>75.4</ele>
        <time>2021-05-30T10:22:14Z</time>
      </trkpt>
      <trkpt lat="48.56819" lon="2.61095">
        <ele>75.5</ele>
        <time>2021-05-30T10:22:15Z</time>
      </trkpt>
      <trkpt lat="48.56818" lon="2.61089">
        <ele>75.6</ele>
        <time>2021-05-30T10:22:17Z</time>
      </trkpt>
      <trkpt lat="48.56817" lon="2.61085">
        <ele>75.6</ele>
        <time>2021-05-30T10:22:18Z</time>
      </trkpt>
      <trkpt lat="48.56817" lon="2.61081">
        <ele>75.6</ele>
        <time>2021-05-30T10:22:19Z</time>
      </trkpt>
      <trkpt lat="48.56816" lon="2.61078">
        <ele>75.6</ele>
        <time>2021-05-30T10:22:20Z</time>
      </trkpt>
      <trkpt lat="48.56815" lon="2.61073">
        <ele>75.6</ele>
        <time>2021-05-30T10:22:21Z</time>
      </trkpt>
      <trkpt lat="48.56814" lon="2.61069">
        <ele>75.5</ele>
        <time>2021-05-30T10:22:22Z</time>
      </trkpt>
      <trkpt lat="48.56809" lon="2.61025">
        <ele>75.4</ele>
        <time>2021-05-30T10:22:30Z</time>
      </trkpt>
      <trkpt lat="48.56809" lon="2.60999">
        <ele>75.4</ele>
        <time>2021-05-30T10:22:34Z</time>
      </trkpt>
      <trkpt lat="48.56811" lon="2.60994">
        <ele>75.6</ele>
        <time>2021-05-30T10:22:35Z</time>
      </trkpt>
      <trkpt lat="48.56814" lon="2.60988">
        <ele>75.8</ele>
        <time>2021-05-30T10:22:36Z</time>
      </trkpt>
      <trkpt lat="48.5682" lon="2.60979">
        <ele>76.1</ele>
        <time>2021-05-30T10:22:38Z</time>
      </trkpt>
      <trkpt lat="48.56823" lon="2.60975">
        <ele>76.3</ele>
        <time>2021-05-30T10:22:39Z</time>
      </trkpt>
      <trkpt lat="48.56828" lon="2.60973">
        <ele>76.5</ele>
        <time>2021-05-30T10:22:40Z</time>
      </trkpt>
      <trkpt lat="48.56832" lon="2.60971">
        <ele>76.7</ele>
        <time>2021-05-30T10:22:41Z</time>
      </trkpt>
      <trkpt lat="48.56836" lon="2.6097">
        <ele>76.8</ele>
        <time>2021-05-30T10:22:42Z</time>
      </trkpt>
      <trkpt lat="48.56898" lon="2.60958">
        <ele>78.1</ele>
        <time>2021-05-30T10:22:57Z</time>
      </trkpt>
      <trkpt lat="48.56954" lon="2.60943">
        <ele>78</ele>
        <time>2021-05-30T10:23:11Z</time>
      </trkpt>
      <trkpt lat="48.57004" lon="2.60919">
        <ele>78.1</ele>
        <time>2021-05-30T10:23:25Z</time>
      </trkpt>
      <trkpt lat="48.57063" lon="2.60907">
        <ele>79.4</ele>
        <time>2021-05-30T10:23:40Z</time>
      </trkpt>
      <trkpt lat="48.57107" lon="2.6091">
        <ele>79.9</ele>
        <time>2021-05-30T10:23:51Z</time>
      </trkpt>
      <trkpt lat="48.57137" lon="2.60915">
        <ele>80</ele>
        <time>2021-05-30T10:23:59Z</time>
      </trkpt>
      <trkpt lat="48.57141" lon="2.60914">
        <ele>80</ele>
        <time>2021-05-30T10:24:00Z</time>
      </trkpt>
      <trkpt lat="48.57145" lon="2.60912">
        <ele>80</ele>
        <time>2021-05-30T10:24:01Z</time>
      </trkpt>
      <trkpt lat="48.57148" lon="2.60909">
        <ele>80</ele>
        <time>2021-05-30T10:24:02Z</time>
      </trkpt>
      <trkpt lat="48.57152" lon="2.60906">
        <ele>80</ele>
        <time>2021-05-30T10:24:03Z</time>
      </trkpt>
      <trkpt lat="48.57156" lon="2.60904">
        <ele>80</ele>
        <time>2021-05-30T10:24:04Z</time>
      </trkpt>
      <trkpt lat="48.5716" lon="2.60903">
        <ele>80</ele>
        <time>2021-05-30T10:24:05Z</time>
      </trkpt>
      <trkpt lat="48.57165" lon="2.60903">
        <ele>80</ele>
        <time>2021-05-30T10:24:06Z</time>
      </trkpt>
      <trkpt lat="48.57178" lon="2.60901">
        <ele>79.9</ele>
        <time>2021-05-30T10:24:09Z</time>
      </trkpt>
      <trkpt lat="48.57183" lon="2.60901">
        <ele>79.9</ele>
        <time>2021-05-30T10:24:10Z</time>
      </trkpt>
      <trkpt lat="48.57192" lon="2.60903">
        <ele>79.8</ele>
        <time>2021-05-30T10:24:12Z</time>
      </trkpt>
      <trkpt lat="48.5726" lon="2.60929">
        <ele>78.9</ele>
        <time>2021-05-30T10:24:26Z</time>
      </trkpt>
      <trkpt lat="48.57265" lon="2.60932">
        <ele>78.9</ele>
        <time>2021-05-30T10:24:27Z</time>
      </trkpt>
      <trkpt lat="48.57325" lon="2.60956">
        <ele>79</ele>
        <time>2021-05-30T10:24:40Z</time>
      </trkpt>
      <trkpt lat="48.5733" lon="2.60958">
        <ele>79</ele>
        <time>2021-05-30T10:24:41Z</time>
      </trkpt>
      <trkpt lat="48.57347" lon="2.60967">
        <ele>78.8</ele>
        <time>2021-05-30T10:24:45Z</time>
      </trkpt>
      <trkpt lat="48.5735" lon="2.60972">
        <ele>78.7</ele>
        <time>2021-05-30T10:24:46Z</time>
      </trkpt>
      <trkpt lat="48.57351" lon="2.60978">
        <ele>78.7</ele>
        <time>2021-05-30T10:24:47Z</time>
      </trkpt>
      <trkpt lat="48.5735" lon="2.60984">
        <ele>78.7</ele>
        <time>2021-05-30T10:24:48Z</time>
      </trkpt>
      <trkpt lat="48.57349" lon="2.60989">
        <ele>78.7</ele>
        <time>2021-05-30T10:24:49Z</time>
      </trkpt>
      <trkpt lat="48.57342" lon="2.61013">
        <ele>78.6</ele>
        <time>2021-05-30T10:24:54Z</time>
      </trkpt>
      <trkpt lat="48.57339" lon="2.61014">
        <ele>78.7</ele>
        <time>2021-05-30T10:24:55Z</time>
      </trkpt>
      <trkpt lat="48.57336" lon="2.61014">
        <ele>78.8</ele>
        <time>2021-05-30T10:24:56Z</time>
      </trkpt>
      <trkpt lat="48.57325" lon="2.61015">
        <ele>78.8</ele>
        <time>2021-05-30T10:24:59Z</time>
      </trkpt>
      <trkpt lat="48.57322" lon="2.61019">
        <ele>78.7</ele>
        <time>2021-05-30T10:25:00Z</time>
      </trkpt>
      <trkpt lat="48.5732" lon="2.61024">
        <ele>78.6</ele>
        <time>2021-05-30T10:25:01Z</time>
      </trkpt>
      <trkpt lat="48.57318" lon="2.61029">
        <ele>78.6</ele>
        <time>2021-05-30T10:25:02Z</time>
      </trkpt>
      <trkpt lat="48.57317" lon="2.61035">
        <ele>78.5</ele>
        <time>2021-05-30T10:25:03Z</time>
      </trkpt>
      <trkpt lat="48.57314" lon="2.61054">
        <ele>78.4</ele>
        <time>2021-05-30T10:25:06Z</time>
      </trkpt>
      <trkpt lat="48.57314" lon="2.61067">
        <ele>78.3</ele>
        <time>2021-05-30T10:25:08Z</time>
      </trkpt>
      <trkpt lat="48.57314" lon="2.61101">
        <ele>78.2</ele>
        <time>2021-05-30T10:25:13Z</time>
      </trkpt>
      <trkpt lat="48.57315" lon="2.61121">
        <ele>78.1</ele>
        <time>2021-05-30T10:25:16Z</time>
      </trkpt>
      <trkpt lat="48.57316" lon="2.61147">
        <ele>78</ele>
        <time>2021-05-30T10:25:20Z</time>
      </trkpt>
      <trkpt lat="48.5732" lon="2.61169">
        <ele>78</ele>
        <time>2021-05-30T10:25:24Z</time>
      </trkpt>
      <trkpt lat="48.57323" lon="2.61171">
        <ele>77.9</ele>
        <time>2021-05-30T10:25:25Z</time>
      </trkpt>
      <trkpt lat="48.57326" lon="2.61172">
        <ele>77.9</ele>
        <time>2021-05-30T10:25:26Z</time>
      </trkpt>
      <trkpt lat="48.57329" lon="2.61173">
        <ele>77.9</ele>
        <time>2021-05-30T10:25:27Z</time>
      </trkpt>
      <trkpt lat="48.57333" lon="2.61173">
        <ele>77.9</ele>
        <time>2021-05-30T10:25:28Z</time>
      </trkpt>
      <trkpt lat="48.57342" lon="2.61179">
        <ele>77.6</ele>
        <time>2021-05-30T10:25:31Z</time>
      </trkpt>
      <trkpt lat="48.57344" lon="2.61183">
        <ele>77.6</ele>
        <time>2021-05-30T10:25:32Z</time>
      </trkpt>
      <trkpt lat="48.57345" lon="2.61186">
        <ele>77.5</ele>
        <time>2021-05-30T10:25:33Z</time>
      </trkpt>
      <trkpt lat="48.57347" lon="2.61188">
        <ele>77.4</ele>
        <time>2021-05-30T10:25:34Z</time>
      </trkpt>
      <trkpt lat="48.57349" lon="2.6119">
        <ele>77.3</ele>
        <time>2021-05-30T10:25:35Z</time>
      </trkpt>
      <trkpt lat="48.57351" lon="2.61191">
        <ele>77.3</ele>
        <time>2021-05-30T10:25:36Z</time>
      </trkpt>
      <trkpt lat="48.57354" lon="2.61192">
        <ele>77.2</ele>
        <time>2021-05-30T10:25:37Z</time>
      </trkpt>
      <trkpt lat="48.57357" lon="2.61194">
        <ele>77.1</ele>
        <time>2021-05-30T10:25:38Z</time>
      </trkpt>
      <trkpt lat="48.57359" lon="2.61197">
        <ele>77</ele>
        <time>2021-05-30T10:25:39Z</time>
      </trkpt>
      <trkpt lat="48.57359" lon="2.61202">
        <ele>77</ele>
        <time>2021-05-30T10:25:40Z</time>
      </trkpt>
      <trkpt lat="48.5736" lon="2.61207">
        <ele>76.9</ele>
        <time>2021-05-30T10:25:41Z</time>
      </trkpt>
      <trkpt lat="48.5736" lon="2.61223">
        <ele>76.7</ele>
        <time>2021-05-30T10:25:44Z</time>
      </trkpt>
      <trkpt lat="48.57359" lon="2.61227">
        <ele>76.7</ele>
        <time>2021-05-30T10:25:45Z</time>
      </trkpt>
      <trkpt lat="48.57357" lon="2.6123">
        <ele>76.7</ele>
        <time>2021-05-30T10:25:54Z</time>
      </trkpt>
      <trkpt lat="48.57357" lon="2.6123">
        <ele>76.7</ele>
        <time>2021-05-30T10:26:16Z</time>
      </trkpt>
      <trkpt lat="48.57358" lon="2.6123">
        <ele>76.6</ele>
        <time>2021-05-30T10:26:32Z</time>
      </trkpt>
    </trkseg>
  </trk>
</gpx>